
Distance (Route):
Temperature : -1.1°C
Humidity : 97.1%
Pressure : 703.9hPa| Receiver | Frames | First received | Last received |
|---|---|---|---|
| AA1-15 | 634 | 2026-08-31 11:08:18 | 2026-08-31 13:04:07 |
| DO2SHX-10 | 525 | 2026-08-31 11:32:34 | 2026-08-31 12:48:16 |
| DL1XH-west | 463 | 2026-08-31 11:24:08 | 2026-08-31 12:54:21 |
| DL1XH1-15 | 398 | 2026-08-31 11:24:22 | 2026-08-31 12:54:30 |
| DL1XH-15 | 380 | 2026-08-31 11:22:36 | 2026-08-31 12:57:06 |
| DM0DOS-11 | 362 | 2026-08-31 11:29:47 | 2026-08-31 12:52:04 |
| DF8AY | 224 | 2026-08-31 11:32:59 | 2026-08-31 12:50:35 |
| AM1SDL-15 | 101 | 2026-08-31 11:22:38 | 2026-08-31 12:56:16 |
| S3001 | 56 | 2026-08-31 11:23:10 | 2026-08-31 12:51:09 |
| EDDB2-11 | 55 | 2026-08-31 11:28:39 | 2026-08-31 12:57:09 |
| EDDB2-12 | 51 | 2026-08-31 11:23:12 | 2026-08-31 12:57:53 |
| SP3WXH-11 | 49 | 2026-08-31 11:44:48 | 2026-08-31 12:58:47 |
| SONDE2-11 | 48 | 2026-08-31 11:23:11 | 2026-08-31 12:57:55 |
| SONCRA | 23 | 2026-08-31 12:03:21 | 2026-08-31 12:44:15 |
| MECKS9 | 22 | 2026-08-31 11:07:53 | 2026-08-31 12:39:04 |
| DJ2DS-15 | 18 | 2026-08-31 11:35:20 | 2026-08-31 12:48:04 |
| SP3BTT-10 | 14 | 2026-08-31 11:26:36 | 2026-08-31 12:46:21 |
| DG6HD-15 | 13 | 2026-08-31 11:34:39 | 2026-08-31 12:48:02 |
| BIOWL1-15 | 13 | 2026-08-31 12:03:02 | 2026-08-31 12:37:39 |
| DF8AY-15 | 13 | 2026-08-31 12:16:42 | 2026-08-31 12:28:57 |
| DB0NH | 5 | 2026-08-31 12:22:11 | 2026-08-31 12:38:32 |
| DL4BBY-15 | 4 | 2026-08-31 12:16:43 | 2026-08-31 12:39:14 |
| D01LWL | 4 | 2026-08-31 12:43:58 | 2026-08-31 12:49:09 |
| DK1YY | 2 | 2026-08-31 11:52:33 | 2026-08-31 12:43:16 |
| Receiver | Date | Latitude | Longitude | Direction | Speed | Altitude | Climb | Temperature | Humidity | Pressure | Voltage | Killtimer | Uptime | BKT | XDATA |
|---|---|---|---|---|---|---|---|---|---|---|---|---|---|---|---|
| AA1-15 | 2026-08-31 13:04:07 | 54.61270 | 14.42544 | 50° | 40km/h | 3031m | -9.6m/s | -1.1°C | 97.1% | 703.9hPa | 2.7V | 08:03:58 | 02:13:40 | 00:00:00 | |
| AA1-15 | 2026-08-31 13:03:45 | 54.61122 | 14.42236 | 49° | 42km/h | 3253m | -10m/s | -2.4°C | 96.7% | 684.7hPa | 2.7V | 08:03:58 | 02:13:18 | 00:00:00 | |
| AA1-15 | 2026-08-31 13:03:34 | 54.61040 | 14.42090 | 48° | 40km/h | 3363m | -10.6m/s | -3.4°C | 100% | 675hPa | 2.7V | 08:03:58 | 02:13:07 | 00:00:00 | |
| AA1-15 | 2026-08-31 13:03:23 | 54.60954 | 14.41947 | 39° | 46km/h | 3480m | -10m/s | -4.4°C | 100% | 664.8hPa | 2.7V | 08:03:58 | 02:12:56 | 00:00:00 | |
| AA1-15 | 2026-08-31 13:03:12 | 54.60855 | 14.41805 | 40° | 47km/h | 3595m | -11.3m/s | -5.1°C | 98.5% | 655.1hPa | 2.6V | 08:03:58 | 02:12:45 | 00:00:00 | |
| AA1-15 | 2026-08-31 13:03:01 | 54.60765 | 14.41670 | 44° | 37km/h | 3711m | -11m/s | -5.9°C | 96.2% | 645.6hPa | 2.7V | 08:04:49 | 02:12:34 | 00:00:00 | |
| AA1-15 | 2026-08-31 13:02:50 | 54.60680 | 14.41521 | 54° | 44km/h | 3829m | -11.3m/s | -6.3°C | 92.3% | 636.3hPa | 2.7V | 08:04:49 | 02:12:23 | 00:00:00 | |
| AA1-15 | 2026-08-31 13:02:40 | 54.60611 | 14.41351 | 57° | 47km/h | 3941m | -10.5m/s | -6°C | 61.1% | 627.3hPa | 2.7V | 08:04:49 | 02:12:13 | 00:00:00 | |
| AA1-15 | 2026-08-31 13:02:29 | 54.60537 | 14.41152 | 58° | 51km/h | 4055m | -10.8m/s | -6.6°C | 52.5% | 617.9hPa | 2.6V | 08:04:49 | 02:12:02 | 00:00:00 | |
| AA1-15 | 2026-08-31 13:02:18 | 54.60450 | 14.40924 | 56° | 62km/h | 4174m | -11.9m/s | -7.1°C | 55.4% | 608.2hPa | 2.7V | 08:04:49 | 02:11:51 | 00:00:00 | |
| AA1-15 | 2026-08-31 13:02:07 | 54.60352 | 14.40678 | 57° | 62km/h | 4303m | -12.4m/s | -7.7°C | 40.8% | 598.4hPa | 2.6V | 08:05:40 | 02:11:40 | 00:00:00 | |
| AA1-15 | 2026-08-31 13:01:56 | 54.60257 | 14.40423 | 57° | 62km/h | 4432m | -11.5m/s | -8.7°C | 46.2% | 588.7hPa | 2.6V | 08:05:40 | 02:11:29 | 00:00:00 | |
| AA1-15 | 2026-08-31 13:01:45 | 54.60148 | 14.40151 | 53° | 64km/h | 4567m | -11.4m/s | -9.7°C | 38.8% | 578.4hPa | 2.7V | 08:05:40 | 02:11:17 | 00:00:00 | |
| AA1-15 | 2026-08-31 13:01:34 | 54.60045 | 14.39920 | 52° | 60km/h | 4690m | -12.4m/s | -10.5°C | 40.3% | 569hPa | 2.6V | 08:05:40 | 02:11:06 | 00:00:00 | |
| AA1-15 | 2026-08-31 13:01:22 | 54.59941 | 14.39700 | 51° | 58km/h | 4823m | -12.8m/s | -11.6°C | 39.8% | 559.6hPa | 2.6V | 08:05:40 | 02:10:55 | 00:00:00 | |
| AA1-15 | 2026-08-31 13:01:11 | 54.59845 | 14.39476 | 56° | 57km/h | 4955m | -11.4m/s | -11.9°C | 15.9% | 550.3hPa | 2.6V | 08:07:22 | 02:10:44 | 00:00:00 | |
| AA1-15 | 2026-08-31 13:01:00 | 54.59748 | 14.39247 | 53° | 60km/h | 5085m | -12.1m/s | -13°C | 22.3% | 541hPa | 2.6V | 08:07:22 | 02:10:33 | 00:00:00 | |
| AA1-15 | 2026-08-31 13:00:50 | 54.59661 | 14.39045 | 55° | 57km/h | 5200m | -11.5m/s | -14°C | 25.6% | 532.6hPa | 2.5V | 08:07:22 | 02:10:23 | 00:00:00 | |
| AA1-15 | 2026-08-31 13:00:39 | 54.59573 | 14.38812 | 58° | 58km/h | 5334m | -12.7m/s | -15.1°C | 24.3% | 523.4hPa | 2.6V | 08:07:22 | 02:10:12 | 00:00:00 | |
| AA1-15 | 2026-08-31 13:00:29 | 54.59492 | 14.38592 | 56° | 62km/h | 5456m | -12.1m/s | -16.1°C | 22.5% | 515.2hPa | 2.6V | 08:07:22 | 02:10:02 | 00:00:00 | |
| AA1-15 | 2026-08-31 13:00:14 | 54.59368 | 14.38263 | 59° | 57km/h | 5629m | -11.1m/s | -17.5°C | 21.5% | 503.2hPa | 2.5V | 08:07:22 | 02:09:47 | 00:00:00 | |
| AA1-15 | 2026-08-31 13:00:03 | 54.59284 | 14.38022 | 58° | 62km/h | 5757m | -11.8m/s | -18.7°C | 23.4% | 494.6hPa | 2.6V | 08:07:22 | 02:09:36 | 00:00:00 | |
| AA1-15 | 2026-08-31 12:59:52 | 54.59189 | 14.37769 | 55° | 66km/h | 5892m | -11.9m/s | -19.8°C | 22.2% | 485.9hPa | 2.6V | 08:07:22 | 02:09:25 | 00:00:00 | |
| AA1-15 | 2026-08-31 12:59:42 | 54.59105 | 14.37548 | 55° | 64km/h | 6011m | -12.8m/s | -20.9°C | 25% | 478.4hPa | 2.6V | 08:07:22 | 02:09:15 | 00:00:00 | |
| AA1-15 | 2026-08-31 12:59:31 | 54.59001 | 14.37309 | 57° | 58km/h | 6135m | -11.7m/s | -22°C | 27.7% | 470.1hPa | 2.5V | 08:08:13 | 02:09:04 | 00:00:00 | |
| AA1-15 | 2026-08-31 12:59:20 | 54.58906 | 14.37069 | 55° | 62km/h | 6261m | -12.7m/s | -23°C | 27.3% | 462.2hPa | 2.6V | 08:08:13 | 02:08:53 | 00:00:00 | |
| AA1-15 | 2026-08-31 12:59:09 | 54.58805 | 14.36826 | 56° | 66km/h | 6389m | -12.3m/s | -24°C | 24.3% | 454hPa | 2.6V | 08:08:13 | 02:08:42 | 00:00:00 | |
| AA1-15 | 2026-08-31 12:58:59 | 54.58714 | 14.36595 | 58° | 62km/h | 6510m | -11.9m/s | -24.9°C | 21.1% | 446.7hPa | 2.6V | 08:08:13 | 02:08:32 | 00:00:00 | |
| AA1-15 | 2026-08-31 12:58:48 | 54.58621 | 14.36342 | 55° | 66km/h | 6648m | -12.2m/s | -26°C | 20.4% | 438.4hPa | 2.6V | 08:08:13 | 02:08:21 | 00:00:00 | |
| SP3WXH-11 | 2026-08-31 12:58:47 | 54.58602 | 14.36296 | 55° | 64km/h | 6672m | -12.4m/s | -26.2°C | 16.2% | 437.0hPa | 2.6V | 00:00:00 | 00:00:00 | 00:00:00 | |
| AA1-15 | 2026-08-31 12:58:37 | 54.58523 | 14.36092 | 59° | 62km/h | 6779m | -12.3m/s | -27.1°C | 21% | 430.3hPa | 2.6V | 08:09:04 | 02:08:10 | 00:00:00 | |
| AA1-15 | 2026-08-31 12:58:27 | 54.58431 | 14.35860 | 52° | 69km/h | 6900m | -13m/s | -28.2°C | 24.2% | 423hPa | 2.6V | 08:09:04 | 02:08:00 | 00:00:00 | |
| AA1-15 | 2026-08-31 12:58:16 | 54.58325 | 14.35614 | 56° | 62km/h | 7031m | -12.4m/s | -29.4°C | 27% | 415hPa | 2.6V | 08:09:04 | 02:07:49 | 00:00:00 | |
| AA1-15 | 2026-08-31 12:58:05 | 54.58214 | 14.35364 | 49° | 71km/h | 7166m | -12.4m/s | -30.3°C | 23.1% | 407.3hPa | 2.6V | 08:09:04 | 02:07:38 | 00:00:00 | |
| AA1-15 | 2026-08-31 12:57:55 | 54.58101 | 14.35135 | 51° | 73km/h | 7285m | -13.3m/s | -31.1°C | 18.9% | 400.5hPa | 2.6V | 08:09:55 | 02:07:28 | 00:00:00 | |
| SONDE2-11 | 2026-08-31 12:57:55 | 54.58090 | 14.35111 | 51° | 69km/h | 7298m | -13.0m/s | -31.3°C | 14.5% | 399.8hPa | 2.6V | 00:00:00 | 00:00:00 | 00:00:00 | |
| EDDB2-12 | 2026-08-31 12:57:53 | 54.58079 | 14.35087 | 51° | 71km/h | 7311m | -13.2m/s | -31.3°C | 14.2% | 399.1hPa | 2.6V | 00:00:00 | 00:00:00 | 00:00:00 | |
| AA1-15 | 2026-08-31 12:57:45 | 54.57975 | 14.34860 | 51° | 77km/h | 7422m | -12.4m/s | -32.3°C | 18.3% | 392.9hPa | 2.6V | 08:09:55 | 02:07:17 | 00:00:00 | |
| AA1-15 | 2026-08-31 12:57:33 | 54.57854 | 14.34582 | 54° | 75km/h | 7558m | -12.3m/s | -33.4°C | 16.7% | 385.5hPa | 2.6V | 08:09:55 | 02:07:06 | 00:00:00 | |
| AA1-15 | 2026-08-31 12:57:22 | 54.57733 | 14.34301 | 55° | 73km/h | 7692m | -11.5m/s | -33.9°C | 35.2% | 378.3hPa | 2.6V | 08:09:55 | 02:06:55 | 00:00:00 | |
| AA1-15 | 2026-08-31 12:57:11 | 54.57615 | 14.33996 | 56° | 82km/h | 7831m | -11.6m/s | -35°C | 48% | 371hPa | 2.7V | 08:09:55 | 02:06:44 | 00:00:00 | |
| EDDB2-11 | 2026-08-31 12:57:09 | 54.57591 | 14.33937 | 54° | 84km/h | 7856m | -12.5m/s | -35.3°C | 41.0% | 369.7hPa | 2.6V | 00:00:00 | 00:00:00 | 00:00:00 | |
| DL1XH-15 | 2026-08-31 12:57:06 | 54.57504 | 14.33737 | 54° | 80km/h | 7943m | -12.2m/s | -36°C | 44% | 365.1hPa | 2.6V | 08:09:59 | 02:06:35 | 00:00:00 | |
| AA1-15 | 2026-08-31 12:57:00 | 54.57480 | 14.33680 | 55° | 80km/h | 7966m | -12.2m/s | -36.3°C | 47.7% | 363.6hPa | 2.6V | 08:10:46 | 02:06:33 | 00:00:00 | |
| DL1XH-15 | 2026-08-31 12:56:54 | 54.57381 | 14.33454 | 53° | 82km/h | 8066m | -12.9m/s | -37.2°C | 44.4% | 358.5hPa | 2.6V | 08:10:09 | 02:06:25 | 00:00:00 | |
| AA1-15 | 2026-08-31 12:56:50 | 54.57354 | 14.33397 | 52° | 84km/h | 8091m | -13.1m/s | -37.5°C | 48.4% | 357.2hPa | 2.6V | 08:10:46 | 02:06:23 | 00:00:00 | |
| AA1-15 | 2026-08-31 12:56:40 | 54.57189 | 14.33050 | 55° | 82km/h | 8235m | -12.8m/s | -38.7°C | 53.9% | 349.5hPa | 2.6V | 08:10:46 | 02:06:11 | 00:00:00 | |
| AA1-15 | 2026-08-31 12:56:29 | 54.57064 | 14.32753 | 55° | 86km/h | 8364m | -13m/s | -39.9°C | 53.7% | 343.1hPa | 2.6V | 08:10:46 | 02:06:01 | 00:00:00 | |
| DL1XH-15 | 2026-08-31 12:56:28 | 54.57038 | 14.32692 | 54° | 84km/h | 8389m | -13m/s | -40.1°C | 47.8% | 341.8hPa | 2.6V | 08:10:35 | 02:05:59 | 00:00:00 | |
| AA1-15 | 2026-08-31 12:56:18 | 54.56937 | 14.32448 | 56° | 88km/h | 8494m | -14m/s | -40.6°C | 33.5% | 336.8hPa | 2.6V | 08:10:46 | 02:05:51 | 00:00:00 | |
| DL1XH-15 | 2026-08-31 12:56:18 | 54.56913 | 14.32385 | 56° | 86km/h | 8522m | -14.3m/s | -40.8°C | 29.4% | 335.5hPa | 2.6V | 08:10:45 | 02:05:49 | 00:00:00 | |
| AM1SDL-15 | 2026-08-31 12:56:16 | 54.56912 | 14.32385 | 57° | 88km/h | 8522m | -14.3m/s | -40.8°C | 29.4% | 335.5hPa | 2.6V | 00:00:00 | 02:05:49 | 00:00:00 | |
| SP3WXH-11 | 2026-08-31 12:56:11 | 54.56851 | 14.32229 | 55° | 86km/h | 8591m | -13.4m/s | -41.3°C | 23.9% | 332.3hPa | 2.6V | 00:00:00 | 00:00:00 | 00:00:00 | |
| DL1XH-15 | 2026-08-31 12:56:08 | 54.56789 | 14.32072 | 54° | 88km/h | 8658m | -12.7m/s | -41.5°C | 23.5% | 329.1hPa | 2.6V | 08:10:55 | 02:05:39 | 00:00:00 | |
| AA1-15 | 2026-08-31 12:56:07 | 54.56802 | 14.32104 | 57° | 88km/h | 8644m | -13.8m/s | -41.5°C | 26.6% | 329.7hPa | 2.6V | 08:11:37 | 02:05:40 | 00:00:00 | |
| EDDB2-11 | 2026-08-31 12:56:07 | 54.56789 | 14.32072 | 54° | 86km/h | 8658m | -12.7m/s | -41.5°C | 20.8% | 329.1hPa | 2.6V | 00:00:00 | 00:00:00 | 00:00:00 | |
| AM1SDL-15 | 2026-08-31 12:56:04 | 54.56763 | 14.32008 | 54° | 93km/h | 8683m | -12.3m/s | -41.6°C | 22.2% | 327.8hPa | 2.6V | 00:00:00 | 02:05:37 | 00:00:00 | |
| DL1XH-15 | 2026-08-31 12:55:58 | 54.56652 | 14.31741 | 54° | 97km/h | 8782m | -13.1m/s | -42.2°C | 17% | 323.1hPa | 2.6V | 08:11:05 | 02:05:29 | 00:00:00 | |
| AA1-15 | 2026-08-31 12:55:56 | 54.56652 | 14.31741 | 54° | 97km/h | 8782m | -13.1m/s | -42.2°C | 19% | 323.1hPa | 2.6V | 08:11:37 | 02:05:29 | 00:00:00 | |
| SONDE2-11 | 2026-08-31 12:55:51 | 54.56562 | 14.31531 | 54° | 102km/h | 8857m | -13.5m/s | -42.5°C | 14.9% | 319.3hPa | 2.6V | 00:00:00 | 00:00:00 | 00:00:00 | |
| EDDB2-12 | 2026-08-31 12:55:49 | 54.56547 | 14.31495 | 54° | 102km/h | 8871m | -13.2m/s | -42.7°C | 15.0% | 318.7hPa | 2.6V | 00:00:00 | 00:00:00 | 00:00:00 | |
| DL1XH-15 | 2026-08-31 12:55:48 | 54.56503 | 14.31388 | 52° | 100km/h | 8909m | -11.8m/s | -43°C | 18.3% | 316.9hPa | 2.6V | 08:11:15 | 02:05:19 | 00:00:00 | |
| AA1-15 | 2026-08-31 12:55:46 | 54.56487 | 14.31354 | 52° | 102km/h | 8921m | -11.9m/s | -43.1°C | 20.4% | 316.2hPa | 2.6V | 08:11:37 | 02:05:18 | 00:00:00 | |
| AM1SDL-15 | 2026-08-31 12:55:40 | 54.56410 | 14.31179 | 53° | 99km/h | 8986m | -12.0m/s | -43.2°C | 18.0% | 313.4hPa | 2.6V | 00:00:00 | 02:05:13 | 00:00:00 | |
| DL1XH-15 | 2026-08-31 12:55:38 | 54.56348 | 14.31045 | 51° | 100km/h | 9035m | -13.6m/s | -43.5°C | 18% | 311hPa | 2.6V | 08:11:25 | 02:05:09 | 00:00:00 | |
| AA1-15 | 2026-08-31 12:55:35 | 54.56301 | 14.30944 | 51° | 99km/h | 9074m | -12.9m/s | -43.6°C | 20.2% | 309.1hPa | 2.6V | 08:11:37 | 02:05:06 | 00:00:00 | |
| DL1XH-15 | 2026-08-31 12:55:31 | 54.56174 | 14.30677 | 50° | 99km/h | 9174m | -12.2m/s | -44.1°C | 17.5% | 304.5hPa | 2.6V | 08:11:36 | 02:04:58 | 00:00:00 | |
| AA1-15 | 2026-08-31 12:55:23 | 54.56126 | 14.30576 | 50° | 100km/h | 9211m | -12.8m/s | -44.1°C | 20.4% | 302.8hPa | 2.6V | 08:12:28 | 02:04:55 | 00:00:00 | |
| AA1-15 | 2026-08-31 12:55:11 | 54.55959 | 14.30206 | 51° | 95km/h | 9350m | -12m/s | -45°C | 24% | 296.6hPa | 2.6V | 08:12:28 | 02:04:44 | 00:00:00 | |
| DL1XH-15 | 2026-08-31 12:55:10 | 54.55854 | 14.29984 | 51° | 93km/h | 9440m | -13.3m/s | -45.8°C | 21% | 292.6hPa | 2.6V | 08:11:57 | 02:04:37 | 00:00:00 | |
| AA1-15 | 2026-08-31 12:55:00 | 54.55794 | 14.29857 | 51° | 91km/h | 9495m | -13.7m/s | -46.2°C | 22.9% | 290.4hPa | 2.6V | 08:12:28 | 02:04:33 | 00:00:00 | |
| DL1XH-15 | 2026-08-31 12:54:58 | 54.55721 | 14.29702 | 49° | 93km/h | 9560m | -13.5m/s | -46.6°C | 21.2% | 287.6hPa | 2.6V | 08:12:06 | 02:04:28 | 00:00:00 | |
| AM1SDL-15 | 2026-08-31 12:54:52 | 54.55676 | 14.29608 | 51° | 95km/h | 9601m | -13.5m/s | -46.9°C | 20.9% | 285.8hPa | 2.6V | 00:00:00 | 02:04:25 | 00:00:00 | |
| DL1XH-15 | 2026-08-31 12:54:50 | 54.55572 | 14.29386 | 49° | 97km/h | 9691m | -13.1m/s | -47.4°C | 20.8% | 281.9hPa | 2.6V | 08:12:16 | 02:04:18 | 00:00:00 | |
| AA1-15 | 2026-08-31 12:54:50 | 54.55632 | 14.29514 | 52° | 95km/h | 9639m | -13m/s | -47.1°C | 23% | 284.1hPa | 2.6V | 08:12:28 | 02:04:22 | 00:00:00 | |
| SONDE2-11 | 2026-08-31 12:54:48 | 54.55617 | 14.29482 | 50° | 95km/h | 9652m | -12.2m/s | -47.2°C | 18.0% | 283.6hPa | 2.6V | 00:00:00 | 00:00:00 | 00:00:00 | |
| EDDB2-12 | 2026-08-31 12:54:47 | 54.55602 | 14.29450 | 50° | 93km/h | 9665m | -12.6m/s | -47.3°C | 17.9% | 283.0hPa | 2.6V | 00:00:00 | 00:00:00 | 00:00:00 | |
| AA1-15 | 2026-08-31 12:54:39 | 54.55479 | 14.29192 | 49° | 97km/h | 9768m | -13.5m/s | -47.7°C | 21.4% | 278.7hPa | 2.6V | 08:12:28 | 02:04:12 | 00:00:00 | |
| SP3WXH-11 | 2026-08-31 12:54:38 | 54.55463 | 14.29160 | 49° | 95km/h | 9781m | -12.8m/s | -47.8°C | 16.8% | 278.1hPa | 2.6V | 00:00:00 | 00:00:00 | 00:00:00 | |
| DL1XH-15 | 2026-08-31 12:54:37 | 54.55415 | 14.29064 | 48° | 95km/h | 9821m | -12.8m/s | -47.8°C | 19.1% | 276.4hPa | 2.6V | 08:12:26 | 02:04:08 | 00:00:00 | |
| EDDB2-11 | 2026-08-31 12:54:34 | 54.55383 | 14.29002 | 48° | 95km/h | 9846m | -13.0m/s | -47.6°C | 15.2% | 275.4hPa | 2.6V | 00:00:00 | 00:00:00 | 00:00:00 | |
| DL1XH-15 | 2026-08-31 12:54:30 | 54.55242 | 14.28747 | 44° | 108km/h | 9951m | -12.5m/s | -47.9°C | 16.9% | 271hPa | 2.6V | 08:12:36 | 02:03:58 | 00:00:00 | |
| DL1XH1-15 | 2026-08-31 12:54:30 | 54.55280 | 14.28813 | 46° | 106km/h | 9925m | -13.4m/s | -47.9°C | 17.4% | 272hPa | 2.6V | 08:12:34 | 02:04:00 | 00:00:00 | |
| AA1-15 | 2026-08-31 12:54:28 | 54.55298 | 14.28846 | 46° | 104km/h | 9912m | -13.2m/s | -47.9°C | 18.8% | 272.6hPa | 2.6V | 08:13:19 | 02:04:01 | 00:00:00 | |
| DL1XH-west | 2026-08-31 12:54:21 | 54.55164 | 14.28615 | 44° | 110km/h | 10004m | -14.6m/s | -48°C | 16.8% | 268.9hPa | 2.6V | 08:15:01 | 02:03:54 | 00:00:00 | |
| DL1XH1-15 | 2026-08-31 12:54:18 | 54.55083 | 14.28489 | 41° | 108km/h | 10057m | -13.8m/s | -47.7°C | 14.7% | 266.8hPa | 2.6V | 08:12:44 | 02:03:50 | 00:00:00 | |
| AA1-15 | 2026-08-31 12:54:17 | 54.55083 | 14.28489 | 41° | 108km/h | 10057m | -13.8m/s | -47.7°C | 15.8% | 266.8hPa | 2.6V | 08:13:19 | 02:03:50 | 00:00:00 | |
| DL1XH-15 | 2026-08-31 12:54:17 | 54.55043 | 14.28427 | 41° | 106km/h | 10084m | -12.9m/s | -47.7°C | 14.3% | 265.6hPa | 2.7V | 08:12:46 | 02:03:48 | 00:00:00 | |
| DL1XH-west | 2026-08-31 12:54:11 | 54.54964 | 14.28309 | 40° | 102km/h | 10138m | -14m/s | -47.8°C | 15.7% | 263.5hPa | 2.6V | 08:15:01 | 02:03:44 | 00:00:00 | |
| AA1-15 | 2026-08-31 12:54:06 | 54.54847 | 14.28131 | 43° | 102km/h | 10219m | -13.1m/s | -48°C | 16.3% | 260.2hPa | 2.6V | 08:13:19 | 02:03:38 | 00:00:00 | |
| DL1XH-west | 2026-08-31 12:54:01 | 54.54772 | 14.28008 | 44° | 102km/h | 10273m | -13.2m/s | -48°C | 16.1% | 258.2hPa | 2.6V | 08:15:01 | 02:03:34 | 00:00:00 | |
| AA1-15 | 2026-08-31 12:53:56 | 54.54627 | 14.27744 | 48° | 106km/h | 10386m | -14.1m/s | -48.9°C | 15.3% | 253.8hPa | 2.6V | 08:13:19 | 02:03:26 | 00:00:00 | |
| DL1XH-west | 2026-08-31 12:53:50 | 54.54575 | 14.27639 | 50° | 106km/h | 10428m | -13.2m/s | -49.2°C | 14.7% | 252.2hPa | 2.6V | 08:15:01 | 02:03:23 | 00:00:00 | |
| AA1-15 | 2026-08-31 12:53:45 | 54.54492 | 14.27462 | 52° | 102km/h | 10495m | -13.4m/s | -49.4°C | 13.6% | 249.5hPa | 2.6V | 08:13:19 | 02:03:18 | 00:00:00 | |
| EDDB2-12 | 2026-08-31 12:53:45 | 54.54492 | 14.27462 | 51° | 102km/h | 10495m | -13.4m/s | -49.4°C | 10.7% | 249.5hPa | 2.6V | 00:00:00 | 00:00:00 | 00:00:00 | |
| DL1XH-west | 2026-08-31 12:53:40 | 54.54413 | 14.27292 | 51° | 99km/h | 10562m | -13m/s | -49°C | 13.1% | 247hPa | 2.6V | 08:15:01 | 02:03:13 | 00:00:00 | |
| AA1-15 | 2026-08-31 12:53:35 | 54.54319 | 14.27102 | 48° | 97km/h | 10640m | -12.2m/s | -49.1°C | 10.6% | 244hPa | 2.6V | 08:14:10 | 02:03:07 | 00:00:00 | |
| DL1XH-west | 2026-08-31 12:53:30 | 54.54255 | 14.26981 | 46° | 95km/h | 10695m | -14.6m/s | -48.6°C | 9.5% | 242hPa | 2.6V | 08:15:01 | 02:03:03 | 00:00:00 | |
| DL1XH-15 | 2026-08-31 12:53:27 | 54.54174 | 14.26835 | 44° | 93km/h | 10767m | -13.9m/s | -48.4°C | 9.3% | 239.4hPa | 2.6V | 08:13:36 | 02:02:58 | 00:00:00 | |
| AA1-15 | 2026-08-31 12:53:25 | 54.54140 | 14.26778 | 42° | 95km/h | 10795m | -13.2m/s | -48.6°C | 8.4% | 238.3hPa | 2.7V | 08:14:10 | 02:02:56 | 00:00:00 | |
| DL1XH-west | 2026-08-31 12:53:20 | 54.54086 | 14.26699 | 41° | 93km/h | 10835m | -13.6m/s | -48.9°C | 7.8% | 237hPa | 2.6V | 08:15:01 | 02:02:53 | 00:00:00 | |
| DL1XH1-15 | 2026-08-31 12:53:19 | 54.53993 | 14.26567 | 39° | 97km/h | 10903m | -12.7m/s | -49.3°C | 7.7% | 234.4hPa | 2.6V | 08:13:46 | 02:02:48 | 00:00:00 | |
| AA1-15 | 2026-08-31 12:53:14 | 54.53974 | 14.26541 | 39° | 99km/h | 10915m | -13.1m/s | -49.4°C | 5.5% | 233.9hPa | 2.6V | 08:14:10 | 02:02:47 | 00:00:00 | |
| DL1XH-west | 2026-08-31 12:53:09 | 54.53878 | 14.26408 | 38° | 100km/h | 10982m | -13.5m/s | -48.4°C | 2.9% | 231.6hPa | 2.6V | 08:15:01 | 02:02:42 | 00:00:00 | |
| AA1-15 | 2026-08-31 12:53:04 | 54.53728 | 14.26195 | 41° | 95km/h | 11091m | -14.1m/s | -47.6°C | 1.7% | 227.8hPa | 2.6V | 08:14:10 | 02:02:34 | 00:00:00 | |
| AA1-15 | 2026-08-31 12:52:53 | 54.53530 | 14.25883 | 44° | 97km/h | 11242m | -14m/s | -47.1°C | 1.3% | 222.6hPa | 2.6V | 08:15:01 | 02:02:23 | 00:00:00 | |
| AA1-15 | 2026-08-31 12:52:43 | 54.53408 | 14.25667 | 48° | 99km/h | 11338m | -13.5m/s | -46.9°C | 1.1% | 219.4hPa | 2.6V | 08:15:01 | 02:02:16 | 00:00:00 | |
| DL1XH-west | 2026-08-31 12:52:40 | 54.53357 | 14.25573 | 47° | 97km/h | 11378m | -13.5m/s | -46.9°C | 1% | 218.1hPa | 2.7V | 08:15:01 | 02:02:13 | 00:00:00 | |
| DL1XH1-15 | 2026-08-31 12:52:34 | 54.53246 | 14.25363 | 45° | 89km/h | 11480m | -14m/s | -47°C | 3.5% | 214.9hPa | 2.6V | 08:14:28 | 02:02:06 | 00:00:00 | |
| AA1-15 | 2026-08-31 12:52:32 | 54.53231 | 14.25336 | 46° | 86km/h | 11494m | -13.3m/s | -47.1°C | 0.9% | 214.5hPa | 2.6V | 08:15:01 | 02:02:05 | 00:00:00 | |
| DL1XH-west | 2026-08-31 12:52:30 | 54.53200 | 14.25284 | 44° | 84km/h | 11520m | -13.7m/s | -47.2°C | 0.9% | 213.6hPa | 2.7V | 08:15:01 | 02:02:03 | 00:00:00 | |
| EDDB2-11 | 2026-08-31 12:52:29 | 54.53185 | 14.25259 | 43° | 82km/h | 11533m | -14.4m/s | -47.2°C | 1.7% | 213.2hPa | 2.6V | 00:00:00 | 00:00:00 | 00:00:00 | |
| DL1XH1-15 | 2026-08-31 12:52:28 | 54.53094 | 14.25122 | 38° | 78km/h | 11616m | -14m/s | -47°C | 3.5% | 210.5hPa | 2.6V | 08:14:38 | 02:01:56 | 00:00:00 | |
| AA1-15 | 2026-08-31 12:52:22 | 54.53062 | 14.25078 | 41° | 77km/h | 11645m | -14.6m/s | -47°C | 0.9% | 209.5hPa | 2.6V | 08:15:01 | 02:01:54 | 00:00:00 | |
| DL1XH-west | 2026-08-31 12:52:20 | 54.53047 | 14.25057 | 38° | 78km/h | 11659m | -14m/s | -47.1°C | 0.9% | 209.1hPa | 2.7V | 08:15:01 | 02:01:53 | 00:00:00 | |
| DL1XH-15 | 2026-08-31 12:52:18 | 54.52972 | 14.24946 | 42° | 80km/h | 11734m | -14.9m/s | -46.9°C | 3.5% | 206.7hPa | 2.6V | 08:14:46 | 02:01:48 | 00:00:00 | |
| AA1-15 | 2026-08-31 12:52:10 | 54.52884 | 14.24799 | 45° | 82km/h | 11817m | -13m/s | -47.2°C | 1% | 204.2hPa | 2.7V | 08:15:01 | 02:01:42 | 00:00:00 | |
| DL1XH-west | 2026-08-31 12:52:10 | 54.52898 | 14.24824 | 45° | 80km/h | 11804m | -13.5m/s | -47.1°C | 0.9% | 204.7hPa | 2.7V | 08:15:01 | 02:01:43 | 00:00:00 | |
| DL1XH-15 | 2026-08-31 12:52:06 | 54.52826 | 14.24693 | 47° | 84km/h | 11872m | -14.1m/s | -47.3°C | 3.5% | 202.5hPa | 2.7V | 08:14:56 | 02:01:38 | 00:00:00 | |
| DM0DOS-11 | 2026-08-31 12:52:04 | 54.52734 | 14.24496 | 53° | 82km/h | 11970m | -14.8m/s | -47.4°C | 3.5% | 199.5hPa | 2.7V | 08:15:03 | 02:01:31 | 00:00:00 | |
| SP3WXH-11 | 2026-08-31 12:52:03 | 54.52799 | 14.24639 | 50° | 80km/h | 11899m | -13.9m/s | -47.5°C | 1.7% | 201.6hPa | 2.7V | 00:00:00 | 00:00:00 | 00:00:00 | |
| DL1XH-15 | 2026-08-31 12:52:00 | 54.52685 | 14.24383 | 51° | 80km/h | 12028m | -14.2m/s | -46.9°C | 3.4% | 197.8hPa | 2.7V | 08:15:07 | 02:01:27 | 00:00:00 | |
| DL1XH-west | 2026-08-31 12:51:59 | 54.52747 | 14.24525 | 54° | 84km/h | 11955m | -15.3m/s | -47.4°C | 0.9% | 200hPa | 2.7V | 08:15:52 | 02:01:32 | 00:00:00 | |
| AA1-15 | 2026-08-31 12:51:59 | 54.52734 | 14.24496 | 54° | 82km/h | 11970m | -14.8m/s | -47.4°C | 0.9% | 199.5hPa | 2.7V | 08:15:52 | 02:01:31 | 00:00:00 | |
| EDDB2-11 | 2026-08-31 12:51:58 | 54.52734 | 14.24496 | 53° | 82km/h | 11970m | -14.8m/s | -47.4°C | 1.7% | 199.5hPa | 2.7V | 00:00:00 | 00:00:00 | 00:00:00 | |
| DM0DOS-11 | 2026-08-31 12:51:53 | 54.52610 | 14.24222 | 49° | 75km/h | 12117m | -14.6m/s | -47.1°C | 3.5% | 195.2hPa | 2.7V | 08:15:13 | 02:01:21 | 00:00:00 | |
| DL1XH1-15 | 2026-08-31 12:51:48 | 54.52549 | 14.24103 | 47° | 69km/h | 12188m | -13.8m/s | -47.5°C | 3.5% | 193.2hPa | 2.7V | 08:15:18 | 02:01:16 | 00:00:00 | |
| DL1XH-west | 2026-08-31 12:51:48 | 54.52611 | 14.24222 | 49° | 75km/h | 12117m | -14.6m/s | -47.1°C | 0.9% | 195.2hPa | 2.7V | 08:15:52 | 02:01:21 | 00:00:00 | |
| AA1-15 | 2026-08-31 12:51:48 | 54.52573 | 14.24149 | 49° | 73km/h | 12159m | -14.3m/s | -47.3°C | 0.9% | 193.9hPa | 2.6V | 08:15:52 | 02:01:18 | 00:00:00 | |
| DL1XH-15 | 2026-08-31 12:51:47 | 54.52573 | 14.24149 | 49° | 73km/h | 12159m | -14.3m/s | -47.3°C | 3.5% | 193.9hPa | 2.6V | 08:15:16 | 02:01:18 | 00:00:00 | |
| SONDE2-11 | 2026-08-31 12:51:42 | 54.52536 | 14.24081 | 46° | 68km/h | 12201m | -13.4m/s | -47.6°C | 1.7% | 192.7hPa | 2.7V | 00:00:00 | 00:00:00 | 00:00:00 | |
| DM0DOS-11 | 2026-08-31 12:51:41 | 54.52490 | 14.23999 | 45° | 64km/h | 12257m | -13.7m/s | -47.4°C | 3.5% | 191.1hPa | 2.7V | 08:15:23 | 02:01:11 | 00:00:00 | |
| EDDB2-12 | 2026-08-31 12:51:41 | 54.52513 | 14.24039 | 46° | 66km/h | 12229m | -14.4m/s | -47.6°C | 1.7% | 191.9hPa | 2.6V | 00:00:00 | 00:00:00 | 00:00:00 | |
| DL1XH-15 | 2026-08-31 12:51:40 | 54.52446 | 14.23921 | 45° | 60km/h | 12315m | -13.7m/s | -47°C | 3.4% | 189.4hPa | 2.6V | 08:15:27 | 02:01:07 | 00:00:00 | |
| DL1XH-west | 2026-08-31 12:51:38 | 54.52490 | 14.23999 | 46° | 64km/h | 12257m | -13.7m/s | -47.4°C | 0.9% | 191.1hPa | 2.7V | 08:15:52 | 02:01:11 | 00:00:00 | |
| DL1XH1-15 | 2026-08-31 12:51:35 | 54.52435 | 14.23902 | 46° | 60km/h | 12329m | -14.6m/s | -47°C | 3.4% | 189hPa | 2.7V | 08:15:28 | 02:01:06 | 00:00:00 | |
| AA1-15 | 2026-08-31 12:51:34 | 54.52446 | 14.23921 | 46° | 60km/h | 12315m | -13.7m/s | -47°C | 0.8% | 189.4hPa | 2.6V | 08:15:52 | 02:01:07 | 00:00:00 | |
| SP3WXH-11 | 2026-08-31 12:51:32 | 54.52414 | 14.23864 | 46° | 60km/h | 12358m | -14.3m/s | -47.0°C | 1.6% | 188.2hPa | 2.7V | 00:00:00 | 00:00:00 | 00:00:00 | |
| DL1XH1-15 | 2026-08-31 12:51:28 | 54.52329 | 14.23702 | 45° | 62km/h | 12479m | -15.1m/s | -47.6°C | 3.5% | 184.8hPa | 2.7V | 08:15:38 | 02:00:56 | 00:00:00 | |
| DL1XH-west | 2026-08-31 12:51:28 | 54.52371 | 14.23784 | 48° | 64km/h | 12417m | -15.5m/s | -47.2°C | 0.8% | 186.5hPa | 2.6V | 08:15:52 | 02:01:00 | 00:00:00 | |
| DL1XH-15 | 2026-08-31 12:51:26 | 54.52350 | 14.23742 | 48° | 64km/h | 12448m | -16.4m/s | -47.4°C | 3.5% | 185.6hPa | 2.6V | 08:15:36 | 02:00:58 | 00:00:00 | |
| AA1-15 | 2026-08-31 12:51:24 | 54.52340 | 14.23722 | 48° | 64km/h | 12464m | -15.7m/s | -47.5°C | 0.8% | 185.2hPa | 2.7V | 08:15:52 | 02:00:57 | 00:00:00 | |
| AM1SDL-15 | 2026-08-31 12:51:23 | 54.52329 | 14.23701 | 46° | 68km/h | 12479m | -15.0m/s | -47.6°C | 3.5% | 184.7hPa | 2.6V | 00:00:00 | 02:00:56 | 00:00:00 | |
| DL1XH-15 | 2026-08-31 12:51:21 | 54.52234 | 14.23537 | 44° | 71km/h | 12595m | -14.9m/s | -48.2°C | 3.6% | 181.5hPa | 2.6V | 08:15:46 | 02:00:48 | 00:00:00 | |
| DM0DOS-11 | 2026-08-31 12:51:21 | 54.52271 | 14.23600 | 46° | 69km/h | 12553m | -14.8m/s | -48.1°C | 3.6% | 182.6hPa | 2.7V | 08:15:43 | 02:00:51 | 00:00:00 | |
| DL1XH-west | 2026-08-31 12:51:17 | 54.52246 | 14.23558 | 44° | 69km/h | 12581m | -13.2m/s | -48.2°C | 0.9% | 181.9hPa | 2.6V | 08:15:52 | 02:00:49 | 00:00:00 | |
| DL1XH1-15 | 2026-08-31 12:51:15 | 54.52207 | 14.23494 | 43° | 75km/h | 12623m | -15.1m/s | -48°C | 3.6% | 180.8hPa | 2.7V | 08:15:48 | 02:00:46 | 00:00:00 | |
| AA1-15 | 2026-08-31 12:51:13 | 54.52207 | 14.23494 | 43° | 75km/h | 12623m | -15.1m/s | -48°C | 0.9% | 180.8hPa | 2.7V | 08:15:52 | 02:00:46 | 00:00:00 | |
| AM1SDL-15 | 2026-08-31 12:51:12 | 54.52179 | 14.23449 | 45° | 73km/h | 12653m | -14.9m/s | -47.8°C | 3.5% | 179.9hPa | 2.6V | 00:00:00 | 02:00:44 | 00:00:00 | |
| SONDE2-11 | 2026-08-31 12:51:11 | 54.52179 | 14.23449 | 44° | 75km/h | 12653m | -15.0m/s | -47.9°C | 1.6% | 179.9hPa | 2.6V | 00:00:00 | 00:00:00 | 00:00:00 | |
| DM0DOS-11 | 2026-08-31 12:51:09 | 54.52139 | 14.23382 | 45° | 75km/h | 12696m | -15.2m/s | -47.8°C | 3.5% | 178.7hPa | 2.6V | 08:15:53 | 02:00:41 | 00:00:00 | |
| S3001 | 2026-08-31 12:51:09 | 54.52152 | 14.23404 | 44° | 73km/h | 12681m | -15.1m/s | -47.8°C | 1.6% | 179.1hPa | 2.7V | 00:00:00 | 00:00:00 | 00:00:00 | |
| DL1XH1-15 | 2026-08-31 12:51:08 | 54.52074 | 14.23271 | 45° | 71km/h | 12769m | -13.5m/s | -47.9°C | 3.5% | 176.8hPa | 2.7V | 08:15:58 | 02:00:36 | 00:00:00 | |
| DL1XH-west | 2026-08-31 12:51:06 | 54.52112 | 14.23338 | 44° | 71km/h | 12726m | -14.6m/s | -47.8°C | 0.7% | 178hPa | 2.7V | 08:16:43 | 02:00:39 | 00:00:00 | |
| DL1XH-15 | 2026-08-31 12:51:06 | 54.52099 | 14.23316 | 46° | 73km/h | 12740m | -14.4m/s | -47.9°C | 3.5% | 177.6hPa | 2.6V | 08:15:56 | 02:00:38 | 00:00:00 | |
| AA1-15 | 2026-08-31 12:51:02 | 54.52061 | 14.23249 | 45° | 73km/h | 12784m | -15m/s | -47.9°C | 0.8% | 176.4hPa | 2.7V | 08:16:43 | 02:00:35 | 00:00:00 | |
| SP3WXH-11 | 2026-08-31 12:51:01 | 54.52036 | 14.23203 | 46° | 71km/h | 12814m | -14.7m/s | -47.8°C | 1.5% | 175.6hPa | 2.7V | 00:00:00 | 00:00:00 | 00:00:00 | |
| DM0DOS-11 | 2026-08-31 12:50:59 | 54.52010 | 14.23155 | 46° | 73km/h | 12844m | -14.9m/s | -47.6°C | 3.4% | 174.8hPa | 2.7V | 08:16:03 | 02:00:31 | 00:00:00 | |
| DL1XH-west | 2026-08-31 12:50:56 | 54.51985 | 14.23107 | 48° | 77km/h | 12874m | -14.8m/s | -47.7°C | 0.7% | 174hPa | 2.7V | 08:16:43 | 02:00:29 | 00:00:00 | |
| DL1XH1-15 | 2026-08-31 12:50:54 | 54.51947 | 14.23033 | 47° | 75km/h | 12918m | -14.6m/s | -47.5°C | 3.4% | 172.9hPa | 2.6V | 08:16:08 | 02:00:26 | 00:00:00 | |
| AA1-15 | 2026-08-31 12:50:51 | 54.51921 | 14.22983 | 48° | 77km/h | 12948m | -14.7m/s | -47.4°C | 0.7% | 172.1hPa | 2.7V | 08:16:43 | 02:00:24 | 00:00:00 | |
| DM0DOS-11 | 2026-08-31 12:50:49 | 54.51883 | 14.22906 | 49° | 77km/h | 12995m | -15.6m/s | -47.3°C | 3.3% | 170.9hPa | 2.6V | 08:16:13 | 02:00:21 | 00:00:00 | |
| DL1XH-15 | 2026-08-31 12:50:46 | 54.51846 | 14.22829 | 51° | 78km/h | 13041m | -14.8m/s | -47.5°C | 3.4% | 169.7hPa | 2.7V | 08:16:16 | 02:00:18 | 00:00:00 | |
| DL1XH1-15 | 2026-08-31 12:50:45 | 54.51821 | 14.22775 | 52° | 78km/h | 13070m | -15m/s | -47.5°C | 3.4% | 168.9hPa | 2.6V | 08:16:18 | 02:00:16 | 00:00:00 | |
| DL1XH-west | 2026-08-31 12:50:45 | 54.51846 | 14.22829 | 52° | 78km/h | 13041m | -14.8m/s | -47.5°C | 0.7% | 169.7hPa | 2.7V | 08:16:43 | 02:00:18 | 00:00:00 | |
| DM0DOS-11 | 2026-08-31 12:50:43 | 54.51758 | 14.22634 | 54° | 82km/h | 13142m | -12.6m/s | -47.8°C | 3.5% | 167.1hPa | 2.6V | 08:16:23 | 02:00:11 | 00:00:00 | |
| AA1-15 | 2026-08-31 12:50:40 | 54.51783 | 14.22691 | 53° | 82km/h | 13115m | -14.4m/s | -47.7°C | 0.8% | 167.9hPa | 2.7V | 08:16:43 | 02:00:13 | 00:00:00 | |
| DL1XH-15 | 2026-08-31 12:50:40 | 54.51723 | 14.22548 | 55° | 80km/h | 13184m | -14.3m/s | -48°C | 3.5% | 166hPa | 2.6V | 08:16:26 | 02:00:08 | 00:00:00 | |
| DF8AY | 2026-08-31 12:50:35 | 54.51677 | 14.22438 | 55° | 73km/h | 13241m | -13.7m/s | -47.9°C | 0% | 164.7hPa | 2.6V | 08:17:34 | 02:00:04 | 00:00:00 | |
| DL1XH-west | 2026-08-31 12:50:35 | 54.51723 | 14.22548 | 55° | 80km/h | 13184m | -14.3m/s | -48°C | 0.8% | 166hPa | 2.6V | 08:16:43 | 02:00:08 | 00:00:00 | |
| DL1XH1-15 | 2026-08-31 12:50:34 | 54.51699 | 14.22492 | 53° | 78km/h | 13212m | -13.5m/s | -48°C | 3.5% | 165.3hPa | 2.7V | 08:16:28 | 02:00:06 | 00:00:00 | |
| AA1-15 | 2026-08-31 12:50:29 | 54.51655 | 14.22388 | 52° | 69km/h | 13269m | -14.3m/s | -47.8°C | 0.8% | 163.9hPa | 2.6V | 08:16:43 | 02:00:02 | 00:00:00 | |
| DL1XH1-15 | 2026-08-31 12:50:28 | 54.51596 | 14.22259 | 50° | 57km/h | 13358m | -14.8m/s | -47.5°C | 3.4% | 161.8hPa | 2.6V | 08:16:38 | 01:59:56 | 00:00:00 | |
| DL1XH-15 | 2026-08-31 12:50:26 | 54.51615 | 14.22299 | 49° | 60km/h | 13329m | -14.2m/s | -47.5°C | 3.4% | 162.5hPa | 2.6V | 08:16:36 | 01:59:58 | 00:00:00 | |
| DL1XH-west | 2026-08-31 12:50:25 | 54.51615 | 14.22299 | 50° | 60km/h | 13329m | -14.3m/s | -47.5°C | 0.8% | 162.5hPa | 2.6V | 08:16:43 | 01:59:58 | 00:00:00 | |
| DM0DOS-11 | 2026-08-31 12:50:23 | 54.51552 | 14.22172 | 46° | 51km/h | 13432m | -14.2m/s | -47.8°C | 3.5% | 160hPa | 2.6V | 08:16:43 | 01:59:51 | 00:00:00 | |
| AM1SDL-15 | 2026-08-31 12:50:21 | 54.51579 | 14.22223 | 48° | 55km/h | 13387m | -14.2m/s | -47.4°C | 3.4% | 161.0hPa | 2.7V | 00:00:00 | 01:59:54 | 00:00:00 | |
| DL1XH-15 | 2026-08-31 12:50:20 | 54.51514 | 14.22105 | 45° | 53km/h | 13492m | -15.2m/s | -48.2°C | 3.6% | 158.6hPa | 2.6V | 08:16:47 | 01:59:47 | 00:00:00 | |
| AA1-15 | 2026-08-31 12:50:18 | 54.51542 | 14.22156 | 45° | 53km/h | 13446m | -14.9m/s | -47.9°C | 0.8% | 159.6hPa | 2.7V | 08:17:34 | 01:59:50 | 00:00:00 | |
| DL1XH1-15 | 2026-08-31 12:50:14 | 54.51505 | 14.22088 | 44° | 57km/h | 13507m | -15m/s | -48.3°C | 3.6% | 158.2hPa | 2.6V | 08:16:48 | 01:59:46 | 00:00:00 | |
| DL1XH-west | 2026-08-31 12:50:14 | 54.51504 | 14.22088 | 45° | 57km/h | 13507m | -15m/s | -48.3°C | 0.9% | 158.2hPa | 2.6V | 08:17:34 | 01:59:46 | 00:00:00 | |
| DM0DOS-11 | 2026-08-31 12:50:11 | 54.51451 | 14.21996 | 45° | 64km/h | 13581m | -15.1m/s | -48.3°C | 3.5% | 156.4hPa | 2.6V | 08:16:53 | 01:59:41 | 00:00:00 | |
| AA1-15 | 2026-08-31 12:50:07 | 54.51440 | 14.21975 | 47° | 66km/h | 13596m | -14.6m/s | -48.3°C | 0.9% | 156.1hPa | 2.7V | 08:17:34 | 01:59:40 | 00:00:00 | |
| DL1XH1-15 | 2026-08-31 12:50:07 | 54.51382 | 14.21862 | 51° | 73km/h | 13668m | -14.8m/s | -48.7°C | 3.6% | 154.3hPa | 2.7V | 08:16:59 | 01:59:35 | 00:00:00 | |
| DL1XH-15 | 2026-08-31 12:50:06 | 54.51417 | 14.21932 | 48° | 69km/h | 13625m | -15.3m/s | -48.5°C | 3.6% | 155.3hPa | 2.6V | 08:16:56 | 01:59:38 | 00:00:00 | |
| DF8AY | 2026-08-31 12:50:04 | 54.51405 | 14.21910 | 49° | 71km/h | 13640m | -14.1m/s | -48.6°C | 0% | 0hPa | 2.6V | 08:17:34 | 01:59:37 | 00:00:00 | |
| DM0DOS-11 | 2026-08-31 12:50:03 | 54.51337 | 14.21760 | 52° | 75km/h | 13729m | -15.5m/s | -48.6°C | 3.6% | 152.9hPa | 2.6V | 08:17:03 | 01:59:31 | 00:00:00 | |
| DL1XH-west | 2026-08-31 12:50:02 | 54.51382 | 14.21862 | 52° | 73km/h | 13668m | -14.8m/s | -48.7°C | 0.9% | 154.3hPa | 2.7V | 08:17:34 | 01:59:35 | 00:00:00 | |
| DL1XH-15 | 2026-08-31 12:50:00 | 54.51294 | 14.21657 | 54° | 71km/h | 13789m | -15.6m/s | -48.2°C | 3.5% | 151.4hPa | 2.6V | 08:17:07 | 01:59:27 | 00:00:00 | |
| AA1-15 | 2026-08-31 12:49:57 | 54.51304 | 14.21683 | 54° | 73km/h | 13774m | -14.7m/s | -48.4°C | 0.9% | 151.8hPa | 2.7V | 08:17:34 | 01:59:28 | 00:00:00 | |
| DL1XH-west | 2026-08-31 12:49:51 | 54.51262 | 14.21585 | 51° | 68km/h | 13835m | -15.3m/s | -48.3°C | 0.8% | 150.4hPa | 2.7V | 08:17:34 | 01:59:24 | 00:00:00 | |
| DM0DOS-11 | 2026-08-31 12:49:50 | 54.51229 | 14.21520 | 46° | 64km/h | 13881m | -16.2m/s | -48.5°C | 3.5% | 149.4hPa | 2.6V | 08:17:13 | 01:59:21 | 00:00:00 | |
| DF8AY | 2026-08-31 12:49:49 | 54.51240 | 14.21541 | 48° | 66km/h | 13865m | -15.3m/s | -48.4°C | 0% | 0hPa | 2.6V | 08:17:34 | 01:59:22 | 00:00:00 | |
| AA1-15 | 2026-08-31 12:49:45 | 54.51196 | 14.21462 | 46° | 62km/h | 13928m | -16m/s | -48.8°C | 0.8% | 148.3hPa | 2.7V | 08:17:34 | 01:59:18 | 00:00:00 | |
| DL1XH-west | 2026-08-31 12:49:41 | 54.51150 | 14.21386 | 45° | 64km/h | 13989m | -16.2m/s | -49°C | 0.9% | 147hPa | 2.7V | 08:17:34 | 01:59:14 | 00:00:00 | |
| DF8AY | 2026-08-31 12:49:38 | 54.51104 | 14.21305 | 46° | 68km/h | 14050m | -14.4m/s | -48.9°C | 0% | 0hPa | 2.7V | 08:17:34 | 01:59:10 | 00:00:00 | |
| AA1-15 | 2026-08-31 12:49:35 | 54.51068 | 14.21236 | 52° | 73km/h | 14099m | -17.1m/s | -49.2°C | 0.8% | 144.6hPa | 2.6V | 08:17:34 | 01:59:07 | 00:00:00 | |
| DL1XH1-15 | 2026-08-31 12:49:35 | 54.51045 | 14.21184 | 51° | 75km/h | 14131m | -15.7m/s | -49.4°C | 3.7% | 143.9hPa | 2.7V | 08:17:29 | 01:59:05 | 00:00:00 | |
| AM1SDL-15 | 2026-08-31 12:49:33 | 54.51057 | 14.21210 | 53° | 73km/h | 14116m | -15.5m/s | -49.3°C | 3.7% | 144.2hPa | 2.6V | 00:00:00 | 01:59:06 | 00:00:00 | |
| DM0DOS-11 | 2026-08-31 12:49:31 | 54.51001 | 14.21079 | 52° | 75km/h | 14194m | -15.7m/s | -49.5°C | 3.7% | 142.5hPa | 2.6V | 08:17:33 | 01:59:01 | 00:00:00 | |
| DL1XH-west | 2026-08-31 12:49:31 | 54.51023 | 14.21132 | 54° | 77km/h | 14162m | -16m/s | -49.4°C | 0.8% | 143.2hPa | 2.7V | 08:17:34 | 01:59:03 | 00:00:00 | |
| DF8AY | 2026-08-31 12:49:27 | 54.50991 | 14.21053 | 56° | 75km/h | 14210m | -16.4m/s | -49.5°C | 0% | 0hPa | 2.6V | 08:17:34 | 01:59:00 | 00:00:00 | |
| AA1-15 | 2026-08-31 12:49:25 | 54.50948 | 14.20949 | 54° | 69km/h | 14275m | -14.8m/s | -48.7°C | 0.7% | 140.7hPa | 2.6V | 08:18:25 | 01:58:56 | 00:00:00 | |
| DM0DOS-11 | 2026-08-31 12:49:24 | 54.50898 | 14.20829 | 54° | 66km/h | 14351m | -16.1m/s | -48.6°C | 3.5% | 139.1hPa | 2.6V | 08:17:43 | 01:58:51 | 00:00:00 | |
| DL1XH1-15 | 2026-08-31 12:49:23 | 54.50938 | 14.20925 | 54° | 68km/h | 14289m | -15.2m/s | -48.7°C | 3.5% | 140.4hPa | 2.7V | 08:17:39 | 01:58:55 | 00:00:00 | |
| DL1XH-west | 2026-08-31 12:49:20 | 54.50918 | 14.20876 | 57° | 68km/h | 14320m | -16.3m/s | -48.6°C | 0.7% | 139.8hPa | 2.6V | 08:18:25 | 01:58:53 | 00:00:00 | |
| DL1XH1-15 | 2026-08-31 12:49:13 | 54.50834 | 14.20692 | 51° | 66km/h | 14445m | -16.4m/s | -48.6°C | 3.5% | 137.2hPa | 2.6V | 08:17:49 | 01:58:45 | 00:00:00 | |
| DF8AY | 2026-08-31 12:49:12 | 54.50823 | 14.20669 | 48° | 68km/h | 14462m | -16.2m/s | -48.6°C | 0% | 0hPa | 2.7V | 08:18:25 | 01:58:44 | 00:00:00 | |
| AA1-15 | 2026-08-31 12:49:12 | 54.50834 | 14.20692 | 51° | 66km/h | 14445m | -16.4m/s | -48.6°C | 0.7% | 137.2hPa | 2.6V | 08:18:25 | 01:58:45 | 00:00:00 | |
| DM0DOS-11 | 2026-08-31 12:49:11 | 54.50792 | 14.20603 | 50° | 64km/h | 14510m | -15.9m/s | -48.8°C | 3.6% | 135.8hPa | 2.6V | 08:17:53 | 01:58:41 | 00:00:00 | |
| DL1XH-west | 2026-08-31 12:49:10 | 54.50813 | 14.20647 | 52° | 66km/h | 14478m | -16.4m/s | -48.7°C | 0.7% | 136.5hPa | 2.7V | 08:18:25 | 01:58:43 | 00:00:00 | |
| DL1XH-15 | 2026-08-31 12:49:09 | 54.50762 | 14.20537 | 54° | 64km/h | 14560m | -17.1m/s | -48.6°C | 3.4% | 134.8hPa | 2.6V | 08:17:56 | 01:58:38 | 00:00:00 | |
| D01LWL | 2026-08-31 12:49:09 | 54.50772 | 14.20559 | 50° | 62km/h | 14544m | -15.8m/s | -48.5°C | 1.4% | 135.1hPa | 2.7V | 00:00:00 | 00:00:00 | 00:00:00 | |
| DL1XH1-15 | 2026-08-31 12:49:08 | 54.50734 | 14.20470 | 53° | 62km/h | 14610m | -16.1m/s | -48.6°C | 3.5% | 133.8hPa | 2.7V | 08:17:59 | 01:58:35 | 00:00:00 | |
| SONDE2-11 | 2026-08-31 12:49:07 | 54.50772 | 14.20559 | 50° | 62km/h | 14544m | -15.8m/s | -48.5°C | 1.4% | 135.1hPa | 2.6V | 00:00:00 | 00:00:00 | 00:00:00 | |
| S3001 | 2026-08-31 12:49:05 | 54.50753 | 14.20515 | 52° | 62km/h | 14577m | -15.8m/s | -48.6°C | 1.3% | 134.5hPa | 2.6V | 00:00:00 | 00:00:00 | 00:00:00 | |
| DM0DOS-11 | 2026-08-31 12:49:03 | 54.50700 | 14.20384 | 54° | 58km/h | 14672m | -14.7m/s | -48.7°C | 3.5% | 132.5hPa | 2.6V | 08:18:03 | 01:58:31 | 00:00:00 | |
| AA1-15 | 2026-08-31 12:49:02 | 54.50725 | 14.20448 | 54° | 60km/h | 14626m | -15.4m/s | -48.7°C | 0.7% | 133.5hPa | 2.7V | 08:18:25 | 01:58:34 | 00:00:00 | |
| DF8AY | 2026-08-31 12:49:01 | 54.50717 | 14.20426 | 55° | 60km/h | 14642m | -15.4m/s | -48.7°C | 0% | 0hPa | 2.7V | 08:18:25 | 01:58:33 | 00:00:00 | |
| DL1XH-west | 2026-08-31 12:48:59 | 54.50708 | 14.20405 | 54° | 60km/h | 14657m | -15.3m/s | -48.8°C | 0.7% | 132.8hPa | 2.6V | 08:18:25 | 01:58:32 | 00:00:00 | |
| SP3WXH-11 | 2026-08-31 12:48:57 | 54.50683 | 14.20344 | 54° | 57km/h | 14703m | -15.2m/s | -48.8°C | 1.4% | 131.9hPa | 2.7V | 00:00:00 | 00:00:00 | 00:00:00 | |
| DL1XH-15 | 2026-08-31 12:48:56 | 54.50675 | 14.20324 | 54° | 55km/h | 14718m | -14.7m/s | -48.8°C | 3.5% | 131.5hPa | 2.7V | 08:18:06 | 01:58:28 | 00:00:00 | |
| EDDB2-11 | 2026-08-31 12:48:52 | 54.50652 | 14.20267 | 57° | 51km/h | 14765m | -15.2m/s | -48.5°C | 1.3% | 130.6hPa | 2.6V | 00:00:00 | 00:00:00 | 00:00:00 | |
| DM0DOS-11 | 2026-08-31 12:48:50 | 54.50628 | 14.20195 | 60° | 44km/h | 14826m | -15.7m/s | -48.1°C | 3.3% | 129.4hPa | 2.6V | 08:18:13 | 01:58:21 | 00:00:00 | |
| DL1XH-west | 2026-08-31 12:48:49 | 54.50633 | 14.20211 | 58° | 46km/h | 14811m | -15.4m/s | -48.4°C | 0.6% | 129.7hPa | 2.7V | 08:18:25 | 01:58:22 | 00:00:00 | |
| DL1XH-15 | 2026-08-31 12:48:48 | 54.50612 | 14.20146 | 62° | 44km/h | 14876m | -17.2m/s | -47.8°C | 3.1% | 128.6hPa | 2.7V | 08:18:16 | 01:58:18 | 00:00:00 | |
| DL1XH1-15 | 2026-08-31 12:48:47 | 54.50597 | 14.20100 | 57° | 38km/h | 14926m | -15.4m/s | -48.1°C | 3.2% | 127.6hPa | 2.6V | 08:18:19 | 01:58:15 | 00:00:00 | |
| AM1SDL-15 | 2026-08-31 12:48:46 | 54.50612 | 14.20145 | 63° | 38km/h | 14876m | -17.1m/s | -47.8°C | 3.1% | 128.5hPa | 2.6V | 00:00:00 | 01:58:18 | 00:00:00 | |
| DM0DOS-11 | 2026-08-31 12:48:43 | 54.50565 | 14.20020 | 52° | 38km/h | 15021m | -17.5m/s | -48.9°C | 3.4% | 125.7hPa | 2.6V | 08:18:25 | 01:58:09 | 00:00:00 | |
| AA1-15 | 2026-08-31 12:48:41 | 54.50576 | 14.20045 | 56° | 38km/h | 14988m | -16.5m/s | -48.7°C | 0.6% | 126.4hPa | 2.7V | 08:18:25 | 01:58:11 | 00:00:00 | |
| DF8AY | 2026-08-31 12:48:40 | 54.50565 | 14.20020 | 52° | 38km/h | 15021m | -17.5m/s | 0°C | 0% | 0hPa | 2.6V | 08:18:25 | 01:58:09 | 00:00:00 | |
| DL1XH-west | 2026-08-31 12:48:39 | 54.50571 | 14.20032 | 49° | 37km/h | 15004m | -15.9m/s | -48.8°C | 0.6% | 126.1hPa | 2.6V | 08:18:25 | 01:58:10 | 00:00:00 | |
| DL1XH-15 | 2026-08-31 12:48:38 | 54.50559 | 14.20007 | 46° | 38km/h | 15038m | -16.7m/s | -49°C | 3.4% | 125.4hPa | 2.6V | 08:18:26 | 01:58:08 | 00:00:00 | |
| SONDE2-11 | 2026-08-31 12:48:36 | 54.50559 | 14.20007 | 46° | 38km/h | 15038m | -16.7m/s | -49.0°C | 1.3% | 125.4hPa | 2.7V | 00:00:00 | 00:00:00 | 00:00:00 | |
| S3001 | 2026-08-31 12:48:34 | 54.50546 | 14.19983 | 48° | 38km/h | 15070m | -16.4m/s | -49.2°C | 1.3% | 124.8hPa | 2.7V | 00:00:00 | 00:00:00 | 00:00:00 | |
| AM1SDL-15 | 2026-08-31 12:48:32 | 54.50539 | 14.19971 | 43° | 44km/h | 15086m | -14.8m/s | -49.2°C | 3.4% | 124.5hPa | 2.7V | 00:00:00 | 01:58:05 | 00:00:00 | |
| DM0DOS-11 | 2026-08-31 12:48:31 | 54.50509 | 14.19919 | 42° | 44km/h | 15151m | -15.9m/s | -49.7°C | 3.5% | 123.3hPa | 2.7V | 08:18:33 | 01:58:01 | 00:00:00 | |
| DL1XH-west | 2026-08-31 12:48:28 | 54.50509 | 14.19919 | 42° | 44km/h | 15151m | -15.9m/s | -49.7°C | 0.7% | 123.3hPa | 2.7V | 08:19:16 | 01:58:01 | 00:00:00 | |
| DL1XH-15 | 2026-08-31 12:48:28 | 54.50486 | 14.19878 | 48° | 47km/h | 15200m | -17.4m/s | -49.9°C | 3.5% | 122.3hPa | 2.6V | 08:18:36 | 01:57:58 | 00:00:00 | |
| DF8AY | 2026-08-31 12:48:27 | 54.50494 | 14.19892 | 44° | 44km/h | 15184m | -15.8m/s | 0°C | 0% | 0hPa | 2.7V | 18:12:15 | 01:57:59 | 00:00:00 | |
| DL1XH1-15 | 2026-08-31 12:48:26 | 54.50446 | 14.19801 | 50° | 49km/h | 15280m | -16m/s | -50.1°C | 3.7% | 120.8hPa | 2.6V | 08:18:41 | 01:57:53 | 00:00:00 | |
| SP3WXH-11 | 2026-08-31 12:48:26 | 54.50486 | 14.19878 | 48° | 46km/h | 15201m | -17.4m/s | -49.9°C | 1.4% | 122.3hPa | 2.6V | 00:00:00 | 00:00:00 | 00:00:00 | |
| DM0DOS-11 | 2026-08-31 12:48:22 | 54.50431 | 14.19766 | 56° | 51km/h | 15313m | -17.8m/s | -50.3°C | 3.7% | 120.3hPa | 2.6V | 08:18:43 | 01:57:51 | 00:00:00 | |
| DL1XH-west | 2026-08-31 12:48:18 | 54.50431 | 14.19766 | 56° | 51km/h | 15313m | -17.8m/s | -50.3°C | 0.8% | 120.3hPa | 2.6V | 08:19:16 | 01:57:51 | 00:00:00 | |
| DF8AY | 2026-08-31 12:48:17 | 54.50423 | 14.19747 | 55° | 53km/h | 15330m | -16.7m/s | 0°C | 0% | 0hPa | 2.7V | 18:12:15 | 01:57:50 | 00:00:00 | |
| DL1XH-15 | 2026-08-31 12:48:16 | 54.50409 | 14.19708 | 60° | 53km/h | 15364m | -16.6m/s | -50.5°C | 3.7% | 119.3hPa | 2.7V | 08:18:46 | 01:57:48 | 00:00:00 | |
| DO2SHX-10 | 2026-08-31 12:48:16 | 54.50416 | 14.19728 | 60° | 53km/h | 15347m | -17.2m/s | -50.3°C | 3.7% | 119.6hPa | 2.7V | 00:00:00 | 01:57:49 | 00:00:00 | |
| DL1XH1-15 | 2026-08-31 12:48:14 | 54.50383 | 14.19626 | 59° | 55km/h | 15428m | -15.1m/s | -51°C | 3.8% | 118.1hPa | 2.7V | 08:18:50 | 01:57:44 | 00:00:00 | |
| DM0DOS-11 | 2026-08-31 12:48:11 | 54.50362 | 14.19567 | 59° | 53km/h | 15475m | -16m/s | -51.2°C | 4% | 117.3hPa | 2.6V | 08:18:53 | 01:57:41 | 00:00:00 | |
| AA1-15 | 2026-08-31 12:48:08 | 54.50341 | 14.19514 | 54° | 46km/h | 15524m | -16.3m/s | -50.5°C | 0.9% | 116.5hPa | 2.7V | 08:19:16 | 01:57:38 | 00:00:00 | |
| DL1XH-15 | 2026-08-31 12:48:08 | 54.50341 | 14.19514 | 53° | 46km/h | 15524m | -16.3m/s | -50.5°C | 3.8% | 116.5hPa | 2.7V | 08:18:56 | 01:57:38 | 00:00:00 | |
| DL1XH-west | 2026-08-31 12:48:08 | 54.50362 | 14.19567 | 59° | 53km/h | 15475m | -16m/s | -51.2°C | 1% | 117.3hPa | 2.6V | 08:19:16 | 01:57:41 | 00:00:00 | |
| DO2SHX-10 | 2026-08-31 12:48:07 | 54.50355 | 14.19548 | 56° | 51km/h | 15492m | -16.7m/s | -51.1°C | 4.0% | 117.0hPa | 2.7V | 00:00:00 | 01:57:40 | 00:00:00 | |
| D01LWL | 2026-08-31 12:48:06 | 54.50348 | 14.19530 | 53° | 47km/h | 15508m | -16.0m/s | -51.0°C | 1.5% | 116.7hPa | 2.7V | 00:00:00 | 00:00:00 | 00:00:00 | |
| SONDE2-11 | 2026-08-31 12:48:05 | 54.50334 | 14.19498 | 51° | 44km/h | 15540m | -15.4m/s | -50.4°C | 1.4% | 116.2hPa | 2.7V | 00:00:00 | 00:00:00 | 00:00:00 | |
| DJ2DS-15 | 2026-08-31 12:48:04 | 54.50334 | 14.19498 | 51° | 44km/h | 15540m | -15.4m/s | -50.4°C | 1.4% | 116.2hPa | 2.7V | 00:00:00 | 00:00:00 | 00:00:00 | |
| EDDB2-12 | 2026-08-31 12:48:03 | 54.50327 | 14.19483 | 46° | 44km/h | 15557m | -17.4m/s | -50.3°C | 1.4% | 115.8hPa | 2.7V | 00:00:00 | 00:00:00 | 00:00:00 | |
| DG6HD-15 | 2026-08-31 12:48:02 | 54.50327 | 14.19483 | 48° | 46km/h | 15557m | -17.4m/s | -50.3°C | 1.4% | 115.8hPa | 2.7V | 08:19:00 | 00:00:00 | 00:00:00 | |
| DM0DOS-11 | 2026-08-31 12:47:59 | 54.50284 | 14.19419 | 35° | 47km/h | 15635m | -15.5m/s | -50.6°C | 3.8% | 114.4hPa | 2.7V | 08:19:03 | 01:57:31 | 00:00:00 | |
| DL1XH-west | 2026-08-31 12:47:58 | 54.50284 | 14.19419 | 36° | 47km/h | 15635m | -15.5m/s | -50.6°C | 0.9% | 114.4hPa | 2.7V | 08:19:16 | 01:57:31 | 00:00:00 | |
| AA1-15 | 2026-08-31 12:47:58 | 54.50274 | 14.19407 | 34° | 49km/h | 15650m | -15.3m/s | -50.6°C | 0.9% | 114.2hPa | 2.6V | 08:19:16 | 01:57:30 | 00:00:00 | |
| DL1XH-15 | 2026-08-31 12:47:57 | 54.50253 | 14.19383 | 32° | 53km/h | 15681m | -15.8m/s | -50.4°C | 3.8% | 113.7hPa | 2.6V | 08:19:06 | 01:57:28 | 00:00:00 | |
| SP3WXH-11 | 2026-08-31 12:47:55 | 54.50242 | 14.19370 | 32° | 53km/h | 15696m | -14.6m/s | -50.3°C | 1.4% | 113.3hPa | 2.6V | 00:00:00 | 00:00:00 | 00:00:00 | |
| DL1XH1-15 | 2026-08-31 12:47:54 | 54.50206 | 14.19329 | 36° | 57km/h | 15744m | -15.8m/s | -50.3°C | 3.8% | 112.5hPa | 2.6V | 08:19:10 | 01:57:24 | 00:00:00 | |
| EDDB2-11 | 2026-08-31 12:47:50 | 54.50195 | 14.19314 | 38° | 55km/h | 15759m | -15.1m/s | -50.3°C | 1.4% | 112.2hPa | 2.7V | 00:00:00 | 00:00:00 | 00:00:00 | |
| DM0DOS-11 | 2026-08-31 12:47:49 | 54.50173 | 14.19282 | 42° | 58km/h | 15791m | -15.8m/s | -50.4°C | 3.8% | 111.7hPa | 2.7V | 08:19:13 | 01:57:21 | 00:00:00 | |
| DL1XH-15 | 2026-08-31 12:47:48 | 54.50142 | 14.19228 | 47° | 58km/h | 15837m | -15.7m/s | -50.4°C | 3.9% | 110.9hPa | 2.6V | 08:19:16 | 01:57:18 | 00:00:00 | |
| DL1XH-west | 2026-08-31 12:47:48 | 54.50173 | 14.19282 | 43° | 58km/h | 15791m | -15.8m/s | -50.4°C | 0.8% | 111.7hPa | 2.7V | 08:19:16 | 01:57:21 | 00:00:00 | |
| AA1-15 | 2026-08-31 12:47:47 | 54.50152 | 14.19247 | 45° | 58km/h | 15822m | -15m/s | -50.5°C | 0.9% | 111.1hPa | 2.6V | 08:19:16 | 01:57:19 | 00:00:00 | |
| AM1SDL-15 | 2026-08-31 12:47:41 | 54.50103 | 14.19156 | 49° | 57km/h | 15902m | -16.0m/s | -50.2°C | 3.8% | 109.8hPa | 2.7V | 00:00:00 | 01:57:14 | 00:00:00 | |
| DM0DOS-11 | 2026-08-31 12:47:39 | 54.50075 | 14.19103 | 44° | 55km/h | 15949m | -15m/s | -50.2°C | 3.8% | 109.1hPa | 2.7V | 08:19:23 | 01:57:11 | 00:00:00 | |
| DL1XH-west | 2026-08-31 12:47:37 | 54.50065 | 14.19086 | 44° | 55km/h | 15965m | -16.5m/s | -50.1°C | 0.8% | 108.8hPa | 2.7V | 08:20:07 | 01:57:10 | 00:00:00 | |
| DL1XH-15 | 2026-08-31 12:47:36 | 54.50045 | 14.19053 | 44° | 57km/h | 15998m | -17.2m/s | -49.7°C | 3.7% | 108.2hPa | 2.6V | 08:19:26 | 01:57:08 | 00:00:00 | |
| DL1XH1-15 | 2026-08-31 12:47:36 | 54.50006 | 14.18982 | 48° | 57km/h | 16067m | -16.6m/s | -49.5°C | 3.7% | 107.1hPa | 2.7V | 08:19:30 | 01:57:04 | 00:00:00 | |
| AA1-15 | 2026-08-31 12:47:36 | 54.50045 | 14.19053 | 45° | 57km/h | 15998m | -17.2m/s | -49.7°C | 0.8% | 108.2hPa | 2.6V | 08:20:07 | 01:57:08 | 00:00:00 | |
| D01LWL | 2026-08-31 12:47:35 | 54.50035 | 14.19035 | 47° | 55km/h | 16015m | -16.5m/s | -49.6°C | 1.3% | 107.9hPa | 2.6V | 00:00:00 | 00:00:00 | 00:00:00 | |
| DM0DOS-11 | 2026-08-31 12:47:34 | 54.49979 | 14.18926 | 53° | 57km/h | 16116m | -16.2m/s | -49°C | 3.6% | 106.3hPa | 2.6V | 08:19:33 | 01:57:01 | 00:00:00 | |
| EDDB2-12 | 2026-08-31 12:47:33 | 54.50016 | 14.19000 | 46° | 55km/h | 16050m | -17.8m/s | -49.7°C | 1.3% | 107.4hPa | 2.7V | 00:00:00 | 00:00:00 | 00:00:00 | |
| S3001 | 2026-08-31 12:47:31 | 54.50006 | 14.18982 | 48° | 55km/h | 16067m | -16.6m/s | -49.5°C | 1.3% | 107.1hPa | 2.7V | 00:00:00 | 00:00:00 | 00:00:00 | |
| AM1SDL-15 | 2026-08-31 12:47:29 | 54.49988 | 14.18945 | 50° | 53km/h | 16100m | -16.0m/s | -49.0°C | 3.5% | 106.5hPa | 2.7V | 00:00:00 | 01:57:02 | 00:00:00 | |
| DL1XH-15 | 2026-08-31 12:47:28 | 54.49956 | 14.18867 | 60° | 55km/h | 16167m | -17m/s | -49°C | 3.5% | 105.5hPa | 2.7V | 08:19:36 | 01:56:58 | 00:00:00 | |
| DL1XH-west | 2026-08-31 12:47:26 | 54.49963 | 14.18887 | 58° | 53km/h | 16150m | -17.5m/s | -49°C | 0.6% | 105.8hPa | 2.7V | 08:20:07 | 01:56:59 | 00:00:00 | |
| AA1-15 | 2026-08-31 12:47:26 | 54.49956 | 14.18867 | 61° | 55km/h | 16167m | -17m/s | -49°C | 0.6% | 105.5hPa | 2.7V | 08:20:07 | 01:56:58 | 00:00:00 | |
| DL1XH1-15 | 2026-08-31 12:47:25 | 54.49931 | 14.18766 | 72° | 47km/h | 16249m | -16m/s | -48.8°C | 3.5% | 104.1hPa | 2.7V | 08:19:41 | 01:56:53 | 00:00:00 | |
| SP3WXH-11 | 2026-08-31 12:47:23 | 54.49944 | 14.18827 | 66° | 49km/h | 16200m | -16.7m/s | -49.0°C | 1.3% | 105.0hPa | 2.7V | 00:00:00 | 00:00:00 | 00:00:00 | |
| DM0DOS-11 | 2026-08-31 12:47:22 | 54.49926 | 14.18726 | 80° | 46km/h | 16281m | -14.8m/s | -48.6°C | 3.5% | 103.6hPa | 2.7V | 08:19:43 | 01:56:51 | 00:00:00 | |
| DL1XH-15 | 2026-08-31 12:47:21 | 54.49920 | 14.18668 | 81° | 44km/h | 16328m | -17.2m/s | -48.3°C | 3.4% | 102.8hPa | 2.6V | 08:19:46 | 01:56:48 | 00:00:00 | |
| DL1XH-west | 2026-08-31 12:47:15 | 54.49920 | 14.18668 | 81° | 44km/h | 16329m | -17.2m/s | -48.3°C | 0.6% | 102.9hPa | 2.6V | 08:20:07 | 01:56:48 | 00:00:00 | |
| DL1XH1-15 | 2026-08-31 12:47:15 | 54.49911 | 14.18576 | 79° | 42km/h | 16414m | -17.5m/s | -47.7°C | 3.2% | 101.6hPa | 2.7V | 08:19:51 | 01:56:43 | 00:00:00 | |
| AA1-15 | 2026-08-31 12:47:14 | 54.49918 | 14.18649 | 83° | 46km/h | 16346m | -17.9m/s | -48.3°C | 0.5% | 102.7hPa | 2.7V | 08:20:07 | 01:56:47 | 00:00:00 | |
| DM0DOS-11 | 2026-08-31 12:47:12 | 54.49907 | 14.18542 | 74° | 38km/h | 16449m | -16.4m/s | -47.8°C | 3.3% | 101hPa | 2.6V | 08:19:53 | 01:56:41 | 00:00:00 | |
| DL1XH-15 | 2026-08-31 12:47:08 | 54.49899 | 14.18495 | 73° | 37km/h | 16499m | -18m/s | -47.8°C | 3.3% | 100.3hPa | 2.7V | 08:19:56 | 01:56:38 | 00:00:00 | |
| DL1XH-west | 2026-08-31 12:47:05 | 54.49896 | 14.18481 | 65° | 33km/h | 16517m | -17.5m/s | -47.8°C | 0.5% | 100.1hPa | 2.7V | 08:20:07 | 01:56:37 | 00:00:00 | |
| DL1XH1-15 | 2026-08-31 12:47:04 | 54.49884 | 14.18433 | 61° | 27km/h | 16584m | -17.6m/s | -48°C | 3.3% | 99hPa | 2.6V | 08:20:01 | 01:56:33 | 00:00:00 | |
| AA1-15 | 2026-08-31 12:47:04 | 54.49889 | 14.18456 | 68° | 29km/h | 16550m | -17.2m/s | -47.9°C | 0.4% | 99.5hPa | 2.6V | 08:20:07 | 01:56:35 | 00:00:00 | |
| SONDE2-11 | 2026-08-31 12:47:03 | 54.49889 | 14.18456 | 67° | 29km/h | 16550m | -17.2m/s | -47.9°C | 1.2% | 99.5hPa | 2.6V | 00:00:00 | 00:00:00 | 00:00:00 | |
| DL1XH-15 | 2026-08-31 12:47:01 | 54.49866 | 14.18398 | 32° | 18km/h | 16669m | -16.5m/s | -47.4°C | 3.1% | 97.8hPa | 2.6V | 08:20:06 | 01:56:28 | 00:00:00 | |
| DL1XH-west | 2026-08-31 12:46:54 | 54.49861 | 14.18394 | 25° | 18km/h | 16686m | -16.5m/s | -47.3°C | 0.3% | 97.5hPa | 2.6V | 08:20:07 | 01:56:27 | 00:00:00 | |
| AA1-15 | 2026-08-31 12:46:54 | 54.49837 | 14.18387 | 4° | 22km/h | 16771m | -17.6m/s | -47.5°C | 0.3% | 96.3hPa | 2.6V | 08:20:58 | 01:56:22 | 00:00:00 | |
| SP3WXH-11 | 2026-08-31 12:46:53 | 54.49853 | 14.18389 | 6° | 18km/h | 16719m | -17.3m/s | -47.3°C | 1.1% | 97.0hPa | 2.6V | 00:00:00 | 00:00:00 | 00:00:00 | |
| DL1XH1-15 | 2026-08-31 12:46:52 | 54.49842 | 14.18388 | 359° | 22km/h | 16753m | -17.1m/s | -47.3°C | 3% | 96.5hPa | 2.6V | 08:20:11 | 01:56:23 | 00:00:00 | |
| DO2SHX-10 | 2026-08-31 12:46:51 | 54.49847 | 14.18388 | 3° | 22km/h | 16736m | -17.2m/s | -47.2°C | 3.1% | 96.7hPa | 2.6V | 00:00:00 | 01:56:24 | 00:00:00 | |
| DL1XH-15 | 2026-08-31 12:46:48 | 54.49812 | 14.18388 | 359° | 29km/h | 16836m | -16.5m/s | -48°C | 3.2% | 95.3hPa | 2.6V | 08:20:16 | 01:56:18 | 00:00:00 | |
| DL1XH-west | 2026-08-31 12:46:44 | 54.49798 | 14.18388 | 3° | 31km/h | 16871m | -17.7m/s | -48.1°C | 0.4% | 94.8hPa | 2.6V | 08:20:58 | 01:56:16 | 00:00:00 | |
| DL1XH1-15 | 2026-08-31 12:46:41 | 54.49774 | 14.18382 | 13° | 33km/h | 16921m | -17.8m/s | -47.7°C | 3% | 94.1hPa | 2.7V | 08:20:21 | 01:56:13 | 00:00:00 | |
| AA1-15 | 2026-08-31 12:46:41 | 54.49765 | 14.18379 | 16° | 35km/h | 16939m | -18.1m/s | -47.8°C | 0.3% | 93.8hPa | 2.6V | 08:20:58 | 01:56:12 | 00:00:00 | |
| DL1XH-15 | 2026-08-31 12:46:40 | 54.49727 | 14.18362 | 16° | 42km/h | 17008m | -17.6m/s | -48.3°C | 3.2% | 92.8hPa | 2.7V | 08:20:26 | 01:56:08 | 00:00:00 | |
| DL1XH-west | 2026-08-31 12:46:33 | 54.49707 | 14.18353 | 16° | 42km/h | 17040m | -18.3m/s | -48.6°C | 0.4% | 92.4hPa | 2.6V | 08:20:58 | 01:56:06 | 00:00:00 | |
| DO2SHX-10 | 2026-08-31 12:46:33 | 54.49707 | 14.18353 | 16° | 44km/h | 17041m | -18.2m/s | -48.5°C | 3.2% | 92.3hPa | 2.6V | 00:00:00 | 01:56:06 | 00:00:00 | |
| DM0DOS-11 | 2026-08-31 12:46:32 | 54.49651 | 14.18327 | 17° | 47km/h | 17131m | -17.7m/s | -49.3°C | 3.4% | 91.1hPa | 2.6V | 08:20:33 | 01:56:01 | 00:00:00 | |
| DL1XH1-15 | 2026-08-31 12:46:31 | 54.49674 | 14.18338 | 12° | 47km/h | 17096m | -18m/s | -49°C | 3.3% | 91.6hPa | 2.6V | 08:20:31 | 01:56:03 | 00:00:00 | |
| AA1-15 | 2026-08-31 12:46:30 | 54.49651 | 14.18327 | 18° | 47km/h | 17131m | -17.7m/s | -49.3°C | 0.5% | 91.1hPa | 2.6V | 08:20:58 | 01:56:01 | 00:00:00 | |
| DO2SHX-10 | 2026-08-31 12:46:29 | 54.49662 | 14.18333 | 16° | 46km/h | 17114m | -18.5m/s | -49.1°C | 3.4% | 91.3hPa | 2.7V | 00:00:00 | 01:56:02 | 00:00:00 | |
| DL1XH-15 | 2026-08-31 12:46:28 | 54.49615 | 14.18305 | 21° | 51km/h | 17185m | -17.5m/s | -49.8°C | 3.6% | 90.4hPa | 2.7V | 08:20:36 | 01:55:58 | 00:00:00 | |
| DO2SHX-10 | 2026-08-31 12:46:25 | 54.49615 | 14.18305 | 22° | 53km/h | 17185m | -17.4m/s | -49.7°C | 3.6% | 90.3hPa | 2.7V | 00:00:00 | 01:55:58 | 00:00:00 | |
| DL1XH1-15 | 2026-08-31 12:46:24 | 54.49554 | 14.18255 | 32° | 53km/h | 17269m | -17.2m/s | -50.3°C | 3.7% | 89.2hPa | 2.7V | 08:20:41 | 01:55:53 | 00:00:00 | |
| DL1XH-west | 2026-08-31 12:46:23 | 54.49592 | 14.18288 | 24° | 55km/h | 17218m | -16.7m/s | -50°C | 0.7% | 89.9hPa | 2.6V | 08:20:58 | 01:55:56 | 00:00:00 | |
| DO2SHX-10 | 2026-08-31 12:46:22 | 54.49579 | 14.18278 | 26° | 55km/h | 17235m | -16.1m/s | -50.1°C | 3.7% | 89.6hPa | 2.7V | 00:00:00 | 01:55:55 | 00:00:00 | |
| SP3BTT-10 | 2026-08-31 12:46:21 | 54.49566 | 14.18267 | 29° | 40km/h | 17252m | -17.3m/s | -50.2°C | 3.7% | 89.4hPa | 2.7V | 00:00:00 | 00:00:00 | 00:00:00 | |
| DL1XH-15 | 2026-08-31 12:46:20 | 54.49500 | 14.18190 | 39° | 49km/h | 17351m | -16.3m/s | -50.2°C | 3.8% | 88.1hPa | 2.7V | 08:20:46 | 01:55:48 | 00:00:00 | |
| AA1-15 | 2026-08-31 12:46:20 | 54.49521 | 14.18216 | 37° | 51km/h | 17319m | -16.6m/s | -50.5°C | 0.8% | 88.5hPa | 2.6V | 08:20:58 | 01:55:50 | 00:00:00 | |
| DM0DOS-11 | 2026-08-31 12:46:19 | 54.49532 | 14.18229 | 35° | 53km/h | 17303m | -15.7m/s | -50.5°C | 3.8% | 88.7hPa | 2.6V | 08:20:43 | 01:55:51 | 00:00:00 | |
| DO2SHX-10 | 2026-08-31 12:46:19 | 54.49543 | 14.18242 | 35° | 53km/h | 17286m | -16.9m/s | -50.4°C | 3.8% | 88.9hPa | 2.6V | 00:00:00 | 01:55:52 | 00:00:00 | |
| EDDB2-11 | 2026-08-31 12:46:17 | 54.49511 | 14.18203 | 34° | 51km/h | 17335m | -15.7m/s | -50.4°C | 1.3% | 88.3hPa | 2.6V | 00:00:00 | 00:00:00 | 00:00:00 | |
| DO2SHX-10 | 2026-08-31 12:46:16 | 54.49510 | 14.18203 | 35° | 51km/h | 17335m | -15.6m/s | -50.4°C | 3.8% | 88.2hPa | 2.6V | 00:00:00 | 01:55:49 | 00:00:00 | |
| DL1XH1-15 | 2026-08-31 12:46:14 | 54.49452 | 14.18114 | 46° | 53km/h | 17439m | -17.9m/s | -49.8°C | 3.7% | 86.9hPa | 2.7V | 08:20:51 | 01:55:43 | 00:00:00 | |
| DL1XH-west | 2026-08-31 12:46:13 | 54.49471 | 14.18146 | 43° | 53km/h | 17403m | -18.8m/s | -50°C | 0.8% | 87.4hPa | 2.6V | 08:20:58 | 01:55:45 | 00:00:00 | |
| AA1-15 | 2026-08-31 12:46:09 | 54.49443 | 14.18098 | 43° | 53km/h | 17456m | -16m/s | -49.6°C | 0.7% | 86.7hPa | 2.6V | 08:20:58 | 01:55:42 | 00:00:00 | |
| DM0DOS-11 | 2026-08-31 12:46:09 | 54.49433 | 14.18082 | 47° | 55km/h | 17473m | -19.4m/s | -49.2°C | 3.5% | 86.5hPa | 2.6V | 08:20:53 | 01:55:41 | 00:00:00 | |
| DL1XH-15 | 2026-08-31 12:46:08 | 54.49405 | 14.18033 | 42° | 53km/h | 17528m | -18.5m/s | -49°C | 3.4% | 85.8hPa | 2.7V | 08:20:56 | 01:55:38 | 00:00:00 | |
| DO2SHX-10 | 2026-08-31 12:46:07 | 54.49424 | 14.18065 | 45° | 53km/h | 17492m | -17.5m/s | -48.9°C | 3.4% | 86.2hPa | 2.6V | 08:20:00 | 01:55:40 | 00:00:00 | |
| AM1SDL-15 | 2026-08-31 12:46:05 | 54.49405 | 14.18032 | 43° | 53km/h | 17528m | -18.4m/s | -49.0°C | 3.4% | 85.8hPa | 2.7V | 00:00:00 | 01:55:38 | 00:00:00 | |
| DL1XH1-15 | 2026-08-31 12:46:04 | 54.49356 | 14.17956 | 44° | 53km/h | 17618m | -18.1m/s | -49.5°C | 3.6% | 84.6hPa | 2.7V | 08:21:01 | 01:55:33 | 00:00:00 | |
| DM0DOS-11 | 2026-08-31 12:46:03 | 54.49327 | 14.17908 | 48° | 53km/h | 17670m | -18.4m/s | -49.5°C | 3.6% | 83.9hPa | 2.6V | 08:21:04 | 01:55:30 | 00:00:00 | |
| DL1XH-west | 2026-08-31 12:46:01 | 54.49365 | 14.17972 | 43° | 51km/h | 17600m | -17.8m/s | -49.4°C | 0.6% | 84.8hPa | 2.6V | 08:21:49 | 01:55:34 | 00:00:00 | |
| AA1-15 | 2026-08-31 12:45:59 | 54.49346 | 14.17940 | 43° | 53km/h | 17635m | -16.3m/s | -49.4°C | 0.7% | 84.3hPa | 2.7V | 08:21:49 | 01:55:32 | 00:00:00 | |
| EDDB2-12 | 2026-08-31 12:45:59 | 54.49346 | 14.17940 | 42° | 51km/h | 17635m | -16.3m/s | -49.4°C | 1.2% | 84.3hPa | 2.6V | 00:00:00 | 00:00:00 | 00:00:00 | |
| S3001 | 2026-08-31 12:45:58 | 54.49336 | 14.17925 | 44° | 55km/h | 17652m | -17.9m/s | -49.4°C | 1.2% | 84.1hPa | 2.6V | 00:00:00 | 00:00:00 | 00:00:00 | |
| DO2SHX-10 | 2026-08-31 12:45:57 | 54.49327 | 14.17908 | 49° | 55km/h | 17670m | -18.3m/s | -49.4°C | 3.6% | 83.9hPa | 2.6V | 00:00:00 | 01:55:30 | 00:00:00 | |
| DO2SHX-10 | 2026-08-31 12:45:54 | 54.49299 | 14.17855 | 51° | 57km/h | 17725m | -18.6m/s | -49.4°C | 3.5% | 83.2hPa | 2.6V | 00:00:00 | 01:55:27 | 00:00:00 | |
| DM0DOS-11 | 2026-08-31 12:45:52 | 54.49247 | 14.17746 | 51° | 53km/h | 17831m | -17.2m/s | -48.9°C | 3.4% | 81.9hPa | 2.6V | 08:21:13 | 01:55:21 | 00:00:00 | |
| DL1XH1-15 | 2026-08-31 12:45:52 | 54.49264 | 14.17782 | 51° | 53km/h | 17798m | -17.9m/s | -48.9°C | 3.4% | 82.3hPa | 2.7V | 08:21:11 | 01:55:23 | 00:00:00 | |
| DL1XH-west | 2026-08-31 12:45:51 | 54.49273 | 14.17800 | 48° | 53km/h | 17779m | -18.9m/s | -49.1°C | 0.6% | 82.6hPa | 2.6V | 08:21:49 | 01:55:24 | 00:00:00 | |
| AA1-15 | 2026-08-31 12:45:49 | 54.49255 | 14.17764 | 47° | 55km/h | 17815m | -16.8m/s | -48.9°C | 0.5% | 82.1hPa | 2.7V | 08:21:49 | 01:55:22 | 00:00:00 | |
| EDDB2-11 | 2026-08-31 12:45:46 | 54.49222 | 14.17695 | 49° | 49km/h | 17884m | -17.5m/s | -49.2°C | 1.2% | 81.2hPa | 2.7V | 00:00:00 | 00:00:00 | 00:00:00 | |
| DO2SHX-10 | 2026-08-31 12:45:45 | 54.49222 | 14.17695 | 50° | 49km/h | 17884m | -17.5m/s | -49.2°C | 3.4% | 81.2hPa | 2.7V | 00:00:00 | 01:55:18 | 00:00:00 | |
| DM0DOS-11 | 2026-08-31 12:45:42 | 54.49169 | 14.17576 | 55° | 47km/h | 18012m | -19.7m/s | -49.3°C | 3.4% | 79.7hPa | 2.7V | 08:21:23 | 01:55:11 | 00:00:00 | |
| DL1XH1-15 | 2026-08-31 12:45:41 | 54.49184 | 14.17610 | 54° | 49km/h | 17976m | -19.1m/s | -49.3°C | 3.4% | 80.1hPa | 2.6V | 08:21:21 | 01:55:13 | 00:00:00 | |
| DL1XH-west | 2026-08-31 12:45:40 | 54.49184 | 14.17610 | 54° | 49km/h | 17976m | -19.1m/s | -49.3°C | 0.6% | 80.1hPa | 2.6V | 08:21:49 | 01:55:13 | 00:00:00 | |
| DL1XH-15 | 2026-08-31 12:45:40 | 54.49141 | 14.17510 | 56° | 47km/h | 18087m | -19.5m/s | -49.5°C | 3.4% | 78.7hPa | 2.6V | 08:21:27 | 01:55:07 | 00:00:00 | |
| AA1-15 | 2026-08-31 12:45:38 | 54.49169 | 14.17576 | 56° | 49km/h | 18012m | -19.7m/s | -49.3°C | 0.6% | 79.7hPa | 2.7V | 08:21:49 | 01:55:11 | 00:00:00 | |
| DO2SHX-10 | 2026-08-31 12:45:38 | 54.49169 | 14.17576 | 56° | 47km/h | 18012m | -19.6m/s | -49.3°C | 3.4% | 79.7hPa | 2.7V | 08:21:00 | 01:55:11 | 00:00:00 | |
| DL1XH1-15 | 2026-08-31 12:45:35 | 54.49115 | 14.17445 | 59° | 44km/h | 18163m | -19.6m/s | -49.7°C | 3.4% | 77.8hPa | 2.6V | 08:21:31 | 01:55:03 | 00:00:00 | |
| DL1XH-west | 2026-08-31 12:45:30 | 54.49115 | 14.17445 | 59° | 44km/h | 18163m | -19.7m/s | -49.7°C | 0.5% | 77.8hPa | 2.6V | 08:21:49 | 01:55:03 | 00:00:00 | |
| DM0DOS-11 | 2026-08-31 12:45:29 | 54.49103 | 14.17414 | 59° | 42km/h | 18199m | -18.5m/s | -49.9°C | 3.4% | 77.4hPa | 2.7V | 08:21:33 | 01:55:01 | 00:00:00 | |
| DO2SHX-10 | 2026-08-31 12:45:29 | 54.49109 | 14.17429 | 56° | 42km/h | 18182m | -17.3m/s | -49.7°C | 3.4% | 77.5hPa | 2.7V | 00:00:00 | 01:55:02 | 00:00:00 | |
| DL1XH-15 | 2026-08-31 12:45:28 | 54.49087 | 14.17371 | 58° | 38km/h | 18255m | -19.4m/s | -50°C | 3.5% | 76.8hPa | 2.6V | 08:21:36 | 01:54:58 | 00:00:00 | |
| AM1SDL-15 | 2026-08-31 12:45:27 | 54.49098 | 14.17399 | 61° | 38km/h | 18218m | -18.6m/s | -49.9°C | 3.4% | 77.2hPa | 2.6V | 08:21:00 | 01:55:00 | 00:00:00 | |
| AA1-15 | 2026-08-31 12:45:27 | 54.49098 | 14.17399 | 60° | 40km/h | 18218m | -18.7m/s | -49.9°C | 0.6% | 77.2hPa | 2.6V | 08:21:49 | 01:55:00 | 00:00:00 | |
| DO2SHX-10 | 2026-08-31 12:45:26 | 54.49092 | 14.17385 | 56° | 38km/h | 18236m | -18.2m/s | -49.9°C | 3.5% | 76.9hPa | 2.7V | 00:00:00 | 01:54:59 | 00:00:00 | |
| DM0DOS-11 | 2026-08-31 12:45:24 | 54.49048 | 14.17264 | 62° | 38km/h | 18407m | -19.3m/s | -50.9°C | 3.7% | 75hPa | 2.7V | 08:21:44 | 01:54:50 | 00:00:00 | |
| DO2SHX-10 | 2026-08-31 12:45:23 | 54.49077 | 14.17344 | 61° | 37km/h | 18293m | -20.0m/s | -50.1°C | 3.5% | 76.3hPa | 2.6V | 00:00:00 | 01:54:56 | 00:00:00 | |
| DL1XH-15 | 2026-08-31 12:45:20 | 54.49039 | 14.17237 | 65° | 38km/h | 18442m | -18.9m/s | -51°C | 3.7% | 74.6hPa | 2.6V | 08:21:46 | 01:54:48 | 00:00:00 | |
| DL1XH-west | 2026-08-31 12:45:20 | 54.49057 | 14.17292 | 60° | 38km/h | 18369m | -19m/s | -50.7°C | 0.7% | 75.4hPa | 2.6V | 08:21:49 | 01:54:52 | 00:00:00 | |
| AA1-15 | 2026-08-31 12:45:18 | 54.49044 | 14.17251 | 60° | 35km/h | 18425m | -16.8m/s | -51°C | 0.8% | 74.8hPa | 2.7V | 08:21:49 | 01:54:49 | 00:00:00 | |
| DO2SHX-10 | 2026-08-31 12:45:17 | 54.49048 | 14.17264 | 63° | 37km/h | 18407m | -19.2m/s | -50.8°C | 3.7% | 74.9hPa | 2.7V | 00:00:00 | 01:54:50 | 00:00:00 | |
| EDDB2-11 | 2026-08-31 12:45:15 | 54.49036 | 14.17223 | 63° | 35km/h | 18461m | -17.9m/s | -50.9°C | 1.3% | 74.3hPa | 2.7V | 00:00:00 | 00:00:00 | 00:00:00 | |
| DO2SHX-10 | 2026-08-31 12:45:14 | 54.49036 | 14.17223 | 64° | 35km/h | 18461m | -17.9m/s | -50.9°C | 3.7% | 74.3hPa | 2.7V | 00:00:00 | 01:54:47 | 00:00:00 | |
| DM0DOS-11 | 2026-08-31 12:45:12 | 54.49013 | 14.17123 | 72° | 27km/h | 18610m | -18.7m/s | -51.1°C | 3.7% | 72.7hPa | 2.7V | 08:21:55 | 01:54:39 | 00:00:00 | |
| DL1XH1-15 | 2026-08-31 12:45:11 | 54.49023 | 14.17169 | 69° | 33km/h | 18535m | -19.9m/s | -51.4°C | 3.8% | 73.6hPa | 2.7V | 08:21:51 | 01:54:43 | 00:00:00 | |
| DL1XH-west | 2026-08-31 12:45:09 | 54.49021 | 14.17157 | 67° | 29km/h | 18555m | -19.2m/s | -51.5°C | 0.9% | 73.3hPa | 2.6V | 08:22:40 | 01:54:42 | 00:00:00 | |
| DL1XH-15 | 2026-08-31 12:45:08 | 54.49011 | 14.17112 | 73° | 26km/h | 18628m | -17.4m/s | -51.1°C | 3.8% | 72.5hPa | 2.7V | 08:21:56 | 01:54:38 | 00:00:00 | |
| AA1-15 | 2026-08-31 12:45:05 | 54.49011 | 14.17112 | 74° | 26km/h | 18628m | -17.4m/s | -51.1°C | 0.8% | 72.5hPa | 2.7V | 08:22:40 | 01:54:38 | 00:00:00 | |
| DO2SHX-10 | 2026-08-31 12:45:04 | 54.49009 | 14.17101 | 72° | 24km/h | 18646m | -19.4m/s | -51.1°C | 3.8% | 72.2hPa | 2.7V | 00:00:00 | 01:54:37 | 00:00:00 | |
| DM0DOS-11 | 2026-08-31 12:45:01 | 54.48987 | 14.17043 | 44° | 26km/h | 18774m | -17.7m/s | -51.2°C | 3.8% | 70.9hPa | 2.7V | 08:22:04 | 01:54:30 | 00:00:00 | |
| DL1XH1-15 | 2026-08-31 12:45:01 | 54.48998 | 14.17065 | 56° | 22km/h | 18721m | -17.1m/s | -51°C | 3.7% | 71.5hPa | 2.6V | 08:22:01 | 01:54:33 | 00:00:00 | |
| DO2SHX-10 | 2026-08-31 12:45:01 | 54.49001 | 14.17073 | 60° | 22km/h | 18703m | -17.0m/s | -51.0°C | 3.7% | 71.6hPa | 2.7V | 00:00:00 | 01:54:34 | 00:00:00 | |
| DL1XH-15 | 2026-08-31 12:45:00 | 54.48975 | 14.17027 | 36° | 31km/h | 18810m | -18.7m/s | -51.2°C | 3.7% | 70.5hPa | 2.6V | 08:22:06 | 01:54:28 | 00:00:00 | |
| DL1XH-west | 2026-08-31 12:44:58 | 54.48991 | 14.17050 | 43° | 24km/h | 18756m | -18.1m/s | -51.2°C | 0.8% | 71.1hPa | 2.7V | 08:22:40 | 01:54:31 | 00:00:00 | |
| SONDE2-11 | 2026-08-31 12:44:58 | 54.48991 | 14.17050 | 43° | 24km/h | 18756m | -18.1m/s | -51.2°C | 1.2% | 71.1hPa | 2.6V | 00:00:00 | 00:00:00 | 00:00:00 | |
| EDDB2-12 | 2026-08-31 12:44:57 | 54.48987 | 14.17043 | 44° | 26km/h | 18774m | -17.7m/s | -51.2°C | 1.3% | 70.9hPa | 2.6V | 00:00:00 | 00:00:00 | 00:00:00 | |
| S3001 | 2026-08-31 12:44:56 | 54.48981 | 14.17035 | 38° | 27km/h | 18792m | -17.5m/s | -51.2°C | 1.3% | 70.7hPa | 2.6V | 00:00:00 | 00:00:00 | 00:00:00 | |
| DL1XH1-15 | 2026-08-31 12:44:55 | 54.48943 | 14.16979 | 44° | 38km/h | 18902m | -18.2m/s | -51.4°C | 3.8% | 69.5hPa | 2.6V | 08:22:11 | 01:54:23 | 00:00:00 | |
| AA1-15 | 2026-08-31 12:44:55 | 54.48969 | 14.17019 | 36° | 31km/h | 18828m | -17.8m/s | -51.3°C | 0.9% | 70.3hPa | 2.6V | 08:22:40 | 01:54:27 | 00:00:00 | |
| DO2SHX-10 | 2026-08-31 12:44:52 | 54.48956 | 14.17001 | 43° | 37km/h | 18864m | -19.4m/s | -51.3°C | 3.8% | 69.9hPa | 2.7V | 00:00:00 | 01:54:25 | 00:00:00 | |
| DM0DOS-11 | 2026-08-31 12:44:51 | 54.48923 | 14.16944 | 46° | 37km/h | 18957m | -17.5m/s | -51.8°C | 3.9% | 68.9hPa | 2.7V | 08:22:14 | 01:54:20 | 00:00:00 | |
| AM1SDL-15 | 2026-08-31 12:44:51 | 54.48949 | 14.16990 | 44° | 37km/h | 18884m | -18.6m/s | -51.4°C | 3.8% | 69.7hPa | 2.7V | 00:00:00 | 01:54:24 | 00:00:00 | |
| DO2SHX-10 | 2026-08-31 12:44:49 | 54.48936 | 14.16967 | 45° | 37km/h | 18920m | -19.2m/s | -51.5°C | 3.8% | 69.3hPa | 2.7V | 00:00:00 | 01:54:22 | 00:00:00 | |
| DL1XH-15 | 2026-08-31 12:44:48 | 54.48912 | 14.16920 | 55° | 35km/h | 18992m | -18.3m/s | -52.1°C | 4% | 68.5hPa | 2.7V | 08:22:16 | 01:54:18 | 00:00:00 | |
| DL1XH-west | 2026-08-31 12:44:47 | 54.48923 | 14.16944 | 47° | 37km/h | 18957m | -17.5m/s | -51.8°C | 0.9% | 68.9hPa | 2.7V | 08:22:40 | 01:54:20 | 00:00:00 | |
| AA1-15 | 2026-08-31 12:44:43 | 54.48902 | 14.16895 | 58° | 35km/h | 19030m | -18.9m/s | -52°C | 1% | 68.1hPa | 2.6V | 08:22:40 | 01:54:16 | 00:00:00 | |
| DL1XH-west | 2026-08-31 12:44:37 | 54.48876 | 14.16819 | 64° | 26km/h | 19162m | -18.7m/s | -51.3°C | 0.8% | 66.8hPa | 2.6V | 08:22:40 | 01:54:09 | 00:00:00 | |
| DL1XH-15 | 2026-08-31 12:44:36 | 54.48873 | 14.16809 | 60° | 24km/h | 19181m | -18.3m/s | -51.4°C | 3.7% | 66.6hPa | 2.7V | 08:22:26 | 01:54:08 | 00:00:00 | |
| AA1-15 | 2026-08-31 12:44:33 | 54.48868 | 14.16794 | 64° | 18km/h | 19218m | -19.4m/s | -51.5°C | 0.8% | 66.2hPa | 2.6V | 08:22:40 | 01:54:06 | 00:00:00 | |
| DO2SHX-10 | 2026-08-31 12:44:31 | 54.48864 | 14.16781 | 52° | 15km/h | 19256m | -18.6m/s | -51.4°C | 3.8% | 65.8hPa | 2.6V | 00:00:00 | 01:54:04 | 00:00:00 | |
| DL1XH-15 | 2026-08-31 12:44:30 | 54.48852 | 14.16753 | 43° | 13km/h | 19371m | -17.7m/s | -51.7°C | 3.8% | 64.7hPa | 2.6V | 08:22:36 | 01:53:58 | 00:00:00 | |
| DM0DOS-11 | 2026-08-31 12:44:29 | 54.48857 | 14.16761 | 59° | 15km/h | 19332m | -19.4m/s | -51.5°C | 3.8% | 65hPa | 2.7V | 08:22:34 | 01:54:00 | 00:00:00 | |
| DL1XH-west | 2026-08-31 12:44:25 | 54.48852 | 14.16753 | 44° | 13km/h | 19371m | -17.7m/s | -51.7°C | 0.9% | 64.7hPa | 2.6V | 08:22:40 | 01:53:58 | 00:00:00 | |
| DO2SHX-10 | 2026-08-31 12:44:25 | 54.48852 | 14.16753 | 44° | 15km/h | 19371m | -17.6m/s | -51.7°C | 3.8% | 64.6hPa | 2.6V | 00:00:00 | 01:53:58 | 00:00:00 | |
| DL1XH1-15 | 2026-08-31 12:44:24 | 54.48835 | 14.16734 | 22° | 18km/h | 19466m | -20.4m/s | -52.4°C | 4% | 63.7hPa | 2.7V | 08:22:41 | 01:53:53 | 00:00:00 | |
| AA1-15 | 2026-08-31 12:44:23 | 54.48843 | 14.16742 | 34° | 18km/h | 19428m | -19.5m/s | -52.1°C | 0.9% | 64.1hPa | 2.7V | 08:22:40 | 01:53:55 | 00:00:00 | |
| DO2SHX-10 | 2026-08-31 12:44:22 | 54.48843 | 14.16742 | 34° | 18km/h | 19428m | -19.4m/s | -52.1°C | 3.9% | 64.0hPa | 2.6V | 00:00:00 | 01:53:55 | 00:00:00 | |
| DM0DOS-11 | 2026-08-31 12:44:19 | 54.48821 | 14.16725 | 13° | 20km/h | 19523m | -19m/s | -52.6°C | 4.1% | 63.2hPa | 2.6V | 08:22:44 | 01:53:50 | 00:00:00 | |
| DL1XH-west | 2026-08-31 12:44:15 | 54.48812 | 14.16722 | 13° | 18km/h | 19560m | -18.2m/s | -52.3°C | 1% | 62.8hPa | 2.7V | 08:23:31 | 01:53:48 | 00:00:00 | |
| SONCRA | 2026-08-31 12:44:15 | 54.48812 | 14.16722 | 12° | 16km/h | 19561m | -18.2m/s | -52.3°C | 1.3% | 62.8hPa | 2.7V | 00:00:00 | 00:00:00 | 00:00:00 | |
| DL1XH1-15 | 2026-08-31 12:44:14 | 54.48792 | 14.16709 | 33° | 18km/h | 19652m | -20.5m/s | -52°C | 3.9% | 61.9hPa | 2.7V | 08:22:51 | 01:53:43 | 00:00:00 | |
| AA1-15 | 2026-08-31 12:44:11 | 54.48796 | 14.16713 | 29° | 16km/h | 19632m | -19m/s | -51.8°C | 0.9% | 62.1hPa | 2.6V | 08:23:31 | 01:53:44 | 00:00:00 | |
| DL1XH-west | 2026-08-31 12:44:04 | 54.48765 | 14.16681 | 34° | 22km/h | 19772m | -18.5m/s | -52.5°C | 1.1% | 60.8hPa | 2.7V | 08:23:31 | 01:53:37 | 00:00:00 | |
| AA1-15 | 2026-08-31 12:44:01 | 54.48745 | 14.16650 | 48° | 29km/h | 19850m | -18.7m/s | -52.7°C | 1.2% | 60.1hPa | 2.6V | 08:23:31 | 01:53:33 | 00:00:00 | |
| DO2SHX-10 | 2026-08-31 12:44:01 | 54.48750 | 14.16659 | 44° | 29km/h | 19831m | -20.1m/s | -52.6°C | 4.2% | 60.2hPa | 2.7V | 00:00:00 | 01:53:34 | 00:00:00 | |
| DM0DOS-11 | 2026-08-31 12:43:59 | 54.48733 | 14.16617 | 64° | 33km/h | 19906m | -19.2m/s | -52.8°C | 4.3% | 59.5hPa | 2.7V | 08:23:04 | 01:53:30 | 00:00:00 | |
| DL1XH-15 | 2026-08-31 12:43:58 | 54.48726 | 14.16591 | 69° | 33km/h | 19943m | -19.6m/s | -52.9°C | 4.3% | 59.2hPa | 2.6V | 08:23:06 | 01:53:28 | 00:00:00 | |
| D01LWL | 2026-08-31 12:43:58 | 54.48736 | 14.16629 | 60° | 31km/h | 19888m | -19.0m/s | -52.8°C | 1.4% | 59.7hPa | 2.7V | 00:00:00 | 00:00:00 | 00:00:00 | |
| SONDE2-11 | 2026-08-31 12:43:56 | 54.48729 | 14.16604 | 64° | 33km/h | 19925m | -17.9m/s | -52.9°C | 1.4% | 59.4hPa | 2.7V | 00:00:00 | 00:00:00 | 00:00:00 | |
| EDDB2-12 | 2026-08-31 12:43:55 | 54.48726 | 14.16591 | 69° | 31km/h | 19943m | -19.6m/s | -52.9°C | 1.4% | 59.2hPa | 2.7V | 00:00:00 | 00:00:00 | 00:00:00 | |
| S3001 | 2026-08-31 12:43:54 | 54.48723 | 14.16578 | 70° | 29km/h | 19962m | -19.0m/s | -52.7°C | 1.4% | 59.0hPa | 2.7V | 00:00:00 | 00:00:00 | 00:00:00 | |
| DL1XH1-15 | 2026-08-31 12:43:53 | 54.48713 | 14.16539 | 66° | 22km/h | 20037m | -19.1m/s | -52.3°C | 4.1% | 58.3hPa | 2.7V | 08:23:11 | 01:53:23 | 00:00:00 | |
| DL1XH-west | 2026-08-31 12:43:53 | 54.48718 | 14.16557 | 62° | 24km/h | 19999m | -17.8m/s | -52.3°C | 1.1% | 58.7hPa | 2.6V | 08:23:31 | 01:53:25 | 00:00:00 | |
| AA1-15 | 2026-08-31 12:43:50 | 54.48713 | 14.16539 | 67° | 22km/h | 20037m | -19.1m/s | -52.3°C | 1.1% | 58.3hPa | 2.7V | 08:23:31 | 01:53:23 | 00:00:00 | |
| DF8AY | 2026-08-31 12:43:45 | 54.48700 | 14.16511 | 52° | 15km/h | 20135m | -19.1m/s | -52.1°C | 1% | 57.4hPa | 2.7V | 08:24:22 | 01:53:18 | 00:00:00 | |
| SONCRA | 2026-08-31 12:43:44 | 54.48697 | 14.16506 | 51° | 15km/h | 20154m | -19.4m/s | -52.1°C | 1.3% | 57.3hPa | 2.7V | 00:00:00 | 00:00:00 | 00:00:00 | |
| DO2SHX-10 | 2026-08-31 12:43:43 | 54.48695 | 14.16501 | 38° | 16km/h | 20174m | -20.2m/s | -52.0°C | 4.0% | 57.1hPa | 2.7V | 00:00:00 | 01:53:16 | 00:00:00 | |
| DL1XH1-15 | 2026-08-31 12:43:41 | 54.48681 | 14.16480 | 31° | 22km/h | 20252m | -20.2m/s | -52.1°C | 4.1% | 56.4hPa | 2.7V | 08:23:22 | 01:53:12 | 00:00:00 | |
| DL1XH-west | 2026-08-31 12:43:41 | 54.48688 | 14.16491 | 42° | 16km/h | 20213m | -20m/s | -52.1°C | 1% | 56.8hPa | 2.7V | 08:23:31 | 01:53:14 | 00:00:00 | |
| AA1-15 | 2026-08-31 12:43:40 | 54.48681 | 14.16480 | 32° | 22km/h | 20252m | -20.2m/s | -52.1°C | 1.1% | 56.4hPa | 2.7V | 08:23:31 | 01:53:12 | 00:00:00 | |
| DM0DOS-11 | 2026-08-31 12:43:38 | 54.48672 | 14.16468 | 39° | 22km/h | 20293m | -20.8m/s | -52°C | 4.1% | 56.1hPa | 2.6V | 08:23:24 | 01:53:10 | 00:00:00 | |
| DO2SHX-10 | 2026-08-31 12:43:37 | 54.48673 | 14.16468 | 40° | 24km/h | 20293m | -20.7m/s | -52.0°C | 4.1% | 56.0hPa | 2.7V | 00:00:00 | 01:53:10 | 00:00:00 | |
| DL1XH1-15 | 2026-08-31 12:43:34 | 54.48643 | 14.16409 | 46° | 18km/h | 20456m | -20.4m/s | -51.7°C | 3.9% | 54.7hPa | 2.7V | 08:23:32 | 01:53:02 | 00:00:00 | |
| DF8AY | 2026-08-31 12:43:33 | 54.48653 | 14.16430 | 45° | 24km/h | 20396m | -19m/s | -51.6°C | 1% | 55.2hPa | 2.6V | 08:24:22 | 01:53:05 | 00:00:00 | |
| DM0DOS-11 | 2026-08-31 12:43:32 | 54.48635 | 14.16394 | 35° | 13km/h | 20515m | -18.4m/s | -51.9°C | 4% | 54.2hPa | 2.6V | 08:23:35 | 01:52:59 | 00:00:00 | |
| DL1XH-west | 2026-08-31 12:43:30 | 54.48647 | 14.16416 | 55° | 18km/h | 20436m | -19.8m/s | -51.7°C | 1% | 54.8hPa | 2.6V | 08:23:31 | 01:53:03 | 00:00:00 | |
| AA1-15 | 2026-08-31 12:43:29 | 54.48641 | 14.16404 | 56° | 16km/h | 20476m | -20.1m/s | -51.8°C | 1% | 54.5hPa | 2.7V | 08:24:22 | 01:53:01 | 00:00:00 | |
| DL1XH-15 | 2026-08-31 12:43:28 | 54.48632 | 14.16391 | 33° | 15km/h | 20535m | -20.2m/s | -52°C | 4% | 54hPa | 2.6V | 08:23:36 | 01:52:58 | 00:00:00 | |
| DF8AY | 2026-08-31 12:43:22 | 54.48613 | 14.16386 | 355° | 24km/h | 20636m | -20.5m/s | -51.7°C | 1% | 53.2hPa | 2.6V | 08:24:22 | 01:52:53 | 00:00:00 | |
| DM0DOS-11 | 2026-08-31 12:43:21 | 54.48588 | 14.16391 | 348° | 27km/h | 20718m | -20.1m/s | -51.7°C | 4% | 52.5hPa | 2.7V | 08:23:45 | 01:52:49 | 00:00:00 | |
| DL1XH1-15 | 2026-08-31 12:43:21 | 54.48607 | 14.16387 | 358° | 22km/h | 20656m | -20.1m/s | -51.8°C | 4% | 53.1hPa | 2.6V | 08:23:42 | 01:52:52 | 00:00:00 | |
| DL1XH-15 | 2026-08-31 12:43:20 | 54.48582 | 14.16393 | 357° | 26km/h | 20739m | -21.4m/s | -51.8°C | 4% | 52.4hPa | 2.7V | 08:23:46 | 01:52:48 | 00:00:00 | |
| DL1XH-west | 2026-08-31 12:43:19 | 54.48607 | 14.16387 | 359° | 22km/h | 20656m | -20.1m/s | -51.8°C | 1% | 53.1hPa | 2.6V | 08:25:13 | 01:52:52 | 00:00:00 | |
| AA1-15 | 2026-08-31 12:43:18 | 54.48588 | 14.16391 | 348° | 27km/h | 20718m | -20.1m/s | -51.7°C | 1% | 52.5hPa | 2.7V | 08:24:22 | 01:52:49 | 00:00:00 | |
| DK1YY | 2026-08-31 12:43:16 | 54.48582 | 14.16393 | 357° | 26km/h | 20739m | -21.5m/s | 0°C | -1.0% | -1.0hPa | 2.7V | 00:00:00 | 00:00:00 | 00:00:00 | |
| SP3WXH-11 | 2026-08-31 12:43:15 | 54.48582 | 14.16393 | 357° | 26km/h | 20739m | -21.5m/s | -51.8°C | 1.3% | 52.4hPa | 2.7V | 00:00:00 | 00:00:00 | 00:00:00 | |
| DL1XH1-15 | 2026-08-31 12:43:14 | 54.48543 | 14.16387 | 24° | 26km/h | 20861m | -20.7m/s | -51.9°C | 4% | 51.4hPa | 2.7V | 08:23:52 | 01:52:42 | 00:00:00 | |
| DO2SHX-10 | 2026-08-31 12:43:13 | 54.48568 | 14.16394 | 360° | 26km/h | 20779m | -20.8m/s | -51.8°C | 4.1% | 52.0hPa | 2.6V | 00:00:00 | 01:52:46 | 00:00:00 | |
| DM0DOS-11 | 2026-08-31 12:43:11 | 54.48526 | 14.16368 | 41° | 29km/h | 20925m | -21.4m/s | -51.5°C | 4% | 50.9hPa | 2.6V | 08:23:55 | 01:52:39 | 00:00:00 | |
| DL1XH-west | 2026-08-31 12:43:09 | 54.48543 | 14.16387 | 25° | 26km/h | 20861m | -20.7m/s | -51.9°C | 1% | 51.4hPa | 2.7V | 08:25:13 | 01:52:42 | 00:00:00 | |
| DL1XH-15 | 2026-08-31 12:43:08 | 54.48521 | 14.16359 | 42° | 27km/h | 20946m | -19.6m/s | -51.5°C | 4% | 50.7hPa | 2.7V | 08:23:56 | 01:52:38 | 00:00:00 | |
| AA1-15 | 2026-08-31 12:43:06 | 54.48521 | 14.16359 | 43° | 27km/h | 20946m | -19.6m/s | -51.5°C | 1% | 50.7hPa | 2.7V | 08:24:22 | 01:52:38 | 00:00:00 | |
| DO2SHX-10 | 2026-08-31 12:43:04 | 54.48516 | 14.16351 | 55° | 26km/h | 20966m | -18.5m/s | -51.5°C | 4.0% | 50.5hPa | 2.7V | 00:00:00 | 01:52:37 | 00:00:00 | |
| AM1SDL-15 | 2026-08-31 12:43:03 | 54.48512 | 14.16342 | 52° | 18km/h | 20986m | -20.6m/s | -51.5°C | 3.9% | 50.4hPa | 2.7V | 00:00:00 | 01:52:36 | 00:00:00 | |
| DM0DOS-11 | 2026-08-31 12:43:01 | 54.48498 | 14.16289 | 77° | 16km/h | 21134m | -21m/s | -51°C | 3.8% | 49.3hPa | 2.6V | 08:24:05 | 01:52:29 | 00:00:00 | |
| DO2SHX-10 | 2026-08-31 12:43:01 | 54.48507 | 14.16324 | 59° | 20km/h | 21026m | -19.7m/s | -51.5°C | 3.9% | 50.1hPa | 2.6V | 00:00:00 | 01:52:34 | 00:00:00 | |
| DL1XH-15 | 2026-08-31 12:43:00 | 54.48496 | 14.16278 | 85° | 15km/h | 21175m | -19.1m/s | -51.1°C | 3.7% | 49hPa | 2.6V | 08:24:07 | 01:52:27 | 00:00:00 | |
| DL1XH-west | 2026-08-31 12:42:59 | 54.48500 | 14.16301 | 74° | 18km/h | 21092m | -21.5m/s | -51.3°C | 1% | 49.6hPa | 2.7V | 08:25:13 | 01:52:31 | 00:00:00 | |
| DF8AY | 2026-08-31 12:42:57 | 54.48498 | 14.16289 | 77° | 16km/h | 21134m | -21m/s | -51°C | 0.9% | 49.3hPa | 2.6V | 08:24:22 | 01:52:29 | 00:00:00 | |
| AA1-15 | 2026-08-31 12:42:56 | 54.48497 | 14.16283 | 72° | 13km/h | 21155m | -20.3m/s | -51°C | 0.9% | 49.1hPa | 2.6V | 08:24:22 | 01:52:28 | 00:00:00 | |
| DO2SHX-10 | 2026-08-31 12:42:55 | 54.48497 | 14.16283 | 72° | 13km/h | 21156m | -20.2m/s | -50.9°C | 3.7% | 49.1hPa | 2.6V | 08:24:00 | 01:52:28 | 00:00:00 | |
| DL1XH1-15 | 2026-08-31 12:42:54 | 54.48496 | 14.16252 | 78° | 9km/h | 21276m | -21.6m/s | -51.2°C | 3.7% | 48.2hPa | 2.6V | 08:24:12 | 01:52:22 | 00:00:00 | |
| SONDE2-11 | 2026-08-31 12:42:54 | 54.48496 | 14.16278 | 85° | 13km/h | 21175m | -19.1m/s | -51.1°C | 1.2% | 49.0hPa | 2.7V | 00:00:00 | 00:00:00 | 00:00:00 | |
| SP3BTT-10 | 2026-08-31 12:42:53 | 54.48496 | 14.16273 | 72° | 11km/h | 21195m | -20.5m/s | -51.1°C | 3.7% | 48.8hPa | 2.7V | 00:00:00 | 00:00:00 | 00:00:00 | |
| DO2SHX-10 | 2026-08-31 12:42:52 | 54.48495 | 14.16268 | 89° | 13km/h | 21215m | -20.3m/s | -51.2°C | 3.7% | 48.6hPa | 2.7V | 00:00:00 | 01:52:25 | 00:00:00 | |
| AM1SDL-15 | 2026-08-31 12:42:51 | 54.48495 | 14.16262 | 92° | 9km/h | 21235m | -20.5m/s | -51.2°C | 3.7% | 48.5hPa | 2.7V | 00:00:00 | 01:52:24 | 00:00:00 | |
| DM0DOS-11 | 2026-08-31 12:42:49 | 54.48498 | 14.16237 | 129° | 7km/h | 21366m | -22.1m/s | -51.4°C | 3.7% | 47.6hPa | 2.7V | 08:24:16 | 01:52:18 | 00:00:00 | |
| DL1XH-west | 2026-08-31 12:42:47 | 54.48497 | 14.16244 | 102° | 5km/h | 21321m | -22.5m/s | -51.3°C | 0.9% | 47.9hPa | 2.7V | 08:25:13 | 01:52:20 | 00:00:00 | |
| DF8AY | 2026-08-31 12:42:46 | 54.48497 | 14.16241 | 98° | 9km/h | 21343m | -21.6m/s | -51.4°C | 0.9% | 47.7hPa | 2.7V | 08:24:22 | 01:52:19 | 00:00:00 | |
| AA1-15 | 2026-08-31 12:42:44 | 54.48500 | 14.16231 | 105° | 7km/h | 21410m | -23.6m/s | -51.5°C | 0.9% | 47.3hPa | 2.6V | 08:24:22 | 01:52:16 | 00:00:00 | |
| SP3WXH-11 | 2026-08-31 12:42:44 | 54.48500 | 14.16234 | 114° | 9km/h | 21388m | -21.8m/s | -51.5°C | 1.2% | 47.4hPa | 2.7V | 00:00:00 | 00:00:00 | 00:00:00 | |
| DO2SHX-10 | 2026-08-31 12:42:43 | 54.48500 | 14.16231 | 106° | 7km/h | 21410m | -23.5m/s | -51.4°C | 3.8% | 47.2hPa | 2.7V | 00:00:00 | 01:52:16 | 00:00:00 | |
| SONCRA | 2026-08-31 12:42:42 | 54.48502 | 14.16224 | 114° | 7km/h | 21454m | -22.1m/s | -51.7°C | 1.2% | 46.9hPa | 2.7V | 00:00:00 | 00:00:00 | 00:00:00 | |
| DO2SHX-10 | 2026-08-31 12:42:40 | 54.48503 | 14.16221 | 117° | 11km/h | 21476m | -21.1m/s | -51.8°C | 3.9% | 46.7hPa | 2.7V | 00:00:00 | 01:52:13 | 00:00:00 | |
| AM1SDL-15 | 2026-08-31 12:42:39 | 54.48505 | 14.16216 | 119° | 7km/h | 21496m | -20.4m/s | -51.9°C | 4.0% | 46.6hPa | 2.7V | 00:00:00 | 01:52:12 | 00:00:00 | |
| DM0DOS-11 | 2026-08-31 12:42:37 | 54.48510 | 14.16202 | 122° | 9km/h | 21570m | -21m/s | -52.2°C | 4% | 46.1hPa | 2.7V | 08:24:26 | 01:52:08 | 00:00:00 | |
| DL1XH-west | 2026-08-31 12:42:37 | 54.48508 | 14.16208 | 117° | 9km/h | 21532m | -18.3m/s | -52°C | 1.1% | 46.3hPa | 2.6V | 08:25:13 | 01:52:10 | 00:00:00 | |
| DF8AY | 2026-08-31 12:42:35 | 54.48500 | 14.16206 | 340° | 13km/h | 21783m | -23.2m/s | -52.5°C | 1.1% | 44.6hPa | 2.6V | 08:25:13 | 01:51:58 | 00:00:00 | |
| AA1-15 | 2026-08-31 12:42:34 | 54.48511 | 14.16199 | 149° | 4km/h | 21611m | -19.9m/s | -52.3°C | 1.1% | 45.8hPa | 2.7V | 08:25:13 | 01:52:06 | 00:00:00 | |
| DG6HD-15 | 2026-08-31 12:42:32 | 54.48511 | 14.16198 | 349° | 2km/h | 21631m | -20.9m/s | -52.3°C | 1.3% | 45.7hPa | 2.7V | 00:00:00 | 00:00:00 | 00:00:00 | |
| DO2SHX-10 | 2026-08-31 12:42:31 | 54.48511 | 14.16198 | 32° | 5km/h | 21652m | -21.9m/s | -52.2°C | 4.0% | 45.5hPa | 2.7V | 00:00:00 | 01:52:04 | 00:00:00 | |
| DO2SHX-10 | 2026-08-31 12:42:28 | 54.48507 | 14.16200 | 332° | 9km/h | 21717m | -22.9m/s | -52.2°C | 4.0% | 45.0hPa | 2.7V | 08:24:00 | 01:52:01 | 00:00:00 | |
| DM0DOS-11 | 2026-08-31 12:42:27 | 54.48500 | 14.16206 | 340° | 13km/h | 21783m | -23.2m/s | -52.5°C | 4.1% | 44.6hPa | 2.6V | 08:24:36 | 01:51:58 | 00:00:00 | |
| AA1-15 | 2026-08-31 12:42:23 | 54.48489 | 14.16215 | 338° | 20km/h | 21848m | -20.2m/s | -52.6°C | 1.2% | 44.1hPa | 2.7V | 08:25:13 | 01:51:55 | 00:00:00 | |
| DL1XH1-15 | 2026-08-31 12:42:21 | 54.48484 | 14.16217 | 344° | 18km/h | 21868m | -21.8m/s | -52.5°C | 4.1% | 44hPa | 2.7V | 08:24:40 | 01:51:54 | 00:00:00 | |
| DL1XH-west | 2026-08-31 12:42:19 | 54.48475 | 14.16222 | 346° | 20km/h | 21911m | -21.6m/s | -52.2°C | 1% | 43.7hPa | 2.6V | 08:25:13 | 01:51:52 | 00:00:00 | |
| DF8AY | 2026-08-31 12:42:16 | 54.48455 | 14.16221 | 18° | 20km/h | 21998m | -21.2m/s | -52.6°C | 1.1% | 43.2hPa | 2.7V | 08:25:13 | 01:51:48 | 00:00:00 | |
| AA1-15 | 2026-08-31 12:42:13 | 54.48442 | 14.16202 | 60° | 20km/h | 22082m | -20.4m/s | -52.5°C | 1.1% | 42.6hPa | 2.7V | 08:25:13 | 01:51:44 | 00:00:00 | |
| DL1XH1-15 | 2026-08-31 12:42:13 | 54.48442 | 14.16202 | 60° | 20km/h | 22082m | -20.4m/s | -52.5°C | 4.1% | 42.6hPa | 2.7V | 08:24:50 | 01:51:44 | 00:00:00 | |
| DL1XH-west | 2026-08-31 12:42:08 | 54.48436 | 14.16179 | 72° | 20km/h | 22144m | -20.7m/s | -52.5°C | 1.1% | 42.2hPa | 2.6V | 08:25:13 | 01:51:41 | 00:00:00 | |
| DM0DOS-11 | 2026-08-31 12:42:06 | 54.48433 | 14.16153 | 79° | 20km/h | 22205m | -20.3m/s | -52.4°C | 4.1% | 41.8hPa | 2.7V | 08:24:56 | 01:51:38 | 00:00:00 | |
| DF8AY | 2026-08-31 12:42:05 | 54.48431 | 14.16118 | 85° | 11km/h | 22312m | -21.2m/s | -52.3°C | 1.1% | 41.1hPa | 2.6V | 08:25:13 | 01:51:33 | 00:00:00 | |
| DL1XH1-15 | 2026-08-31 12:42:04 | 54.48431 | 14.16118 | 85° | 11km/h | 22312m | -21.1m/s | -52.3°C | 4% | 41.1hPa | 2.6V | 08:25:01 | 01:51:33 | 00:00:00 | |
| AA1-15 | 2026-08-31 12:42:02 | 54.48431 | 14.16124 | 79° | 15km/h | 22290m | -21.4m/s | -52.3°C | 1.1% | 41.2hPa | 2.6V | 08:25:13 | 01:51:34 | 00:00:00 | |
| DL1XH-west | 2026-08-31 12:41:58 | 54.48431 | 14.16107 | 90° | 13km/h | 22355m | -22.4m/s | -52.4°C | 1.1% | 40.9hPa | 2.7V | 08:25:13 | 01:51:31 | 00:00:00 | |
| DO2SHX-10 | 2026-08-31 12:41:58 | 54.48431 | 14.16107 | 90° | 11km/h | 22355m | -22.3m/s | -52.4°C | 4.0% | 40.8hPa | 2.6V | 00:00:00 | 01:51:31 | 00:00:00 | |
| DM0DOS-11 | 2026-08-31 12:41:56 | 54.48429 | 14.16094 | 74° | 11km/h | 22420m | -23.2m/s | -52.7°C | 4.1% | 40.4hPa | 2.6V | 08:25:06 | 01:51:28 | 00:00:00 | |
| DO2SHX-10 | 2026-08-31 12:41:55 | 54.48429 | 14.16094 | 75° | 9km/h | 22420m | -23.2m/s | -52.6°C | 4.1% | 40.4hPa | 2.6V | 00:00:00 | 01:51:28 | 00:00:00 | |
| DL1XH1-15 | 2026-08-31 12:41:53 | 54.48421 | 14.16079 | 19° | 9km/h | 22536m | -21.9m/s | -52.7°C | 4.1% | 39.7hPa | 2.6V | 08:25:11 | 01:51:23 | 00:00:00 | |
| AA1-15 | 2026-08-31 12:41:52 | 54.48423 | 14.16080 | 42° | 9km/h | 22514m | -22.4m/s | -52.7°C | 1.1% | 39.8hPa | 2.7V | 08:25:13 | 01:51:24 | 00:00:00 | |
| DF8AY | 2026-08-31 12:41:50 | 54.48419 | 14.16078 | 14° | 7km/h | 22558m | -22.4m/s | -52.8°C | 1.2% | 39.6hPa | 2.6V | 08:25:13 | 01:51:22 | 00:00:00 | |
| DL1XH-west | 2026-08-31 12:41:47 | 54.48416 | 14.16075 | 28° | 9km/h | 22603m | -23.1m/s | -53°C | 1.2% | 39.3hPa | 2.7V | 08:26:04 | 01:51:20 | 00:00:00 | |
| DO2SHX-10 | 2026-08-31 12:41:46 | 54.48414 | 14.16073 | 38° | 9km/h | 22626m | -22.9m/s | -53.0°C | 4.3% | 39.1hPa | 2.6V | 00:00:00 | 01:51:19 | 00:00:00 | |
| DO2SHX-10 | 2026-08-31 12:41:43 | 54.48408 | 14.16068 | 37° | 11km/h | 22696m | -23.6m/s | -52.7°C | 4.2% | 38.7hPa | 2.6V | 00:00:00 | 01:51:16 | 00:00:00 | |
| DL1XH1-15 | 2026-08-31 12:41:42 | 54.48401 | 14.16059 | 38° | 13km/h | 22762m | -21.2m/s | -52.6°C | 4.1% | 38.3hPa | 2.7V | 08:25:21 | 01:51:13 | 00:00:00 | |
| AA1-15 | 2026-08-31 12:41:41 | 54.48398 | 14.16056 | 46° | 15km/h | 22783m | -22.9m/s | -52.6°C | 1.1% | 38.2hPa | 2.7V | 08:26:04 | 01:51:12 | 00:00:00 | |
| DF8AY | 2026-08-31 12:41:39 | 54.48395 | 14.16052 | 36° | 15km/h | 22805m | -20.8m/s | -52.6°C | 1.1% | 38.1hPa | 2.6V | 08:26:04 | 01:51:11 | 00:00:00 | |
| DL1XH-west | 2026-08-31 12:41:37 | 54.48393 | 14.16047 | 42° | 18km/h | 22827m | -23.7m/s | -52.7°C | 1.1% | 38hPa | 2.6V | 08:26:04 | 01:51:10 | 00:00:00 | |
| DM0DOS-11 | 2026-08-31 12:41:36 | 54.48386 | 14.16038 | 41° | 16km/h | 22872m | -21.5m/s | -52.8°C | 4.1% | 37.6hPa | 2.7V | 08:25:26 | 01:51:08 | 00:00:00 | |
| AA1-15 | 2026-08-31 12:41:31 | 54.48373 | 14.16004 | 66° | 22km/h | 22987m | -25.1m/s | -52.7°C | 1.1% | 37hPa | 2.6V | 08:26:04 | 01:51:03 | 00:00:00 | |
| DF8AY | 2026-08-31 12:41:30 | 54.48371 | 14.15996 | 66° | 22km/h | 23013m | -26.1m/s | -52.7°C | 1.1% | 36.9hPa | 2.7V | 08:26:04 | 01:51:02 | 00:00:00 | |
| DL1XH-west | 2026-08-31 12:41:26 | 54.48364 | 14.15974 | 58° | 18km/h | 23083m | -22.3m/s | -52.8°C | 1.1% | 36.5hPa | 2.6V | 08:26:04 | 01:50:59 | 00:00:00 | |
| AA1-15 | 2026-08-31 12:41:21 | 54.48355 | 14.15942 | 93° | 5km/h | 23231m | -21.5m/s | -52.8°C | 1.3% | 35.6hPa | 2.6V | 08:26:04 | 01:50:52 | 00:00:00 | |
| DF8AY | 2026-08-31 12:41:18 | 54.48349 | 14.15908 | 70° | 18km/h | 23417m | -25.9m/s | -52.6°C | 1.2% | 34.6hPa | 2.7V | 08:26:04 | 01:50:44 | 00:00:00 | |
| DL1XH-west | 2026-08-31 12:41:12 | 54.48350 | 14.15915 | 69° | 16km/h | 23392m | -25.8m/s | -52.8°C | 1.2% | 34.8hPa | 2.6V | 08:26:04 | 01:50:45 | 00:00:00 | |
| SP3WXH-11 | 2026-08-31 12:41:11 | 54.48347 | 14.15901 | 70° | 16km/h | 23442m | -24.3m/s | -52.4°C | 1.3% | 34.5hPa | 2.7V | 00:00:00 | 00:00:00 | 00:00:00 | |
| DM0DOS-11 | 2026-08-31 12:41:10 | 54.48344 | 14.15865 | 98° | 18km/h | 23561m | -23.7m/s | -52°C | 4.1% | 33.9hPa | 2.7V | 08:25:56 | 01:50:38 | 00:00:00 | |
| AA1-15 | 2026-08-31 12:41:10 | 54.48347 | 14.15901 | 71° | 18km/h | 23442m | -24.3m/s | -52.4°C | 1.2% | 34.5hPa | 2.7V | 08:26:04 | 01:50:43 | 00:00:00 | |
| DO2SHX-10 | 2026-08-31 12:41:10 | 54.48347 | 14.15901 | 71° | 18km/h | 23442m | -24.2m/s | -52.4°C | 4.2% | 34.4hPa | 2.7V | 00:00:00 | 01:50:43 | 00:00:00 | |
| SONCRA | 2026-08-31 12:41:09 | 54.48345 | 14.15887 | 80° | 16km/h | 23490m | -23.2m/s | -52.4°C | 1.3% | 34.2hPa | 2.7V | 00:00:00 | 00:00:00 | 00:00:00 | |
| DL1XH-15 | 2026-08-31 12:41:07 | 54.48348 | 14.15841 | 108° | 20km/h | 23629m | -22.4m/s | -51.7°C | 4% | 33.5hPa | 2.7V | 08:25:59 | 01:50:35 | 00:00:00 | |
| AA1-15 | 2026-08-31 12:41:00 | 54.48352 | 14.15826 | 114° | 16km/h | 23673m | -21.7m/s | -51.8°C | 1.1% | 33.3hPa | 2.6V | 08:26:04 | 01:50:33 | 00:00:00 | |
| DL1XH-west | 2026-08-31 12:40:59 | 54.48353 | 14.15821 | 115° | 13km/h | 23695m | -23.1m/s | -51.8°C | 1.1% | 33.2hPa | 2.6V | 08:26:04 | 01:50:32 | 00:00:00 | |
| DO2SHX-10 | 2026-08-31 12:40:58 | 54.48355 | 14.15817 | 126° | 9km/h | 23718m | -22.2m/s | -51.8°C | 4.1% | 33.0hPa | 2.7V | 00:00:00 | 01:50:31 | 00:00:00 | |
| DL1XH-15 | 2026-08-31 12:40:57 | 54.48362 | 14.15813 | 206° | 4km/h | 23862m | -25m/s | -51.8°C | 4% | 32.4hPa | 2.7V | 08:26:09 | 01:50:25 | 00:00:00 | |
| DM0DOS-11 | 2026-08-31 12:40:57 | 54.48359 | 14.15811 | 186° | 4km/h | 23787m | -24.7m/s | -51.8°C | 3.9% | 32.7hPa | 2.6V | 08:26:06 | 01:50:28 | 00:00:00 | |
| DO2SHX-10 | 2026-08-31 12:40:55 | 54.48359 | 14.15810 | 187° | 4km/h | 23788m | -24.6m/s | -51.7°C | 3.9% | 32.7hPa | 2.6V | 00:00:00 | 01:50:28 | 00:00:00 | |
| DL1XH1-15 | 2026-08-31 12:40:53 | 54.48362 | 14.15814 | 280° | 5km/h | 23886m | -23.4m/s | -51.7°C | 4% | 32.2hPa | 2.6V | 08:26:10 | 01:50:24 | 00:00:00 | |
| DJ2DS-15 | 2026-08-31 12:40:52 | 54.48362 | 14.15814 | 280° | 4km/h | 23886m | -23.5m/s | -51.7°C | 1.2% | 32.2hPa | 2.6V | 00:00:00 | 00:00:00 | 00:00:00 | |
| DM0DOS-11 | 2026-08-31 12:40:50 | 54.48357 | 14.15828 | 318° | 4km/h | 24047m | -24.6m/s | -51.4°C | 3.9% | 31.4hPa | 2.6V | 08:26:17 | 01:50:17 | 00:00:00 | |
| SONDE2-11 | 2026-08-31 12:40:50 | 54.48362 | 14.15818 | 302° | 4km/h | 23933m | -23.6m/s | -51.7°C | 1.3% | 32.0hPa | 2.7V | 00:00:00 | 00:00:00 | 00:00:00 | |
| DF8AY | 2026-08-31 12:40:49 | 54.48355 | 14.15833 | 311° | 4km/h | 24121m | -25.3m/s | -51.3°C | 0.9% | 31.1hPa | 2.7V | 08:26:55 | 01:50:14 | 00:00:00 | |
| DL1XH-west | 2026-08-31 12:40:49 | 54.48362 | 14.15818 | 302° | 4km/h | 23933m | -23.6m/s | -51.7°C | 1.1% | 32hPa | 2.6V | 08:26:55 | 01:50:22 | 00:00:00 | |
| EDDB2-12 | 2026-08-31 12:40:49 | 54.48361 | 14.15820 | 298° | 5km/h | 23956m | -22.8m/s | -51.7°C | 1.3% | 31.9hPa | 2.7V | 00:00:00 | 00:00:00 | 00:00:00 | |
| S3001 | 2026-08-31 12:40:48 | 54.48360 | 14.15822 | 327° | 2km/h | 23978m | -22.4m/s | -51.7°C | 1.3% | 31.8hPa | 2.7V | 00:00:00 | 00:00:00 | 00:00:00 | |
| DO2SHX-10 | 2026-08-31 12:40:46 | 54.48359 | 14.15823 | 321° | 5km/h | 24001m | -23.2m/s | -51.6°C | 4.0% | 31.6hPa | 2.7V | 00:00:00 | 01:50:19 | 00:00:00 | |
| DL1XH1-15 | 2026-08-31 12:40:43 | 54.48354 | 14.15833 | 311° | 4km/h | 24121m | -25.3m/s | -51.3°C | 3.8% | 31.1hPa | 2.7V | 08:26:20 | 01:50:14 | 00:00:00 | |
| DO2SHX-10 | 2026-08-31 12:40:43 | 54.48356 | 14.15829 | 311° | 4km/h | 24072m | -24.5m/s | -51.2°C | 3.8% | 31.3hPa | 2.7V | 00:00:00 | 01:50:16 | 00:00:00 | |
| DO2SHX-10 | 2026-08-31 12:40:40 | 54.48354 | 14.15834 | 302° | 4km/h | 24147m | -25.3m/s | -51.3°C | 3.8% | 30.9hPa | 2.7V | 08:26:00 | 01:50:13 | 00:00:00 | |
| DM0DOS-11 | 2026-08-31 12:40:39 | 54.48351 | 14.15845 | 306° | 7km/h | 24271m | -25.7m/s | -51.5°C | 3.9% | 30.4hPa | 2.7V | 08:26:26 | 01:50:08 | 00:00:00 | |
| DL1XH-west | 2026-08-31 12:40:39 | 54.48353 | 14.15836 | 298° | 4km/h | 24172m | -24.4m/s | -51.4°C | 0.9% | 30.9hPa | 2.6V | 08:26:55 | 01:50:12 | 00:00:00 | |
| AA1-15 | 2026-08-31 12:40:39 | 54.48353 | 14.15837 | 285° | 4km/h | 24197m | -23.5m/s | -51.4°C | 0.9% | 30.7hPa | 2.6V | 08:26:55 | 01:50:11 | 00:00:00 | |
| AA1-15 | 2026-08-31 12:40:28 | 54.48338 | 14.15864 | 330° | 11km/h | 24439m | -24m/s | -52.1°C | 1% | 29.6hPa | 2.7V | 08:26:55 | 01:50:01 | 00:00:00 | |
| DO2SHX-10 | 2026-08-31 12:40:28 | 54.48338 | 14.15864 | 330° | 9km/h | 24439m | -24.0m/s | -52.0°C | 4.0% | 29.5hPa | 2.7V | 00:00:00 | 01:50:01 | 00:00:00 | |
| DM0DOS-11 | 2026-08-31 12:40:27 | 54.48332 | 14.15868 | 346° | 9km/h | 24512m | -24.7m/s | -52.2°C | 4.1% | 29.3hPa | 2.7V | 08:26:36 | 01:49:58 | 00:00:00 | |
| DO2SHX-10 | 2026-08-31 12:40:25 | 54.48332 | 14.15867 | 347° | 7km/h | 24512m | -24.6m/s | -52.2°C | 4.1% | 29.2hPa | 2.7V | 00:00:00 | 01:49:58 | 00:00:00 | |
| DL1XH1-15 | 2026-08-31 12:40:22 | 54.48325 | 14.15873 | 322° | 7km/h | 24609m | -24.2m/s | -52.2°C | 4.2% | 28.8hPa | 2.7V | 08:26:40 | 01:49:54 | 00:00:00 | |
| AA1-15 | 2026-08-31 12:40:18 | 54.48321 | 14.15881 | 298° | 9km/h | 24676m | -22.5m/s | -52.2°C | 1.1% | 28.5hPa | 2.6V | 08:26:55 | 01:49:51 | 00:00:00 | |
| DF8AY | 2026-08-31 12:40:17 | 54.48318 | 14.15888 | 301° | 9km/h | 24723m | -24.6m/s | -52°C | 1.1% | 28.3hPa | 2.7V | 08:26:55 | 01:49:49 | 00:00:00 | |
| DM0DOS-11 | 2026-08-31 12:40:16 | 54.48317 | 14.15891 | 319° | 7km/h | 24747m | -24.5m/s | -51.9°C | 4.1% | 28.2hPa | 2.7V | 08:26:46 | 01:49:48 | 00:00:00 | |
| AA1-15 | 2026-08-31 12:40:07 | 54.48313 | 14.15911 | 253° | 11km/h | 24946m | -23.3m/s | -51.9°C | 1.1% | 27.4hPa | 2.6V | 08:26:55 | 01:49:40 | 00:00:00 | |
| DF8AY | 2026-08-31 12:40:07 | 54.48314 | 14.15922 | 275° | 15km/h | 24993m | -23.6m/s | -51.8°C | 1% | 27.1hPa | 2.7V | 08:28:37 | 01:49:38 | 00:00:00 | |
| DL1XH1-15 | 2026-08-31 12:40:07 | 54.48310 | 14.15950 | 292° | 20km/h | 25093m | -26.5m/s | -51.4°C | 3.9% | 26.7hPa | 2.6V | 08:27:00 | 01:49:34 | 00:00:00 | |
| DL1XH-west | 2026-08-31 12:40:06 | 54.48313 | 14.15928 | 274° | 18km/h | 25016m | -24.6m/s | -51.7°C | 1.1% | 27.1hPa | 2.7V | 08:27:46 | 01:49:37 | 00:00:00 | |
| DO2SHX-10 | 2026-08-31 12:40:04 | 54.48313 | 14.15928 | 274° | 18km/h | 25017m | -24.6m/s | -51.7°C | 4.0% | 27.0hPa | 2.7V | 00:00:00 | 01:49:37 | 00:00:00 | |
| DO2SHX-10 | 2026-08-31 12:40:01 | 54.48310 | 14.15950 | 293° | 20km/h | 25094m | -26.4m/s | -51.4°C | 3.9% | 26.7hPa | 2.6V | 00:00:00 | 01:49:34 | 00:00:00 | |
| DM0DOS-11 | 2026-08-31 12:40:00 | 54.48291 | 14.15986 | 333° | 24km/h | 25217m | -25.5m/s | -51.5°C | 3.9% | 26.2hPa | 2.6V | 08:27:05 | 01:49:29 | 00:00:00 | |
| AA1-15 | 2026-08-31 12:39:56 | 54.48291 | 14.15986 | 333° | 24km/h | 25217m | -25.5m/s | -51.5°C | 1% | 26.2hPa | 2.6V | 08:27:46 | 01:49:29 | 00:00:00 | |
| DL1XH-west | 2026-08-31 12:39:55 | 54.48280 | 14.15995 | 341° | 26km/h | 25266m | -24.6m/s | -51.6°C | 1.1% | 26hPa | 2.7V | 08:27:46 | 01:49:27 | 00:00:00 | |
| DL1XH-15 | 2026-08-31 12:39:54 | 54.48259 | 14.15996 | 5° | 31km/h | 25340m | -24.7m/s | -51.9°C | 4.1% | 25.8hPa | 2.6V | 08:27:10 | 01:49:24 | 00:00:00 | |
| DO2SHX-10 | 2026-08-31 12:39:52 | 54.48267 | 14.15997 | 3° | 31km/h | 25315m | -25.4m/s | -51.8°C | 4.1% | 25.8hPa | 2.6V | 00:00:00 | 01:49:25 | 00:00:00 | |
| DM0DOS-11 | 2026-08-31 12:39:50 | 54.48227 | 14.15970 | 39° | 26km/h | 25461m | -25.1m/s | -51.9°C | 4.2% | 25.3hPa | 2.6V | 08:27:15 | 01:49:19 | 00:00:00 | |
| AA1-15 | 2026-08-31 12:39:45 | 54.48221 | 14.15963 | 41° | 27km/h | 25486m | -24.1m/s | -51.9°C | 1.1% | 25.2hPa | 2.6V | 08:27:46 | 01:49:18 | 00:00:00 | |
| DL1XH-west | 2026-08-31 12:39:44 | 54.48217 | 14.15955 | 46° | 26km/h | 25510m | -25.1m/s | -51.8°C | 1.2% | 25.1hPa | 2.7V | 08:27:46 | 01:49:17 | 00:00:00 | |
| DL1XH-15 | 2026-08-31 12:39:42 | 54.48206 | 14.15931 | 58° | 20km/h | 25582m | -26.8m/s | -51.4°C | 4% | 24.8hPa | 2.6V | 08:27:20 | 01:49:14 | 00:00:00 | |
| AA1-15 | 2026-08-31 12:39:35 | 54.48191 | 14.15889 | 48° | 9km/h | 25787m | -26m/s | -51.1°C | 1.1% | 24hPa | 2.6V | 08:27:46 | 01:49:06 | 00:00:00 | |
| DF8AY | 2026-08-31 12:39:32 | 54.48189 | 14.15886 | 51° | 11km/h | 25813m | -26.5m/s | -51.1°C | 1.1% | 23.9hPa | 2.7V | 08:28:37 | 01:49:05 | 00:00:00 | |
| DO2SHX-10 | 2026-08-31 12:39:30 | 54.48187 | 14.15880 | 64° | 11km/h | 25865m | -26.5m/s | -51.0°C | 4.1% | 23.7hPa | 2.7V | 00:00:00 | 01:49:03 | 00:00:00 | |
| DM0DOS-11 | 2026-08-31 12:39:29 | 54.48182 | 14.15862 | 78° | 15km/h | 25969m | -26.8m/s | -51.1°C | 4.2% | 23.4hPa | 2.7V | 08:27:35 | 01:48:59 | 00:00:00 | |
| AA1-15 | 2026-08-31 12:39:25 | 54.48179 | 14.15843 | 80° | 16km/h | 26048m | -27.1m/s | -50.8°C | 1.1% | 23.1hPa | 2.7V | 08:27:46 | 01:48:56 | 00:00:00 | |
| DO2SHX-10 | 2026-08-31 12:39:24 | 54.48180 | 14.15849 | 84° | 15km/h | 26022m | -26.5m/s | -50.9°C | 4.1% | 23.1hPa | 2.6V | 00:00:00 | 01:48:57 | 00:00:00 | |
| DL1XH-15 | 2026-08-31 12:39:23 | 54.48179 | 14.15832 | 93° | 11km/h | 26102m | -26.9m/s | -50.7°C | 4.1% | 22.9hPa | 2.6V | 08:27:40 | 01:48:54 | 00:00:00 | |
| DL1XH-west | 2026-08-31 12:39:21 | 54.48179 | 14.15832 | 93° | 11km/h | 26102m | -26.9m/s | -50.7°C | 1.1% | 22.9hPa | 2.6V | 08:27:46 | 01:48:54 | 00:00:00 | |
| DF8AY | 2026-08-31 12:39:18 | 54.48172 | 14.15827 | 350° | 9km/h | 26239m | -26.7m/s | -50.2°C | 1.1% | 22.5hPa | 2.6V | 08:28:37 | 01:48:49 | 00:00:00 | |
| SONDE2-11 | 2026-08-31 12:39:17 | 54.48172 | 14.15827 | 350° | 9km/h | 26239m | -26.7m/s | -50.2°C | 1.2% | 22.5hPa | 2.7V | 00:00:00 | 00:00:00 | 00:00:00 | |
| EDDB2-12 | 2026-08-31 12:39:16 | 54.48169 | 14.15827 | 352° | 13km/h | 26265m | -26.2m/s | -50.2°C | 1.2% | 22.3hPa | 2.7V | 00:00:00 | 00:00:00 | 00:00:00 | |
| S3001 | 2026-08-31 12:39:15 | 54.48166 | 14.15828 | 338° | 11km/h | 26291m | -26.6m/s | -50.1°C | 1.2% | 22.2hPa | 2.7V | 00:00:00 | 00:00:00 | 00:00:00 | |
| DL1XH-15 | 2026-08-31 12:39:14 | 54.48158 | 14.15828 | 13° | 11km/h | 26369m | -26.4m/s | -49.8°C | 3.8% | 22hPa | 2.7V | 08:27:50 | 01:48:44 | 00:00:00 | |
| DL4BBY-15 | 2026-08-31 12:39:14 | 54.48166 | 14.15828 | 339° | 15km/h | 26291m | -26.6m/s | 0°C | 0% | 0hPa | 2.6V | 00:00:00 | 00:00:00 | 00:00:00 | |
| DL1XH1-15 | 2026-08-31 12:39:13 | 54.48152 | 14.15821 | 64° | 11km/h | 26444m | -23.9m/s | -49.7°C | 3.9% | 21.7hPa | 2.6V | 08:27:53 | 01:48:41 | 00:00:00 | |
| AA1-15 | 2026-08-31 12:39:13 | 54.48161 | 14.15829 | 4° | 13km/h | 26342m | -26.1m/s | -49.9°C | 1% | 22.1hPa | 2.7V | 08:28:37 | 01:48:45 | 00:00:00 | |
| DL1XH-west | 2026-08-31 12:39:10 | 54.48156 | 14.15827 | 36° | 9km/h | 26395m | -25.8m/s | -49.8°C | 1% | 21.9hPa | 2.6V | 08:28:37 | 01:48:43 | 00:00:00 | |
| DO2SHX-10 | 2026-08-31 12:39:09 | 54.48154 | 14.15825 | 39° | 11km/h | 26421m | -25.2m/s | -49.7°C | 3.9% | 21.7hPa | 2.6V | 00:00:00 | 01:48:42 | 00:00:00 | |
| SP3WXH-11 | 2026-08-31 12:39:07 | 54.48149 | 14.15812 | 69° | 13km/h | 26497m | -28.1m/s | -49.5°C | 1.2% | 21.6hPa | 2.7V | 00:00:00 | 00:00:00 | 00:00:00 | |
| DO2SHX-10 | 2026-08-31 12:39:06 | 54.48149 | 14.15812 | 70° | 13km/h | 26497m | -28.1m/s | -49.5°C | 3.8% | 21.5hPa | 2.7V | 00:00:00 | 01:48:39 | 00:00:00 | |
| MECKS9 | 2026-08-31 12:39:04 | 54.48147 | 14.15807 | 57° | 15km/h | 26524m | -27.6m/s | -49.4°C | 1.2% | 21.5hPa | 2.7V | 00:00:00 | 00:00:00 | 00:00:00 | |
| DL1XH-15 | 2026-08-31 12:39:03 | 54.48141 | 14.15786 | 72° | 20km/h | 26631m | -29m/s | -49°C | 3.7% | 21.1hPa | 2.7V | 08:28:00 | 01:48:34 | 00:00:00 | |
| AA1-15 | 2026-08-31 12:39:03 | 54.48141 | 14.15786 | 73° | 20km/h | 26631m | -29m/s | -49°C | 0.9% | 21.1hPa | 2.7V | 08:28:37 | 01:48:34 | 00:00:00 | |
| DO2SHX-10 | 2026-08-31 12:39:03 | 54.48143 | 14.15798 | 59° | 16km/h | 26576m | -24.4m/s | -49.2°C | 3.8% | 21.2hPa | 2.7V | 00:00:00 | 01:48:36 | 00:00:00 | |
| DL1XH1-15 | 2026-08-31 12:39:02 | 54.48138 | 14.15761 | 90° | 22km/h | 26715m | -26.5m/s | -48.8°C | 3.6% | 20.9hPa | 2.7V | 08:28:03 | 01:48:31 | 00:00:00 | |
| DL1XH-west | 2026-08-31 12:39:00 | 54.48140 | 14.15778 | 74° | 20km/h | 26660m | -27.6m/s | -48.9°C | 0.9% | 21.1hPa | 2.6V | 08:28:37 | 01:48:33 | 00:00:00 | |
| DO2SHX-10 | 2026-08-31 12:39:00 | 54.48140 | 14.15778 | 74° | 20km/h | 26660m | -27.6m/s | -48.9°C | 3.7% | 21.0hPa | 2.6V | 00:00:00 | 01:48:33 | 00:00:00 | |
| DO2SHX-10 | 2026-08-31 12:38:57 | 54.48138 | 14.15753 | 91° | 20km/h | 26742m | -27.0m/s | -48.6°C | 3.6% | 20.7hPa | 2.6V | 00:00:00 | 01:48:30 | 00:00:00 | |
| DO2SHX-10 | 2026-08-31 12:38:54 | 54.48143 | 14.15729 | 123° | 18km/h | 26825m | -28.1m/s | -48.5°C | 3.6% | 20.5hPa | 2.6V | 00:00:00 | 01:48:27 | 00:00:00 | |
| DL1XH-15 | 2026-08-31 12:38:53 | 54.48152 | 14.15711 | 141° | 16km/h | 26911m | -27.5m/s | -48.4°C | 3.6% | 20.3hPa | 2.6V | 08:28:10 | 01:48:24 | 00:00:00 | |
| DL1XH1-15 | 2026-08-31 12:38:52 | 54.48162 | 14.15703 | 165° | 15km/h | 26994m | -27.6m/s | -48.3°C | 3.5% | 20hPa | 2.7V | 08:28:13 | 01:48:21 | 00:00:00 | |
| DF8AY | 2026-08-31 12:38:51 | 54.48155 | 14.15707 | 155° | 16km/h | 26939m | -27.7m/s | -48.4°C | 0.8% | 20.1hPa | 2.6V | 08:28:37 | 01:48:23 | 00:00:00 | |
| DL1XH-west | 2026-08-31 12:38:49 | 54.48159 | 14.15705 | 157° | 13km/h | 26966m | -27.4m/s | -48.3°C | 0.7% | 20.1hPa | 2.6V | 08:28:37 | 01:48:22 | 00:00:00 | |
| SONDE2-11 | 2026-08-31 12:38:46 | 54.48170 | 14.15700 | 167° | 9km/h | 27076m | -26.8m/s | -48.2°C | 1.1% | 19.8hPa | 2.6V | 00:00:00 | 00:00:00 | 00:00:00 | |
| DM0DOS-11 | 2026-08-31 12:38:45 | 54.48172 | 14.15700 | 190° | 5km/h | 27103m | -26.3m/s | -48.1°C | 3.5% | 19.7hPa | 2.6V | 08:28:17 | 01:48:17 | 00:00:00 | |
| EDDB2-12 | 2026-08-31 12:38:45 | 54.48172 | 14.15700 | 190° | 4km/h | 27103m | -26.3m/s | -48.1°C | 1.1% | 19.7hPa | 2.7V | 00:00:00 | 00:00:00 | 00:00:00 | |
| DL1XH-15 | 2026-08-31 12:38:42 | 54.48173 | 14.15697 | 23° | 4km/h | 27184m | -26m/s | -47.9°C | 3.4% | 19.4hPa | 2.7V | 08:28:20 | 01:48:14 | 00:00:00 | |
| DO2SHX-10 | 2026-08-31 12:38:42 | 54.48173 | 14.15698 | 108° | 4km/h | 27157m | -28.2m/s | -47.9°C | 3.4% | 19.4hPa | 2.7V | 00:00:00 | 01:48:15 | 00:00:00 | |
| DL1XH1-15 | 2026-08-31 12:38:41 | 54.48168 | 14.15692 | 27° | 11km/h | 27267m | -28.1m/s | -48°C | 3.4% | 19.2hPa | 2.6V | 08:28:23 | 01:48:11 | 00:00:00 | |
| AA1-15 | 2026-08-31 12:38:41 | 54.48173 | 14.15697 | 23° | 4km/h | 27184m | -26m/s | -47.9°C | 0.7% | 19.4hPa | 2.7V | 08:28:37 | 01:48:14 | 00:00:00 | |
| DF8AY | 2026-08-31 12:38:39 | 54.48170 | 14.15695 | 33° | 7km/h | 27238m | -28.7m/s | -48°C | 0.6% | 19.3hPa | 2.6V | 08:28:37 | 01:48:12 | 00:00:00 | |
| DM0DOS-11 | 2026-08-31 12:38:39 | 54.48154 | 14.15684 | 15° | 18km/h | 27384m | -27.6m/s | -48.2°C | 3.6% | 18.9hPa | 2.6V | 08:28:27 | 01:48:07 | 00:00:00 | |
| DL1XH-west | 2026-08-31 12:38:38 | 54.48168 | 14.15692 | 27° | 11km/h | 27267m | -28.2m/s | -48°C | 0.7% | 19.2hPa | 2.6V | 08:28:37 | 01:48:11 | 00:00:00 | |
| SP3WXH-11 | 2026-08-31 12:38:36 | 54.48158 | 14.15686 | 20° | 15km/h | 27355m | -28.4m/s | -48.1°C | 1.1% | 18.9hPa | 2.7V | 00:00:00 | 00:00:00 | 00:00:00 | |
| DO2SHX-10 | 2026-08-31 12:38:33 | 54.48150 | 14.15682 | 10° | 15km/h | 27412m | -28.0m/s | -48.2°C | 3.6% | 18.7hPa | 2.7V | 00:00:00 | 01:48:06 | 00:00:00 | |
| DB0NH | 2026-08-31 12:38:32 | 54.48146 | 14.15680 | 13° | 16km/h | 27440m | -26.6m/s | -48.3°C | 3.6% | 18.6hPa | 2.7V | 08:28:00 | 01:48:05 | 00:00:00 | |
| DL1XH1-15 | 2026-08-31 12:38:31 | 54.48137 | 14.15668 | 65° | 15km/h | 27542m | -27.8m/s | -48.1°C | 3.6% | 18.4hPa | 2.7V | 08:28:33 | 01:48:01 | 00:00:00 | |
| AA1-15 | 2026-08-31 12:38:31 | 54.48140 | 14.15676 | 31° | 11km/h | 27489m | -24.5m/s | -48.3°C | 0.8% | 18.5hPa | 2.6V | 08:28:37 | 01:48:03 | 00:00:00 | |
| DL1XH-west | 2026-08-31 12:38:27 | 54.48135 | 14.15663 | 62° | 13km/h | 27569m | -26.2m/s | -48.1°C | 0.8% | 18.3hPa | 2.7V | 08:28:37 | 01:48:00 | 00:00:00 | |
| DF8AY | 2026-08-31 12:38:26 | 54.48125 | 14.15622 | 60° | 16km/h | 27731m | -27.7m/s | -48°C | 0.8% | 17.9hPa | 2.7V | 18:12:15 | 01:47:54 | 00:00:00 | |
| DO2SHX-10 | 2026-08-31 12:38:24 | 54.48131 | 14.15643 | 74° | 18km/h | 27649m | -28.4m/s | -48.0°C | 3.6% | 18.0hPa | 2.6V | 08:28:00 | 01:47:57 | 00:00:00 | |
| DL1XH1-15 | 2026-08-31 12:38:21 | 54.48118 | 14.15604 | 53° | 13km/h | 27817m | -28.6m/s | -48.1°C | 3.6% | 17.6hPa | 2.6V | 08:28:43 | 01:47:51 | 00:00:00 | |
| AA1-15 | 2026-08-31 12:38:21 | 54.48123 | 14.15616 | 60° | 18km/h | 27759m | -28.6m/s | -48°C | 0.8% | 17.8hPa | 2.6V | 08:29:28 | 01:47:53 | 00:00:00 | |
| DM0DOS-11 | 2026-08-31 12:38:18 | 54.48114 | 14.15584 | 78° | 11km/h | 27929m | -25.3m/s | -47.7°C | 3.6% | 17.3hPa | 2.6V | 08:28:47 | 01:47:47 | 00:00:00 | |
| DL1XH-west | 2026-08-31 12:38:16 | 54.48115 | 14.15594 | 72° | 13km/h | 27873m | -29.2m/s | -48°C | 0.8% | 17.5hPa | 2.7V | 08:29:28 | 01:47:49 | 00:00:00 | |
| SONDE2-11 | 2026-08-31 12:38:15 | 54.48114 | 14.15584 | 78° | 9km/h | 27929m | -25.3m/s | -47.7°C | 1.1% | 17.3hPa | 2.7V | 00:00:00 | 00:00:00 | 00:00:00 | |
| DL1XH-15 | 2026-08-31 12:38:12 | 54.48111 | 14.15572 | 61° | 13km/h | 28011m | -29.6m/s | -47.1°C | 3.5% | 17.1hPa | 2.7V | 08:28:50 | 01:47:44 | 00:00:00 | |
| DL1XH1-15 | 2026-08-31 12:38:12 | 54.48103 | 14.15547 | 58° | 24km/h | 28121m | -27.3m/s | -46.6°C | 3.4% | 16.9hPa | 2.7V | 08:28:54 | 01:47:40 | 00:00:00 | |
| DF8AY | 2026-08-31 12:38:11 | 54.48092 | 14.15517 | 59° | 31km/h | 28200m | -27.6m/s | -46.6°C | 0.6% | 16.6hPa | 2.6V | 18:12:15 | 01:47:37 | 00:00:00 | |
| AA1-15 | 2026-08-31 12:38:10 | 54.48108 | 14.15561 | 56° | 16km/h | 28067m | -27.4m/s | -46.9°C | 0.7% | 17hPa | 2.6V | 08:29:28 | 01:47:42 | 00:00:00 | |
| DO2SHX-10 | 2026-08-31 12:38:09 | 54.48108 | 14.15561 | 56° | 20km/h | 28067m | -27.3m/s | -46.8°C | 3.5% | 16.9hPa | 2.6V | 00:00:00 | 01:47:42 | 00:00:00 | |
| DM0DOS-11 | 2026-08-31 12:38:08 | 54.48092 | 14.15517 | 59° | 31km/h | 28200m | -27.6m/s | -46.6°C | 3.4% | 16.6hPa | 2.6V | 08:28:57 | 01:47:37 | 00:00:00 | |
| DL1XH-west | 2026-08-31 12:38:06 | 54.48099 | 14.15538 | 53° | 26km/h | 28148m | -25.7m/s | -46.5°C | 0.6% | 16.8hPa | 2.7V | 08:29:28 | 01:47:39 | 00:00:00 | |
| SP3WXH-11 | 2026-08-31 12:38:05 | 54.48092 | 14.15517 | 59° | 31km/h | 28200m | -27.6m/s | -46.6°C | 1.0% | 16.6hPa | 2.7V | 00:00:00 | 00:00:00 | 00:00:00 | |
| DL1XH-15 | 2026-08-31 12:38:02 | 54.48085 | 14.15478 | 80° | 33km/h | 28287m | -29.9m/s | -46.5°C | 3.3% | 16.4hPa | 2.7V | 08:29:00 | 01:47:34 | 00:00:00 | |
| DB0NH | 2026-08-31 12:38:02 | 54.48086 | 14.15492 | 79° | 24km/h | 28257m | -31.3m/s | -46.6°C | 3.3% | 16.4hPa | 2.6V | 00:00:00 | 01:47:35 | 00:00:00 | |
| DL1XH1-15 | 2026-08-31 12:38:01 | 54.48083 | 14.15427 | 95° | 27km/h | 28398m | -28.1m/s | -45.7°C | 3.1% | 16.2hPa | 2.6V | 08:29:04 | 01:47:30 | 00:00:00 | |
| DF8AY | 2026-08-31 12:38:01 | 54.48085 | 14.15478 | 81° | 33km/h | 28287m | -29.9m/s | -46.5°C | 0.6% | 16.4hPa | 2.7V | 18:12:15 | 01:47:34 | 00:00:00 | |
| AA1-15 | 2026-08-31 12:37:58 | 54.48083 | 14.15438 | 91° | 27km/h | 28372m | -26.1m/s | -45.9°C | 0.5% | 16.2hPa | 2.6V | 08:29:28 | 01:47:31 | 00:00:00 | |
| DL1XH-west | 2026-08-31 12:37:55 | 54.48086 | 14.15406 | 103° | 22km/h | 28460m | -30.1m/s | -45.8°C | 0.5% | 16hPa | 2.7V | 08:29:28 | 01:47:28 | 00:00:00 | |
| DO2SHX-10 | 2026-08-31 12:37:54 | 54.48088 | 14.15397 | 110° | 20km/h | 28490m | -28.6m/s | -45.8°C | 3.1% | 15.9hPa | 2.7V | 00:00:00 | 01:47:27 | 00:00:00 | |
| DL1XH-15 | 2026-08-31 12:37:52 | 54.48092 | 14.15372 | 94° | 18km/h | 28578m | -30.2m/s | -46.1°C | 3.1% | 15.7hPa | 2.7V | 08:29:10 | 01:47:24 | 00:00:00 | |
| AA1-15 | 2026-08-31 12:37:47 | 54.48092 | 14.15336 | 83° | 22km/h | 28697m | -28m/s | -46.5°C | 0.6% | 15.4hPa | 2.7V | 08:29:28 | 01:47:20 | 00:00:00 | |
| DL1XH-15 | 2026-08-31 12:37:46 | 54.48095 | 14.15280 | 104° | 20km/h | 28876m | -30.6m/s | -46.5°C | 3.4% | 15.1hPa | 2.7V | 08:29:20 | 01:47:14 | 00:00:00 | |
| DM0DOS-11 | 2026-08-31 12:37:45 | 54.48092 | 14.15307 | 99° | 24km/h | 28785m | -30.7m/s | -46.5°C | 3.4% | 15.2hPa | 2.6V | 08:29:17 | 01:47:17 | 00:00:00 | |
| DL1XH-west | 2026-08-31 12:37:45 | 54.48091 | 14.15317 | 91° | 20km/h | 28756m | -29.5m/s | -46.6°C | 0.7% | 15.3hPa | 2.7V | 08:29:28 | 01:47:18 | 00:00:00 | |
| EDDB2-12 | 2026-08-31 12:37:43 | 54.48093 | 14.15289 | 100° | 18km/h | 28846m | -31.0m/s | -46.5°C | 1.0% | 15.1hPa | 2.7V | 00:00:00 | 00:00:00 | 00:00:00 | |
| S3001 | 2026-08-31 12:37:42 | 54.48094 | 14.15280 | 104° | 20km/h | 28876m | -30.6m/s | -46.5°C | 1.1% | 15.1hPa | 2.7V | 00:00:00 | 00:00:00 | 00:00:00 | |
| DM0DOS-11 | 2026-08-31 12:37:39 | 54.48083 | 14.15211 | 65° | 22km/h | 29129m | -31.3m/s | -46.9°C | 3.7% | 14.5hPa | 2.7V | 08:29:28 | 01:47:06 | 00:00:00 | |
| DL1XH1-15 | 2026-08-31 12:37:39 | 54.48093 | 14.15246 | 64° | 22km/h | 29002m | -33.3m/s | -46.8°C | 3.6% | 14.8hPa | 2.6V | 08:29:24 | 01:47:10 | 00:00:00 | |
| BIOWL1-15 | 2026-08-31 12:37:39 | 54.48095 | 14.15264 | 94° | 20km/h | 28937m | -30.4m/s | -46.6°C | 0.7% | 14.9hPa | 2.7V | 18:12:15 | 01:47:12 | 00:00:00 | |
| DO2SHX-10 | 2026-08-31 12:37:39 | 54.48095 | 14.15264 | 94° | 22km/h | 28937m | -30.3m/s | -46.5°C | 3.4% | 14.8hPa | 2.7V | 00:00:00 | 01:47:12 | 00:00:00 | |
| DL1XH-15 | 2026-08-31 12:37:36 | 54.48081 | 14.15191 | 86° | 24km/h | 29190m | -31.4m/s | -46.8°C | 3.7% | 14.3hPa | 2.6V | 08:30:00 | 01:47:04 | 00:00:00 | |
| AA1-15 | 2026-08-31 12:37:36 | 54.48082 | 14.15201 | 83° | 24km/h | 29159m | -29.8m/s | -46.9°C | 0.8% | 14.4hPa | 2.6V | 18:12:15 | 01:47:05 | 00:00:00 | |
| DL1XH-west | 2026-08-31 12:37:35 | 54.48085 | 14.15220 | 67° | 24km/h | 29097m | -32.7m/s | -46.9°C | 0.8% | 14.5hPa | 2.7V | 08:29:28 | 01:47:07 | 00:00:00 | |
| DF8AY | 2026-08-31 12:37:27 | 54.48086 | 14.15148 | 113° | 27km/h | 29315m | -32.8m/s | -45.7°C | 0.7% | 14.1hPa | 2.7V | 18:12:15 | 01:47:00 | 00:00:00 | |
| DO2SHX-10 | 2026-08-31 12:37:27 | 54.48086 | 14.15148 | 113° | 26km/h | 29316m | -32.8m/s | -45.6°C | 3.4% | 14.0hPa | 2.6V | 00:00:00 | 01:47:00 | 00:00:00 | |
| DL1XH-15 | 2026-08-31 12:37:26 | 54.48093 | 14.15101 | 75° | 11km/h | 29506m | -32.5m/s | -44.8°C | 3.3% | 13.7hPa | 2.6V | 08:30:00 | 01:46:54 | 00:00:00 | |
| DL1XH-west | 2026-08-31 12:37:24 | 54.48092 | 14.15119 | 110° | 16km/h | 29411m | -32.5m/s | -45.2°C | 0.6% | 13.9hPa | 2.7V | 18:12:15 | 01:46:57 | 00:00:00 | |
| DM0DOS-11 | 2026-08-31 12:37:23 | 54.48093 | 14.15113 | 98° | 16km/h | 29443m | -31.4m/s | -45°C | 3.3% | 13.8hPa | 2.7V | 08:30:00 | 01:46:56 | 00:00:00 | |
| DF8AY | 2026-08-31 12:37:17 | 54.48090 | 14.15077 | 82° | 18km/h | 29634m | -34.5m/s | -43.6°C | 0.3% | 13.4hPa | 2.6V | 18:12:15 | 01:46:50 | 00:00:00 | |
| BIOWL1-15 | 2026-08-31 12:37:17 | 54.48087 | 14.15033 | 100° | 22km/h | 29797m | -29.6m/s | -43.8°C | 0.3% | 13.1hPa | 2.7V | 18:12:15 | 01:46:45 | 00:00:00 | |
| DL1XH-15 | 2026-08-31 12:37:16 | 54.48088 | 14.15023 | 106° | 26km/h | 29828m | -34.1m/s | -43.9°C | 3% | 13hPa | 2.6V | 08:30:00 | 01:46:44 | 00:00:00 | |
| DL1XH-west | 2026-08-31 12:37:13 | 54.48087 | 14.15042 | 82° | 22km/h | 29767m | -30.3m/s | -43.7°C | 0.3% | 13.1hPa | 2.7V | 18:12:15 | 01:46:46 | 00:00:00 | |
| DF8AY | 2026-08-31 12:37:06 | 54.48133 | 14.14949 | 157° | 18km/h | 30209m | -27.5m/s | -43.1°C | 0.2% | 12.3hPa | 2.6V | 18:12:15 | 01:46:31 | 00:00:00 | |
| DL1XH-15 | 2026-08-31 12:37:06 | 54.48122 | 14.14958 | 152° | 15km/h | 30125m | -28.1m/s | -43.3°C | 2.9% | 12.4hPa | 2.7V | 08:30:00 | 01:46:34 | 00:00:00 | |
| DL1XH-west | 2026-08-31 12:37:02 | 54.48119 | 14.14960 | 156° | 13km/h | 30097m | -29m/s | -43.5°C | 0.3% | 12.5hPa | 2.7V | 18:12:15 | 01:46:35 | 00:00:00 | |
| BIOWL1-15 | 2026-08-31 12:36:57 | 54.48151 | 14.14944 | 179° | 29km/h | 30287m | -28.6m/s | -43.1°C | 0.2% | 12.2hPa | 2.6V | 18:12:15 | 01:46:28 | 00:00:00 | |
| DO2SHX-10 | 2026-08-31 12:36:57 | 54.48138 | 14.14946 | 165° | 26km/h | 30235m | -23.9m/s | -42.9°C | 2.9% | 12.2hPa | 2.6V | 00:00:00 | 01:46:30 | 00:00:00 | |
| DM0DOS-11 | 2026-08-31 12:36:55 | 54.48169 | 14.14951 | 304° | 5km/h | 30482m | -42.9m/s | -43.4°C | 3% | 11.9hPa | 2.6V | 08:30:00 | 01:46:23 | 00:00:00 | |
| DF8AY | 2026-08-31 12:36:54 | 54.48163 | 14.14945 | 186° | 20km/h | 30357m | -37.5m/s | -43.3°C | 0.4% | 12.1hPa | 2.7V | 18:12:15 | 01:46:26 | 00:00:00 | |
| DO2SHX-10 | 2026-08-31 12:36:54 | 54.48158 | 14.14945 | 181° | 20km/h | 30320m | -37.1m/s | -43.1°C | 2.9% | 12.1hPa | 2.6V | 00:00:00 | 01:46:27 | 00:00:00 | |
| DL1XH-15 | 2026-08-31 12:36:53 | 54.48169 | 14.14949 | 232° | 7km/h | 30438m | -43.4m/s | -43.4°C | 3% | 11.9hPa | 2.6V | 08:30:00 | 01:46:24 | 00:00:00 | |
| AA1-15 | 2026-08-31 12:36:52 | 54.48167 | 14.14947 | 195° | 13km/h | 30396m | -40.3m/s | -43.4°C | 0.4% | 12hPa | 2.7V | 18:12:15 | 01:46:25 | 00:00:00 | |
| DL1XH-west | 2026-08-31 12:36:51 | 54.48169 | 14.14949 | 233° | 7km/h | 30438m | -43.4m/s | -43.4°C | 0.4% | 12hPa | 2.6V | 18:12:15 | 01:46:24 | 00:00:00 | |
| DO2SHX-10 | 2026-08-31 12:36:51 | 54.48169 | 14.14949 | 233° | 5km/h | 30439m | -43.3m/s | -43.3°C | 3.0% | 11.9hPa | 2.7V | 00:00:00 | 01:46:24 | 00:00:00 | |
| DL1XH1-15 | 2026-08-31 12:36:50 | 54.48164 | 14.14951 | 28° | 11km/h | 30611m | -42.5m/s | -43.8°C | 3% | 11.6hPa | 2.7V | 08:30:00 | 01:46:20 | 00:00:00 | |
| BIOWL1-15 | 2026-08-31 12:36:47 | 54.48158 | 14.14940 | 57° | 22km/h | 30703m | -50m/s | 0°C | 0% | 11.5hPa | 2.6V | 18:12:15 | 01:46:18 | 00:00:00 | |
| AA1-15 | 2026-08-31 12:36:42 | 54.48149 | 14.14914 | 51° | 24km/h | 30847m | -44.6m/s | -43.6°C | 0.3% | 11.2hPa | 2.7V | 18:12:15 | 01:46:15 | 00:00:00 | |
| DM0DOS-11 | 2026-08-31 12:36:41 | 54.48142 | 14.14896 | 63° | 22km/h | 30932m | -41.9m/s | -43.6°C | 2.9% | 11.1hPa | 2.6V | 08:30:00 | 01:46:13 | 00:00:00 | |
| DL1XH1-15 | 2026-08-31 12:36:40 | 54.48140 | 14.14881 | 107° | 4km/h | 31069m | -46.5m/s | -42.3°C | 2.6% | 10.9hPa | 2.7V | 08:30:00 | 01:46:10 | 00:00:00 | |
| DL1XH-west | 2026-08-31 12:36:40 | 54.48142 | 14.14896 | 63° | 22km/h | 30932m | -41.9m/s | -43.6°C | 0.3% | 11.1hPa | 2.6V | 18:12:15 | 01:46:13 | 00:00:00 | |
| DO2SHX-10 | 2026-08-31 12:36:39 | 54.48140 | 14.14888 | 74° | 9km/h | 30976m | -44.3m/s | -43.2°C | 2.8% | 11.0hPa | 2.7V | 00:00:00 | 01:46:12 | 00:00:00 | |
| DO2SHX-10 | 2026-08-31 12:36:36 | 54.48140 | 14.14880 | 159° | 5km/h | 31114m | -42.1m/s | -42.0°C | 2.7% | 10.8hPa | 2.7V | 00:00:00 | 01:46:09 | 08:30:00 | |
| AA1-15 | 2026-08-31 12:36:32 | 54.48145 | 14.14879 | 185° | 5km/h | 31216m | -7.9m/s | -41.3°C | 0.1% | 10.5hPa | 2.6V | 18:12:15 | 01:46:05 | 00:00:00 | |
| DM0DOS-11 | 2026-08-31 12:36:31 | 54.48148 | 14.14880 | 200° | 7km/h | 31212m | 13m/s | -41.6°C | 2.7% | 10.5hPa | 2.7V | 08:30:00 | 01:46:03 | 00:00:00 | |
| DL1XH1-15 | 2026-08-31 12:36:30 | 54.48149 | 14.14871 | 67° | 13km/h | 31189m | 7.5m/s | -41.7°C | 2.6% | 10.6hPa | 2.6V | 08:30:00 | 01:46:00 | 00:00:00 | |
| DL1XH-west | 2026-08-31 12:36:29 | 54.48150 | 14.14879 | 112° | 7km/h | 31202m | 5.7m/s | -41.6°C | 0.1% | 10.5hPa | 2.7V | 18:12:15 | 01:46:02 | 00:00:00 | |
| DO2SHX-10 | 2026-08-31 12:36:29 | 54.48149 | 14.14879 | 113° | 9km/h | 31203m | 5.7m/s | -41.6°C | 2.7% | 10.5hPa | 2.6V | 00:00:00 | 01:46:02 | 00:00:00 | |
| EDDB2-11 | 2026-08-31 12:36:27 | 54.48149 | 14.14871 | 67° | 11km/h | 31190m | 7.5m/s | -41.7°C | 0.8% | 10.6hPa | 2.6V | 00:00:00 | 00:00:00 | 00:00:00 | |
| DO2SHX-10 | 2026-08-31 12:36:26 | 54.48147 | 14.14866 | 63° | 18km/h | 31183m | 6.6m/s | -41.7°C | 2.6% | 10.5hPa | 2.6V | 00:00:00 | 01:45:59 | 00:00:00 | |
| DM0DOS-11 | 2026-08-31 12:36:25 | 54.48149 | 14.14814 | 110° | 16km/h | 31143m | 7.3m/s | -42.1°C | 2.6% | 10.6hPa | 2.6V | 08:30:00 | 01:45:53 | 00:00:00 | |
| AA1-15 | 2026-08-31 12:36:22 | 54.48147 | 14.14822 | 110° | 22km/h | 31150m | 5.6m/s | -42°C | 0.1% | 10.6hPa | 2.7V | 18:12:15 | 01:45:54 | 00:00:00 | |
| DO2SHX-10 | 2026-08-31 12:36:20 | 54.48149 | 14.14814 | 111° | 11km/h | 31144m | 7.2m/s | -42.1°C | 2.6% | 10.6hPa | 2.7V | 00:00:00 | 01:45:53 | 00:00:00 | |
| DL1XH1-15 | 2026-08-31 12:36:19 | 54.48149 | 14.14803 | 48° | 5km/h | 31123m | 5.9m/s | -42.4°C | 2.7% | 10.7hPa | 2.7V | 08:30:00 | 01:45:50 | 00:00:00 | |
| DL1XH-west | 2026-08-31 12:36:18 | 54.48150 | 14.14805 | 72° | 5km/h | 31130m | 6m/s | -42.4°C | 0.1% | 10.7hPa | 2.7V | 18:12:15 | 01:45:51 | 00:00:00 | |
| DO2SHX-10 | 2026-08-31 12:36:17 | 54.48149 | 14.14803 | 49° | 7km/h | 31124m | 5.9m/s | -42.4°C | 2.7% | 10.6hPa | 2.6V | 00:00:00 | 01:45:50 | 00:00:00 | |
| DO2SHX-10 | 2026-08-31 12:36:14 | 54.48147 | 14.14792 | 80° | 15km/h | 31104m | 6.2m/s | -42.3°C | 2.7% | 10.7hPa | 2.6V | 00:00:00 | 01:45:47 | 00:00:00 | |
| DL1XH-15 | 2026-08-31 12:36:11 | 54.48136 | 14.14729 | 83° | 26km/h | 31050m | 5.2m/s | -43.1°C | 2.8% | 10.8hPa | 2.7V | 08:30:00 | 01:45:39 | 00:00:00 | |
| BIOWL1-15 | 2026-08-31 12:36:11 | 54.48143 | 14.14774 | 62° | 16km/h | 31084m | 7.5m/s | 0°C | 0% | 10.7hPa | 2.7V | 18:12:15 | 01:45:44 | 00:00:00 | |
| AA1-15 | 2026-08-31 12:36:11 | 54.48141 | 14.14768 | 62° | 18km/h | 31077m | 6.7m/s | -42.8°C | 0.2% | 10.7hPa | 2.7V | 18:12:15 | 01:45:43 | 00:00:00 | |
| SONDE2-11 | 2026-08-31 12:36:10 | 54.48141 | 14.14768 | 62° | 18km/h | 31077m | 6.7m/s | -42.8°C | 0.9% | 10.7hPa | 2.6V | 00:00:00 | 00:00:00 | 00:00:00 | |
| DL1XH1-15 | 2026-08-31 12:36:08 | 54.48137 | 14.14740 | 82° | 26km/h | 31056m | 6.7m/s | -43.1°C | 2.8% | 10.8hPa | 2.6V | 08:30:00 | 01:45:40 | 00:00:00 | |
| DL1XH-west | 2026-08-31 12:36:08 | 54.48138 | 14.14751 | 77° | 24km/h | 31063m | 7.8m/s | -43°C | 0.2% | 10.8hPa | 2.6V | 18:12:15 | 01:45:41 | 00:00:00 | |
| DF8AY | 2026-08-31 12:36:08 | 54.48136 | 14.14740 | 83° | 26km/h | 31056m | 6.7m/s | -43.1°C | 0.2% | 10.8hPa | 2.6V | 18:12:15 | 01:45:40 | 00:00:00 | |
| DO2SHX-10 | 2026-08-31 12:36:08 | 54.48138 | 14.14751 | 77° | 26km/h | 31064m | 7.8m/s | -43.0°C | 2.8% | 10.7hPa | 2.7V | 00:00:00 | 01:45:41 | 00:00:00 | |
| DO2SHX-10 | 2026-08-31 12:36:05 | 54.48135 | 14.14719 | 79° | 18km/h | 31045m | 6.3m/s | -43.0°C | 2.8% | 10.8hPa | 2.7V | 00:00:00 | 01:45:38 | 08:30:00 | |
| DL1XH1-15 | 2026-08-31 12:36:03 | 54.48124 | 14.14666 | 106° | 22km/h | 30986m | 6.7m/s | -43.8°C | 2.9% | 10.9hPa | 2.6V | 08:30:00 | 01:45:29 | 00:00:00 | |
| DM0DOS-11 | 2026-08-31 12:36:01 | 54.48123 | 14.14695 | 51° | 13km/h | 31013m | 7.1m/s | -43.3°C | 2.7% | 10.8hPa | 2.7V | 08:30:00 | 01:45:33 | 00:00:00 | |
| AA1-15 | 2026-08-31 12:36:00 | 54.48122 | 14.14683 | 99° | 18km/h | 30999m | 6.9m/s | -43.7°C | 0.2% | 10.9hPa | 2.7V | 18:12:15 | 01:45:31 | 00:00:00 | |
| DL1XH-west | 2026-08-31 12:35:57 | 54.48123 | 14.14674 | 106° | 22km/h | 30993m | 6.2m/s | -43.7°C | 0.3% | 10.9hPa | 2.6V | 18:12:15 | 01:45:30 | 00:00:00 | |
| BIOWL1-15 | 2026-08-31 12:35:56 | 54.48126 | 14.14657 | 104° | 18km/h | 30979m | 7.4m/s | 0°C | 0% | 10.9hPa | 2.7V | 18:12:15 | 01:45:28 | 00:00:00 | |
| DM0DOS-11 | 2026-08-31 12:35:55 | 54.48129 | 14.14618 | 90° | 20km/h | 30945m | 5.7m/s | -43.8°C | 2.9% | 11hPa | 2.7V | 08:30:00 | 01:45:23 | 00:00:00 | |
| DF8AY | 2026-08-31 12:35:47 | 54.48119 | 14.14589 | 48° | 22km/h | 30918m | 5.5m/s | -44°C | 0.4% | 11hPa | 2.7V | 18:12:15 | 01:45:19 | 00:00:00 | |
| DL1XH-west | 2026-08-31 12:35:47 | 54.48123 | 14.14596 | 47° | 20km/h | 30924m | 6.9m/s | -44.1°C | 0.4% | 11hPa | 2.7V | 18:12:15 | 01:45:20 | 00:00:00 | |
| BIOWL1-15 | 2026-08-31 12:35:46 | 54.48113 | 14.14573 | 68° | 22km/h | 30905m | 6.8m/s | 0°C | 0% | 11hPa | 2.6V | 18:12:15 | 01:45:17 | 00:00:00 | |
| DM0DOS-11 | 2026-08-31 12:35:44 | 54.48110 | 14.14538 | 58° | 5km/h | 30872m | 7.2m/s | -43.5°C | 2.9% | 11.1hPa | 2.7V | 08:30:00 | 01:45:12 | 00:00:00 | |
| DO2SHX-10 | 2026-08-31 12:35:44 | 54.48113 | 14.14573 | 69° | 22km/h | 30905m | 6.8m/s | -43.8°C | 3.0% | 11.0hPa | 2.6V | 00:00:00 | 01:45:17 | 00:00:00 | |
| DO2SHX-10 | 2026-08-31 12:35:41 | 54.48111 | 14.14547 | 89° | 11km/h | 30888m | 7.0m/s | -43.7°C | 3.0% | 11.0hPa | 2.6V | 00:00:00 | 01:45:14 | 00:00:00 | |
| DL1XH1-15 | 2026-08-31 12:35:40 | 54.48106 | 14.14532 | 60° | 9km/h | 30853m | 7.3m/s | -43.5°C | 2.9% | 11.1hPa | 2.6V | 08:30:00 | 01:45:09 | 00:00:00 | |
| AA1-15 | 2026-08-31 12:35:37 | 54.48108 | 14.14535 | 43° | 7km/h | 30859m | 6m/s | -43.5°C | 0.3% | 11.1hPa | 2.6V | 18:12:15 | 01:45:10 | 00:00:00 | |
| DL1XH-west | 2026-08-31 12:35:36 | 54.48106 | 14.14532 | 61° | 9km/h | 30853m | 7.4m/s | -43.5°C | 0.3% | 11.1hPa | 2.6V | 18:12:15 | 01:45:09 | 00:00:00 | |
| BIOWL1-15 | 2026-08-31 12:35:33 | 54.48098 | 14.14503 | 48° | 15km/h | 30818m | 6.4m/s | 0°C | 0% | 0hPa | 2.6V | 18:12:15 | 01:45:04 | 00:00:00 | |
| DM0DOS-11 | 2026-08-31 12:35:33 | 54.48093 | 14.14493 | 59° | 15km/h | 30805m | 7.5m/s | -43.7°C | 2.9% | 11.2hPa | 2.7V | 08:30:00 | 01:45:02 | 00:00:00 | |
| DF8AY | 2026-08-31 12:35:30 | 54.48071 | 14.14459 | 50° | 11km/h | 30735m | 6.9m/s | -43.9°C | 0.3% | 11.3hPa | 2.6V | 18:12:15 | 01:44:51 | 00:00:00 | |
| DL1XH1-15 | 2026-08-31 12:35:29 | 54.48087 | 14.14476 | 19° | 9km/h | 30778m | 7m/s | -43.7°C | 2.9% | 11.2hPa | 2.6V | 08:30:00 | 01:44:58 | 00:00:00 | |
| DL1XH-west | 2026-08-31 12:35:27 | 54.48089 | 14.14478 | 50° | 9km/h | 30785m | 7.2m/s | -43.8°C | 0.3% | 11.2hPa | 2.6V | 18:12:15 | 01:44:59 | 00:00:00 | |
| EDDB2-11 | 2026-08-31 12:35:25 | 54.48087 | 14.14476 | 19° | 9km/h | 30779m | 7.0m/s | -43.7°C | 0.9% | 11.2hPa | 2.7V | 00:00:00 | 00:00:00 | 00:00:00 | |
| AM1SDL-15 | 2026-08-31 12:35:24 | 54.48084 | 14.14475 | 4° | 11km/h | 30772m | 5.6m/s | -43.8°C | 3.0% | 11.2hPa | 2.7V | 00:00:00 | 01:44:57 | 00:00:00 | |
| DO2SHX-10 | 2026-08-31 12:35:23 | 54.48081 | 14.14475 | 6° | 13km/h | 30767m | 5.2m/s | -43.8°C | 3.0% | 11.2hPa | 2.7V | 00:00:00 | 01:44:56 | 00:00:00 | |
| BIOWL1-15 | 2026-08-31 12:35:21 | 54.48039 | 14.14433 | 94° | 11km/h | 30642m | 5.4m/s | 0°C | 0% | 0hPa | 2.7V | 18:12:15 | 01:44:37 | 00:00:00 | |
| DO2SHX-10 | 2026-08-31 12:35:20 | 54.48074 | 14.14468 | 57° | 11km/h | 30747m | 6.0m/s | -43.6°C | 2.9% | 11.2hPa | 2.7V | 00:00:00 | 01:44:53 | 00:00:00 | |
| DL1XH1-15 | 2026-08-31 12:35:19 | 54.48063 | 14.14456 | 354° | 13km/h | 30714m | 6m/s | -43.8°C | 3% | 11.4hPa | 2.7V | 08:30:00 | 01:44:48 | 00:00:00 | |
| AA1-15 | 2026-08-31 12:35:16 | 54.48063 | 14.14456 | 354° | 13km/h | 30714m | 6m/s | -43.8°C | 0.4% | 11.4hPa | 2.7V | 18:12:15 | 01:44:48 | 00:00:00 | |
| DL1XH-west | 2026-08-31 12:35:16 | 54.48066 | 14.14456 | 359° | 11km/h | 30720m | 6.6m/s | -43.8°C | 0.4% | 11.3hPa | 2.7V | 18:12:15 | 01:44:49 | 00:00:00 | |
| DF8AY | 2026-08-31 12:35:13 | 54.48058 | 14.14456 | 17° | 11km/h | 30701m | 7.5m/s | -44°C | 0.4% | 11.4hPa | 2.6V | 18:12:15 | 01:44:46 | 00:00:00 | |
| AM1SDL-15 | 2026-08-31 12:35:12 | 54.48055 | 14.14454 | 30° | 11km/h | 30695m | 6.4m/s | -43.9°C | 3.0% | 11.3hPa | 2.6V | 00:00:00 | 01:44:45 | 08:30:00 | |
| DO2SHX-10 | 2026-08-31 12:35:11 | 54.48053 | 14.14451 | 31° | 13km/h | 30688m | 5.7m/s | -43.8°C | 3.0% | 11.3hPa | 2.6V | 00:00:00 | 01:44:44 | 08:30:00 | |
| DL1XH1-15 | 2026-08-31 12:35:09 | 54.48039 | 14.14438 | 84° | 11km/h | 30648m | 6.9m/s | -44°C | 3% | 11.5hPa | 2.6V | 08:30:00 | 01:44:38 | 00:00:00 | |
| DL1XH-west | 2026-08-31 12:35:05 | 54.48039 | 14.14438 | 85° | 11km/h | 30648m | 6.9m/s | -44°C | 0.4% | 11.5hPa | 2.6V | 18:12:15 | 01:44:38 | 00:00:00 | |
| DF8AY | 2026-08-31 12:35:03 | 54.48039 | 14.14428 | 59° | 2km/h | 30630m | 7m/s | -43.9°C | 0.4% | 11.5hPa | 2.7V | 18:12:15 | 01:44:35 | 00:00:00 | |
| BIOWL1-15 | 2026-08-31 12:35:00 | 54.48033 | 14.14439 | 91° | 2km/h | 30559m | 5.9m/s | 0°C | 0% | 0hPa | 2.7V | 18:12:15 | 01:44:24 | 00:00:00 | |
| DL1XH-west | 2026-08-31 12:34:55 | 54.48032 | 14.14442 | 139° | 4km/h | 30585m | 5.4m/s | -43.7°C | 0.4% | 11.6hPa | 2.6V | 18:12:15 | 01:44:28 | 00:00:00 | |
| AA1-15 | 2026-08-31 12:34:55 | 54.48032 | 14.14441 | 118° | 4km/h | 30578m | 6.8m/s | -43.6°C | 0.3% | 11.6hPa | 2.6V | 18:12:15 | 01:44:27 | 00:00:00 | |
| DF8AY | 2026-08-31 12:34:52 | 54.48033 | 14.14440 | 66° | 2km/h | 30565m | 6.3m/s | -43.5°C | 0.4% | 11.6hPa | 2.7V | 18:12:15 | 01:44:25 | 00:00:00 | |
| BIOWL1-15 | 2026-08-31 12:34:51 | 54.48034 | 14.14434 | 116° | 9km/h | 30546m | 7.7m/s | 0°C | 0% | 0hPa | 2.6V | 18:12:15 | 01:44:22 | 00:00:00 | |
| DJ2DS-15 | 2026-08-31 12:34:51 | 54.48033 | 14.14439 | 91° | 2km/h | 30559m | 5.9m/s | -43.5°C | 0.9% | 11.6hPa | 2.6V | 00:00:00 | 00:00:00 | 00:00:00 | |
| DO2SHX-10 | 2026-08-31 12:34:50 | 54.48033 | 14.14437 | 109° | 9km/h | 30554m | 5.7m/s | -43.4°C | 2.9% | 11.6hPa | 2.6V | 00:00:00 | 01:44:23 | 00:00:00 | |
| DL1XH1-15 | 2026-08-31 12:34:48 | 54.48040 | 14.14421 | 188° | 7km/h | 30521m | 7.1m/s | -43.4°C | 2.9% | 11.7hPa | 2.6V | 08:30:00 | 01:44:18 | 00:00:00 | |
| AM1SDL-15 | 2026-08-31 12:34:48 | 54.48035 | 14.14429 | 119° | 11km/h | 30540m | 6.5m/s | -43.4°C | 3.0% | 11.6hPa | 2.7V | 00:00:00 | 01:44:21 | 00:00:00 | |
| DO2SHX-10 | 2026-08-31 12:34:47 | 54.48036 | 14.14425 | 129° | 9km/h | 30534m | 5.5m/s | -43.3°C | 2.9% | 11.6hPa | 2.7V | 00:00:00 | 01:44:20 | 00:00:00 | |
| DM0DOS-11 | 2026-08-31 12:34:45 | 54.48056 | 14.14431 | 166° | 7km/h | 30475m | 7.2m/s | -43.3°C | 2.9% | 11.8hPa | 2.7V | 08:30:00 | 01:44:11 | 00:00:00 | |
| AA1-15 | 2026-08-31 12:34:44 | 54.48042 | 14.14423 | 227° | 9km/h | 30514m | 6.3m/s | -43.3°C | 0.4% | 11.7hPa | 2.6V | 18:12:15 | 01:44:17 | 00:00:00 | |
| DF8AY | 2026-08-31 12:34:42 | 54.48051 | 14.14432 | 176° | 11km/h | 30488m | 5.9m/s | -43.4°C | 0.3% | 11.7hPa | 2.6V | 18:12:15 | 01:44:13 | 00:00:00 | |
| DO2SHX-10 | 2026-08-31 12:34:41 | 54.48048 | 14.14432 | 197° | 11km/h | 30495m | 6.8m/s | -43.2°C | 2.9% | 11.7hPa | 2.6V | 00:00:00 | 01:44:14 | 00:00:00 | |
| DL1XH1-15 | 2026-08-31 12:34:38 | 54.48060 | 14.14427 | 133° | 9km/h | 30457m | 6.1m/s | -43.3°C | 2.9% | 11.8hPa | 2.6V | 08:30:00 | 01:44:08 | 00:00:00 | |
| BIOWL1-15 | 2026-08-31 12:34:38 | 54.48056 | 14.14431 | 166° | 7km/h | 30476m | 7.2m/s | 0°C | 0% | 0hPa | 2.7V | 18:12:15 | 01:44:11 | 00:00:00 | |
| DL1XH-west | 2026-08-31 12:34:34 | 54.48062 | 14.14423 | 128° | 13km/h | 30450m | 7.4m/s | -43.3°C | 0.4% | 11.8hPa | 2.6V | 18:12:15 | 01:44:07 | 00:00:00 | |
| DF8AY | 2026-08-31 12:34:32 | 54.48083 | 14.14414 | 213° | 15km/h | 30413m | 5.6m/s | -43.3°C | 0.4% | 11.9hPa | 2.6V | 18:12:15 | 01:44:01 | 00:00:00 | |
| DO2SHX-10 | 2026-08-31 12:34:32 | 54.48068 | 14.14414 | 147° | 16km/h | 30438m | 4.9m/s | -43.3°C | 2.9% | 11.8hPa | 2.7V | 00:00:00 | 01:44:05 | 00:00:00 | |
| DO2SHX-10 | 2026-08-31 12:34:29 | 54.48079 | 14.14411 | 204° | 15km/h | 30419m | 6.0m/s | -43.3°C | 2.9% | 11.8hPa | 2.7V | 00:00:00 | 01:44:02 | 00:00:00 | |
| DL1XH1-15 | 2026-08-31 12:34:28 | 54.48091 | 14.14420 | 170° | 9km/h | 30394m | 5.7m/s | -43.3°C | 3% | 11.9hPa | 2.7V | 08:30:00 | 01:43:58 | 00:00:00 | |
| DL1XH-west | 2026-08-31 12:34:24 | 54.48095 | 14.14417 | 156° | 7km/h | 30382m | 6m/s | -43.3°C | 0.4% | 11.9hPa | 2.6V | 18:12:15 | 01:43:56 | 00:00:00 | |
| AA1-15 | 2026-08-31 12:34:23 | 54.48097 | 14.14416 | 168° | 7km/h | 30376m | 7.2m/s | -43.2°C | 0.3% | 11.9hPa | 2.6V | 18:12:15 | 01:43:55 | 00:00:00 | |
| DF8AY | 2026-08-31 12:34:17 | 54.48110 | 14.14407 | 146° | 20km/h | 30344m | 6m/s | -43°C | 0.3% | 12hPa | 2.6V | 18:12:15 | 01:43:50 | 00:00:00 | |
| DL1XH1-15 | 2026-08-31 12:34:17 | 54.48120 | 14.14399 | 163° | 20km/h | 30332m | 6.3m/s | -43°C | 2.9% | 12hPa | 2.7V | 08:30:00 | 01:43:48 | 00:00:00 | |
| DL1XH-west | 2026-08-31 12:34:13 | 54.48129 | 14.14398 | 189° | 18km/h | 30319m | 6.1m/s | -42.9°C | 0.3% | 12hPa | 2.7V | 18:12:15 | 01:43:46 | 00:00:00 | |
| DM0DOS-11 | 2026-08-31 12:34:12 | 54.48151 | 14.14391 | 143° | 11km/h | 30282m | 7.1m/s | -42.6°C | 2.8% | 12.1hPa | 2.6V | 08:30:00 | 01:43:40 | 00:00:00 | |
| DF8AY | 2026-08-31 12:34:07 | 54.48186 | 14.14355 | 139° | 15km/h | 30215m | 7.3m/s | -42.7°C | 0.2% | 12.2hPa | 2.7V | 18:12:15 | 01:43:29 | 00:00:00 | |
| DL1XH-west | 2026-08-31 12:34:02 | 54.48163 | 14.14375 | 140° | 20km/h | 30250m | 6.1m/s | -42.5°C | 0.2% | 12.1hPa | 2.7V | 18:12:15 | 01:43:35 | 00:00:00 | |
| DO2SHX-10 | 2026-08-31 12:34:02 | 54.48163 | 14.14375 | 141° | 20km/h | 30251m | 6.0m/s | -42.5°C | 2.8% | 12.1hPa | 2.6V | 00:00:00 | 01:43:35 | 00:00:00 | |
| AM1SDL-15 | 2026-08-31 12:34:00 | 54.48171 | 14.14365 | 155° | 16km/h | 30239m | 6.8m/s | -42.4°C | 2.7% | 12.1hPa | 2.6V | 00:00:00 | 01:43:33 | 00:00:00 | |
| DM0DOS-11 | 2026-08-31 12:33:57 | 54.48183 | 14.14359 | 154° | 15km/h | 30221m | 5.6m/s | -42.6°C | 2.8% | 12.2hPa | 2.7V | 08:30:00 | 01:43:30 | 00:00:00 | |
| DL1XH1-15 | 2026-08-31 12:33:56 | 54.48189 | 14.14350 | 128° | 18km/h | 30208m | 6.2m/s | -42.7°C | 2.8% | 12.2hPa | 2.6V | 08:30:00 | 01:43:28 | 00:00:00 | |
| SP3WXH-11 | 2026-08-31 12:33:56 | 54.48186 | 14.14355 | 139° | 15km/h | 30215m | 7.3m/s | -42.7°C | 0.9% | 12.2hPa | 2.7V | 00:00:00 | 00:00:00 | 00:00:00 | |
| SONCRA | 2026-08-31 12:33:54 | 54.48191 | 14.14344 | 124° | 16km/h | 30202m | 5.4m/s | -42.8°C | 0.9% | 12.3hPa | 2.7V | 00:00:00 | 00:00:00 | 00:00:00 | |
| DL1XH-15 | 2026-08-31 12:33:53 | 54.48197 | 14.14333 | 142° | 16km/h | 30189m | 6.5m/s | -42.8°C | 2.8% | 12.3hPa | 2.7V | 08:30:00 | 01:43:25 | 00:00:00 | |
| AA1-15 | 2026-08-31 12:33:52 | 54.48205 | 14.14326 | 158° | 20km/h | 30177m | 5.7m/s | -42.8°C | 0.3% | 12.3hPa | 2.7V | 18:12:15 | 01:43:23 | 00:00:00 | |
| DL1XH-west | 2026-08-31 12:33:51 | 54.48200 | 14.14329 | 154° | 16km/h | 30183m | 5.9m/s | -42.8°C | 0.2% | 12.3hPa | 2.7V | 18:12:15 | 01:43:24 | 00:00:00 | |
| DF8AY | 2026-08-31 12:33:46 | 54.48234 | 14.14302 | 161° | 24km/h | 30146m | 7.1m/s | -42.9°C | 0.2% | 12.4hPa | 2.7V | 18:12:15 | 01:43:18 | 00:00:00 | |
| DL1XH-15 | 2026-08-31 12:33:46 | 54.48252 | 14.14288 | 139° | 22km/h | 30121m | 5.8m/s | -42.9°C | 2.8% | 12.4hPa | 2.6V | 08:30:00 | 01:43:14 | 00:00:00 | |
| DL1XH1-15 | 2026-08-31 12:33:45 | 54.48234 | 14.14302 | 160° | 24km/h | 30146m | 7.1m/s | -42.9°C | 2.8% | 12.4hPa | 2.7V | 08:30:00 | 01:43:18 | 00:00:00 | |
| DL1XH-west | 2026-08-31 12:33:41 | 54.48252 | 14.14288 | 140° | 22km/h | 30121m | 5.8m/s | -42.9°C | 0.3% | 12.4hPa | 2.6V | 18:12:15 | 01:43:14 | 00:00:00 | |
| DO2SHX-10 | 2026-08-31 12:33:41 | 54.48252 | 14.14288 | 140° | 24km/h | 30121m | 5.8m/s | -42.8°C | 2.8% | 12.3hPa | 2.6V | 00:00:00 | 01:43:14 | 00:00:00 | |
| DM0DOS-11 | 2026-08-31 12:33:40 | 54.48278 | 14.14257 | 160° | 29km/h | 30091m | 5.8m/s | -43°C | 2.9% | 12.4hPa | 2.6V | 08:30:00 | 01:43:09 | 00:00:00 | |
| AA1-15 | 2026-08-31 12:33:40 | 54.48261 | 14.14274 | 139° | 26km/h | 30111m | 5.2m/s | -42.9°C | 0.3% | 12.4hPa | 2.7V | 18:12:15 | 01:43:12 | 00:00:00 | |
| DF8AY | 2026-08-31 12:33:36 | 54.48285 | 14.14253 | 160° | 31km/h | 30086m | 5.1m/s | -43°C | 0.2% | 12.4hPa | 2.6V | 18:12:15 | 01:43:08 | 00:00:00 | |
| DL1XH-15 | 2026-08-31 12:33:35 | 54.48314 | 14.14217 | 131° | 37km/h | 30061m | 5.3m/s | -43.1°C | 2.9% | 12.5hPa | 2.6V | 08:30:00 | 01:43:04 | 00:00:00 | |
| DL1XH-west | 2026-08-31 12:33:31 | 54.48314 | 14.14217 | 132° | 37km/h | 30061m | 5.3m/s | -43.1°C | 0.3% | 12.5hPa | 2.6V | 18:12:15 | 01:43:04 | 00:00:00 | |
| AA1-15 | 2026-08-31 12:33:29 | 54.48328 | 14.14189 | 132° | 20km/h | 30042m | 6.1m/s | -43.2°C | 0.3% | 12.6hPa | 2.7V | 18:12:15 | 01:43:01 | 00:00:00 | |
| DM0DOS-11 | 2026-08-31 12:33:27 | 54.48333 | 14.14178 | 123° | 15km/h | 30030m | 7.2m/s | -43.2°C | 2.9% | 12.6hPa | 2.7V | 08:30:00 | 01:42:59 | 00:00:00 | |
| DF8AY | 2026-08-31 12:33:25 | 54.48335 | 14.14172 | 119° | 16km/h | 30023m | 6m/s | -43.2°C | 0.3% | 12.6hPa | 2.6V | 18:12:15 | 01:42:58 | 00:00:00 | |
| SP3WXH-11 | 2026-08-31 12:33:25 | 54.48335 | 14.14172 | 119° | 15km/h | 30023m | 6.0m/s | -43.2°C | 0.9% | 12.6hPa | 2.6V | 00:00:00 | 00:00:00 | 00:00:00 | |
| AM1SDL-15 | 2026-08-31 12:33:24 | 54.48338 | 14.14166 | 124° | 29km/h | 30018m | 5.0m/s | -43.1°C | 2.9% | 12.5hPa | 2.6V | 00:00:00 | 01:42:57 | 08:30:00 | |
| DO2SHX-10 | 2026-08-31 12:33:23 | 54.48340 | 14.14160 | 131° | 20km/h | 30012m | 5.9m/s | -43.2°C | 2.9% | 12.6hPa | 2.6V | 00:00:00 | 01:42:56 | 08:30:00 | |
| DM0DOS-11 | 2026-08-31 12:33:21 | 54.48375 | 14.14089 | 118° | 42km/h | 29969m | 5.5m/s | -43.2°C | 2.9% | 12.7hPa | 2.7V | 08:30:00 | 01:42:49 | 00:00:00 | |
| DL1XH-west | 2026-08-31 12:33:20 | 54.48353 | 14.14142 | 139° | 29km/h | 29994m | 5.1m/s | -43.2°C | 0.3% | 12.6hPa | 2.7V | 18:12:15 | 01:42:53 | 00:00:00 | |
| AA1-15 | 2026-08-31 12:33:17 | 54.48370 | 14.14105 | 121° | 44km/h | 29974m | 4.6m/s | -43.1°C | 0.3% | 12.7hPa | 2.6V | 18:12:15 | 01:42:50 | 00:00:00 | |
| DO2SHX-10 | 2026-08-31 12:33:17 | 54.48370 | 14.14105 | 121° | 40km/h | 29975m | 4.6m/s | -43.1°C | 2.8% | 12.6hPa | 2.6V | 00:00:00 | 01:42:50 | 00:00:00 | |
| DL1XH-15 | 2026-08-31 12:33:16 | 54.48390 | 14.14028 | 107° | 26km/h | 29939m | 6.7m/s | -43.2°C | 2.9% | 12.7hPa | 2.6V | 08:30:00 | 01:42:44 | 00:00:00 | |
| DF8AY | 2026-08-31 12:33:15 | 54.48388 | 14.14039 | 107° | 24km/h | 29945m | 5.6m/s | -43.1°C | 0.2% | 12.7hPa | 2.6V | 18:12:15 | 01:42:45 | 00:00:00 | |
| DL1XH-west | 2026-08-31 12:33:10 | 54.48392 | 14.14018 | 107° | 27km/h | 29933m | 6m/s | -43.3°C | 0.3% | 12.7hPa | 2.7V | 18:12:15 | 01:42:43 | 00:00:00 | |
| DL1XH1-15 | 2026-08-31 12:33:08 | 54.48407 | 14.13969 | 136° | 24km/h | 29902m | 5.8m/s | -43.3°C | 2.9% | 12.8hPa | 2.6V | 08:30:00 | 01:42:38 | 00:00:00 | |
| DM0DOS-11 | 2026-08-31 12:33:07 | 54.48404 | 14.13976 | 129° | 24km/h | 29909m | 7.3m/s | -43.2°C | 2.9% | 12.8hPa | 2.6V | 08:30:00 | 01:42:39 | 00:00:00 | |
| AA1-15 | 2026-08-31 12:33:07 | 54.48404 | 14.13976 | 129° | 24km/h | 29909m | 7.3m/s | -43.3°C | 0.3% | 12.8hPa | 2.6V | 18:12:15 | 01:42:39 | 00:00:00 | |
| DL1XH-15 | 2026-08-31 12:33:06 | 54.48425 | 14.13928 | 112° | 37km/h | 29877m | 5.4m/s | -43.4°C | 3% | 12.9hPa | 2.6V | 08:30:00 | 01:42:34 | 00:00:00 | |
| DO2SHX-10 | 2026-08-31 12:33:05 | 54.48408 | 14.13969 | 137° | 26km/h | 29902m | 5.8m/s | -43.3°C | 2.9% | 12.7hPa | 2.6V | 00:00:00 | 01:42:38 | 00:00:00 | |
| SONDE2-11 | 2026-08-31 12:33:04 | 54.48412 | 14.13961 | 133° | 24km/h | 29897m | 5.1m/s | -43.4°C | 0.9% | 12.8hPa | 2.6V | 00:00:00 | 00:00:00 | 00:00:00 | |
| EDDB2-12 | 2026-08-31 12:33:03 | 54.48416 | 14.13953 | 128° | 27km/h | 29891m | 6.8m/s | -43.4°C | 0.9% | 12.8hPa | 2.6V | 00:00:00 | 00:00:00 | 00:00:00 | |
| DO2SHX-10 | 2026-08-31 12:33:02 | 54.48421 | 14.13942 | 121° | 37km/h | 29884m | 6.7m/s | -43.4°C | 3.0% | 12.8hPa | 2.6V | 00:00:00 | 01:42:35 | 00:00:00 | |
| DM0DOS-11 | 2026-08-31 12:33:01 | 54.48433 | 14.13861 | 95° | 26km/h | 29848m | 5.5m/s | -43.5°C | 3% | 12.9hPa | 2.6V | 08:30:00 | 01:42:29 | 00:00:00 | |
| DL1XH-west | 2026-08-31 12:33:00 | 54.48428 | 14.13913 | 107° | 37km/h | 29872m | 5m/s | -43.4°C | 0.4% | 12.9hPa | 2.6V | 18:12:15 | 01:42:33 | 00:00:00 | |
| DF8AY | 2026-08-31 12:32:59 | 54.48436 | 14.13826 | 101° | 29km/h | 29829m | 5.5m/s | -43.5°C | 0.4% | 12.9hPa | 2.6V | 18:12:15 | 01:42:26 | 00:00:00 | |
| DL1XH1-15 | 2026-08-31 12:32:58 | 54.48434 | 14.13850 | 97° | 26km/h | 29842m | 7m/s | -43.5°C | 3% | 12.9hPa | 2.7V | 08:30:00 | 01:42:28 | 00:00:00 | |
| AA1-15 | 2026-08-31 12:32:56 | 54.48434 | 14.13850 | 98° | 26km/h | 29842m | 7m/s | -43.5°C | 0.4% | 12.9hPa | 2.7V | 18:12:15 | 01:42:28 | 00:00:00 | |
| DO2SHX-10 | 2026-08-31 12:32:56 | 54.48433 | 14.13861 | 96° | 27km/h | 29848m | 5.4m/s | -43.5°C | 3.0% | 12.9hPa | 2.6V | 00:00:00 | 01:42:29 | 08:30:00 | |
| DL1XH-15 | 2026-08-31 12:32:54 | 54.48439 | 14.13803 | 100° | 24km/h | 29817m | 6.8m/s | -43.4°C | 2.9% | 13hPa | 2.7V | 08:30:00 | 01:42:24 | 00:00:00 | |
| DL1XH-west | 2026-08-31 12:32:50 | 54.48444 | 14.13763 | 100° | 29km/h | 29793m | 7m/s | -43.2°C | 0.3% | 13hPa | 2.7V | 18:12:15 | 01:42:20 | 00:00:00 | |
| DM0DOS-11 | 2026-08-31 12:32:50 | 54.48445 | 14.13750 | 95° | 33km/h | 29786m | 5.4m/s | -43°C | 3% | 13hPa | 2.7V | 08:30:00 | 01:42:19 | 00:00:00 | |
| EDDB2-11 | 2026-08-31 12:32:49 | 54.48441 | 14.13784 | 101° | 20km/h | 29805m | 5.5m/s | -43.4°C | 1.0% | 13.0hPa | 2.6V | 00:00:00 | 00:00:00 | 00:00:00 | |
| DL1XH1-15 | 2026-08-31 12:32:48 | 54.48445 | 14.13735 | 89° | 35km/h | 29781m | 4.8m/s | -43.1°C | 3% | 13hPa | 2.6V | 08:30:00 | 01:42:18 | 00:00:00 | |
| DF8AY | 2026-08-31 12:32:46 | 54.48445 | 14.13735 | 89° | 35km/h | 29781m | 4.8m/s | -43.1°C | 0.4% | 13hPa | 2.6V | 18:12:15 | 01:42:18 | 00:00:00 | |
| AA1-15 | 2026-08-31 12:32:45 | 54.48444 | 14.13720 | 82° | 33km/h | 29775m | 6.8m/s | -43.2°C | 0.3% | 13.1hPa | 2.6V | 18:12:15 | 01:42:17 | 00:00:00 | |
| DO2SHX-10 | 2026-08-31 12:32:44 | 54.48444 | 14.13720 | 83° | 33km/h | 29776m | 6.7m/s | -43.2°C | 3.0% | 13.0hPa | 2.6V | 00:00:00 | 01:42:17 | 00:00:00 | |
| DL1XH-15 | 2026-08-31 12:32:43 | 54.48436 | 14.13682 | 61° | 31km/h | 29756m | 5.3m/s | -43.1°C | 2.9% | 13.1hPa | 2.6V | 08:30:00 | 01:42:14 | 00:00:00 | |
| DL1XH-west | 2026-08-31 12:32:38 | 54.48428 | 14.13644 | 82° | 29km/h | 29738m | 5.3m/s | -43.1°C | 0.3% | 13.2hPa | 2.7V | 18:12:15 | 01:42:11 | 00:00:00 | |
| DM0DOS-11 | 2026-08-31 12:32:37 | 54.48428 | 14.13623 | 99° | 20km/h | 29727m | 7.5m/s | -43.1°C | 2.9% | 13.1hPa | 2.6V | 08:30:00 | 01:42:09 | 00:00:00 | |
| DL1XH1-15 | 2026-08-31 12:32:36 | 54.48429 | 14.13615 | 109° | 16km/h | 29719m | 7.1m/s | -43°C | 2.9% | 13.1hPa | 2.6V | 08:30:00 | 01:42:08 | 00:00:00 | |
| DF8AY | 2026-08-31 12:32:34 | 54.48431 | 14.13609 | 117° | 15km/h | 29713m | 5.6m/s | -42.8°C | 0.3% | 13.2hPa | 2.6V | 18:12:15 | 01:42:07 | 00:00:00 | |
| AA1-15 | 2026-08-31 12:32:33 | 54.48432 | 14.13603 | 115° | 16km/h | 29707m | 6.6m/s | -42.7°C | 0.2% | 13.2hPa | 2.7V | 18:12:15 | 01:42:06 | 00:00:00 | |
| DL1XH-15 | 2026-08-31 12:32:33 | 54.48435 | 14.13587 | 93° | 22km/h | 29695m | 5.2m/s | -42.6°C | 2.8% | 13.2hPa | 2.7V | 08:30:00 | 01:42:04 | 00:00:00 | |
| DO2SHX-10 | 2026-08-31 12:32:32 | 54.48434 | 14.13595 | 106° | 22km/h | 29701m | 6.5m/s | -42.6°C | 2.8% | 13.1hPa | 2.7V | 00:00:00 | 01:42:05 | 00:00:00 | |
| S3001 | 2026-08-31 12:32:31 | 54.48435 | 14.13587 | 93° | 20km/h | 29695m | 5.2m/s | -42.6°C | 0.9% | 13.2hPa | 2.7V | 00:00:00 | 00:00:00 | 00:00:00 | |
| DL1XH1-15 | 2026-08-31 12:32:30 | 54.48423 | 14.13532 | 69° | 26km/h | 29656m | 6m/s | -42.9°C | 2.8% | 13.3hPa | 2.7V | 08:30:00 | 01:41:58 | 00:00:00 | |
| DL1XH-west | 2026-08-31 12:32:27 | 54.48428 | 14.13551 | 60° | 24km/h | 29669m | 6m/s | -43°C | 0.2% | 13.2hPa | 2.7V | 18:12:15 | 01:42:00 | 00:00:00 | |
| DJ2DS-15 | 2026-08-31 12:32:27 | 54.48426 | 14.13542 | 63° | 24km/h | 29663m | 7.1m/s | -43.0°C | 0.9% | 13.3hPa | 2.7V | 00:00:00 | 00:00:00 | 00:00:00 | |
| DL1XH-15 | 2026-08-31 12:32:26 | 54.48421 | 14.13502 | 112° | 7km/h | 29631m | 6.7m/s | -42.9°C | 2.7% | 13.3hPa | 2.7V | 08:30:00 | 01:41:54 | 00:00:00 | |
| AA1-15 | 2026-08-31 12:32:22 | 54.48420 | 14.13507 | 93° | 13km/h | 29638m | 7.5m/s | -42.9°C | 0.2% | 13.3hPa | 2.6V | 18:12:15 | 01:41:55 | 00:00:00 | |
| SONCRA | 2026-08-31 12:32:21 | 54.48421 | 14.13502 | 112° | 7km/h | 29631m | 6.7m/s | -42.9°C | 0.9% | 13.3hPa | 2.6V | 00:00:00 | 00:00:00 | 00:00:00 | |
| DM0DOS-11 | 2026-08-31 12:32:20 | 54.48423 | 14.13482 | 76° | 15km/h | 29602m | 5.2m/s | -43.1°C | 2.8% | 13.4hPa | 2.6V | 08:30:00 | 01:41:49 | 00:00:00 | |
| DL1XH-west | 2026-08-31 12:32:17 | 54.48424 | 14.13488 | 89° | 15km/h | 29607m | 5.2m/s | -43°C | 0.3% | 13.4hPa | 2.6V | 18:12:15 | 01:41:50 | 00:00:00 | |
| DF8AY | 2026-08-31 12:32:13 | 54.48417 | 14.13467 | 31° | 15km/h | 29584m | 5.3m/s | -43.2°C | 0.2% | 13.4hPa | 2.7V | 18:12:15 | 01:41:46 | 00:00:00 | |
| AA1-15 | 2026-08-31 12:32:12 | 54.48410 | 14.13459 | 36° | 16km/h | 29573m | 6m/s | -43.6°C | 0.3% | 13.5hPa | 2.6V | 18:12:15 | 01:41:44 | 00:00:00 | |
| DO2SHX-10 | 2026-08-31 12:32:11 | 54.48410 | 14.13459 | 37° | 18km/h | 29574m | 6.0m/s | -43.6°C | 2.8% | 13.4hPa | 2.6V | 00:00:00 | 01:41:44 | 00:00:00 | |
| DB0NH | 2026-08-31 12:32:10 | 54.48406 | 14.13454 | 52° | 22km/h | 29567m | 6.7m/s | -43.8°C | 2.9% | 13.4hPa | 2.6V | 00:00:00 | 01:41:43 | 00:00:00 | |
| DM0DOS-11 | 2026-08-31 12:32:09 | 54.48399 | 14.13422 | 71° | 16km/h | 29542m | 6.9m/s | -43.9°C | 2.8% | 13.5hPa | 2.6V | 08:30:00 | 01:41:39 | 00:00:00 | |
| DL1XH-west | 2026-08-31 12:32:07 | 54.48400 | 14.13430 | 72° | 20km/h | 29548m | 6.1m/s | -43.9°C | 0.3% | 13.5hPa | 2.7V | 18:12:15 | 01:41:40 | 00:00:00 | |
| DL1XH1-15 | 2026-08-31 12:32:06 | 54.48397 | 14.13416 | 72° | 13km/h | 29535m | 5.8m/s | -44°C | 2.8% | 13.5hPa | 2.6V | 08:30:00 | 01:41:38 | 00:00:00 | |
| DF8AY | 2026-08-31 12:32:02 | 54.48397 | 14.13398 | 102° | 18km/h | 29517m | 6.9m/s | -44.5°C | 0.4% | 13.6hPa | 2.7V | 18:12:15 | 01:41:35 | 00:00:00 | |
| AA1-15 | 2026-08-31 12:32:02 | 54.48400 | 14.13380 | 107° | 22km/h | 29505m | 5.6m/s | -44.4°C | 0.4% | 13.6hPa | 2.6V | 18:12:15 | 01:41:33 | 00:00:00 | |
| DL1XH-west | 2026-08-31 12:31:57 | 54.48407 | 14.13346 | 108° | 26km/h | 29481m | 7.2m/s | -44.5°C | 0.4% | 13.6hPa | 2.7V | 18:12:15 | 01:41:29 | 00:00:00 | |
| DL1XH1-15 | 2026-08-31 12:31:56 | 54.48409 | 14.13335 | 108° | 29km/h | 29474m | 6.4m/s | -44.5°C | 3% | 13.7hPa | 2.7V | 08:30:00 | 01:41:28 | 00:00:00 | |
| DF8AY | 2026-08-31 12:31:52 | 54.48415 | 14.13302 | 109° | 22km/h | 29455m | 6.7m/s | -44.7°C | 0.4% | 13.7hPa | 2.6V | 18:12:15 | 01:41:25 | 00:00:00 | |
| DL1XH-15 | 2026-08-31 12:31:52 | 54.48417 | 14.13293 | 110° | 20km/h | 29449m | 5.8m/s | -44.6°C | 3% | 13.7hPa | 2.7V | 08:30:00 | 01:41:24 | 00:00:00 | |
| AA1-15 | 2026-08-31 12:31:49 | 54.48424 | 14.13268 | 114° | 24km/h | 29430m | 5.8m/s | -44.6°C | 0.3% | 13.7hPa | 2.6V | 18:12:15 | 01:41:21 | 00:00:00 | |
| EDDB2-11 | 2026-08-31 12:31:47 | 54.48426 | 14.13258 | 112° | 24km/h | 29424m | 5.2m/s | -44.7°C | 0.9% | 13.8hPa | 2.7V | 00:00:00 | 00:00:00 | 00:00:00 | |
| DL1XH1-15 | 2026-08-31 12:31:46 | 54.48430 | 14.13240 | 105° | 20km/h | 29411m | 7m/s | -45°C | 3% | 13.8hPa | 2.7V | 08:30:00 | 01:41:18 | 00:00:00 | |
| DL1XH-west | 2026-08-31 12:31:46 | 54.48428 | 14.13249 | 111° | 22km/h | 29418m | 6.4m/s | -44.9°C | 0.4% | 13.8hPa | 2.6V | 18:12:15 | 01:41:19 | 00:00:00 | |
| DF8AY | 2026-08-31 12:31:41 | 54.48435 | 14.13201 | 108° | 29km/h | 29386m | 5.2m/s | -45°C | 0.4% | 13.8hPa | 2.6V | 18:12:15 | 01:41:14 | 00:00:00 | |
| DL1XH1-15 | 2026-08-31 12:31:41 | 54.48450 | 14.13141 | 112° | 22km/h | 29351m | 5.5m/s | -45.3°C | 3% | 13.9hPa | 2.6V | 08:30:00 | 01:41:08 | 00:00:00 | |
| AA1-15 | 2026-08-31 12:31:39 | 54.48446 | 14.13157 | 117° | 22km/h | 29363m | 6m/s | -45.2°C | 0.4% | 13.9hPa | 2.7V | 18:12:15 | 01:41:10 | 00:00:00 | |
| DM0DOS-11 | 2026-08-31 12:31:39 | 54.48449 | 14.13149 | 115° | 20km/h | 29357m | 5.7m/s | -45.2°C | 3% | 13.9hPa | 2.6V | 08:30:00 | 01:41:09 | 00:00:00 | |
| DL1XH-west | 2026-08-31 12:31:36 | 54.48451 | 14.13141 | 112° | 22km/h | 29351m | 5.5m/s | -45.3°C | 0.4% | 13.9hPa | 2.6V | 18:12:15 | 01:41:08 | 00:00:00 | |
| DL1XH-15 | 2026-08-31 12:31:35 | 54.48457 | 14.13091 | 95° | 33km/h | 29327m | 6.1m/s | -45.5°C | 3.1% | 13.9hPa | 2.7V | 08:30:00 | 01:41:04 | 00:00:00 | |
| DF8AY | 2026-08-31 12:31:31 | 54.48458 | 14.13091 | 95° | 33km/h | 29327m | 6.1m/s | -45.5°C | 0.5% | 14hPa | 2.7V | 18:12:15 | 01:41:04 | 00:00:00 | |
| SONDE2-11 | 2026-08-31 12:31:31 | 54.48458 | 14.13078 | 91° | 27km/h | 29320m | 6.8m/s | -45.4°C | 1.0% | 14.0hPa | 2.7V | 00:00:00 | 00:00:00 | 00:00:00 | |
| EDDB2-12 | 2026-08-31 12:31:30 | 54.48458 | 14.13078 | 91° | 27km/h | 29320m | 6.8m/s | -45.4°C | 1.0% | 14.0hPa | 2.7V | 00:00:00 | 00:00:00 | 00:00:00 | |
| DO2SHX-10 | 2026-08-31 12:31:29 | 54.48458 | 14.13066 | 90° | 24km/h | 29314m | 5.8m/s | -45.4°C | 3.1% | 13.9hPa | 2.7V | 00:00:00 | 01:41:02 | 00:00:00 | |
| DM0DOS-11 | 2026-08-31 12:31:28 | 54.48459 | 14.13035 | 99° | 24km/h | 29295m | 6m/s | -45.8°C | 3.1% | 14hPa | 2.7V | 08:30:00 | 01:40:59 | 00:00:00 | |
| AA1-15 | 2026-08-31 12:31:27 | 54.48459 | 14.13035 | 100° | 24km/h | 29295m | 6m/s | -45.8°C | 0.5% | 14.1hPa | 2.7V | 18:12:15 | 01:40:59 | 00:00:00 | |
| DL1XH1-15 | 2026-08-31 12:31:27 | 54.48460 | 14.13025 | 100° | 22km/h | 29289m | 5.2m/s | -45.9°C | 3.1% | 14hPa | 2.7V | 08:30:00 | 01:40:58 | 00:00:00 | |
| DL1XH-west | 2026-08-31 12:31:25 | 54.48460 | 14.13025 | 101° | 22km/h | 29289m | 5.2m/s | -45.9°C | 0.5% | 14hPa | 2.7V | 18:12:15 | 01:40:58 | 00:00:00 | |
| DL1XH-15 | 2026-08-31 12:31:22 | 54.48460 | 14.12998 | 70° | 15km/h | 29264m | 5.4m/s | -46.1°C | 3.1% | 14.1hPa | 2.7V | 08:30:00 | 01:40:54 | 00:00:00 | |
| SP3WXH-11 | 2026-08-31 12:31:21 | 54.48460 | 14.12998 | 70° | 15km/h | 29265m | 5.4m/s | -46.1°C | 1.0% | 14.1hPa | 2.7V | 00:00:00 | 00:00:00 | 00:00:00 | |
| DL1XH1-15 | 2026-08-31 12:31:20 | 54.48451 | 14.12938 | 63° | 24km/h | 29227m | 6.2m/s | -46.2°C | 3.2% | 14.2hPa | 2.7V | 08:30:00 | 01:40:48 | 00:00:00 | |
| DF8AY | 2026-08-31 12:31:19 | 54.48458 | 14.12981 | 80° | 24km/h | 29252m | 6.5m/s | -46.3°C | 0.5% | 14.1hPa | 2.7V | 18:12:15 | 01:40:52 | 00:00:00 | |
| DM0DOS-11 | 2026-08-31 12:31:18 | 54.48454 | 14.12948 | 71° | 26km/h | 29234m | 7.1m/s | -46.2°C | 3.2% | 14.2hPa | 2.6V | 08:30:00 | 01:40:49 | 00:00:00 | |
| DL1XH-west | 2026-08-31 12:31:15 | 54.48451 | 14.12938 | 64° | 24km/h | 29227m | 6.2m/s | -46.2°C | 0.5% | 14.2hPa | 2.7V | 18:12:15 | 01:40:48 | 00:00:00 | |
| DL1XH-15 | 2026-08-31 12:31:12 | 54.48442 | 14.12902 | 71° | 20km/h | 29203m | 5.1m/s | -46.6°C | 3.4% | 14.2hPa | 2.6V | 08:30:00 | 01:40:44 | 00:00:00 | |
| DF8AY | 2026-08-31 12:31:09 | 54.48439 | 14.12889 | 61° | 15km/h | 29191m | 7.5m/s | -46.6°C | 0.6% | 14.3hPa | 2.7V | 18:12:15 | 01:40:42 | 00:00:00 | |
| DM0DOS-11 | 2026-08-31 12:31:08 | 54.48433 | 14.12874 | 64° | 16km/h | 29174m | 5.9m/s | -46.8°C | 3.4% | 14.3hPa | 2.6V | 08:30:00 | 01:40:39 | 00:00:00 | |
| DL1XH1-15 | 2026-08-31 12:31:07 | 54.48431 | 14.12867 | 71° | 20km/h | 29168m | 6.9m/s | -46.8°C | 3.4% | 14.3hPa | 2.6V | 08:30:00 | 01:40:38 | 00:00:00 | |
| DO2SHX-10 | 2026-08-31 12:31:07 | 54.48435 | 14.12879 | 56° | 16km/h | 29180m | 4.7m/s | -46.6°C | 3.3% | 14.2hPa | 2.7V | 00:00:00 | 01:40:40 | 08:30:00 | |
| DL1XH-15 | 2026-08-31 12:31:06 | 54.48421 | 14.12822 | 59° | 29km/h | 29143m | 6.9m/s | -46.7°C | 3.3% | 14.3hPa | 2.7V | 08:30:00 | 01:40:34 | 00:00:00 | |
| DL1XH-west | 2026-08-31 12:31:05 | 54.48432 | 14.12867 | 72° | 20km/h | 29168m | 6.9m/s | -46.8°C | 0.7% | 14.3hPa | 2.6V | 18:12:15 | 01:40:38 | 00:00:00 | |
| DO2SHX-10 | 2026-08-31 12:31:04 | 54.48430 | 14.12857 | 75° | 29km/h | 29161m | 5.8m/s | -46.7°C | 3.3% | 14.3hPa | 2.7V | 00:00:00 | 01:40:37 | 00:00:00 | |
| DL1XH1-15 | 2026-08-31 12:31:01 | 54.48403 | 14.12761 | 79° | 22km/h | 29108m | 6m/s | -46.7°C | 3.4% | 14.4hPa | 2.7V | 08:30:00 | 01:40:28 | 00:00:00 | |
| DF8AY | 2026-08-31 12:30:59 | 54.48406 | 14.12781 | 68° | 27km/h | 29119m | 6.2m/s | -46.6°C | 0.7% | 14.4hPa | 2.7V | 18:12:15 | 01:40:30 | 00:00:00 | |
| DM0DOS-11 | 2026-08-31 12:30:58 | 54.48404 | 14.12771 | 76° | 24km/h | 29113m | 5.2m/s | -46.7°C | 3.4% | 14.4hPa | 2.7V | 08:30:00 | 01:40:29 | 00:00:00 | |
| AA1-15 | 2026-08-31 12:30:55 | 54.48403 | 14.12761 | 79° | 22km/h | 29108m | 6m/s | -46.7°C | 0.7% | 14.4hPa | 2.7V | 18:12:15 | 01:40:28 | 00:00:00 | |
| DL1XH-west | 2026-08-31 12:30:54 | 54.48402 | 14.12753 | 81° | 16km/h | 29101m | 7.2m/s | -46.8°C | 0.6% | 14.5hPa | 2.6V | 18:12:15 | 01:40:27 | 00:00:00 | |
| DO2SHX-10 | 2026-08-31 12:30:52 | 54.48401 | 14.12740 | 88° | 16km/h | 29090m | 5.1m/s | -46.6°C | 3.4% | 14.4hPa | 2.6V | 00:00:00 | 01:40:25 | 00:00:00 | |
| DM0DOS-11 | 2026-08-31 12:30:51 | 54.48397 | 14.12692 | 59° | 18km/h | 29053m | 5.6m/s | -46.6°C | 3.3% | 14.5hPa | 2.6V | 08:30:00 | 01:40:19 | 00:00:00 | |
| DF8AY | 2026-08-31 12:30:47 | 54.48399 | 14.12700 | 70° | 20km/h | 29059m | 7.3m/s | -46.7°C | 0.7% | 14.5hPa | 2.6V | 18:12:15 | 01:40:20 | 00:00:00 | |
| DL1XH1-15 | 2026-08-31 12:30:47 | 54.48395 | 14.12686 | 60° | 18km/h | 29048m | 4.8m/s | -46.6°C | 3.3% | 14.6hPa | 2.7V | 08:30:00 | 01:40:18 | 00:00:00 | |
| AA1-15 | 2026-08-31 12:30:45 | 54.48395 | 14.12686 | 61° | 18km/h | 29048m | 4.8m/s | -46.6°C | 0.6% | 14.6hPa | 2.7V | 18:12:15 | 01:40:18 | 00:00:00 | |
| DL1XH-west | 2026-08-31 12:30:44 | 54.48393 | 14.12679 | 71° | 18km/h | 29042m | 6.5m/s | -46.7°C | 0.7% | 14.6hPa | 2.7V | 18:12:15 | 01:40:17 | 00:00:00 | |
| DO2SHX-10 | 2026-08-31 12:30:43 | 54.48392 | 14.12671 | 88° | 20km/h | 29036m | 7.0m/s | -46.7°C | 3.3% | 14.5hPa | 2.6V | 00:00:00 | 01:40:16 | 00:00:00 | |
| DL1XH1-15 | 2026-08-31 12:30:40 | 54.48405 | 14.12619 | 95° | 20km/h | 28986m | 6m/s | -46.4°C | 3.4% | 14.7hPa | 2.6V | 08:30:00 | 01:40:08 | 00:00:00 | |
| DM0DOS-11 | 2026-08-31 12:30:40 | 54.48405 | 14.12627 | 107° | 16km/h | 28992m | 7m/s | -46.4°C | 3.4% | 14.7hPa | 2.6V | 08:30:00 | 01:40:09 | 00:00:00 | |
| DF8AY | 2026-08-31 12:30:36 | 54.48405 | 14.12627 | 107° | 16km/h | 28993m | 7m/s | -46.4°C | 0.7% | 14.7hPa | 2.6V | 18:12:15 | 01:40:09 | 00:00:00 | |
| DL1XH-west | 2026-08-31 12:30:34 | 54.48405 | 14.12610 | 83° | 24km/h | 28980m | 5.8m/s | -46.5°C | 0.6% | 14.7hPa | 2.6V | 18:12:15 | 01:40:07 | 00:00:00 | |
| DO2SHX-10 | 2026-08-31 12:30:34 | 54.48405 | 14.12610 | 83° | 24km/h | 28980m | 5.7m/s | -46.4°C | 3.3% | 14.7hPa | 2.7V | 00:00:00 | 01:40:07 | 00:00:00 | |
| DL1XH-15 | 2026-08-31 12:30:33 | 54.48398 | 14.12582 | 54° | 24km/h | 28961m | 4.7m/s | -46.3°C | 3.2% | 14.8hPa | 2.7V | 08:30:00 | 01:40:04 | 00:00:00 | |
| DF8AY | 2026-08-31 12:30:31 | 54.48396 | 14.12539 | 123° | 20km/h | 28931m | 5.9m/s | -46.4°C | 0.6% | 14.8hPa | 2.7V | 18:12:15 | 01:39:59 | 00:00:00 | |
| DO2SHX-10 | 2026-08-31 12:30:31 | 54.48398 | 14.12582 | 55° | 22km/h | 28961m | 4.7m/s | -46.3°C | 3.2% | 14.7hPa | 2.7V | 00:00:00 | 01:40:04 | 00:00:00 | |
| DM0DOS-11 | 2026-08-31 12:30:29 | 54.48396 | 14.12539 | 122° | 20km/h | 28931m | 5.9m/s | -46.4°C | 3.3% | 14.8hPa | 2.7V | 08:30:00 | 01:39:59 | 00:00:00 | |
| SONDE2-11 | 2026-08-31 12:30:29 | 54.48392 | 14.12556 | 95° | 20km/h | 28944m | 6.4m/s | -46.4°C | 1.0% | 14.8hPa | 2.7V | 00:00:00 | 00:00:00 | 00:00:00 | |
| DO2SHX-10 | 2026-08-31 12:30:28 | 54.48392 | 14.12556 | 96° | 20km/h | 28944m | 6.4m/s | -46.3°C | 3.3% | 14.8hPa | 2.7V | 00:00:00 | 01:40:01 | 00:00:00 | |
| DL1XH-15 | 2026-08-31 12:30:27 | 54.48404 | 14.12509 | 95° | 18km/h | 28901m | 7.1m/s | -46.3°C | 3.3% | 14.9hPa | 2.7V | 08:30:00 | 01:39:54 | 00:00:00 | |
| DL1XH1-15 | 2026-08-31 12:30:26 | 54.48399 | 14.12532 | 125° | 16km/h | 28925m | 7m/s | -46.3°C | 3.3% | 14.8hPa | 2.7V | 08:30:00 | 01:39:58 | 00:00:00 | |
| AA1-15 | 2026-08-31 12:30:24 | 54.48401 | 14.12527 | 124° | 15km/h | 28918m | 6m/s | -46.3°C | 0.6% | 14.9hPa | 2.6V | 18:12:15 | 01:39:57 | 00:00:00 | |
| DL1XH-west | 2026-08-31 12:30:24 | 54.48402 | 14.12522 | 113° | 13km/h | 28913m | 5.2m/s | -46.2°C | 0.6% | 14.9hPa | 2.6V | 18:12:15 | 01:39:56 | 00:00:00 | |
| DF8AY | 2026-08-31 12:30:21 | 54.48398 | 14.12454 | 86° | 24km/h | 28863m | 7.1m/s | -46.3°C | 0.6% | 15hPa | 2.7V | 18:12:15 | 01:39:48 | 00:00:00 | |
| DO2SHX-10 | 2026-08-31 12:30:19 | 54.48403 | 14.12491 | 81° | 22km/h | 28889m | 5.7m/s | -46.2°C | 3.3% | 14.9hPa | 2.7V | 00:00:00 | 01:39:52 | 00:00:00 | |
| DM0DOS-11 | 2026-08-31 12:30:17 | 54.48398 | 14.12454 | 85° | 24km/h | 28863m | 7m/s | -46.3°C | 3.3% | 15hPa | 2.7V | 08:30:00 | 01:39:48 | 00:00:00 | |
| DO2SHX-10 | 2026-08-31 12:30:16 | 54.48399 | 14.12464 | 77° | 24km/h | 28870m | 5.2m/s | -46.2°C | 3.3% | 14.9hPa | 2.6V | 00:00:00 | 01:39:49 | 00:00:00 | |
| EDDB2-11 | 2026-08-31 12:30:14 | 54.48398 | 14.12443 | 94° | 24km/h | 28857m | 6.3m/s | -46.3°C | 1.0% | 15.0hPa | 2.6V | 00:00:00 | 00:00:00 | 00:00:00 | |
| DL1XH-15 | 2026-08-31 12:30:13 | 54.48402 | 14.12415 | 102° | 18km/h | 28837m | 6.6m/s | -46.3°C | 3.3% | 15hPa | 2.6V | 08:30:00 | 01:39:44 | 00:00:00 | |
| DL1XH-west | 2026-08-31 12:30:12 | 54.48400 | 14.12423 | 104° | 22km/h | 28844m | 7.2m/s | -46.2°C | 0.6% | 15hPa | 2.6V | 18:12:15 | 01:39:45 | 00:00:00 | |
| AA1-15 | 2026-08-31 12:30:09 | 54.48404 | 14.12391 | 99° | 22km/h | 28819m | 7.2m/s | -46.2°C | 0.6% | 15.1hPa | 2.7V | 18:12:15 | 01:39:41 | 00:00:00 | |
| DM0DOS-11 | 2026-08-31 12:30:06 | 54.48405 | 14.12359 | 86° | 26km/h | 28801m | 6.2m/s | -46.2°C | 3.2% | 15.1hPa | 2.6V | 08:30:00 | 01:39:38 | 00:00:00 | |
| DL1XH-west | 2026-08-31 12:30:02 | 54.48402 | 14.12330 | 76° | 22km/h | 28781m | 5.4m/s | -46.3°C | 0.7% | 15.2hPa | 2.7V | 18:12:15 | 01:39:35 | 00:00:00 | |
| DO2SHX-10 | 2026-08-31 12:30:01 | 54.48401 | 14.12321 | 83° | 24km/h | 28776m | 6.8m/s | -46.2°C | 3.3% | 15.1hPa | 2.7V | 00:00:00 | 01:39:34 | 00:00:00 | |
| DM0DOS-11 | 2026-08-31 12:29:59 | 54.48399 | 14.12264 | 84° | 22km/h | 28738m | 6.6m/s | -46.3°C | 3.3% | 15.2hPa | 2.7V | 08:30:00 | 01:39:28 | 00:00:00 | |
| DF8AY | 2026-08-31 12:29:59 | 54.48403 | 14.12205 | 130° | 18km/h | 28682m | 6m/s | -46.2°C | 0.6% | 15.4hPa | 2.6V | 18:12:15 | 01:39:19 | 00:00:00 | |
| AA1-15 | 2026-08-31 12:29:58 | 54.48400 | 14.12281 | 83° | 20km/h | 28751m | 6.6m/s | -46.4°C | 0.7% | 15.2hPa | 2.7V | 18:12:15 | 01:39:30 | 00:00:00 | |
| DL1XH-west | 2026-08-31 12:29:51 | 54.48398 | 14.12227 | 87° | 16km/h | 28714m | 7.4m/s | -46.2°C | 0.6% | 15.3hPa | 2.7V | 18:12:15 | 01:39:24 | 00:00:00 | |
| AA1-15 | 2026-08-31 12:29:48 | 54.48400 | 14.12210 | 127° | 13km/h | 28688m | 7m/s | -46.1°C | 0.6% | 15.4hPa | 2.6V | 18:12:15 | 01:39:20 | 00:00:00 | |
| DL1XH-15 | 2026-08-31 12:29:46 | 54.48413 | 14.12177 | 94° | 13km/h | 28652m | 5.4m/s | -46.2°C | 3.4% | 15.4hPa | 2.6V | 08:30:00 | 01:39:14 | 00:00:00 | |
| DL1XH-west | 2026-08-31 12:29:41 | 54.48413 | 14.12177 | 94° | 13km/h | 28652m | 5.4m/s | -46.2°C | 0.7% | 15.5hPa | 2.6V | 18:12:15 | 01:39:14 | 00:00:00 | |
| DF8AY | 2026-08-31 12:29:38 | 54.48415 | 14.12095 | 130° | 18km/h | 28583m | 7m/s | -45.9°C | 0.6% | 15.6hPa | 2.6V | 18:12:15 | 01:39:03 | 00:00:00 | |
| AA1-15 | 2026-08-31 12:29:37 | 54.48410 | 14.12138 | 73° | 18km/h | 28620m | 7m/s | -46°C | 0.7% | 15.5hPa | 2.6V | 18:12:15 | 01:39:09 | 00:00:00 | |
| DL1XH-15 | 2026-08-31 12:29:37 | 54.48412 | 14.12102 | 123° | 20km/h | 28589m | 5m/s | -45.9°C | 3.2% | 15.6hPa | 2.7V | 08:30:00 | 01:39:04 | 00:00:00 | |
| DF8AY | 2026-08-31 12:29:34 | 54.48421 | 14.12085 | 133° | 15km/h | 28570m | 5.5m/s | -45.7°C | 0.6% | 15.7hPa | 2.6V | 18:12:15 | 01:39:01 | 00:00:00 | |
| DL1XH-west | 2026-08-31 12:29:31 | 54.48412 | 14.12102 | 124° | 20km/h | 28589m | 5m/s | -45.9°C | 0.5% | 15.6hPa | 2.7V | 18:12:15 | 01:39:04 | 00:00:00 | |
| AA1-15 | 2026-08-31 12:29:26 | 54.48428 | 14.12064 | 108° | 24km/h | 28551m | 6.2m/s | -45.7°C | 0.5% | 15.7hPa | 2.7V | 18:12:15 | 01:38:58 | 00:00:00 | |
| EDDB2-12 | 2026-08-31 12:29:26 | 54.48428 | 14.12064 | 107° | 24km/h | 28551m | 6.2m/s | -45.7°C | 1.0% | 15.7hPa | 2.7V | 00:00:00 | 00:00:00 | 00:00:00 | |
| DL1XH-15 | 2026-08-31 12:29:25 | 54.48430 | 14.12025 | 84° | 20km/h | 28525m | 5.7m/s | -45.8°C | 3.2% | 15.8hPa | 2.7V | 08:30:00 | 01:38:54 | 00:00:00 | |
| DL1XH-west | 2026-08-31 12:29:20 | 54.48430 | 14.12016 | 86° | 22km/h | 28520m | 5.9m/s | -45.8°C | 0.6% | 15.8hPa | 2.7V | 18:12:15 | 01:38:53 | 00:00:00 | |
| DF8AY | 2026-08-31 12:29:18 | 54.48437 | 14.11942 | 102° | 26km/h | 28470m | 6.5m/s | -45.6°C | 0.5% | 15.9hPa | 2.6V | 18:12:15 | 01:38:45 | 00:00:00 | |
| AA1-15 | 2026-08-31 12:29:16 | 54.48433 | 14.11966 | 106° | 18km/h | 28488m | 6.1m/s | -45.7°C | 0.5% | 15.8hPa | 2.7V | 18:12:15 | 01:38:48 | 00:00:00 | |
| DL1XH-15 | 2026-08-31 12:29:15 | 54.48438 | 14.11930 | 97° | 27km/h | 28464m | 5.7m/s | -45.6°C | 3.2% | 15.9hPa | 2.6V | 08:30:00 | 01:38:44 | 00:00:00 | |
| DL1XH-west | 2026-08-31 12:29:10 | 54.48439 | 14.11918 | 92° | 27km/h | 28459m | 5m/s | -45.6°C | 0.6% | 15.9hPa | 2.6V | 18:12:15 | 01:38:43 | 00:00:00 | |
| DO2SHX-10 | 2026-08-31 12:29:10 | 54.48439 | 14.11918 | 93° | 26km/h | 28459m | 4.9m/s | -45.6°C | 3.2% | 15.9hPa | 2.6V | 00:00:00 | 01:38:43 | 00:00:00 | |
| DO2SHX-10 | 2026-08-31 12:29:07 | 54.48437 | 14.11885 | 81° | 26km/h | 28440m | 5.3m/s | -45.7°C | 3.2% | 15.9hPa | 2.7V | 00:00:00 | 01:38:40 | 00:00:00 | |
| DL1XH-15 | 2026-08-31 12:29:05 | 54.48437 | 14.11818 | 93° | 20km/h | 28404m | 7.2m/s | -45.7°C | 3% | 16hPa | 2.7V | 08:30:00 | 01:38:34 | 00:00:00 | |
| DF8AY | 2026-08-31 12:29:05 | 54.48436 | 14.11863 | 87° | 29km/h | 28427m | 6.7m/s | -45.6°C | 0.5% | 16hPa | 2.6V | 18:12:15 | 01:38:38 | 00:00:00 | |
| AA1-15 | 2026-08-31 12:29:05 | 54.48436 | 14.11851 | 91° | 29km/h | 28421m | 5m/s | -45.5°C | 0.5% | 16hPa | 2.6V | 18:12:15 | 01:38:37 | 00:00:00 | |
| DL1XH-west | 2026-08-31 12:29:00 | 54.48437 | 14.11810 | 87° | 16km/h | 28398m | 5.7m/s | -45.8°C | 0.4% | 16.1hPa | 2.6V | 18:12:15 | 01:38:33 | 00:00:00 | |
| DO2SHX-10 | 2026-08-31 12:28:58 | 54.48436 | 14.11795 | 86° | 26km/h | 28388m | 5.6m/s | -45.8°C | 3.1% | 16.1hPa | 2.7V | 00:00:00 | 01:38:31 | 00:00:00 | |
| DF8AY-15 | 2026-08-31 12:28:57 | 54.48436 | 14.11786 | 87° | 29km/h | 28381m | 6.8m/s | -45.9°C | 3.1% | 16.1hPa | 2.7V | 00:00:00 | 01:38:30 | 08:30:00 | |
| DL1XH-15 | 2026-08-31 12:28:55 | 54.48426 | 14.11702 | 67° | 35km/h | 28342m | 6.8m/s | -46.4°C | 3.3% | 16.2hPa | 2.7V | 08:30:00 | 01:38:24 | 00:00:00 | |
| AA1-15 | 2026-08-31 12:28:54 | 54.48433 | 14.11744 | 80° | 35km/h | 28362m | 6.8m/s | -46.2°C | 0.5% | 16.1hPa | 2.6V | 18:12:15 | 01:38:27 | 00:00:00 | |
| S3001 | 2026-08-31 12:28:54 | 54.48431 | 14.11729 | 74° | 33km/h | 28356m | 6.6m/s | -46.3°C | 1.0% | 16.2hPa | 2.6V | 00:00:00 | 00:00:00 | 00:00:00 | |
| AM1SDL-15 | 2026-08-31 12:28:53 | 54.48431 | 14.11729 | 75° | 31km/h | 28356m | 6.5m/s | -46.2°C | 3.2% | 16.1hPa | 2.6V | 00:00:00 | 01:38:26 | 00:00:00 | |
| DO2SHX-10 | 2026-08-31 12:28:52 | 54.48429 | 14.11715 | 71° | 35km/h | 28349m | 6.1m/s | -46.3°C | 3.3% | 16.1hPa | 2.6V | 00:00:00 | 01:38:25 | 08:30:00 | |
| DM0DOS-11 | 2026-08-31 12:28:51 | 54.48401 | 14.11640 | 36° | 24km/h | 28306m | 5m/s | -46.6°C | 3.2% | 16.3hPa | 2.7V | 08:30:00 | 01:38:18 | 00:00:00 | |
| DL1XH-west | 2026-08-31 12:28:50 | 54.48422 | 14.11688 | 67° | 35km/h | 28336m | 6.3m/s | -46.3°C | 0.6% | 16.2hPa | 2.7V | 18:12:15 | 01:38:23 | 00:00:00 | |
| DO2SHX-10 | 2026-08-31 12:28:49 | 54.48419 | 14.11674 | 64° | 29km/h | 28331m | 4.8m/s | -46.3°C | 3.3% | 16.2hPa | 2.6V | 00:00:00 | 01:38:22 | 00:00:00 | |
| DO2SHX-10 | 2026-08-31 12:28:46 | 54.48406 | 14.11646 | 38° | 26km/h | 28312m | 6.3m/s | -46.5°C | 3.3% | 16.2hPa | 2.6V | 00:00:00 | 01:38:19 | 00:00:00 | |
| DL1XH-15 | 2026-08-31 12:28:45 | 54.48384 | 14.11597 | 68° | 37km/h | 28282m | 5.7m/s | -46.7°C | 3.3% | 16.4hPa | 2.6V | 08:30:00 | 01:38:14 | 00:00:00 | |
| AA1-15 | 2026-08-31 12:28:44 | 54.48396 | 14.11632 | 45° | 26km/h | 28300m | 6.2m/s | -46.7°C | 0.6% | 16.3hPa | 2.7V | 18:12:15 | 01:38:17 | 00:00:00 | |
| DF8AY | 2026-08-31 12:28:41 | 54.48381 | 14.11583 | 68° | 35km/h | 28276m | 6.8m/s | -46.8°C | 0.7% | 16.4hPa | 2.6V | 18:12:15 | 01:38:13 | 00:00:00 | |
| DL1XH-west | 2026-08-31 12:28:39 | 54.48378 | 14.11569 | 67° | 33km/h | 28269m | 6.9m/s | -46.8°C | 0.7% | 16.4hPa | 2.7V | 18:12:15 | 01:38:12 | 00:00:00 | |
| DL1XH1-15 | 2026-08-31 12:28:37 | 54.48368 | 14.11528 | 68° | 22km/h | 28245m | 6.1m/s | -46.6°C | 3.4% | 16.4hPa | 2.6V | 08:30:00 | 01:38:08 | 00:00:00 | |
| AA1-15 | 2026-08-31 12:28:34 | 54.48363 | 14.11514 | 48° | 18km/h | 28234m | 5m/s | -46.7°C | 0.7% | 16.5hPa | 2.7V | 18:12:15 | 01:38:06 | 00:00:00 | |
| DL1XH-15 | 2026-08-31 12:28:33 | 54.48355 | 14.11507 | 13° | 20km/h | 28221m | 6.9m/s | -46.6°C | 3.3% | 16.5hPa | 2.7V | 08:30:00 | 01:38:04 | 00:00:00 | |
| DL1XH-west | 2026-08-31 12:28:29 | 54.48346 | 14.11503 | 22° | 20km/h | 28210m | 5.1m/s | -46.6°C | 0.6% | 16.5hPa | 2.6V | 18:12:15 | 01:38:02 | 00:00:00 | |
| DF8AY | 2026-08-31 12:28:29 | 54.48341 | 14.11498 | 38° | 20km/h | 28204m | 7m/s | -46.5°C | 0.6% | 16.5hPa | 2.6V | 18:12:15 | 01:38:01 | 00:00:00 | |
| DO2SHX-10 | 2026-08-31 12:28:28 | 54.48341 | 14.11498 | 38° | 22km/h | 28204m | 7.0m/s | -46.5°C | 3.2% | 16.5hPa | 2.7V | 00:00:00 | 01:38:01 | 00:00:00 | |
| DM0DOS-11 | 2026-08-31 12:28:27 | 54.48333 | 14.11471 | 70° | 27km/h | 28186m | 6.4m/s | -46.6°C | 3.2% | 16.6hPa | 2.7V | 08:30:00 | 01:37:58 | 00:00:00 | |
| DL1XH-15 | 2026-08-31 12:28:26 | 54.48325 | 14.11432 | 74° | 16km/h | 28163m | 5.7m/s | -46.7°C | 3.3% | 16.7hPa | 2.7V | 08:30:00 | 01:37:54 | 00:00:00 | |
| AA1-15 | 2026-08-31 12:28:23 | 54.48328 | 14.11449 | 68° | 26km/h | 28174m | 5.5m/s | -46.5°C | 0.6% | 16.6hPa | 2.6V | 18:12:15 | 01:37:56 | 00:00:00 | |
| DL1XH-west | 2026-08-31 12:28:19 | 54.48324 | 14.11421 | 95° | 9km/h | 28150m | 5.7m/s | -46.6°C | 0.6% | 16.7hPa | 2.7V | 18:12:15 | 01:37:52 | 00:00:00 | |
| DF8AY | 2026-08-31 12:28:18 | 54.48323 | 14.11415 | 32° | 7km/h | 28138m | 7.3m/s | -46.8°C | 0.6% | 16.7hPa | 2.6V | 18:12:15 | 01:37:50 | 00:00:00 | |
| DM0DOS-11 | 2026-08-31 12:28:17 | 54.48318 | 14.11414 | 10° | 13km/h | 28125m | 5.2m/s | -46.8°C | 3.2% | 16.7hPa | 2.7V | 08:30:00 | 01:37:48 | 00:00:00 | |
| AA1-15 | 2026-08-31 12:28:12 | 54.48310 | 14.11405 | 65° | 13km/h | 28108m | 5.5m/s | -46.8°C | 0.6% | 16.8hPa | 2.6V | 18:12:15 | 01:37:45 | 00:00:00 | |
| DL1XH-west | 2026-08-31 12:28:09 | 54.48306 | 14.11384 | 76° | 11km/h | 28083m | 5.6m/s | -47°C | 0.7% | 16.9hPa | 2.7V | 18:12:15 | 01:37:41 | 00:00:00 | |
| DF8AY | 2026-08-31 12:28:07 | 54.48306 | 14.11379 | 97° | 11km/h | 28077m | 6.1m/s | -47.1°C | 0.7% | 16.9hPa | 2.7V | 18:12:15 | 01:37:40 | 00:00:00 | |
| DM0DOS-11 | 2026-08-31 12:28:07 | 54.48308 | 14.11371 | 123° | 7km/h | 28064m | 5.1m/s | -47.2°C | 3.4% | 16.9hPa | 2.6V | 08:30:00 | 01:37:38 | 00:00:00 | |
| DL1XH-15 | 2026-08-31 12:28:07 | 54.48302 | 14.11365 | 11° | 16km/h | 28040m | 5.5m/s | -47.2°C | 3.3% | 17hPa | 2.7V | 08:30:00 | 01:37:34 | 00:00:00 | |
| AA1-15 | 2026-08-31 12:28:02 | 54.48306 | 14.11366 | 12° | 13km/h | 28046m | 6.5m/s | -47.3°C | 0.7% | 17hPa | 2.7V | 18:12:15 | 01:37:35 | 00:00:00 | |
| DL1XH-west | 2026-08-31 12:27:58 | 54.48291 | 14.11356 | 44° | 16km/h | 28022m | 5.6m/s | -47.4°C | 0.7% | 17hPa | 2.6V | 18:12:15 | 01:37:31 | 00:00:00 | |
| DF8AY | 2026-08-31 12:27:56 | 54.48286 | 14.11345 | 55° | 16km/h | 28010m | 6.9m/s | -47.5°C | 0.6% | 17hPa | 2.7V | 18:12:15 | 01:37:29 | 00:00:00 | |
| AA1-15 | 2026-08-31 12:27:51 | 54.48283 | 14.11319 | 124° | 9km/h | 27979m | 5.8m/s | -47.5°C | 0.7% | 17.1hPa | 2.7V | 18:12:15 | 01:37:24 | 00:00:00 | |
| DL1XH-west | 2026-08-31 12:27:48 | 54.48282 | 14.11314 | 11° | 7km/h | 27961m | 5.6m/s | -47.6°C | 0.7% | 17.2hPa | 2.6V | 18:12:15 | 01:37:21 | 00:00:00 | |
| DL1XH-15 | 2026-08-31 12:27:48 | 54.48273 | 14.11301 | 71° | 13km/h | 27933m | 5.1m/s | -47.8°C | 3.4% | 17.2hPa | 2.7V | 08:30:00 | 01:37:16 | 00:00:00 | |
| DF8AY | 2026-08-31 12:27:46 | 54.48276 | 14.11309 | 45° | 9km/h | 27944m | 6.7m/s | -47.7°C | 0.7% | 17.2hPa | 2.7V | 18:12:15 | 01:37:18 | 00:00:00 | |
| AA1-15 | 2026-08-31 12:27:40 | 54.48267 | 14.11284 | 39° | 18km/h | 27914m | 5.7m/s | -48°C | 0.8% | 17.3hPa | 2.6V | 18:12:15 | 01:37:13 | 00:00:00 | |
| DF8AY | 2026-08-31 12:27:38 | 54.48251 | 14.11274 | 359° | 13km/h | 27878m | 6.5m/s | -48.1°C | 0.9% | 17.4hPa | 2.6V | 18:12:15 | 01:37:07 | 00:00:00 | |
| DL1XH-west | 2026-08-31 12:27:38 | 54.48258 | 14.11275 | 21° | 9km/h | 27896m | 6.8m/s | -48.1°C | 0.8% | 17.3hPa | 2.7V | 18:12:15 | 01:37:10 | 00:00:00 | |
| DM0DOS-11 | 2026-08-31 12:27:37 | 54.48247 | 14.11274 | 5° | 16km/h | 27872m | 5m/s | -48°C | 3.5% | 17.4hPa | 2.7V | 08:30:00 | 01:37:06 | 00:00:00 | |
| DL1XH1-15 | 2026-08-31 12:27:37 | 54.48254 | 14.11274 | 358° | 9km/h | 27884m | 6.1m/s | -48.1°C | 3.5% | 17.4hPa | 2.6V | 08:30:00 | 01:37:08 | 00:00:00 | |
| DO2SHX-10 | 2026-08-31 12:27:37 | 54.48258 | 14.11275 | 21° | 9km/h | 27896m | 6.7m/s | -48.1°C | 3.5% | 17.3hPa | 2.7V | 00:00:00 | 01:37:10 | 00:00:00 | |
| DO2SHX-10 | 2026-08-31 12:27:34 | 54.48251 | 14.11274 | 359° | 15km/h | 27878m | 6.4m/s | -48.1°C | 3.6% | 17.3hPa | 2.7V | 00:00:00 | 01:37:07 | 00:00:00 | |
| DF8AY-15 | 2026-08-31 12:27:32 | 54.48243 | 14.11273 | 15° | 15km/h | 27868m | 5.0m/s | -48.1°C | 3.6% | 17.4hPa | 2.7V | 00:00:00 | 01:37:05 | 00:00:00 | |
| DL1XH1-15 | 2026-08-31 12:27:31 | 54.48221 | 14.11232 | 67° | 20km/h | 27825m | 5.6m/s | -48°C | 3.4% | 17.5hPa | 2.7V | 08:30:00 | 01:36:58 | 00:00:00 | |
| AA1-15 | 2026-08-31 12:27:30 | 54.48236 | 14.11267 | 39° | 15km/h | 27855m | 6.3m/s | -48.1°C | 0.9% | 17.4hPa | 2.6V | 18:12:15 | 01:37:03 | 00:00:00 | |
| AM1SDL-15 | 2026-08-31 12:27:29 | 54.48232 | 14.11262 | 50° | 15km/h | 27849m | 5.8m/s | -48.1°C | 3.5% | 17.4hPa | 2.7V | 00:00:00 | 01:37:02 | 00:00:00 | |
| DL1XH-15 | 2026-08-31 12:27:28 | 54.48223 | 14.11240 | 58° | 22km/h | 27830m | 4.5m/s | -48.1°C | 3.5% | 17.5hPa | 2.7V | 08:30:00 | 01:36:59 | 00:00:00 | |
| DL1XH-west | 2026-08-31 12:27:28 | 54.48226 | 14.11248 | 55° | 22km/h | 27836m | 6.4m/s | -48.1°C | 0.8% | 17.5hPa | 2.7V | 18:12:15 | 01:37:00 | 00:00:00 | |
| DF8AY | 2026-08-31 12:27:26 | 54.48223 | 14.11240 | 59° | 22km/h | 27830m | 4.5m/s | -48.1°C | 0.7% | 17.5hPa | 2.7V | 18:12:15 | 01:36:59 | 00:00:00 | |
| DO2SHX-10 | 2026-08-31 12:27:25 | 54.48221 | 14.11232 | 68° | 16km/h | 27825m | 5.6m/s | -48.0°C | 3.4% | 17.5hPa | 2.6V | 00:00:00 | 01:36:58 | 00:00:00 | |
| DO2SHX-10 | 2026-08-31 12:27:22 | 54.48219 | 14.11214 | 90° | 9km/h | 27807m | 5.9m/s | -47.9°C | 3.5% | 17.5hPa | 2.6V | 00:00:00 | 01:36:55 | 00:00:00 | |
| DL1XH-15 | 2026-08-31 12:27:21 | 54.48212 | 14.11195 | 65° | 11km/h | 27771m | 4.9m/s | -47.9°C | 3.5% | 17.6hPa | 2.6V | 08:30:00 | 01:36:49 | 00:00:00 | |
| AA1-15 | 2026-08-31 12:27:19 | 54.48216 | 14.11204 | 42° | 9km/h | 27788m | 5m/s | -48°C | 0.8% | 17.6hPa | 2.7V | 18:12:15 | 01:36:52 | 00:00:00 | |
| DO2SHX-10 | 2026-08-31 12:27:19 | 54.48216 | 14.11203 | 43° | 9km/h | 27789m | 5.0m/s | -47.9°C | 3.5% | 17.6hPa | 2.7V | 00:00:00 | 01:36:52 | 00:00:00 | |
| DL1XH1-15 | 2026-08-31 12:27:17 | 54.48211 | 14.11190 | 59° | 15km/h | 27765m | 5.7m/s | -48°C | 3.5% | 17.7hPa | 2.7V | 08:30:00 | 01:36:48 | 00:00:00 | |
| DL1XH-west | 2026-08-31 12:27:16 | 54.48212 | 14.11194 | 66° | 11km/h | 27771m | 4.9m/s | -47.9°C | 0.8% | 17.6hPa | 2.6V | 18:12:15 | 01:36:49 | 00:00:00 | |
| DF8AY | 2026-08-31 12:27:15 | 54.48211 | 14.11190 | 60° | 15km/h | 27765m | 5.7m/s | -48°C | 0.8% | 17.7hPa | 2.7V | 18:12:15 | 01:36:48 | 00:00:00 | |
| DB0NH | 2026-08-31 12:27:14 | 54.48209 | 14.11184 | 57° | 18km/h | 27759m | 7.1m/s | 0°C | 0% | 0hPa | 2.6V | 00:00:00 | 01:36:47 | 00:00:00 | |
| SP3WXH-11 | 2026-08-31 12:27:13 | 54.48203 | 14.11168 | 64° | 20km/h | 27748m | 4.6m/s | -48.0°C | 1.1% | 17.7hPa | 2.6V | 00:00:00 | 00:00:00 | 00:00:00 | |
| DF8AY-15 | 2026-08-31 12:27:11 | 54.48202 | 14.11160 | 77° | 11km/h | 27742m | 6.7m/s | -48.0°C | 3.5% | 17.7hPa | 2.6V | 00:00:00 | 01:36:44 | 00:00:00 | |
| DL1XH1-15 | 2026-08-31 12:27:10 | 54.48203 | 14.11119 | 69° | 11km/h | 27708m | 5m/s | -48.1°C | 3.4% | 17.8hPa | 2.6V | 08:30:00 | 01:36:38 | 00:00:00 | |
| AA1-15 | 2026-08-31 12:27:08 | 54.48203 | 14.11136 | 108° | 16km/h | 27725m | 5.2m/s | -48.1°C | 0.7% | 17.8hPa | 2.7V | 18:12:15 | 01:36:41 | 00:00:00 | |
| DL1XH-15 | 2026-08-31 12:27:08 | 54.48204 | 14.11124 | 84° | 13km/h | 27713m | 5.8m/s | -48.1°C | 3.4% | 17.9hPa | 2.6V | 08:30:00 | 01:36:39 | 00:00:00 | |
| DL1XH-west | 2026-08-31 12:27:06 | 54.48204 | 14.11124 | 84° | 13km/h | 27713m | 5.8m/s | -48.1°C | 0.8% | 17.9hPa | 2.6V | 18:12:15 | 01:36:39 | 00:00:00 | |
| DM0DOS-11 | 2026-08-31 12:27:06 | 54.48201 | 14.11109 | 33° | 2km/h | 27684m | 5.1m/s | -48.1°C | 3.5% | 17.9hPa | 2.7V | 08:30:00 | 01:36:34 | 00:00:00 | |
| DF8AY | 2026-08-31 12:27:05 | 54.48203 | 14.11119 | 70° | 11km/h | 27708m | 5m/s | -48.1°C | 0.7% | 17.8hPa | 2.6V | 18:12:15 | 01:36:38 | 00:00:00 | |
| AM1SDL-15 | 2026-08-31 12:27:05 | 54.48203 | 14.11119 | 70° | 7km/h | 27708m | 4.9m/s | -48.0°C | 3.4% | 17.8hPa | 2.7V | 00:00:00 | 01:36:38 | 00:00:00 | |
| DO2SHX-10 | 2026-08-31 12:27:03 | 54.48201 | 14.11112 | 64° | 4km/h | 27697m | 7.1m/s | -48.0°C | 3.4% | 17.8hPa | 2.7V | 00:00:00 | 01:36:36 | 08:30:00 | |
| DL1XH-15 | 2026-08-31 12:27:01 | 54.48190 | 14.11103 | 34° | 7km/h | 27655m | 6.5m/s | -48.2°C | 3.5% | 18hPa | 2.7V | 08:30:00 | 01:36:29 | 00:00:00 | |
| AA1-15 | 2026-08-31 12:26:58 | 54.48195 | 14.11106 | 19° | 11km/h | 27667m | 5.4m/s | -48.1°C | 0.8% | 17.9hPa | 2.6V | 18:12:15 | 01:36:31 | 00:00:00 | |
| DL1XH1-15 | 2026-08-31 12:26:57 | 54.48189 | 14.11101 | 48° | 7km/h | 27649m | 5.3m/s | -48.3°C | 3.5% | 18hPa | 2.7V | 08:30:00 | 01:36:28 | 00:00:00 | |
| DF8AY | 2026-08-31 12:26:55 | 54.48188 | 14.11098 | 56° | 9km/h | 27644m | 5.1m/s | -48.2°C | 0.8% | 18hPa | 2.6V | 18:12:15 | 01:36:27 | 00:00:00 | |
| DO2SHX-10 | 2026-08-31 12:26:54 | 54.48188 | 14.11098 | 56° | 13km/h | 27644m | 5.1m/s | -48.2°C | 3.5% | 18.0hPa | 2.6V | 00:00:00 | 01:36:27 | 00:00:00 | |
| AM1SDL-15 | 2026-08-31 12:26:53 | 54.48186 | 14.11094 | 58° | 13km/h | 27638m | 6.8m/s | -48.3°C | 3.5% | 18.0hPa | 2.7V | 00:00:00 | 01:36:26 | 00:00:00 | |
| DO2SHX-10 | 2026-08-31 12:26:51 | 54.48182 | 14.11083 | 52° | 15km/h | 27626m | 5.1m/s | -48.2°C | 3.4% | 18.0hPa | 2.7V | 00:00:00 | 01:36:24 | 00:00:00 | |
| DL1XH1-15 | 2026-08-31 12:26:50 | 54.48172 | 14.11064 | 23° | 9km/h | 27593m | 7m/s | -48.4°C | 3.5% | 18.2hPa | 2.7V | 08:30:00 | 01:36:18 | 00:00:00 | |
| AA1-15 | 2026-08-31 12:26:47 | 54.48175 | 14.11067 | 56° | 5km/h | 27604m | 4.2m/s | -48.3°C | 0.8% | 18.1hPa | 2.6V | 18:12:15 | 01:36:20 | 00:00:00 | |
| DM0DOS-11 | 2026-08-31 12:26:45 | 54.48157 | 14.11056 | 11° | 16km/h | 27569m | 6.2m/s | -48.6°C | 3.6% | 18.2hPa | 2.6V | 08:30:00 | 01:36:14 | 00:00:00 | |
| DF8AY | 2026-08-31 12:26:44 | 54.48170 | 14.11062 | 18° | 15km/h | 27587m | 6.2m/s | -48.4°C | 0.8% | 18.2hPa | 2.7V | 18:12:15 | 01:36:17 | 00:00:00 | |
| DL1XH-west | 2026-08-31 12:26:43 | 54.48166 | 14.11060 | 16° | 18km/h | 27581m | 5.4m/s | -48.3°C | 0.8% | 18.2hPa | 2.7V | 18:12:15 | 01:36:16 | 00:00:00 | |
| SP3WXH-11 | 2026-08-31 12:26:42 | 54.48157 | 14.11056 | 11° | 15km/h | 27569m | 6.2m/s | -48.6°C | 1.2% | 18.3hPa | 2.6V | 00:00:00 | 00:00:00 | 00:00:00 | |
| DL1XH-15 | 2026-08-31 12:26:41 | 54.48135 | 14.11055 | 3° | 22km/h | 27541m | 4.7m/s | -48.7°C | 3.6% | 18.3hPa | 2.6V | 08:30:00 | 01:36:09 | 00:00:00 | |
| AM1SDL-15 | 2026-08-31 12:26:41 | 54.48157 | 14.11056 | 12° | 16km/h | 27570m | 6.2m/s | -48.5°C | 3.6% | 18.2hPa | 2.6V | 00:00:00 | 01:36:14 | 00:00:00 | |
| DO2SHX-10 | 2026-08-31 12:26:39 | 54.48150 | 14.11055 | 360° | 18km/h | 27559m | 4.6m/s | -48.6°C | 3.6% | 18.2hPa | 2.6V | 00:00:00 | 01:36:12 | 00:00:00 | |
| DL1XH1-15 | 2026-08-31 12:26:37 | 54.48130 | 14.11054 | 8° | 18km/h | 27535m | 6m/s | -48.8°C | 3.6% | 18.3hPa | 2.6V | 08:30:00 | 01:36:08 | 00:00:00 | |
| AA1-15 | 2026-08-31 12:26:36 | 54.48135 | 14.11055 | 4° | 22km/h | 27541m | 4.7m/s | -48.7°C | 0.9% | 18.3hPa | 2.6V | 18:12:15 | 01:36:09 | 00:00:00 | |
| DO2SHX-10 | 2026-08-31 12:26:36 | 54.48135 | 14.11055 | 4° | 18km/h | 27541m | 4.7m/s | -48.7°C | 3.6% | 18.2hPa | 2.6V | 00:00:00 | 01:36:09 | 08:30:00 | |
| DM0DOS-11 | 2026-08-31 12:26:35 | 54.48119 | 14.11044 | 35° | 11km/h | 27511m | 6.5m/s | -48.8°C | 3.6% | 18.4hPa | 2.7V | 08:30:00 | 01:36:04 | 00:00:00 | |
| DF8AY | 2026-08-31 12:26:34 | 54.48119 | 14.11044 | 36° | 11km/h | 27511m | 6.5m/s | -48.8°C | 0.9% | 18.4hPa | 2.7V | 18:12:15 | 01:36:04 | 00:00:00 | |
| DL1XH-west | 2026-08-31 12:26:33 | 54.48123 | 14.11050 | 37° | 11km/h | 27523m | 5.5m/s | -48.7°C | 0.8% | 18.3hPa | 2.7V | 18:12:15 | 01:36:06 | 00:00:00 | |
| DO2SHX-10 | 2026-08-31 12:26:33 | 54.48123 | 14.11050 | 37° | 11km/h | 27523m | 5.4m/s | -48.6°C | 3.6% | 18.3hPa | 2.7V | 00:00:00 | 01:36:06 | 00:00:00 | |
| DL1XH1-15 | 2026-08-31 12:26:30 | 54.48106 | 14.11037 | 29° | 5km/h | 27477m | 4.8m/s | -48.6°C | 3.6% | 18.4hPa | 2.7V | 08:30:00 | 01:35:58 | 00:00:00 | |
| AA1-15 | 2026-08-31 12:26:26 | 54.48106 | 14.11037 | 29° | 5km/h | 27477m | 4.8m/s | -48.6°C | 0.8% | 18.5hPa | 2.7V | 18:12:15 | 01:35:58 | 00:00:00 | |
| DF8AY-15 | 2026-08-31 12:26:26 | 54.48106 | 14.11036 | 30° | 11km/h | 27478m | 4.7m/s | -48.6°C | 3.6% | 18.4hPa | 2.7V | 00:00:00 | 01:35:58 | 00:00:00 | |
| DM0DOS-11 | 2026-08-31 12:26:25 | 54.48096 | 14.11030 | 21° | 13km/h | 27455m | 6m/s | -48.7°C | 3.7% | 18.5hPa | 2.7V | 08:30:00 | 01:35:54 | 00:00:00 | |
| DF8AY | 2026-08-31 12:26:23 | 54.48102 | 14.11034 | 17° | 11km/h | 27465m | 5.5m/s | -48.7°C | 0.9% | 18.5hPa | 2.6V | 18:12:15 | 01:35:56 | 00:00:00 | |
| DL1XH-west | 2026-08-31 12:26:22 | 54.48099 | 14.11032 | 16° | 13km/h | 27460m | 5m/s | -48.8°C | 0.8% | 18.5hPa | 2.6V | 18:12:15 | 01:35:55 | 00:00:00 | |
| DL1XH-15 | 2026-08-31 12:26:21 | 54.48085 | 14.11023 | 347° | 13km/h | 27426m | 6.2m/s | -48.5°C | 3.5% | 18.6hPa | 2.6V | 08:30:00 | 01:35:49 | 00:00:00 | |
| AA1-15 | 2026-08-31 12:26:15 | 54.48082 | 14.11025 | 338° | 15km/h | 27421m | 4.8m/s | -48.5°C | 0.8% | 18.6hPa | 2.7V | 18:12:15 | 01:35:48 | 00:00:00 | |
| DF8AY | 2026-08-31 12:26:14 | 54.48065 | 14.11043 | 329° | 13km/h | 27377m | 5m/s | -48.5°C | 0.8% | 18.8hPa | 2.7V | 18:12:15 | 01:35:40 | 00:00:00 | |
| DM0DOS-11 | 2026-08-31 12:26:12 | 54.48073 | 14.11034 | 314° | 5km/h | 27399m | 4.4m/s | -48.5°C | 3.5% | 18.7hPa | 2.6V | 08:30:00 | 01:35:44 | 00:00:00 | |
| DL1XH-west | 2026-08-31 12:26:11 | 54.48073 | 14.11034 | 314° | 5km/h | 27399m | 4.4m/s | -48.5°C | 0.8% | 18.7hPa | 2.6V | 18:12:15 | 01:35:44 | 00:00:00 | |
| SP3WXH-11 | 2026-08-31 12:26:11 | 54.48072 | 14.11036 | 322° | 5km/h | 27395m | 5.2m/s | -48.5°C | 1.1% | 18.7hPa | 2.7V | 00:00:00 | 00:00:00 | 00:00:00 | |
| DO2SHX-10 | 2026-08-31 12:26:09 | 54.48070 | 14.11038 | 330° | 11km/h | 27389m | 6.1m/s | -48.4°C | 3.5% | 18.7hPa | 2.7V | 00:00:00 | 01:35:42 | 08:30:00 | |
| DL1XH-15 | 2026-08-31 12:26:08 | 54.48063 | 14.11045 | 321° | 9km/h | 27372m | 5.9m/s | -48.5°C | 3.6% | 18.8hPa | 2.6V | 08:30:00 | 01:35:39 | 00:00:00 | |
| DM0DOS-11 | 2026-08-31 12:26:06 | 54.48058 | 14.11049 | 26° | 9km/h | 27343m | 5.7m/s | -48.6°C | 3.6% | 18.8hPa | 2.7V | 08:30:00 | 01:35:34 | 00:00:00 | |
| AA1-15 | 2026-08-31 12:26:04 | 54.48061 | 14.11049 | 286° | 4km/h | 27360m | 4.7m/s | -48.6°C | 0.9% | 18.8hPa | 2.6V | 18:12:15 | 01:35:37 | 00:00:00 | |
| DF8AY | 2026-08-31 12:26:02 | 54.48060 | 14.11050 | 19° | 4km/h | 27349m | 6.5m/s | -48.7°C | 0.8% | 18.9hPa | 2.7V | 18:12:15 | 01:35:35 | 00:00:00 | |
| DL1XH-15 | 2026-08-31 12:26:01 | 54.48055 | 14.11037 | 156° | 5km/h | 27316m | 4.3m/s | -48.9°C | 3.6% | 18.9hPa | 2.7V | 08:30:00 | 01:35:29 | 00:00:00 | |
| DL1XH-west | 2026-08-31 12:26:00 | 54.48056 | 14.11047 | 37° | 11km/h | 27338m | 4.8m/s | -48.7°C | 0.8% | 18.9hPa | 2.6V | 18:12:15 | 01:35:33 | 00:00:00 | |
| DO2SHX-10 | 2026-08-31 12:26:00 | 54.48056 | 14.11047 | 37° | 9km/h | 27338m | 4.7m/s | -48.7°C | 3.6% | 18.8hPa | 2.6V | 00:00:00 | 01:35:33 | 00:00:00 | |
| DO2SHX-10 | 2026-08-31 12:25:57 | 54.48054 | 14.11038 | 124° | 5km/h | 27321m | 5.8m/s | -48.8°C | 3.6% | 18.9hPa | 2.7V | 00:00:00 | 01:35:30 | 00:00:00 | |
| DM0DOS-11 | 2026-08-31 12:25:56 | 54.48057 | 14.11042 | 251° | 7km/h | 27288m | 6.5m/s | -48.5°C | 3.5% | 19hPa | 2.7V | 08:30:00 | 01:35:24 | 00:00:00 | |
| DL1XH1-15 | 2026-08-31 12:25:56 | 54.48056 | 14.11036 | 173° | 4km/h | 27311m | 5.8m/s | -48.9°C | 3.6% | 18.9hPa | 2.7V | 08:30:00 | 01:35:28 | 00:00:00 | |
| AA1-15 | 2026-08-31 12:25:54 | 54.48057 | 14.11038 | 277° | 4km/h | 27299m | 5.3m/s | -48.8°C | 0.8% | 19hPa | 2.6V | 18:12:15 | 01:35:26 | 00:00:00 | |
| DF8AY | 2026-08-31 12:25:52 | 54.48057 | 14.11040 | 272° | 5km/h | 27294m | 5.4m/s | -48.6°C | 0.8% | 19hPa | 2.6V | 18:12:15 | 01:35:25 | 00:00:00 | |
| DL1XH-west | 2026-08-31 12:25:50 | 54.48058 | 14.11045 | 241° | 9km/h | 27282m | 4.9m/s | -48.5°C | 0.8% | 19hPa | 2.7V | 18:12:15 | 01:35:23 | 00:00:00 | |
| DL1XH-15 | 2026-08-31 12:25:49 | 54.48058 | 14.11054 | 357° | 5km/h | 27261m | 5.1m/s | -48.6°C | 3.5% | 19.1hPa | 2.6V | 08:30:00 | 01:35:19 | 00:00:00 | |
| EDDB2-12 | 2026-08-31 12:25:48 | 54.48060 | 14.11052 | 263° | 5km/h | 27273m | 5.7m/s | -48.7°C | 1.1% | 19.1hPa | 2.6V | 00:00:00 | 00:00:00 | 00:00:00 | |
| S3001 | 2026-08-31 12:25:47 | 54.48059 | 14.11054 | 310° | 4km/h | 27267m | 6.2m/s | -48.6°C | 1.1% | 19.1hPa | 2.6V | 00:00:00 | 00:00:00 | 00:00:00 | |
| DM0DOS-11 | 2026-08-31 12:25:45 | 54.48065 | 14.11047 | 181° | 18km/h | 27234m | 5.1m/s | -48.8°C | 3.5% | 19.1hPa | 2.6V | 08:30:00 | 01:35:14 | 00:00:00 | |
| AA1-15 | 2026-08-31 12:25:43 | 54.48061 | 14.11048 | 166° | 15km/h | 27240m | 5.7m/s | -48.8°C | 0.8% | 19.2hPa | 2.6V | 18:12:15 | 01:35:15 | 00:00:00 | |
| DO2SHX-10 | 2026-08-31 12:25:42 | 54.48061 | 14.11048 | 166° | 13km/h | 27240m | 5.7m/s | -48.7°C | 3.5% | 19.1hPa | 2.6V | 00:00:00 | 01:35:15 | 08:30:00 | |
| AM1SDL-15 | 2026-08-31 12:25:41 | 54.48065 | 14.11047 | 182° | 9km/h | 27235m | 5.1m/s | -48.7°C | 3.5% | 19.1hPa | 2.6V | 00:00:00 | 01:35:14 | 00:00:00 | |
| SP3WXH-11 | 2026-08-31 12:25:40 | 54.48073 | 14.11051 | 204° | 15km/h | 27224m | 5.5m/s | -48.8°C | 1.1% | 19.2hPa | 2.6V | 00:00:00 | 00:00:00 | 00:00:00 | |
| DL1XH1-15 | 2026-08-31 12:25:39 | 54.48079 | 14.11056 | 162° | 4km/h | 27202m | 5.8m/s | -48.9°C | 3.6% | 19.2hPa | 2.6V | 08:30:00 | 01:35:08 | 00:00:00 | |
| DL1XH-west | 2026-08-31 12:25:39 | 54.48073 | 14.11051 | 204° | 15km/h | 27224m | 5.5m/s | -48.8°C | 0.7% | 19.2hPa | 2.7V | 18:12:15 | 01:35:12 | 00:00:00 | |
| DF8AY | 2026-08-31 12:25:33 | 54.48085 | 14.11051 | 172° | 7km/h | 27174m | 4.1m/s | -49.2°C | 0.9% | 19.4hPa | 2.6V | 18:12:15 | 01:35:03 | 00:00:00 | |
| DM0DOS-11 | 2026-08-31 12:25:32 | 54.48084 | 14.11052 | 165° | 4km/h | 27179m | 5.8m/s | -49.1°C | 3.6% | 19.3hPa | 2.6V | 08:30:00 | 01:35:04 | 00:00:00 | |
| AA1-15 | 2026-08-31 12:25:32 | 54.48083 | 14.11053 | 149° | 5km/h | 27185m | 6.4m/s | -49°C | 0.9% | 19.3hPa | 2.7V | 18:12:15 | 01:35:05 | 00:00:00 | |
| DL1XH-west | 2026-08-31 12:25:28 | 54.48091 | 14.11049 | 164° | 16km/h | 27163m | 6.9m/s | -49.2°C | 0.9% | 19.4hPa | 2.7V | 18:12:15 | 01:35:01 | 00:00:00 | |
| DL1XH-15 | 2026-08-31 12:25:27 | 54.48101 | 14.11045 | 169° | 22km/h | 27151m | 6m/s | -49.2°C | 3.6% | 19.4hPa | 2.6V | 08:30:00 | 01:34:59 | 00:00:00 | |
| DM0DOS-11 | 2026-08-31 12:25:25 | 54.48127 | 14.11040 | 169° | 18km/h | 27122m | 5m/s | -49°C | 3.6% | 19.5hPa | 2.7V | 08:30:00 | 01:34:54 | 00:00:00 | |
| DO2SHX-10 | 2026-08-31 12:25:25 | 54.48106 | 14.11044 | 176° | 20km/h | 27145m | 6.0m/s | -49.2°C | 3.7% | 19.4hPa | 2.7V | 00:00:00 | 01:34:58 | 00:00:00 | |
| DF8AY-15 | 2026-08-31 12:25:23 | 54.48117 | 14.11042 | 176° | 13km/h | 27134m | 6.1m/s | -49.1°C | 3.7% | 19.4hPa | 2.7V | 00:00:00 | 01:34:56 | 00:00:00 | |
| DL1XH-15 | 2026-08-31 12:25:22 | 54.48141 | 14.11040 | 177° | 9km/h | 27096m | 5.7m/s | -49.1°C | 3.5% | 19.6hPa | 2.7V | 08:30:00 | 01:34:49 | 00:00:00 | |
| AA1-15 | 2026-08-31 12:25:22 | 54.48128 | 14.11040 | 170° | 18km/h | 27122m | 5m/s | -49.1°C | 0.9% | 19.5hPa | 2.7V | 18:12:15 | 01:34:54 | 00:00:00 | |
| DL1XH1-15 | 2026-08-31 12:25:20 | 54.48144 | 14.11039 | 164° | 15km/h | 27089m | 6.2m/s | -49.1°C | 3.5% | 19.6hPa | 2.6V | 08:30:00 | 01:34:48 | 00:00:00 | |
| DL1XH-west | 2026-08-31 12:25:18 | 54.48137 | 14.11039 | 195° | 7km/h | 27105m | 5m/s | -49.1°C | 0.8% | 19.6hPa | 2.6V | 18:12:15 | 01:34:51 | 00:00:00 | |
| DF8AY | 2026-08-31 12:25:18 | 54.48139 | 14.11040 | 194° | 7km/h | 27100m | 4m/s | -49.1°C | 0.8% | 19.6hPa | 2.7V | 18:12:15 | 01:34:50 | 00:00:00 | |
| AM1SDL-15 | 2026-08-31 12:25:17 | 54.48138 | 14.11040 | 194° | 16km/h | 27101m | 3.9m/s | -49.0°C | 3.5% | 19.5hPa | 2.7V | 00:00:00 | 01:34:50 | 00:00:00 | |
| DO2SHX-10 | 2026-08-31 12:25:16 | 54.48140 | 14.11040 | 178° | 15km/h | 27096m | 5.6m/s | -49.0°C | 3.5% | 19.5hPa | 2.7V | 00:00:00 | 01:34:49 | 00:00:00 | |
| DM0DOS-11 | 2026-08-31 12:25:12 | 54.48162 | 14.11021 | 137° | 22km/h | 27066m | 6.3m/s | -49°C | 3.6% | 19.7hPa | 2.7V | 08:30:00 | 01:34:44 | 00:00:00 | |
| AA1-15 | 2026-08-31 12:25:10 | 54.48165 | 14.11015 | 134° | 20km/h | 27060m | 4.9m/s | -49.1°C | 0.9% | 19.7hPa | 2.7V | 18:12:15 | 01:34:43 | 00:00:00 | |
| DO2SHX-10 | 2026-08-31 12:25:10 | 54.48165 | 14.11014 | 134° | 22km/h | 27061m | 4.9m/s | -49.1°C | 3.6% | 19.6hPa | 2.7V | 00:00:00 | 01:34:43 | 00:00:00 | |
| DL1XH-15 | 2026-08-31 12:25:08 | 54.48179 | 14.10989 | 124° | 15km/h | 27038m | 5.8m/s | -49.4°C | 3.8% | 19.8hPa | 2.7V | 08:30:00 | 01:34:39 | 00:00:00 | |
| DL1XH-west | 2026-08-31 12:25:08 | 54.48173 | 14.11001 | 135° | 22km/h | 27049m | 6.1m/s | -49.2°C | 1% | 19.7hPa | 2.6V | 18:12:15 | 01:34:41 | 00:00:00 | |
| DF8AY | 2026-08-31 12:25:07 | 54.48176 | 14.10995 | 132° | 20km/h | 27043m | 4.7m/s | -49.3°C | 1% | 19.7hPa | 2.6V | 18:12:15 | 01:34:40 | 00:00:00 | |
| DL1XH1-15 | 2026-08-31 12:25:07 | 54.48181 | 14.10984 | 109° | 11km/h | 27031m | 7.2m/s | -49.4°C | 3.7% | 19.8hPa | 2.7V | 08:30:00 | 01:34:38 | 00:00:00 | |
| DO2SHX-10 | 2026-08-31 12:25:07 | 54.48176 | 14.10995 | 132° | 15km/h | 27043m | 4.6m/s | -49.3°C | 3.8% | 19.7hPa | 2.7V | 00:00:00 | 01:34:40 | 00:00:00 | |
| SONCRA | 2026-08-31 12:25:06 | 54.48181 | 14.10984 | 109° | 11km/h | 27031m | 7.2m/s | -49.4°C | 1.2% | 19.8hPa | 2.7V | 00:00:00 | 00:00:00 | 00:00:00 | |
| DM0DOS-11 | 2026-08-31 12:25:05 | 54.48186 | 14.10965 | 145° | 16km/h | 27003m | 5.8m/s | -49.6°C | 3.6% | 19.9hPa | 2.7V | 08:30:00 | 01:34:33 | 00:00:00 | |
| AM1SDL-15 | 2026-08-31 12:25:05 | 54.48180 | 14.10984 | 110° | 16km/h | 27032m | 7.2m/s | -49.3°C | 3.7% | 19.7hPa | 2.7V | 00:00:00 | 01:34:38 | 00:00:00 | |
| DO2SHX-10 | 2026-08-31 12:25:04 | 54.48181 | 14.10980 | 86° | 9km/h | 27025m | 5.1m/s | -49.4°C | 3.7% | 19.8hPa | 2.7V | 00:00:00 | 01:34:37 | 00:00:00 | |
| DL1XH-15 | 2026-08-31 12:25:01 | 54.48199 | 14.10940 | 102° | 22km/h | 26981m | 6.1m/s | -49.6°C | 3.8% | 19.9hPa | 2.6V | 08:30:00 | 01:34:29 | 00:00:00 | |
| DO2SHX-10 | 2026-08-31 12:25:01 | 54.48183 | 14.10969 | 137° | 16km/h | 27009m | 6.2m/s | -49.6°C | 3.6% | 19.8hPa | 2.6V | 00:00:00 | 01:34:34 | 00:00:00 | |
| DL1XH1-15 | 2026-08-31 12:25:00 | 54.48199 | 14.10930 | 87° | 22km/h | 26975m | 5m/s | -49.6°C | 3.7% | 19.9hPa | 2.6V | 08:30:00 | 01:34:28 | 00:00:00 | |
| AA1-15 | 2026-08-31 12:24:59 | 54.48190 | 14.10961 | 145° | 20km/h | 26998m | 4.5m/s | -49.7°C | 0.9% | 19.9hPa | 2.7V | 18:12:15 | 01:34:32 | 00:00:00 | |
| DL1XH-west | 2026-08-31 12:24:57 | 54.48197 | 14.10948 | 121° | 20km/h | 26987m | 6.8m/s | -49.7°C | 1% | 19.9hPa | 2.6V | 18:12:15 | 01:34:30 | 00:00:00 | |
| DO2SHX-10 | 2026-08-31 12:24:55 | 54.48199 | 14.10930 | 88° | 22km/h | 26975m | 5.0m/s | -49.5°C | 3.7% | 19.9hPa | 2.6V | 00:00:00 | 01:34:28 | 00:00:00 | |
| AM1SDL-15 | 2026-08-31 12:24:53 | 54.48198 | 14.10911 | 80° | 16km/h | 26964m | 5.8m/s | -49.4°C | 3.7% | 19.9hPa | 2.7V | 00:00:00 | 01:34:26 | 00:00:00 | |
| DM0DOS-11 | 2026-08-31 12:24:52 | 54.48193 | 14.10887 | 56° | 18km/h | 26946m | 7.2m/s | -49.5°C | 3.7% | 20hPa | 2.6V | 08:30:00 | 01:34:23 | 00:00:00 | |
| DO2SHX-10 | 2026-08-31 12:24:52 | 54.48197 | 14.10902 | 76° | 18km/h | 26958m | 5.2m/s | -49.4°C | 3.7% | 20.0hPa | 2.7V | 00:00:00 | 01:34:25 | 00:00:00 | |
| DO2SHX-10 | 2026-08-31 12:24:50 | 54.48190 | 14.10881 | 53° | 15km/h | 26940m | 5.4m/s | -49.4°C | 3.6% | 20.1hPa | 2.7V | 00:00:00 | 01:34:22 | 00:00:00 | |
| DL1XH-15 | 2026-08-31 12:24:48 | 54.48187 | 14.10866 | 112° | 11km/h | 26922m | 5.8m/s | -49.5°C | 3.6% | 20.1hPa | 2.7V | 08:30:00 | 01:34:19 | 00:00:00 | |
| AA1-15 | 2026-08-31 12:24:48 | 54.48188 | 14.10876 | 57° | 13km/h | 26935m | 4.8m/s | -49.4°C | 0.8% | 20.1hPa | 2.7V | 18:12:15 | 01:34:21 | 00:00:00 | |
| DL1XH1-15 | 2026-08-31 12:24:47 | 54.48189 | 14.10861 | 119° | 15km/h | 26917m | 4.4m/s | -49.5°C | 3.6% | 20.1hPa | 2.6V | 08:30:00 | 01:34:18 | 00:00:00 | |
| DL1XH-west | 2026-08-31 12:24:47 | 54.48187 | 14.10871 | 79° | 11km/h | 26928m | 6.9m/s | -49.5°C | 0.9% | 20.1hPa | 2.7V | 18:12:15 | 01:34:20 | 00:00:00 | |
| DF8AY | 2026-08-31 12:24:46 | 54.48187 | 14.10866 | 113° | 11km/h | 26922m | 5.9m/s | -49.5°C | 0.9% | 20.1hPa | 2.7V | 18:12:15 | 01:34:19 | 00:00:00 | |
| DO2SHX-10 | 2026-08-31 12:24:46 | 54.48187 | 14.10866 | 113° | 15km/h | 26922m | 5.8m/s | -49.5°C | 3.6% | 20.1hPa | 2.7V | 00:00:00 | 01:34:19 | 08:30:00 | |
| DM0DOS-11 | 2026-08-31 12:24:45 | 54.48191 | 14.10817 | 80° | 26km/h | 26888m | 5.2m/s | -49.6°C | 3.7% | 20.2hPa | 2.7V | 08:30:00 | 01:34:13 | 00:00:00 | |
| DO2SHX-10 | 2026-08-31 12:24:43 | 54.48192 | 14.10847 | 101° | 22km/h | 26906m | 6.9m/s | -49.6°C | 3.7% | 20.1hPa | 2.7V | 00:00:00 | 01:34:16 | 00:00:00 | |
| DL1XH-15 | 2026-08-31 12:24:41 | 54.48188 | 14.10778 | 75° | 22km/h | 26864m | 6.6m/s | -49.8°C | 3.7% | 20.3hPa | 2.7V | 08:30:00 | 01:34:09 | 00:00:00 | |
| AM1SDL-15 | 2026-08-31 12:24:41 | 54.48192 | 14.10828 | 83° | 22km/h | 26894m | 5.2m/s | -49.6°C | 3.7% | 20.1hPa | 2.7V | 00:00:00 | 01:34:14 | 00:00:00 | |
| DL1XH1-15 | 2026-08-31 12:24:40 | 54.48186 | 14.10769 | 64° | 20km/h | 26858m | 6m/s | -49.8°C | 3.7% | 20.3hPa | 2.7V | 08:30:00 | 01:34:08 | 00:00:00 | |
| AA1-15 | 2026-08-31 12:24:37 | 54.48189 | 14.10787 | 83° | 22km/h | 26870m | 5.2m/s | -49.7°C | 0.9% | 20.3hPa | 2.6V | 18:12:15 | 01:34:10 | 00:00:00 | |
| DL1XH-west | 2026-08-31 12:24:36 | 54.48188 | 14.10778 | 75° | 22km/h | 26864m | 6.6m/s | -49.8°C | 1% | 20.3hPa | 2.7V | 18:12:15 | 01:34:09 | 00:00:00 | |
| DF8AY | 2026-08-31 12:24:34 | 54.48182 | 14.10756 | 62° | 13km/h | 26846m | 6.3m/s | -49.8°C | 0.9% | 20.3hPa | 2.6V | 18:12:15 | 01:34:06 | 00:00:00 | |
| DO2SHX-10 | 2026-08-31 12:24:34 | 54.48184 | 14.10762 | 61° | 13km/h | 26853m | 5.0m/s | -49.6°C | 3.7% | 20.3hPa | 2.6V | 00:00:00 | 01:34:07 | 00:00:00 | |
| EDDB2-11 | 2026-08-31 12:24:33 | 54.48180 | 14.10751 | 68° | 7km/h | 26840m | 6.9m/s | -49.8°C | 1.2% | 20.4hPa | 2.6V | 00:00:00 | 00:00:00 | 00:00:00 | |
| DO2SHX-10 | 2026-08-31 12:24:31 | 54.48180 | 14.10748 | 83° | 5km/h | 26834m | 5.4m/s | -49.8°C | 3.7% | 20.3hPa | 2.6V | 00:00:00 | 01:34:04 | 00:00:00 | |
| AM1SDL-15 | 2026-08-31 12:24:29 | 54.48180 | 14.10743 | 84° | 11km/h | 26823m | 6.4m/s | -49.8°C | 3.6% | 20.4hPa | 2.6V | 00:00:00 | 01:34:02 | 00:00:00 | |
| DO2SHX-10 | 2026-08-31 12:24:28 | 54.48179 | 14.10738 | 80° | 15km/h | 26817m | 5.8m/s | -49.9°C | 3.7% | 20.4hPa | 2.6V | 00:00:00 | 01:34:01 | 00:00:00 | |
| DL1XH1-15 | 2026-08-31 12:24:27 | 54.48178 | 14.10719 | 91° | 16km/h | 26800m | 7m/s | -50°C | 3.8% | 20.5hPa | 2.7V | 08:30:00 | 01:33:58 | 00:00:00 | |
| DL1XH-west | 2026-08-31 12:24:26 | 54.48178 | 14.10726 | 86° | 16km/h | 26806m | 5.7m/s | -50.1°C | 1% | 20.5hPa | 2.7V | 18:12:15 | 01:33:59 | 00:00:00 | |
| DO2SHX-10 | 2026-08-31 12:24:25 | 54.48178 | 14.10719 | 92° | 13km/h | 26800m | 7.0m/s | -49.9°C | 3.8% | 20.4hPa | 2.6V | 00:00:00 | 01:33:58 | 00:00:00 | |
| DO2SHX-10 | 2026-08-31 12:24:22 | 54.48179 | 14.10703 | 81° | 13km/h | 26783m | 5.5m/s | -49.9°C | 3.8% | 20.5hPa | 2.6V | 00:00:00 | 01:33:55 | 00:00:00 | |
| DL1XH-15 | 2026-08-31 12:24:21 | 54.48168 | 14.10675 | 62° | 11km/h | 26747m | 5.8m/s | -50.1°C | 3.7% | 20.7hPa | 2.6V | 08:30:00 | 01:33:49 | 00:00:00 | |
| DL1XH1-15 | 2026-08-31 12:24:21 | 54.48166 | 14.10671 | 59° | 11km/h | 26740m | 6.2m/s | -50.2°C | 3.7% | 20.7hPa | 2.6V | 08:30:00 | 01:33:48 | 00:00:00 | |
| DF8AY | 2026-08-31 12:24:16 | 54.48159 | 14.10649 | 68° | 15km/h | 26716m | 7.2m/s | -50.1°C | 1% | 20.8hPa | 2.7V | 18:12:15 | 01:33:44 | 00:00:00 | |
| AA1-15 | 2026-08-31 12:24:15 | 54.48166 | 14.10671 | 59° | 11km/h | 26740m | 6.2m/s | -50.2°C | 1% | 20.7hPa | 2.6V | 18:12:15 | 01:33:48 | 00:00:00 | |
| S3001 | 2026-08-31 12:24:14 | 54.48165 | 14.10666 | 57° | 13km/h | 26734m | 7.0m/s | -50.2°C | 1.2% | 20.7hPa | 2.6V | 00:00:00 | 00:00:00 | 00:00:00 | |
| DO2SHX-10 | 2026-08-31 12:24:13 | 54.48162 | 14.10661 | 57° | 15km/h | 26728m | 5.6m/s | -50.0°C | 3.8% | 20.7hPa | 2.6V | 00:00:00 | 01:33:46 | 00:00:00 | |
| DM0DOS-11 | 2026-08-31 12:24:12 | 54.48158 | 14.10643 | 72° | 13km/h | 26710m | 5.5m/s | -50.2°C | 3.9% | 20.8hPa | 2.6V | 08:30:00 | 01:33:43 | 00:00:00 | |
| DO2SHX-10 | 2026-08-31 12:24:10 | 54.48158 | 14.10643 | 73° | 15km/h | 26710m | 5.5m/s | -50.2°C | 3.9% | 20.7hPa | 2.6V | 00:00:00 | 01:33:43 | 00:00:00 | |
| DL1XH-15 | 2026-08-31 12:24:08 | 54.48148 | 14.10617 | 44° | 24km/h | 26686m | 5.2m/s | -50.1°C | 3.8% | 20.8hPa | 2.7V | 08:30:00 | 01:33:39 | 00:00:00 | |
| DL1XH1-15 | 2026-08-31 12:24:07 | 54.48144 | 14.10610 | 42° | 24km/h | 26681m | 5.1m/s | -50.2°C | 3.8% | 20.9hPa | 2.7V | 08:30:00 | 01:33:38 | 00:00:00 | |
| SP3WXH-11 | 2026-08-31 12:24:07 | 54.48148 | 14.10617 | 44° | 24km/h | 26686m | 5.2m/s | -50.2°C | 1.2% | 20.8hPa | 2.7V | 00:00:00 | 00:00:00 | 00:00:00 | |
| DM0DOS-11 | 2026-08-31 12:24:05 | 54.48130 | 14.10583 | 59° | 13km/h | 26650m | 7.1m/s | -50.4°C | 3.7% | 20.9hPa | 2.7V | 08:30:00 | 01:33:33 | 00:00:00 | |
| AA1-15 | 2026-08-31 12:24:05 | 54.48144 | 14.10610 | 42° | 24km/h | 26681m | 5.1m/s | -50.2°C | 1% | 20.9hPa | 2.7V | 18:12:15 | 01:33:38 | 00:00:00 | |
| DL1XH-west | 2026-08-31 12:24:04 | 54.48139 | 14.10603 | 43° | 22km/h | 26675m | 6m/s | -50.2°C | 1% | 20.9hPa | 2.6V | 18:12:15 | 01:33:37 | 00:00:00 | |
| DF8AY | 2026-08-31 12:24:02 | 54.48128 | 14.10578 | 60° | 13km/h | 26644m | 5.3m/s | -50.3°C | 1% | 21hPa | 2.7V | 18:12:15 | 01:33:32 | 00:00:00 | |
| DJ2DS-15 | 2026-08-31 12:24:02 | 54.48132 | 14.10587 | 57° | 11km/h | 26657m | 5.6m/s | -50.4°C | 1.2% | 20.9hPa | 2.6V | 00:00:00 | 00:00:00 | 00:00:00 | |
| DL1XH-15 | 2026-08-31 12:24:01 | 54.48126 | 14.10567 | 101° | 5km/h | 26626m | 6m/s | -50.2°C | 3.7% | 21hPa | 2.6V | 08:30:00 | 01:33:29 | 00:00:00 | |
| DO2SHX-10 | 2026-08-31 12:24:01 | 54.48132 | 14.10587 | 58° | 13km/h | 26657m | 5.5m/s | -50.4°C | 3.8% | 20.9hPa | 2.7V | 00:00:00 | 01:33:34 | 00:00:00 | |
| DL1XH1-15 | 2026-08-31 12:24:00 | 54.48126 | 14.10565 | 104° | 5km/h | 26621m | 4.7m/s | -50.2°C | 3.8% | 21.1hPa | 2.7V | 08:30:00 | 01:33:28 | 00:00:00 | |
| AA1-15 | 2026-08-31 12:23:54 | 54.48126 | 14.10562 | 87° | 7km/h | 26616m | 5.5m/s | -50.3°C | 1% | 21.1hPa | 2.7V | 18:12:15 | 01:33:27 | 00:00:00 | |
| AM1SDL-15 | 2026-08-31 12:23:53 | 54.48126 | 14.10558 | 74° | 13km/h | 26610m | 6.6m/s | -50.4°C | 3.9% | 21.0hPa | 2.6V | 00:00:00 | 01:33:26 | 00:00:00 | |
| DL1XH-west | 2026-08-31 12:23:53 | 54.48126 | 14.10558 | 74° | 11km/h | 26610m | 6.7m/s | -50.5°C | 1.1% | 21.1hPa | 2.7V | 18:12:15 | 01:33:26 | 00:00:00 | |
| DM0DOS-11 | 2026-08-31 12:23:52 | 54.48120 | 14.10542 | 41° | 15km/h | 26592m | 5.7m/s | -50.4°C | 3.9% | 21.2hPa | 2.6V | 08:30:00 | 01:33:23 | 00:00:00 | |
| DF8AY-15 | 2026-08-31 12:23:52 | 54.48125 | 14.10553 | 66° | 9km/h | 26603m | 6.6m/s | -50.4°C | 3.9% | 21.1hPa | 2.6V | 00:00:00 | 01:33:25 | 00:00:00 | |
| DO2SHX-10 | 2026-08-31 12:23:49 | 54.48117 | 14.10539 | 25° | 11km/h | 26586m | 6.9m/s | -50.5°C | 3.9% | 21.2hPa | 2.6V | 00:00:00 | 01:33:22 | 00:00:00 | |
| DL1XH1-15 | 2026-08-31 12:23:47 | 54.48106 | 14.10539 | 355° | 13km/h | 26560m | 5.6m/s | -50.4°C | 3.9% | 21.3hPa | 2.6V | 08:30:00 | 01:33:18 | 00:00:00 | |
| SONDE2-11 | 2026-08-31 12:23:45 | 54.48105 | 14.10539 | 355° | 11km/h | 26560m | 5.6m/s | -50.4°C | 1.2% | 21.3hPa | 2.7V | 00:00:00 | 00:00:00 | 00:00:00 | |
| AA1-15 | 2026-08-31 12:23:43 | 54.48099 | 14.10541 | 340° | 13km/h | 26548m | 7.4m/s | -50.5°C | 1% | 21.3hPa | 2.7V | 18:12:15 | 01:33:16 | 00:00:00 | |
| DL1XH-west | 2026-08-31 12:23:42 | 54.48096 | 14.10544 | 330° | 13km/h | 26541m | 6.7m/s | -50.6°C | 1.1% | 21.4hPa | 2.7V | 18:12:15 | 01:33:15 | 00:00:00 | |
| AM1SDL-15 | 2026-08-31 12:23:41 | 54.48093 | 14.10546 | 337° | 9km/h | 26535m | 5.4m/s | -50.4°C | 3.8% | 21.3hPa | 2.7V | 00:00:00 | 01:33:14 | 00:00:00 | |
| DM0DOS-11 | 2026-08-31 12:23:41 | 54.48091 | 14.10548 | 354° | 11km/h | 26529m | 6.6m/s | -50.4°C | 3.8% | 21.4hPa | 2.6V | 08:30:00 | 01:33:13 | 00:00:00 | |
| DL1XH1-15 | 2026-08-31 12:23:40 | 54.48080 | 14.10541 | 336° | 5km/h | 26497m | 6.2m/s | -50.4°C | 3.8% | 21.5hPa | 2.6V | 08:30:00 | 01:33:08 | 00:00:00 | |
| DF8AY | 2026-08-31 12:23:36 | 54.48082 | 14.10541 | 16° | 7km/h | 26504m | 7.4m/s | -50.4°C | 0.9% | 21.5hPa | 2.7V | 18:12:15 | 01:33:09 | 00:00:00 | |
| AA1-15 | 2026-08-31 12:23:33 | 54.48077 | 14.10544 | 333° | 7km/h | 26485m | 6.3m/s | -50.5°C | 1.1% | 21.5hPa | 2.7V | 18:12:15 | 01:33:06 | 00:00:00 | |
| DM0DOS-11 | 2026-08-31 12:23:31 | 54.48070 | 14.10545 | 358° | 13km/h | 26465m | 6.1m/s | -50.4°C | 3.9% | 21.6hPa | 2.6V | 08:30:00 | 01:33:03 | 00:00:00 | |
| DL1XH-west | 2026-08-31 12:23:31 | 54.48073 | 14.10545 | 5° | 11km/h | 26471m | 5.9m/s | -50.3°C | 1.1% | 21.6hPa | 2.6V | 18:12:15 | 01:33:04 | 00:00:00 | |
| DF8AY | 2026-08-31 12:23:26 | 54.48056 | 14.10549 | 359° | 11km/h | 26440m | 7.5m/s | -50.6°C | 1% | 21.7hPa | 2.6V | 18:12:15 | 01:32:59 | 00:00:00 | |
| AA1-15 | 2026-08-31 12:23:22 | 54.48049 | 14.10551 | 294° | 7km/h | 26413m | 5.7m/s | -50.5°C | 1% | 21.8hPa | 2.6V | 18:12:15 | 01:32:55 | 00:00:00 | |
| DM0DOS-11 | 2026-08-31 12:23:21 | 54.48048 | 14.10557 | 294° | 5km/h | 26402m | 6.8m/s | -50.7°C | 3.9% | 21.8hPa | 2.7V | 08:30:00 | 01:32:53 | 00:00:00 | |
| DL1XH-west | 2026-08-31 12:23:21 | 54.48049 | 14.10554 | 287° | 7km/h | 26408m | 5m/s | -50.6°C | 1% | 21.8hPa | 2.7V | 18:12:15 | 01:32:54 | 00:00:00 | |
| DL1XH1-15 | 2026-08-31 12:23:20 | 54.48045 | 14.10559 | 336° | 4km/h | 26369m | 6m/s | -50.5°C | 3.8% | 21.9hPa | 2.7V | 08:30:00 | 01:32:48 | 00:00:00 | |
| DF8AY | 2026-08-31 12:23:16 | 54.48043 | 14.10560 | 0° | 5km/h | 26364m | 5m/s | -50.6°C | 1% | 21.9hPa | 2.7V | 18:12:15 | 01:32:47 | 00:00:00 | |
| AA1-15 | 2026-08-31 12:23:11 | 54.48037 | 14.10554 | 31° | 15km/h | 26345m | 5.6m/s | -50.7°C | 1.1% | 22hPa | 2.6V | 18:12:15 | 01:32:44 | 00:00:00 | |
| DM0DOS-11 | 2026-08-31 12:23:10 | 54.48034 | 14.10551 | 19° | 13km/h | 26339m | 6.8m/s | -50.6°C | 3.9% | 22hPa | 2.7V | 08:30:00 | 01:32:43 | 00:00:00 | |
| DO2SHX-10 | 2026-08-31 12:23:10 | 54.48034 | 14.10551 | 20° | 13km/h | 26339m | 6.7m/s | -50.5°C | 3.9% | 22.0hPa | 2.6V | 00:00:00 | 01:32:43 | 00:00:00 | |
| DL1XH-west | 2026-08-31 12:23:10 | 54.48034 | 14.10551 | 20° | 13km/h | 26339m | 6.8m/s | -50.6°C | 1% | 22hPa | 2.7V | 18:12:15 | 01:32:43 | 00:00:00 | |
| DF8AY-15 | 2026-08-31 12:23:09 | 54.48030 | 14.10551 | 360° | 11km/h | 26332m | 6.8m/s | -50.6°C | 4.0% | 22.0hPa | 2.6V | 00:00:00 | 01:32:42 | 00:00:00 | |
| DL1XH1-15 | 2026-08-31 12:23:07 | 54.48021 | 14.10555 | 6° | 7km/h | 26306m | 6.6m/s | -50.6°C | 3.8% | 22.1hPa | 2.6V | 08:30:00 | 01:32:38 | 00:00:00 | |
| DO2SHX-10 | 2026-08-31 12:23:07 | 54.48025 | 14.10553 | 336° | 9km/h | 26320m | 5.6m/s | -50.6°C | 4.0% | 22.0hPa | 2.6V | 00:00:00 | 01:32:40 | 00:00:00 | |
| DM0DOS-11 | 2026-08-31 12:23:05 | 54.48018 | 14.10546 | 84° | 11km/h | 26275m | 6.9m/s | -50.7°C | 3.9% | 22.2hPa | 2.6V | 08:30:00 | 01:32:33 | 00:00:00 | |
| DF8AY | 2026-08-31 12:23:03 | 54.48018 | 14.10553 | 49° | 4km/h | 26293m | 7.6m/s | -50.7°C | 1.1% | 22.2hPa | 2.7V | 18:12:15 | 01:32:36 | 00:00:00 | |
| AA1-15 | 2026-08-31 12:23:01 | 54.48018 | 14.10550 | 89° | 7km/h | 26281m | 4.7m/s | -50.7°C | 1% | 22.2hPa | 2.6V | 18:12:15 | 01:32:34 | 00:00:00 | |
| DL1XH-west | 2026-08-31 12:22:59 | 54.48017 | 14.10540 | 80° | 16km/h | 26268m | 6.7m/s | -50.6°C | 1% | 22.2hPa | 2.6V | 18:12:15 | 01:32:32 | 00:00:00 | |
| DL1XH-15 | 2026-08-31 12:22:58 | 54.48015 | 14.10518 | 80° | 13km/h | 26249m | 6.5m/s | -50.5°C | 3.8% | 22.3hPa | 2.7V | 08:30:00 | 01:32:29 | 00:00:00 | |
| DO2SHX-10 | 2026-08-31 12:22:58 | 54.48017 | 14.10532 | 79° | 16km/h | 26262m | 5.6m/s | -50.5°C | 3.9% | 22.2hPa | 2.7V | 00:00:00 | 01:32:31 | 08:30:00 | |
| DL1XH1-15 | 2026-08-31 12:22:57 | 54.48014 | 14.10513 | 73° | 11km/h | 26243m | 5.5m/s | -50.5°C | 3.8% | 22.3hPa | 2.6V | 08:30:00 | 01:32:28 | 00:00:00 | |
| DM0DOS-11 | 2026-08-31 12:22:55 | 54.48004 | 14.10497 | 23° | 9km/h | 26211m | 7.4m/s | -50.6°C | 3.9% | 22.4hPa | 2.7V | 08:30:00 | 01:32:23 | 00:00:00 | |
| DF8AY | 2026-08-31 12:22:52 | 54.48009 | 14.10502 | 35° | 13km/h | 26224m | 5.9m/s | -50.5°C | 1% | 22.4hPa | 2.7V | 18:12:15 | 01:32:25 | 00:00:00 | |
| AA1-15 | 2026-08-31 12:22:51 | 54.48007 | 14.10499 | 26° | 11km/h | 26218m | 6.1m/s | -50.6°C | 1% | 22.4hPa | 2.7V | 18:12:15 | 01:32:24 | 00:00:00 | |
| DL1XH1-15 | 2026-08-31 12:22:50 | 54.47997 | 14.10459 | 77° | 27km/h | 26173m | 5.9m/s | -50.7°C | 3.8% | 22.6hPa | 2.7V | 08:30:00 | 01:32:17 | 00:00:00 | |
| DL1XH-west | 2026-08-31 12:22:49 | 54.48003 | 14.10495 | 44° | 5km/h | 26205m | 5.8m/s | -50.6°C | 1% | 22.5hPa | 2.6V | 18:12:15 | 01:32:22 | 00:00:00 | |
| DO2SHX-10 | 2026-08-31 12:22:49 | 54.48003 | 14.10495 | 45° | 9km/h | 26205m | 5.8m/s | -50.6°C | 3.9% | 22.4hPa | 2.6V | 00:00:00 | 01:32:22 | 00:00:00 | |
| DL1XH-15 | 2026-08-31 12:22:48 | 54.48000 | 14.10481 | 76° | 22km/h | 26185m | 6.9m/s | -50.8°C | 3.9% | 22.5hPa | 2.7V | 08:30:00 | 01:32:19 | 00:00:00 | |
| DF8AY-15 | 2026-08-31 12:22:46 | 54.48000 | 14.10480 | 77° | 20km/h | 26186m | 6.9m/s | -50.7°C | 3.9% | 22.5hPa | 2.7V | 00:00:00 | 01:32:19 | 00:00:00 | |
| DM0DOS-11 | 2026-08-31 12:22:45 | 54.47992 | 14.10421 | 60° | 18km/h | 26149m | 6.5m/s | -50.8°C | 3.9% | 22.7hPa | 2.7V | 08:30:00 | 01:32:13 | 00:00:00 | |
| DF8AY | 2026-08-31 12:22:42 | 54.47995 | 14.10437 | 79° | 22km/h | 26161m | 5.9m/s | -50.7°C | 1% | 22.6hPa | 2.6V | 18:12:15 | 01:32:15 | 00:00:00 | |
| AA1-15 | 2026-08-31 12:22:41 | 54.47989 | 14.10414 | 49° | 18km/h | 26143m | 7.1m/s | -50.8°C | 1.1% | 22.7hPa | 2.7V | 18:12:15 | 01:32:12 | 00:00:00 | |
| DO2SHX-10 | 2026-08-31 12:22:40 | 54.47992 | 14.10421 | 61° | 18km/h | 26150m | 6.5m/s | -50.7°C | 3.9% | 22.6hPa | 2.7V | 00:00:00 | 01:32:13 | 00:00:00 | |
| DL1XH-15 | 2026-08-31 12:22:39 | 54.47979 | 14.10399 | 46° | 15km/h | 26124m | 7.3m/s | -50.8°C | 4% | 22.7hPa | 2.7V | 08:30:00 | 01:32:09 | 00:00:00 | |
| DL1XH1-15 | 2026-08-31 12:22:38 | 54.47977 | 14.10395 | 58° | 11km/h | 26117m | 6.3m/s | -50.8°C | 4% | 22.8hPa | 2.7V | 08:30:00 | 01:32:08 | 00:00:00 | |
| DL1XH-west | 2026-08-31 12:22:38 | 54.47986 | 14.10409 | 40° | 20km/h | 26136m | 5.7m/s | -50.7°C | 1.1% | 22.7hPa | 2.6V | 18:12:15 | 01:32:11 | 00:00:00 | |
| AM1SDL-15 | 2026-08-31 12:22:38 | 54.47986 | 14.10408 | 41° | 15km/h | 26137m | 5.7m/s | -50.7°C | 3.9% | 22.7hPa | 2.6V | 00:00:00 | 01:32:11 | 00:00:00 | |
| DO2SHX-10 | 2026-08-31 12:22:37 | 54.47982 | 14.10403 | 40° | 15km/h | 26131m | 5.3m/s | -50.7°C | 3.9% | 22.7hPa | 2.6V | 00:00:00 | 01:32:10 | 00:00:00 | |
| DO2SHX-10 | 2026-08-31 12:22:34 | 54.47976 | 14.10390 | 73° | 13km/h | 26112m | 5.1m/s | -50.7°C | 3.9% | 22.7hPa | 2.6V | 00:00:00 | 01:32:07 | 00:00:00 | |
| DM0DOS-11 | 2026-08-31 12:22:33 | 54.47970 | 14.10366 | 57° | 18km/h | 26088m | 5.4m/s | -50.7°C | 3.8% | 22.9hPa | 2.6V | 08:30:00 | 01:32:03 | 00:00:00 | |
| DF8AY | 2026-08-31 12:22:33 | 54.47954 | 14.10338 | 39° | 11km/h | 26037m | 7.2m/s | -50.9°C | 1.1% | 23hPa | 2.7V | 18:12:15 | 01:31:55 | 00:00:00 | |
| AA1-15 | 2026-08-31 12:22:29 | 54.47967 | 14.10360 | 57° | 15km/h | 26081m | 6.6m/s | -50.7°C | 0.9% | 22.9hPa | 2.6V | 18:12:15 | 01:32:02 | 00:00:00 | |
| DL1XH-15 | 2026-08-31 12:22:28 | 54.47963 | 14.10348 | 45° | 9km/h | 26063m | 5.9m/s | -50.9°C | 3.9% | 23hPa | 2.6V | 08:30:00 | 01:31:59 | 00:00:00 | |
| DL1XH1-15 | 2026-08-31 12:22:28 | 54.47961 | 14.10345 | 32° | 11km/h | 26056m | 7.3m/s | -50.8°C | 3.9% | 23hPa | 2.6V | 08:30:00 | 01:31:58 | 00:00:00 | |
| DL1XH-west | 2026-08-31 12:22:27 | 54.47965 | 14.10351 | 63° | 9km/h | 26068m | 5.7m/s | -50.9°C | 1% | 22.9hPa | 2.7V | 18:12:15 | 01:32:00 | 00:00:00 | |
| AM1SDL-15 | 2026-08-31 12:22:26 | 54.47963 | 14.10348 | 46° | 15km/h | 26063m | 5.8m/s | -50.9°C | 3.9% | 22.9hPa | 2.6V | 00:00:00 | 01:31:59 | 08:30:00 | |
| DF8AY-15 | 2026-08-31 12:22:25 | 54.47962 | 14.10345 | 33° | 22km/h | 26056m | 7.3m/s | -50.8°C | 3.9% | 22.9hPa | 2.6V | 00:00:00 | 01:31:58 | 00:00:00 | |
| DM0DOS-11 | 2026-08-31 12:22:23 | 54.47951 | 14.10330 | 71° | 11km/h | 26024m | 5.9m/s | -51°C | 4% | 23.1hPa | 2.6V | 08:30:00 | 01:31:53 | 00:00:00 | |
| AA1-15 | 2026-08-31 12:22:20 | 54.47949 | 14.10317 | 69° | 20km/h | 26012m | 7.2m/s | -50.9°C | 1.1% | 23.1hPa | 2.6V | 18:12:15 | 01:31:51 | 00:00:00 | |
| DL1XH-15 | 2026-08-31 12:22:19 | 54.47945 | 14.10300 | 74° | 22km/h | 25999m | 5.9m/s | -50.8°C | 3.9% | 23.2hPa | 2.7V | 08:30:00 | 01:31:49 | 00:00:00 | |
| DO2SHX-10 | 2026-08-31 12:22:19 | 54.47950 | 14.10325 | 73° | 18km/h | 26019m | 6.4m/s | -51.0°C | 4.0% | 23.1hPa | 2.7V | 00:00:00 | 01:31:52 | 00:00:00 | |
| DL1XH1-15 | 2026-08-31 12:22:17 | 54.47944 | 14.10291 | 82° | 20km/h | 25993m | 7.1m/s | -50.8°C | 3.9% | 23.2hPa | 2.7V | 08:30:00 | 01:31:48 | 00:00:00 | |
| DL1XH-west | 2026-08-31 12:22:17 | 54.47947 | 14.10309 | 69° | 22km/h | 26005m | 5.8m/s | -50.8°C | 1.1% | 23.2hPa | 2.7V | 18:12:15 | 01:31:50 | 00:00:00 | |
| DO2SHX-10 | 2026-08-31 12:22:16 | 54.47945 | 14.10300 | 75° | 20km/h | 25999m | 5.9m/s | -50.7°C | 3.9% | 23.1hPa | 2.7V | 00:00:00 | 01:31:49 | 00:00:00 | |
| SP3BTT-10 | 2026-08-31 12:22:15 | 54.47944 | 14.10291 | 83° | 26km/h | 25993m | 7.1m/s | -50.8°C | 3.9% | 23.2hPa | 2.7V | 00:00:00 | 00:00:00 | 00:00:00 | |
| AM1SDL-15 | 2026-08-31 12:22:14 | 54.47944 | 14.10283 | 92° | 15km/h | 25987m | 5.7m/s | -50.8°C | 3.9% | 23.2hPa | 2.7V | 00:00:00 | 01:31:47 | 00:00:00 | |
| DM0DOS-11 | 2026-08-31 12:22:13 | 54.47942 | 14.10258 | 61° | 13km/h | 25961m | 5.9m/s | -50.9°C | 3.9% | 23.3hPa | 2.7V | 08:30:00 | 01:31:43 | 00:00:00 | |
| DB0NH | 2026-08-31 12:22:11 | 54.47943 | 14.10263 | 72° | 16km/h | 25968m | 6.1m/s | 0°C | 0% | 0hPa | 2.6V | 00:00:00 | 01:31:44 | 00:00:00 | |
| DO2SHX-10 | 2026-08-31 12:22:10 | 54.47942 | 14.10258 | 62° | 11km/h | 25962m | 5.9m/s | -50.9°C | 3.9% | 23.3hPa | 2.6V | 00:00:00 | 01:31:43 | 00:00:00 | |
| DL1XH-15 | 2026-08-31 12:22:08 | 54.47936 | 14.10242 | 57° | 15km/h | 25937m | 5.7m/s | -51°C | 4% | 23.4hPa | 2.6V | 08:30:00 | 01:31:39 | 00:00:00 | |
| DL1XH-west | 2026-08-31 12:22:07 | 54.47938 | 14.10246 | 60° | 9km/h | 25943m | 5.3m/s | -50.9°C | 1.1% | 23.4hPa | 2.6V | 18:12:15 | 01:31:40 | 00:00:00 | |
| DO2SHX-10 | 2026-08-31 12:22:07 | 54.47938 | 14.10246 | 60° | 15km/h | 25943m | 5.3m/s | -50.9°C | 3.9% | 23.3hPa | 2.7V | 00:00:00 | 01:31:40 | 00:00:00 | |
| DO2SHX-10 | 2026-08-31 12:22:04 | 54.47931 | 14.10228 | 57° | 24km/h | 25924m | 6.0m/s | -50.7°C | 3.9% | 23.4hPa | 2.7V | 00:00:00 | 01:31:37 | 08:30:00 | |
| AM1SDL-15 | 2026-08-31 12:22:02 | 54.47925 | 14.10211 | 62° | 15km/h | 25912m | 6.8m/s | -50.9°C | 4.0% | 23.5hPa | 2.6V | 00:00:00 | 01:31:35 | 00:00:00 | |
| DO2SHX-10 | 2026-08-31 12:22:01 | 54.47923 | 14.10203 | 63° | 18km/h | 25905m | 5.6m/s | -50.9°C | 4.1% | 23.5hPa | 2.6V | 00:00:00 | 01:31:34 | 00:00:00 | |
| DL1XH1-15 | 2026-08-31 12:22:00 | 54.47908 | 14.10170 | 46° | 7km/h | 25870m | 7.2m/s | -50.7°C | 3.9% | 23.6hPa | 2.6V | 08:30:00 | 01:31:28 | 00:00:00 | |
| SONCRA | 2026-08-31 12:21:59 | 54.47918 | 14.10190 | 54° | 16km/h | 25894m | 6.3m/s | -50.8°C | 1.3% | 23.6hPa | 2.6V | 00:00:00 | 00:00:00 | 00:00:00 | |
| DL1XH-15 | 2026-08-31 12:21:58 | 54.47910 | 14.10173 | 47° | 13km/h | 25876m | 5.7m/s | -50.9°C | 3.9% | 23.6hPa | 2.6V | 08:30:00 | 01:31:29 | 00:00:00 | |
| EDDB2-11 | 2026-08-31 12:21:58 | 54.47912 | 14.10177 | 48° | 16km/h | 25882m | 5.7m/s | -50.9°C | 1.3% | 23.6hPa | 2.6V | 00:00:00 | 00:00:00 | 00:00:00 | |
| DM0DOS-11 | 2026-08-31 12:21:57 | 54.47907 | 14.10168 | 42° | 4km/h | 25863m | 5.8m/s | -50.7°C | 3.9% | 23.7hPa | 2.6V | 08:30:00 | 01:31:27 | 00:00:00 | |
| DL1XH-west | 2026-08-31 12:21:56 | 54.47910 | 14.10173 | 48° | 13km/h | 25876m | 5.7m/s | -50.9°C | 1.1% | 23.6hPa | 2.6V | 18:12:15 | 01:31:29 | 00:00:00 | |
| DF8AY | 2026-08-31 12:21:51 | 54.47900 | 14.10155 | 50° | 18km/h | 25839m | 5.3m/s | -50.7°C | 1% | 23.8hPa | 2.6V | 18:12:15 | 01:31:23 | 00:00:00 | |
| AM1SDL-15 | 2026-08-31 12:21:50 | 54.47900 | 14.10155 | 51° | 15km/h | 25840m | 5.3m/s | -50.7°C | 3.8% | 23.7hPa | 2.6V | 00:00:00 | 01:31:23 | 00:00:00 | |
| DO2SHX-10 | 2026-08-31 12:21:49 | 54.47897 | 14.10149 | 54° | 18km/h | 25834m | 6.7m/s | -50.7°C | 3.9% | 23.7hPa | 2.6V | 00:00:00 | 01:31:22 | 00:00:00 | |
| DL1XH-15 | 2026-08-31 12:21:48 | 54.47891 | 14.10130 | 61° | 16km/h | 25815m | 5m/s | -50.7°C | 3.9% | 23.9hPa | 2.6V | 08:30:00 | 01:31:19 | 00:00:00 | |
| DM0DOS-11 | 2026-08-31 12:21:47 | 54.47886 | 14.10117 | 48° | 18km/h | 25802m | 5.8m/s | -50.9°C | 3.9% | 23.9hPa | 2.7V | 08:30:00 | 01:31:17 | 00:00:00 | |
| DL1XH-west | 2026-08-31 12:21:46 | 54.47891 | 14.10130 | 61° | 16km/h | 25815m | 5m/s | -50.7°C | 1% | 23.9hPa | 2.6V | 18:12:15 | 01:31:19 | 00:00:00 | |
| DF8AY | 2026-08-31 12:21:41 | 54.47863 | 14.10067 | 63° | 18km/h | 25737m | 5.2m/s | -50.7°C | 1.1% | 24.1hPa | 2.6V | 18:12:15 | 01:31:06 | 00:00:00 | |
| SONDE2-11 | 2026-08-31 12:21:41 | 54.47877 | 14.10101 | 61° | 5km/h | 25779m | 5.1m/s | -50.8°C | 1.2% | 24.0hPa | 2.7V | 00:00:00 | 00:00:00 | 00:00:00 | |
| DO2SHX-10 | 2026-08-31 12:21:40 | 54.47877 | 14.10101 | 62° | 7km/h | 25779m | 5.1m/s | -50.8°C | 3.9% | 23.9hPa | 2.7V | 00:00:00 | 01:31:13 | 00:00:00 | |
| S3001 | 2026-08-31 12:21:39 | 54.47876 | 14.10099 | 60° | 7km/h | 25774m | 4.7m/s | -50.8°C | 1.3% | 24.0hPa | 2.7V | 00:00:00 | 00:00:00 | 00:00:00 | |
| DL1XH-15 | 2026-08-31 12:21:38 | 54.47871 | 14.10086 | 49° | 18km/h | 25756m | 5.9m/s | -50.8°C | 3.9% | 24.1hPa | 2.7V | 08:30:00 | 01:31:09 | 00:00:00 | |
| DL1XH1-15 | 2026-08-31 12:21:37 | 54.47868 | 14.10080 | 52° | 18km/h | 25750m | 6.5m/s | -50.9°C | 3.9% | 24.1hPa | 2.7V | 08:30:00 | 01:31:08 | 00:00:00 | |
| AA1-15 | 2026-08-31 12:21:36 | 54.47870 | 14.10086 | 50° | 18km/h | 25756m | 5.9m/s | -50.8°C | 1.1% | 24.1hPa | 2.7V | 18:12:15 | 01:31:09 | 00:00:00 | |
| DF8AY | 2026-08-31 12:21:35 | 54.47855 | 14.10041 | 63° | 26km/h | 25719m | 5.6m/s | -50.9°C | 1% | 24.2hPa | 2.7V | 18:12:15 | 01:31:03 | 00:00:00 | |
| DL1XH-west | 2026-08-31 12:21:35 | 54.47868 | 14.10080 | 52° | 18km/h | 25750m | 6.5m/s | -50.9°C | 1.1% | 24.1hPa | 2.7V | 18:12:15 | 01:31:08 | 00:00:00 | |
| DO2SHX-10 | 2026-08-31 12:21:34 | 54.47865 | 14.10073 | 58° | 18km/h | 25743m | 6.6m/s | -50.8°C | 3.9% | 24.1hPa | 2.6V | 00:00:00 | 01:31:07 | 00:00:00 | |
| DO2SHX-10 | 2026-08-31 12:21:31 | 54.47858 | 14.10050 | 64° | 24km/h | 25726m | 7.2m/s | -50.8°C | 3.9% | 24.1hPa | 2.6V | 00:00:00 | 01:31:04 | 00:00:00 | |
| DL1XH1-15 | 2026-08-31 12:21:29 | 54.47845 | 14.10008 | 53° | 13km/h | 25690m | 5.9m/s | -50.8°C | 3.9% | 24.3hPa | 2.6V | 08:30:00 | 01:30:58 | 00:00:00 | |
| DL1XH-15 | 2026-08-31 12:21:28 | 54.47847 | 14.10012 | 60° | 11km/h | 25696m | 4.6m/s | -50.8°C | 3.9% | 24.3hPa | 2.6V | 08:30:00 | 01:30:59 | 00:00:00 | |
| DO2SHX-10 | 2026-08-31 12:21:28 | 54.47850 | 14.10023 | 65° | 15km/h | 25707m | 7.0m/s | -50.9°C | 3.9% | 24.2hPa | 2.7V | 00:00:00 | 01:31:01 | 00:00:00 | |
| DM0DOS-11 | 2026-08-31 12:21:27 | 54.47843 | 14.10003 | 45° | 15km/h | 25684m | 6.5m/s | -50.9°C | 3.9% | 24.3hPa | 2.7V | 08:30:00 | 01:30:57 | 00:00:00 | |
| DL1XH-west | 2026-08-31 12:21:24 | 54.47843 | 14.10003 | 46° | 15km/h | 25684m | 6.5m/s | -50.9°C | 1.1% | 24.3hPa | 2.7V | 18:12:15 | 01:30:57 | 00:00:00 | |
| DF8AY | 2026-08-31 12:21:21 | 54.47827 | 14.09973 | 57° | 26km/h | 25655m | 5.9m/s | -50.9°C | 1% | 24.4hPa | 2.6V | 18:12:15 | 01:30:52 | 00:00:00 | |
| DO2SHX-10 | 2026-08-31 12:21:19 | 54.47827 | 14.09973 | 57° | 29km/h | 25656m | 5.8m/s | -50.8°C | 3.8% | 24.4hPa | 2.6V | 00:00:00 | 01:30:52 | 00:00:00 | |
| DL1XH1-15 | 2026-08-31 12:21:16 | 54.47811 | 14.09926 | 65° | 31km/h | 25632m | 6.5m/s | -51.1°C | 3.9% | 24.5hPa | 2.6V | 08:30:00 | 01:30:48 | 00:00:00 | |
| DM0DOS-11 | 2026-08-31 12:21:15 | 54.47808 | 14.09914 | 71° | 27km/h | 25626m | 5.9m/s | -51.1°C | 3.9% | 24.6hPa | 2.6V | 08:30:00 | 01:30:47 | 00:00:00 | |
| DL1XH-west | 2026-08-31 12:21:14 | 54.47807 | 14.09903 | 76° | 24km/h | 25620m | 5.5m/s | -51.1°C | 1.1% | 24.6hPa | 2.6V | 18:12:15 | 01:30:46 | 00:00:00 | |
| DO2SHX-10 | 2026-08-31 12:21:13 | 54.47806 | 14.09903 | 76° | 24km/h | 25620m | 5.4m/s | -51.1°C | 3.9% | 24.5hPa | 2.7V | 00:00:00 | 01:30:46 | 00:00:00 | |
| DL1XH1-15 | 2026-08-31 12:21:10 | 54.47783 | 14.09835 | 48° | 26km/h | 25575m | 6.1m/s | -51°C | 3.9% | 24.8hPa | 2.7V | 08:30:00 | 01:30:38 | 00:00:00 | |
| EDDB2-12 | 2026-08-31 12:21:10 | 54.47798 | 14.09864 | 56° | 22km/h | 25598m | 4.7m/s | -50.9°C | 1.2% | 24.7hPa | 2.6V | 00:00:00 | 00:00:00 | 00:00:00 | |
| DM0DOS-11 | 2026-08-31 12:21:09 | 54.47779 | 14.09826 | 51° | 31km/h | 25569m | 6.4m/s | -51.1°C | 3.8% | 24.8hPa | 2.6V | 08:30:00 | 01:30:37 | 00:00:00 | |
| DF8AY | 2026-08-31 12:21:08 | 54.47795 | 14.09856 | 51° | 22km/h | 25592m | 6.2m/s | -50.9°C | 1.1% | 24.7hPa | 2.6V | 18:12:15 | 01:30:41 | 00:00:00 | |
| DL1XH-west | 2026-08-31 12:21:03 | 54.47769 | 14.09802 | 57° | 35km/h | 25558m | 6m/s | -51°C | 1% | 24.8hPa | 2.7V | 18:12:15 | 01:30:35 | 00:00:00 | |
| AA1-15 | 2026-08-31 12:21:03 | 54.47764 | 14.09790 | 58° | 31km/h | 25552m | 6.3m/s | -50.9°C | 1% | 24.8hPa | 2.7V | 18:12:15 | 01:30:34 | 00:00:00 | |
| DJ2DS-15 | 2026-08-31 12:21:01 | 54.47764 | 14.09790 | 58° | 31km/h | 25552m | 6.3m/s | -50.9°C | 1.2% | 24.8hPa | 2.6V | 00:00:00 | 00:00:00 | 00:00:00 | |
| SP3WXH-11 | 2026-08-31 12:21:00 | 54.47760 | 14.09779 | 55° | 27km/h | 25546m | 5.2m/s | -50.8°C | 1.2% | 24.8hPa | 2.6V | 00:00:00 | 00:00:00 | 00:00:00 | |
| DL1XH1-15 | 2026-08-31 12:20:59 | 54.47734 | 14.09740 | 29° | 24km/h | 25517m | 6.6m/s | -51.2°C | 3.9% | 24.9hPa | 2.6V | 08:30:00 | 01:30:28 | 00:00:00 | |
| DL1XH-15 | 2026-08-31 12:20:58 | 54.47739 | 14.09745 | 31° | 26km/h | 25523m | 5.7m/s | -51.1°C | 3.9% | 24.9hPa | 2.6V | 08:30:00 | 01:30:29 | 00:00:00 | |
| DF8AY | 2026-08-31 12:20:58 | 54.47745 | 14.09752 | 36° | 29km/h | 25529m | 5.3m/s | -50.9°C | 1% | 24.9hPa | 2.7V | 18:12:15 | 01:30:30 | 00:00:00 | |
| AA1-15 | 2026-08-31 12:20:52 | 54.47712 | 14.09714 | 39° | 35km/h | 25493m | 5.4m/s | -51.5°C | 1.1% | 25.1hPa | 2.7V | 18:12:15 | 01:30:24 | 00:00:00 | |
| DF8AY-15 | 2026-08-31 12:20:50 | 54.47705 | 14.09704 | 42° | 33km/h | 25488m | 4.3m/s | -51.5°C | 4.0% | 25.0hPa | 2.6V | 00:00:00 | 01:30:23 | 08:30:00 | |
| DO2SHX-10 | 2026-08-31 12:20:49 | 54.47698 | 14.09693 | 43° | 33km/h | 25483m | 6.2m/s | -51.6°C | 4.0% | 25.0hPa | 2.7V | 00:00:00 | 01:30:22 | 00:00:00 | |
| DL1XH-15 | 2026-08-31 12:20:48 | 54.47679 | 14.09666 | 32° | 31km/h | 25466m | 5m/s | -51.5°C | 4.1% | 25.2hPa | 2.7V | 08:30:00 | 01:30:19 | 00:00:00 | |
| DF8AY | 2026-08-31 12:20:47 | 54.47686 | 14.09674 | 38° | 31km/h | 25471m | 4.9m/s | -51.5°C | 1.2% | 25.1hPa | 2.7V | 18:12:15 | 01:30:20 | 00:00:00 | |
| AA1-15 | 2026-08-31 12:20:41 | 54.47625 | 14.09619 | 31° | 33km/h | 25426m | 5.9m/s | -51.8°C | 1.2% | 25.3hPa | 2.7V | 18:12:15 | 01:30:12 | 00:00:00 | |
| DO2SHX-10 | 2026-08-31 12:20:40 | 54.47632 | 14.09626 | 31° | 33km/h | 25432m | 5.1m/s | -51.8°C | 4.1% | 25.3hPa | 2.6V | 00:00:00 | 01:30:13 | 00:00:00 | |
| DL1XH-15 | 2026-08-31 12:20:39 | 54.47602 | 14.09597 | 27° | 35km/h | 25409m | 5.2m/s | -51.7°C | 4.1% | 25.4hPa | 2.6V | 08:30:00 | 01:30:09 | 00:00:00 | |
| DF8AY | 2026-08-31 12:20:37 | 54.47610 | 14.09604 | 28° | 37km/h | 25414m | 4.8m/s | -51.7°C | 1.1% | 25.4hPa | 2.6V | 18:12:15 | 01:30:10 | 00:00:00 | |
| DL1XH-west | 2026-08-31 12:20:30 | 54.47559 | 14.09571 | 6° | 33km/h | 25375m | 5.6m/s | -51.5°C | 1.2% | 25.5hPa | 2.6V | 18:12:15 | 01:30:03 | 00:00:00 | |
| AA1-15 | 2026-08-31 12:20:29 | 54.47551 | 14.09570 | 3° | 33km/h | 25369m | 5m/s | -51.5°C | 1.2% | 25.5hPa | 2.7V | 18:12:15 | 01:30:02 | 00:00:00 | |
| SP3WXH-11 | 2026-08-31 12:20:29 | 54.47551 | 14.09570 | 2° | 33km/h | 25369m | 5.0m/s | -51.5°C | 1.3% | 25.5hPa | 2.6V | 00:00:00 | 00:00:00 | 00:00:00 | |
| DL1XH-15 | 2026-08-31 12:20:28 | 54.47528 | 14.09568 | 4° | 26km/h | 25352m | 5m/s | -51.2°C | 4% | 25.6hPa | 2.6V | 08:30:00 | 01:29:59 | 00:00:00 | |
| DO2SHX-10 | 2026-08-31 12:20:28 | 54.47543 | 14.09569 | 2° | 27km/h | 25364m | 6.2m/s | -51.5°C | 4.1% | 25.5hPa | 2.6V | 00:00:00 | 01:30:01 | 00:00:00 | |
| DL1XH1-15 | 2026-08-31 12:20:27 | 54.47522 | 14.09567 | 6° | 27km/h | 25346m | 5.9m/s | -51.3°C | 4% | 25.6hPa | 2.6V | 08:30:00 | 01:29:58 | 00:00:00 | |
| DM0DOS-11 | 2026-08-31 12:20:27 | 54.47515 | 14.09566 | 8° | 29km/h | 25340m | 6.7m/s | -51.4°C | 4% | 25.7hPa | 2.6V | 08:30:00 | 01:29:57 | 00:00:00 | |
| DF8AY | 2026-08-31 12:20:26 | 54.47529 | 14.09568 | 4° | 26km/h | 25352m | 5m/s | -51.2°C | 1.1% | 25.6hPa | 2.6V | 18:12:15 | 01:29:59 | 00:00:00 | |
| DL1XH-west | 2026-08-31 12:20:20 | 54.47488 | 14.09557 | 9° | 20km/h | 25316m | 5m/s | -51.4°C | 1.2% | 25.8hPa | 2.6V | 18:12:15 | 01:29:53 | 00:00:00 | |
| AA1-15 | 2026-08-31 12:20:19 | 54.47483 | 14.09557 | 1° | 20km/h | 25311m | 5.2m/s | -51.4°C | 1.2% | 25.8hPa | 2.7V | 18:12:15 | 01:29:52 | 00:00:00 | |
| DL1XH1-15 | 2026-08-31 12:20:19 | 54.47461 | 14.09567 | 327° | 22km/h | 25287m | 7.4m/s | -51.2°C | 4% | 25.9hPa | 2.7V | 08:30:00 | 01:29:48 | 00:00:00 | |
| DO2SHX-10 | 2026-08-31 12:20:19 | 54.47483 | 14.09556 | 1° | 22km/h | 25311m | 5.2m/s | -51.3°C | 4.1% | 25.7hPa | 2.6V | 00:00:00 | 01:29:52 | 00:00:00 | |
| DL1XH-15 | 2026-08-31 12:20:18 | 54.47466 | 14.09562 | 334° | 24km/h | 25293m | 5m/s | -51.2°C | 4% | 25.8hPa | 2.6V | 08:30:00 | 01:29:49 | 00:00:00 | |
| DF8AY | 2026-08-31 12:20:15 | 54.47457 | 14.09573 | 320° | 22km/h | 25280m | 5.9m/s | -51.1°C | 1.1% | 25.9hPa | 2.7V | 18:12:15 | 01:29:47 | 00:00:00 | |
| DL1XH-west | 2026-08-31 12:20:09 | 54.47426 | 14.09605 | 331° | 20km/h | 25246m | 5.6m/s | -51.1°C | 1.2% | 26hPa | 2.7V | 18:12:15 | 01:29:41 | 00:00:00 | |
| AA1-15 | 2026-08-31 12:20:09 | 54.47421 | 14.09609 | 336° | 20km/h | 25240m | 5.7m/s | -51°C | 1.1% | 26hPa | 2.6V | 18:12:15 | 01:29:40 | 00:00:00 | |
| DL1XH-15 | 2026-08-31 12:20:08 | 54.47417 | 14.09612 | 341° | 20km/h | 25234m | 6.7m/s | -51.1°C | 4% | 26.1hPa | 2.6V | 08:30:00 | 01:29:39 | 00:00:00 | |
| DL1XH1-15 | 2026-08-31 12:20:07 | 54.47412 | 14.09614 | 342° | 20km/h | 25228m | 5.1m/s | -51.1°C | 4% | 26.1hPa | 2.6V | 08:30:00 | 01:29:38 | 00:00:00 | |
| DF8AY | 2026-08-31 12:20:04 | 54.47404 | 14.09621 | 322° | 15km/h | 25217m | 6.9m/s | -51°C | 1.1% | 26.2hPa | 2.7V | 18:12:15 | 01:29:36 | 00:00:00 | |
| DL1XH-west | 2026-08-31 12:19:59 | 54.47393 | 14.09641 | 319° | 18km/h | 25194m | 4.9m/s | -51°C | 1.2% | 26.3hPa | 2.6V | 18:12:15 | 01:29:32 | 00:00:00 | |
| DL1XH1-15 | 2026-08-31 12:19:59 | 54.47381 | 14.09664 | 298° | 16km/h | 25171m | 5.3m/s | -51.1°C | 4% | 26.3hPa | 2.6V | 08:30:00 | 01:29:28 | 00:00:00 | |
| DO2SHX-10 | 2026-08-31 12:19:59 | 54.47392 | 14.09641 | 320° | 18km/h | 25194m | 4.8m/s | -51.0°C | 4.0% | 26.2hPa | 2.7V | 00:00:00 | 01:29:32 | 00:00:00 | |
| DL1XH-15 | 2026-08-31 12:19:58 | 54.47383 | 14.09657 | 301° | 16km/h | 25177m | 6.1m/s | -51.1°C | 4% | 26.3hPa | 2.7V | 08:30:00 | 01:29:29 | 00:00:00 | |
| AA1-15 | 2026-08-31 12:19:56 | 54.47383 | 14.09657 | 302° | 16km/h | 25177m | 6.1m/s | -51.1°C | 1.1% | 26.3hPa | 2.7V | 18:12:15 | 01:29:29 | 00:00:00 | |
| SONCRA | 2026-08-31 12:19:55 | 54.47381 | 14.09664 | 298° | 16km/h | 25172m | 5.3m/s | -51.1°C | 1.3% | 26.3hPa | 2.6V | 00:00:00 | 00:00:00 | 00:00:00 | |
| EDDB2-11 | 2026-08-31 12:19:53 | 54.47377 | 14.09676 | 310° | 16km/h | 25161m | 6.8m/s | -51.0°C | 1.3% | 26.4hPa | 2.6V | 00:00:00 | 00:00:00 | 00:00:00 | |
| DF8AY | 2026-08-31 12:19:51 | 54.47359 | 14.09735 | 265° | 18km/h | 25104m | 6.5m/s | -50.8°C | 1.1% | 26.6hPa | 2.6V | 18:12:15 | 01:29:16 | 00:00:00 | |
| DL1XH-west | 2026-08-31 12:19:49 | 54.47363 | 14.09705 | 289° | 15km/h | 25132m | 4.3m/s | -51°C | 1.1% | 26.5hPa | 2.6V | 18:12:15 | 01:29:21 | 00:00:00 | |
| AM1SDL-15 | 2026-08-31 12:19:49 | 54.47364 | 14.09698 | 297° | 18km/h | 25137m | 5.6m/s | -50.9°C | 4.0% | 26.4hPa | 2.7V | 00:00:00 | 01:29:22 | 00:00:00 | |
| DL1XH-15 | 2026-08-31 12:19:48 | 54.47361 | 14.09716 | 291° | 13km/h | 25120m | 5.8m/s | -50.8°C | 3.9% | 26.6hPa | 2.7V | 08:30:00 | 01:29:19 | 00:00:00 | |
| DL1XH1-15 | 2026-08-31 12:19:47 | 54.47359 | 14.09722 | 285° | 13km/h | 25115m | 4.6m/s | -50.8°C | 4% | 26.6hPa | 2.7V | 08:30:00 | 01:29:18 | 00:00:00 | |
| AA1-15 | 2026-08-31 12:19:46 | 54.47361 | 14.09716 | 291° | 13km/h | 25120m | 5.8m/s | -50.8°C | 1.1% | 26.6hPa | 2.7V | 18:12:15 | 01:29:19 | 00:00:00 | |
| DL4BBY-15 | 2026-08-31 12:19:44 | 54.47359 | 14.09727 | 275° | 11km/h | 25110m | 5.4m/s | 0°C | 0% | 0hPa | 2.6V | 00:00:00 | 00:00:00 | 00:00:00 | |
| DL1XH1-15 | 2026-08-31 12:19:40 | 54.47357 | 14.09801 | 257° | 15km/h | 25061m | 6.3m/s | -50.7°C | 3.8% | 26.8hPa | 2.6V | 08:30:00 | 01:29:08 | 00:00:00 | |
| DF8AY | 2026-08-31 12:19:38 | 54.47359 | 14.09782 | 287° | 18km/h | 25077m | 4.4m/s | -50.7°C | 1% | 26.7hPa | 2.7V | 18:12:15 | 01:29:11 | 00:00:00 | |
| DL1XH-15 | 2026-08-31 12:19:38 | 54.47357 | 14.09795 | 275° | 13km/h | 25067m | 6.2m/s | -50.6°C | 3.8% | 26.7hPa | 2.6V | 08:30:00 | 01:29:09 | 00:00:00 | |
| DL1XH-west | 2026-08-31 12:19:38 | 54.47357 | 14.09801 | 257° | 15km/h | 25061m | 6.3m/s | -50.7°C | 1% | 26.8hPa | 2.6V | 18:12:15 | 01:29:08 | 00:00:00 | |
| AA1-15 | 2026-08-31 12:19:36 | 54.47359 | 14.09807 | 242° | 15km/h | 25055m | 5.9m/s | -50.8°C | 1% | 26.8hPa | 2.7V | 18:12:15 | 01:29:07 | 00:00:00 | |
| DF8AY | 2026-08-31 12:19:30 | 54.47364 | 14.09842 | 263° | 20km/h | 25022m | 6.8m/s | -50.9°C | 1.1% | 26.9hPa | 2.7V | 18:12:15 | 01:29:01 | 00:00:00 | |
| DL1XH-15 | 2026-08-31 12:19:28 | 54.47366 | 14.09860 | 263° | 22km/h | 25010m | 4.6m/s | -50.9°C | 3.9% | 27hPa | 2.6V | 08:30:00 | 01:28:59 | 00:00:00 | |
| DO2SHX-10 | 2026-08-31 12:19:28 | 54.47364 | 14.09842 | 264° | 20km/h | 25022m | 6.8m/s | -50.8°C | 3.9% | 26.9hPa | 2.7V | 00:00:00 | 01:29:01 | 00:00:00 | |
| DM0DOS-11 | 2026-08-31 12:19:27 | 54.47363 | 14.09890 | 287° | 9km/h | 24989m | 5.7m/s | -51.1°C | 4% | 27.1hPa | 2.7V | 08:30:00 | 01:28:55 | 00:00:00 | |
| DL1XH-west | 2026-08-31 12:19:26 | 54.47365 | 14.09860 | 264° | 22km/h | 25010m | 4.6m/s | -50.9°C | 1.1% | 27hPa | 2.6V | 18:12:15 | 01:28:59 | 00:00:00 | |
| AA1-15 | 2026-08-31 12:19:24 | 54.47365 | 14.09878 | 284° | 18km/h | 24999m | 5.8m/s | -51°C | 1.1% | 27.1hPa | 2.6V | 18:12:15 | 01:28:57 | 00:00:00 | |
| SONCRA | 2026-08-31 12:19:24 | 54.47365 | 14.09878 | 284° | 16km/h | 24999m | 5.8m/s | -51.0°C | 1.3% | 27.1hPa | 2.7V | 00:00:00 | 00:00:00 | 00:00:00 | |
| DL1XH1-15 | 2026-08-31 12:19:23 | 54.47362 | 14.09893 | 263° | 7km/h | 24982m | 6.6m/s | -51°C | 4% | 27.1hPa | 2.7V | 08:30:00 | 01:28:54 | 00:00:00 | |
| DF8AY | 2026-08-31 12:19:18 | 54.47366 | 14.09898 | 190° | 7km/h | 24966m | 6.1m/s | -50.9°C | 1% | 27.2hPa | 2.6V | 18:12:15 | 01:28:51 | 00:00:00 | |
| DL1XH-15 | 2026-08-31 12:19:18 | 54.47369 | 14.09899 | 206° | 2km/h | 24954m | 4.8m/s | -51.1°C | 3.9% | 27.2hPa | 2.7V | 08:30:00 | 01:28:49 | 00:00:00 | |
| DM0DOS-11 | 2026-08-31 12:19:17 | 54.47372 | 14.09911 | 264° | 13km/h | 24932m | 5.6m/s | -50.9°C | 3.8% | 27.3hPa | 2.6V | 08:30:00 | 01:28:45 | 00:00:00 | |
| DL1XH-west | 2026-08-31 12:19:17 | 54.47369 | 14.09900 | 230° | 5km/h | 24949m | 4.9m/s | -51°C | 1% | 27.3hPa | 2.7V | 18:12:15 | 01:28:48 | 00:00:00 | |
| DO2SHX-10 | 2026-08-31 12:19:16 | 54.47369 | 14.09899 | 207° | 5km/h | 24955m | 4.8m/s | -51.0°C | 3.9% | 27.2hPa | 2.7V | 00:00:00 | 01:28:49 | 00:00:00 | |
| DL1XH1-15 | 2026-08-31 12:19:15 | 54.47372 | 14.09916 | 281° | 13km/h | 24926m | 6.6m/s | -51°C | 3.8% | 27.3hPa | 2.7V | 08:30:00 | 01:28:44 | 00:00:00 | |
| AA1-15 | 2026-08-31 12:19:14 | 54.47370 | 14.09902 | 238° | 7km/h | 24944m | 6.6m/s | -50.9°C | 1.1% | 27.3hPa | 2.6V | 18:12:15 | 01:28:47 | 00:00:00 | |
| DF8AY | 2026-08-31 12:19:08 | 54.47366 | 14.09943 | 10° | 4km/h | 24882m | 4.7m/s | -51.2°C | 1.1% | 27.6hPa | 2.6V | 18:12:15 | 01:28:36 | 00:00:00 | |
| DL1XH-15 | 2026-08-31 12:19:08 | 54.47368 | 14.09941 | 273° | 5km/h | 24899m | 4.7m/s | -51.1°C | 3.9% | 27.5hPa | 2.6V | 08:30:00 | 01:28:39 | 00:00:00 | |
| DM0DOS-11 | 2026-08-31 12:19:07 | 54.47366 | 14.09943 | 24° | 0km/h | 24877m | 5.1m/s | -51.2°C | 4% | 27.6hPa | 2.6V | 08:30:00 | 01:28:35 | 00:00:00 | |
| DL1XH-west | 2026-08-31 12:19:06 | 54.47368 | 14.09942 | 315° | 4km/h | 24893m | 6.2m/s | -51.2°C | 1.1% | 27.5hPa | 2.7V | 18:12:15 | 01:28:38 | 00:00:00 | |
| AA1-15 | 2026-08-31 12:19:04 | 54.47367 | 14.09943 | 357° | 4km/h | 24887m | 5.8m/s | -51.1°C | 1.1% | 27.5hPa | 2.7V | 18:12:15 | 01:28:37 | 00:00:00 | |
| DL1XH1-15 | 2026-08-31 12:19:04 | 54.47366 | 14.09943 | 189° | 4km/h | 24871m | 6.7m/s | -51.2°C | 4% | 27.6hPa | 2.7V | 08:30:00 | 01:28:34 | 00:00:00 | |
| S3001 | 2026-08-31 12:19:04 | 54.47366 | 14.09943 | 10° | 4km/h | 24882m | 4.7m/s | -51.2°C | 1.3% | 27.6hPa | 2.7V | 00:00:00 | 00:00:00 | 00:00:00 | |
| DO2SHX-10 | 2026-08-31 12:19:01 | 54.47366 | 14.09942 | 190° | 7km/h | 24872m | 6.7m/s | -51.2°C | 4.0% | 27.5hPa | 2.7V | 00:00:00 | 01:28:34 | 00:00:00 | |
| DO2SHX-10 | 2026-08-31 12:18:58 | 54.47371 | 14.09946 | 209° | 5km/h | 24856m | 6.1m/s | -51.3°C | 4.0% | 27.6hPa | 2.7V | 00:00:00 | 01:28:31 | 00:00:00 | |
| DM0DOS-11 | 2026-08-31 12:18:56 | 54.47374 | 14.09956 | 341° | 0km/h | 24822m | 4.8m/s | -51.4°C | 4% | 27.8hPa | 2.7V | 08:30:00 | 01:28:25 | 00:00:00 | |
| DL1XH-west | 2026-08-31 12:18:54 | 54.47374 | 14.09954 | 253° | 4km/h | 24833m | 6.2m/s | -51.3°C | 1.1% | 27.8hPa | 2.6V | 18:12:15 | 01:28:27 | 00:00:00 | |
| AA1-15 | 2026-08-31 12:18:53 | 54.47374 | 14.09956 | 242° | 4km/h | 24827m | 5.3m/s | -51.3°C | 1.1% | 27.8hPa | 2.6V | 18:12:15 | 01:28:26 | 00:00:00 | |
| SONCRA | 2026-08-31 12:18:53 | 54.47374 | 14.09956 | 241° | 2km/h | 24827m | 5.3m/s | -51.3°C | 1.3% | 27.8hPa | 2.7V | 00:00:00 | 00:00:00 | 00:00:00 | |
| DL1XH1-15 | 2026-08-31 12:18:52 | 54.47374 | 14.09956 | 27° | 4km/h | 24816m | 6.7m/s | -51.5°C | 4% | 27.8hPa | 2.7V | 08:30:00 | 01:28:24 | 00:00:00 | |
| DF8AY | 2026-08-31 12:18:51 | 54.47366 | 14.09955 | 274° | 5km/h | 24781m | 6.1m/s | -51.3°C | 1.1% | 28hPa | 2.7V | 18:12:15 | 01:28:18 | 00:00:00 | |
| EDDB2-11 | 2026-08-31 12:18:51 | 54.47374 | 14.09956 | 27° | 4km/h | 24816m | 6.7m/s | -51.5°C | 1.3% | 27.8hPa | 2.6V | 00:00:00 | 00:00:00 | 00:00:00 | |
| DF8AY | 2026-08-31 12:18:46 | 54.47365 | 14.09969 | 263° | 11km/h | 24758m | 6.6m/s | -51.3°C | 1.1% | 28.1hPa | 2.6V | 18:12:15 | 01:28:14 | 00:00:00 | |
| DM0DOS-11 | 2026-08-31 12:18:46 | 54.47365 | 14.09965 | 275° | 9km/h | 24764m | 5.7m/s | -51.3°C | 4% | 28hPa | 2.6V | 08:30:00 | 01:28:15 | 00:00:00 | |
| DL1XH-west | 2026-08-31 12:18:44 | 54.47366 | 14.09958 | 283° | 7km/h | 24775m | 6.1m/s | -51.3°C | 1.1% | 28hPa | 2.7V | 18:12:15 | 01:28:17 | 00:00:00 | |
| DL1XH1-15 | 2026-08-31 12:18:43 | 54.47365 | 14.09969 | 263° | 11km/h | 24758m | 6.6m/s | -51.3°C | 4% | 28.1hPa | 2.6V | 08:30:00 | 01:28:14 | 00:00:00 | |
| AA1-15 | 2026-08-31 12:18:43 | 54.47365 | 14.09961 | 286° | 9km/h | 24770m | 5.8m/s | -51.3°C | 1.1% | 28hPa | 2.6V | 18:12:15 | 01:28:16 | 00:00:00 | |
| DO2SHX-10 | 2026-08-31 12:18:43 | 54.47365 | 14.09961 | 287° | 9km/h | 24770m | 5.7m/s | -51.3°C | 4.0% | 28.0hPa | 2.6V | 00:00:00 | 01:28:16 | 00:00:00 | |
| DO2SHX-10 | 2026-08-31 12:18:40 | 54.47365 | 14.09973 | 261° | 5km/h | 24752m | 4.8m/s | -51.3°C | 4.0% | 28.0hPa | 2.7V | 00:00:00 | 01:28:13 | 00:00:00 | |
| DO2SHX-10 | 2026-08-31 12:18:37 | 54.47363 | 14.09978 | 15° | 5km/h | 24735m | 5.0m/s | -51.2°C | 3.9% | 28.1hPa | 2.7V | 00:00:00 | 01:28:10 | 00:00:00 | |
| DL4BBY-15 | 2026-08-31 12:18:35 | 54.47361 | 14.09975 | 71° | 5km/h | 24724m | 6.3m/s | 0°C | 0% | 0hPa | 2.7V | 00:00:00 | 00:00:00 | 00:00:00 | |
| DM0DOS-11 | 2026-08-31 12:18:34 | 54.47361 | 14.09970 | 42° | 4km/h | 24707m | 6.4m/s | -51.4°C | 3.9% | 28.3hPa | 2.7V | 08:30:00 | 01:28:05 | 00:00:00 | |
| DO2SHX-10 | 2026-08-31 12:18:34 | 54.47361 | 14.09973 | 95° | 4km/h | 24718m | 4.9m/s | -51.4°C | 4.0% | 28.2hPa | 2.7V | 00:00:00 | 01:28:07 | 00:00:00 | |
| DL1XH1-15 | 2026-08-31 12:18:33 | 54.47360 | 14.09970 | 7° | 5km/h | 24701m | 5.2m/s | -51.5°C | 4% | 28.3hPa | 2.6V | 08:30:00 | 01:28:04 | 00:00:00 | |
| AA1-15 | 2026-08-31 12:18:32 | 54.47361 | 14.09970 | 42° | 4km/h | 24707m | 6.4m/s | -51.4°C | 1.1% | 28.3hPa | 2.7V | 18:12:15 | 01:28:05 | 00:00:00 | |
| DF8AY | 2026-08-31 12:18:32 | 54.47360 | 14.09969 | 8° | 5km/h | 24701m | 5.2m/s | -51.5°C | 1.2% | 28.3hPa | 2.6V | 18:12:15 | 01:28:04 | 00:00:00 | |
| DO2SHX-10 | 2026-08-31 12:18:31 | 54.47360 | 14.09969 | 8° | 5km/h | 24701m | 5.1m/s | -51.4°C | 4.0% | 28.3hPa | 2.6V | 00:00:00 | 01:28:04 | 00:00:00 | |
| DL1XH-15 | 2026-08-31 12:18:30 | 54.47359 | 14.09986 | 274° | 13km/h | 24673m | 6.5m/s | -51.5°C | 4% | 28.4hPa | 2.6V | 08:30:00 | 01:27:59 | 00:00:00 | |
| DF8AY-15 | 2026-08-31 12:18:30 | 54.47359 | 14.09970 | 324° | 7km/h | 24696m | 4.6m/s | -51.5°C | 4.0% | 28.3hPa | 2.6V | 00:00:00 | 01:28:03 | 00:00:00 | |
| DO2SHX-10 | 2026-08-31 12:18:28 | 54.47358 | 14.09975 | 262° | 13km/h | 24684m | 5.7m/s | -51.4°C | 4.0% | 28.3hPa | 2.6V | 00:00:00 | 01:28:01 | 00:00:00 | |
| DO2SHX-10 | 2026-08-31 12:18:25 | 54.47358 | 14.09991 | 293° | 11km/h | 24667m | 5.7m/s | -51.4°C | 4.0% | 28.4hPa | 2.6V | 00:00:00 | 01:27:58 | 08:30:00 | |
| DM0DOS-11 | 2026-08-31 12:18:23 | 54.47354 | 14.10002 | 312° | 5km/h | 24650m | 6.3m/s | -51.5°C | 4.1% | 28.6hPa | 2.6V | 08:30:00 | 01:27:55 | 00:00:00 | |
| DL1XH1-15 | 2026-08-31 12:18:23 | 54.47353 | 14.10003 | 356° | 2km/h | 24645m | 5.2m/s | -51.6°C | 4.1% | 28.6hPa | 2.6V | 08:30:00 | 01:27:54 | 00:00:00 | |
| AA1-15 | 2026-08-31 12:18:21 | 54.47353 | 14.10003 | 357° | 2km/h | 24645m | 5.2m/s | -51.6°C | 1.3% | 28.6hPa | 2.6V | 18:12:15 | 01:27:54 | 00:00:00 | |
| DF8AY | 2026-08-31 12:18:20 | 54.47352 | 14.10002 | 51° | 5km/h | 24639m | 5.2m/s | -51.6°C | 1.2% | 28.6hPa | 2.7V | 18:12:15 | 01:27:53 | 00:00:00 | |
| DO2SHX-10 | 2026-08-31 12:18:19 | 54.47351 | 14.10000 | 44° | 5km/h | 24634m | 6.5m/s | -51.5°C | 4.1% | 28.6hPa | 2.7V | 00:00:00 | 01:27:52 | 00:00:00 | |
| DO2SHX-10 | 2026-08-31 12:18:15 | 54.47346 | 14.09995 | 261° | 5km/h | 24613m | 6.0m/s | -51.5°C | 4.0% | 28.7hPa | 2.7V | 00:00:00 | 01:27:48 | 00:00:00 | |
| DL1XH1-15 | 2026-08-31 12:18:13 | 54.47348 | 14.10008 | 287° | 9km/h | 24590m | 6m/s | -51.5°C | 4% | 28.8hPa | 2.6V | 08:30:00 | 01:27:44 | 00:00:00 | |
| AA1-15 | 2026-08-31 12:18:10 | 54.47347 | 14.10012 | 308° | 11km/h | 24584m | 5m/s | -51.5°C | 1.1% | 28.8hPa | 2.6V | 18:12:15 | 01:27:43 | 00:00:00 | |
| DF8AY | 2026-08-31 12:18:10 | 54.47338 | 14.10015 | 34° | 7km/h | 24549m | 5.4m/s | -51.5°C | 1.1% | 29hPa | 2.6V | 18:12:15 | 01:27:37 | 00:00:00 | |
| DF8AY-15 | 2026-08-31 12:18:10 | 54.47347 | 14.10012 | 308° | 9km/h | 24585m | 5.0m/s | -51.5°C | 4.0% | 28.8hPa | 2.7V | 00:00:00 | 01:27:43 | 00:00:00 | |
| DO2SHX-10 | 2026-08-31 12:18:09 | 54.47345 | 14.10015 | 321° | 7km/h | 24579m | 5.0m/s | -51.4°C | 3.9% | 28.8hPa | 2.7V | 00:00:00 | 01:27:42 | 00:00:00 | |
| DM0DOS-11 | 2026-08-31 12:18:07 | 54.47336 | 14.10011 | 88° | 5km/h | 24537m | 7m/s | -51.6°C | 4% | 29hPa | 2.7V | 08:30:00 | 01:27:35 | 00:00:00 | |
| DF8AY | 2026-08-31 12:18:04 | 54.47337 | 14.10009 | 300° | 2km/h | 24520m | 6.8m/s | -51.7°C | 1.2% | 29.1hPa | 2.6V | 18:12:15 | 01:27:32 | 00:00:00 | |
| DL1XH1-15 | 2026-08-31 12:18:03 | 54.47336 | 14.10009 | 135° | 4km/h | 24531m | 4.9m/s | -51.5°C | 4% | 29.1hPa | 2.7V | 08:30:00 | 01:27:34 | 00:00:00 | |
| DL1XH-west | 2026-08-31 12:18:01 | 54.47336 | 14.10009 | 135° | 4km/h | 24531m | 4.9m/s | -51.5°C | 1.1% | 29.1hPa | 2.7V | 18:12:15 | 01:27:34 | 00:00:00 | |
| AA1-15 | 2026-08-31 12:18:00 | 54.47334 | 14.10013 | 327° | 11km/h | 24509m | 4.5m/s | -51.7°C | 1.2% | 29.2hPa | 2.7V | 18:12:15 | 01:27:30 | 00:00:00 | |
| AM1SDL-15 | 2026-08-31 12:17:59 | 54.47337 | 14.10009 | 300° | 9km/h | 24520m | 6.8m/s | -51.6°C | 4.1% | 29.1hPa | 2.6V | 00:00:00 | 01:27:32 | 00:00:00 | |
| DO2SHX-10 | 2026-08-31 12:17:57 | 54.47334 | 14.10013 | 328° | 11km/h | 24509m | 4.4m/s | -51.6°C | 4.1% | 29.1hPa | 2.7V | 00:00:00 | 01:27:30 | 08:30:00 | |
| DM0DOS-11 | 2026-08-31 12:17:56 | 54.47321 | 14.10019 | 2° | 15km/h | 24480m | 6.6m/s | -51.6°C | 4% | 29.3hPa | 2.6V | 08:30:00 | 01:27:25 | 00:00:00 | |
| SP3BTT-10 | 2026-08-31 12:17:54 | 54.47327 | 14.10019 | 350° | 7km/h | 24493m | 5.4m/s | -51.6°C | 4.1% | 29.2hPa | 2.6V | 00:00:00 | 00:00:00 | 00:00:00 | |
| DL1XH-15 | 2026-08-31 12:17:51 | 54.47309 | 14.10010 | 334° | 7km/h | 24441m | 6.2m/s | -51.7°C | 4.1% | 29.5hPa | 2.6V | 08:30:00 | 01:27:18 | 00:00:00 | |
| DL1XH-west | 2026-08-31 12:17:51 | 54.47318 | 14.10019 | 11° | 15km/h | 24474m | 4.7m/s | -51.6°C | 1.1% | 29.3hPa | 2.7V | 18:12:15 | 01:27:24 | 00:00:00 | |
| DF8AY | 2026-08-31 12:17:49 | 54.47312 | 14.10014 | 44° | 9km/h | 24463m | 6.5m/s | -51.6°C | 1.2% | 29.4hPa | 2.6V | 18:12:15 | 01:27:22 | 00:00:00 | |
| EDDB2-11 | 2026-08-31 12:17:49 | 54.47312 | 14.10014 | 43° | 9km/h | 24463m | 6.5m/s | -51.6°C | 1.3% | 29.4hPa | 2.6V | 00:00:00 | 00:00:00 | 00:00:00 | |
| DO2SHX-10 | 2026-08-31 12:17:48 | 54.47311 | 14.10012 | 69° | 4km/h | 24457m | 4.7m/s | -51.5°C | 4.0% | 29.4hPa | 2.6V | 00:00:00 | 01:27:21 | 00:00:00 | |
| AM1SDL-15 | 2026-08-31 12:17:47 | 54.47311 | 14.10010 | 85° | 9km/h | 24453m | 4.6m/s | -51.6°C | 4.0% | 29.4hPa | 2.6V | 00:00:00 | 01:27:20 | 00:00:00 | |
| DO2SHX-10 | 2026-08-31 12:17:45 | 54.47310 | 14.10010 | 335° | 9km/h | 24441m | 6.1m/s | -51.7°C | 4.1% | 29.5hPa | 2.6V | 00:00:00 | 01:27:18 | 00:00:00 | |
| DL1XH1-15 | 2026-08-31 12:17:43 | 54.47302 | 14.10019 | 326° | 9km/h | 24417m | 5.9m/s | -51.6°C | 4.1% | 29.6hPa | 2.6V | 08:30:00 | 01:27:14 | 00:00:00 | |
| DL1XH-west | 2026-08-31 12:17:41 | 54.47302 | 14.10019 | 327° | 9km/h | 24417m | 5.9m/s | -51.6°C | 1.2% | 29.6hPa | 2.6V | 18:12:15 | 01:27:14 | 00:00:00 | |
| DL1XH-15 | 2026-08-31 12:17:40 | 54.47291 | 14.10024 | 8° | 4km/h | 24387m | 6m/s | -51.6°C | 4.1% | 29.7hPa | 2.7V | 08:30:00 | 01:27:09 | 00:00:00 | |
| AA1-15 | 2026-08-31 12:17:38 | 54.47295 | 14.10024 | 353° | 11km/h | 24399m | 4.3m/s | -51.6°C | 1.2% | 29.7hPa | 2.7V | 18:12:15 | 01:27:11 | 00:00:00 | |
| DF8AY | 2026-08-31 12:17:37 | 54.47291 | 14.10024 | 9° | 4km/h | 24387m | 6m/s | -51.6°C | 1.2% | 29.7hPa | 2.7V | 18:12:15 | 01:27:09 | 00:00:00 | |
| DL1XH1-15 | 2026-08-31 12:17:36 | 54.47288 | 14.10028 | 302° | 5km/h | 24358m | 5m/s | -51.5°C | 4.1% | 29.8hPa | 2.7V | 08:30:00 | 01:27:04 | 00:00:00 | |
| AA1-15 | 2026-08-31 12:17:30 | 54.47286 | 14.10033 | 331° | 5km/h | 24336m | 6.7m/s | -51.6°C | 1.2% | 29.9hPa | 2.6V | 18:12:15 | 01:27:00 | 00:00:00 | |
| DL1XH-15 | 2026-08-31 12:17:30 | 54.47285 | 14.10034 | 350° | 9km/h | 24330m | 4.9m/s | -51.5°C | 4.1% | 30hPa | 2.7V | 08:30:00 | 01:26:59 | 00:00:00 | |
| DF8AY | 2026-08-31 12:17:26 | 54.47274 | 14.10019 | 34° | 9km/h | 24296m | 5.6m/s | -51.5°C | 1.2% | 30.1hPa | 2.7V | 18:12:15 | 01:26:53 | 00:00:00 | |
| DM0DOS-11 | 2026-08-31 12:17:26 | 54.47277 | 14.10026 | 56° | 11km/h | 24307m | 5m/s | -51.6°C | 4.1% | 30.1hPa | 2.6V | 08:30:00 | 01:26:55 | 00:00:00 | |
| DL1XH-west | 2026-08-31 12:17:19 | 54.47272 | 14.10017 | 26° | 7km/h | 24290m | 5.7m/s | -51.5°C | 1.2% | 30.2hPa | 2.7V | 18:12:15 | 01:26:52 | 00:00:00 | |
| AA1-15 | 2026-08-31 12:17:18 | 54.47271 | 14.10015 | 93° | 2km/h | 24277m | 6.3m/s | -51.4°C | 1.2% | 30.2hPa | 2.6V | 18:12:15 | 01:26:50 | 00:00:00 | |
| DL1XH-15 | 2026-08-31 12:17:16 | 54.47271 | 14.10015 | 161° | 2km/h | 24272m | 5m/s | -51.4°C | 4.1% | 30.3hPa | 2.6V | 08:30:00 | 01:26:49 | 00:00:00 | |
| DF8AY | 2026-08-31 12:17:14 | 54.47271 | 14.10017 | 280° | 5km/h | 24260m | 6.3m/s | -51.5°C | 1.2% | 30.3hPa | 2.7V | 18:12:15 | 01:26:47 | 00:00:00 | |
| DO2SHX-10 | 2026-08-31 12:17:12 | 54.47269 | 14.10022 | 301° | 4km/h | 24250m | 5.1m/s | -51.2°C | 4.0% | 30.3hPa | 2.6V | 00:00:00 | 01:26:45 | 00:00:00 | |
| DO2SHX-10 | 2026-08-31 12:17:09 | 54.47269 | 14.10024 | 89° | 4km/h | 24232m | 5.1m/s | -51.3°C | 4.0% | 30.4hPa | 2.7V | 00:00:00 | 01:26:42 | 00:00:00 | |
| DL1XH1-15 | 2026-08-31 12:17:08 | 54.47266 | 14.10024 | 1° | 7km/h | 24215m | 5m/s | -51.2°C | 3.9% | 30.5hPa | 2.7V | 08:30:00 | 01:26:39 | 00:00:00 | |
| DL1XH-west | 2026-08-31 12:17:08 | 54.47268 | 14.10024 | 13° | 2km/h | 24227m | 5.6m/s | -51.4°C | 1.1% | 30.4hPa | 2.6V | 18:12:15 | 01:26:41 | 00:00:00 | |
| AA1-15 | 2026-08-31 12:17:06 | 54.47266 | 14.10024 | 1° | 7km/h | 24215m | 5m/s | -51.2°C | 1.1% | 30.5hPa | 2.7V | 18:12:15 | 01:26:39 | 00:00:00 | |
| DF8AY | 2026-08-31 12:17:04 | 54.47262 | 14.10021 | 39° | 9km/h | 24204m | 6.6m/s | -51.3°C | 1.1% | 30.6hPa | 2.6V | 18:12:15 | 01:26:37 | 00:00:00 | |
| DO2SHX-10 | 2026-08-31 12:17:03 | 54.47261 | 14.10019 | 48° | 5km/h | 24198m | 5.8m/s | -51.3°C | 4.0% | 30.6hPa | 2.6V | 00:00:00 | 01:26:36 | 08:30:00 | |
| EDDB2-12 | 2026-08-31 12:17:01 | 54.47258 | 14.10016 | 276° | 2km/h | 24179m | 4.9m/s | -51.2°C | 1.3% | 30.7hPa | 2.6V | 00:00:00 | 00:00:00 | 00:00:00 | |
| DO2SHX-10 | 2026-08-31 12:16:59 | 54.47258 | 14.10017 | 233° | 4km/h | 24174m | 5.9m/s | -51.2°C | 4.0% | 30.7hPa | 2.6V | 00:00:00 | 01:26:32 | 00:00:00 | |
| DL1XH1-15 | 2026-08-31 12:16:58 | 54.47261 | 14.10020 | 224° | 5km/h | 24156m | 6.3m/s | -51.3°C | 4.1% | 30.8hPa | 2.6V | 08:30:00 | 01:26:29 | 00:00:00 | |
| DL1XH-west | 2026-08-31 12:16:58 | 54.47260 | 14.10019 | 201° | 5km/h | 24161m | 5.5m/s | -51.4°C | 1.2% | 30.8hPa | 2.6V | 18:12:15 | 01:26:30 | 00:00:00 | |
| AA1-15 | 2026-08-31 12:16:56 | 54.47262 | 14.10022 | 249° | 5km/h | 24149m | 6.5m/s | -51.3°C | 1.1% | 30.8hPa | 2.7V | 18:12:15 | 01:26:28 | 00:00:00 | |
| DF8AY | 2026-08-31 12:16:54 | 54.47261 | 14.10027 | 307° | 5km/h | 24138m | 5.2m/s | -51.3°C | 1.2% | 30.9hPa | 2.7V | 18:12:15 | 01:26:26 | 00:00:00 | |
| SP3WXH-11 | 2026-08-31 12:16:53 | 54.47261 | 14.10028 | 358° | 4km/h | 24133m | 6.8m/s | -51.3°C | 1.3% | 30.9hPa | 2.6V | 00:00:00 | 00:00:00 | 00:00:00 | |
| SONCRA | 2026-08-31 12:16:49 | 54.47256 | 14.10025 | 314° | 2km/h | 24108m | 5.4m/s | -51.3°C | 1.3% | 31.0hPa | 2.6V | 00:00:00 | 00:00:00 | 00:00:00 | |
| DL1XH1-15 | 2026-08-31 12:16:48 | 54.47256 | 14.10028 | 257° | 2km/h | 24098m | 6.1m/s | -51.2°C | 3.9% | 31.1hPa | 2.6V | 08:30:00 | 01:26:19 | 00:00:00 | |
| DL1XH-west | 2026-08-31 12:16:47 | 54.47256 | 14.10027 | 278° | 4km/h | 24103m | 4.6m/s | -51.2°C | 1% | 31.1hPa | 2.7V | 18:12:15 | 01:26:20 | 00:00:00 | |
| AA1-15 | 2026-08-31 12:16:45 | 54.47256 | 14.10029 | 328° | 2km/h | 24086m | 5.2m/s | -51.4°C | 1.1% | 31.1hPa | 2.6V | 18:12:15 | 01:26:17 | 00:00:00 | |
| DM0DOS-11 | 2026-08-31 12:16:43 | 54.47255 | 14.10032 | 300° | 7km/h | 24075m | 6.9m/s | -51.5°C | 4% | 31.2hPa | 2.7V | 08:30:00 | 01:26:15 | 00:00:00 | |
| DL4BBY-15 | 2026-08-31 12:16:43 | 54.47255 | 14.10029 | 301° | 5km/h | 24081m | 5.3m/s | 0°C | 0% | 0hPa | 2.7V | 00:00:00 | 00:00:00 | 00:00:00 | |
| DF8AY-15 | 2026-08-31 12:16:42 | 54.47255 | 14.10031 | 301° | 5km/h | 24075m | 6.9m/s | 0°C | 0% | 0hPa | 2.7V | 00:00:00 | 01:26:15 | 00:00:00 | |
| DO2SHX-10 | 2026-08-31 12:16:41 | 54.47254 | 14.10035 | 306° | 11km/h | 24069m | 5.3m/s | -51.5°C | 3.9% | 31.2hPa | 2.7V | 00:00:00 | 01:26:14 | 00:00:00 | |
| DL1XH1-15 | 2026-08-31 12:16:37 | 54.47244 | 14.10042 | 341° | 4km/h | 24041m | 6.1m/s | -51.7°C | 4% | 31.4hPa | 2.7V | 08:30:00 | 01:26:09 | 00:00:00 | |
| DL1XH-west | 2026-08-31 12:16:37 | 54.47246 | 14.10042 | 1° | 5km/h | 24047m | 4.7m/s | -51.7°C | 1.2% | 31.3hPa | 2.7V | 18:12:15 | 01:26:10 | 00:00:00 | |
| DM0DOS-11 | 2026-08-31 12:16:37 | 54.47244 | 14.10047 | 237° | 2km/h | 24018m | 5.5m/s | -51.8°C | 4.2% | 31.5hPa | 2.7V | 08:30:00 | 01:26:05 | 00:00:00 | |
| AA1-15 | 2026-08-31 12:16:34 | 54.47244 | 14.10046 | 262° | 2km/h | 24024m | 6.8m/s | -51.7°C | 1.2% | 31.4hPa | 2.7V | 18:12:15 | 01:26:06 | 00:00:00 | |
| DF8AY | 2026-08-31 12:16:32 | 54.47244 | 14.10047 | 237° | 2km/h | 24018m | 5.5m/s | -51.8°C | 1.3% | 31.5hPa | 2.7V | 18:12:15 | 01:26:05 | 00:00:00 | |
| DO2SHX-10 | 2026-08-31 12:16:32 | 54.47244 | 14.10047 | 238° | 5km/h | 24018m | 5.5m/s | -51.7°C | 4.2% | 31.4hPa | 2.6V | 00:00:00 | 01:26:05 | 00:00:00 | |
| SONDE2-11 | 2026-08-31 12:16:30 | 54.47245 | 14.10050 | 229° | 7km/h | 24006m | 7.1m/s | -51.6°C | 1.3% | 31.5hPa | 2.6V | 00:00:00 | 00:00:00 | 00:00:00 | |
| DO2SHX-10 | 2026-08-31 12:16:29 | 54.47247 | 14.10053 | 235° | 9km/h | 24000m | 5.6m/s | -51.5°C | 4.0% | 31.5hPa | 2.6V | 00:00:00 | 01:26:02 | 00:00:00 | |
| DL1XH1-15 | 2026-08-31 12:16:27 | 54.47250 | 14.10063 | 278° | 5km/h | 23981m | 6m/s | -51.7°C | 4% | 31.7hPa | 2.6V | 08:30:00 | 01:25:59 | 00:00:00 | |
| DL1XH-west | 2026-08-31 12:16:27 | 54.47250 | 14.10063 | 279° | 5km/h | 23981m | 6m/s | -51.7°C | 1.1% | 31.7hPa | 2.6V | 18:12:15 | 01:25:59 | 00:00:00 | |
| DO2SHX-10 | 2026-08-31 12:16:26 | 54.47250 | 14.10063 | 279° | 5km/h | 23982m | 6.0m/s | -51.6°C | 4.0% | 31.6hPa | 2.6V | 00:00:00 | 01:25:59 | 00:00:00 | |
| DM0DOS-11 | 2026-08-31 12:16:24 | 54.47250 | 14.10071 | 237° | 4km/h | 23958m | 5m/s | -51.5°C | 4% | 31.7hPa | 2.7V | 08:30:00 | 01:25:55 | 00:00:00 | |
| AA1-15 | 2026-08-31 12:16:24 | 54.47249 | 14.10067 | 273° | 5km/h | 23970m | 6.8m/s | -51.8°C | 1.2% | 31.7hPa | 2.7V | 18:12:15 | 01:25:57 | 00:00:00 | |
| DF8AY | 2026-08-31 12:16:19 | 54.47252 | 14.10073 | 190° | 4km/h | 23940m | 5.4m/s | -51.5°C | 1.1% | 31.9hPa | 2.6V | 18:12:15 | 01:25:52 | 00:00:00 | |
| SONCRA | 2026-08-31 12:16:18 | 54.47255 | 14.10076 | 211° | 9km/h | 23928m | 5.2m/s | -51.6°C | 1.3% | 31.9hPa | 2.7V | 00:00:00 | 00:00:00 | 00:00:00 | |
| DM0DOS-11 | 2026-08-31 12:16:17 | 54.47260 | 14.10083 | 228° | 5km/h | 23898m | 6.7m/s | -51.5°C | 4% | 32hPa | 2.7V | 08:30:00 | 01:25:45 | 00:00:00 | |
| DL1XH-west | 2026-08-31 12:16:16 | 54.47260 | 14.10082 | 226° | 4km/h | 23904m | 5.3m/s | -51.5°C | 1.2% | 32hPa | 2.6V | 18:12:15 | 01:25:46 | 00:00:00 | |
| AA1-15 | 2026-08-31 12:16:13 | 54.47260 | 14.10083 | 229° | 5km/h | 23898m | 6.7m/s | -51.5°C | 1.1% | 32hPa | 2.7V | 18:12:15 | 01:25:45 | 00:00:00 | |
| DF8AY | 2026-08-31 12:16:09 | 54.47264 | 14.10088 | 209° | 5km/h | 23880m | 7m/s | -51.5°C | 1.2% | 32.1hPa | 2.6V | 18:12:15 | 01:25:42 | 00:00:00 | |
| DL1XH1-15 | 2026-08-31 12:16:07 | 54.47266 | 14.10089 | 205° | 4km/h | 23862m | 6.6m/s | -51.6°C | 4.1% | 32.2hPa | 2.7V | 08:30:00 | 01:25:39 | 00:00:00 | |
| DM0DOS-11 | 2026-08-31 12:16:07 | 54.47268 | 14.10092 | 33° | 2km/h | 23839m | 5.6m/s | -51.9°C | 4.2% | 32.3hPa | 2.6V | 08:30:00 | 01:25:35 | 00:00:00 | |
| DL1XH-west | 2026-08-31 12:16:04 | 54.47268 | 14.10092 | 34° | 2km/h | 23839m | 5.6m/s | -51.9°C | 1.3% | 32.3hPa | 2.6V | 18:12:15 | 01:25:35 | 00:00:00 | |
| AA1-15 | 2026-08-31 12:16:03 | 54.47268 | 14.10092 | 18° | 0km/h | 23833m | 5.6m/s | -51.8°C | 1.2% | 32.4hPa | 2.6V | 18:12:15 | 01:25:34 | 00:00:00 | |
| DF8AY | 2026-08-31 12:15:58 | 54.47271 | 14.10093 | 179° | 7km/h | 23816m | 4.5m/s | -51.6°C | 1.2% | 32.4hPa | 2.6V | 18:12:15 | 01:25:31 | 00:00:00 | |
| EDDB2-12 | 2026-08-31 12:15:58 | 54.47271 | 14.10093 | 179° | 7km/h | 23816m | 4.5m/s | -51.6°C | 1.3% | 32.4hPa | 2.7V | 00:00:00 | 00:00:00 | 00:00:00 | |
| DL1XH1-15 | 2026-08-31 12:15:57 | 54.47274 | 14.10090 | 127° | 9km/h | 23804m | 6.4m/s | -51.6°C | 4.1% | 32.5hPa | 2.7V | 08:30:00 | 01:25:29 | 00:00:00 | |
| DO2SHX-10 | 2026-08-31 12:15:56 | 54.47274 | 14.10090 | 128° | 11km/h | 23804m | 6.3m/s | -51.6°C | 4.1% | 32.5hPa | 2.7V | 00:00:00 | 01:25:29 | 00:00:00 | |
| DM0DOS-11 | 2026-08-31 12:15:55 | 54.47279 | 14.10075 | 110° | 9km/h | 23780m | 4.8m/s | -51.7°C | 4.1% | 32.6hPa | 2.7V | 08:30:00 | 01:25:25 | 00:00:00 | |
| DL1XH-west | 2026-08-31 12:15:53 | 54.47278 | 14.10079 | 120° | 11km/h | 23785m | 5.6m/s | -51.6°C | 1.1% | 32.6hPa | 2.6V | 18:12:15 | 01:25:26 | 00:00:00 | |
| AA1-15 | 2026-08-31 12:15:52 | 54.47279 | 14.10075 | 110° | 11km/h | 23780m | 4.8m/s | -51.7°C | 1.2% | 32.6hPa | 2.7V | 18:12:15 | 01:25:25 | 00:00:00 | |
| SP3WXH-11 | 2026-08-31 12:15:50 | 54.47280 | 14.10060 | 84° | 9km/h | 23762m | 5.0m/s | -51.5°C | 1.3% | 32.7hPa | 2.7V | 00:00:00 | 00:00:00 | 00:00:00 | |
| DF8AY | 2026-08-31 12:15:48 | 54.47292 | 14.10016 | 117° | 24km/h | 23706m | 5m/s | -51.7°C | 1.2% | 33hPa | 2.7V | 18:12:15 | 01:25:12 | 00:00:00 | |
| SONCRA | 2026-08-31 12:15:47 | 54.47281 | 14.10052 | 142° | 5km/h | 23745m | 5.0m/s | -51.5°C | 1.3% | 32.8hPa | 2.6V | 00:00:00 | 00:00:00 | 00:00:00 | |
| EDDB2-11 | 2026-08-31 12:15:45 | 54.47282 | 14.10050 | 130° | 5km/h | 23740m | 6.2m/s | -51.5°C | 1.3% | 32.9hPa | 2.6V | 00:00:00 | 00:00:00 | 00:00:00 | |
| DM0DOS-11 | 2026-08-31 12:15:44 | 54.47285 | 14.10038 | 111° | 15km/h | 23722m | 5.3m/s | -51.5°C | 4% | 32.9hPa | 2.6V | 08:30:00 | 01:25:15 | 00:00:00 | |
| AA1-15 | 2026-08-31 12:15:42 | 54.47285 | 14.10037 | 112° | 15km/h | 23722m | 5.3m/s | -51.5°C | 1.1% | 32.9hPa | 2.6V | 18:12:15 | 01:25:15 | 00:00:00 | |
| DF8AY | 2026-08-31 12:15:38 | 54.47303 | 14.09933 | 75° | 15km/h | 23627m | 6.2m/s | -51.7°C | 1% | 33.4hPa | 2.6V | 18:12:15 | 01:24:58 | 00:00:00 | |
| DL1XH1-15 | 2026-08-31 12:15:37 | 54.47298 | 14.09985 | 108° | 26km/h | 23689m | 4.7m/s | -51.6°C | 4% | 33.1hPa | 2.6V | 08:30:00 | 01:25:09 | 00:00:00 | |
| DJ2DS-15 | 2026-08-31 12:15:36 | 54.47298 | 14.09985 | 108° | 24km/h | 23689m | 4.7m/s | -51.6°C | 1.3% | 33.1hPa | 2.6V | 00:00:00 | 00:00:00 | 00:00:00 | |
| DO2SHX-10 | 2026-08-31 12:15:35 | 54.47300 | 14.09976 | 112° | 16km/h | 23684m | 6.1m/s | -51.4°C | 4.0% | 33.1hPa | 2.6V | 00:00:00 | 01:25:08 | 00:00:00 | |
| DM0DOS-11 | 2026-08-31 12:15:34 | 54.47305 | 14.09958 | 109° | 11km/h | 23667m | 6.6m/s | -51.6°C | 4.1% | 33.2hPa | 2.6V | 08:30:00 | 01:25:05 | 00:00:00 | |
| AA1-15 | 2026-08-31 12:15:32 | 54.47306 | 14.09954 | 82° | 9km/h | 23661m | 5.7m/s | -51.6°C | 1.2% | 33.2hPa | 2.6V | 18:12:15 | 01:25:04 | 00:00:00 | |
| DO2SHX-10 | 2026-08-31 12:15:32 | 54.47305 | 14.09958 | 110° | 9km/h | 23667m | 6.5m/s | -51.5°C | 4.1% | 33.1hPa | 2.6V | 00:00:00 | 01:25:05 | 00:00:00 | |
| DO2SHX-10 | 2026-08-31 12:15:29 | 54.47305 | 14.09948 | 75° | 7km/h | 23650m | 6.4m/s | -51.5°C | 3.9% | 33.2hPa | 2.7V | 00:00:00 | 01:25:02 | 00:00:00 | |
| SONDE2-11 | 2026-08-31 12:15:28 | 54.47304 | 14.09946 | 90° | 5km/h | 23644m | 5.6m/s | -51.5°C | 1.3% | 33.3hPa | 2.7V | 00:00:00 | 00:00:00 | 00:00:00 | |
| DM0DOS-11 | 2026-08-31 12:15:27 | 54.47301 | 14.09911 | 83° | 15km/h | 23611m | 5.8m/s | -51.7°C | 4% | 33.5hPa | 2.7V | 08:30:00 | 01:24:55 | 00:00:00 | |
| DL1XH1-15 | 2026-08-31 12:15:27 | 54.47302 | 14.09926 | 74° | 18km/h | 23622m | 5m/s | -51.8°C | 3.9% | 33.4hPa | 2.6V | 08:30:00 | 01:24:57 | 00:00:00 | |
| DL1XH-west | 2026-08-31 12:15:21 | 54.47298 | 14.09887 | 78° | 15km/h | 23588m | 4.8m/s | -51.8°C | 1.2% | 33.6hPa | 2.7V | 18:12:15 | 01:24:51 | 00:00:00 | |
| DF8AY | 2026-08-31 12:15:18 | 54.47298 | 14.09872 | 87° | 11km/h | 23572m | 5.1m/s | -52.1°C | 1.2% | 33.7hPa | 2.7V | 18:12:15 | 01:24:48 | 00:00:00 | |
| DL1XH-15 | 2026-08-31 12:15:17 | 54.47296 | 14.09860 | 67° | 18km/h | 23560m | 5.8m/s | -52.3°C | 4.2% | 33.8hPa | 2.6V | 08:30:00 | 01:24:46 | 00:00:00 | |
| SONCRA | 2026-08-31 12:15:17 | 54.47298 | 14.09872 | 87° | 11km/h | 23572m | 5.1m/s | -52.1°C | 1.3% | 33.7hPa | 2.6V | 00:00:00 | 00:00:00 | 00:00:00 | |
| DM0DOS-11 | 2026-08-31 12:15:16 | 54.47294 | 14.09852 | 68° | 22km/h | 23554m | 4.9m/s | -52.5°C | 4.2% | 33.8hPa | 2.6V | 08:30:00 | 01:24:45 | 00:00:00 | |
| DL1XH-west | 2026-08-31 12:15:10 | 54.47290 | 14.09833 | 75° | 24km/h | 23543m | 5.6m/s | -52.4°C | 1.2% | 33.8hPa | 2.7V | 18:12:15 | 01:24:43 | 00:00:00 | |
| AA1-15 | 2026-08-31 12:15:07 | 54.47281 | 14.09791 | 64° | 26km/h | 23522m | 3.8m/s | -52.4°C | 1.3% | 33.9hPa | 2.6V | 18:12:15 | 01:24:39 | 00:00:00 | |
| DO2SHX-10 | 2026-08-31 12:15:05 | 54.47278 | 14.09782 | 66° | 16km/h | 23517m | 6.1m/s | -52.1°C | 4.1% | 33.9hPa | 2.6V | 00:00:00 | 01:24:38 | 00:00:00 | |
| DM0DOS-11 | 2026-08-31 12:15:04 | 54.47271 | 14.09761 | 44° | 13km/h | 23495m | 5.9m/s | -52.3°C | 4.2% | 34.1hPa | 2.6V | 08:30:00 | 01:24:34 | 00:00:00 | |
| DF8AY | 2026-08-31 12:15:03 | 54.47275 | 14.09769 | 61° | 13km/h | 23506m | 4.8m/s | -52.2°C | 1.3% | 34hPa | 2.7V | 18:12:15 | 01:24:36 | 00:00:00 | |
| DL1XH-west | 2026-08-31 12:15:00 | 54.47266 | 14.09751 | 52° | 16km/h | 23485m | 4.8m/s | -52.3°C | 1.3% | 34.2hPa | 2.6V | 18:12:15 | 01:24:32 | 00:00:00 | |
| AA1-15 | 2026-08-31 12:14:56 | 54.47258 | 14.09719 | 63° | 15km/h | 23451m | 4.3m/s | -52.1°C | 1.2% | 34.4hPa | 2.6V | 18:12:15 | 01:24:26 | 00:00:00 | |
| S3001 | 2026-08-31 12:14:55 | 54.47261 | 14.09731 | 74° | 13km/h | 23462m | 6.3m/s | -52.1°C | 1.3% | 34.3hPa | 2.7V | 00:00:00 | 00:00:00 | 00:00:00 | |
| DF8AY | 2026-08-31 12:14:53 | 54.47241 | 14.09704 | 53° | 7km/h | 23390m | 5.4m/s | -52.7°C | 1.3% | 34.6hPa | 2.7V | 18:12:15 | 01:24:15 | 00:00:00 | |
| DO2SHX-10 | 2026-08-31 12:14:53 | 54.47258 | 14.09719 | 63° | 11km/h | 23451m | 4.2m/s | -52.1°C | 4.0% | 34.3hPa | 2.6V | 00:00:00 | 01:24:26 | 00:00:00 | |
| DL1XH-15 | 2026-08-31 12:14:52 | 54.47250 | 14.09708 | 15° | 11km/h | 23428m | 6.3m/s | -52.5°C | 4.2% | 34.4hPa | 2.6V | 08:30:00 | 01:24:22 | 00:00:00 | |
| DL1XH-west | 2026-08-31 12:14:49 | 54.47250 | 14.09708 | 15° | 11km/h | 23428m | 6.3m/s | -52.5°C | 1.3% | 34.4hPa | 2.6V | 18:12:15 | 01:24:22 | 00:00:00 | |
| SP3WXH-11 | 2026-08-31 12:14:48 | 54.47246 | 14.09706 | 16° | 7km/h | 23418m | 4.6m/s | -52.5°C | 1.4% | 34.5hPa | 2.6V | 00:00:00 | 00:00:00 | 00:00:00 | |
| AA1-15 | 2026-08-31 12:14:44 | 54.47243 | 14.09706 | 359° | 2km/h | 23401m | 4.6m/s | -52.6°C | 1.3% | 34.6hPa | 2.6V | 18:12:15 | 01:24:17 | 00:00:00 | |
| DM0DOS-11 | 2026-08-31 12:14:44 | 54.47240 | 14.09701 | 53° | 9km/h | 23385m | 4.3m/s | -52.7°C | 4.3% | 34.7hPa | 2.7V | 08:30:00 | 01:24:14 | 00:00:00 | |
| DF8AY | 2026-08-31 12:14:42 | 54.47233 | 14.09696 | 7° | 5km/h | 23358m | 6.5m/s | 0°C | 0% | 34.8hPa | 2.6V | 18:12:15 | 01:24:09 | 00:00:00 | |
| DL1XH-15 | 2026-08-31 12:14:41 | 54.47237 | 14.09696 | 21° | 5km/h | 23374m | 5.8m/s | -52.8°C | 4.3% | 34.7hPa | 2.6V | 08:30:00 | 01:24:12 | 00:00:00 | |
| DL1XH1-15 | 2026-08-31 12:14:41 | 54.47236 | 14.09696 | 357° | 5km/h | 23369m | 5m/s | -52.9°C | 4.4% | 34.8hPa | 2.7V | 08:30:00 | 01:24:11 | 00:00:00 | |
| DL1XH-west | 2026-08-31 12:14:38 | 54.47236 | 14.09696 | 358° | 5km/h | 23369m | 5m/s | -52.9°C | 1.3% | 34.8hPa | 2.7V | 18:12:15 | 01:24:11 | 00:00:00 | |
| AA1-15 | 2026-08-31 12:14:33 | 54.47229 | 14.09696 | 316° | 4km/h | 23342m | 6.5m/s | -52.7°C | 1.3% | 34.9hPa | 2.7V | 18:12:15 | 01:24:06 | 00:00:00 | |
| DO2SHX-10 | 2026-08-31 12:14:32 | 54.47229 | 14.09697 | 263° | 5km/h | 23337m | 5.3m/s | -52.6°C | 4.2% | 34.9hPa | 2.6V | 00:00:00 | 01:24:05 | 00:00:00 | |
| DL1XH1-15 | 2026-08-31 12:14:31 | 54.47232 | 14.09699 | 108° | 7km/h | 23316m | 5.5m/s | -52.7°C | 4.2% | 35.1hPa | 2.6V | 08:30:00 | 01:24:01 | 00:00:00 | |
| DL1XH-west | 2026-08-31 12:14:27 | 54.47232 | 14.09696 | 104° | 9km/h | 23310m | 5.8m/s | -52.6°C | 1.3% | 35.1hPa | 2.7V | 18:12:15 | 01:24:00 | 00:00:00 | |
| DF8AY | 2026-08-31 12:14:24 | 54.47214 | 14.09663 | 45° | 13km/h | 23223m | 5.2m/s | 0°C | 0% | 35.6hPa | 2.7V | 18:12:15 | 01:23:44 | 00:00:00 | |
| AA1-15 | 2026-08-31 12:14:23 | 54.47230 | 14.09680 | 40° | 13km/h | 23283m | 6m/s | -52.6°C | 1.3% | 35.2hPa | 2.6V | 18:12:15 | 01:23:55 | 00:00:00 | |
| DO2SHX-10 | 2026-08-31 12:14:23 | 54.47232 | 14.09683 | 51° | 11km/h | 23290m | 6.4m/s | -52.5°C | 4.3% | 35.2hPa | 2.6V | 00:00:00 | 01:23:56 | 00:00:00 | |
| AM1SDL-15 | 2026-08-31 12:14:22 | 54.47230 | 14.09680 | 40° | 7km/h | 23283m | 6.0m/s | -52.5°C | 4.3% | 35.2hPa | 2.6V | 00:00:00 | 01:23:55 | 00:00:00 | |
| DL1XH1-15 | 2026-08-31 12:14:21 | 54.47221 | 14.09671 | 17° | 5km/h | 23261m | 5.2m/s | -52.5°C | 4.2% | 35.4hPa | 2.6V | 08:30:00 | 01:23:51 | 00:00:00 | |
| DL1XH-west | 2026-08-31 12:14:16 | 54.47218 | 14.09670 | 26° | 4km/h | 23250m | 4.5m/s | -52.5°C | 1.2% | 35.4hPa | 2.6V | 18:12:15 | 01:23:49 | 00:00:00 | |
| AA1-15 | 2026-08-31 12:14:13 | 54.47216 | 14.09667 | 49° | 7km/h | 23229m | 6.4m/s | -52.3°C | 1.2% | 35.5hPa | 2.6V | 18:12:15 | 01:23:45 | 00:00:00 | |
| DM0DOS-11 | 2026-08-31 12:14:12 | 54.47214 | 14.09663 | 44° | 13km/h | 23223m | 5.2m/s | -52.3°C | 4.2% | 35.6hPa | 2.7V | 08:30:00 | 01:23:44 | 00:00:00 | |
| DF8AY | 2026-08-31 12:14:09 | 54.47191 | 14.09634 | 46° | 5km/h | 23159m | 5.6m/s | 0°C | 0% | 35.9hPa | 2.6V | 18:12:15 | 01:23:32 | 00:00:00 | |
| DL1XH1-15 | 2026-08-31 12:14:08 | 54.47206 | 14.09652 | 33° | 13km/h | 23207m | 5.5m/s | -52.4°C | 4.3% | 35.6hPa | 2.6V | 08:30:00 | 01:23:41 | 00:00:00 | |
| DO2SHX-10 | 2026-08-31 12:14:08 | 54.47206 | 14.09652 | 34° | 11km/h | 23208m | 5.4m/s | -52.4°C | 4.3% | 35.6hPa | 2.7V | 00:00:00 | 01:23:41 | 00:00:00 | |
| DM0DOS-11 | 2026-08-31 12:14:07 | 54.47192 | 14.09636 | 52° | 2km/h | 23169m | 5.3m/s | -52.4°C | 4.2% | 35.9hPa | 2.7V | 08:30:00 | 01:23:34 | 00:00:00 | |
| DL1XH-west | 2026-08-31 12:14:06 | 54.47201 | 14.09647 | 27° | 11km/h | 23197m | 5.2m/s | -52.4°C | 1.3% | 35.7hPa | 2.7V | 18:12:15 | 01:23:39 | 00:00:00 | |
| DO2SHX-10 | 2026-08-31 12:14:05 | 54.47198 | 14.09645 | 31° | 11km/h | 23192m | 6.4m/s | -52.4°C | 4.3% | 35.7hPa | 2.6V | 00:00:00 | 01:23:38 | 00:00:00 | |
| DL1XH1-15 | 2026-08-31 12:14:03 | 54.47190 | 14.09632 | 35° | 11km/h | 23154m | 5.7m/s | -52.3°C | 4.1% | 35.9hPa | 2.6V | 08:30:00 | 01:23:31 | 00:00:00 | |
| AA1-15 | 2026-08-31 12:14:01 | 54.47192 | 14.09636 | 53° | 2km/h | 23169m | 5.3m/s | -52.4°C | 1.3% | 35.9hPa | 2.7V | 18:12:15 | 01:23:34 | 00:00:00 | |
| DL1XH-west | 2026-08-31 12:13:55 | 54.47179 | 14.09622 | 22° | 18km/h | 23138m | 5.7m/s | -52.6°C | 1.3% | 36hPa | 2.7V | 18:12:15 | 01:23:28 | 00:00:00 | |
| DF8AY | 2026-08-31 12:13:52 | 54.47164 | 14.09607 | 42° | 24km/h | 23122m | 5.5m/s | 0°C | 0% | 36.1hPa | 2.6V | 18:12:15 | 01:23:25 | 00:00:00 | |
| DL1XH1-15 | 2026-08-31 12:13:51 | 54.47154 | 14.09585 | 60° | 11km/h | 23100m | 5.8m/s | -52.4°C | 4.2% | 36.2hPa | 2.7V | 08:30:00 | 01:23:21 | 00:00:00 | |
| AA1-15 | 2026-08-31 12:13:50 | 54.47154 | 14.09585 | 61° | 11km/h | 23100m | 5.8m/s | -52.4°C | 1.3% | 36.3hPa | 2.7V | 18:12:15 | 01:23:21 | 00:00:00 | |
| DL1XH-west | 2026-08-31 12:13:45 | 54.47149 | 14.09573 | 49° | 9km/h | 23084m | 5.3m/s | -52.5°C | 1.3% | 36.3hPa | 2.6V | 18:12:15 | 01:23:18 | 00:00:00 | |
| DO2SHX-10 | 2026-08-31 12:13:44 | 54.47148 | 14.09570 | 43° | 9km/h | 23079m | 6.2m/s | -52.5°C | 4.2% | 36.3hPa | 2.7V | 00:00:00 | 01:23:17 | 00:00:00 | |
| DM0DOS-11 | 2026-08-31 12:13:43 | 54.47141 | 14.09563 | 30° | 16km/h | 23063m | 6.5m/s | -52.6°C | 4.2% | 36.5hPa | 2.6V | 08:30:00 | 01:23:14 | 00:00:00 | |
| AA1-15 | 2026-08-31 12:13:40 | 54.47128 | 14.09546 | 47° | 22km/h | 23047m | 6.4m/s | -52.5°C | 1.2% | 36.6hPa | 2.7V | 18:12:15 | 01:23:11 | 00:00:00 | |
| DL1XH1-15 | 2026-08-31 12:13:38 | 54.47125 | 14.09539 | 58° | 20km/h | 23041m | 5.1m/s | -52.6°C | 4.2% | 36.6hPa | 2.7V | 08:30:00 | 01:23:10 | 00:00:00 | |
| DF8AY | 2026-08-31 12:13:37 | 54.47123 | 14.09531 | 64° | 20km/h | 23036m | 5m/s | 0°C | 0% | 36.6hPa | 2.6V | 18:12:15 | 01:23:09 | 00:00:00 | |
| DL1XH-west | 2026-08-31 12:13:34 | 54.47118 | 14.09516 | 61° | 20km/h | 23024m | 5.4m/s | -52.4°C | 1.2% | 36.7hPa | 2.7V | 18:12:15 | 01:23:07 | 00:00:00 | |
| DM0DOS-11 | 2026-08-31 12:13:33 | 54.47112 | 14.09497 | 55° | 11km/h | 23008m | 5.9m/s | -52.7°C | 4.3% | 36.8hPa | 2.6V | 08:30:00 | 01:23:04 | 00:00:00 | |
| DL1XH1-15 | 2026-08-31 12:13:32 | 54.47100 | 14.09484 | 24° | 18km/h | 22986m | 4.8m/s | -52.7°C | 4.3% | 36.9hPa | 2.6V | 08:30:00 | 01:23:00 | 00:00:00 | |
| AA1-15 | 2026-08-31 12:13:29 | 54.47107 | 14.09491 | 31° | 15km/h | 22997m | 6.5m/s | -52.7°C | 1.3% | 36.9hPa | 2.7V | 18:12:15 | 01:23:02 | 00:00:00 | |
| DF8AY | 2026-08-31 12:13:25 | 54.47092 | 14.09478 | 27° | 16km/h | 22975m | 5.1m/s | 0°C | 0% | 0hPa | 2.7V | 18:12:15 | 01:22:58 | 00:00:00 | |
| DL1XH-west | 2026-08-31 12:13:24 | 54.47084 | 14.09471 | 26° | 20km/h | 22964m | 6.1m/s | -52.8°C | 1.3% | 37hPa | 2.7V | 18:12:15 | 01:22:56 | 00:00:00 | |
| DM0DOS-11 | 2026-08-31 12:13:23 | 54.47075 | 14.09464 | 23° | 16km/h | 22953m | 5.4m/s | -52.7°C | 4.2% | 37.1hPa | 2.6V | 08:30:00 | 01:22:54 | 00:00:00 | |
| DO2SHX-10 | 2026-08-31 12:13:23 | 54.47084 | 14.09471 | 27° | 18km/h | 22964m | 6.0m/s | -52.7°C | 4.2% | 37.0hPa | 2.7V | 00:00:00 | 01:22:56 | 00:00:00 | |
| S3001 | 2026-08-31 12:13:22 | 54.47079 | 14.09467 | 26° | 18km/h | 22958m | 4.8m/s | -52.8°C | 1.4% | 37.0hPa | 2.7V | 00:00:00 | 00:00:00 | 00:00:00 | |
| DL1XH1-15 | 2026-08-31 12:13:21 | 54.47065 | 14.09457 | 23° | 13km/h | 22932m | 6.2m/s | -52.8°C | 4.3% | 37.2hPa | 2.7V | 08:30:00 | 01:22:50 | 00:00:00 | |
| AA1-15 | 2026-08-31 12:13:19 | 54.47069 | 14.09460 | 17° | 9km/h | 22942m | 4.7m/s | -52.8°C | 1.3% | 37.2hPa | 2.7V | 18:12:15 | 01:22:52 | 00:00:00 | |
| DF8AY | 2026-08-31 12:13:14 | 54.47054 | 14.09447 | 31° | 16km/h | 22917m | 5.3m/s | 0°C | 0% | 0hPa | 2.6V | 18:12:15 | 01:22:47 | 00:00:00 | |
| DL1XH-west | 2026-08-31 12:13:13 | 54.47051 | 14.09443 | 35° | 15km/h | 22911m | 5.8m/s | -52.9°C | 1.3% | 37.3hPa | 2.7V | 18:12:15 | 01:22:46 | 00:00:00 | |
| DM0DOS-11 | 2026-08-31 12:13:12 | 54.47044 | 14.09435 | 40° | 16km/h | 22901m | 5.1m/s | -53°C | 4.3% | 37.4hPa | 2.7V | 08:30:00 | 01:22:44 | 00:00:00 | |
| DO2SHX-10 | 2026-08-31 12:13:11 | 54.47045 | 14.09435 | 41° | 20km/h | 22901m | 5.1m/s | -52.9°C | 4.3% | 37.3hPa | 2.7V | 00:00:00 | 01:22:44 | 00:00:00 | |
| EDDB2-11 | 2026-08-31 12:13:10 | 54.47037 | 14.09423 | 47° | 20km/h | 22890m | 4.5m/s | -52.9°C | 1.5% | 37.5hPa | 2.7V | 00:00:00 | 00:00:00 | 00:00:00 | |
| DL1XH1-15 | 2026-08-31 12:13:09 | 54.47027 | 14.09401 | 43° | 9km/h | 22869m | 5m/s | -52.8°C | 4.3% | 37.6hPa | 2.7V | 08:30:00 | 01:22:38 | 00:00:00 | |
| DL1XH-15 | 2026-08-31 12:13:09 | 54.47034 | 14.09416 | 50° | 20km/h | 22886m | 4.4m/s | -52.9°C | 4.4% | 37.5hPa | 2.6V | 08:30:00 | 01:22:41 | 00:00:00 | |
| AA1-15 | 2026-08-31 12:13:08 | 54.47034 | 14.09416 | 51° | 20km/h | 22886m | 4.4m/s | -52.9°C | 1.4% | 37.5hPa | 2.6V | 18:12:15 | 01:22:41 | 00:00:00 | |
| DL1XH-west | 2026-08-31 12:13:03 | 54.47023 | 14.09397 | 9° | 13km/h | 22858m | 5.1m/s | -52.7°C | 1.3% | 37.6hPa | 2.6V | 18:12:15 | 01:22:36 | 00:00:00 | |
| DM0DOS-11 | 2026-08-31 12:13:02 | 54.47016 | 14.09398 | 342° | 13km/h | 22847m | 6.6m/s | -52.7°C | 4.2% | 37.7hPa | 2.7V | 08:30:00 | 01:22:34 | 00:00:00 | |
| DO2SHX-10 | 2026-08-31 12:13:02 | 54.47019 | 14.09397 | 355° | 13km/h | 22853m | 4.7m/s | -52.7°C | 4.3% | 37.6hPa | 2.7V | 00:00:00 | 01:22:35 | 00:00:00 | |
| AM1SDL-15 | 2026-08-31 12:13:01 | 54.47016 | 14.09398 | 343° | 13km/h | 22848m | 6.5m/s | -52.7°C | 4.2% | 37.6hPa | 2.7V | 00:00:00 | 01:22:34 | 00:00:00 | |
| DO2SHX-10 | 2026-08-31 12:12:59 | 54.47010 | 14.09401 | 351° | 16km/h | 22837m | 4.4m/s | -52.5°C | 4.2% | 37.7hPa | 2.6V | 00:00:00 | 01:22:32 | 08:30:00 | |
| DL1XH1-15 | 2026-08-31 12:12:58 | 54.46994 | 14.09392 | 37° | 16km/h | 22815m | 5.9m/s | -52.4°C | 4.1% | 37.9hPa | 2.6V | 08:30:00 | 01:22:28 | 00:00:00 | |
| AA1-15 | 2026-08-31 12:12:57 | 54.47002 | 14.09400 | 20° | 18km/h | 22825m | 5.1m/s | -52.6°C | 1.2% | 37.8hPa | 2.7V | 18:12:15 | 01:22:30 | 00:00:00 | |
| DF8AY | 2026-08-31 12:12:52 | 54.46977 | 14.09382 | 332° | 7km/h | 22771m | 5m/s | 0°C | 0% | 0hPa | 2.7V | 18:12:15 | 01:22:20 | 00:00:00 | |
| DM0DOS-11 | 2026-08-31 12:12:52 | 54.46986 | 14.09381 | 20° | 9km/h | 22793m | 6.1m/s | -52.6°C | 4.2% | 38hPa | 2.6V | 08:30:00 | 01:22:24 | 00:00:00 | |
| DL1XH-west | 2026-08-31 12:12:52 | 54.46988 | 14.09383 | 33° | 7km/h | 22799m | 5.6m/s | -52.6°C | 1.3% | 38hPa | 2.7V | 18:12:15 | 01:22:25 | 00:00:00 | |
| S3001 | 2026-08-31 12:12:51 | 54.46986 | 14.09381 | 20° | 9km/h | 22794m | 6.1m/s | -52.6°C | 1.4% | 38.0hPa | 2.6V | 00:00:00 | 00:00:00 | 00:00:00 | |
| DO2SHX-10 | 2026-08-31 12:12:50 | 54.46983 | 14.09380 | 10° | 9km/h | 22788m | 5.0m/s | -52.5°C | 4.2% | 38.0hPa | 2.6V | 00:00:00 | 01:22:23 | 00:00:00 | |
| AM1SDL-15 | 2026-08-31 12:12:49 | 54.46981 | 14.09380 | 355° | 9km/h | 22783m | 4.9m/s | -52.4°C | 4.1% | 38.0hPa | 2.6V | 00:00:00 | 01:22:22 | 00:00:00 | |
| DO2SHX-10 | 2026-08-31 12:12:47 | 54.46977 | 14.09382 | 332° | 9km/h | 22771m | 5.0m/s | -52.6°C | 4.2% | 38.1hPa | 2.6V | 00:00:00 | 01:22:20 | 00:00:00 | |
| AA1-15 | 2026-08-31 12:12:47 | 54.46972 | 14.09384 | 359° | 11km/h | 22760m | 6.4m/s | -52.8°C | 1.3% | 38.2hPa | 2.6V | 18:12:15 | 01:22:18 | 00:00:00 | |
| SP3WXH-11 | 2026-08-31 12:12:44 | 54.46966 | 14.09382 | 26° | 13km/h | 22750m | 4.1m/s | -52.8°C | 1.4% | 38.3hPa | 2.6V | 00:00:00 | 00:00:00 | 00:00:00 | |
| DL1XH-15 | 2026-08-31 12:12:42 | 54.46956 | 14.09373 | 1° | 9km/h | 22722m | 5.8m/s | -52.9°C | 4.3% | 38.4hPa | 2.6V | 08:30:00 | 01:22:11 | 00:00:00 | |
| DM0DOS-11 | 2026-08-31 12:12:42 | 54.46962 | 14.09376 | 35° | 9km/h | 22739m | 5.6m/s | -52.8°C | 4.3% | 38.3hPa | 2.7V | 08:30:00 | 01:22:14 | 00:00:00 | |
| DL1XH-west | 2026-08-31 12:12:42 | 54.46964 | 14.09379 | 32° | 13km/h | 22745m | 5.8m/s | -52.8°C | 1.4% | 38.3hPa | 2.7V | 18:12:15 | 01:22:15 | 00:00:00 | |
| DL1XH1-15 | 2026-08-31 12:12:41 | 54.46953 | 14.09373 | 343° | 11km/h | 22716m | 5.4m/s | -52.9°C | 4.2% | 38.5hPa | 2.6V | 08:30:00 | 01:22:10 | 00:00:00 | |
| AA1-15 | 2026-08-31 12:12:36 | 54.46947 | 14.09379 | 315° | 15km/h | 22704m | 6m/s | -53°C | 1.4% | 38.6hPa | 2.7V | 18:12:15 | 01:22:08 | 00:00:00 | |
| DO2SHX-10 | 2026-08-31 12:12:35 | 54.46947 | 14.09379 | 316° | 16km/h | 22704m | 5.9m/s | -53.0°C | 4.3% | 38.5hPa | 2.7V | 00:00:00 | 01:22:08 | 00:00:00 | |
| DL1XH-15 | 2026-08-31 12:12:32 | 54.46924 | 14.09403 | 344° | 7km/h | 22667m | 5.2m/s | -52.9°C | 4.4% | 38.7hPa | 2.7V | 08:30:00 | 01:22:01 | 00:00:00 | |
| DL1XH-west | 2026-08-31 12:12:31 | 54.46934 | 14.09398 | 336° | 18km/h | 22683m | 4.5m/s | -53°C | 1.3% | 38.7hPa | 2.6V | 18:12:15 | 01:22:04 | 00:00:00 | |
| DF8AY | 2026-08-31 12:12:30 | 54.46927 | 14.09402 | 346° | 13km/h | 22673m | 6.2m/s | 0°C | 0% | 0hPa | 2.7V | 18:12:15 | 01:22:02 | 00:00:00 | |
| DO2SHX-10 | 2026-08-31 12:12:29 | 54.46927 | 14.09402 | 346° | 9km/h | 22673m | 6.1m/s | -52.8°C | 4.3% | 38.7hPa | 2.6V | 00:00:00 | 01:22:02 | 00:00:00 | |
| DM0DOS-11 | 2026-08-31 12:12:27 | 54.46903 | 14.09414 | 322° | 13km/h | 22630m | 5.2m/s | -52.9°C | 4.4% | 39hPa | 2.6V | 08:30:00 | 01:21:54 | 00:00:00 | |
| AA1-15 | 2026-08-31 12:12:25 | 54.46917 | 14.09406 | 352° | 13km/h | 22651m | 6.3m/s | -53°C | 1.4% | 38.9hPa | 2.6V | 18:12:15 | 01:21:58 | 00:00:00 | |
| AM1SDL-15 | 2026-08-31 12:12:25 | 54.46917 | 14.09406 | 352° | 13km/h | 22652m | 6.3m/s | -52.9°C | 4.4% | 38.8hPa | 2.6V | 00:00:00 | 01:21:58 | 08:30:00 | |
| DO2SHX-10 | 2026-08-31 12:12:23 | 54.46910 | 14.09408 | 342° | 15km/h | 22641m | 4.8m/s | -52.8°C | 4.4% | 38.9hPa | 2.7V | 00:00:00 | 01:21:56 | 00:00:00 | |
| SONDE2-11 | 2026-08-31 12:12:22 | 54.46903 | 14.09414 | 322° | 13km/h | 22630m | 5.2m/s | -52.9°C | 1.5% | 39.0hPa | 2.7V | 00:00:00 | 00:00:00 | 00:00:00 | |
| DL1XH-15 | 2026-08-31 12:12:21 | 54.46892 | 14.09420 | 7° | 11km/h | 22608m | 5.4m/s | -53.1°C | 4.4% | 39.1hPa | 2.7V | 08:30:00 | 01:21:50 | 00:00:00 | |
| DO2SHX-10 | 2026-08-31 12:12:20 | 54.46900 | 14.09417 | 326° | 13km/h | 22625m | 4.8m/s | -53.0°C | 4.4% | 39.0hPa | 2.6V | 00:00:00 | 01:21:53 | 00:00:00 | |
| DO2SHX-10 | 2026-08-31 12:12:17 | 54.46892 | 14.09420 | 8° | 11km/h | 22608m | 5.4m/s | -53.1°C | 4.4% | 39.1hPa | 2.6V | 00:00:00 | 01:21:50 | 00:00:00 | |
| DM0DOS-11 | 2026-08-31 12:12:16 | 54.46873 | 14.09414 | 353° | 15km/h | 22575m | 5.8m/s | -52.6°C | 4.3% | 39.3hPa | 2.6V | 08:30:00 | 01:21:44 | 00:00:00 | |
| DL1XH-west | 2026-08-31 12:12:16 | 54.46889 | 14.09419 | 12° | 11km/h | 22602m | 6.4m/s | -53°C | 1.3% | 39.1hPa | 2.6V | 18:12:15 | 01:21:49 | 00:00:00 | |
| AA1-15 | 2026-08-31 12:12:15 | 54.46886 | 14.09418 | 17° | 11km/h | 22596m | 5m/s | -53°C | 1.4% | 39.2hPa | 2.6V | 18:12:15 | 01:21:48 | 00:00:00 | |
| DO2SHX-10 | 2026-08-31 12:12:14 | 54.46884 | 14.09417 | 19° | 15km/h | 22591m | 5.4m/s | -52.9°C | 4.4% | 39.2hPa | 2.7V | 00:00:00 | 01:21:47 | 00:00:00 | |
| SP3WXH-11 | 2026-08-31 12:12:13 | 54.46877 | 14.09414 | 7° | 15km/h | 22580m | 4.7m/s | -52.7°C | 1.4% | 39.3hPa | 2.6V | 00:00:00 | 00:00:00 | 00:00:00 | |
| DO2SHX-10 | 2026-08-31 12:12:11 | 54.46873 | 14.09414 | 354° | 13km/h | 22575m | 5.7m/s | -52.5°C | 4.3% | 39.3hPa | 2.6V | 00:00:00 | 01:21:44 | 00:00:00 | |
| DL1XH-15 | 2026-08-31 12:12:09 | 54.46862 | 14.09424 | 335° | 11km/h | 22553m | 5.8m/s | -52.5°C | 4.3% | 39.4hPa | 2.6V | 08:30:00 | 01:21:40 | 00:00:00 | |
| DO2SHX-10 | 2026-08-31 12:12:08 | 54.46865 | 14.09421 | 322° | 11km/h | 22559m | 5.4m/s | -52.5°C | 4.3% | 39.4hPa | 2.7V | 00:00:00 | 01:21:41 | 00:00:00 | |
| DL1XH1-15 | 2026-08-31 12:12:06 | 54.46858 | 14.09425 | 28° | 5km/h | 22542m | 6.3m/s | -52.5°C | 4.2% | 39.5hPa | 2.7V | 08:30:00 | 01:21:38 | 00:00:00 | |
| DL1XH-west | 2026-08-31 12:12:06 | 54.46858 | 14.09425 | 29° | 5km/h | 22542m | 6.3m/s | -52.5°C | 1.3% | 39.5hPa | 2.7V | 18:12:15 | 01:21:38 | 00:00:00 | |
| AA1-15 | 2026-08-31 12:12:04 | 54.46857 | 14.09423 | 73° | 5km/h | 22536m | 5.9m/s | -52.5°C | 1.3% | 39.6hPa | 2.6V | 18:12:15 | 01:21:37 | 00:00:00 | |
| DO2SHX-10 | 2026-08-31 12:12:02 | 54.46856 | 14.09415 | 78° | 15km/h | 22525m | 6.1m/s | -52.6°C | 4.3% | 39.6hPa | 2.7V | 00:00:00 | 01:21:35 | 00:00:00 | |
| AM1SDL-15 | 2026-08-31 12:12:01 | 54.46855 | 14.09409 | 64° | 13km/h | 22519m | 5.5m/s | -52.6°C | 4.3% | 39.6hPa | 2.7V | 00:00:00 | 01:21:34 | 00:00:00 | |
| DO2SHX-10 | 2026-08-31 12:11:59 | 54.46851 | 14.09399 | 48° | 11km/h | 22508m | 6.0m/s | -52.5°C | 4.2% | 39.7hPa | 2.7V | 00:00:00 | 01:21:32 | 00:00:00 | |
| DL1XH1-15 | 2026-08-31 12:11:55 | 54.46840 | 14.09400 | 326° | 16km/h | 22485m | 5.3m/s | -52.7°C | 4.3% | 39.9hPa | 2.7V | 08:30:00 | 01:21:28 | 00:00:00 | |
| DL1XH-west | 2026-08-31 12:11:55 | 54.46840 | 14.09400 | 326° | 16km/h | 22485m | 5.4m/s | -52.7°C | 1.4% | 39.9hPa | 2.7V | 18:12:15 | 01:21:28 | 00:00:00 | |
| AA1-15 | 2026-08-31 12:11:54 | 54.46837 | 14.09405 | 313° | 15km/h | 22480m | 5m/s | -52.6°C | 1.4% | 39.9hPa | 2.7V | 18:12:15 | 01:21:27 | 00:00:00 | |
| SONDE2-11 | 2026-08-31 12:11:51 | 54.46836 | 14.09409 | 113° | 9km/h | 22459m | 5.9m/s | -52.5°C | 1.4% | 40.1hPa | 2.6V | 00:00:00 | 00:00:00 | 00:00:00 | |
| DM0DOS-11 | 2026-08-31 12:11:50 | 54.46836 | 14.09409 | 113° | 9km/h | 22459m | 5.9m/s | -52.5°C | 4.3% | 40hPa | 2.6V | 08:30:00 | 01:21:23 | 00:00:00 | |
| DO2SHX-10 | 2026-08-31 12:11:50 | 54.46836 | 14.09409 | 114° | 13km/h | 22459m | 5.9m/s | -52.4°C | 4.3% | 40.0hPa | 2.7V | 00:00:00 | 01:21:23 | 00:00:00 | |
| DL1XH-15 | 2026-08-31 12:11:49 | 54.46836 | 14.09391 | 76° | 18km/h | 22443m | 4.5m/s | -52.4°C | 4.2% | 40.1hPa | 2.7V | 08:30:00 | 01:21:20 | 00:00:00 | |
| DL1XH1-15 | 2026-08-31 12:11:49 | 54.46834 | 14.09378 | 75° | 15km/h | 22432m | 5.6m/s | -52.2°C | 4.2% | 40.2hPa | 2.6V | 08:30:00 | 01:21:18 | 00:00:00 | |
| DF8AY | 2026-08-31 12:11:46 | 54.46834 | 14.09378 | 76° | 15km/h | 22432m | 5.6m/s | 0°C | 0% | 0hPa | 2.6V | 18:12:15 | 01:21:18 | 00:00:00 | |
| DL1XH-west | 2026-08-31 12:11:45 | 54.46832 | 14.09369 | 54° | 9km/h | 22422m | 4.9m/s | -52.2°C | 1.2% | 40.3hPa | 2.7V | 18:12:15 | 01:21:16 | 00:00:00 | |
| DM0DOS-11 | 2026-08-31 12:11:45 | 54.46825 | 14.09363 | 8° | 9km/h | 22406m | 4.7m/s | -52.3°C | 4.2% | 40.4hPa | 2.6V | 08:30:00 | 01:21:13 | 00:00:00 | |
| AA1-15 | 2026-08-31 12:11:44 | 54.46830 | 14.09366 | 33° | 9km/h | 22417m | 6.2m/s | -52.2°C | 1.3% | 40.3hPa | 2.7V | 18:12:15 | 01:21:15 | 00:00:00 | |
| DO2SHX-10 | 2026-08-31 12:11:44 | 54.46833 | 14.09373 | 70° | 9km/h | 22427m | 4.7m/s | -52.1°C | 4.1% | 40.2hPa | 2.7V | 00:00:00 | 01:21:17 | 00:00:00 | |
| DL1XH-15 | 2026-08-31 12:11:43 | 54.46820 | 14.09366 | 339° | 4km/h | 22383m | 6.5m/s | -52.3°C | 4.3% | 40.5hPa | 2.7V | 08:30:00 | 01:21:09 | 00:00:00 | |
| DO2SHX-10 | 2026-08-31 12:11:41 | 54.46828 | 14.09364 | 20° | 9km/h | 22411m | 5.7m/s | -52.2°C | 4.2% | 40.3hPa | 2.6V | 00:00:00 | 01:21:14 | 00:00:00 | |
| DL1XH1-15 | 2026-08-31 12:11:40 | 54.46818 | 14.09366 | 16° | 7km/h | 22377m | 5.9m/s | -52.3°C | 4.3% | 40.5hPa | 2.6V | 08:30:00 | 01:21:08 | 00:00:00 | |
| DL1XH-west | 2026-08-31 12:11:34 | 54.46817 | 14.09365 | 39° | 9km/h | 22371m | 4.8m/s | -52.3°C | 1.4% | 40.6hPa | 2.6V | 18:12:15 | 01:21:07 | 00:00:00 | |
| DM0DOS-11 | 2026-08-31 12:11:33 | 54.46811 | 14.09349 | 60° | 15km/h | 22348m | 7m/s | -52.1°C | 4.3% | 40.7hPa | 2.6V | 08:30:00 | 01:21:03 | 00:00:00 | |
| AA1-15 | 2026-08-31 12:11:33 | 54.46815 | 14.09362 | 52° | 9km/h | 22366m | 6.5m/s | -52.4°C | 1.4% | 40.6hPa | 2.7V | 18:12:15 | 01:21:06 | 00:00:00 | |
| DO2SHX-10 | 2026-08-31 12:11:32 | 54.46814 | 14.09358 | 65° | 13km/h | 22360m | 5.9m/s | -52.3°C | 4.3% | 40.6hPa | 2.7V | 00:00:00 | 01:21:05 | 00:00:00 | |
| DL1XH1-15 | 2026-08-31 12:11:29 | 54.46803 | 14.09328 | 40° | 5km/h | 22320m | 5.4m/s | -52°C | 4.1% | 41hPa | 2.7V | 08:30:00 | 01:20:58 | 00:00:00 | |
| DF8AY | 2026-08-31 12:11:24 | 54.46801 | 14.09326 | 28° | 7km/h | 22314m | 6.3m/s | 0°C | 0% | 0hPa | 2.7V | 18:12:15 | 01:20:57 | 00:00:00 | |
| AA1-15 | 2026-08-31 12:11:23 | 54.46800 | 14.09325 | 24° | 9km/h | 22308m | 5.2m/s | -52°C | 1.2% | 41hPa | 2.6V | 18:12:15 | 01:20:56 | 00:00:00 | |
| DO2SHX-10 | 2026-08-31 12:11:23 | 54.46799 | 14.09325 | 24° | 7km/h | 22309m | 5.2m/s | -51.9°C | 4.1% | 40.9hPa | 2.7V | 00:00:00 | 01:20:56 | 00:00:00 | |
| DM0DOS-11 | 2026-08-31 12:11:22 | 54.46795 | 14.09319 | 59° | 7km/h | 22292m | 5.1m/s | -51.7°C | 4.1% | 41.1hPa | 2.7V | 08:30:00 | 01:20:53 | 00:00:00 | |
| DF8AY | 2026-08-31 12:11:14 | 54.46781 | 14.09283 | 60° | 18km/h | 22259m | 5.3m/s | 0°C | 0% | 0hPa | 2.7V | 18:12:15 | 01:20:47 | 00:00:00 | |
| AA1-15 | 2026-08-31 12:11:12 | 54.46776 | 14.09272 | 48° | 16km/h | 22247m | 6m/s | -51.6°C | 1.2% | 41.4hPa | 2.7V | 18:12:15 | 01:20:45 | 00:00:00 | |
| DL1XH-15 | 2026-08-31 12:11:11 | 54.46771 | 14.09245 | 89° | 16km/h | 22220m | 5.8m/s | -51.6°C | 4.1% | 41.5hPa | 2.7V | 08:30:00 | 01:20:40 | 00:00:00 | |
| DM0DOS-11 | 2026-08-31 12:11:11 | 54.46772 | 14.09263 | 62° | 13km/h | 22237m | 5.5m/s | -51.8°C | 4.2% | 41.5hPa | 2.6V | 08:30:00 | 01:20:43 | 00:00:00 | |
| SP3WXH-11 | 2026-08-31 12:11:11 | 54.46772 | 14.09263 | 62° | 11km/h | 22237m | 5.6m/s | -51.8°C | 1.4% | 41.5hPa | 2.6V | 00:00:00 | 00:00:00 | 00:00:00 | |
| AM1SDL-15 | 2026-08-31 12:11:09 | 54.46771 | 14.09258 | 84° | 16km/h | 22231m | 6.2m/s | -51.8°C | 4.2% | 41.4hPa | 2.6V | 00:00:00 | 01:20:42 | 00:00:00 | |
| DO2SHX-10 | 2026-08-31 12:11:08 | 54.46771 | 14.09252 | 94° | 15km/h | 22225m | 5.1m/s | -51.7°C | 4.2% | 41.5hPa | 2.6V | 00:00:00 | 01:20:41 | 00:00:00 | |
| DL1XH1-15 | 2026-08-31 12:11:07 | 54.46770 | 14.09231 | 75° | 16km/h | 22208m | 4.8m/s | -51.6°C | 4.1% | 41.6hPa | 2.6V | 08:30:00 | 01:20:38 | 00:00:00 | |
| DL1XH-west | 2026-08-31 12:11:02 | 54.46767 | 14.09211 | 73° | 16km/h | 22191m | 4.9m/s | -51.7°C | 1.1% | 41.7hPa | 2.7V | 18:12:15 | 01:20:35 | 00:00:00 | |
| AA1-15 | 2026-08-31 12:11:01 | 54.46765 | 14.09204 | 62° | 18km/h | 22186m | 6.3m/s | -51.7°C | 1.2% | 41.8hPa | 2.7V | 18:12:15 | 01:20:34 | 00:00:00 | |
| DF8AY | 2026-08-31 12:11:00 | 54.46763 | 14.09197 | 54° | 22km/h | 22179m | 6.2m/s | 0°C | 0% | 0hPa | 2.7V | 18:12:15 | 01:20:33 | 00:00:00 | |
| DM0DOS-11 | 2026-08-31 12:11:00 | 54.46756 | 14.09180 | 58° | 24km/h | 22169m | 5.7m/s | -51.8°C | 4.1% | 41.9hPa | 2.6V | 08:30:00 | 01:20:31 | 00:00:00 | |
| DL1XH-15 | 2026-08-31 12:10:59 | 54.46753 | 14.09171 | 66° | 24km/h | 22163m | 6.1m/s | -51.7°C | 4.2% | 41.9hPa | 2.6V | 08:30:00 | 01:20:30 | 00:00:00 | |
| DO2SHX-10 | 2026-08-31 12:10:59 | 54.46759 | 14.09189 | 54° | 24km/h | 22174m | 4.5m/s | -51.7°C | 4.1% | 41.8hPa | 2.6V | 00:00:00 | 01:20:32 | 00:00:00 | |
| AM1SDL-15 | 2026-08-31 12:10:57 | 54.46753 | 14.09171 | 67° | 20km/h | 22163m | 6.1m/s | -51.7°C | 4.2% | 41.8hPa | 2.6V | 00:00:00 | 01:20:30 | 00:00:00 | |
| DO2SHX-10 | 2026-08-31 12:10:56 | 54.46751 | 14.09161 | 74° | 22km/h | 22158m | 4.7m/s | -51.6°C | 4.2% | 41.9hPa | 2.6V | 00:00:00 | 01:20:29 | 00:00:00 | |
| DO2SHX-10 | 2026-08-31 12:10:53 | 54.46745 | 14.09134 | 62° | 22km/h | 22143m | 5.8m/s | -51.5°C | 4.1% | 42.0hPa | 2.6V | 00:00:00 | 01:20:26 | 00:00:00 | |
| DL1XH-15 | 2026-08-31 12:10:52 | 54.46728 | 14.09094 | 45° | 18km/h | 22107m | 6.5m/s | -51.7°C | 4.1% | 42.3hPa | 2.6V | 08:30:00 | 01:20:20 | 00:00:00 | |
| AA1-15 | 2026-08-31 12:10:51 | 54.46739 | 14.09119 | 51° | 22km/h | 22131m | 5.5m/s | -51.5°C | 1.2% | 42.1hPa | 2.6V | 18:12:15 | 01:20:24 | 00:00:00 | |
| DM0DOS-11 | 2026-08-31 12:10:50 | 54.46731 | 14.09099 | 52° | 16km/h | 22114m | 5.2m/s | -51.6°C | 4.1% | 42.2hPa | 2.6V | 08:30:00 | 01:20:21 | 00:00:00 | |
| DF8AY | 2026-08-31 12:10:49 | 54.46734 | 14.09105 | 56° | 16km/h | 22119m | 5.1m/s | 0°C | 0% | 0hPa | 2.7V | 18:12:15 | 01:20:22 | 00:00:00 | |
| EDDB2-12 | 2026-08-31 12:10:48 | 54.46731 | 14.09099 | 52° | 15km/h | 22114m | 5.2m/s | -51.7°C | 1.4% | 42.3hPa | 2.7V | 00:00:00 | 00:00:00 | 00:00:00 | |
| S3001 | 2026-08-31 12:10:47 | 54.46725 | 14.09089 | 38° | 18km/h | 22102m | 5.7m/s | -51.7°C | 1.4% | 42.3hPa | 2.7V | 00:00:00 | 00:00:00 | 00:00:00 | |
| DL1XH-west | 2026-08-31 12:10:41 | 54.46708 | 14.09067 | 27° | 18km/h | 22075m | 6.4m/s | -51.6°C | 1.2% | 42.5hPa | 2.7V | 18:12:15 | 01:20:14 | 00:00:00 | |
| DL1XH-15 | 2026-08-31 12:10:41 | 54.46692 | 14.09056 | 22° | 18km/h | 22052m | 4.3m/s | -51.6°C | 4.2% | 42.7hPa | 2.7V | 08:30:00 | 01:20:10 | 00:00:00 | |
| AA1-15 | 2026-08-31 12:10:41 | 54.46704 | 14.09064 | 21° | 18km/h | 22069m | 5.6m/s | -51.5°C | 1.2% | 42.5hPa | 2.6V | 18:12:15 | 01:20:13 | 00:00:00 | |
| DM0DOS-11 | 2026-08-31 12:10:40 | 54.46695 | 14.09058 | 22° | 16km/h | 22057m | 5.4m/s | -51.6°C | 4.1% | 42.6hPa | 2.7V | 08:30:00 | 01:20:11 | 00:00:00 | |
| SP3WXH-11 | 2026-08-31 12:10:40 | 54.46700 | 14.09061 | 19° | 18km/h | 22063m | 6.1m/s | -51.5°C | 1.4% | 42.6hPa | 2.6V | 00:00:00 | 00:00:00 | 00:00:00 | |
| DO2SHX-10 | 2026-08-31 12:10:38 | 54.46695 | 14.09058 | 23° | 18km/h | 22057m | 5.3m/s | -51.5°C | 4.1% | 42.6hPa | 2.6V | 00:00:00 | 01:20:11 | 00:00:00 | |
| DL1XH1-15 | 2026-08-31 12:10:37 | 54.46682 | 14.09049 | 19° | 24km/h | 22040m | 6.2m/s | -51.5°C | 4.1% | 42.7hPa | 2.6V | 08:30:00 | 01:20:08 | 00:00:00 | |
| AA1-15 | 2026-08-31 12:10:30 | 54.46656 | 14.09028 | 29° | 22km/h | 22013m | 6.2m/s | -51.6°C | 1.2% | 42.9hPa | 2.6V | 18:12:15 | 01:20:03 | 00:00:00 | |
| DL1XH-15 | 2026-08-31 12:10:29 | 54.46640 | 14.09012 | 33° | 24km/h | 21995m | 6.5m/s | -51.7°C | 4.2% | 43hPa | 2.7V | 08:30:00 | 01:20:00 | 00:00:00 | |
| DM0DOS-11 | 2026-08-31 12:10:29 | 54.46646 | 14.09018 | 28° | 26km/h | 22001m | 5.4m/s | -51.7°C | 4.1% | 43hPa | 2.6V | 08:30:00 | 01:20:01 | 00:00:00 | |
| DO2SHX-10 | 2026-08-31 12:10:29 | 54.46651 | 14.09023 | 29° | 26km/h | 22007m | 5.7m/s | -51.6°C | 4.1% | 42.9hPa | 2.7V | 00:00:00 | 01:20:02 | 00:00:00 | |
| DO2SHX-10 | 2026-08-31 12:10:26 | 54.46636 | 14.09007 | 35° | 20km/h | 21989m | 5.5m/s | -51.5°C | 4.1% | 43.0hPa | 2.7V | 00:00:00 | 01:19:59 | 00:00:00 | |
| DO2SHX-10 | 2026-08-31 12:10:23 | 54.46621 | 14.08995 | 17° | 20km/h | 21973m | 5.6m/s | -51.6°C | 4.1% | 43.1hPa | 2.6V | 00:00:00 | 01:19:56 | 00:00:00 | |
| DL1XH-15 | 2026-08-31 12:10:22 | 54.46592 | 14.08991 | 346° | 22km/h | 21938m | 4.7m/s | -51.5°C | 4% | 43.4hPa | 2.6V | 08:30:00 | 01:19:50 | 00:00:00 | |
| DL1XH-west | 2026-08-31 12:10:19 | 54.46602 | 14.08989 | 359° | 18km/h | 21950m | 5.2m/s | -51.5°C | 1.2% | 43.3hPa | 2.7V | 18:12:15 | 01:19:52 | 00:00:00 | |
| DM0DOS-11 | 2026-08-31 12:10:19 | 54.46597 | 14.08990 | 353° | 20km/h | 21943m | 6.5m/s | -51.5°C | 4.1% | 43.3hPa | 2.6V | 08:30:00 | 01:19:51 | 00:00:00 | |
| DO2SHX-10 | 2026-08-31 12:10:17 | 54.46592 | 14.08991 | 347° | 18km/h | 21938m | 4.6m/s | -51.4°C | 4.0% | 43.4hPa | 2.6V | 00:00:00 | 01:19:50 | 08:30:00 | |
| S3001 | 2026-08-31 12:10:16 | 54.46583 | 14.08995 | 345° | 15km/h | 21928m | 6.1m/s | -51.5°C | 1.4% | 43.5hPa | 2.7V | 00:00:00 | 00:00:00 | 00:00:00 | |
| DO2SHX-10 | 2026-08-31 12:10:14 | 54.46579 | 14.08997 | 348° | 15km/h | 21922m | 5.2m/s | -51.4°C | 4.0% | 43.5hPa | 2.7V | 00:00:00 | 01:19:47 | 00:00:00 | |
| DL1XH1-15 | 2026-08-31 12:10:11 | 54.46558 | 14.09001 | 5° | 20km/h | 21893m | 6.3m/s | -51.4°C | 4% | 43.7hPa | 2.7V | 08:30:00 | 01:19:42 | 00:00:00 | |
| DO2SHX-10 | 2026-08-31 12:10:11 | 54.46567 | 14.09001 | 352° | 20km/h | 21905m | 5.2m/s | -51.4°C | 4.0% | 43.6hPa | 2.7V | 00:00:00 | 01:19:44 | 00:00:00 | |
| DL1XH-15 | 2026-08-31 12:10:09 | 54.46547 | 14.09000 | 358° | 22km/h | 21883m | 5.8m/s | -51.4°C | 4% | 43.8hPa | 2.7V | 08:30:00 | 01:19:40 | 00:00:00 | |
| DL1XH-west | 2026-08-31 12:10:09 | 54.46558 | 14.09001 | 6° | 20km/h | 21893m | 6.4m/s | -51.4°C | 1.2% | 43.7hPa | 2.7V | 18:12:15 | 01:19:42 | 00:00:00 | |
| DM0DOS-11 | 2026-08-31 12:10:09 | 54.46553 | 14.09000 | 4° | 22km/h | 21888m | 4.3m/s | -51.4°C | 4% | 43.7hPa | 2.7V | 08:30:00 | 01:19:41 | 00:00:00 | |
| AA1-15 | 2026-08-31 12:10:08 | 54.46553 | 14.09000 | 5° | 22km/h | 21888m | 4.4m/s | -51.4°C | 1.1% | 43.7hPa | 2.7V | 18:12:15 | 01:19:41 | 00:00:00 | |
| DO2SHX-10 | 2026-08-31 12:10:08 | 54.46553 | 14.09000 | 5° | 24km/h | 21888m | 4.3m/s | -51.4°C | 4.0% | 43.7hPa | 2.7V | 00:00:00 | 01:19:41 | 00:00:00 | |
| SONCRA | 2026-08-31 12:10:05 | 54.46535 | 14.09005 | 337° | 26km/h | 21871m | 5.3m/s | -51.4°C | 1.3% | 43.8hPa | 2.7V | 00:00:00 | 00:00:00 | 00:00:00 | |
| DM0DOS-11 | 2026-08-31 12:10:03 | 54.46504 | 14.09041 | 325° | 18km/h | 21833m | 5.7m/s | -51.5°C | 4% | 44.1hPa | 2.7V | 08:30:00 | 01:19:31 | 00:00:00 | |
| DL1XH-15 | 2026-08-31 12:10:02 | 54.46501 | 14.09045 | 337° | 15km/h | 21827m | 6.2m/s | -51.5°C | 4% | 44.1hPa | 2.6V | 08:30:00 | 01:19:30 | 00:00:00 | |
| DO2SHX-10 | 2026-08-31 12:10:02 | 54.46520 | 14.09019 | 325° | 20km/h | 21855m | 4.5m/s | -51.2°C | 4.0% | 43.9hPa | 2.7V | 00:00:00 | 01:19:35 | 00:00:00 | |
| DL1XH1-15 | 2026-08-31 12:10:00 | 54.46508 | 14.09036 | 318° | 20km/h | 21838m | 4.8m/s | -51.5°C | 4% | 44.1hPa | 2.7V | 08:30:00 | 01:19:32 | 00:00:00 | |
| DL1XH-west | 2026-08-31 12:09:59 | 54.46504 | 14.09041 | 326° | 18km/h | 21833m | 5.7m/s | -51.5°C | 1.1% | 44.1hPa | 2.7V | 18:12:15 | 01:19:31 | 00:00:00 | |
| AA1-15 | 2026-08-31 12:09:57 | 54.46501 | 14.09045 | 337° | 15km/h | 21827m | 6.2m/s | -51.5°C | 1.2% | 44.1hPa | 2.6V | 18:12:15 | 01:19:30 | 00:00:00 | |
| AM1SDL-15 | 2026-08-31 12:09:57 | 54.46501 | 14.09045 | 338° | 18km/h | 21827m | 6.1m/s | -51.4°C | 4.0% | 44.1hPa | 2.6V | 00:00:00 | 01:19:30 | 00:00:00 | |
| DO2SHX-10 | 2026-08-31 12:09:56 | 54.46497 | 14.09046 | 350° | 15km/h | 21822m | 5.0m/s | -51.5°C | 4.1% | 44.1hPa | 2.6V | 00:00:00 | 01:19:29 | 00:00:00 | |
| DL1XH1-15 | 2026-08-31 12:09:54 | 54.46469 | 14.09064 | 334° | 18km/h | 21784m | 5.5m/s | -51.7°C | 4.1% | 44.5hPa | 2.6V | 08:30:00 | 01:19:22 | 00:00:00 | |
| DO2SHX-10 | 2026-08-31 12:09:53 | 54.46487 | 14.09052 | 335° | 18km/h | 21806m | 5.0m/s | -51.5°C | 4.1% | 44.3hPa | 2.6V | 00:00:00 | 01:19:26 | 00:00:00 | |
| DM0DOS-11 | 2026-08-31 12:09:52 | 54.46465 | 14.09068 | 327° | 18km/h | 21778m | 6m/s | -51.8°C | 4.1% | 44.5hPa | 2.6V | 08:30:00 | 01:19:21 | 00:00:00 | |
| SP3BTT-10 | 2026-08-31 12:09:52 | 54.46483 | 14.09055 | 337° | 13km/h | 21801m | 4.6m/s | -51.5°C | 4.0% | 44.3hPa | 2.7V | 00:00:00 | 00:00:00 | 00:00:00 | |
| DO2SHX-10 | 2026-08-31 12:09:50 | 54.46474 | 14.09061 | 341° | 18km/h | 21790m | 5.3m/s | -51.7°C | 4.1% | 44.4hPa | 2.7V | 00:00:00 | 01:19:23 | 08:30:00 | |
| DL1XH-15 | 2026-08-31 12:09:49 | 54.46462 | 14.09072 | 321° | 16km/h | 21773m | 4.5m/s | -51.8°C | 4.1% | 44.5hPa | 2.6V | 08:30:00 | 01:19:20 | 00:00:00 | |
| AA1-15 | 2026-08-31 12:09:47 | 54.46462 | 14.09072 | 322° | 16km/h | 21773m | 4.5m/s | -51.8°C | 1.2% | 44.5hPa | 2.6V | 18:12:15 | 01:19:20 | 00:00:00 | |
| EDDB2-12 | 2026-08-31 12:09:46 | 54.46455 | 14.09079 | 340° | 13km/h | 21763m | 5.8m/s | -51.8°C | 1.4% | 44.6hPa | 2.6V | 00:00:00 | 00:00:00 | 00:00:00 | |
| AM1SDL-15 | 2026-08-31 12:09:45 | 54.46455 | 14.09079 | 341° | 15km/h | 21763m | 5.8m/s | -51.8°C | 4.1% | 44.5hPa | 2.6V | 00:00:00 | 01:19:18 | 00:00:00 | |
| DO2SHX-10 | 2026-08-31 12:09:44 | 54.46452 | 14.09080 | 349° | 15km/h | 21758m | 4.5m/s | -51.6°C | 4.1% | 44.6hPa | 2.6V | 00:00:00 | 01:19:17 | 00:00:00 | |
| DL1XH1-15 | 2026-08-31 12:09:42 | 54.46423 | 14.09100 | 320° | 15km/h | 21714m | 5.5m/s | -51.6°C | 4.1% | 44.9hPa | 2.6V | 08:30:00 | 01:19:09 | 00:00:00 | |
| DM0DOS-11 | 2026-08-31 12:09:41 | 54.46429 | 14.09094 | 342° | 16km/h | 21724m | 4.1m/s | -51.7°C | 4.1% | 44.8hPa | 2.7V | 08:30:00 | 01:19:11 | 00:00:00 | |
| AA1-15 | 2026-08-31 12:09:37 | 54.46420 | 14.09104 | 312° | 13km/h | 21709m | 4.4m/s | -51.7°C | 1.2% | 45hPa | 2.6V | 18:12:15 | 01:19:08 | 00:00:00 | |
| DO2SHX-10 | 2026-08-31 12:09:35 | 54.46420 | 14.09104 | 312° | 11km/h | 21709m | 4.4m/s | -51.6°C | 4.1% | 44.9hPa | 2.7V | 00:00:00 | 01:19:08 | 00:00:00 | |
| SONCRA | 2026-08-31 12:09:34 | 54.46418 | 14.09108 | 317° | 11km/h | 21704m | 5.5m/s | -51.6°C | 1.4% | 45.0hPa | 2.7V | 00:00:00 | 00:00:00 | 00:00:00 | |
| DM0DOS-11 | 2026-08-31 12:09:33 | 54.46407 | 14.09120 | 304° | 7km/h | 21672m | 5m/s | -51.5°C | 4.1% | 45.2hPa | 2.7V | 08:30:00 | 01:19:01 | 00:00:00 | |
| AM1SDL-15 | 2026-08-31 12:09:33 | 54.46416 | 14.09111 | 331° | 7km/h | 21698m | 5.8m/s | -51.6°C | 4.1% | 45.0hPa | 2.7V | 00:00:00 | 01:19:06 | 00:00:00 | |
| DO2SHX-10 | 2026-08-31 12:09:32 | 54.46413 | 14.09112 | 347° | 9km/h | 21693m | 4.5m/s | -51.5°C | 4.1% | 45.0hPa | 2.7V | 00:00:00 | 01:19:05 | 00:00:00 | |
| DL1XH1-15 | 2026-08-31 12:09:31 | 54.46404 | 14.09124 | 318° | 5km/h | 21662m | 5.3m/s | -51.4°C | 4% | 45.3hPa | 2.7V | 08:30:00 | 01:18:59 | 00:00:00 | |
| DL1XH-15 | 2026-08-31 12:09:29 | 54.46405 | 14.09122 | 311° | 5km/h | 21667m | 5.9m/s | -51.5°C | 4.1% | 45.2hPa | 2.7V | 08:30:00 | 01:19:00 | 00:00:00 | |
| DL1XH-west | 2026-08-31 12:09:27 | 54.46405 | 14.09122 | 311° | 5km/h | 21667m | 5.9m/s | -51.5°C | 1.2% | 45.2hPa | 2.7V | 18:12:15 | 01:19:00 | 00:00:00 | |
| AA1-15 | 2026-08-31 12:09:26 | 54.46404 | 14.09124 | 318° | 5km/h | 21662m | 5.3m/s | -51.4°C | 1.1% | 45.3hPa | 2.7V | 18:12:15 | 01:18:59 | 00:00:00 | |
| DO2SHX-10 | 2026-08-31 12:09:23 | 54.46401 | 14.09130 | 311° | 9km/h | 21646m | 4.6m/s | -51.4°C | 4.0% | 45.4hPa | 2.6V | 00:00:00 | 01:18:56 | 08:30:00 | |
| DL1XH1-15 | 2026-08-31 12:09:21 | 54.46386 | 14.09134 | 4° | 5km/h | 21609m | 5.1m/s | -51.5°C | 4% | 45.7hPa | 2.7V | 08:30:00 | 01:18:49 | 00:00:00 | |
| DO2SHX-10 | 2026-08-31 12:09:20 | 54.46395 | 14.09134 | 8° | 11km/h | 21630m | 5.0m/s | -51.5°C | 4.0% | 45.5hPa | 2.6V | 00:00:00 | 01:18:53 | 00:00:00 | |
| DL1XH-15 | 2026-08-31 12:09:18 | 54.46387 | 14.09134 | 352° | 9km/h | 21614m | 4.7m/s | -51.6°C | 4% | 45.6hPa | 2.6V | 08:30:00 | 01:18:50 | 00:00:00 | |
| DL1XH-west | 2026-08-31 12:09:17 | 54.46386 | 14.09134 | 4° | 5km/h | 21609m | 5.1m/s | -51.5°C | 1.1% | 45.7hPa | 2.7V | 18:12:15 | 01:18:49 | 00:00:00 | |
| AA1-15 | 2026-08-31 12:09:16 | 54.46385 | 14.09133 | 37° | 4km/h | 21603m | 6.3m/s | -51.6°C | 1.2% | 45.7hPa | 2.7V | 18:12:15 | 01:18:48 | 00:00:00 | |
| EDDB2-12 | 2026-08-31 12:09:15 | 54.46384 | 14.09132 | 93° | 2km/h | 21598m | 4.8m/s | -51.6°C | 1.4% | 45.7hPa | 2.6V | 00:00:00 | 00:00:00 | 00:00:00 | |
| DO2SHX-10 | 2026-08-31 12:09:14 | 54.46384 | 14.09132 | 94° | 4km/h | 21598m | 4.8m/s | -51.6°C | 4.0% | 45.7hPa | 2.6V | 00:00:00 | 01:18:47 | 00:00:00 | |
| S3001 | 2026-08-31 12:09:13 | 54.46385 | 14.09131 | 153° | 2km/h | 21592m | 6.1m/s | -51.6°C | 1.4% | 45.8hPa | 2.7V | 00:00:00 | 00:00:00 | 00:00:00 | |
| DO2SHX-10 | 2026-08-31 12:09:11 | 54.46388 | 14.09130 | 176° | 7km/h | 21583m | 3.7m/s | -51.7°C | 4.1% | 45.8hPa | 2.7V | 00:00:00 | 01:18:44 | 00:00:00 | |
| DM0DOS-11 | 2026-08-31 12:09:10 | 54.46392 | 14.09125 | 112° | 9km/h | 21566m | 5.1m/s | -51.7°C | 4.2% | 46hPa | 2.7V | 08:30:00 | 01:18:41 | 00:00:00 | |
| DL1XH1-15 | 2026-08-31 12:09:08 | 54.46392 | 14.09115 | 58° | 7km/h | 21550m | 4.6m/s | -51.7°C | 4.1% | 46.1hPa | 2.6V | 08:30:00 | 01:18:38 | 00:00:00 | |
| AA1-15 | 2026-08-31 12:09:06 | 54.46390 | 14.09107 | 69° | 15km/h | 21539m | 5.7m/s | -51.6°C | 1.2% | 46.2hPa | 2.7V | 18:12:15 | 01:18:36 | 00:00:00 | |
| DO2SHX-10 | 2026-08-31 12:09:05 | 54.46392 | 14.09115 | 59° | 11km/h | 21550m | 4.5m/s | -51.7°C | 4.1% | 46.0hPa | 2.6V | 00:00:00 | 01:18:38 | 00:00:00 | |
| SONCRA | 2026-08-31 12:09:04 | 54.46390 | 14.09107 | 69° | 13km/h | 21539m | 5.7m/s | -51.6°C | 1.4% | 46.2hPa | 2.7V | 00:00:00 | 00:00:00 | 00:00:00 | |
| EDDB2-11 | 2026-08-31 12:09:01 | 54.46388 | 14.09095 | 79° | 13km/h | 21529m | 5.9m/s | -51.7°C | 1.4% | 46.2hPa | 2.7V | 00:00:00 | 00:00:00 | 00:00:00 | |
| DL1XH-15 | 2026-08-31 12:09:00 | 54.46389 | 14.09073 | 103° | 16km/h | 21508m | 5.9m/s | -51.7°C | 4.2% | 46.4hPa | 2.7V | 08:30:00 | 01:18:30 | 00:00:00 | |
| DJ2DS-15 | 2026-08-31 12:09:00 | 54.46387 | 14.09085 | 98° | 11km/h | 21518m | 4.1m/s | -51.8°C | 1.4% | 46.3hPa | 2.6V | 00:00:00 | 00:00:00 | 00:00:00 | |
| DO2SHX-10 | 2026-08-31 12:08:59 | 54.46387 | 14.09085 | 99° | 15km/h | 21518m | 4.1m/s | -51.7°C | 4.2% | 46.3hPa | 2.6V | 00:00:00 | 01:18:32 | 00:00:00 | |
| DL1XH1-15 | 2026-08-31 12:08:55 | 54.46391 | 14.09059 | 98° | 15km/h | 21498m | 4.7m/s | -51.5°C | 4.2% | 46.5hPa | 2.6V | 08:30:00 | 01:18:28 | 00:00:00 | |
| DL1XH-west | 2026-08-31 12:08:54 | 54.46391 | 14.09053 | 94° | 13km/h | 21492m | 6m/s | -51.5°C | 1.3% | 46.5hPa | 2.6V | 18:12:15 | 01:18:27 | 00:00:00 | |
| AA1-15 | 2026-08-31 12:08:52 | 54.46390 | 14.09045 | 64° | 11km/h | 21482m | 5m/s | -51.5°C | 1.3% | 46.5hPa | 2.7V | 18:12:15 | 01:18:25 | 00:00:00 | |
| DM0DOS-11 | 2026-08-31 12:08:50 | 54.46383 | 14.09023 | 66° | 13km/h | 21460m | 5.8m/s | -51.2°C | 4% | 46.7hPa | 2.6V | 08:30:00 | 01:18:21 | 00:00:00 | |
| DL1XH1-15 | 2026-08-31 12:08:48 | 54.46386 | 14.09007 | 130° | 15km/h | 21439m | 4.9m/s | -51.2°C | 4% | 46.9hPa | 2.6V | 08:30:00 | 01:18:17 | 00:00:00 | |
| DL1XH-west | 2026-08-31 12:08:43 | 54.46389 | 14.09002 | 136° | 15km/h | 21434m | 4.9m/s | -51.1°C | 1.2% | 46.9hPa | 2.6V | 18:12:15 | 01:18:16 | 00:00:00 | |
| DL1XH-15 | 2026-08-31 12:08:42 | 54.46396 | 14.08993 | 73° | 5km/h | 21402m | 5.5m/s | -51.1°C | 3.9% | 47.1hPa | 2.6V | 08:30:00 | 01:18:10 | 00:00:00 | |
| AA1-15 | 2026-08-31 12:08:41 | 54.46394 | 14.08997 | 166° | 9km/h | 21423m | 5.3m/s | -51.2°C | 1.1% | 47hPa | 2.7V | 18:12:15 | 01:18:14 | 00:00:00 | |
| DO2SHX-10 | 2026-08-31 12:08:41 | 54.46394 | 14.08997 | 167° | 5km/h | 21423m | 5.2m/s | -51.1°C | 4.0% | 46.9hPa | 2.6V | 00:00:00 | 01:18:14 | 00:00:00 | |
| DM0DOS-11 | 2026-08-31 12:08:40 | 54.46397 | 14.08995 | 76° | 4km/h | 21408m | 6m/s | -51.1°C | 3.9% | 47.1hPa | 2.6V | 08:30:00 | 01:18:11 | 00:00:00 | |
| DL1XH1-15 | 2026-08-31 12:08:38 | 54.46396 | 14.08986 | 103° | 9km/h | 21386m | 4.2m/s | -51.1°C | 3.9% | 47.2hPa | 2.7V | 08:30:00 | 01:18:07 | 00:00:00 | |
| DL1XH-west | 2026-08-31 12:08:32 | 54.46398 | 14.08976 | 105° | 15km/h | 21375m | 5.1m/s | -51°C | 1.1% | 47.3hPa | 2.6V | 18:12:15 | 01:18:05 | 00:00:00 | |
| AA1-15 | 2026-08-31 12:08:31 | 54.46400 | 14.08966 | 118° | 11km/h | 21366m | 5.8m/s | -51.1°C | 1.1% | 47.4hPa | 2.6V | 18:12:15 | 01:18:03 | 00:00:00 | |
| DM0DOS-11 | 2026-08-31 12:08:30 | 54.46402 | 14.08960 | 115° | 5km/h | 21356m | 4.2m/s | -51.2°C | 4% | 47.4hPa | 2.7V | 08:30:00 | 01:18:01 | 00:00:00 | |
| EDDB2-11 | 2026-08-31 12:08:30 | 54.46400 | 14.08966 | 117° | 9km/h | 21366m | 5.8m/s | -51.1°C | 1.4% | 47.4hPa | 2.7V | 00:00:00 | 00:00:00 | 00:00:00 | |
| DL1XH-15 | 2026-08-31 12:08:29 | 54.46402 | 14.08958 | 92° | 5km/h | 21351m | 6.3m/s | -51.2°C | 4.1% | 47.5hPa | 2.7V | 08:30:00 | 01:18:00 | 00:00:00 | |
| DO2SHX-10 | 2026-08-31 12:08:29 | 54.46401 | 14.08962 | 127° | 5km/h | 21361m | 4.5m/s | -51.1°C | 4.0% | 47.4hPa | 2.7V | 00:00:00 | 01:18:02 | 08:30:00 | |
| DL1XH1-15 | 2026-08-31 12:08:25 | 54.46400 | 14.08948 | 67° | 9km/h | 21334m | 6m/s | -51.1°C | 4.1% | 47.6hPa | 2.6V | 08:30:00 | 01:17:57 | 00:00:00 | |
| DJ2DS-15 | 2026-08-31 12:08:24 | 54.46399 | 14.08944 | 67° | 11km/h | 21329m | 4.0m/s | -51.1°C | 1.4% | 47.7hPa | 2.6V | 00:00:00 | 00:00:00 | 00:00:00 | |
| DO2SHX-10 | 2026-08-31 12:08:23 | 54.46399 | 14.08944 | 68° | 16km/h | 21329m | 4.0m/s | -51.0°C | 4.0% | 47.6hPa | 2.6V | 00:00:00 | 01:17:56 | 00:00:00 | |
| DL1XH-15 | 2026-08-31 12:08:22 | 54.46390 | 14.08895 | 82° | 18km/h | 21297m | 4.6m/s | -51°C | 3.9% | 47.9hPa | 2.6V | 08:30:00 | 01:17:50 | 00:00:00 | |
| DL1XH-west | 2026-08-31 12:08:21 | 54.46396 | 14.08931 | 69° | 20km/h | 21319m | 6.5m/s | -51.2°C | 1.1% | 47.7hPa | 2.6V | 18:12:15 | 01:17:54 | 00:00:00 | |
| AA1-15 | 2026-08-31 12:08:20 | 54.46394 | 14.08923 | 71° | 24km/h | 21313m | 5.2m/s | -51.2°C | 1.2% | 47.8hPa | 2.6V | 18:12:15 | 01:17:53 | 00:00:00 | |
| DM0DOS-11 | 2026-08-31 12:08:20 | 54.46391 | 14.08903 | 78° | 22km/h | 21302m | 5.8m/s | -51°C | 3.9% | 47.8hPa | 2.7V | 08:30:00 | 01:17:51 | 00:00:00 | |
| DO2SHX-10 | 2026-08-31 12:08:20 | 54.46394 | 14.08923 | 72° | 24km/h | 21313m | 5.1m/s | -51.2°C | 4.0% | 47.7hPa | 2.6V | 00:00:00 | 01:17:53 | 00:00:00 | |
| AM1SDL-15 | 2026-08-31 12:08:19 | 54.46392 | 14.08913 | 75° | 15km/h | 21308m | 5.0m/s | -51.0°C | 4.0% | 47.8hPa | 2.6V | 00:00:00 | 01:17:52 | 00:00:00 | |
| DO2SHX-10 | 2026-08-31 12:08:17 | 54.46390 | 14.08895 | 83° | 18km/h | 21298m | 4.5m/s | -50.9°C | 3.9% | 47.8hPa | 2.6V | 00:00:00 | 01:17:50 | 00:00:00 | |
| DO2SHX-10 | 2026-08-31 12:08:14 | 54.46388 | 14.08873 | 72° | 13km/h | 21282m | 4.6m/s | -51.1°C | 3.9% | 48.0hPa | 2.6V | 00:00:00 | 01:17:47 | 00:00:00 | |
| EDDB2-12 | 2026-08-31 12:08:13 | 54.46385 | 14.08864 | 63° | 7km/h | 21272m | 6.2m/s | -51.2°C | 1.4% | 48.1hPa | 2.6V | 00:00:00 | 00:00:00 | 00:00:00 | |
| DL1XH-15 | 2026-08-31 12:08:11 | 54.46381 | 14.08850 | 63° | 11km/h | 21245m | 5.4m/s | -51.3°C | 4.1% | 48.3hPa | 2.6V | 08:30:00 | 01:17:40 | 00:00:00 | |
| DL1XH-west | 2026-08-31 12:08:11 | 54.46385 | 14.08861 | 57° | 5km/h | 21266m | 5.7m/s | -51.3°C | 1.1% | 48.1hPa | 2.7V | 18:12:15 | 01:17:44 | 00:00:00 | |
| AA1-15 | 2026-08-31 12:08:10 | 54.46384 | 14.08860 | 52° | 5km/h | 21261m | 4.9m/s | -51.3°C | 1.2% | 48.1hPa | 2.7V | 18:12:15 | 01:17:43 | 00:00:00 | |
| DM0DOS-11 | 2026-08-31 12:08:10 | 54.46382 | 14.08854 | 60° | 11km/h | 21250m | 4.4m/s | -51.2°C | 4% | 48.2hPa | 2.6V | 08:30:00 | 01:17:41 | 00:00:00 | |
| DO2SHX-10 | 2026-08-31 12:08:08 | 54.46382 | 14.08854 | 61° | 11km/h | 21250m | 4.3m/s | -51.2°C | 4.0% | 48.2hPa | 2.6V | 00:00:00 | 01:17:41 | 00:00:00 | |
| AM1SDL-15 | 2026-08-31 12:08:07 | 54.46380 | 14.08850 | 64° | 13km/h | 21245m | 5.3m/s | -51.3°C | 4.1% | 48.2hPa | 2.6V | 00:00:00 | 01:17:40 | 00:00:00 | |
| DO2SHX-10 | 2026-08-31 12:08:05 | 54.46378 | 14.08841 | 70° | 16km/h | 21235m | 4.9m/s | -51.3°C | 4.1% | 48.3hPa | 2.6V | 00:00:00 | 01:17:38 | 00:00:00 | |
| SP3WXH-11 | 2026-08-31 12:08:04 | 54.46377 | 14.08835 | 75° | 16km/h | 21229m | 6.5m/s | -51.3°C | 1.4% | 48.4hPa | 2.6V | 00:00:00 | 00:00:00 | 00:00:00 | |
| DO2SHX-10 | 2026-08-31 12:08:02 | 54.46375 | 14.08819 | 78° | 15km/h | 21218m | 3.7m/s | -51.1°C | 4.0% | 48.4hPa | 2.6V | 00:00:00 | 01:17:35 | 08:30:00 | |
| DL1XH-15 | 2026-08-31 12:08:01 | 54.46370 | 14.08796 | 61° | 13km/h | 21193m | 5.2m/s | -51.1°C | 4% | 48.7hPa | 2.6V | 08:30:00 | 01:17:30 | 00:00:00 | |
| DL1XH-west | 2026-08-31 12:08:01 | 54.46374 | 14.08813 | 76° | 15km/h | 21213m | 6m/s | -51.2°C | 1.1% | 48.5hPa | 2.6V | 18:12:15 | 01:17:34 | 00:00:00 | |
| AA1-15 | 2026-08-31 12:08:00 | 54.46373 | 14.08803 | 68° | 9km/h | 21203m | 3.9m/s | -51.1°C | 1.1% | 48.6hPa | 2.7V | 18:12:15 | 01:17:32 | 00:00:00 | |
| DM0DOS-11 | 2026-08-31 12:07:59 | 54.46371 | 14.08800 | 62° | 9km/h | 21199m | 5.4m/s | -51.2°C | 4% | 48.6hPa | 2.7V | 08:30:00 | 01:17:31 | 00:00:00 | |
| DO2SHX-10 | 2026-08-31 12:07:56 | 54.46369 | 14.08791 | 61° | 15km/h | 21188m | 4.9m/s | -51.0°C | 3.9% | 48.7hPa | 2.7V | 00:00:00 | 01:17:29 | 00:00:00 | |
| AM1SDL-15 | 2026-08-31 12:07:55 | 54.46367 | 14.08785 | 60° | 16km/h | 21184m | 4.1m/s | -51.0°C | 3.9% | 48.7hPa | 2.7V | 00:00:00 | 01:17:28 | 00:00:00 | |
| DM0DOS-11 | 2026-08-31 12:07:53 | 54.46353 | 14.08735 | 67° | 18km/h | 21148m | 5.7m/s | -51.3°C | 3.9% | 49hPa | 2.7V | 08:30:00 | 01:17:21 | 00:00:00 | |
| DO2SHX-10 | 2026-08-31 12:07:53 | 54.46363 | 14.08774 | 60° | 18km/h | 21173m | 4.9m/s | -51.0°C | 3.9% | 48.8hPa | 2.7V | 00:00:00 | 01:17:26 | 00:00:00 | |
| DL1XH-15 | 2026-08-31 12:07:51 | 54.46351 | 14.08729 | 66° | 15km/h | 21143m | 4.7m/s | -51.4°C | 3.9% | 49.1hPa | 2.7V | 08:30:00 | 01:17:20 | 00:00:00 | |
| DL1XH-west | 2026-08-31 12:07:51 | 54.46359 | 14.08760 | 67° | 20km/h | 21163m | 5.6m/s | -51.3°C | 1.2% | 48.9hPa | 2.6V | 18:12:15 | 01:17:24 | 00:00:00 | |
| AA1-15 | 2026-08-31 12:07:49 | 54.46353 | 14.08735 | 68° | 18km/h | 21148m | 5.7m/s | -51.3°C | 1.1% | 49hPa | 2.7V | 18:12:15 | 01:17:21 | 00:00:00 | |
| DJ2DS-15 | 2026-08-31 12:07:48 | 54.46351 | 14.08729 | 66° | 15km/h | 21143m | 4.7m/s | -51.4°C | 1.3% | 49.1hPa | 2.6V | 00:00:00 | 00:00:00 | 00:00:00 | |
| DO2SHX-10 | 2026-08-31 12:07:47 | 54.46351 | 14.08729 | 67° | 15km/h | 21143m | 4.7m/s | -51.3°C | 3.9% | 49.0hPa | 2.6V | 00:00:00 | 01:17:20 | 00:00:00 | |
| DL1XH1-15 | 2026-08-31 12:07:45 | 54.46345 | 14.08704 | 62° | 18km/h | 21122m | 4.7m/s | -51.7°C | 4% | 49.2hPa | 2.6V | 08:30:00 | 01:17:16 | 00:00:00 | |
| DO2SHX-10 | 2026-08-31 12:07:44 | 54.46347 | 14.08711 | 67° | 18km/h | 21127m | 5.7m/s | -51.5°C | 4.0% | 49.1hPa | 2.6V | 00:00:00 | 01:17:17 | 00:00:00 | |
| AM1SDL-15 | 2026-08-31 12:07:43 | 54.46345 | 14.08704 | 63° | 26km/h | 21122m | 4.6m/s | -51.6°C | 4.0% | 49.2hPa | 2.6V | 00:00:00 | 01:17:16 | 00:00:00 | |
| EDDB2-12 | 2026-08-31 12:07:42 | 54.46340 | 14.08690 | 49° | 20km/h | 21111m | 4.9m/s | -51.7°C | 1.4% | 49.3hPa | 2.6V | 00:00:00 | 00:00:00 | 00:00:00 | |
| DL1XH-15 | 2026-08-31 12:07:41 | 54.46323 | 14.08653 | 57° | 31km/h | 21091m | 4.2m/s | -51.9°C | 4.1% | 49.5hPa | 2.6V | 08:30:00 | 01:17:10 | 00:00:00 | |
| DO2SHX-10 | 2026-08-31 12:07:41 | 54.46340 | 14.08690 | 50° | 24km/h | 21111m | 4.9m/s | -51.7°C | 4.0% | 49.2hPa | 2.6V | 00:00:00 | 01:17:14 | 00:00:00 | |
| DM0DOS-11 | 2026-08-31 12:07:40 | 54.46328 | 14.08664 | 55° | 31km/h | 21096m | 5.7m/s | -52°C | 4.1% | 49.4hPa | 2.6V | 08:30:00 | 01:17:11 | 00:00:00 | |
| DL1XH-west | 2026-08-31 12:07:40 | 54.46336 | 14.08683 | 49° | 24km/h | 21107m | 3.6m/s | -51.8°C | 1.2% | 49.4hPa | 2.7V | 18:12:15 | 01:17:13 | 00:00:00 | |
| DL1XH1-15 | 2026-08-31 12:07:38 | 54.46307 | 14.08613 | 54° | 27km/h | 21071m | 5.4m/s | -51.8°C | 4.1% | 49.6hPa | 2.6V | 08:30:00 | 01:17:06 | 00:00:00 | |
| AA1-15 | 2026-08-31 12:07:38 | 54.46328 | 14.08664 | 56° | 31km/h | 21096m | 5.7m/s | -52°C | 1.2% | 49.4hPa | 2.6V | 18:12:15 | 01:17:11 | 00:00:00 | |
| DO2SHX-10 | 2026-08-31 12:07:38 | 54.46328 | 14.08664 | 56° | 31km/h | 21096m | 5.7m/s | -51.9°C | 4.1% | 49.4hPa | 2.7V | 00:00:00 | 01:17:11 | 00:00:00 | |
| DO2SHX-10 | 2026-08-31 12:07:35 | 54.46315 | 14.08631 | 55° | 27km/h | 21081m | 5.2m/s | -51.9°C | 4.1% | 49.5hPa | 2.7V | 00:00:00 | 01:17:08 | 08:30:00 | |
| SP3WXH-11 | 2026-08-31 12:07:33 | 54.46307 | 14.08613 | 54° | 26km/h | 21071m | 5.4m/s | -51.8°C | 1.4% | 49.6hPa | 2.7V | 00:00:00 | 00:00:00 | 00:00:00 | |
| DO2SHX-10 | 2026-08-31 12:07:32 | 54.46303 | 14.08603 | 55° | 27km/h | 21066m | 5.3m/s | -51.8°C | 4.2% | 49.6hPa | 2.7V | 00:00:00 | 01:17:05 | 00:00:00 | |
| DL1XH-15 | 2026-08-31 12:07:31 | 54.46281 | 14.08559 | 41° | 29km/h | 21042m | 5.2m/s | -51.9°C | 4.1% | 49.8hPa | 2.7V | 08:30:00 | 01:17:00 | 00:00:00 | |
| AM1SDL-15 | 2026-08-31 12:07:31 | 54.46299 | 14.08593 | 54° | 29km/h | 21061m | 4.0m/s | -51.8°C | 4.2% | 49.6hPa | 2.7V | 00:00:00 | 01:17:04 | 00:00:00 | |
| DM0DOS-11 | 2026-08-31 12:07:30 | 54.46286 | 14.08567 | 41° | 26km/h | 21046m | 4.5m/s | -51.9°C | 4.2% | 49.8hPa | 2.7V | 08:30:00 | 01:17:01 | 00:00:00 | |
| DL1XH-west | 2026-08-31 12:07:30 | 54.46295 | 14.08584 | 52° | 27km/h | 21056m | 5.2m/s | -51.9°C | 1.2% | 49.7hPa | 2.6V | 18:12:15 | 01:17:03 | 00:00:00 | |
| AA1-15 | 2026-08-31 12:07:27 | 54.46281 | 14.08559 | 42° | 29km/h | 21042m | 5.2m/s | -51.9°C | 1.2% | 49.8hPa | 2.7V | 18:12:15 | 01:17:00 | 00:00:00 | |
| DO2SHX-10 | 2026-08-31 12:07:26 | 54.46275 | 14.08551 | 43° | 33km/h | 21036m | 5.6m/s | -51.7°C | 4.1% | 49.8hPa | 2.6V | 00:00:00 | 01:16:59 | 00:00:00 | |
| DO2SHX-10 | 2026-08-31 12:07:23 | 54.46256 | 14.08523 | 37° | 29km/h | 21021m | 6.1m/s | -51.8°C | 4.1% | 49.9hPa | 2.7V | 00:00:00 | 01:16:56 | 00:00:00 | |
| DL1XH-15 | 2026-08-31 12:07:21 | 54.46222 | 14.08492 | 19° | 20km/h | 20988m | 5.8m/s | -51.7°C | 4.1% | 50.2hPa | 2.7V | 08:30:00 | 01:16:50 | 00:00:00 | |
| SP3BTT-10 | 2026-08-31 12:07:21 | 54.46244 | 14.08510 | 29° | 15km/h | 21010m | 5.5m/s | -51.7°C | 4.1% | 50.0hPa | 2.6V | 00:00:00 | 00:00:00 | 00:00:00 | |
| DM0DOS-11 | 2026-08-31 12:07:20 | 54.46227 | 14.08495 | 23° | 22km/h | 20994m | 6.3m/s | -51.6°C | 4% | 50.2hPa | 2.7V | 08:30:00 | 01:16:51 | 00:00:00 | |
| DL1XH-west | 2026-08-31 12:07:19 | 54.46232 | 14.08499 | 25° | 26km/h | 20999m | 3.7m/s | -51.7°C | 1.2% | 50.1hPa | 2.7V | 18:12:15 | 01:16:52 | 00:00:00 | |
| DL1XH1-15 | 2026-08-31 12:07:17 | 54.46203 | 14.08472 | 39° | 26km/h | 20967m | 4.6m/s | -51.7°C | 4% | 50.4hPa | 2.7V | 08:30:00 | 01:16:46 | 00:00:00 | |
| AA1-15 | 2026-08-31 12:07:16 | 54.46217 | 14.08488 | 25° | 20km/h | 20983m | 4.7m/s | -51.7°C | 1.2% | 50.3hPa | 2.6V | 18:12:15 | 01:16:49 | 00:00:00 | |
| DO2SHX-10 | 2026-08-31 12:07:14 | 54.46208 | 14.08478 | 39° | 24km/h | 20972m | 4.7m/s | -51.7°C | 4.1% | 50.3hPa | 2.7V | 00:00:00 | 01:16:47 | 00:00:00 | |
| DL1XH-15 | 2026-08-31 12:07:11 | 54.46168 | 14.08436 | 13° | 29km/h | 20935m | 4.1m/s | -51.7°C | 4% | 50.6hPa | 2.7V | 08:30:00 | 01:16:40 | 00:00:00 | |
| DO2SHX-10 | 2026-08-31 12:07:11 | 54.46193 | 14.08458 | 36° | 27km/h | 20956m | 5.4m/s | -51.6°C | 4.0% | 50.4hPa | 2.6V | 00:00:00 | 01:16:44 | 00:00:00 | |
| DM0DOS-11 | 2026-08-31 12:07:10 | 54.46175 | 14.08440 | 22° | 31km/h | 20939m | 4.2m/s | -51.8°C | 4.1% | 50.6hPa | 2.6V | 08:30:00 | 01:16:41 | 00:00:00 | |
| DL1XH-west | 2026-08-31 12:07:08 | 54.46175 | 14.08440 | 23° | 31km/h | 20939m | 4.2m/s | -51.8°C | 1.2% | 50.6hPa | 2.6V | 18:12:15 | 01:16:41 | 00:00:00 | |
| AA1-15 | 2026-08-31 12:07:06 | 54.46155 | 14.08434 | 355° | 22km/h | 20925m | 5.3m/s | -51.9°C | 1.2% | 50.7hPa | 2.7V | 18:12:15 | 01:16:38 | 00:00:00 | |
| DL1XH1-15 | 2026-08-31 12:07:05 | 54.46145 | 14.08436 | 356° | 16km/h | 20915m | 5.2m/s | -52°C | 4.1% | 50.8hPa | 2.6V | 08:30:00 | 01:16:36 | 00:00:00 | |
| DO2SHX-10 | 2026-08-31 12:07:05 | 54.46155 | 14.08434 | 355° | 20km/h | 20925m | 5.3m/s | -51.8°C | 4.1% | 50.7hPa | 2.6V | 00:00:00 | 01:16:38 | 00:00:00 | |
| DO2SHX-10 | 2026-08-31 12:07:02 | 54.46140 | 14.08436 | 7° | 22km/h | 20910m | 5.7m/s | -51.9°C | 4.1% | 50.8hPa | 2.6V | 00:00:00 | 01:16:35 | 00:00:00 | |
| DL1XH-15 | 2026-08-31 12:07:01 | 54.46109 | 14.08424 | 11° | 27km/h | 20882m | 4.4m/s | -52°C | 4.2% | 51hPa | 2.6V | 08:30:00 | 01:16:30 | 00:00:00 | |
| DM0DOS-11 | 2026-08-31 12:07:00 | 54.46116 | 14.08426 | 11° | 27km/h | 20887m | 5.2m/s | -52°C | 4.1% | 51hPa | 2.6V | 08:30:00 | 01:16:31 | 00:00:00 | |
| DL1XH-west | 2026-08-31 12:06:58 | 54.46109 | 14.08424 | 11° | 27km/h | 20882m | 4.4m/s | -52°C | 1.3% | 51hPa | 2.6V | 18:12:15 | 01:16:30 | 00:00:00 | |
| DL1XH1-15 | 2026-08-31 12:06:58 | 54.46076 | 14.08419 | 356° | 33km/h | 20857m | 5.4m/s | -52°C | 4.2% | 51.2hPa | 2.6V | 08:30:00 | 01:16:25 | 00:00:00 | |
| AA1-15 | 2026-08-31 12:06:56 | 54.46103 | 14.08422 | 9° | 26km/h | 20877m | 5.4m/s | -51.9°C | 1.2% | 51.1hPa | 2.6V | 18:12:15 | 01:16:29 | 00:00:00 | |
| DO2SHX-10 | 2026-08-31 12:06:56 | 54.46103 | 14.08422 | 10° | 24km/h | 20878m | 5.3m/s | -51.9°C | 4.1% | 51.0hPa | 2.7V | 00:00:00 | 01:16:29 | 00:00:00 | |
| AM1SDL-15 | 2026-08-31 12:06:55 | 54.46097 | 14.08420 | 8° | 31km/h | 20873m | 4.7m/s | -51.9°C | 4.2% | 51.0hPa | 2.7V | 00:00:00 | 01:16:28 | 08:30:00 | |
| DO2SHX-10 | 2026-08-31 12:06:53 | 54.46084 | 14.08419 | 1° | 31km/h | 20863m | 6.2m/s | -51.9°C | 4.1% | 51.2hPa | 2.7V | 00:00:00 | 01:16:26 | 00:00:00 | |
| DL1XH-15 | 2026-08-31 12:06:51 | 54.46037 | 14.08435 | 342° | 33km/h | 20831m | 5.7m/s | -51.9°C | 4.2% | 51.5hPa | 2.7V | 08:30:00 | 01:16:20 | 00:00:00 | |
| DM0DOS-11 | 2026-08-31 12:06:50 | 54.46044 | 14.08430 | 341° | 31km/h | 20836m | 5m/s | -52°C | 4.2% | 51.4hPa | 2.7V | 08:30:00 | 01:16:21 | 00:00:00 | |
| DL1XH-west | 2026-08-31 12:06:46 | 54.46029 | 14.08439 | 345° | 33km/h | 20825m | 5.6m/s | -51.9°C | 1.3% | 51.5hPa | 2.6V | 18:12:15 | 01:16:19 | 00:00:00 | |
| AA1-15 | 2026-08-31 12:06:46 | 54.46021 | 14.08442 | 347° | 31km/h | 20820m | 4.7m/s | -52°C | 1.3% | 51.5hPa | 2.6V | 18:12:15 | 01:16:18 | 00:00:00 | |
| DL1XH1-15 | 2026-08-31 12:06:46 | 54.46000 | 14.08449 | 353° | 26km/h | 20803m | 4.7m/s | -52°C | 4.3% | 51.6hPa | 2.7V | 08:30:00 | 01:16:15 | 00:00:00 | |
| DO2SHX-10 | 2026-08-31 12:06:44 | 54.46013 | 14.08445 | 349° | 29km/h | 20814m | 6.1m/s | -52.0°C | 4.2% | 51.5hPa | 2.7V | 00:00:00 | 01:16:17 | 00:00:00 | |
| AM1SDL-15 | 2026-08-31 12:06:43 | 54.46006 | 14.08447 | 351° | 27km/h | 20809m | 5.5m/s | -52.0°C | 4.3% | 51.6hPa | 2.7V | 00:00:00 | 01:16:16 | 00:00:00 | |
| DL1XH-15 | 2026-08-31 12:06:42 | 54.45967 | 14.08452 | 346° | 24km/h | 20776m | 4.9m/s | -51.9°C | 4.2% | 51.9hPa | 2.7V | 08:30:00 | 01:16:10 | 00:00:00 | |
| DO2SHX-10 | 2026-08-31 12:06:41 | 54.45994 | 14.08449 | 358° | 26km/h | 20798m | 6.1m/s | -51.9°C | 4.2% | 51.7hPa | 2.7V | 00:00:00 | 01:16:14 | 08:30:00 | |
| SONDE2-11 | 2026-08-31 12:06:40 | 54.45987 | 14.08450 | 359° | 27km/h | 20792m | 4.9m/s | -51.9°C | 1.5% | 51.8hPa | 2.7V | 00:00:00 | 00:00:00 | 00:00:00 | |
| EDDB2-12 | 2026-08-31 12:06:39 | 54.45980 | 14.08450 | 358° | 26km/h | 20787m | 5.0m/s | -51.9°C | 1.4% | 51.8hPa | 2.7V | 00:00:00 | 00:00:00 | 00:00:00 | |
| S3001 | 2026-08-31 12:06:38 | 54.45973 | 14.08451 | 354° | 24km/h | 20782m | 6.1m/s | -52.0°C | 1.5% | 51.9hPa | 2.7V | 00:00:00 | 00:00:00 | 00:00:00 | |
| DO2SHX-10 | 2026-08-31 12:06:37 | 54.45967 | 14.08452 | 347° | 26km/h | 20776m | 4.8m/s | -51.9°C | 4.2% | 51.8hPa | 2.7V | 00:00:00 | 01:16:10 | 00:00:00 | |
| DL1XH1-15 | 2026-08-31 12:06:35 | 54.45933 | 14.08478 | 324° | 31km/h | 20750m | 6m/s | -51.6°C | 4% | 52.1hPa | 2.7V | 08:30:00 | 01:16:05 | 00:00:00 | |
| DL1XH-west | 2026-08-31 12:06:35 | 54.45954 | 14.08460 | 339° | 31km/h | 20765m | 6.1m/s | -51.6°C | 1.2% | 0hPa | 2.6V | 18:12:15 | 01:16:08 | 00:00:00 | |
| AA1-15 | 2026-08-31 12:06:35 | 54.45947 | 14.08465 | 335° | 33km/h | 20760m | 3.7m/s | -51.6°C | 1.2% | 52hPa | 2.6V | 18:12:15 | 01:16:07 | 00:00:00 | |
| DO2SHX-10 | 2026-08-31 12:06:34 | 54.45947 | 14.08465 | 335° | 31km/h | 20760m | 3.7m/s | -51.6°C | 4.0% | 52.0hPa | 2.6V | 00:00:00 | 01:16:07 | 00:00:00 | |
| DL1XH-15 | 2026-08-31 12:06:32 | 54.45900 | 14.08508 | 350° | 22km/h | 20718m | 6.2m/s | -51.7°C | 4.1% | 52.4hPa | 2.6V | 08:30:00 | 01:15:59 | 00:00:00 | |
| DO2SHX-10 | 2026-08-31 12:06:31 | 54.45927 | 14.08486 | 321° | 26km/h | 20744m | 5.1m/s | -51.5°C | 4.0% | 52.1hPa | 2.6V | 00:00:00 | 01:16:04 | 00:00:00 | |
| SONCRA | 2026-08-31 12:06:28 | 54.45906 | 14.08506 | 346° | 24km/h | 20723m | 4.5m/s | -51.7°C | 1.4% | 52.3hPa | 2.6V | 00:00:00 | 00:00:00 | 00:00:00 | |
| EDDB2-11 | 2026-08-31 12:06:27 | 54.45900 | 14.08508 | 350° | 22km/h | 20718m | 6.2m/s | -51.7°C | 1.4% | 52.4hPa | 2.6V | 00:00:00 | 00:00:00 | 00:00:00 | |
| DL1XH1-15 | 2026-08-31 12:06:25 | 54.45879 | 14.08513 | 352° | 24km/h | 20697m | 5.4m/s | -51.6°C | 4.1% | 52.5hPa | 2.6V | 08:30:00 | 01:15:55 | 00:00:00 | |
| DL1XH-west | 2026-08-31 12:06:24 | 54.45890 | 14.08511 | 354° | 20km/h | 20707m | 4.4m/s | -51.6°C | 1.2% | 0hPa | 2.7V | 18:12:15 | 01:15:57 | 00:00:00 | |
| AA1-15 | 2026-08-31 12:06:24 | 54.45884 | 14.08512 | 353° | 22km/h | 20702m | 5.9m/s | -51.7°C | 1.2% | 52.5hPa | 2.6V | 18:12:15 | 01:15:56 | 00:00:00 | |
| DO2SHX-10 | 2026-08-31 12:06:22 | 54.45878 | 14.08513 | 353° | 24km/h | 20697m | 5.4m/s | -51.5°C | 4.1% | 52.5hPa | 2.6V | 00:00:00 | 01:15:55 | 00:00:00 | |
| DL1XH-15 | 2026-08-31 12:06:21 | 54.45856 | 14.08519 | 347° | 11km/h | 20671m | 4.4m/s | -51.6°C | 4% | 52.8hPa | 2.7V | 08:30:00 | 01:15:50 | 00:00:00 | |
| DO2SHX-10 | 2026-08-31 12:06:19 | 54.45862 | 14.08517 | 352° | 13km/h | 20681m | 6.3m/s | -51.4°C | 4.0% | 52.6hPa | 2.7V | 00:00:00 | 01:15:52 | 00:00:00 | |
| DO2SHX-10 | 2026-08-31 12:06:16 | 54.45853 | 14.08521 | 343° | 16km/h | 20666m | 5.9m/s | -51.6°C | 4.0% | 52.7hPa | 2.7V | 00:00:00 | 01:15:49 | 00:00:00 | |
| DL1XH1-15 | 2026-08-31 12:06:15 | 54.45837 | 14.08533 | 325° | 16km/h | 20644m | 6m/s | -51.6°C | 3.9% | 52.9hPa | 2.7V | 08:30:00 | 01:15:45 | 00:00:00 | |
| DL1XH-west | 2026-08-31 12:06:13 | 54.45841 | 14.08529 | 331° | 18km/h | 20650m | 5.7m/s | -51.7°C | 0% | 0hPa | 2.6V | 18:12:15 | 01:15:46 | 00:00:00 | |
| DO2SHX-10 | 2026-08-31 12:06:13 | 54.45841 | 14.08529 | 332° | 16km/h | 20650m | 5.6m/s | -51.6°C | 3.9% | 52.9hPa | 2.6V | 00:00:00 | 01:15:46 | 08:30:00 | |
| DO2SHX-10 | 2026-08-31 12:06:10 | 54.45830 | 14.08540 | 332° | 15km/h | 20633m | 6.3m/s | -51.7°C | 4.0% | 53.0hPa | 2.6V | 00:00:00 | 01:15:43 | 00:00:00 | |
| SONDE2-11 | 2026-08-31 12:06:09 | 54.45827 | 14.08543 | 341° | 15km/h | 20627m | 4.6m/s | -51.7°C | 1.4% | 53.1hPa | 2.6V | 00:00:00 | 00:00:00 | 00:00:00 | |
| EDDB2-12 | 2026-08-31 12:06:08 | 54.45824 | 14.08545 | 352° | 11km/h | 20622m | 4.7m/s | -51.7°C | 1.4% | 53.1hPa | 2.6V | 00:00:00 | 00:00:00 | 00:00:00 | |
| DO2SHX-10 | 2026-08-31 12:06:07 | 54.45821 | 14.08544 | 16° | 9km/h | 20617m | 6.7m/s | -51.8°C | 4.1% | 53.1hPa | 2.6V | 00:00:00 | 01:15:40 | 00:00:00 | |
| DL1XH1-15 | 2026-08-31 12:06:05 | 54.45814 | 14.08527 | 47° | 11km/h | 20588m | 5.1m/s | -51.8°C | 4.1% | 53.4hPa | 2.6V | 08:30:00 | 01:15:35 | 00:00:00 | |
| DL1XH-west | 2026-08-31 12:06:03 | 54.45816 | 14.08531 | 52° | 11km/h | 20593m | 4.9m/s | 0°C | 0% | 0hPa | 2.6V | 18:12:15 | 01:15:36 | 00:00:00 | |
| DO2SHX-10 | 2026-08-31 12:06:01 | 54.45812 | 14.08524 | 46° | 7km/h | 20583m | 6.5m/s | -51.8°C | 4.1% | 53.4hPa | 2.7V | 00:00:00 | 01:15:34 | 00:00:00 | |
| DM0DOS-11 | 2026-08-31 12:06:00 | 54.45807 | 14.08520 | 358° | 11km/h | 20566m | 6.3m/s | -52.1°C | 4.1% | 53.6hPa | 2.7V | 08:30:00 | 01:15:31 | 00:00:00 | |
| DL1XH-15 | 2026-08-31 12:06:00 | 54.45804 | 14.08521 | 349° | 15km/h | 20561m | 4.8m/s | -52.2°C | 4.1% | 53.6hPa | 2.6V | 08:30:00 | 01:15:30 | 00:00:00 | |
| SONCRA | 2026-08-31 12:05:57 | 54.45800 | 14.08522 | 345° | 13km/h | 20556m | 4.4m/s | -52.1°C | 1.4% | 53.7hPa | 2.6V | 00:00:00 | 00:00:00 | 00:00:00 | |
| DL1XH1-15 | 2026-08-31 12:05:55 | 54.45787 | 14.08518 | 45° | 15km/h | 20529m | 4.6m/s | -52.1°C | 4.3% | 53.9hPa | 2.6V | 08:30:00 | 01:15:24 | 00:00:00 | |
| DL1XH-west | 2026-08-31 12:05:53 | 54.45793 | 14.08524 | 15° | 9km/h | 20540m | 5.4m/s | 0°C | 0% | 0hPa | 2.7V | 18:12:15 | 01:15:26 | 00:00:00 | |
| AA1-15 | 2026-08-31 12:05:52 | 54.45790 | 14.08522 | 31° | 13km/h | 20534m | 5.9m/s | -52.1°C | 1.3% | 53.9hPa | 2.7V | 18:12:15 | 01:15:25 | 00:00:00 | |
| DL1XH-15 | 2026-08-31 12:05:52 | 54.45780 | 14.08493 | 62° | 16km/h | 20509m | 4.5m/s | -51.9°C | 4.2% | 54.1hPa | 2.7V | 08:30:00 | 01:15:20 | 00:00:00 | |
| DO2SHX-10 | 2026-08-31 12:05:52 | 54.45790 | 14.08522 | 31° | 15km/h | 20535m | 5.8m/s | -52.0°C | 4.3% | 53.9hPa | 2.7V | 00:00:00 | 01:15:25 | 00:00:00 | |
| DM0DOS-11 | 2026-08-31 12:05:49 | 54.45781 | 14.08500 | 69° | 16km/h | 20513m | 4.5m/s | -52°C | 4.2% | 54hPa | 2.7V | 08:30:00 | 01:15:21 | 00:00:00 | |
| DO2SHX-10 | 2026-08-31 12:05:49 | 54.45783 | 14.08506 | 66° | 16km/h | 20519m | 5.6m/s | -52.0°C | 4.2% | 53.9hPa | 2.7V | 00:00:00 | 01:15:22 | 00:00:00 | |
| DO2SHX-10 | 2026-08-31 12:05:46 | 54.45777 | 14.08487 | 53° | 18km/h | 20504m | 5.7m/s | -51.8°C | 4.2% | 54.1hPa | 2.7V | 00:00:00 | 01:15:19 | 08:30:00 | |
| DO2SHX-10 | 2026-08-31 12:05:43 | 54.45767 | 14.08472 | 41° | 15km/h | 20489m | 5.0m/s | -51.8°C | 4.1% | 54.2hPa | 2.6V | 00:00:00 | 01:15:16 | 00:00:00 | |
| DL1XH-15 | 2026-08-31 12:05:42 | 54.45754 | 14.08441 | 53° | 22km/h | 20458m | 5.1m/s | -51.7°C | 4% | 54.5hPa | 2.6V | 08:30:00 | 01:15:10 | 00:00:00 | |
| AA1-15 | 2026-08-31 12:05:41 | 54.45762 | 14.08463 | 55° | 13km/h | 20478m | 5.5m/s | -51.7°C | 1.2% | 54.4hPa | 2.7V | 18:12:15 | 01:15:14 | 00:00:00 | |
| DL1XH1-15 | 2026-08-31 12:05:41 | 54.45762 | 14.08463 | 54° | 13km/h | 20478m | 5.5m/s | -51.7°C | 4% | 54.3hPa | 2.7V | 08:30:00 | 01:15:14 | 00:00:00 | |
| DM0DOS-11 | 2026-08-31 12:05:39 | 54.45757 | 14.08448 | 52° | 18km/h | 20463m | 5.3m/s | -51.7°C | 4% | 54.4hPa | 2.6V | 08:30:00 | 01:15:11 | 00:00:00 | |
| SONDE2-11 | 2026-08-31 12:05:38 | 54.45754 | 14.08441 | 53° | 22km/h | 20458m | 5.1m/s | -51.7°C | 1.4% | 54.5hPa | 2.6V | 00:00:00 | 00:00:00 | 00:00:00 | |
| DO2SHX-10 | 2026-08-31 12:05:37 | 54.45754 | 14.08441 | 54° | 26km/h | 20458m | 5.1m/s | -51.7°C | 4.0% | 54.4hPa | 2.6V | 00:00:00 | 01:15:10 | 00:00:00 | |
| DL1XH1-15 | 2026-08-31 12:05:36 | 54.45730 | 14.08386 | 37° | 26km/h | 20428m | 4.2m/s | -51.8°C | 4.1% | 54.8hPa | 2.6V | 08:30:00 | 01:15:04 | 00:00:00 | |
| S3001 | 2026-08-31 12:05:36 | 54.45750 | 14.08432 | 55° | 24km/h | 20453m | 4.9m/s | -51.7°C | 1.4% | 54.6hPa | 2.6V | 00:00:00 | 00:00:00 | 00:00:00 | |
| DO2SHX-10 | 2026-08-31 12:05:34 | 54.45743 | 14.08412 | 61° | 27km/h | 20443m | 4.4m/s | -51.7°C | 4.1% | 54.6hPa | 2.6V | 00:00:00 | 01:15:07 | 00:00:00 | |
| DL1XH-15 | 2026-08-31 12:05:32 | 54.45715 | 14.08370 | 16° | 9km/h | 20407m | 5.6m/s | -51.9°C | 4.1% | 54.9hPa | 2.6V | 08:30:00 | 01:15:00 | 00:00:00 | |
| AA1-15 | 2026-08-31 12:05:31 | 54.45730 | 14.08386 | 37° | 26km/h | 20428m | 4.2m/s | -51.8°C | 1.2% | 54.8hPa | 2.6V | 18:12:15 | 01:15:04 | 00:00:00 | |
| DO2SHX-10 | 2026-08-31 12:05:31 | 54.45730 | 14.08386 | 38° | 22km/h | 20428m | 4.1m/s | -51.7°C | 4.1% | 54.7hPa | 2.7V | 00:00:00 | 01:15:04 | 00:00:00 | |
| DM0DOS-11 | 2026-08-31 12:05:29 | 54.45718 | 14.08372 | 28° | 13km/h | 20412m | 5.5m/s | -51.9°C | 4.1% | 54.9hPa | 2.7V | 08:30:00 | 01:15:01 | 00:00:00 | |
| DO2SHX-10 | 2026-08-31 12:05:28 | 54.45718 | 14.08372 | 29° | 11km/h | 20412m | 5.4m/s | -51.8°C | 4.1% | 54.8hPa | 2.7V | 00:00:00 | 01:15:01 | 00:00:00 | |
| DL1XH1-15 | 2026-08-31 12:05:26 | 54.45697 | 14.08349 | 50° | 29km/h | 20376m | 4.8m/s | -51.9°C | 4% | 55.2hPa | 2.6V | 08:30:00 | 01:14:54 | 00:00:00 | |
| DO2SHX-10 | 2026-08-31 12:05:25 | 54.45710 | 14.08369 | 9° | 13km/h | 20395m | 4.3m/s | -51.8°C | 4.1% | 55.0hPa | 2.7V | 00:00:00 | 01:14:58 | 00:00:00 | |
| EDDB2-11 | 2026-08-31 12:05:24 | 54.45707 | 14.08367 | 25° | 13km/h | 20391m | 4.5m/s | -52.0°C | 1.4% | 55.1hPa | 2.7V | 00:00:00 | 00:00:00 | 00:00:00 | |
| DM0DOS-11 | 2026-08-31 12:05:23 | 54.45680 | 14.08321 | 38° | 29km/h | 20361m | 4.4m/s | -52.2°C | 4.1% | 55.3hPa | 2.7V | 08:30:00 | 01:14:51 | 00:00:00 | |
| DJ2DS-15 | 2026-08-31 12:05:23 | 54.45704 | 14.08364 | 41° | 15km/h | 20386m | 6.0m/s | -52.0°C | 1.4% | 55.1hPa | 2.7V | 00:00:00 | 00:00:00 | 00:00:00 | |
| DL1XH-15 | 2026-08-31 12:05:22 | 54.45675 | 14.08314 | 39° | 26km/h | 20356m | 4.5m/s | -52.2°C | 4.1% | 55.4hPa | 2.7V | 08:30:00 | 01:14:50 | 00:00:00 | |
| AA1-15 | 2026-08-31 12:05:20 | 54.45692 | 14.08339 | 47° | 31km/h | 20371m | 5.5m/s | -52°C | 1.1% | 55.2hPa | 2.6V | 18:12:15 | 01:14:53 | 00:00:00 | |
| DO2SHX-10 | 2026-08-31 12:05:19 | 54.45686 | 14.08330 | 43° | 29km/h | 20366m | 5.0m/s | -52.0°C | 4.0% | 55.2hPa | 2.6V | 00:00:00 | 01:14:52 | 08:30:00 | |
| DL1XH1-15 | 2026-08-31 12:05:16 | 54.45657 | 14.08278 | 58° | 15km/h | 20325m | 4.7m/s | -52.2°C | 4.2% | 55.6hPa | 2.7V | 08:30:00 | 01:14:44 | 00:00:00 | |
| DO2SHX-10 | 2026-08-31 12:05:16 | 54.45670 | 14.08307 | 45° | 20km/h | 20351m | 5.3m/s | -52.1°C | 4.2% | 55.4hPa | 2.6V | 00:00:00 | 01:14:49 | 00:00:00 | |
| DM0DOS-11 | 2026-08-31 12:05:13 | 54.45653 | 14.08258 | 75° | 18km/h | 20309m | 3.9m/s | -52.4°C | 4.2% | 55.8hPa | 2.6V | 08:30:00 | 01:14:41 | 00:00:00 | |
| DO2SHX-10 | 2026-08-31 12:05:13 | 54.45661 | 14.08288 | 51° | 15km/h | 20335m | 6.3m/s | -52.2°C | 4.2% | 55.5hPa | 2.6V | 00:00:00 | 01:14:46 | 00:00:00 | |
| DL1XH-15 | 2026-08-31 12:05:12 | 54.45652 | 14.08251 | 67° | 18km/h | 20304m | 5.9m/s | -52.5°C | 4.2% | 55.8hPa | 2.6V | 08:30:00 | 01:14:40 | 00:00:00 | |
| AA1-15 | 2026-08-31 12:05:09 | 54.45654 | 14.08266 | 78° | 16km/h | 20313m | 4.9m/s | -52.4°C | 1.3% | 55.7hPa | 2.6V | 18:12:15 | 01:14:42 | 00:00:00 | |
| SONDE2-11 | 2026-08-31 12:05:07 | 54.45652 | 14.08251 | 67° | 18km/h | 20304m | 5.9m/s | -52.5°C | 1.5% | 55.8hPa | 2.6V | 00:00:00 | 00:00:00 | 00:00:00 | |
| DL1XH1-15 | 2026-08-31 12:05:06 | 54.45633 | 14.08209 | 49° | 18km/h | 20271m | 6.2m/s | -52.4°C | 4.2% | 56.1hPa | 2.6V | 08:30:00 | 01:14:34 | 00:00:00 | |
| SP3BTT-10 | 2026-08-31 12:05:05 | 54.45646 | 14.08236 | 49° | 31km/h | 20293m | 4.8m/s | -52.4°C | 4.2% | 55.8hPa | 2.7V | 00:00:00 | 00:00:00 | 00:00:00 | |
| DO2SHX-10 | 2026-08-31 12:05:04 | 54.45642 | 14.08230 | 50° | 20km/h | 20288m | 5.5m/s | -52.4°C | 4.2% | 55.9hPa | 2.7V | 00:00:00 | 01:14:37 | 00:00:00 | |
| DM0DOS-11 | 2026-08-31 12:05:03 | 54.45625 | 14.08191 | 64° | 16km/h | 20256m | 6.1m/s | -52.3°C | 4.2% | 56.2hPa | 2.7V | 08:30:00 | 01:14:31 | 00:00:00 | |
| DL1XH-15 | 2026-08-31 12:05:02 | 54.45623 | 14.08185 | 71° | 16km/h | 20251m | 4.9m/s | -52.3°C | 4.2% | 56.2hPa | 2.6V | 08:30:00 | 01:14:30 | 00:00:00 | |
| AA1-15 | 2026-08-31 12:04:58 | 54.45625 | 14.08192 | 64° | 16km/h | 20256m | 6.1m/s | -52.3°C | 1.3% | 56.2hPa | 2.7V | 18:12:15 | 01:14:31 | 00:00:00 | |
| DO2SHX-10 | 2026-08-31 12:04:58 | 54.45625 | 14.08192 | 65° | 16km/h | 20256m | 6.0m/s | -52.3°C | 4.2% | 56.2hPa | 2.6V | 00:00:00 | 01:14:31 | 00:00:00 | |
| DL1XH1-15 | 2026-08-31 12:04:56 | 54.45613 | 14.08147 | 62° | 18km/h | 20220m | 4.3m/s | -52.1°C | 4.1% | 56.5hPa | 2.6V | 08:30:00 | 01:14:24 | 00:00:00 | |
| SONCRA | 2026-08-31 12:04:54 | 54.45619 | 14.08166 | 60° | 15km/h | 20235m | 4.8m/s | -52.2°C | 1.5% | 56.4hPa | 2.7V | 00:00:00 | 00:00:00 | 00:00:00 | |
| DM0DOS-11 | 2026-08-31 12:04:53 | 54.45605 | 14.08128 | 48° | 16km/h | 20205m | 5.1m/s | -52.2°C | 4.1% | 56.7hPa | 2.7V | 08:30:00 | 01:14:21 | 00:00:00 | |
| EDDB2-11 | 2026-08-31 12:04:53 | 54.45615 | 14.08154 | 65° | 16km/h | 20225m | 5.4m/s | -52.1°C | 1.4% | 56.5hPa | 2.7V | 00:00:00 | 00:00:00 | 00:00:00 | |
| DL1XH-15 | 2026-08-31 12:04:52 | 54.45603 | 14.08123 | 54° | 15km/h | 20199m | 6.2m/s | -52.2°C | 4.1% | 56.7hPa | 2.7V | 08:30:00 | 01:14:20 | 00:00:00 | |
| AA1-15 | 2026-08-31 12:04:48 | 54.45605 | 14.08128 | 49° | 16km/h | 20205m | 5.1m/s | -52.2°C | 1.2% | 56.7hPa | 2.7V | 18:12:15 | 01:14:21 | 00:00:00 | |
| DJ2DS-15 | 2026-08-31 12:04:47 | 54.45603 | 14.08123 | 54° | 13km/h | 20199m | 6.3m/s | -52.2°C | 1.4% | 56.7hPa | 2.6V | 00:00:00 | 00:00:00 | 00:00:00 | |
| DO2SHX-10 | 2026-08-31 12:04:46 | 54.45601 | 14.08118 | 66° | 9km/h | 20194m | 4.7m/s | -52.2°C | 4.1% | 56.7hPa | 2.6V | 00:00:00 | 01:14:19 | 00:00:00 | |
| DM0DOS-11 | 2026-08-31 12:04:43 | 54.45596 | 14.08082 | 74° | 16km/h | 20152m | 5.2m/s | -52.4°C | 4.3% | 57.1hPa | 2.6V | 08:30:00 | 01:14:11 | 00:00:00 | |
| DO2SHX-10 | 2026-08-31 12:04:43 | 54.45598 | 14.08107 | 63° | 9km/h | 20178m | 4.5m/s | -52.3°C | 4.2% | 56.9hPa | 2.6V | 00:00:00 | 01:14:16 | 00:00:00 | |
| DL1XH-15 | 2026-08-31 12:04:42 | 54.45595 | 14.08075 | 70° | 18km/h | 20147m | 4.5m/s | -52.4°C | 4.2% | 57.2hPa | 2.6V | 08:30:00 | 01:14:10 | 00:00:00 | |
| AA1-15 | 2026-08-31 12:04:37 | 54.45595 | 14.08075 | 71° | 18km/h | 20147m | 4.5m/s | -52.4°C | 1.3% | 57.2hPa | 2.6V | 18:12:15 | 01:14:10 | 00:00:00 | |
| DO2SHX-10 | 2026-08-31 12:04:37 | 54.45595 | 14.08075 | 71° | 18km/h | 20147m | 4.4m/s | -52.3°C | 4.2% | 57.1hPa | 2.6V | 00:00:00 | 01:14:10 | 00:00:00 | |
| DL1XH1-15 | 2026-08-31 12:04:36 | 54.45586 | 14.08028 | 63° | 20km/h | 20116m | 5m/s | -52.1°C | 4% | 57.4hPa | 2.6V | 08:30:00 | 01:14:04 | 00:00:00 | |
| SONDE2-11 | 2026-08-31 12:04:36 | 54.45592 | 14.08060 | 78° | 16km/h | 20137m | 5.2m/s | -52.2°C | 1.5% | 57.3hPa | 2.7V | 00:00:00 | 00:00:00 | 00:00:00 | |
| EDDB2-12 | 2026-08-31 12:04:35 | 54.45592 | 14.08060 | 78° | 16km/h | 20137m | 5.2m/s | -52.2°C | 1.5% | 57.3hPa | 2.7V | 00:00:00 | 00:00:00 | 00:00:00 | |
| DO2SHX-10 | 2026-08-31 12:04:34 | 54.45592 | 14.08052 | 77° | 20km/h | 20132m | 4.1m/s | -52.1°C | 4.1% | 57.2hPa | 2.7V | 00:00:00 | 01:14:07 | 00:00:00 | |
| DM0DOS-11 | 2026-08-31 12:04:33 | 54.45580 | 14.08006 | 67° | 18km/h | 20100m | 5.2m/s | -52.1°C | 4.1% | 57.6hPa | 2.7V | 08:30:00 | 01:14:01 | 00:00:00 | |
| DO2SHX-10 | 2026-08-31 12:04:31 | 54.45586 | 14.08028 | 64° | 18km/h | 20116m | 5.0m/s | -52.1°C | 4.0% | 57.4hPa | 2.6V | 00:00:00 | 01:14:04 | 00:00:00 | |
| DL1XH-15 | 2026-08-31 12:04:30 | 54.45578 | 14.07999 | 64° | 20km/h | 20095m | 5.4m/s | -52.1°C | 4.1% | 57.6hPa | 2.6V | 08:30:00 | 01:14:00 | 00:00:00 | |
| AA1-15 | 2026-08-31 12:04:26 | 54.45576 | 14.07991 | 69° | 20km/h | 20090m | 4.2m/s | -52.2°C | 1.2% | 57.7hPa | 2.6V | 18:12:15 | 01:13:59 | 00:00:00 | |
| DL1XH1-15 | 2026-08-31 12:04:26 | 54.45570 | 14.07930 | 75° | 29km/h | 20059m | 5.2m/s | -52.4°C | 4.1% | 58hPa | 2.6V | 08:30:00 | 01:13:53 | 00:00:00 | |
| DO2SHX-10 | 2026-08-31 12:04:25 | 54.45575 | 14.07982 | 78° | 22km/h | 20085m | 5.2m/s | -52.2°C | 4.0% | 57.7hPa | 2.6V | 00:00:00 | 01:13:58 | 08:30:00 | |
| DM0DOS-11 | 2026-08-31 12:04:23 | 54.45567 | 14.07905 | 75° | 31km/h | 20048m | 4.3m/s | -52.4°C | 4.1% | 58.1hPa | 2.7V | 08:30:00 | 01:13:51 | 00:00:00 | |
| DL1XH-15 | 2026-08-31 12:04:22 | 54.45564 | 14.07892 | 71° | 31km/h | 20044m | 4.5m/s | -52.4°C | 4.1% | 58.1hPa | 2.7V | 08:30:00 | 01:13:50 | 00:00:00 | |
| AA1-15 | 2026-08-31 12:04:15 | 54.45558 | 14.07867 | 64° | 31km/h | 20034m | 4.5m/s | -52.4°C | 1.2% | 58.2hPa | 2.6V | 18:12:15 | 01:13:48 | 00:00:00 | |
| DL1XH1-15 | 2026-08-31 12:04:15 | 54.45545 | 14.07811 | 62° | 24km/h | 20008m | 4.8m/s | -52.5°C | 4.2% | 58.4hPa | 2.7V | 08:30:00 | 01:13:43 | 00:00:00 | |
| DM0DOS-11 | 2026-08-31 12:04:13 | 54.45540 | 14.07792 | 66° | 24km/h | 19998m | 6m/s | -52.7°C | 4.3% | 58.5hPa | 2.6V | 08:30:00 | 01:13:41 | 00:00:00 | |
| DO2SHX-10 | 2026-08-31 12:04:13 | 54.45553 | 14.07843 | 72° | 27km/h | 20023m | 4.5m/s | -52.4°C | 4.1% | 58.3hPa | 2.6V | 00:00:00 | 01:13:46 | 00:00:00 | |
| DO2SHX-10 | 2026-08-31 12:04:10 | 54.45545 | 14.07811 | 63° | 24km/h | 20008m | 4.7m/s | -52.4°C | 4.2% | 58.4hPa | 2.6V | 00:00:00 | 01:13:43 | 00:00:00 | |
| DL1XH-15 | 2026-08-31 12:04:09 | 54.45538 | 14.07782 | 68° | 26km/h | 19992m | 4.5m/s | -52.8°C | 4.3% | 58.6hPa | 2.6V | 08:30:00 | 01:13:40 | 00:00:00 | |
| DO2SHX-10 | 2026-08-31 12:04:07 | 54.45538 | 14.07782 | 69° | 29km/h | 19993m | 4.4m/s | -52.7°C | 4.3% | 58.5hPa | 2.6V | 00:00:00 | 01:13:40 | 00:00:00 | |
| DL1XH1-15 | 2026-08-31 12:04:05 | 54.45505 | 14.07689 | 56° | 42km/h | 19957m | 5m/s | -53°C | 4.2% | 58.9hPa | 2.7V | 08:30:00 | 01:13:33 | 00:00:00 | |
| AA1-15 | 2026-08-31 12:04:04 | 54.45527 | 14.07747 | 56° | 37km/h | 19978m | 5.3m/s | -53°C | 1.3% | 58.7hPa | 2.7V | 18:12:15 | 01:13:37 | 00:00:00 | |
| DO2SHX-10 | 2026-08-31 12:04:04 | 54.45527 | 14.07747 | 56° | 38km/h | 19978m | 5.2m/s | -52.9°C | 4.3% | 58.6hPa | 2.6V | 00:00:00 | 01:13:37 | 00:00:00 | |
| S3001 | 2026-08-31 12:04:03 | 54.45521 | 14.07734 | 54° | 38km/h | 19972m | 5.7m/s | -53.1°C | 0% | 58.7hPa | 2.6V | 00:00:00 | 00:00:00 | 00:00:00 | |
| DL1XH-15 | 2026-08-31 12:04:02 | 54.45488 | 14.07647 | 58° | 37km/h | 19942m | 5.7m/s | -53.1°C | 4.3% | 59hPa | 2.6V | 08:30:00 | 01:13:30 | 00:00:00 | |
| SP3WXH-11 | 2026-08-31 12:03:56 | 54.45480 | 14.07619 | 62° | 35km/h | 19932m | 4.6m/s | -53.0°C | 1.5% | 59.1hPa | 2.6V | 00:00:00 | 00:00:00 | 00:00:00 | |
| DL1XH1-15 | 2026-08-31 12:03:55 | 54.45457 | 14.07558 | 60° | 33km/h | 19907m | 4.8m/s | -53.1°C | 4.3% | 59.4hPa | 2.6V | 08:30:00 | 01:13:23 | 00:00:00 | |
| AA1-15 | 2026-08-31 12:03:54 | 54.45476 | 14.07606 | 60° | 35km/h | 19927m | 5.7m/s | -53°C | 1.3% | 59.1hPa | 2.7V | 18:12:15 | 01:13:27 | 00:00:00 | |
| DM0DOS-11 | 2026-08-31 12:03:53 | 54.45449 | 14.07534 | 55° | 31km/h | 19897m | 5.7m/s | -53.1°C | 4.3% | 59.5hPa | 2.7V | 08:30:00 | 01:13:21 | 00:00:00 | |
| SONCRA | 2026-08-31 12:03:52 | 54.45466 | 14.07582 | 55° | 33km/h | 19917m | 4.0m/s | -53.0°C | -1.0% | 59.3hPa | 2.6V | 00:00:00 | 00:00:00 | 00:00:00 | |
| EDDB2-11 | 2026-08-31 12:03:51 | 54.45457 | 14.07558 | 60° | 33km/h | 19907m | 4.8m/s | -53.1°C | 1.5% | 59.4hPa | 2.6V | 00:00:00 | 00:00:00 | 00:00:00 | |
| DO2SHX-10 | 2026-08-31 12:03:49 | 54.45453 | 14.07545 | 60° | 31km/h | 19903m | 4.6m/s | -53.0°C | 4.3% | 59.3hPa | 2.6V | 00:00:00 | 01:13:22 | 00:00:00 | |
| SP3BTT-10 | 2026-08-31 12:03:48 | 54.45449 | 14.07534 | 56° | 24km/h | 19897m | 5.7m/s | -53.0°C | 4.3% | 59.4hPa | 2.7V | 00:00:00 | 00:00:00 | 00:00:00 | |
| DO2SHX-10 | 2026-08-31 12:03:46 | 54.45440 | 14.07514 | 51° | 29km/h | 19888m | 3.9m/s | -53.1°C | 4.4% | 59.5hPa | 2.7V | 00:00:00 | 01:13:19 | 00:00:00 | |
| DL1XH1-15 | 2026-08-31 12:03:45 | 54.45414 | 14.07452 | 51° | 29km/h | 19859m | 4.4m/s | -52.9°C | 4.2% | 59.8hPa | 2.7V | 08:30:00 | 01:13:13 | 00:00:00 | |
| AA1-15 | 2026-08-31 12:03:44 | 54.45428 | 14.07483 | 58° | 29km/h | 19874m | 4.1m/s | -53°C | 1.4% | 59.6hPa | 2.6V | 18:12:15 | 01:13:16 | 00:00:00 | |
| DO2SHX-10 | 2026-08-31 12:03:43 | 54.45427 | 14.07483 | 59° | 29km/h | 19874m | 4.0m/s | -53.0°C | 4.4% | 59.6hPa | 2.6V | 00:00:00 | 01:13:16 | 00:00:00 | |
| DL1XH-15 | 2026-08-31 12:03:42 | 54.45402 | 14.07422 | 54° | 27km/h | 19843m | 4.8m/s | -53°C | 4.2% | 59.9hPa | 2.6V | 08:30:00 | 01:13:10 | 00:00:00 | |
| DO2SHX-10 | 2026-08-31 12:03:40 | 54.45414 | 14.07452 | 52° | 29km/h | 19859m | 4.3m/s | -52.8°C | 4.2% | 59.8hPa | 2.7V | 00:00:00 | 01:13:13 | 00:00:00 | |
| DO2SHX-10 | 2026-08-31 12:03:37 | 54.45402 | 14.07421 | 55° | 26km/h | 19844m | 4.7m/s | -52.9°C | 4.2% | 59.9hPa | 2.7V | 00:00:00 | 01:13:10 | 00:00:00 | |
| DL1XH1-15 | 2026-08-31 12:03:35 | 54.45377 | 14.07372 | 42° | 18km/h | 19807m | 4.5m/s | -52.9°C | 4.3% | 60.3hPa | 2.7V | 08:30:00 | 01:13:03 | 00:00:00 | |
| AA1-15 | 2026-08-31 12:03:33 | 54.45383 | 14.07384 | 53° | 20km/h | 19817m | 4.5m/s | -53°C | 1.4% | 60.2hPa | 2.6V | 18:12:15 | 01:13:05 | 00:00:00 | |
| EDDB2-12 | 2026-08-31 12:03:33 | 54.45386 | 14.07391 | 51° | 20km/h | 19822m | 5.8m/s | -53.0°C | 1.6% | 60.1hPa | 2.6V | 00:00:00 | 00:00:00 | 00:00:00 | |
| DL1XH-15 | 2026-08-31 12:03:32 | 54.45367 | 14.07355 | 44° | 18km/h | 19792m | 3.8m/s | -52.9°C | 4.4% | 60.4hPa | 2.6V | 08:30:00 | 01:13:00 | 00:00:00 | |
| S3001 | 2026-08-31 12:03:32 | 54.45380 | 14.07377 | 48° | 18km/h | 19812m | 6.1m/s | -53.0°C | 1.5% | 60.2hPa | 2.6V | 00:00:00 | 00:00:00 | 00:00:00 | |
| DO2SHX-10 | 2026-08-31 12:03:31 | 54.45380 | 14.07377 | 49° | 18km/h | 19812m | 6.1m/s | -52.9°C | 4.4% | 60.2hPa | 2.6V | 00:00:00 | 01:13:04 | 08:30:00 | |
| DO2SHX-10 | 2026-08-31 12:03:28 | 54.45370 | 14.07361 | 49° | 18km/h | 19797m | 5.3m/s | -53.0°C | 4.4% | 60.3hPa | 2.6V | 00:00:00 | 01:13:01 | 00:00:00 | |
| DL1XH1-15 | 2026-08-31 12:03:25 | 54.45337 | 14.07310 | 54° | 20km/h | 19760m | 4.8m/s | -52.8°C | 4.3% | 60.7hPa | 2.6V | 08:30:00 | 01:12:53 | 00:00:00 | |
| DL1XH-west | 2026-08-31 12:03:24 | 54.45349 | 14.07333 | 37° | 26km/h | 19774m | 5.1m/s | -52.9°C | 1.3% | 60.6hPa | 2.7V | 18:12:15 | 01:12:56 | 00:00:00 | |
| DM0DOS-11 | 2026-08-31 12:03:23 | 54.45331 | 14.07298 | 50° | 15km/h | 19750m | 4.5m/s | -52.6°C | 4.3% | 60.8hPa | 2.7V | 08:30:00 | 01:12:51 | 00:00:00 | |
| AA1-15 | 2026-08-31 12:03:22 | 54.45340 | 14.07317 | 53° | 24km/h | 19764m | 3.5m/s | -52.9°C | 1.4% | 60.7hPa | 2.6V | 18:12:15 | 01:12:54 | 00:00:00 | |
| DO2SHX-10 | 2026-08-31 12:03:22 | 54.45344 | 14.07325 | 45° | 24km/h | 19769m | 5.4m/s | -52.9°C | 4.3% | 60.6hPa | 2.7V | 00:00:00 | 01:12:55 | 00:00:00 | |
| SONCRA | 2026-08-31 12:03:21 | 54.45340 | 14.07317 | 52° | 22km/h | 19764m | 3.5m/s | 0°C | -1.0% | -1.0hPa | 2.7V | 00:00:00 | 00:00:00 | 00:00:00 | |
| EDDB2-11 | 2026-08-31 12:03:20 | 54.45334 | 14.07303 | 54° | 16km/h | 19755m | 5.2m/s | -52.6°C | 1.5% | 60.8hPa | 2.7V | 00:00:00 | 00:00:00 | 00:00:00 | |
| DO2SHX-10 | 2026-08-31 12:03:19 | 54.45334 | 14.07303 | 55° | 15km/h | 19755m | 5.2m/s | -52.6°C | 4.3% | 60.7hPa | 2.7V | 00:00:00 | 01:12:52 | 00:00:00 | |
| SP3BTT-10 | 2026-08-31 12:03:18 | 54.45331 | 14.07298 | 51° | 11km/h | 19750m | 4.5m/s | -52.6°C | 4.3% | 60.8hPa | 2.7V | 00:00:00 | 00:00:00 | 00:00:00 | |
| DO2SHX-10 | 2026-08-31 12:03:16 | 54.45326 | 14.07288 | 47° | 15km/h | 19740m | 5.3m/s | -52.6°C | 4.2% | 60.9hPa | 2.7V | 00:00:00 | 01:12:49 | 00:00:00 | |
| DL1XH1-15 | 2026-08-31 12:03:15 | 54.45307 | 14.07272 | 28° | 16km/h | 19710m | 4.6m/s | -52.5°C | 4.2% | 61.2hPa | 2.7V | 08:30:00 | 01:12:43 | 00:00:00 | |
| DL1XH-west | 2026-08-31 12:03:13 | 54.45318 | 14.07278 | 17° | 13km/h | 19725m | 5.2m/s | -52.5°C | 1.3% | 61.1hPa | 2.6V | 18:12:15 | 01:12:46 | 00:00:00 | |
| DO2SHX-10 | 2026-08-31 12:03:13 | 54.45318 | 14.07278 | 17° | 15km/h | 19725m | 5.1m/s | -52.4°C | 4.2% | 61.0hPa | 2.6V | 00:00:00 | 01:12:46 | 00:00:00 | |
| DM0DOS-11 | 2026-08-31 12:03:12 | 54.45298 | 14.07262 | 31° | 13km/h | 19694m | 5m/s | -52.5°C | 4.1% | 61.4hPa | 2.6V | 08:30:00 | 01:12:40 | 00:00:00 | |
| DO2SHX-10 | 2026-08-31 12:03:10 | 54.45307 | 14.07272 | 29° | 16km/h | 19710m | 4.6m/s | -52.5°C | 4.2% | 61.2hPa | 2.7V | 00:00:00 | 01:12:43 | 00:00:00 | |
| AA1-15 | 2026-08-31 12:03:10 | 54.45307 | 14.07272 | 29° | 16km/h | 19710m | 4.6m/s | -52.5°C | 1.3% | 61.2hPa | 2.7V | 18:12:15 | 01:12:43 | 00:00:00 | |
| DO2SHX-10 | 2026-08-31 12:03:07 | 54.45297 | 14.07262 | 32° | 13km/h | 19694m | 4.9m/s | -52.5°C | 4.1% | 61.3hPa | 2.7V | 00:00:00 | 01:12:40 | 00:00:00 | |
| DL1XH1-15 | 2026-08-31 12:03:05 | 54.45279 | 14.07239 | 28° | 16km/h | 19660m | 6.2m/s | -52.8°C | 4.2% | 61.7hPa | 2.7V | 08:30:00 | 01:12:33 | 00:00:00 | |
| DL1XH-west | 2026-08-31 12:03:03 | 54.45285 | 14.07245 | 32° | 13km/h | 19670m | 5.1m/s | -52.9°C | 1.3% | 61.6hPa | 2.6V | 18:12:15 | 01:12:35 | 00:00:00 | |
| BIOWL1-15 | 2026-08-31 12:03:02 | 54.45279 | 14.07239 | 29° | 16km/h | 19660m | 6.3m/s | 0°C | 0% | 0hPa | 2.7V | 18:12:15 | 01:12:33 | 00:00:00 | |
| DO2SHX-10 | 2026-08-31 12:03:01 | 54.45282 | 14.07242 | 28° | 16km/h | 19665m | 4.9m/s | -52.8°C | 4.3% | 61.6hPa | 2.6V | 00:00:00 | 01:12:34 | 00:00:00 | |
| DM0DOS-11 | 2026-08-31 12:03:00 | 54.45266 | 14.07227 | 22° | 18km/h | 19644m | 6.2m/s | -52.6°C | 4.1% | 61.8hPa | 2.6V | 08:30:00 | 01:12:30 | 00:00:00 | |
| AA1-15 | 2026-08-31 12:02:59 | 54.45275 | 14.07235 | 31° | 18km/h | 19654m | 4.9m/s | -52.8°C | 1.3% | 61.7hPa | 2.7V | 18:12:15 | 01:12:32 | 00:00:00 | |
| DJ2DS-15 | 2026-08-31 12:02:59 | 54.45275 | 14.07235 | 30° | 18km/h | 19654m | 4.9m/s | -52.8°C | 1.5% | 61.7hPa | 2.6V | 00:00:00 | 00:00:00 | 00:00:00 | |
| DO2SHX-10 | 2026-08-31 12:02:58 | 54.45271 | 14.07231 | 29° | 18km/h | 19650m | 4.5m/s | -52.6°C | 4.1% | 61.7hPa | 2.6V | 00:00:00 | 01:12:31 | 00:00:00 | |
| DL1XH1-15 | 2026-08-31 12:02:55 | 54.45238 | 14.07212 | 26° | 13km/h | 19609m | 4.8m/s | -53°C | 4.3% | 62.2hPa | 2.6V | 08:30:00 | 01:12:23 | 00:00:00 | |
| DL1XH-west | 2026-08-31 12:02:52 | 54.45239 | 14.07212 | 26° | 13km/h | 19609m | 4.8m/s | -53°C | 1.3% | 62.2hPa | 2.6V | 18:12:15 | 01:12:23 | 00:00:00 | |
| AA1-15 | 2026-08-31 12:02:48 | 54.45233 | 14.07205 | 43° | 16km/h | 19598m | 5.3m/s | -53.2°C | 1.4% | 62.3hPa | 2.7V | 18:12:15 | 01:12:21 | 00:00:00 | |
| DM0DOS-11 | 2026-08-31 12:02:48 | 54.45230 | 14.07199 | 44° | 18km/h | 19593m | 4m/s | -53.2°C | 4.4% | 62.3hPa | 2.7V | 08:30:00 | 01:12:20 | 00:00:00 | |
| DO2SHX-10 | 2026-08-31 12:02:46 | 54.45227 | 14.07194 | 46° | 18km/h | 19589m | 5.8m/s | -53.0°C | 4.3% | 62.3hPa | 2.7V | 00:00:00 | 01:12:19 | 00:00:00 | |
| DL1XH1-15 | 2026-08-31 12:02:45 | 54.45203 | 14.07163 | 32° | 16km/h | 19559m | 5.7m/s | -53.2°C | 4.4% | 62.6hPa | 2.7V | 08:30:00 | 01:12:13 | 00:00:00 | |
| DO2SHX-10 | 2026-08-31 12:02:43 | 54.45216 | 14.07178 | 39° | 22km/h | 19573m | 5.3m/s | -53.0°C | 4.4% | 62.5hPa | 2.6V | 00:00:00 | 01:12:16 | 00:00:00 | |
| DM0DOS-11 | 2026-08-31 12:02:42 | 54.45194 | 14.07155 | 21° | 13km/h | 19543m | 5.3m/s | -53°C | 4.4% | 62.8hPa | 2.6V | 08:30:00 | 01:12:10 | 00:00:00 | |
| DL1XH-west | 2026-08-31 12:02:41 | 54.45203 | 14.07163 | 32° | 16km/h | 19559m | 5.7m/s | -53.2°C | 1.4% | 62.6hPa | 2.7V | 18:12:15 | 01:12:13 | 00:00:00 | |
| AA1-15 | 2026-08-31 12:02:38 | 54.45197 | 14.07157 | 21° | 13km/h | 19549m | 5.4m/s | -53.1°C | 1.4% | 62.8hPa | 2.6V | 18:12:15 | 01:12:11 | 00:00:00 | |
| DO2SHX-10 | 2026-08-31 12:02:37 | 54.45194 | 14.07155 | 22° | 13km/h | 19543m | 5.3m/s | -53.0°C | 4.4% | 62.8hPa | 2.6V | 00:00:00 | 01:12:10 | 08:30:00 | |
| DL1XH1-15 | 2026-08-31 12:02:35 | 54.45179 | 14.07136 | 36° | 13km/h | 19508m | 4.6m/s | -52.6°C | 4.3% | 63.2hPa | 2.7V | 08:30:00 | 01:12:03 | 00:00:00 | |
| DO2SHX-10 | 2026-08-31 12:02:34 | 54.45186 | 14.07148 | 42° | 9km/h | 19529m | 5.9m/s | -52.8°C | 4.4% | 62.9hPa | 2.6V | 00:00:00 | 01:12:07 | 00:00:00 | |
| DM0DOS-11 | 2026-08-31 12:02:32 | 54.45170 | 14.07128 | 21° | 13km/h | 19493m | 4.4m/s | -52.5°C | 4.2% | 63.3hPa | 2.6V | 08:30:00 | 01:12:00 | 00:00:00 | |
| DL1XH-west | 2026-08-31 12:02:29 | 54.45173 | 14.07130 | 20° | 13km/h | 19497m | 5.2m/s | -52.6°C | 1.3% | 63.2hPa | 2.7V | 18:12:15 | 01:12:01 | 00:00:00 | |
| AA1-15 | 2026-08-31 12:02:27 | 54.45170 | 14.07128 | 22° | 13km/h | 19493m | 4.4m/s | -52.6°C | 1.3% | 63.3hPa | 2.6V | 18:12:15 | 01:12:00 | 00:00:00 | |
| DL1XH1-15 | 2026-08-31 12:02:25 | 54.45155 | 14.07106 | 71° | 13km/h | 19456m | 5.4m/s | -52.3°C | 4.3% | 63.7hPa | 2.6V | 08:30:00 | 01:11:53 | 00:00:00 | |
| SP3WXH-11 | 2026-08-31 12:02:23 | 54.45157 | 14.07115 | 56° | 7km/h | 19467m | 4.3m/s | -52.4°C | 1.5% | 63.6hPa | 2.7V | 00:00:00 | 00:00:00 | 00:00:00 | |
| DM0DOS-11 | 2026-08-31 12:02:22 | 54.45153 | 14.07091 | 79° | 9km/h | 19440m | 4m/s | -52.1°C | 4.3% | 63.8hPa | 2.7V | 08:30:00 | 01:11:50 | 00:00:00 | |
| DL1XH-west | 2026-08-31 12:02:19 | 54.45154 | 14.07101 | 79° | 13km/h | 19451m | 5.2m/s | -52.1°C | 1.3% | 63.7hPa | 2.7V | 18:12:15 | 01:11:52 | 00:00:00 | |
| AA1-15 | 2026-08-31 12:02:17 | 54.45153 | 14.07091 | 79° | 9km/h | 19440m | 4m/s | -52.1°C | 1.4% | 63.8hPa | 2.7V | 18:12:15 | 01:11:50 | 00:00:00 | |
| DO2SHX-10 | 2026-08-31 12:02:16 | 54.45152 | 14.07087 | 64° | 13km/h | 19436m | 4.4m/s | -52.0°C | 4.2% | 63.8hPa | 2.7V | 00:00:00 | 01:11:49 | 00:00:00 | |
| DL1XH1-15 | 2026-08-31 12:02:15 | 54.45140 | 14.07064 | 47° | 9km/h | 19404m | 4.9m/s | -52°C | 4.1% | 64.2hPa | 2.7V | 08:30:00 | 01:11:43 | 00:00:00 | |
| DO2SHX-10 | 2026-08-31 12:02:13 | 54.45145 | 14.07074 | 44° | 11km/h | 19420m | 5.4m/s | -52.0°C | 4.2% | 64.0hPa | 2.7V | 00:00:00 | 01:11:46 | 00:00:00 | |
| DM0DOS-11 | 2026-08-31 12:02:12 | 54.45136 | 14.07057 | 62° | 5km/h | 19388m | 6.3m/s | -52.1°C | 4.1% | 64.3hPa | 2.7V | 08:30:00 | 01:11:40 | 00:00:00 | |
| DL1XH-west | 2026-08-31 12:02:09 | 54.45139 | 14.07062 | 45° | 9km/h | 19400m | 5.5m/s | -52.1°C | 1.2% | 64.2hPa | 2.6V | 18:12:15 | 01:11:42 | 00:00:00 | |
| AA1-15 | 2026-08-31 12:02:07 | 54.45136 | 14.07055 | 94° | 5km/h | 19383m | 4.8m/s | -52°C | 1.3% | 64.4hPa | 2.8V | 18:12:15 | 01:11:39 | 00:00:00 | |
| DL1XH1-15 | 2026-08-31 12:02:05 | 54.45133 | 14.07027 | 82° | 15km/h | 19352m | 4.5m/s | -51.7°C | 4% | 64.7hPa | 2.8V | 08:30:00 | 01:11:33 | 00:00:00 | |
| DO2SHX-10 | 2026-08-31 12:02:04 | 54.45136 | 14.07049 | 78° | 11km/h | 19373m | 5.9m/s | -51.8°C | 4.1% | 64.4hPa | 2.7V | 00:00:00 | 01:11:37 | 00:00:00 | |
| SP3BTT-10 | 2026-08-31 12:02:03 | 54.45135 | 14.07045 | 72° | 26km/h | 19368m | 4.5m/s | -51.8°C | 4.0% | 64.5hPa | 2.7V | 00:00:00 | 00:00:00 | 00:00:00 | |
| DO2SHX-10 | 2026-08-31 12:02:01 | 54.45134 | 14.07033 | 83° | 15km/h | 19358m | 5.6m/s | -51.7°C | 4.1% | 64.6hPa | 2.7V | 00:00:00 | 01:11:34 | 00:00:00 | |
| DM0DOS-11 | 2026-08-31 12:02:00 | 54.45129 | 14.07008 | 59° | 16km/h | 19336m | 4.9m/s | -51.8°C | 4% | 64.8hPa | 2.6V | 08:30:00 | 01:11:30 | 00:00:00 | |
| DL1XH-west | 2026-08-31 12:01:58 | 54.45129 | 14.07008 | 60° | 16km/h | 19336m | 4.9m/s | -51.8°C | 1.1% | 64.8hPa | 2.6V | 18:12:15 | 01:11:30 | 00:00:00 | |
| AA1-15 | 2026-08-31 12:01:57 | 54.45127 | 14.07002 | 60° | 15km/h | 19330m | 6.3m/s | -51.8°C | 1.2% | 64.9hPa | 2.6V | 18:12:15 | 01:11:29 | 00:00:00 | |
| DL1XH1-15 | 2026-08-31 12:01:55 | 54.45118 | 14.06972 | 77° | 13km/h | 19298m | 5.4m/s | -51.9°C | 4% | 65.2hPa | 2.6V | 08:30:00 | 01:11:23 | 00:00:00 | |
| SP3WXH-11 | 2026-08-31 12:01:52 | 54.45119 | 14.06977 | 69° | 13km/h | 19303m | 5.3m/s | -51.8°C | 1.4% | 65.2hPa | 2.6V | 00:00:00 | 00:00:00 | 00:00:00 | |
| DL1XH-15 | 2026-08-31 12:01:51 | 54.45108 | 14.06934 | 64° | 15km/h | 19267m | 4.9m/s | -52.2°C | 4.1% | 65.5hPa | 2.6V | 08:30:00 | 01:11:17 | 00:00:00 | |
| DL1XH-west | 2026-08-31 12:01:48 | 54.45113 | 14.06946 | 59° | 18km/h | 19278m | 4.5m/s | -52°C | 1.2% | 65.4hPa | 2.7V | 18:12:15 | 01:11:19 | 00:00:00 | |
| DM0DOS-11 | 2026-08-31 12:01:47 | 54.45110 | 14.06940 | 60° | 16km/h | 19273m | 5.6m/s | -52.1°C | 4% | 65.5hPa | 2.6V | 08:30:00 | 01:11:18 | 00:00:00 | |
| AA1-15 | 2026-08-31 12:01:46 | 54.45109 | 14.06934 | 64° | 15km/h | 19267m | 4.9m/s | -52.2°C | 1.2% | 65.5hPa | 2.6V | 18:12:15 | 01:11:17 | 00:00:00 | |
| DO2SHX-10 | 2026-08-31 12:01:46 | 54.45112 | 14.06946 | 60° | 16km/h | 19278m | 4.5m/s | -52.0°C | 4.0% | 65.4hPa | 2.7V | 00:00:00 | 01:11:19 | 00:00:00 | |
| DL1XH1-15 | 2026-08-31 12:01:45 | 54.45100 | 14.06907 | 57° | 22km/h | 19248m | 5.4m/s | -52.3°C | 4.2% | 65.7hPa | 2.7V | 08:30:00 | 01:11:13 | 00:00:00 | |
| DL1XH-west | 2026-08-31 12:01:37 | 54.45090 | 14.06870 | 69° | 27km/h | 19227m | 6m/s | -52.1°C | 1.1% | 66hPa | 2.8V | 18:12:15 | 01:11:09 | 00:00:00 | |
| DL1XH-15 | 2026-08-31 12:01:36 | 54.45087 | 14.06859 | 67° | 27km/h | 19221m | 5.2m/s | -52.1°C | 4.1% | 66hPa | 2.7V | 08:30:00 | 01:11:08 | 00:00:00 | |
| AA1-15 | 2026-08-31 12:01:36 | 54.45082 | 14.06837 | 68° | 24km/h | 19211m | 6.2m/s | -52.3°C | 1.3% | 66.1hPa | 2.6V | 18:12:15 | 01:11:06 | 00:00:00 | |
| DL1XH1-15 | 2026-08-31 12:01:34 | 54.45075 | 14.06812 | 55° | 22km/h | 19195m | 5.7m/s | -52.5°C | 4.2% | 66.3hPa | 2.8V | 08:30:00 | 01:11:03 | 00:00:00 | |
| DO2SHX-10 | 2026-08-31 12:01:34 | 54.45084 | 14.06847 | 67° | 24km/h | 19216m | 4.5m/s | -52.2°C | 4.1% | 66.0hPa | 2.7V | 00:00:00 | 01:11:07 | 00:00:00 | |
| DO2SHX-10 | 2026-08-31 12:01:31 | 54.45077 | 14.06820 | 62° | 22km/h | 19201m | 5.6m/s | -52.4°C | 4.3% | 66.2hPa | 2.7V | 00:00:00 | 01:11:04 | 00:00:00 | |
| DM0DOS-11 | 2026-08-31 12:01:30 | 54.45057 | 14.06772 | 52° | 31km/h | 19169m | 5.6m/s | -52.3°C | 4.2% | 66.5hPa | 2.7V | 08:30:00 | 01:10:58 | 00:00:00 | |
| DL1XH-west | 2026-08-31 12:01:27 | 54.45065 | 14.06790 | 53° | 24km/h | 19179m | 4.2m/s | -52.4°C | 1.3% | 66.4hPa | 2.6V | 18:12:15 | 01:11:00 | 00:00:00 | |
| AA1-15 | 2026-08-31 12:01:25 | 54.45052 | 14.06760 | 53° | 35km/h | 19163m | 4.8m/s | -52.3°C | 1.2% | 66.6hPa | 2.8V | 18:12:15 | 01:10:57 | 00:00:00 | |
| DL1XH-west | 2026-08-31 12:01:16 | 54.45017 | 14.06671 | 47° | 27km/h | 19120m | 5.3m/s | -52.5°C | 1.3% | 67.1hPa | 2.7V | 18:12:15 | 01:10:49 | 00:00:00 | |
| DL1XH-15 | 2026-08-31 12:01:16 | 54.45012 | 14.06662 | 44° | 31km/h | 19115m | 5.7m/s | -52.5°C | 4.3% | 67.1hPa | 2.6V | 08:30:00 | 01:10:48 | 00:00:00 | |
| AA1-15 | 2026-08-31 12:01:14 | 54.44999 | 14.06642 | 41° | 37km/h | 19105m | 5.3m/s | -52.6°C | 1.3% | 67.2hPa | 2.7V | 18:12:15 | 01:10:46 | 00:00:00 | |
| DL1XH1-15 | 2026-08-31 12:01:14 | 54.44977 | 14.06610 | 39° | 42km/h | 19088m | 6.3m/s | -52.4°C | 4.4% | 67.4hPa | 2.7V | 08:30:00 | 01:10:43 | 00:00:00 | |
| DO2SHX-10 | 2026-08-31 12:01:13 | 54.44999 | 14.06642 | 42° | 38km/h | 19105m | 5.2m/s | -52.5°C | 4.4% | 67.2hPa | 2.7V | 00:00:00 | 01:10:46 | 00:00:00 | |
| DM0DOS-11 | 2026-08-31 12:01:10 | 54.44937 | 14.06555 | 36° | 35km/h | 19063m | 4.2m/s | -52.1°C | 4.3% | 67.7hPa | 2.7V | 08:30:00 | 01:10:38 | 00:00:00 | |
| DL1XH-west | 2026-08-31 12:01:05 | 54.44937 | 14.06555 | 37° | 35km/h | 19063m | 4.2m/s | -52.2°C | 1.3% | 67.7hPa | 2.7V | 18:12:15 | 01:10:38 | 00:00:00 | |
| DL1XH1-15 | 2026-08-31 12:01:04 | 54.44897 | 14.06513 | 29° | 38km/h | 19038m | 5.6m/s | -52.2°C | 4.2% | 67.9hPa | 2.8V | 08:30:00 | 01:10:33 | 00:00:00 | |
| AA1-15 | 2026-08-31 12:01:04 | 54.44922 | 14.06538 | 32° | 37km/h | 19053m | 5.1m/s | -52.1°C | 1.2% | 67.8hPa | 2.6V | 18:12:15 | 01:10:36 | 00:00:00 | |
| EDDB2-12 | 2026-08-31 12:00:58 | 54.44880 | 14.06496 | 33° | 40km/h | 19028m | 6.3m/s | -52.1°C | 1.5% | 68.0hPa | 2.7V | 00:00:00 | 00:00:00 | 00:00:00 | |
| S3001 | 2026-08-31 12:00:57 | 54.44863 | 14.06474 | 39° | 40km/h | 19018m | 3.9m/s | -52.0°C | 1.5% | 68.1hPa | 2.7V | 00:00:00 | 00:00:00 | 00:00:00 | |
| DL1XH-15 | 2026-08-31 12:00:56 | 54.44855 | 14.06463 | 41° | 38km/h | 19013m | 5.9m/s | -51.9°C | 4.3% | 68.2hPa | 2.7V | 08:30:00 | 01:10:28 | 00:00:00 | |
| DL1XH-west | 2026-08-31 12:00:54 | 54.44848 | 14.06452 | 45° | 37km/h | 19007m | 5.2m/s | -51.8°C | 1.3% | 68.2hPa | 2.8V | 18:12:15 | 01:10:27 | 00:00:00 | |
| DL1XH1-15 | 2026-08-31 12:00:54 | 54.44822 | 14.06411 | 36° | 38km/h | 18987m | 5m/s | -51.5°C | 4% | 68.4hPa | 2.6V | 08:30:00 | 01:10:23 | 00:00:00 | |
| AA1-15 | 2026-08-31 12:00:53 | 54.44842 | 14.06441 | 45° | 33km/h | 19002m | 4.6m/s | -51.7°C | 1.3% | 68.3hPa | 2.7V | 18:12:15 | 01:10:26 | 00:00:00 | |
| SP3WXH-11 | 2026-08-31 12:00:50 | 54.44814 | 14.06402 | 34° | 37km/h | 18982m | 5.1m/s | -51.5°C | 1.4% | 68.5hPa | 2.7V | 00:00:00 | 00:00:00 | 00:00:00 | |
| DO2SHX-10 | 2026-08-31 12:00:49 | 54.44814 | 14.06402 | 35° | 37km/h | 18982m | 5.0m/s | -51.5°C | 4.0% | 68.5hPa | 2.7V | 00:00:00 | 01:10:22 | 08:30:00 | |
| DM0DOS-11 | 2026-08-31 12:00:48 | 54.44783 | 14.06368 | 30° | 40km/h | 18960m | 5.5m/s | -51.5°C | 4% | 68.7hPa | 2.6V | 08:30:00 | 01:10:18 | 00:00:00 | |
| DL1XH-west | 2026-08-31 12:00:44 | 54.44774 | 14.06359 | 31° | 40km/h | 18955m | 4.1m/s | -51.3°C | 1.1% | 68.8hPa | 2.6V | 18:12:15 | 01:10:17 | 00:00:00 | |
| DL1XH1-15 | 2026-08-31 12:00:44 | 54.44745 | 14.06326 | 36° | 33km/h | 18934m | 5.2m/s | -51.4°C | 4% | 69hPa | 2.7V | 08:30:00 | 01:10:13 | 00:00:00 | |
| AA1-15 | 2026-08-31 12:00:43 | 54.44758 | 14.06342 | 34° | 33km/h | 18945m | 5.9m/s | -51.4°C | 1.1% | 68.9hPa | 2.8V | 18:12:15 | 01:10:15 | 00:00:00 | |
| DL1XH-west | 2026-08-31 12:00:34 | 54.44703 | 14.06279 | 34° | 35km/h | 18902m | 6.4m/s | -51.6°C | 1.2% | 69.3hPa | 2.7V | 18:12:15 | 01:10:07 | 00:00:00 | |
| DL1XH1-15 | 2026-08-31 12:00:34 | 54.44674 | 14.06244 | 35° | 33km/h | 18881m | 4.2m/s | -51.6°C | 4% | 69.5hPa | 2.8V | 08:30:00 | 01:10:03 | 00:00:00 | |
| AA1-15 | 2026-08-31 12:00:32 | 54.44688 | 14.06261 | 36° | 37km/h | 18891m | 5.3m/s | -51.6°C | 1.2% | 69.5hPa | 2.6V | 18:12:15 | 01:10:05 | 00:00:00 | |
| DO2SHX-10 | 2026-08-31 12:00:31 | 54.44681 | 14.06252 | 36° | 35km/h | 18886m | 5.7m/s | -51.5°C | 4.0% | 69.5hPa | 2.7V | 00:00:00 | 01:10:04 | 00:00:00 | |
| DL1XH-15 | 2026-08-31 12:00:30 | 54.44640 | 14.06205 | 27° | 24km/h | 18855m | 5.4m/s | -51.5°C | 4.1% | 69.8hPa | 2.7V | 08:30:00 | 01:09:58 | 00:00:00 | |
| DM0DOS-11 | 2026-08-31 12:00:28 | 54.44630 | 14.06196 | 26° | 22km/h | 18844m | 5.7m/s | -51.5°C | 4.1% | 70hPa | 2.7V | 08:30:00 | 01:09:56 | 00:00:00 | |
| DO2SHX-10 | 2026-08-31 12:00:28 | 54.44660 | 14.06226 | 36° | 33km/h | 18870m | 5.0m/s | -51.6°C | 4.1% | 69.6hPa | 2.6V | 00:00:00 | 01:10:01 | 00:00:00 | |
| EDDB2-12 | 2026-08-31 12:00:27 | 54.44653 | 14.06218 | 33° | 31km/h | 18866m | 4.0m/s | -51.7°C | 1.5% | 69.8hPa | 2.6V | 00:00:00 | 00:00:00 | 00:00:00 | |
| S3001 | 2026-08-31 12:00:26 | 54.44640 | 14.06205 | 27° | 24km/h | 18855m | 5.4m/s | -51.5°C | 1.5% | 69.8hPa | 2.6V | 00:00:00 | 00:00:00 | 00:00:00 | |
| DO2SHX-10 | 2026-08-31 12:00:25 | 54.44640 | 14.06205 | 28° | 22km/h | 18855m | 5.4m/s | -51.5°C | 4.1% | 69.8hPa | 2.6V | 00:00:00 | 01:09:58 | 00:00:00 | |
| DL1XH1-15 | 2026-08-31 12:00:24 | 54.44617 | 14.06182 | 34° | 20km/h | 18829m | 6m/s | -51.5°C | 4.1% | 70.1hPa | 2.6V | 08:30:00 | 01:09:53 | 00:00:00 | |
| DL1XH-west | 2026-08-31 12:00:23 | 54.44630 | 14.06196 | 27° | 22km/h | 18844m | 5.7m/s | -51.6°C | 1.2% | 70hPa | 2.7V | 18:12:15 | 01:09:56 | 00:00:00 | |
| AA1-15 | 2026-08-31 12:00:21 | 54.44617 | 14.06182 | 35° | 20km/h | 18829m | 6m/s | -51.5°C | 1.2% | 70.1hPa | 2.6V | 18:12:15 | 01:09:53 | 00:00:00 | |
| SP3WXH-11 | 2026-08-31 12:00:19 | 54.44608 | 14.06171 | 38° | 24km/h | 18818m | 6.4m/s | -51.5°C | 1.4% | 70.3hPa | 2.7V | 00:00:00 | 00:00:00 | 00:00:00 | |
| DO2SHX-10 | 2026-08-31 12:00:16 | 54.44598 | 14.06156 | 45° | 26km/h | 18808m | 4.5m/s | -51.4°C | 4.1% | 70.3hPa | 2.7V | 00:00:00 | 01:09:49 | 00:00:00 | |
| DM0DOS-11 | 2026-08-31 12:00:14 | 54.44586 | 14.06131 | 55° | 24km/h | 18792m | 5.4m/s | -51.4°C | 4% | 70.5hPa | 2.7V | 08:30:00 | 01:09:46 | 00:00:00 | |
| DL1XH1-15 | 2026-08-31 12:00:14 | 54.44577 | 14.06107 | 58° | 18km/h | 18776m | 6.4m/s | -51.4°C | 4% | 70.7hPa | 2.7V | 08:30:00 | 01:09:43 | 00:00:00 | |
| DL1XH-west | 2026-08-31 12:00:12 | 54.44580 | 14.06114 | 56° | 22km/h | 18782m | 4.6m/s | -51.4°C | 1.1% | 70.7hPa | 2.8V | 18:12:15 | 01:09:44 | 00:00:00 | |
| AA1-15 | 2026-08-31 12:00:10 | 54.44575 | 14.06101 | 59° | 15km/h | 18771m | 4.7m/s | -51.4°C | 1.1% | 70.8hPa | 2.6V | 18:12:15 | 01:09:42 | 00:00:00 | |
| DO2SHX-10 | 2026-08-31 12:00:10 | 54.44577 | 14.06107 | 59° | 16km/h | 18776m | 6.4m/s | -51.3°C | 4.0% | 70.6hPa | 2.7V | 00:00:00 | 01:09:43 | 00:00:00 | |
| DO2SHX-10 | 2026-08-31 12:00:07 | 54.44570 | 14.06091 | 48° | 18km/h | 18761m | 5.7m/s | -51.2°C | 4.0% | 70.8hPa | 2.7V | 00:00:00 | 01:09:40 | 00:00:00 | |
| DO2SHX-10 | 2026-08-31 12:00:04 | 54.44560 | 14.06073 | 52° | 22km/h | 18745m | 5.8m/s | -51.1°C | 4.1% | 71.0hPa | 2.7V | 00:00:00 | 01:09:37 | 00:00:00 | |
| DL1XH1-15 | 2026-08-31 12:00:03 | 54.44546 | 14.06040 | 53° | 26km/h | 18725m | 4.3m/s | -51.2°C | 4% | 71.3hPa | 2.8V | 08:30:00 | 01:09:33 | 00:00:00 | |
| DL1XH-west | 2026-08-31 12:00:00 | 54.44546 | 14.06040 | 54° | 26km/h | 18725m | 4.3m/s | -51.2°C | 1.2% | 71.3hPa | 2.8V | 18:12:15 | 01:09:33 | 00:00:00 | |
| AA1-15 | 2026-08-31 11:59:59 | 54.44542 | 14.06031 | 58° | 26km/h | 18720m | 5.8m/s | -51.1°C | 1.1% | 71.3hPa | 2.8V | 18:12:15 | 01:09:32 | 00:00:00 | |
| DM0DOS-11 | 2026-08-31 11:59:58 | 54.44520 | 14.05975 | 53° | 18km/h | 18683m | 4.7m/s | -51.2°C | 3.9% | 71.7hPa | 2.7V | 08:30:00 | 01:09:25 | 00:00:00 | |
| EDDB2-12 | 2026-08-31 11:59:56 | 54.44534 | 14.06005 | 56° | 22km/h | 18705m | 5.6m/s | -51.1°C | 1.4% | 71.5hPa | 2.7V | 00:00:00 | 00:00:00 | 00:00:00 | |
| DO2SHX-10 | 2026-08-31 11:59:55 | 54.44530 | 14.05996 | 54° | 22km/h | 18700m | 4.9m/s | -51.1°C | 4.0% | 71.5hPa | 2.7V | 00:00:00 | 01:09:28 | 08:30:00 | |
| DL1XH1-15 | 2026-08-31 11:59:53 | 54.44514 | 14.05961 | 54° | 22km/h | 18673m | 5.5m/s | -51.3°C | 3.9% | 71.8hPa | 2.7V | 08:30:00 | 01:09:23 | 00:00:00 | |
| DL1XH-west | 2026-08-31 11:59:50 | 54.44515 | 14.05961 | 54° | 22km/h | 18673m | 5.5m/s | -51.3°C | 1.1% | 71.8hPa | 2.7V | 18:12:15 | 01:09:23 | 00:00:00 | |
| AA1-15 | 2026-08-31 11:59:49 | 54.44508 | 14.05944 | 62° | 24km/h | 18663m | 5.7m/s | -51.2°C | 1% | 72hPa | 2.8V | 18:12:15 | 01:09:21 | 00:00:00 | |
| SP3WXH-11 | 2026-08-31 11:59:48 | 54.44505 | 14.05934 | 66° | 24km/h | 18657m | 5.0m/s | -51.2°C | 1.4% | 72.0hPa | 2.6V | 00:00:00 | 00:00:00 | 00:00:00 | |
| DL1XH-15 | 2026-08-31 11:59:46 | 54.44500 | 14.05913 | 65° | 27km/h | 18647m | 6.1m/s | -51.4°C | 4.1% | 72.1hPa | 2.6V | 08:30:00 | 01:09:18 | 00:00:00 | |
| DO2SHX-10 | 2026-08-31 11:59:46 | 54.44503 | 14.05924 | 67° | 27km/h | 18653m | 4.4m/s | -51.3°C | 4.0% | 72.0hPa | 2.7V | 00:00:00 | 01:09:19 | 00:00:00 | |
| DL1XH1-15 | 2026-08-31 11:59:43 | 54.44488 | 14.05854 | 75° | 29km/h | 18623m | 4.2m/s | -51.3°C | 4% | 72.4hPa | 2.7V | 08:30:00 | 01:09:13 | 00:00:00 | |
| DL1XH-west | 2026-08-31 11:59:40 | 54.44488 | 14.05854 | 76° | 29km/h | 18623m | 4.3m/s | -51.3°C | 1.1% | 72.4hPa | 2.7V | 18:12:15 | 01:09:13 | 00:00:00 | |
| DO2SHX-10 | 2026-08-31 11:59:40 | 54.44488 | 14.05853 | 76° | 29km/h | 18623m | 4.2m/s | -51.3°C | 4.0% | 72.3hPa | 2.7V | 00:00:00 | 01:09:13 | 00:00:00 | |
| DL1XH-15 | 2026-08-31 11:59:39 | 54.44474 | 14.05799 | 57° | 24km/h | 18597m | 4.6m/s | -51.3°C | 4.1% | 72.7hPa | 2.7V | 08:30:00 | 01:09:08 | 00:00:00 | |
| AA1-15 | 2026-08-31 11:59:39 | 54.44480 | 14.05818 | 61° | 27km/h | 18608m | 4.6m/s | -51.3°C | 1.1% | 72.5hPa | 2.7V | 18:12:15 | 01:09:10 | 00:00:00 | |
| DO2SHX-10 | 2026-08-31 11:59:37 | 54.44480 | 14.05818 | 62° | 26km/h | 18608m | 4.5m/s | -51.2°C | 4.0% | 72.5hPa | 2.7V | 00:00:00 | 01:09:10 | 00:00:00 | |
| DO2SHX-10 | 2026-08-31 11:59:34 | 54.44470 | 14.05790 | 55° | 27km/h | 18593m | 4.3m/s | -51.4°C | 4.1% | 72.7hPa | 2.8V | 00:00:00 | 01:09:07 | 00:00:00 | |
| DL1XH1-15 | 2026-08-31 11:59:33 | 54.44455 | 14.05749 | 64° | 29km/h | 18573m | 5.9m/s | -51.7°C | 4.1% | 72.9hPa | 2.8V | 08:30:00 | 01:09:03 | 00:00:00 | |
| DL1XH-west | 2026-08-31 11:59:29 | 54.44449 | 14.05724 | 70° | 33km/h | 18564m | 4.1m/s | -51.7°C | 1.2% | 73.1hPa | 2.7V | 18:12:15 | 01:09:01 | 00:00:00 | |
| AA1-15 | 2026-08-31 11:59:29 | 54.44446 | 14.05711 | 69° | 35km/h | 18558m | 6.1m/s | -51.8°C | 1.2% | 73.1hPa | 2.6V | 18:12:15 | 01:09:00 | 00:00:00 | |
| DO2SHX-10 | 2026-08-31 11:59:28 | 54.44449 | 14.05724 | 71° | 35km/h | 18564m | 4.0m/s | -51.7°C | 4.1% | 73.0hPa | 2.7V | 00:00:00 | 01:09:01 | 08:30:00 | |
| DL1XH-15 | 2026-08-31 11:59:26 | 54.44438 | 14.05682 | 62° | 38km/h | 18548m | 4.7m/s | -51.6°C | 4.1% | 73.2hPa | 2.7V | 08:30:00 | 01:08:58 | 00:00:00 | |
| AA1-15 | 2026-08-31 11:59:18 | 54.44392 | 14.05562 | 56° | 40km/h | 18502m | 5.8m/s | -51.4°C | 1.3% | 73.7hPa | 2.7V | 18:12:15 | 01:08:49 | 00:00:00 | |
| DL1XH-west | 2026-08-31 11:59:18 | 54.44397 | 14.05575 | 56° | 37km/h | 18507m | 4.6m/s | -51.4°C | 1.2% | 73.7hPa | 2.8V | 18:12:15 | 01:08:50 | 00:00:00 | |
| DL1XH-15 | 2026-08-31 11:59:16 | 54.44386 | 14.05547 | 55° | 42km/h | 18497m | 4.7m/s | -51.3°C | 4.2% | 73.8hPa | 2.6V | 08:30:00 | 01:08:48 | 00:00:00 | |
| DO2SHX-10 | 2026-08-31 11:59:16 | 54.44392 | 14.05562 | 56° | 40km/h | 18502m | 5.8m/s | -51.3°C | 4.2% | 73.7hPa | 2.8V | 00:00:00 | 01:08:49 | 00:00:00 | |
| DM0DOS-11 | 2026-08-31 11:59:15 | 54.44370 | 14.05506 | 56° | 35km/h | 18482m | 4.5m/s | -51.3°C | 4.1% | 73.9hPa | 2.8V | 08:30:00 | 01:08:45 | 00:00:00 | |
| DL1XH1-15 | 2026-08-31 11:59:13 | 54.44359 | 14.05480 | 53° | 37km/h | 18471m | 5.2m/s | -51.2°C | 4.1% | 74.1hPa | 2.7V | 08:30:00 | 01:08:43 | 00:00:00 | |
| DL1XH-west | 2026-08-31 11:59:07 | 54.44343 | 14.05446 | 48° | 31km/h | 18455m | 4.6m/s | -51.1°C | 1.2% | 74.3hPa | 2.7V | 18:12:15 | 01:08:40 | 00:00:00 | |
| DL1XH-15 | 2026-08-31 11:59:06 | 54.44331 | 14.05425 | 45° | 37km/h | 18445m | 5.5m/s | -51°C | 4% | 74.4hPa | 2.8V | 08:30:00 | 01:08:38 | 00:00:00 | |
| AA1-15 | 2026-08-31 11:59:05 | 54.44331 | 14.05425 | 46° | 37km/h | 18445m | 5.5m/s | -51.1°C | 1.1% | 74.4hPa | 2.8V | 18:12:15 | 01:08:38 | 00:00:00 | |
| DO2SHX-10 | 2026-08-31 11:59:05 | 54.44325 | 14.05413 | 49° | 37km/h | 18440m | 4.4m/s | -51.0°C | 4.0% | 74.4hPa | 2.8V | 00:00:00 | 01:08:37 | 00:00:00 | |
| DL1XH1-15 | 2026-08-31 11:59:03 | 54.44303 | 14.05361 | 54° | 40km/h | 18420m | 5.7m/s | -50.9°C | 4% | 74.7hPa | 2.8V | 08:30:00 | 01:08:33 | 00:00:00 | |
| DM0DOS-11 | 2026-08-31 11:59:03 | 54.44314 | 14.05388 | 54° | 37km/h | 18430m | 4.7m/s | -50.9°C | 4% | 74.5hPa | 2.7V | 08:30:00 | 01:08:35 | 00:00:00 | |
| DO2SHX-10 | 2026-08-31 11:59:01 | 54.44308 | 14.05375 | 57° | 38km/h | 18425m | 4.9m/s | -51.0°C | 4.0% | 74.6hPa | 2.7V | 00:00:00 | 01:08:34 | 08:30:00 | |
| AM1SDL-15 | 2026-08-31 11:59:00 | 54.44303 | 14.05361 | 55° | 35km/h | 18420m | 5.7m/s | -50.9°C | 4.0% | 74.7hPa | 2.7V | 00:00:00 | 01:08:33 | 00:00:00 | |
| DO2SHX-10 | 2026-08-31 11:58:58 | 54.44292 | 14.05334 | 54° | 35km/h | 18409m | 5.9m/s | -50.8°C | 4.0% | 74.8hPa | 2.7V | 00:00:00 | 01:08:31 | 00:00:00 | |
| DM0DOS-11 | 2026-08-31 11:58:57 | 54.44258 | 14.05265 | 49° | 31km/h | 18380m | 5.2m/s | -50.6°C | 4% | 75.1hPa | 2.7V | 08:30:00 | 01:08:25 | 00:00:00 | |
| DL1XH-west | 2026-08-31 11:58:57 | 54.44281 | 14.05310 | 51° | 35km/h | 18400m | 4.8m/s | -50.7°C | 1.1% | 74.9hPa | 2.7V | 18:12:15 | 01:08:29 | 00:00:00 | |
| DL1XH-15 | 2026-08-31 11:58:56 | 54.44275 | 14.05298 | 48° | 37km/h | 18395m | 4.9m/s | -50.7°C | 3.9% | 74.9hPa | 2.8V | 08:30:00 | 01:08:28 | 00:00:00 | |
| AA1-15 | 2026-08-31 11:58:55 | 54.44269 | 14.05286 | 49° | 35km/h | 18391m | 4.1m/s | -50.7°C | 1.2% | 75hPa | 2.8V | 18:12:15 | 01:08:27 | 00:00:00 | |
| EDDB2-12 | 2026-08-31 11:58:54 | 54.44263 | 14.05275 | 49° | 33km/h | 18386m | 5.7m/s | -50.7°C | 1.5% | 75.1hPa | 2.7V | 00:00:00 | 00:00:00 | 00:00:00 | |
| DL1XH1-15 | 2026-08-31 11:58:53 | 54.44248 | 14.05245 | 46° | 33km/h | 18371m | 6.1m/s | -50.6°C | 4% | 75.2hPa | 2.7V | 08:30:00 | 01:08:23 | 00:00:00 | |
| DL1XH-west | 2026-08-31 11:58:47 | 54.44223 | 14.05204 | 43° | 33km/h | 18351m | 4.1m/s | -50.6°C | 1.2% | 75.5hPa | 2.8V | 18:12:15 | 01:08:19 | 00:00:00 | |
| DL1XH-15 | 2026-08-31 11:58:46 | 54.44217 | 14.05194 | 41° | 35km/h | 18346m | 4.8m/s | -50.6°C | 3.9% | 75.5hPa | 2.6V | 08:30:00 | 01:08:18 | 00:00:00 | |
| SP3WXH-11 | 2026-08-31 11:58:46 | 54.44217 | 14.05194 | 41° | 35km/h | 18347m | 4.8m/s | -50.6°C | 1.4% | 75.5hPa | 2.8V | 00:00:00 | 00:00:00 | 00:00:00 | |
| DM0DOS-11 | 2026-08-31 11:58:45 | 54.44196 | 14.05162 | 44° | 35km/h | 18331m | 5.6m/s | -50.6°C | 3.9% | 75.7hPa | 2.8V | 08:30:00 | 01:08:15 | 00:00:00 | |
| AA1-15 | 2026-08-31 11:58:44 | 54.44203 | 14.05173 | 42° | 37km/h | 18336m | 4.6m/s | -50.6°C | 1.1% | 75.7hPa | 2.8V | 18:12:15 | 01:08:16 | 00:00:00 | |
| DL1XH1-15 | 2026-08-31 11:58:43 | 54.44186 | 14.05142 | 54° | 27km/h | 18321m | 4.3m/s | -50.7°C | 3.9% | 75.8hPa | 2.7V | 08:30:00 | 01:08:13 | 00:00:00 | |
| DL1XH-west | 2026-08-31 11:58:36 | 54.44165 | 14.05081 | 58° | 29km/h | 18291m | 4.7m/s | -50.5°C | 1% | 76.2hPa | 2.7V | 18:12:15 | 01:08:07 | 00:00:00 | |
| DL1XH-15 | 2026-08-31 11:58:36 | 54.44168 | 14.05091 | 58° | 26km/h | 18295m | 4m/s | -50.5°C | 3.9% | 76.1hPa | 2.7V | 08:30:00 | 01:08:08 | 00:00:00 | |
| AA1-15 | 2026-08-31 11:58:34 | 54.44161 | 14.05069 | 58° | 33km/h | 18286m | 5.3m/s | -50.5°C | 1.1% | 76.2hPa | 2.8V | 18:12:15 | 01:08:06 | 00:00:00 | |
| DM0DOS-11 | 2026-08-31 11:58:34 | 54.44156 | 14.05057 | 57° | 37km/h | 18281m | 4.1m/s | -50.5°C | 3.8% | 76.3hPa | 2.8V | 08:30:00 | 01:08:05 | 00:00:00 | |
| DL1XH1-15 | 2026-08-31 11:58:31 | 54.44146 | 14.05031 | 54° | 35km/h | 18272m | 4.7m/s | -50.4°C | 3.8% | 76.4hPa | 2.6V | 08:30:00 | 01:08:03 | 00:00:00 | |
| DO2SHX-10 | 2026-08-31 11:58:31 | 54.44151 | 14.05044 | 56° | 37km/h | 18277m | 5.0m/s | -50.4°C | 3.8% | 76.3hPa | 2.7V | 00:00:00 | 01:08:04 | 00:00:00 | |
| DO2SHX-10 | 2026-08-31 11:58:28 | 54.44136 | 14.05005 | 58° | 38km/h | 18262m | 5.3m/s | -50.7°C | 3.9% | 76.5hPa | 2.7V | 00:00:00 | 01:08:01 | 00:00:00 | |
| DM0DOS-11 | 2026-08-31 11:58:27 | 54.44104 | 14.04925 | 51° | 37km/h | 18233m | 5.3m/s | -51°C | 4.1% | 76.8hPa | 2.7V | 08:30:00 | 01:07:55 | 00:00:00 | |
| DL1XH-15 | 2026-08-31 11:58:26 | 54.44120 | 14.04963 | 57° | 37km/h | 18247m | 5.9m/s | -50.9°C | 4.1% | 76.7hPa | 2.8V | 08:30:00 | 01:07:58 | 00:00:00 | |
| DL1XH1-15 | 2026-08-31 11:58:26 | 54.44093 | 14.04900 | 52° | 37km/h | 18223m | 4.1m/s | -50.8°C | 4% | 77hPa | 2.8V | 08:30:00 | 01:07:53 | 00:00:00 | |
| AA1-15 | 2026-08-31 11:58:24 | 54.44115 | 14.04950 | 55° | 35km/h | 18241m | 4.7m/s | -50.9°C | 1.2% | 76.7hPa | 2.6V | 18:12:15 | 01:07:57 | 00:00:00 | |
| EDDB2-12 | 2026-08-31 11:58:23 | 54.44104 | 14.04925 | 51° | 35km/h | 18233m | 5.3m/s | -51.0°C | 1.5% | 76.8hPa | 2.8V | 00:00:00 | 00:00:00 | 00:00:00 | |
| DL1XH-west | 2026-08-31 11:58:23 | 54.44110 | 14.04938 | 52° | 35km/h | 18237m | 3.1m/s | -50.9°C | 1.2% | 76.8hPa | 2.7V | 18:12:15 | 01:07:56 | 00:00:00 | |
| DO2SHX-10 | 2026-08-31 11:58:22 | 54.44104 | 14.04925 | 52° | 37km/h | 18233m | 5.2m/s | -50.9°C | 4.1% | 76.8hPa | 2.8V | 00:00:00 | 01:07:55 | 00:00:00 | |
| S3001 | 2026-08-31 11:58:21 | 54.44099 | 14.04913 | 51° | 37km/h | 18228m | 5.1m/s | -50.9°C | 1.5% | 76.9hPa | 2.8V | 00:00:00 | 00:00:00 | 00:00:00 | |
| DO2SHX-10 | 2026-08-31 11:58:19 | 54.44087 | 14.04887 | 54° | 37km/h | 18219m | 5.3m/s | -50.7°C | 4.0% | 77.0hPa | 2.8V | 00:00:00 | 01:07:52 | 00:00:00 | |
| DL1XH-15 | 2026-08-31 11:58:16 | 54.44068 | 14.04833 | 61° | 38km/h | 18198m | 3.9m/s | -50.8°C | 4% | 77.2hPa | 2.8V | 08:30:00 | 01:07:48 | 00:00:00 | |
| DO2SHX-10 | 2026-08-31 11:58:16 | 54.44072 | 14.04847 | 61° | 38km/h | 18203m | 4.7m/s | -50.8°C | 4.0% | 77.2hPa | 2.7V | 00:00:00 | 01:07:49 | 00:00:00 | |
| DM0DOS-11 | 2026-08-31 11:58:15 | 54.44054 | 14.04792 | 55° | 37km/h | 18184m | 4.6m/s | -50.8°C | 4.1% | 77.4hPa | 2.6V | 08:30:00 | 01:07:45 | 00:00:00 | |
| DL1XH1-15 | 2026-08-31 11:58:15 | 54.44041 | 14.04764 | 49° | 42km/h | 18174m | 4.7m/s | -50.7°C | 4% | 77.6hPa | 2.7V | 08:30:00 | 01:07:43 | 00:00:00 | |
| SP3WXH-11 | 2026-08-31 11:58:14 | 54.44063 | 14.04819 | 60° | 37km/h | 18194m | 5.8m/s | -50.7°C | 1.5% | 77.3hPa | 2.7V | 00:00:00 | 00:00:00 | 00:00:00 | |
| DO2SHX-10 | 2026-08-31 11:58:13 | 54.44058 | 14.04805 | 59° | 38km/h | 18189m | 4.1m/s | -50.7°C | 4.1% | 77.3hPa | 2.7V | 00:00:00 | 01:07:46 | 00:00:00 | |
| DL1XH-west | 2026-08-31 11:58:13 | 54.44059 | 14.04805 | 58° | 37km/h | 18189m | 4.1m/s | -50.8°C | 1.2% | 77.4hPa | 2.7V | 18:12:15 | 01:07:46 | 00:00:00 | |
| AM1SDL-15 | 2026-08-31 11:58:11 | 54.44048 | 14.04778 | 53° | 40km/h | 18179m | 5.6m/s | -50.6°C | 4.0% | 77.5hPa | 2.7V | 00:00:00 | 01:07:44 | 00:00:00 | |
| DO2SHX-10 | 2026-08-31 11:58:10 | 54.44041 | 14.04764 | 50° | 42km/h | 18174m | 4.7m/s | -50.6°C | 4.0% | 77.5hPa | 2.7V | 00:00:00 | 01:07:43 | 00:00:00 | |
| EDDB2-11 | 2026-08-31 11:58:09 | 54.44034 | 14.04750 | 48° | 42km/h | 18169m | 4.6m/s | -50.7°C | 1.5% | 77.6hPa | 2.7V | 00:00:00 | 00:00:00 | 00:00:00 | |
| DO2SHX-10 | 2026-08-31 11:58:07 | 54.44020 | 14.04723 | 51° | 40km/h | 18160m | 4.5m/s | -50.5°C | 3.9% | 77.7hPa | 2.7V | 00:00:00 | 01:07:40 | 08:30:00 | |
| DM0DOS-11 | 2026-08-31 11:58:03 | 54.43992 | 14.04650 | 58° | 38km/h | 18135m | 5.3m/s | -50.5°C | 4% | 78hPa | 2.7V | 08:30:00 | 01:07:35 | 00:00:00 | |
| DL1XH-west | 2026-08-31 11:58:02 | 54.43986 | 14.04636 | 55° | 38km/h | 18130m | 3.9m/s | -50.4°C | 1.1% | 78.1hPa | 2.7V | 18:12:15 | 01:07:34 | 00:00:00 | |
| DL1XH1-15 | 2026-08-31 11:58:00 | 54.43981 | 14.04622 | 52° | 38km/h | 18126m | 4.4m/s | -50.4°C | 3.9% | 78.1hPa | 2.8V | 08:30:00 | 01:07:33 | 00:00:00 | |
| AM1SDL-15 | 2026-08-31 11:57:59 | 54.43974 | 14.04609 | 51° | 42km/h | 18122m | 5.0m/s | -50.4°C | 3.9% | 78.2hPa | 2.7V | 00:00:00 | 01:07:32 | 00:00:00 | |
| DO2SHX-10 | 2026-08-31 11:57:58 | 54.43967 | 14.04595 | 49° | 42km/h | 18117m | 4.0m/s | -50.3°C | 3.9% | 78.2hPa | 2.7V | 00:00:00 | 01:07:31 | 00:00:00 | |
| DM0DOS-11 | 2026-08-31 11:57:57 | 54.43922 | 14.04517 | 44° | 44km/h | 18087m | 3.9m/s | -50.2°C | 3.9% | 78.6hPa | 2.8V | 08:30:00 | 01:07:25 | 00:00:00 | |
| DL1XH1-15 | 2026-08-31 11:57:55 | 54.43906 | 14.04491 | 45° | 42km/h | 18077m | 4.7m/s | -50.2°C | 3.9% | 78.7hPa | 2.8V | 08:30:00 | 01:07:23 | 00:00:00 | |
| AA1-15 | 2026-08-31 11:57:52 | 54.43922 | 14.04517 | 45° | 44km/h | 18087m | 3.9m/s | -50.2°C | 1.1% | 78.6hPa | 2.8V | 18:12:15 | 01:07:25 | 00:00:00 | |
| DL1XH-west | 2026-08-31 11:57:51 | 54.43906 | 14.04491 | 46° | 42km/h | 18077m | 4.7m/s | -50.2°C | 1.1% | 78.7hPa | 2.8V | 18:12:15 | 01:07:23 | 00:00:00 | |
| S3001 | 2026-08-31 11:57:50 | 54.43906 | 14.04491 | 45° | 42km/h | 18077m | 4.7m/s | -50.2°C | 1.4% | 78.7hPa | 2.7V | 00:00:00 | 00:00:00 | 00:00:00 | |
| DO2SHX-10 | 2026-08-31 11:57:49 | 54.43899 | 14.04477 | 47° | 46km/h | 18073m | 4.3m/s | -50.1°C | 3.9% | 78.7hPa | 2.7V | 00:00:00 | 01:07:22 | 00:00:00 | |
| DM0DOS-11 | 2026-08-31 11:57:47 | 54.43844 | 14.04375 | 47° | 49km/h | 18038m | 4.2m/s | -50.1°C | 3.8% | 79.2hPa | 2.7V | 08:30:00 | 01:07:15 | 00:00:00 | |
| AA1-15 | 2026-08-31 11:57:42 | 54.43844 | 14.04375 | 48° | 49km/h | 18038m | 4.3m/s | -50.2°C | 1% | 79.2hPa | 2.7V | 18:12:15 | 01:07:15 | 00:00:00 | |
| DL1XH-west | 2026-08-31 11:57:40 | 54.43827 | 14.04343 | 49° | 49km/h | 18029m | 5.2m/s | -50.2°C | 1.1% | 79.3hPa | 2.8V | 18:12:15 | 01:07:13 | 00:00:00 | |
| DL1XH1-15 | 2026-08-31 11:57:40 | 54.43827 | 14.04343 | 49° | 47km/h | 18029m | 5.2m/s | -50.2°C | 3.9% | 79.3hPa | 2.8V | 08:30:00 | 01:07:13 | 00:00:00 | |
| DO2SHX-10 | 2026-08-31 11:57:40 | 54.43827 | 14.04343 | 50° | 49km/h | 18030m | 5.2m/s | -50.2°C | 3.9% | 79.2hPa | 2.7V | 00:00:00 | 01:07:13 | 08:30:00 | |
| EDDB2-11 | 2026-08-31 11:57:38 | 54.43811 | 14.04312 | 45° | 47km/h | 18020m | 5.3m/s | -50.2°C | 1.5% | 79.4hPa | 2.7V | 00:00:00 | 00:00:00 | 00:00:00 | |
| DO2SHX-10 | 2026-08-31 11:57:37 | 54.43802 | 14.04297 | 43° | 49km/h | 18016m | 4.5m/s | -50.1°C | 3.9% | 79.4hPa | 2.7V | 00:00:00 | 01:07:10 | 00:00:00 | |
| DL1XH1-15 | 2026-08-31 11:57:35 | 54.43736 | 14.04208 | 35° | 53km/h | 17983m | 4.4m/s | -50.1°C | 3.9% | 79.8hPa | 2.7V | 08:30:00 | 01:07:03 | 00:00:00 | |
| DM0DOS-11 | 2026-08-31 11:57:35 | 54.43755 | 14.04233 | 37° | 46km/h | 17993m | 4.5m/s | -50.2°C | 3.9% | 79.7hPa | 2.7V | 08:30:00 | 01:07:05 | 00:00:00 | |
| AA1-15 | 2026-08-31 11:57:32 | 54.43746 | 14.04220 | 36° | 49km/h | 17988m | 5.2m/s | -50.2°C | 1.1% | 79.8hPa | 2.6V | 18:12:15 | 01:07:04 | 00:00:00 | |
| DL1XH-west | 2026-08-31 11:57:31 | 54.43735 | 14.04208 | 35° | 53km/h | 17984m | 4.4m/s | -50.1°C | 1.1% | 79.9hPa | 2.7V | 18:12:15 | 01:07:03 | 00:00:00 | |
| DO2SHX-10 | 2026-08-31 11:57:28 | 54.43714 | 14.04180 | 39° | 55km/h | 17974m | 5.3m/s | -50.0°C | 3.9% | 80.0hPa | 2.7V | 00:00:00 | 01:07:01 | 00:00:00 | |
| DL1XH-15 | 2026-08-31 11:57:26 | 54.43681 | 14.04135 | 37° | 57km/h | 17958m | 4m/s | -50.1°C | 3.9% | 80.2hPa | 2.7V | 08:30:00 | 01:06:58 | 00:00:00 | |
| DO2SHX-10 | 2026-08-31 11:57:25 | 54.43681 | 14.04134 | 38° | 53km/h | 17959m | 3.9m/s | -50.0°C | 3.9% | 80.2hPa | 2.8V | 00:00:00 | 01:06:58 | 00:00:00 | |
| DM0DOS-11 | 2026-08-31 11:57:23 | 54.43652 | 14.04090 | 44° | 46km/h | 17944m | 4.1m/s | -49.9°C | 3.8% | 80.3hPa | 2.8V | 08:30:00 | 01:06:55 | 00:00:00 | |
| DL1XH1-15 | 2026-08-31 11:57:21 | 54.43636 | 14.04065 | 39° | 42km/h | 17935m | 5.1m/s | -49.9°C | 3.9% | 80.4hPa | 2.8V | 08:30:00 | 01:06:53 | 00:00:00 | |
| EDDB2-12 | 2026-08-31 11:57:21 | 54.43636 | 14.04065 | 39° | 42km/h | 17935m | 5.1m/s | -49.9°C | 1.4% | 80.4hPa | 2.7V | 00:00:00 | 00:00:00 | 00:00:00 | |
| DL1XH-15 | 2026-08-31 11:57:20 | 54.43587 | 14.04002 | 34° | 58km/h | 17909m | 4.7m/s | -49.8°C | 3.8% | 80.8hPa | 2.7V | 08:30:00 | 01:06:48 | 00:00:00 | |
| DL1XH-west | 2026-08-31 11:57:20 | 54.43636 | 14.04065 | 39° | 42km/h | 17935m | 5.1m/s | -49.9°C | 1.1% | 80.4hPa | 2.8V | 18:12:15 | 01:06:53 | 00:00:00 | |
| DO2SHX-10 | 2026-08-31 11:57:19 | 54.43627 | 14.04053 | 38° | 46km/h | 17930m | 4.2m/s | -49.8°C | 3.8% | 80.4hPa | 2.8V | 00:00:00 | 01:06:52 | 00:00:00 | |
| DO2SHX-10 | 2026-08-31 11:57:16 | 54.43599 | 14.04015 | 37° | 57km/h | 17915m | 6.0m/s | -49.8°C | 3.8% | 80.6hPa | 2.8V | 00:00:00 | 01:06:49 | 00:00:00 | |
| DL1XH1-15 | 2026-08-31 11:57:15 | 54.43516 | 14.03900 | 40° | 55km/h | 17880m | 3.7m/s | -49.6°C | 3.8% | 81.1hPa | 2.8V | 08:30:00 | 01:06:42 | 00:00:00 | |
| DL1XH-west | 2026-08-31 11:57:09 | 54.43516 | 14.03900 | 41° | 55km/h | 17880m | 3.7m/s | -49.6°C | 1% | 81.1hPa | 2.8V | 18:12:15 | 01:06:42 | 00:00:00 | |
| DL1XH-15 | 2026-08-31 11:57:06 | 54.43479 | 14.03843 | 38° | 46km/h | 17861m | 5.3m/s | -49.9°C | 3.9% | 81.4hPa | 2.8V | 08:30:00 | 01:06:38 | 00:00:00 | |
| DL1XH1-15 | 2026-08-31 11:57:04 | 54.43404 | 14.03745 | 38° | 60km/h | 17828m | 5.5m/s | -49.7°C | 3.8% | 81.8hPa | 2.8V | 08:30:00 | 01:06:31 | 00:00:00 | |
| DL1XH-west | 2026-08-31 11:56:59 | 54.43392 | 14.03729 | 42° | 60km/h | 17823m | 5.2m/s | -49.8°C | 1.1% | 81.8hPa | 2.8V | 18:12:15 | 01:06:30 | 00:00:00 | |
| DJ2DS-15 | 2026-08-31 11:56:59 | 54.43404 | 14.03745 | 38° | 58km/h | 17828m | 5.5m/s | -49.7°C | 1.4% | 81.8hPa | 2.7V | 00:00:00 | 00:00:00 | 00:00:00 | |
| DO2SHX-10 | 2026-08-31 11:56:58 | 54.43403 | 14.03745 | 39° | 58km/h | 17829m | 5.4m/s | -49.7°C | 3.8% | 81.7hPa | 2.7V | 00:00:00 | 01:06:31 | 00:00:00 | |
| AA1-15 | 2026-08-31 11:56:58 | 54.43404 | 14.03745 | 39° | 60km/h | 17828m | 5.5m/s | -49.7°C | 1% | 81.8hPa | 2.8V | 18:12:15 | 01:06:31 | 00:00:00 | |
| DL1XH-15 | 2026-08-31 11:56:56 | 54.43371 | 14.03694 | 43° | 55km/h | 17813m | 5.6m/s | -49.7°C | 3.8% | 81.9hPa | 2.7V | 08:30:00 | 01:06:28 | 00:00:00 | |
| DO2SHX-10 | 2026-08-31 11:56:55 | 54.43371 | 14.03694 | 44° | 53km/h | 17814m | 5.6m/s | -49.7°C | 3.8% | 81.9hPa | 2.7V | 00:00:00 | 01:06:28 | 00:00:00 | |
| DL1XH1-15 | 2026-08-31 11:56:53 | 54.43304 | 14.03589 | 37° | 51km/h | 17779m | 3.3m/s | -49.5°C | 3.8% | 82.4hPa | 2.7V | 08:30:00 | 01:06:21 | 00:00:00 | |
| DM0DOS-11 | 2026-08-31 11:56:53 | 54.43343 | 14.03648 | 44° | 51km/h | 17799m | 5.7m/s | -49.6°C | 3.8% | 82.1hPa | 2.8V | 08:30:00 | 01:06:25 | 00:00:00 | |
| DO2SHX-10 | 2026-08-31 11:56:52 | 54.43342 | 14.03648 | 45° | 51km/h | 17799m | 5.6m/s | -49.6°C | 3.8% | 82.1hPa | 2.8V | 00:00:00 | 01:06:25 | 00:00:00 | |
| DL1XH-15 | 2026-08-31 11:56:50 | 54.43272 | 14.03546 | 38° | 55km/h | 17764m | 5.2m/s | -49.5°C | 3.8% | 82.5hPa | 2.8V | 08:30:00 | 01:06:18 | 00:00:00 | |
| EDDB2-12 | 2026-08-31 11:56:50 | 54.43314 | 14.03603 | 39° | 51km/h | 17784m | 5.5m/s | -49.6°C | 1.4% | 82.3hPa | 2.7V | 00:00:00 | 00:00:00 | 00:00:00 | |
| S3001 | 2026-08-31 11:56:48 | 54.43304 | 14.03589 | 37° | 51km/h | 17780m | 3.3m/s | -49.5°C | 1.4% | 82.4hPa | 2.7V | 00:00:00 | 00:00:00 | 00:00:00 | |
| DM0DOS-11 | 2026-08-31 11:56:47 | 54.43240 | 14.03504 | 38° | 51km/h | 17750m | 5.4m/s | -49.5°C | 3.8% | 82.7hPa | 2.7V | 08:30:00 | 01:06:15 | 00:00:00 | |
| AA1-15 | 2026-08-31 11:56:47 | 54.43294 | 14.03575 | 39° | 53km/h | 17775m | 5.7m/s | -49.6°C | 1% | 82.4hPa | 2.8V | 18:12:15 | 01:06:20 | 00:00:00 | |
| DL1XH-west | 2026-08-31 11:56:46 | 54.43273 | 14.03546 | 39° | 55km/h | 17764m | 5.2m/s | -49.6°C | 1% | 82.5hPa | 2.8V | 18:12:15 | 01:06:18 | 00:00:00 | |
| DL1XH-west | 2026-08-31 11:56:37 | 54.43175 | 14.03416 | 39° | 47km/h | 17717m | 4.2m/s | -49.4°C | 1% | 83.2hPa | 2.8V | 18:12:15 | 01:06:08 | 00:00:00 | |
| AA1-15 | 2026-08-31 11:56:36 | 54.43184 | 14.03428 | 38° | 46km/h | 17722m | 5m/s | -49.4°C | 1.1% | 83.1hPa | 2.7V | 18:12:15 | 01:06:09 | 00:00:00 | |
| DL1XH-15 | 2026-08-31 11:56:36 | 54.43176 | 14.03416 | 38° | 47km/h | 17717m | 4.2m/s | -49.4°C | 3.8% | 83.2hPa | 2.8V | 08:30:00 | 01:06:08 | 00:00:00 | |
| DM0DOS-11 | 2026-08-31 11:56:35 | 54.43145 | 14.03378 | 34° | 51km/h | 17704m | 3.9m/s | -49.3°C | 3.7% | 83.4hPa | 2.7V | 08:30:00 | 01:06:05 | 00:00:00 | |
| AM1SDL-15 | 2026-08-31 11:56:35 | 54.43175 | 14.03416 | 39° | 49km/h | 17718m | 4.2m/s | -49.4°C | 3.8% | 83.1hPa | 2.8V | 00:00:00 | 01:06:08 | 00:00:00 | |
| DO2SHX-10 | 2026-08-31 11:56:34 | 54.43166 | 14.03403 | 38° | 49km/h | 17713m | 4.6m/s | -49.3°C | 3.8% | 83.2hPa | 2.8V | 00:00:00 | 01:06:07 | 00:00:00 | |
| DO2SHX-10 | 2026-08-31 11:56:31 | 54.43135 | 14.03365 | 37° | 53km/h | 17699m | 5.5m/s | -49.3°C | 3.7% | 83.4hPa | 2.8V | 00:00:00 | 01:06:04 | 00:00:00 | |
| DL1XH-15 | 2026-08-31 11:56:30 | 54.43072 | 14.03283 | 36° | 47km/h | 17671m | 5.8m/s | -49.4°C | 3.8% | 83.7hPa | 2.8V | 08:30:00 | 01:05:58 | 00:00:00 | |
| AA1-15 | 2026-08-31 11:56:25 | 54.43072 | 14.03283 | 37° | 47km/h | 17671m | 5.9m/s | -49.4°C | 1.1% | 83.8hPa | 2.8V | 18:12:15 | 01:05:58 | 00:00:00 | |
| DL1XH-west | 2026-08-31 11:56:25 | 54.43054 | 14.03259 | 35° | 46km/h | 17660m | 5.5m/s | -49.4°C | 1% | 83.9hPa | 2.7V | 18:12:15 | 01:05:56 | 00:00:00 | |
| DO2SHX-10 | 2026-08-31 11:56:25 | 54.43072 | 14.03283 | 37° | 46km/h | 17671m | 5.8m/s | -49.3°C | 3.8% | 83.7hPa | 2.8V | 00:00:00 | 01:05:58 | 00:00:00 | |
| DL1XH1-15 | 2026-08-31 11:56:23 | 54.43011 | 14.03203 | 39° | 42km/h | 17635m | 6m/s | -49.4°C | 3.8% | 84.2hPa | 2.8V | 08:30:00 | 01:05:51 | 00:00:00 | |
| DM0DOS-11 | 2026-08-31 11:56:23 | 54.43044 | 14.03248 | 34° | 44km/h | 17655m | 4.5m/s | -49.4°C | 3.8% | 84hPa | 2.8V | 08:30:00 | 01:05:55 | 00:00:00 | |
| DO2SHX-10 | 2026-08-31 11:56:22 | 54.43044 | 14.03248 | 35° | 42km/h | 17656m | 4.4m/s | -49.3°C | 3.8% | 83.9hPa | 2.8V | 00:00:00 | 01:05:55 | 00:00:00 | |
| EDDB2-12 | 2026-08-31 11:56:19 | 54.43011 | 14.03203 | 39° | 42km/h | 17635m | 6.0m/s | -49.4°C | 1.4% | 84.2hPa | 2.8V | 00:00:00 | 00:00:00 | 00:00:00 | |
| DM0DOS-11 | 2026-08-31 11:56:17 | 54.42961 | 14.03129 | 34° | 44km/h | 17606m | 4.3m/s | -49.3°C | 3.8% | 84.6hPa | 2.8V | 08:30:00 | 01:05:45 | 00:00:00 | |
| DL1XH-15 | 2026-08-31 11:56:16 | 54.42987 | 14.03166 | 43° | 44km/h | 17620m | 5.2m/s | -49.4°C | 3.8% | 84.4hPa | 2.7V | 08:30:00 | 01:05:48 | 00:00:00 | |
| AA1-15 | 2026-08-31 11:56:14 | 54.42979 | 14.03153 | 43° | 46km/h | 17616m | 4.4m/s | -49.3°C | 1.1% | 84.5hPa | 2.7V | 18:12:15 | 01:05:47 | 00:00:00 | |
| DL1XH-west | 2026-08-31 11:56:13 | 54.42970 | 14.03140 | 39° | 44km/h | 17611m | 5.5m/s | -49.3°C | 1% | 84.5hPa | 2.7V | 18:12:15 | 01:05:46 | 00:00:00 | |
| DO2SHX-10 | 2026-08-31 11:56:13 | 54.42970 | 14.03140 | 39° | 44km/h | 17611m | 5.5m/s | -49.2°C | 3.8% | 84.4hPa | 2.7V | 00:00:00 | 01:05:46 | 00:00:00 | |
| AM1SDL-15 | 2026-08-31 11:56:11 | 54.42952 | 14.03118 | 34° | 44km/h | 17602m | 4.3m/s | -49.2°C | 3.7% | 84.6hPa | 2.7V | 00:00:00 | 01:05:44 | 00:00:00 | |
| DO2SHX-10 | 2026-08-31 11:56:10 | 54.42943 | 14.03108 | 36° | 40km/h | 17597m | 5.4m/s | -49.1°C | 3.8% | 84.7hPa | 2.7V | 00:00:00 | 01:05:43 | 00:00:00 | |
| DL1XH-15 | 2026-08-31 11:56:06 | 54.42900 | 14.03058 | 38° | 42km/h | 17573m | 5.9m/s | -49°C | 3.7% | 85hPa | 2.8V | 08:30:00 | 01:05:38 | 00:00:00 | |
| DM0DOS-11 | 2026-08-31 11:56:05 | 54.42874 | 14.03018 | 39° | 51km/h | 17558m | 6.2m/s | -48.9°C | 3.6% | 85.2hPa | 2.7V | 08:30:00 | 01:05:35 | 00:00:00 | |
| AA1-15 | 2026-08-31 11:56:04 | 54.42892 | 14.03046 | 41° | 46km/h | 17567m | 4.7m/s | -48.9°C | 1% | 85.1hPa | 2.8V | 18:12:15 | 01:05:37 | 00:00:00 | |
| DO2SHX-10 | 2026-08-31 11:56:04 | 54.42892 | 14.03046 | 41° | 47km/h | 17568m | 4.6m/s | -48.9°C | 3.7% | 85.1hPa | 2.8V | 00:00:00 | 01:05:37 | 00:00:00 | |
| DL1XH1-15 | 2026-08-31 11:56:03 | 54.42833 | 14.02963 | 37° | 51km/h | 17538m | 4.6m/s | -48.8°C | 3.6% | 85.4hPa | 2.8V | 08:30:00 | 01:05:31 | 00:00:00 | |
| DL1XH-west | 2026-08-31 11:56:02 | 54.42874 | 14.03018 | 40° | 51km/h | 17558m | 6.2m/s | -48.9°C | 0.9% | 85.2hPa | 2.7V | 18:12:15 | 01:05:35 | 00:00:00 | |
| AM1SDL-15 | 2026-08-31 11:55:59 | 54.42843 | 14.02977 | 40° | 49km/h | 17543m | 5.0m/s | -48.8°C | 3.6% | 85.4hPa | 2.8V | 00:00:00 | 01:05:32 | 00:00:00 | |
| DO2SHX-10 | 2026-08-31 11:55:58 | 54.42833 | 14.02963 | 38° | 49km/h | 17538m | 4.6m/s | -48.8°C | 3.6% | 85.4hPa | 2.8V | 00:00:00 | 01:05:31 | 00:00:00 | |
| DO2SHX-10 | 2026-08-31 11:55:56 | 54.42803 | 14.02928 | 31° | 46km/h | 17523m | 4.0m/s | -48.7°C | 3.6% | 85.6hPa | 2.8V | 00:00:00 | 01:05:28 | 00:00:00 | |
| DM0DOS-11 | 2026-08-31 11:55:53 | 54.42775 | 14.02895 | 37° | 46km/h | 17509m | 4.8m/s | -48.8°C | 3.6% | 85.9hPa | 2.8V | 08:30:00 | 01:05:25 | 00:00:00 | |
| DL1XH1-15 | 2026-08-31 11:55:53 | 54.42735 | 14.02839 | 42° | 55km/h | 17488m | 4.7m/s | -48.8°C | 3.6% | 86.1hPa | 2.8V | 08:30:00 | 01:05:21 | 00:00:00 | |
| AA1-15 | 2026-08-31 11:55:53 | 54.42784 | 14.02907 | 37° | 44km/h | 17514m | 4.6m/s | -48.8°C | 0.9% | 85.8hPa | 2.8V | 18:12:15 | 01:05:26 | 00:00:00 | |
| DL1XH-west | 2026-08-31 11:55:52 | 54.42765 | 14.02882 | 38° | 49km/h | 17504m | 5.1m/s | -48.8°C | 0.9% | 85.9hPa | 2.7V | 18:12:15 | 01:05:24 | 00:00:00 | |
| EDDB2-12 | 2026-08-31 11:55:48 | 54.42724 | 14.02823 | 40° | 55km/h | 17484m | 4.2m/s | -48.8°C | 1.3% | 86.2hPa | 2.7V | 00:00:00 | 00:00:00 | 00:00:00 | |
| DM0DOS-11 | 2026-08-31 11:55:47 | 54.42669 | 14.02754 | 37° | 51km/h | 17460m | 5.1m/s | -49.3°C | 3.7% | 86.5hPa | 2.7V | 08:30:00 | 01:05:15 | 00:00:00 | |
| DL1XH-15 | 2026-08-31 11:55:46 | 54.42702 | 14.02793 | 34° | 57km/h | 17474m | 3.9m/s | -48.9°C | 3.6% | 86.3hPa | 2.8V | 08:30:00 | 01:05:18 | 00:00:00 | |
| AA1-15 | 2026-08-31 11:55:42 | 54.42669 | 14.02754 | 37° | 51km/h | 17460m | 5.1m/s | -49.3°C | 1% | 86.5hPa | 2.7V | 18:12:15 | 01:05:15 | 00:00:00 | |
| DL1XH-west | 2026-08-31 11:55:40 | 54.42648 | 14.02728 | 36° | 51km/h | 17450m | 5.9m/s | -49.5°C | 1% | 86.6hPa | 2.8V | 18:12:15 | 01:05:13 | 00:00:00 | |
| DL1XH1-15 | 2026-08-31 11:55:38 | 54.42628 | 14.02702 | 36° | 49km/h | 17440m | 5.5m/s | -49.5°C | 3.7% | 86.7hPa | 2.7V | 08:30:00 | 01:05:11 | 00:00:00 | |
| DO2SHX-10 | 2026-08-31 11:55:37 | 54.42618 | 14.02690 | 40° | 46km/h | 17435m | 5.0m/s | -49.4°C | 3.7% | 86.8hPa | 2.7V | 00:00:00 | 01:05:10 | 00:00:00 | |
| DM0DOS-11 | 2026-08-31 11:55:33 | 54.42571 | 14.02627 | 38° | 47km/h | 17411m | 5.9m/s | -49.7°C | 3.8% | 87.2hPa | 2.7V | 08:30:00 | 01:05:05 | 00:00:00 | |
| AA1-15 | 2026-08-31 11:55:31 | 54.42562 | 14.02614 | 40° | 49km/h | 17406m | 4.4m/s | -49.7°C | 1% | 87.2hPa | 2.8V | 18:12:15 | 01:05:04 | 00:00:00 | |
| DO2SHX-10 | 2026-08-31 11:55:31 | 54.42562 | 14.02614 | 41° | 51km/h | 17406m | 4.4m/s | -49.6°C | 3.8% | 87.1hPa | 2.8V | 00:00:00 | 01:05:04 | 00:00:00 | |
| DL1XH-15 | 2026-08-31 11:55:30 | 54.42491 | 14.02502 | 40° | 57km/h | 17373m | 5.3m/s | -49.8°C | 3.8% | 87.6hPa | 2.8V | 08:30:00 | 01:04:57 | 00:00:00 | |
| DL1XH-west | 2026-08-31 11:55:29 | 54.42542 | 14.02585 | 41° | 55km/h | 17396m | 4.7m/s | -49.6°C | 1% | 87.3hPa | 2.8V | 18:12:15 | 01:05:02 | 00:00:00 | |
| DL1XH1-15 | 2026-08-31 11:55:28 | 54.42532 | 14.02569 | 42° | 55km/h | 17392m | 3.9m/s | -49.7°C | 3.8% | 87.4hPa | 2.7V | 08:30:00 | 01:05:01 | 00:00:00 | |
| DO2SHX-10 | 2026-08-31 11:55:28 | 54.42532 | 14.02569 | 43° | 57km/h | 17392m | 3.8m/s | -49.7°C | 3.8% | 87.3hPa | 2.7V | 00:00:00 | 01:05:01 | 00:00:00 | |
| DM0DOS-11 | 2026-08-31 11:55:27 | 54.42468 | 14.02472 | 34° | 58km/h | 17363m | 5m/s | -49.9°C | 3.9% | 87.8hPa | 2.7V | 08:30:00 | 01:04:55 | 00:00:00 | |
| DO2SHX-10 | 2026-08-31 11:55:25 | 54.42501 | 14.02518 | 45° | 57km/h | 17378m | 4.2m/s | -49.7°C | 3.8% | 87.5hPa | 2.7V | 00:00:00 | 01:04:58 | 08:30:00 | |
| DL1XH1-15 | 2026-08-31 11:55:23 | 54.42416 | 14.02417 | 27° | 62km/h | 17343m | 6m/s | -49.9°C | 3.8% | 88hPa | 2.8V | 08:30:00 | 01:04:51 | 00:00:00 | |
| AA1-15 | 2026-08-31 11:55:20 | 54.42443 | 14.02443 | 32° | 60km/h | 17353m | 4.4m/s | -49.7°C | 1% | 87.9hPa | 2.7V | 18:12:15 | 01:04:53 | 00:00:00 | |
| DL1XH-west | 2026-08-31 11:55:18 | 54.42417 | 14.02417 | 27° | 62km/h | 17343m | 6m/s | -49.9°C | 1% | 88hPa | 2.8V | 18:12:15 | 01:04:51 | 00:00:00 | |
| DL1XH-15 | 2026-08-31 11:55:16 | 54.42376 | 14.02382 | 29° | 55km/h | 17328m | 5.3m/s | -50.1°C | 3.8% | 88.2hPa | 2.7V | 08:30:00 | 01:04:48 | 00:00:00 | |
| DO2SHX-10 | 2026-08-31 11:55:16 | 54.42389 | 14.02393 | 28° | 55km/h | 17334m | 5.1m/s | -49.9°C | 3.8% | 88.1hPa | 2.7V | 00:00:00 | 01:04:49 | 00:00:00 | |
| S3001 | 2026-08-31 11:55:15 | 54.42376 | 14.02382 | 29° | 55km/h | 17328m | 5.3m/s | -50.2°C | 1.4% | 88.2hPa | 2.8V | 00:00:00 | 00:00:00 | 00:00:00 | |
| DL1XH1-15 | 2026-08-31 11:55:13 | 54.42298 | 14.02302 | 26° | 58km/h | 17295m | 4.8m/s | -49.9°C | 4% | 88.7hPa | 2.8V | 08:30:00 | 01:04:41 | 00:00:00 | |
| AA1-15 | 2026-08-31 11:55:09 | 54.42310 | 14.02313 | 30° | 55km/h | 17299m | 3.6m/s | -49.8°C | 1.1% | 88.7hPa | 2.7V | 18:12:15 | 01:04:42 | 00:00:00 | |
| DL1XH-west | 2026-08-31 11:55:08 | 54.42298 | 14.02302 | 27° | 58km/h | 17295m | 4.8m/s | -49.9°C | 1.2% | 88.7hPa | 2.8V | 18:12:15 | 01:04:41 | 00:00:00 | |
| DL1XH-15 | 2026-08-31 11:55:06 | 54.42252 | 14.02271 | 17° | 69km/h | 17280m | 5.4m/s | -49.8°C | 4% | 88.9hPa | 2.7V | 08:30:00 | 01:04:38 | 00:00:00 | |
| DO2SHX-10 | 2026-08-31 11:55:04 | 54.42236 | 14.02262 | 19° | 66km/h | 17275m | 4.8m/s | -49.7°C | 4.0% | 88.9hPa | 2.8V | 00:00:00 | 01:04:37 | 00:00:00 | |
| EDDB2-11 | 2026-08-31 11:55:03 | 54.42205 | 14.02243 | 20° | 62km/h | 17266m | 4.6m/s | -49.8°C | 1.5% | 89.1hPa | 2.8V | 00:00:00 | 00:00:00 | 00:00:00 | |
| DO2SHX-10 | 2026-08-31 11:55:01 | 54.42191 | 14.02234 | 20° | 55km/h | 17261m | 6.2m/s | -49.7°C | 4.0% | 89.1hPa | 2.8V | 00:00:00 | 01:04:34 | 00:00:00 | |
| DL1XH1-15 | 2026-08-31 11:54:59 | 54.42152 | 14.02217 | 10° | 47km/h | 17241m | 5m/s | -49.7°C | 3.9% | 89.4hPa | 2.8V | 08:30:00 | 01:04:31 | 00:00:00 | |
| AA1-15 | 2026-08-31 11:54:58 | 54.42153 | 14.02217 | 10° | 47km/h | 17241m | 5m/s | -49.7°C | 1.1% | 89.5hPa | 2.8V | 18:12:15 | 01:04:31 | 00:00:00 | |
| DL1XH-west | 2026-08-31 11:54:57 | 54.42141 | 14.02213 | 10° | 47km/h | 17236m | 6.6m/s | -49.7°C | 1.1% | 89.5hPa | 2.7V | 18:12:15 | 01:04:30 | 00:00:00 | |
| DL1XH-15 | 2026-08-31 11:54:56 | 54.42117 | 14.02205 | 13° | 49km/h | 17224m | 4.7m/s | -49.5°C | 3.8% | 89.7hPa | 2.7V | 08:30:00 | 01:04:28 | 00:00:00 | |
| DL1XH1-15 | 2026-08-31 11:54:54 | 54.42032 | 14.02152 | 25° | 53km/h | 17187m | 5.6m/s | -49.2°C | 3.8% | 90.2hPa | 2.8V | 08:30:00 | 01:04:21 | 00:00:00 | |
| DM0DOS-11 | 2026-08-31 11:54:53 | 54.42080 | 14.02189 | 17° | 49km/h | 17208m | 4.4m/s | -49.4°C | 3.8% | 89.9hPa | 2.8V | 08:30:00 | 01:04:25 | 00:00:00 | |
| DO2SHX-10 | 2026-08-31 11:54:52 | 54.42080 | 14.02189 | 18° | 51km/h | 17208m | 4.4m/s | -49.4°C | 3.8% | 89.8hPa | 2.7V | 00:00:00 | 01:04:25 | 00:00:00 | |
| DO2SHX-10 | 2026-08-31 11:54:49 | 54.42044 | 14.02162 | 27° | 53km/h | 17193m | 3.8m/s | -49.2°C | 3.8% | 90.1hPa | 2.7V | 00:00:00 | 01:04:22 | 00:00:00 | |
| DM0DOS-11 | 2026-08-31 11:54:48 | 54.41967 | 14.02112 | 12° | 40km/h | 17154m | 5.8m/s | -49°C | 3.8% | 90.6hPa | 2.8V | 08:30:00 | 01:04:15 | 00:00:00 | |
| AA1-15 | 2026-08-31 11:54:47 | 54.42020 | 14.02143 | 22° | 51km/h | 17182m | 4.8m/s | -49.1°C | 1.1% | 90.2hPa | 2.8V | 18:12:15 | 01:04:20 | 00:00:00 | |
| DL1XH-15 | 2026-08-31 11:54:46 | 54.41998 | 14.02129 | 19° | 46km/h | 17172m | 6.7m/s | -49.1°C | 3.8% | 90.4hPa | 2.7V | 08:30:00 | 01:04:18 | 00:00:00 | |
| DL1XH-west | 2026-08-31 11:54:46 | 54.42009 | 14.02135 | 19° | 47km/h | 17178m | 4.8m/s | -49.1°C | 1% | 90.3hPa | 2.8V | 18:12:15 | 01:04:19 | 00:00:00 | |
| SONDE2-11 | 2026-08-31 11:54:46 | 54.41998 | 14.02129 | 19° | 46km/h | 17172m | 6.7m/s | -49.1°C | 1.5% | 90.4hPa | 2.7V | 00:00:00 | 00:00:00 | 00:00:00 | |
| EDDB2-12 | 2026-08-31 11:54:45 | 54.41998 | 14.02129 | 19° | 46km/h | 17172m | 6.7m/s | -49.1°C | 1.5% | 90.4hPa | 2.7V | 00:00:00 | 00:00:00 | 00:00:00 | |
| S3001 | 2026-08-31 11:54:44 | 54.41987 | 14.02122 | 19° | 42km/h | 17165m | 6.3m/s | -49.1°C | 1.4% | 90.5hPa | 2.7V | 00:00:00 | 00:00:00 | 00:00:00 | |
| DO2SHX-10 | 2026-08-31 11:54:43 | 54.41977 | 14.02117 | 17° | 42km/h | 17160m | 5.3m/s | -48.9°C | 3.8% | 90.5hPa | 2.7V | 00:00:00 | 01:04:16 | 00:00:00 | |
| DL1XH1-15 | 2026-08-31 11:54:38 | 54.41926 | 14.02098 | 19° | 40km/h | 17135m | 5.6m/s | -48.8°C | 3.7% | 90.9hPa | 2.7V | 08:30:00 | 01:04:11 | 00:00:00 | |
| DL1XH-15 | 2026-08-31 11:54:38 | 54.41899 | 14.02075 | 28° | 38km/h | 17118m | 5.9m/s | -48.7°C | 3.8% | 91.1hPa | 2.8V | 08:30:00 | 01:04:08 | 00:00:00 | |
| DM0DOS-11 | 2026-08-31 11:54:37 | 54.41874 | 14.02052 | 28° | 38km/h | 17103m | 5.8m/s | -48.6°C | 3.8% | 91.3hPa | 2.7V | 08:30:00 | 01:04:05 | 00:00:00 | |
| AA1-15 | 2026-08-31 11:54:36 | 54.41908 | 14.02083 | 29° | 38km/h | 17125m | 5.7m/s | -48.8°C | 1% | 91.1hPa | 2.8V | 18:12:15 | 01:04:09 | 00:00:00 | |
| DO2SHX-10 | 2026-08-31 11:54:34 | 54.41891 | 14.02068 | 28° | 38km/h | 17114m | 4.3m/s | -48.6°C | 3.7% | 91.2hPa | 2.7V | 00:00:00 | 01:04:07 | 00:00:00 | |
| EDDB2-11 | 2026-08-31 11:54:32 | 54.41865 | 14.02044 | 25° | 38km/h | 17098m | 4.3m/s | -48.4°C | 1.4% | 91.4hPa | 2.7V | 00:00:00 | 00:00:00 | 00:00:00 | |
| DO2SHX-10 | 2026-08-31 11:54:31 | 54.41865 | 14.02044 | 26° | 38km/h | 17098m | 4.2m/s | -48.4°C | 3.7% | 91.4hPa | 2.7V | 00:00:00 | 01:04:04 | 08:30:00 | |
| DL1XH1-15 | 2026-08-31 11:54:28 | 54.41837 | 14.02030 | 8° | 37km/h | 17081m | 4.6m/s | -48.4°C | 3.7% | 91.6hPa | 2.7V | 08:30:00 | 01:04:01 | 00:00:00 | |
| DM0DOS-11 | 2026-08-31 11:54:27 | 54.41790 | 14.02018 | 12° | 29km/h | 17048m | 4.8m/s | -48.1°C | 3.7% | 92.1hPa | 2.8V | 08:30:00 | 01:03:55 | 00:00:00 | |
| DL1XH-15 | 2026-08-31 11:54:26 | 54.41812 | 14.02024 | 9° | 31km/h | 17066m | 3.5m/s | -48.2°C | 3.7% | 91.9hPa | 2.7V | 08:30:00 | 01:03:58 | 00:00:00 | |
| AA1-15 | 2026-08-31 11:54:25 | 54.41812 | 14.02024 | 10° | 31km/h | 17066m | 3.5m/s | -48.2°C | 0.9% | 91.9hPa | 2.7V | 18:12:15 | 01:03:58 | 00:00:00 | |
| DO2SHX-10 | 2026-08-31 11:54:24 | 54.41804 | 14.02022 | 10° | 29km/h | 17061m | 6.2m/s | -48.2°C | 3.7% | 91.9hPa | 2.7V | 00:00:00 | 01:03:57 | 00:00:00 | |
| DO2SHX-10 | 2026-08-31 11:54:21 | 54.41782 | 14.02014 | 18° | 37km/h | 17043m | 5.4m/s | -47.9°C | 3.6% | 92.1hPa | 2.7V | 00:00:00 | 01:03:54 | 00:00:00 | |
| DL1XH-15 | 2026-08-31 11:54:18 | 54.41731 | 14.01973 | 19° | 29km/h | 17012m | 3.9m/s | -47.8°C | 3.6% | 92.6hPa | 2.8V | 08:30:00 | 01:03:48 | 00:00:00 | |
| DO2SHX-10 | 2026-08-31 11:54:18 | 54.41756 | 14.01992 | 29° | 38km/h | 17028m | 5.4m/s | -47.8°C | 3.6% | 92.3hPa | 2.7V | 00:00:00 | 01:03:51 | 00:00:00 | |
| DM0DOS-11 | 2026-08-31 11:54:17 | 54.41711 | 14.01962 | 14° | 27km/h | 16995m | 4.3m/s | -47.8°C | 3.6% | 92.9hPa | 2.7V | 08:30:00 | 01:03:45 | 00:00:00 | |
| DL1XH-west | 2026-08-31 11:54:14 | 54.41724 | 14.01969 | 19° | 29km/h | 17007m | 6.6m/s | -47.8°C | 0.9% | 92.7hPa | 2.7V | 18:12:15 | 01:03:47 | 00:00:00 | |
| AA1-15 | 2026-08-31 11:54:14 | 54.41711 | 14.01962 | 15° | 27km/h | 16995m | 4.3m/s | -47.8°C | 0.9% | 92.9hPa | 2.7V | 18:12:15 | 01:03:45 | 00:00:00 | |
| S3001 | 2026-08-31 11:54:13 | 54.41711 | 14.01962 | 14° | 26km/h | 16995m | 4.3m/s | -47.8°C | 1.4% | 92.9hPa | 2.7V | 00:00:00 | 00:00:00 | 00:00:00 | |
| DO2SHX-10 | 2026-08-31 11:54:12 | 54.41711 | 14.01962 | 15° | 27km/h | 16995m | 4.2m/s | -47.8°C | 3.6% | 92.8hPa | 2.7V | 00:00:00 | 01:03:45 | 00:00:00 | |
| DO2SHX-10 | 2026-08-31 11:54:09 | 54.41691 | 14.01957 | 3° | 24km/h | 16979m | 4.6m/s | -47.7°C | 3.6% | 93.0hPa | 2.8V | 00:00:00 | 01:03:42 | 00:00:00 | |
| DL1XH-15 | 2026-08-31 11:54:07 | 54.41668 | 14.01946 | 28° | 26km/h | 16958m | 6.6m/s | -47.7°C | 3.5% | 93.4hPa | 2.8V | 08:30:00 | 01:03:38 | 00:00:00 | |
| DL1XH-west | 2026-08-31 11:54:03 | 54.41656 | 14.01935 | 26° | 27km/h | 16947m | 4.3m/s | -47.6°C | 0.8% | 93.5hPa | 2.8V | 18:12:15 | 01:03:36 | 00:00:00 | |
| AA1-15 | 2026-08-31 11:54:02 | 54.41650 | 14.01930 | 29° | 26km/h | 16943m | 4.5m/s | -47.7°C | 0.9% | 93.6hPa | 2.7V | 18:12:15 | 01:03:35 | 00:00:00 | |
| SP3BTT-10 | 2026-08-31 11:54:02 | 54.41650 | 14.01930 | 29° | 24km/h | 16943m | 4.4m/s | -47.7°C | 3.5% | 93.5hPa | 2.7V | 00:00:00 | 00:00:00 | 00:00:00 | |
| DM0DOS-11 | 2026-08-31 11:54:01 | 54.41631 | 14.01913 | 12° | 18km/h | 16922m | 5.7m/s | -47.7°C | 3.5% | 93.9hPa | 2.8V | 08:30:00 | 01:03:31 | 00:00:00 | |
| EDDB2-11 | 2026-08-31 11:54:01 | 54.41640 | 14.01920 | 30° | 20km/h | 16933m | 5.0m/s | -47.6°C | 1.3% | 93.7hPa | 2.7V | 00:00:00 | 00:00:00 | 00:00:00 | |
| DJ2DS-15 | 2026-08-31 11:53:58 | 54.41631 | 14.01913 | 12° | 18km/h | 16922m | 5.7m/s | -47.7°C | 1.4% | 93.9hPa | 2.7V | 00:00:00 | 00:00:00 | 00:00:00 | |
| DL1XH1-15 | 2026-08-31 11:53:58 | 54.41626 | 14.01912 | 3° | 20km/h | 16917m | 4.9m/s | -47.8°C | 3.5% | 93.9hPa | 2.8V | 08:30:00 | 01:03:30 | 00:00:00 | |
| DL1XH-15 | 2026-08-31 11:53:56 | 54.41616 | 14.01913 | 353° | 18km/h | 16907m | 6.4m/s | -47.9°C | 3.5% | 94.1hPa | 2.7V | 08:30:00 | 01:03:28 | 00:00:00 | |
| DL1XH-west | 2026-08-31 11:53:53 | 54.41604 | 14.01916 | 351° | 18km/h | 16890m | 6m/s | -47.9°C | 0.9% | 94.3hPa | 2.7V | 18:12:15 | 01:03:25 | 00:00:00 | |
| AA1-15 | 2026-08-31 11:53:52 | 54.41599 | 14.01917 | 352° | 18km/h | 16886m | 4.4m/s | -47.9°C | 0.9% | 94.4hPa | 2.7V | 18:12:15 | 01:03:24 | 00:00:00 | |
| DM0DOS-11 | 2026-08-31 11:53:51 | 54.41587 | 14.01919 | 1° | 15km/h | 16870m | 4.9m/s | -47.8°C | 3.5% | 94.6hPa | 2.7V | 08:30:00 | 01:03:21 | 00:00:00 | |
| DO2SHX-10 | 2026-08-31 11:53:51 | 54.41599 | 14.01917 | 352° | 16km/h | 16886m | 4.3m/s | -47.8°C | 3.6% | 94.4hPa | 2.7V | 00:00:00 | 01:03:24 | 00:00:00 | |
| DL1XH1-15 | 2026-08-31 11:53:48 | 54.41583 | 14.01919 | 5° | 16km/h | 16865m | 5.5m/s | -47.9°C | 3.6% | 94.7hPa | 2.7V | 08:30:00 | 01:03:20 | 00:00:00 | |
| DL1XH-west | 2026-08-31 11:53:41 | 54.41562 | 14.01913 | 20° | 13km/h | 16835m | 4.9m/s | -47.7°C | 0.9% | 95.2hPa | 2.7V | 18:12:15 | 01:03:14 | 00:00:00 | |
| DM0DOS-11 | 2026-08-31 11:53:41 | 54.41555 | 14.01904 | 44° | 13km/h | 16821m | 3.3m/s | -47.6°C | 3.5% | 95.3hPa | 2.8V | 08:30:00 | 01:03:11 | 00:00:00 | |
| AA1-15 | 2026-08-31 11:53:40 | 54.41557 | 14.01908 | 39° | 11km/h | 16825m | 5.5m/s | -47.6°C | 0.9% | 95.2hPa | 2.8V | 18:12:15 | 01:03:12 | 00:00:00 | |
| DF8AY | 2026-08-31 11:53:38 | 54.41555 | 14.01904 | 45° | 13km/h | 16821m | 3.3m/s | -47.6°C | 0.8% | 95.3hPa | 2.8V | 18:12:15 | 01:03:11 | 00:00:00 | |
| DL1XH1-15 | 2026-08-31 11:53:38 | 54.41552 | 14.01900 | 42° | 15km/h | 16816m | 5.8m/s | -47.6°C | 3.5% | 95.4hPa | 2.7V | 08:30:00 | 01:03:10 | 00:00:00 | |
| DL1XH-15 | 2026-08-31 11:53:36 | 54.41545 | 14.01891 | 35° | 18km/h | 16806m | 4.7m/s | -47.6°C | 3.5% | 95.5hPa | 2.7V | 08:30:00 | 01:03:08 | 00:00:00 | |
| DO2SHX-10 | 2026-08-31 11:53:36 | 54.41549 | 14.01895 | 39° | 18km/h | 16811m | 4.7m/s | -47.5°C | 3.5% | 95.4hPa | 2.7V | 00:00:00 | 01:03:09 | 08:30:00 | |
| SP3WXH-11 | 2026-08-31 11:53:35 | 54.41545 | 14.01891 | 35° | 16km/h | 16806m | 4.7m/s | -47.6°C | 1.4% | 95.5hPa | 2.8V | 00:00:00 | 00:00:00 | 00:00:00 | |
| DO2SHX-10 | 2026-08-31 11:53:33 | 54.41538 | 14.01882 | 35° | 13km/h | 16796m | 4.2m/s | -47.5°C | 3.5% | 95.7hPa | 2.8V | 00:00:00 | 01:03:06 | 00:00:00 | |
| DL1XH1-15 | 2026-08-31 11:53:32 | 54.41525 | 14.01865 | 67° | 13km/h | 16766m | 4.7m/s | -47.4°C | 3.5% | 96.1hPa | 2.8V | 08:30:00 | 01:03:00 | 00:00:00 | |
| DM0DOS-11 | 2026-08-31 11:53:31 | 54.41526 | 14.01869 | 63° | 11km/h | 16771m | 4.4m/s | -47.4°C | 3.5% | 96hPa | 2.8V | 08:30:00 | 01:03:01 | 00:00:00 | |
| DL1XH-15 | 2026-08-31 11:53:30 | 54.41521 | 14.01854 | 58° | 18km/h | 16755m | 4.7m/s | -47.2°C | 3.4% | 96.3hPa | 2.7V | 08:30:00 | 01:02:58 | 00:00:00 | |
| DL1XH-west | 2026-08-31 11:53:30 | 54.41529 | 14.01875 | 25° | 11km/h | 16781m | 4.3m/s | -47.5°C | 0.8% | 95.9hPa | 2.7V | 18:12:15 | 01:03:03 | 00:00:00 | |
| AA1-15 | 2026-08-31 11:53:28 | 54.41526 | 14.01869 | 64° | 11km/h | 16771m | 4.4m/s | -47.4°C | 0.8% | 96hPa | 2.8V | 18:12:15 | 01:03:01 | 00:00:00 | |
| DF8AY | 2026-08-31 11:53:27 | 54.41521 | 14.01854 | 59° | 18km/h | 16755m | 4.7m/s | -47.2°C | 0.8% | 96.3hPa | 2.7V | 18:12:15 | 01:02:58 | 00:00:00 | |
| DO2SHX-10 | 2026-08-31 11:53:24 | 54.41519 | 14.01847 | 61° | 22km/h | 16751m | 4.5m/s | -47.2°C | 3.4% | 96.3hPa | 2.8V | 00:00:00 | 01:02:57 | 00:00:00 | |
| DL1XH1-15 | 2026-08-31 11:53:22 | 54.41502 | 14.01791 | 58° | 16km/h | 16718m | 5.9m/s | -47.1°C | 3.3% | 96.8hPa | 2.8V | 08:30:00 | 01:02:50 | 00:00:00 | |
| DM0DOS-11 | 2026-08-31 11:53:21 | 54.41504 | 14.01798 | 54° | 18km/h | 16723m | 3.9m/s | -47°C | 3.3% | 96.7hPa | 2.7V | 08:30:00 | 01:02:51 | 00:00:00 | |
| DL1XH-west | 2026-08-31 11:53:19 | 54.41504 | 14.01798 | 54° | 18km/h | 16723m | 3.9m/s | -47.1°C | 0.7% | 96.8hPa | 2.7V | 18:12:15 | 01:02:51 | 00:00:00 | |
| AA1-15 | 2026-08-31 11:53:18 | 54.41501 | 14.01791 | 58° | 16km/h | 16718m | 5.9m/s | -47.1°C | 0.7% | 96.8hPa | 2.8V | 18:12:15 | 01:02:50 | 00:00:00 | |
| DG6HD-15 | 2026-08-31 11:53:18 | 54.41504 | 14.01798 | 55° | 18km/h | 16723m | 3.9m/s | -47.1°C | 1.3% | 96.7hPa | 2.7V | 00:00:00 | 00:00:00 | 00:00:00 | |
| DL1XH-15 | 2026-08-31 11:53:16 | 54.41498 | 14.01779 | 62° | 15km/h | 16708m | 4.7m/s | -47.2°C | 3.3% | 97hPa | 2.7V | 08:30:00 | 01:02:48 | 00:00:00 | |
| DO2SHX-10 | 2026-08-31 11:53:15 | 54.41498 | 14.01779 | 63° | 15km/h | 16708m | 4.7m/s | -47.2°C | 3.3% | 96.9hPa | 2.7V | 00:00:00 | 01:02:48 | 00:00:00 | |
| SONDE2-11 | 2026-08-31 11:53:13 | 54.41491 | 14.01763 | 55° | 13km/h | 16694m | 4.3m/s | -47.5°C | 1.3% | 97.1hPa | 2.7V | 00:00:00 | 00:00:00 | 00:00:00 | |
| DO2SHX-10 | 2026-08-31 11:53:12 | 54.41491 | 14.01763 | 56° | 15km/h | 16694m | 4.3m/s | -47.4°C | 3.4% | 97.1hPa | 2.7V | 00:00:00 | 01:02:45 | 00:00:00 | |
| S3001 | 2026-08-31 11:53:11 | 54.41489 | 14.01752 | 82° | 13km/h | 16683m | 4.4m/s | -47.5°C | 1.3% | 97.3hPa | 2.7V | 00:00:00 | 00:00:00 | 00:00:00 | |
| DL1XH-15 | 2026-08-31 11:53:10 | 54.41481 | 14.01708 | 67° | 26km/h | 16659m | 5m/s | -48°C | 3.5% | 97.7hPa | 2.7V | 08:30:00 | 01:02:38 | 00:00:00 | |
| DL1XH-west | 2026-08-31 11:53:07 | 54.41486 | 14.01728 | 72° | 24km/h | 16669m | 5.2m/s | -47.7°C | 0.8% | 97.5hPa | 2.8V | 18:12:15 | 01:02:40 | 00:00:00 | |
| DL1XH1-15 | 2026-08-31 11:53:07 | 54.41486 | 14.01728 | 71° | 24km/h | 16669m | 5.2m/s | -47.7°C | 3.5% | 97.5hPa | 2.8V | 08:30:00 | 01:02:40 | 00:00:00 | |
| AA1-15 | 2026-08-31 11:53:06 | 54.41484 | 14.01718 | 67° | 26km/h | 16664m | 4.3m/s | -47.9°C | 0.8% | 97.7hPa | 2.7V | 18:12:15 | 01:02:39 | 00:00:00 | |
| DO2SHX-10 | 2026-08-31 11:53:06 | 54.41484 | 14.01718 | 68° | 26km/h | 16664m | 4.3m/s | -47.8°C | 3.5% | 97.6hPa | 2.8V | 00:00:00 | 01:02:39 | 00:00:00 | |
| SP3WXH-11 | 2026-08-31 11:53:04 | 54.41479 | 14.01698 | 66° | 24km/h | 16655m | 5.0m/s | -48.0°C | 1.4% | 97.8hPa | 2.8V | 00:00:00 | 00:00:00 | 00:00:00 | |
| DO2SHX-10 | 2026-08-31 11:53:03 | 54.41477 | 14.01688 | 66° | 27km/h | 16651m | 3.5m/s | -48.0°C | 3.5% | 97.8hPa | 2.8V | 00:00:00 | 01:02:36 | 00:00:00 | |
| EDDB2-11 | 2026-08-31 11:52:59 | 54.41462 | 14.01634 | 73° | 26km/h | 16627m | 4.7m/s | -48.2°C | 1.4% | 98.2hPa | 2.8V | 00:00:00 | 00:00:00 | 00:00:00 | |
| DL1XH1-15 | 2026-08-31 11:52:57 | 54.41460 | 14.01623 | 77° | 27km/h | 16623m | 3.6m/s | -48.3°C | 3.6% | 98.2hPa | 2.8V | 08:30:00 | 01:02:30 | 00:00:00 | |
| DL1XH-west | 2026-08-31 11:52:56 | 54.41458 | 14.01611 | 78° | 29km/h | 16619m | 4.8m/s | -48.3°C | 0.9% | 98.3hPa | 2.8V | 18:12:15 | 01:02:29 | 00:00:00 | |
| DL1XH-15 | 2026-08-31 11:52:56 | 54.41457 | 14.01599 | 74° | 31km/h | 16614m | 5.3m/s | -48.3°C | 3.6% | 98.3hPa | 2.8V | 08:30:00 | 01:02:28 | 00:00:00 | |
| AA1-15 | 2026-08-31 11:52:55 | 54.41457 | 14.01599 | 74° | 31km/h | 16614m | 5.3m/s | -48.3°C | 0.9% | 98.4hPa | 2.8V | 18:12:15 | 01:02:28 | 00:00:00 | |
| DO2SHX-10 | 2026-08-31 11:52:54 | 54.41454 | 14.01586 | 73° | 33km/h | 16609m | 4.2m/s | -48.2°C | 3.6% | 98.4hPa | 2.8V | 00:00:00 | 01:02:27 | 00:00:00 | |
| DL1XH-15 | 2026-08-31 11:52:51 | 54.41426 | 14.01461 | 69° | 35km/h | 16568m | 4.6m/s | -48.5°C | 3.6% | 99hPa | 2.8V | 08:30:00 | 01:02:18 | 00:00:00 | |
| DL1XH1-15 | 2026-08-31 11:52:48 | 54.41433 | 14.01488 | 66° | 35km/h | 16577m | 5.3m/s | -48.5°C | 3.6% | 98.9hPa | 2.7V | 08:30:00 | 01:02:20 | 00:00:00 | |
| DL1XH-west | 2026-08-31 11:52:46 | 54.41429 | 14.01475 | 69° | 35km/h | 16572m | 4m/s | -48.5°C | 0.9% | 99hPa | 2.7V | 18:12:15 | 01:02:19 | 00:00:00 | |
| DM0DOS-11 | 2026-08-31 11:52:45 | 54.41405 | 14.01358 | 73° | 49km/h | 16541m | 4.8m/s | -48.5°C | 3.6% | 99.4hPa | 2.8V | 08:30:00 | 01:02:12 | 00:00:00 | |
| AA1-15 | 2026-08-31 11:52:44 | 54.41423 | 14.01446 | 69° | 38km/h | 16563m | 5.3m/s | -48.5°C | 0.9% | 99.1hPa | 2.8V | 18:12:15 | 01:02:17 | 00:00:00 | |
| DL1XH1-15 | 2026-08-31 11:52:42 | 54.41398 | 14.01317 | 71° | 49km/h | 16531m | 4.3m/s | -48.7°C | 3.6% | 99.6hPa | 2.7V | 08:30:00 | 01:02:10 | 00:00:00 | |
| SONDE2-11 | 2026-08-31 11:52:42 | 54.41412 | 14.01396 | 72° | 42km/h | 16549m | 4.4m/s | -48.5°C | 1.4% | 99.3hPa | 2.8V | 00:00:00 | 00:00:00 | 00:00:00 | |
| EDDB2-12 | 2026-08-31 11:52:41 | 54.41412 | 14.01396 | 72° | 42km/h | 16549m | 4.4m/s | -48.5°C | 1.4% | 99.3hPa | 2.8V | 00:00:00 | 00:00:00 | 00:00:00 | |
| S3001 | 2026-08-31 11:52:40 | 54.41406 | 14.01358 | 73° | 47km/h | 16541m | 4.8m/s | -48.5°C | 1.4% | 99.5hPa | 2.8V | 00:00:00 | 00:00:00 | 00:00:00 | |
| DO2SHX-10 | 2026-08-31 11:52:39 | 54.41406 | 14.01358 | 74° | 49km/h | 16541m | 4.7m/s | -48.5°C | 3.6% | 99.4hPa | 2.8V | 00:00:00 | 01:02:12 | 00:00:00 | |
| DL1XH-15 | 2026-08-31 11:52:36 | 54.41390 | 14.01278 | 70° | 44km/h | 16521m | 4.5m/s | -48.7°C | 3.6% | 99.7hPa | 2.8V | 08:30:00 | 01:02:08 | 00:00:00 | |
| DL1XH-west | 2026-08-31 11:52:36 | 54.41394 | 14.01297 | 71° | 47km/h | 16527m | 5.5m/s | -48.6°C | 0.9% | 99.7hPa | 2.8V | 18:12:15 | 01:02:09 | 00:00:00 | |
| AA1-15 | 2026-08-31 11:52:34 | 54.41386 | 14.01260 | 68° | 44km/h | 16517m | 5.5m/s | -48.8°C | 0.9% | 99.8hPa | 2.7V | 18:12:15 | 01:02:07 | 00:00:00 | |
| DK1YY | 2026-08-31 11:52:33 | 54.41362 | 14.01161 | 70° | 46km/h | 16488m | 5.1m/s | 0°C | -1.0% | -1.0hPa | 2.8V | 00:00:00 | 00:00:00 | 00:00:00 | |
| DL1XH-15 | 2026-08-31 11:52:30 | 54.41349 | 14.01097 | 72° | 55km/h | 16475m | 5.3m/s | -48.8°C | 3.6% | 100.5hPa | 2.8V | 08:30:00 | 01:01:58 | 00:00:00 | |
| DL1XH-west | 2026-08-31 11:52:25 | 54.41349 | 14.01097 | 73° | 55km/h | 16475m | 5.3m/s | -48.8°C | 0.9% | 100.5hPa | 2.8V | 18:12:15 | 01:01:58 | 00:00:00 | |
| AA1-15 | 2026-08-31 11:52:23 | 54.41341 | 14.01051 | 73° | 57km/h | 16466m | 3.8m/s | -48.9°C | 0.9% | 100.6hPa | 2.7V | 18:12:15 | 01:01:56 | 00:00:00 | |
| DO2SHX-10 | 2026-08-31 11:52:21 | 54.41332 | 14.01004 | 70° | 55km/h | 16456m | 3.8m/s | -49.3°C | 3.7% | 100.7hPa | 2.7V | 00:00:00 | 01:01:54 | 00:00:00 | |
| DL1XH-15 | 2026-08-31 11:52:19 | 54.41309 | 14.00881 | 74° | 47km/h | 16430m | 4.5m/s | -49.6°C | 3.8% | 101.1hPa | 2.7V | 08:30:00 | 01:01:48 | 00:00:00 | |
| DL1XH1-15 | 2026-08-31 11:52:18 | 54.41315 | 14.00920 | 73° | 46km/h | 16439m | 4.7m/s | -49.5°C | 3.7% | 101hPa | 2.7V | 08:30:00 | 01:01:50 | 00:00:00 | |
| DL1XH-west | 2026-08-31 11:52:16 | 54.41306 | 14.00861 | 78° | 49km/h | 16425m | 4.8m/s | -49.7°C | 1.1% | 101.2hPa | 2.8V | 18:12:15 | 01:01:47 | 00:00:00 | |
| DO2SHX-10 | 2026-08-31 11:52:16 | 54.41309 | 14.00881 | 75° | 49km/h | 16430m | 4.5m/s | -49.6°C | 3.8% | 101.1hPa | 2.7V | 00:00:00 | 01:01:48 | 08:30:00 | |
| DM0DOS-11 | 2026-08-31 11:52:13 | 54.41291 | 14.00747 | 74° | 58km/h | 16401m | 4.6m/s | -49.6°C | 3.8% | 101.5hPa | 2.8V | 08:30:00 | 01:01:42 | 00:00:00 | |
| AA1-15 | 2026-08-31 11:52:13 | 54.41301 | 14.00818 | 80° | 53km/h | 16416m | 4.7m/s | -49.6°C | 1.1% | 101.3hPa | 2.8V | 18:12:15 | 01:01:45 | 00:00:00 | |
| DO2SHX-10 | 2026-08-31 11:52:12 | 54.41301 | 14.00818 | 80° | 55km/h | 16416m | 4.7m/s | -49.6°C | 3.8% | 101.3hPa | 2.7V | 00:00:00 | 01:01:45 | 00:00:00 | |
| EDDB2-12 | 2026-08-31 11:52:10 | 54.41295 | 14.00772 | 74° | 57km/h | 16406m | 4.3m/s | -49.5°C | 1.5% | 101.5hPa | 2.7V | 00:00:00 | 00:00:00 | 00:00:00 | |
| DL1XH1-15 | 2026-08-31 11:52:08 | 54.41284 | 14.00698 | 74° | 60km/h | 16392m | 4.6m/s | -49.6°C | 3.8% | 101.7hPa | 2.7V | 08:30:00 | 01:01:40 | 00:00:00 | |
| DL1XH-west | 2026-08-31 11:52:04 | 54.41270 | 14.00622 | 72° | 60km/h | 16378m | 3.9m/s | -49.6°C | 1.1% | 102hPa | 2.8V | 18:12:15 | 01:01:37 | 00:00:00 | |
| DM0DOS-11 | 2026-08-31 11:52:03 | 54.41248 | 14.00508 | 65° | 55km/h | 16355m | 4.2m/s | -49.7°C | 3.9% | 102.3hPa | 2.8V | 08:30:00 | 01:01:32 | 00:00:00 | |
| DO2SHX-10 | 2026-08-31 11:52:03 | 54.41266 | 14.00598 | 73° | 55km/h | 16373m | 5.1m/s | -49.6°C | 3.8% | 102.0hPa | 2.7V | 00:00:00 | 01:01:36 | 00:00:00 | |
| DL1XH1-15 | 2026-08-31 11:52:02 | 54.41236 | 14.00465 | 65° | 55km/h | 16346m | 5.5m/s | -49.7°C | 3.9% | 102.4hPa | 2.7V | 08:30:00 | 01:01:30 | 00:00:00 | |
| AA1-15 | 2026-08-31 11:52:01 | 54.41258 | 14.00552 | 72° | 53km/h | 16364m | 3.9m/s | -49.7°C | 1.1% | 102.2hPa | 2.8V | 18:12:15 | 01:01:34 | 00:00:00 | |
| DF8AY | 2026-08-31 11:51:55 | 54.41224 | 14.00421 | 64° | 58km/h | 16337m | 4.9m/s | -49.7°C | 1.1% | 102.6hPa | 2.8V | 18:12:15 | 01:01:28 | 00:00:00 | |
| DL1XH-west | 2026-08-31 11:51:53 | 54.41211 | 14.00373 | 65° | 64km/h | 16328m | 3.9m/s | -49.6°C | 1.1% | 102.7hPa | 2.8V | 18:12:15 | 01:01:26 | 00:00:00 | |
| DM0DOS-11 | 2026-08-31 11:51:53 | 54.41185 | 14.00271 | 65° | 64km/h | 16309m | 5.8m/s | -49.5°C | 3.8% | 103hPa | 2.8V | 08:30:00 | 01:01:22 | 00:00:00 | |
| DL1XH1-15 | 2026-08-31 11:51:52 | 54.41171 | 14.00223 | 62° | 60km/h | 16299m | 4.1m/s | -49.5°C | 3.8% | 103.2hPa | 2.8V | 08:30:00 | 01:01:20 | 00:00:00 | |
| AA1-15 | 2026-08-31 11:51:50 | 54.41191 | 14.00296 | 67° | 64km/h | 16314m | 5.1m/s | -49.5°C | 1.1% | 102.9hPa | 2.7V | 18:12:15 | 01:01:23 | 00:00:00 | |
| DO2SHX-10 | 2026-08-31 11:51:48 | 54.41178 | 14.00246 | 64° | 60km/h | 16304m | 4.2m/s | -49.5°C | 3.9% | 103.0hPa | 2.7V | 00:00:00 | 01:01:21 | 08:30:00 | |
| DL1XH-15 | 2026-08-31 11:51:46 | 54.41158 | 14.00178 | 62° | 57km/h | 16290m | 3.6m/s | -49.4°C | 3.8% | 103.3hPa | 2.7V | 08:30:00 | 01:01:18 | 00:00:00 | |
| DL1XH-west | 2026-08-31 11:51:44 | 54.41131 | 14.00091 | 64° | 58km/h | 16271m | 5.3m/s | -49.6°C | 1% | 103.6hPa | 2.8V | 18:12:15 | 01:01:14 | 00:00:00 | |
| DO2SHX-10 | 2026-08-31 11:51:42 | 54.41137 | 14.00113 | 63° | 58km/h | 16276m | 4.6m/s | -49.6°C | 3.8% | 103.5hPa | 2.7V | 00:00:00 | 01:01:15 | 00:00:00 | |
| DM0DOS-11 | 2026-08-31 11:51:41 | 54.41118 | 14.00045 | 63° | 60km/h | 16262m | 5.7m/s | -49.6°C | 3.8% | 103.7hPa | 2.7V | 08:30:00 | 01:01:12 | 00:00:00 | |
| DL1XH-15 | 2026-08-31 11:51:40 | 54.41090 | 13.99951 | 62° | 58km/h | 16243m | 3.4m/s | -49.6°C | 3.8% | 104.1hPa | 2.7V | 08:30:00 | 01:01:08 | 00:00:00 | |
| AA1-15 | 2026-08-31 11:51:40 | 54.41124 | 14.00068 | 65° | 58km/h | 16267m | 3.5m/s | -49.6°C | 1.1% | 103.7hPa | 2.7V | 18:12:15 | 01:01:13 | 00:00:00 | |
| DL1XH1-15 | 2026-08-31 11:51:38 | 54.41103 | 13.99997 | 62° | 62km/h | 16253m | 4.6m/s | -49.6°C | 3.8% | 103.9hPa | 2.8V | 08:30:00 | 01:01:10 | 00:00:00 | |
| DL1XH-west | 2026-08-31 11:51:31 | 54.41059 | 13.99866 | 56° | 57km/h | 16225m | 5m/s | -49.6°C | 1.1% | 104.4hPa | 2.7V | 18:12:15 | 01:01:04 | 00:00:00 | |
| AA1-15 | 2026-08-31 11:51:29 | 54.41043 | 13.99825 | 58° | 57km/h | 16215m | 3.9m/s | -49.6°C | 1.1% | 104.5hPa | 2.7V | 18:12:15 | 01:01:02 | 00:00:00 | |
| DL1XH1-15 | 2026-08-31 11:51:29 | 54.41028 | 13.99783 | 56° | 58km/h | 16206m | 4.4m/s | -49.6°C | 3.8% | 104.6hPa | 2.8V | 08:30:00 | 01:01:00 | 00:00:00 | |
| DO2SHX-10 | 2026-08-31 11:51:27 | 54.41027 | 13.99783 | 57° | 58km/h | 16206m | 4.3m/s | -49.6°C | 3.8% | 104.6hPa | 2.7V | 00:00:00 | 01:01:00 | 00:00:00 | |
| EDDB2-11 | 2026-08-31 11:51:26 | 54.41012 | 13.99740 | 59° | 57km/h | 16196m | 5.5m/s | -49.8°C | 1.5% | 104.8hPa | 2.7V | 00:00:00 | 00:00:00 | 00:00:00 | |
| DM0DOS-11 | 2026-08-31 11:51:24 | 54.40966 | 13.99613 | 55° | 57km/h | 16169m | 3.2m/s | -49.8°C | 3.8% | 105.3hPa | 2.7V | 08:30:00 | 01:00:52 | 00:00:00 | |
| DL1XH-west | 2026-08-31 11:51:21 | 54.40982 | 13.99654 | 57° | 58km/h | 16178m | 4.6m/s | -49.7°C | 1.1% | 105.1hPa | 2.8V | 18:12:15 | 01:00:54 | 00:00:00 | |
| DL1XH-15 | 2026-08-31 11:51:20 | 54.40929 | 13.99535 | 49° | 57km/h | 16151m | 5.7m/s | -50°C | 3.8% | 105.5hPa | 2.8V | 08:30:00 | 01:00:48 | 00:00:00 | |
| AA1-15 | 2026-08-31 11:51:19 | 54.40966 | 13.99613 | 55° | 57km/h | 16169m | 3.2m/s | -49.8°C | 1.1% | 105.3hPa | 2.7V | 18:12:15 | 01:00:52 | 00:00:00 | |
| DL1XH1-15 | 2026-08-31 11:51:19 | 54.40948 | 13.99573 | 50° | 58km/h | 16160m | 4.9m/s | -49.9°C | 3.8% | 105.4hPa | 2.7V | 08:30:00 | 01:00:50 | 00:00:00 | |
| DF8AY | 2026-08-31 11:51:15 | 54.40920 | 13.99516 | 50° | 57km/h | 16146m | 4.4m/s | -50°C | 1.2% | 105.6hPa | 2.8V | 18:12:15 | 01:00:47 | 00:00:00 | |
| DL1XH-west | 2026-08-31 11:51:10 | 54.40883 | 13.99439 | 52° | 58km/h | 16127m | 5.9m/s | -50.3°C | 1.2% | 106hPa | 2.8V | 18:12:15 | 01:00:43 | 00:00:00 | |
| AA1-15 | 2026-08-31 11:51:09 | 54.40874 | 13.99420 | 54° | 55km/h | 16122m | 4.7m/s | -50.5°C | 1.3% | 106hPa | 2.7V | 18:12:15 | 01:00:42 | 00:00:00 | |
| DL1XH1-15 | 2026-08-31 11:51:09 | 54.40858 | 13.99383 | 50° | 53km/h | 16113m | 5.7m/s | -50.7°C | 4.1% | 106.1hPa | 2.8V | 08:30:00 | 01:00:40 | 00:00:00 | |
| DO2SHX-10 | 2026-08-31 11:51:09 | 54.40874 | 13.99419 | 55° | 53km/h | 16122m | 4.7m/s | -50.5°C | 4.1% | 106.0hPa | 2.7V | 00:00:00 | 01:00:42 | 00:00:00 | |
| EDDB2-12 | 2026-08-31 11:51:08 | 54.40866 | 13.99401 | 53° | 51km/h | 16118m | 3.6m/s | -50.6°C | 1.6% | 106.1hPa | 2.7V | 00:00:00 | 00:00:00 | 00:00:00 | |
| DL1XH-15 | 2026-08-31 11:51:06 | 54.40839 | 13.99351 | 40° | 53km/h | 16103m | 4.5m/s | -50.5°C | 4% | 106.3hPa | 2.7V | 08:30:00 | 01:00:38 | 00:00:00 | |
| DO2SHX-10 | 2026-08-31 11:51:06 | 54.40849 | 13.99366 | 46° | 53km/h | 16108m | 4.7m/s | -50.6°C | 4.1% | 106.2hPa | 2.7V | 00:00:00 | 01:00:39 | 00:00:00 | |
| DM0DOS-11 | 2026-08-31 11:51:04 | 54.40775 | 13.99269 | 37° | 53km/h | 16074m | 5.8m/s | -50.5°C | 3.9% | 106.8hPa | 2.7V | 08:30:00 | 01:00:32 | 00:00:00 | |
| DF8AY | 2026-08-31 11:51:02 | 54.40727 | 13.99187 | 47° | 57km/h | 16050m | 4.1m/s | -50.7°C | 1.3% | 107.2hPa | 2.7V | 18:12:15 | 01:00:27 | 00:00:00 | |
| DL1XH-15 | 2026-08-31 11:51:00 | 54.40736 | 13.99205 | 47° | 57km/h | 16055m | 4.3m/s | -50.8°C | 4% | 107.1hPa | 2.8V | 08:30:00 | 01:00:28 | 00:00:00 | |
| DL1XH-west | 2026-08-31 11:51:00 | 54.40765 | 13.99255 | 41° | 51km/h | 16069m | 4.3m/s | -50.5°C | 1.2% | 106.8hPa | 2.7V | 18:12:15 | 01:00:31 | 00:00:00 | |
| DO2SHX-10 | 2026-08-31 11:51:00 | 54.40785 | 13.99282 | 36° | 53km/h | 16079m | 4.5m/s | -50.5°C | 3.8% | 106.7hPa | 2.8V | 00:00:00 | 01:00:33 | 00:00:00 | |
| DL1XH1-15 | 2026-08-31 11:50:59 | 54.40755 | 13.99239 | 44° | 51km/h | 16064m | 4m/s | -50.6°C | 3.9% | 106.9hPa | 2.8V | 08:30:00 | 01:00:30 | 00:00:00 | |
| AA1-15 | 2026-08-31 11:50:59 | 54.40755 | 13.99239 | 45° | 51km/h | 16064m | 4m/s | -50.6°C | 1.2% | 106.9hPa | 2.8V | 18:12:15 | 01:00:30 | 00:00:00 | |
| EDDB2-11 | 2026-08-31 11:50:55 | 54.40727 | 13.99187 | 47° | 55km/h | 16051m | 4.1m/s | -50.7°C | 1.6% | 107.2hPa | 2.7V | 00:00:00 | 00:00:00 | 00:00:00 | |
| DO2SHX-10 | 2026-08-31 11:50:54 | 54.40727 | 13.99187 | 48° | 55km/h | 16051m | 4.0m/s | -50.7°C | 4.0% | 107.1hPa | 2.7V | 00:00:00 | 01:00:27 | 08:30:00 | |
| DM0DOS-11 | 2026-08-31 11:50:51 | 54.40680 | 13.99102 | 47° | 55km/h | 16027m | 4.1m/s | -51°C | 4.1% | 107.5hPa | 2.8V | 08:30:00 | 01:00:22 | 00:00:00 | |
| DL1XH-west | 2026-08-31 11:50:48 | 54.40671 | 13.99084 | 49° | 53km/h | 16022m | 5.4m/s | -51°C | 1.3% | 107.6hPa | 2.7V | 18:12:15 | 01:00:21 | 00:00:00 | |
| DL1XH1-15 | 2026-08-31 11:50:48 | 54.40662 | 13.99067 | 50° | 51km/h | 16017m | 5m/s | -51°C | 4.1% | 107.7hPa | 2.7V | 08:30:00 | 01:00:20 | 00:00:00 | |
| AA1-15 | 2026-08-31 11:50:46 | 54.40654 | 13.99050 | 53° | 51km/h | 16013m | 3.7m/s | -51°C | 1.3% | 107.8hPa | 2.8V | 18:12:15 | 01:00:19 | 00:00:00 | |
| DO2SHX-10 | 2026-08-31 11:50:45 | 54.40647 | 13.99031 | 56° | 57km/h | 16009m | 5.2m/s | -51.0°C | 4.1% | 107.8hPa | 2.7V | 00:00:00 | 01:00:18 | 00:00:00 | |
| DL1XH-15 | 2026-08-31 11:50:40 | 54.40562 | 13.98839 | 43° | 53km/h | 15961m | 5.5m/s | -51.3°C | 4.2% | 108.7hPa | 2.7V | 08:30:00 | 01:00:08 | 00:00:00 | |
| DL1XH1-15 | 2026-08-31 11:50:38 | 54.40580 | 13.98871 | 48° | 53km/h | 15971m | 5.9m/s | -51.3°C | 4.2% | 108.5hPa | 2.8V | 08:30:00 | 01:00:10 | 00:00:00 | |
| DL1XH-west | 2026-08-31 11:50:37 | 54.40580 | 13.98871 | 48° | 53km/h | 15971m | 5.9m/s | -51.3°C | 1.4% | 108.5hPa | 2.8V | 18:12:15 | 01:00:10 | 00:00:00 | |
| AA1-15 | 2026-08-31 11:50:35 | 54.40562 | 13.98839 | 43° | 53km/h | 15961m | 5.6m/s | -51.3°C | 1.4% | 108.7hPa | 2.7V | 18:12:15 | 01:00:08 | 00:00:00 | |
| DF8AY | 2026-08-31 11:50:34 | 54.40513 | 13.98757 | 46° | 57km/h | 15936m | 4.8m/s | -51.4°C | 1.4% | 109.1hPa | 2.8V | 18:12:15 | 01:00:03 | 00:00:00 | |
| DO2SHX-10 | 2026-08-31 11:50:33 | 54.40542 | 13.98806 | 44° | 55km/h | 15951m | 4.2m/s | -51.2°C | 4.2% | 108.8hPa | 2.7V | 00:00:00 | 01:00:06 | 00:00:00 | |
| DL1XH1-15 | 2026-08-31 11:50:32 | 54.40483 | 13.98701 | 48° | 58km/h | 15922m | 6m/s | -51.4°C | 4.2% | 109.3hPa | 2.7V | 08:30:00 | 01:00:00 | 00:00:00 | |
| DM0DOS-11 | 2026-08-31 11:50:31 | 54.40503 | 13.98739 | 47° | 58km/h | 15931m | 5m/s | -51.3°C | 4.2% | 109.1hPa | 2.7V | 08:30:00 | 01:00:02 | 00:00:00 | |
| DL1XH-west | 2026-08-31 11:50:27 | 54.40473 | 13.98683 | 48° | 57km/h | 15917m | 4m/s | -51.3°C | 1.4% | 109.4hPa | 2.8V | 18:12:15 | 00:59:59 | 00:00:00 | |
| DL1XH-15 | 2026-08-31 11:50:26 | 54.40464 | 13.98664 | 47° | 58km/h | 15912m | 5m/s | -51.4°C | 4.2% | 109.5hPa | 2.8V | 08:30:00 | 00:59:58 | 00:00:00 | |
| AA1-15 | 2026-08-31 11:50:24 | 54.40453 | 13.98646 | 46° | 58km/h | 15908m | 4.7m/s | -51.3°C | 1.5% | 109.6hPa | 2.8V | 18:12:15 | 00:59:57 | 00:00:00 | |
| DO2SHX-10 | 2026-08-31 11:50:24 | 54.40453 | 13.98646 | 46° | 58km/h | 15908m | 4.7m/s | -51.2°C | 4.3% | 109.5hPa | 2.8V | 00:00:00 | 00:59:57 | 00:00:00 | |
| EDDB2-11 | 2026-08-31 11:50:23 | 54.40443 | 13.98628 | 42° | 58km/h | 15903m | 3.7m/s | -51.3°C | 1.7% | 109.6hPa | 2.8V | 00:00:00 | 00:00:00 | 00:00:00 | |
| DO2SHX-10 | 2026-08-31 11:50:21 | 54.40421 | 13.98597 | 36° | 53km/h | 15894m | 4.5m/s | -51.2°C | 4.2% | 109.7hPa | 2.8V | 00:00:00 | 00:59:54 | 00:00:00 | |
| DL1XH-15 | 2026-08-31 11:50:20 | 54.40355 | 13.98520 | 40° | 51km/h | 15865m | 4.5m/s | -51.1°C | 4.1% | 110.3hPa | 2.8V | 08:30:00 | 00:59:48 | 00:00:00 | |
| DL1XH-west | 2026-08-31 11:50:17 | 54.40376 | 13.98547 | 34° | 53km/h | 15875m | 5m/s | -51.2°C | 1.3% | 110.1hPa | 2.8V | 18:12:15 | 00:59:50 | 00:00:00 | |
| AA1-15 | 2026-08-31 11:50:13 | 54.40336 | 13.98487 | 47° | 55km/h | 15855m | 4.4m/s | -51.1°C | 1.4% | 110.4hPa | 2.7V | 18:12:15 | 00:59:46 | 00:00:00 | |
| DF8AY | 2026-08-31 11:50:12 | 54.40299 | 13.98423 | 41° | 51km/h | 15838m | 4.9m/s | -51°C | 1.5% | 110.7hPa | 2.8V | 18:12:15 | 00:59:42 | 00:00:00 | |
| DO2SHX-10 | 2026-08-31 11:50:12 | 54.40327 | 13.98470 | 49° | 51km/h | 15851m | 5.1m/s | -51.1°C | 4.2% | 110.5hPa | 2.7V | 00:00:00 | 00:59:45 | 00:00:00 | |
| DL1XH1-15 | 2026-08-31 11:50:08 | 54.40279 | 13.98396 | 33° | 49km/h | 15829m | 4.6m/s | -51°C | 4.2% | 110.9hPa | 2.7V | 08:30:00 | 00:59:40 | 00:00:00 | |
| DL1XH-west | 2026-08-31 11:50:06 | 54.40268 | 13.98385 | 31° | 49km/h | 15824m | 5.1m/s | -51°C | 1.4% | 111hPa | 2.7V | 18:12:15 | 00:59:39 | 00:00:00 | |
| DL1XH-15 | 2026-08-31 11:50:06 | 54.40258 | 13.98374 | 29° | 49km/h | 15820m | 3.7m/s | -50.8°C | 4.2% | 111hPa | 2.8V | 08:30:00 | 00:59:38 | 00:00:00 | |
| AA1-15 | 2026-08-31 11:50:02 | 54.40223 | 13.98339 | 33° | 57km/h | 15807m | 3.7m/s | -50.9°C | 1.4% | 111.3hPa | 2.7V | 18:12:15 | 00:59:35 | 00:00:00 | |
| DF8AY | 2026-08-31 11:49:59 | 54.40179 | 13.98283 | 39° | 53km/h | 15787m | 5.3m/s | -50.7°C | 1.4% | 111.6hPa | 2.7V | 18:12:15 | 00:59:31 | 00:00:00 | |
| DL1XH1-15 | 2026-08-31 11:49:58 | 54.40169 | 13.98269 | 38° | 51km/h | 15783m | 4.2m/s | -50.6°C | 4.2% | 111.7hPa | 2.7V | 08:30:00 | 00:59:30 | 00:00:00 | |
| DL1XH-west | 2026-08-31 11:49:56 | 54.40159 | 13.98255 | 38° | 49km/h | 15778m | 5.6m/s | -50.6°C | 1.4% | 111.8hPa | 2.8V | 18:12:15 | 00:59:29 | 00:00:00 | |
| AA1-15 | 2026-08-31 11:49:52 | 54.40110 | 13.98201 | 28° | 47km/h | 15754m | 5.9m/s | -50.4°C | 1.3% | 112.2hPa | 2.7V | 18:12:15 | 00:59:24 | 00:00:00 | |
| DO2SHX-10 | 2026-08-31 11:49:51 | 54.40110 | 13.98201 | 29° | 47km/h | 15754m | 5.8m/s | -50.3°C | 4.1% | 112.1hPa | 2.7V | 00:00:00 | 00:59:24 | 00:00:00 | |
| AM1SDL-15 | 2026-08-31 11:49:50 | 54.40099 | 13.98191 | 28° | 47km/h | 15749m | 4.0m/s | -50.3°C | 4.1% | 112.2hPa | 2.7V | 00:00:00 | 00:59:23 | 00:00:00 | |
| DL1XH1-15 | 2026-08-31 11:49:49 | 54.40066 | 13.98161 | 29° | 53km/h | 15734m | 4.4m/s | -50.2°C | 4.1% | 112.5hPa | 2.7V | 08:30:00 | 00:59:20 | 00:00:00 | |
| DF8AY | 2026-08-31 11:49:47 | 54.40033 | 13.98127 | 36° | 44km/h | 15720m | 4.2m/s | -50.1°C | 1.3% | 112.7hPa | 2.8V | 18:12:15 | 00:59:17 | 00:00:00 | |
| DL1XH-15 | 2026-08-31 11:49:46 | 54.40043 | 13.98138 | 31° | 49km/h | 15725m | 6.1m/s | -50.2°C | 4.1% | 112.7hPa | 2.7V | 08:30:00 | 00:59:18 | 00:00:00 | |
| DL1XH-west | 2026-08-31 11:49:45 | 54.40043 | 13.98138 | 32° | 49km/h | 15725m | 6.1m/s | -50.2°C | 1.3% | 112.7hPa | 2.7V | 18:12:15 | 00:59:18 | 00:00:00 | |
| AA1-15 | 2026-08-31 11:49:40 | 54.40000 | 13.98079 | 39° | 42km/h | 15700m | 5.2m/s | -50°C | 1.3% | 113.1hPa | 2.7V | 18:12:15 | 00:59:13 | 00:00:00 | |
| DL1XH-15 | 2026-08-31 11:49:40 | 54.39952 | 13.98026 | 32° | 49km/h | 15675m | 3.6m/s | -49.8°C | 3.9% | 113.5hPa | 2.8V | 08:30:00 | 00:59:08 | 00:00:00 | |
| DL1XH1-15 | 2026-08-31 11:49:38 | 54.39973 | 13.98048 | 31° | 46km/h | 15685m | 5.6m/s | -49.9°C | 4% | 113.3hPa | 2.7V | 08:30:00 | 00:59:10 | 00:00:00 | |
| DF8AY | 2026-08-31 11:49:37 | 54.39963 | 13.98037 | 32° | 49km/h | 15679m | 5.9m/s | -49.8°C | 1.3% | 113.5hPa | 2.7V | 18:12:15 | 00:59:09 | 00:00:00 | |
| DL1XH-west | 2026-08-31 11:49:35 | 54.39952 | 13.98026 | 32° | 49km/h | 15675m | 3.6m/s | -49.8°C | 1.2% | 113.6hPa | 2.8V | 18:12:15 | 00:59:08 | 00:00:00 | |
| AA1-15 | 2026-08-31 11:49:30 | 54.39897 | 13.97952 | 41° | 46km/h | 15645m | 5.5m/s | -49.6°C | 1.2% | 114hPa | 2.8V | 18:12:15 | 00:59:02 | 00:00:00 | |
| DL1XH1-15 | 2026-08-31 11:49:28 | 54.39880 | 13.97927 | 41° | 44km/h | 15635m | 6.1m/s | -49.6°C | 3.9% | 114.2hPa | 2.8V | 08:30:00 | 00:59:00 | 00:00:00 | |
| DL1XH-15 | 2026-08-31 11:49:26 | 54.39864 | 13.97903 | 40° | 40km/h | 15625m | 4m/s | -49.6°C | 3.9% | 114.4hPa | 2.7V | 08:30:00 | 00:58:58 | 00:00:00 | |
| DL1XH-west | 2026-08-31 11:49:25 | 54.39864 | 13.97903 | 41° | 40km/h | 15625m | 4.1m/s | -49.6°C | 1.3% | 114.4hPa | 2.7V | 18:12:15 | 00:58:58 | 00:00:00 | |
| DF8AY | 2026-08-31 11:49:24 | 54.39856 | 13.97891 | 39° | 42km/h | 15620m | 6m/s | -49.6°C | 1.2% | 114.5hPa | 2.7V | 18:12:15 | 00:58:57 | 00:00:00 | |
| DO2SHX-10 | 2026-08-31 11:49:24 | 54.39856 | 13.97891 | 39° | 42km/h | 15621m | 5.9m/s | -49.5°C | 3.9% | 114.4hPa | 2.7V | 00:00:00 | 00:58:57 | 00:00:00 | |
| DO2SHX-10 | 2026-08-31 11:49:21 | 54.39831 | 13.97860 | 35° | 40km/h | 15605m | 4.8m/s | -49.5°C | 3.8% | 114.6hPa | 2.7V | 00:00:00 | 00:58:54 | 00:00:00 | |
| DL1XH-15 | 2026-08-31 11:49:20 | 54.39784 | 13.97794 | 44° | 38km/h | 15576m | 2.8m/s | -50°C | 4% | 115.3hPa | 2.7V | 08:30:00 | 00:58:48 | 00:00:00 | |
| AA1-15 | 2026-08-31 11:49:19 | 54.39806 | 13.97829 | 39° | 42km/h | 15590m | 3.8m/s | -49.8°C | 1.2% | 115hPa | 2.8V | 18:12:15 | 00:58:51 | 00:00:00 | |
| DL1XH1-15 | 2026-08-31 11:49:18 | 54.39798 | 13.97818 | 42° | 40km/h | 15585m | 6m/s | -49.9°C | 4% | 115hPa | 2.8V | 08:30:00 | 00:58:50 | 00:00:00 | |
| DL1XH-west | 2026-08-31 11:49:14 | 54.39777 | 13.97782 | 43° | 38km/h | 15571m | 6.5m/s | -50°C | 1.3% | 115.3hPa | 2.8V | 18:12:15 | 00:58:47 | 00:00:00 | |
| DF8AY | 2026-08-31 11:49:13 | 54.39770 | 13.97770 | 43° | 40km/h | 15565m | 5.3m/s | -50°C | 1.3% | 115.4hPa | 2.8V | 18:12:15 | 00:58:46 | 00:00:00 | |
| DO2SHX-10 | 2026-08-31 11:49:11 | 54.39755 | 13.97745 | 47° | 42km/h | 15557m | 5.7m/s | -50.0°C | 4.0% | 115.5hPa | 2.8V | 00:00:00 | 00:58:44 | 00:00:00 | |
| DL1XH1-15 | 2026-08-31 11:49:10 | 54.39725 | 13.97694 | 44° | 42km/h | 15537m | 4.9m/s | -49.9°C | 4% | 115.9hPa | 2.8V | 08:30:00 | 00:58:40 | 00:00:00 | |
| AA1-15 | 2026-08-31 11:49:07 | 54.39725 | 13.97694 | 45° | 42km/h | 15537m | 4.9m/s | -49.9°C | 1.2% | 116hPa | 2.8V | 18:12:15 | 00:58:40 | 00:00:00 | |
| DM0DOS-11 | 2026-08-31 11:49:07 | 54.39696 | 13.97640 | 46° | 44km/h | 15518m | 4.4m/s | -49.9°C | 4% | 116.3hPa | 2.7V | 08:30:00 | 00:58:36 | 00:00:00 | |
| DL1XH-15 | 2026-08-31 11:49:06 | 54.39711 | 13.97668 | 48° | 42km/h | 15528m | 3.9m/s | -49.9°C | 4% | 116.1hPa | 2.7V | 08:30:00 | 00:58:38 | 00:00:00 | |
| DL1XH-west | 2026-08-31 11:49:04 | 54.39704 | 13.97654 | 48° | 42km/h | 15523m | 5.4m/s | -49.9°C | 1.3% | 116.2hPa | 2.7V | 18:12:15 | 00:58:37 | 00:00:00 | |
| DF8AY | 2026-08-31 11:49:03 | 54.39696 | 13.97640 | 47° | 44km/h | 15518m | 4.4m/s | -49.9°C | 1.3% | 116.3hPa | 2.7V | 18:12:15 | 00:58:36 | 00:00:00 | |
| DO2SHX-10 | 2026-08-31 11:49:02 | 54.39689 | 13.97626 | 50° | 46km/h | 15514m | 5.1m/s | -49.8°C | 4.0% | 116.3hPa | 2.7V | 00:00:00 | 00:58:35 | 00:00:00 | |
| DL1XH-15 | 2026-08-31 11:49:00 | 54.39639 | 13.97505 | 60° | 40km/h | 15475m | 3.9m/s | -49.7°C | 4% | 117hPa | 2.7V | 08:30:00 | 00:58:27 | 00:00:00 | |
| DO2SHX-10 | 2026-08-31 11:48:59 | 54.39668 | 13.97579 | 55° | 42km/h | 15499m | 5.6m/s | -49.8°C | 4.0% | 116.5hPa | 2.8V | 00:00:00 | 00:58:32 | 00:00:00 | |
| DM0DOS-11 | 2026-08-31 11:48:57 | 54.39634 | 13.97490 | 58° | 42km/h | 15470m | 5.3m/s | -49.7°C | 4% | 117.1hPa | 2.8V | 08:30:00 | 00:58:26 | 00:00:00 | |
| AA1-15 | 2026-08-31 11:48:57 | 54.39649 | 13.97535 | 56° | 40km/h | 15484m | 5.3m/s | -49.8°C | 1.2% | 116.8hPa | 2.8V | 18:12:15 | 00:58:29 | 00:00:00 | |
| DF8AY | 2026-08-31 11:48:53 | 54.39633 | 13.97490 | 58° | 42km/h | 15470m | 5.3m/s | -49.7°C | 1.3% | 117.1hPa | 2.8V | 18:12:15 | 00:58:26 | 00:00:00 | |
| DO2SHX-10 | 2026-08-31 11:48:52 | 54.39627 | 13.97474 | 55° | 49km/h | 15466m | 4.7m/s | -49.6°C | 3.9% | 117.2hPa | 2.8V | 00:00:00 | 00:58:25 | 00:00:00 | |
| AM1SDL-15 | 2026-08-31 11:48:50 | 54.39613 | 13.97440 | 55° | 49km/h | 15457m | 5.0m/s | -49.7°C | 3.9% | 117.3hPa | 2.8V | 00:00:00 | 00:58:23 | 00:00:00 | |
| DL1XH1-15 | 2026-08-31 11:48:48 | 54.39590 | 13.97386 | 52° | 53km/h | 15443m | 5.9m/s | -49.7°C | 3.8% | 117.6hPa | 2.8V | 08:30:00 | 00:58:20 | 00:00:00 | |
| DM0DOS-11 | 2026-08-31 11:48:47 | 54.39561 | 13.97314 | 61° | 47km/h | 15425m | 3.6m/s | -49.8°C | 3.8% | 117.9hPa | 2.7V | 08:30:00 | 00:58:16 | 00:00:00 | |
| AA1-15 | 2026-08-31 11:48:46 | 54.39582 | 13.97368 | 52° | 51km/h | 15439m | 4.1m/s | -49.7°C | 1.2% | 117.7hPa | 2.8V | 18:12:15 | 00:58:19 | 00:00:00 | |
| DL1XH-15 | 2026-08-31 11:48:46 | 54.39568 | 13.97332 | 58° | 47km/h | 15429m | 4.8m/s | -49.7°C | 3.8% | 117.8hPa | 2.7V | 08:30:00 | 00:58:17 | 00:00:00 | |
| DL1XH-west | 2026-08-31 11:48:42 | 54.39556 | 13.97296 | 62° | 47km/h | 15420m | 5.5m/s | -49.8°C | 1.2% | 118hPa | 2.7V | 18:12:15 | 00:58:15 | 00:00:00 | |
| DF8AY | 2026-08-31 11:48:41 | 54.39550 | 13.97279 | 61° | 46km/h | 15415m | 5m/s | -49.9°C | 1.2% | 118.1hPa | 2.8V | 18:12:15 | 00:58:14 | 00:00:00 | |
| DO2SHX-10 | 2026-08-31 11:48:40 | 54.39545 | 13.97261 | 63° | 49km/h | 15411m | 3.4m/s | -49.9°C | 3.9% | 118.1hPa | 2.7V | 00:00:00 | 00:58:13 | 00:00:00 | |
| DL1XH-15 | 2026-08-31 11:48:39 | 54.39505 | 13.97140 | 57° | 62km/h | 15384m | 5.4m/s | -50°C | 4% | 118.7hPa | 2.7V | 08:30:00 | 00:58:07 | 00:00:00 | |
| DL1XH1-15 | 2026-08-31 11:48:38 | 54.39528 | 13.97203 | 61° | 53km/h | 15397m | 5.2m/s | -50°C | 4% | 118.4hPa | 2.7V | 08:30:00 | 00:58:10 | 00:00:00 | |
| AM1SDL-15 | 2026-08-31 11:48:38 | 54.39534 | 13.97223 | 65° | 57km/h | 15402m | 4.0m/s | -49.9°C | 4.0% | 118.3hPa | 2.7V | 00:00:00 | 00:58:11 | 00:00:00 | |
| DM0DOS-11 | 2026-08-31 11:48:37 | 54.39497 | 13.97117 | 58° | 64km/h | 15379m | 4.5m/s | -50.1°C | 3.9% | 118.7hPa | 2.7V | 08:30:00 | 00:58:06 | 00:00:00 | |
| AA1-15 | 2026-08-31 11:48:35 | 54.39514 | 13.97162 | 57° | 60km/h | 15388m | 3.4m/s | -50°C | 1.2% | 118.6hPa | 2.8V | 18:12:15 | 00:58:08 | 00:00:00 | |
| DL1XH-west | 2026-08-31 11:48:31 | 54.39479 | 13.97071 | 56° | 62km/h | 15370m | 5.1m/s | -50°C | 1.3% | 118.9hPa | 2.8V | 18:12:15 | 00:58:04 | 00:00:00 | |
| DF8AY | 2026-08-31 11:48:30 | 54.39423 | 13.96909 | 61° | 55km/h | 15335m | 4.8m/s | -50.2°C | 1.3% | 119.6hPa | 2.7V | 18:12:15 | 00:57:56 | 00:00:00 | |
| DO2SHX-10 | 2026-08-31 11:48:30 | 54.39471 | 13.97049 | 56° | 57km/h | 15366m | 3.8m/s | -49.9°C | 4.0% | 119.0hPa | 2.7V | 00:00:00 | 00:58:03 | 00:00:00 | |
| DL1XH1-15 | 2026-08-31 11:48:28 | 54.39449 | 13.96988 | 61° | 51km/h | 15352m | 4.4m/s | -50°C | 4% | 119.3hPa | 2.7V | 08:30:00 | 00:58:00 | 00:00:00 | |
| DM0DOS-11 | 2026-08-31 11:48:27 | 54.39423 | 13.96909 | 61° | 55km/h | 15335m | 4.8m/s | -50.2°C | 4% | 119.6hPa | 2.7V | 08:30:00 | 00:57:56 | 00:00:00 | |
| DL1XH-15 | 2026-08-31 11:48:27 | 54.39429 | 13.96930 | 59° | 53km/h | 15339m | 3.5m/s | -50.2°C | 4% | 119.5hPa | 2.8V | 08:30:00 | 00:57:57 | 00:00:00 | |
| AA1-15 | 2026-08-31 11:48:24 | 54.39429 | 13.96930 | 60° | 53km/h | 15339m | 3.5m/s | -50.2°C | 1.3% | 119.5hPa | 2.8V | 18:12:15 | 00:57:57 | 00:00:00 | |
| DL1XH-west | 2026-08-31 11:48:21 | 54.39409 | 13.96867 | 59° | 57km/h | 15326m | 5.5m/s | -50.2°C | 1.3% | 119.7hPa | 2.7V | 18:12:15 | 00:57:54 | 00:00:00 | |
| EDDB2-11 | 2026-08-31 11:48:19 | 54.39393 | 13.96826 | 57° | 57km/h | 15317m | 4.2m/s | -50.1°C | 1.7% | 119.9hPa | 2.8V | 00:00:00 | 00:00:00 | 00:00:00 | |
| DM0DOS-11 | 2026-08-31 11:48:16 | 54.39345 | 13.96707 | 54° | 51km/h | 15289m | 4.7m/s | -50°C | 4% | 120.4hPa | 2.8V | 08:30:00 | 00:57:46 | 00:00:00 | |
| AA1-15 | 2026-08-31 11:48:13 | 54.39345 | 13.96707 | 54° | 51km/h | 15289m | 4.7m/s | -50°C | 1.3% | 120.4hPa | 2.8V | 18:12:15 | 00:57:46 | 00:00:00 | |
| DL1XH-west | 2026-08-31 11:48:10 | 54.39323 | 13.96657 | 52° | 46km/h | 15275m | 4.3m/s | -50.1°C | 1.2% | 120.7hPa | 2.7V | 18:12:15 | 00:57:43 | 00:00:00 | |
| DL1XH1-15 | 2026-08-31 11:48:08 | 54.39302 | 13.96608 | 55° | 47km/h | 15260m | 3.1m/s | -50.1°C | 3.9% | 121hPa | 2.8V | 08:30:00 | 00:57:40 | 00:00:00 | |
| DM0DOS-11 | 2026-08-31 11:48:06 | 54.39273 | 13.96542 | 52° | 51km/h | 15242m | 4.9m/s | -50.3°C | 4% | 121.3hPa | 2.7V | 08:30:00 | 00:57:36 | 00:00:00 | |
| AA1-15 | 2026-08-31 11:48:03 | 54.39265 | 13.96525 | 51° | 49km/h | 15238m | 3.7m/s | -50.4°C | 1.3% | 121.3hPa | 2.8V | 18:12:15 | 00:57:35 | 00:00:00 | |
| SONDE2-11 | 2026-08-31 11:48:03 | 54.39265 | 13.96525 | 51° | 49km/h | 15238m | 3.7m/s | -50.4°C | 1.6% | 121.3hPa | 2.8V | 00:00:00 | 00:00:00 | 00:00:00 | |
| EDDB2-12 | 2026-08-31 11:48:02 | 54.39257 | 13.96508 | 48° | 49km/h | 15233m | 5.3m/s | -50.3°C | 1.7% | 121.5hPa | 2.8V | 00:00:00 | 00:00:00 | 00:00:00 | |
| DO2SHX-10 | 2026-08-31 11:48:01 | 54.39257 | 13.96508 | 49° | 47km/h | 15233m | 5.3m/s | -50.3°C | 4.0% | 121.4hPa | 2.8V | 00:00:00 | 00:57:34 | 00:00:00 | |
| DL1XH1-15 | 2026-08-31 11:48:00 | 54.39224 | 13.96450 | 46° | 46km/h | 15215m | 4.5m/s | -50.4°C | 4% | 121.8hPa | 2.8V | 08:30:00 | 00:57:30 | 00:00:00 | |
| DL1XH-west | 2026-08-31 11:47:59 | 54.39241 | 13.96479 | 45° | 46km/h | 15224m | 3.3m/s | -50.4°C | 1.3% | 121.6hPa | 2.7V | 18:12:15 | 00:57:32 | 00:00:00 | |
| DL1XH-15 | 2026-08-31 11:47:57 | 54.39200 | 13.96408 | 43° | 44km/h | 15201m | 4.2m/s | -50.4°C | 4.1% | 122hPa | 2.7V | 08:30:00 | 00:57:27 | 00:00:00 | |
| AA1-15 | 2026-08-31 11:47:51 | 54.39178 | 13.96367 | 50° | 42km/h | 15188m | 3.8m/s | -50.3°C | 1.3% | 122.3hPa | 2.8V | 18:12:15 | 00:57:24 | 00:00:00 | |
| DL1XH-west | 2026-08-31 11:47:49 | 54.39164 | 13.96341 | 49° | 38km/h | 15178m | 4m/s | -50.4°C | 1.4% | 122.4hPa | 2.7V | 18:12:15 | 00:57:22 | 00:00:00 | |
| DO2SHX-10 | 2026-08-31 11:47:49 | 54.39164 | 13.96340 | 49° | 38km/h | 15178m | 3.9m/s | -50.3°C | 4.2% | 122.4hPa | 2.7V | 00:00:00 | 00:57:22 | 00:00:00 | |
| AM1SDL-15 | 2026-08-31 11:47:48 | 54.39158 | 13.96328 | 51° | 38km/h | 15174m | 4.5m/s | -50.4°C | 4.2% | 122.5hPa | 2.7V | 00:00:00 | 00:57:21 | 00:00:00 | |
| DO2SHX-10 | 2026-08-31 11:47:46 | 54.39145 | 13.96302 | 51° | 38km/h | 15165m | 4.1m/s | -50.3°C | 4.1% | 122.6hPa | 2.8V | 00:00:00 | 00:57:19 | 00:00:00 | |
| DM0DOS-11 | 2026-08-31 11:47:44 | 54.39125 | 13.96264 | 45° | 40km/h | 15152m | 5.2m/s | -50.4°C | 4.1% | 122.9hPa | 2.8V | 08:30:00 | 00:57:16 | 00:00:00 | |
| DF8AY | 2026-08-31 11:47:41 | 54.39059 | 13.96126 | 52° | 37km/h | 15101m | 4.3m/s | -50.3°C | 1.4% | 123.9hPa | 2.8V | 18:12:15 | 00:57:05 | 00:00:00 | |
| AA1-15 | 2026-08-31 11:47:41 | 54.39105 | 13.96226 | 47° | 38km/h | 15138m | 5.1m/s | -50.3°C | 1.3% | 123.2hPa | 2.7V | 18:12:15 | 00:57:13 | 00:00:00 | |
| DL1XH-west | 2026-08-31 11:47:39 | 54.39092 | 13.96201 | 52° | 37km/h | 15128m | 5.6m/s | -50.3°C | 1.3% | 123.4hPa | 2.8V | 18:12:15 | 00:57:11 | 00:00:00 | |
| DL1XH1-15 | 2026-08-31 11:47:39 | 54.39087 | 13.96188 | 54° | 38km/h | 15124m | 4.1m/s | -50.3°C | 4% | 123.5hPa | 2.8V | 08:30:00 | 00:57:10 | 00:00:00 | |
| DO2SHX-10 | 2026-08-31 11:47:37 | 54.39087 | 13.96188 | 55° | 37km/h | 15124m | 4.0m/s | -50.3°C | 4.0% | 123.5hPa | 2.7V | 00:00:00 | 00:57:10 | 00:00:00 | |
| DL1XH-15 | 2026-08-31 11:47:36 | 54.39070 | 13.96150 | 50° | 35km/h | 15111m | 3.6m/s | -50.3°C | 4.1% | 123.8hPa | 2.7V | 08:30:00 | 00:57:07 | 00:00:00 | |
| AA1-15 | 2026-08-31 11:47:29 | 54.39043 | 13.96091 | 55° | 29km/h | 15088m | 4.2m/s | -50.1°C | 1.3% | 124.2hPa | 2.7V | 18:12:15 | 00:57:02 | 00:00:00 | |
| DL1XH1-15 | 2026-08-31 11:47:28 | 54.39035 | 13.96069 | 58° | 31km/h | 15078m | 4.4m/s | -50.1°C | 4.1% | 124.4hPa | 2.8V | 08:30:00 | 00:57:00 | 00:00:00 | |
| DF8AY | 2026-08-31 11:47:27 | 54.39035 | 13.96069 | 58° | 31km/h | 15078m | 4.4m/s | -50.1°C | 1.4% | 124.4hPa | 2.8V | 18:12:15 | 00:57:00 | 00:00:00 | |
| DL1XH-15 | 2026-08-31 11:47:26 | 54.39023 | 13.96037 | 56° | 27km/h | 15063m | 5.6m/s | -50.1°C | 4.1% | 124.6hPa | 2.7V | 08:30:00 | 00:56:57 | 00:00:00 | |
| DM0DOS-11 | 2026-08-31 11:47:25 | 54.39019 | 13.96027 | 55° | 27km/h | 15059m | 1.4m/s | -50°C | 4.1% | 124.7hPa | 2.7V | 08:30:00 | 00:56:56 | 00:00:00 | |
| AA1-15 | 2026-08-31 11:47:18 | 54.38995 | 13.95968 | 57° | 35km/h | 15035m | 4.8m/s | -50°C | 1.4% | 125.1hPa | 2.7V | 18:12:15 | 00:56:51 | 00:00:00 | |
| DL1XH1-15 | 2026-08-31 11:47:18 | 54.38990 | 13.95954 | 59° | 37km/h | 15030m | 5.3m/s | -49.9°C | 4% | 125.2hPa | 2.7V | 08:30:00 | 00:56:50 | 00:00:00 | |
| EDDB2-11 | 2026-08-31 11:47:17 | 54.38990 | 13.95954 | 59° | 37km/h | 15031m | 5.3m/s | -49.9°C | 1.7% | 125.2hPa | 2.7V | 00:00:00 | 00:00:00 | 00:00:00 | |
| DL1XH-west | 2026-08-31 11:47:17 | 54.38990 | 13.95954 | 59° | 37km/h | 15030m | 5.3m/s | -49.9°C | 1.2% | 125.2hPa | 2.7V | 18:12:15 | 00:56:50 | 00:00:00 | |
| DO2SHX-10 | 2026-08-31 11:47:16 | 54.38986 | 13.95940 | 65° | 38km/h | 15025m | 6.0m/s | -49.8°C | 4.0% | 125.3hPa | 2.7V | 00:00:00 | 00:56:49 | 00:00:00 | |
| DL1XH-15 | 2026-08-31 11:47:16 | 54.38979 | 13.95908 | 73° | 38km/h | 15016m | 4.7m/s | -49.6°C | 3.9% | 125.5hPa | 2.8V | 08:30:00 | 00:56:47 | 00:00:00 | |
| DF8AY | 2026-08-31 11:47:10 | 54.38934 | 13.95665 | 65° | 42km/h | 14932m | 6.6m/s | -49°C | 1.2% | 127.1hPa | 2.8V | 18:12:15 | 00:56:31 | 00:00:00 | |
| DO2SHX-10 | 2026-08-31 11:47:10 | 54.38972 | 13.95852 | 75° | 31km/h | 14994m | 4.8m/s | -49.5°C | 4.0% | 125.9hPa | 2.8V | 00:00:00 | 00:56:43 | 00:00:00 | |
| DM0DOS-11 | 2026-08-31 11:47:09 | 54.38950 | 13.95734 | 68° | 44km/h | 14953m | 5m/s | -49.1°C | 4% | 126.8hPa | 2.8V | 08:30:00 | 00:56:35 | 00:00:00 | |
| DL1XH1-15 | 2026-08-31 11:47:08 | 54.38964 | 13.95815 | 70° | 31km/h | 14980m | 6.9m/s | -49.4°C | 4% | 126.2hPa | 2.8V | 08:30:00 | 00:56:40 | 00:00:00 | |
| AA1-15 | 2026-08-31 11:47:07 | 54.38964 | 13.95814 | 70° | 31km/h | 14981m | 6.9m/s | -49.4°C | 1.2% | 126.2hPa | 2.8V | 18:12:15 | 00:56:40 | 00:00:00 | |
| DL1XH-west | 2026-08-31 11:47:07 | 54.38962 | 13.95801 | 75° | 35km/h | 14974m | 6.3m/s | -49.3°C | 1.3% | 126.3hPa | 2.7V | 18:12:15 | 00:56:39 | 00:00:00 | |
| DL1XH-15 | 2026-08-31 11:47:06 | 54.38957 | 13.95769 | 73° | 40km/h | 14964m | 6.1m/s | -49.1°C | 4% | 126.5hPa | 2.7V | 08:30:00 | 00:56:37 | 00:00:00 | |
| DF8AY | 2026-08-31 11:47:01 | 54.38924 | 13.95634 | 61° | 38km/h | 14919m | 6.3m/s | -48.9°C | 1.2% | 127.4hPa | 2.8V | 18:12:15 | 00:56:29 | 00:00:00 | |
| AA1-15 | 2026-08-31 11:46:57 | 54.38929 | 13.95649 | 61° | 40km/h | 14925m | 7m/s | -48.9°C | 1.2% | 127.2hPa | 2.8V | 18:12:15 | 00:56:30 | 00:00:00 | |
| DL1XH-15 | 2026-08-31 11:46:56 | 54.38916 | 13.95605 | 62° | 38km/h | 14909m | 4.3m/s | -49°C | 3.9% | 127.6hPa | 2.7V | 08:30:00 | 00:56:27 | 00:00:00 | |
| DM0DOS-11 | 2026-08-31 11:46:55 | 54.38911 | 13.95590 | 61° | 42km/h | 14904m | 6.4m/s | -48.9°C | 3.8% | 127.7hPa | 2.7V | 08:30:00 | 00:56:26 | 00:00:00 | |
| DL1XH-west | 2026-08-31 11:46:55 | 54.38920 | 13.95620 | 63° | 37km/h | 14914m | 4.1m/s | -49°C | 1.2% | 127.5hPa | 2.7V | 18:12:15 | 00:56:28 | 00:00:00 | |
| DO2SHX-10 | 2026-08-31 11:46:55 | 54.38920 | 13.95620 | 63° | 42km/h | 14914m | 4.0m/s | -49.0°C | 3.9% | 127.5hPa | 2.8V | 00:00:00 | 00:56:28 | 00:00:00 | |
| DL1XH1-15 | 2026-08-31 11:46:52 | 54.38881 | 13.95470 | 74° | 49km/h | 14865m | 4.8m/s | -48.6°C | 3.8% | 128.4hPa | 2.8V | 08:30:00 | 00:56:19 | 00:00:00 | |
| AA1-15 | 2026-08-31 11:46:47 | 54.38881 | 13.95470 | 75° | 49km/h | 14865m | 4.8m/s | -48.6°C | 1.1% | 128.4hPa | 2.8V | 18:12:15 | 00:56:19 | 00:00:00 | |
| DL1XH-15 | 2026-08-31 11:46:47 | 54.38874 | 13.95427 | 73° | 53km/h | 14857m | 4.6m/s | -48.6°C | 3.7% | 128.6hPa | 2.8V | 08:30:00 | 00:56:17 | 00:00:00 | |
| EDDB2-11 | 2026-08-31 11:46:46 | 54.38881 | 13.95470 | 74° | 49km/h | 14866m | 4.8m/s | -48.6°C | 1.6% | 128.4hPa | 2.8V | 00:00:00 | 00:00:00 | 00:00:00 | |
| DM0DOS-11 | 2026-08-31 11:46:45 | 54.38870 | 13.95405 | 71° | 51km/h | 14852m | 5.8m/s | -48.6°C | 3.7% | 128.7hPa | 2.8V | 08:30:00 | 00:56:16 | 00:00:00 | |
| DL1XH-west | 2026-08-31 11:46:44 | 54.38874 | 13.95427 | 74° | 53km/h | 14857m | 4.6m/s | -48.6°C | 1.1% | 128.6hPa | 2.8V | 18:12:15 | 00:56:17 | 00:00:00 | |
| DF8AY | 2026-08-31 11:46:44 | 54.38866 | 13.95385 | 69° | 49km/h | 14847m | 4.6m/s | -48.6°C | 1.1% | 128.8hPa | 2.7V | 18:12:15 | 00:56:15 | 00:00:00 | |
| DL1XH1-15 | 2026-08-31 11:46:41 | 54.38828 | 13.95254 | 65° | 47km/h | 14814m | 5.2m/s | -48.6°C | 3.8% | 129.5hPa | 2.7V | 08:30:00 | 00:56:08 | 00:00:00 | |
| DO2SHX-10 | 2026-08-31 11:46:41 | 54.38861 | 13.95365 | 66° | 49km/h | 14842m | 4.6m/s | -48.5°C | 3.7% | 128.9hPa | 2.7V | 00:00:00 | 00:56:14 | 00:00:00 | |
| DO2SHX-10 | 2026-08-31 11:46:38 | 54.38844 | 13.95308 | 63° | 46km/h | 14828m | 4.7m/s | -48.5°C | 3.6% | 129.1hPa | 2.7V | 00:00:00 | 00:56:11 | 08:30:00 | |
| DL1XH-15 | 2026-08-31 11:46:37 | 54.38823 | 13.95235 | 67° | 51km/h | 14809m | 5.1m/s | -48.7°C | 3.8% | 129.6hPa | 2.7V | 08:30:00 | 00:56:07 | 00:00:00 | |
| AA1-15 | 2026-08-31 11:46:35 | 54.38828 | 13.95254 | 65° | 47km/h | 14814m | 5.2m/s | -48.6°C | 1.1% | 129.5hPa | 2.7V | 18:12:15 | 00:56:08 | 00:00:00 | |
| DM0DOS-11 | 2026-08-31 11:46:34 | 54.38819 | 13.95214 | 69° | 53km/h | 14804m | 5.1m/s | -48.8°C | 3.9% | 129.7hPa | 2.8V | 08:30:00 | 00:56:06 | 00:00:00 | |
| DL1XH-west | 2026-08-31 11:46:33 | 54.38819 | 13.95214 | 70° | 53km/h | 14804m | 5.1m/s | -48.8°C | 1.2% | 129.7hPa | 2.8V | 18:12:15 | 00:56:06 | 00:00:00 | |
| DO2SHX-10 | 2026-08-31 11:46:32 | 54.38814 | 13.95192 | 74° | 55km/h | 14799m | 5.6m/s | -48.7°C | 3.9% | 129.7hPa | 2.7V | 00:00:00 | 00:56:05 | 00:00:00 | |
| DL1XH1-15 | 2026-08-31 11:46:30 | 54.38780 | 13.95028 | 63° | 53km/h | 14765m | 4.7m/s | -48.6°C | 3.8% | 130.4hPa | 2.7V | 08:30:00 | 00:55:58 | 00:00:00 | |
| EDDB2-12 | 2026-08-31 11:46:29 | 54.38797 | 13.95097 | 68° | 60km/h | 14780m | 3.8m/s | -48.7°C | 1.7% | 130.1hPa | 2.7V | 00:00:00 | 00:00:00 | 00:00:00 | |
| DM0DOS-11 | 2026-08-31 11:46:28 | 54.38767 | 13.94990 | 57° | 47km/h | 14754m | 5.1m/s | -48.5°C | 3.7% | 130.6hPa | 2.7V | 08:30:00 | 00:55:56 | 00:00:00 | |
| S3001 | 2026-08-31 11:46:27 | 54.38791 | 13.95072 | 67° | 58km/h | 14775m | 4.9m/s | -48.6°C | 1.6% | 130.2hPa | 2.7V | 00:00:00 | 00:00:00 | 00:00:00 | |
| DL1XH-15 | 2026-08-31 11:46:26 | 54.38774 | 13.95008 | 60° | 49km/h | 14760m | 5.8m/s | -48.6°C | 3.8% | 130.5hPa | 2.7V | 08:30:00 | 00:55:57 | 00:00:00 | |
| AA1-15 | 2026-08-31 11:46:24 | 54.38774 | 13.95008 | 61° | 49km/h | 14760m | 5.8m/s | -48.6°C | 1.2% | 130.5hPa | 2.7V | 18:12:15 | 00:55:57 | 00:00:00 | |
| DL1XH-west | 2026-08-31 11:46:23 | 54.38767 | 13.94990 | 58° | 49km/h | 14754m | 5.1m/s | -48.5°C | 1.1% | 130.6hPa | 2.7V | 18:12:15 | 00:55:56 | 00:00:00 | |
| DO2SHX-10 | 2026-08-31 11:46:23 | 54.38767 | 13.94990 | 58° | 46km/h | 14754m | 5.1m/s | -48.5°C | 3.7% | 130.6hPa | 2.7V | 00:00:00 | 00:55:56 | 00:00:00 | |
| DL1XH1-15 | 2026-08-31 11:46:20 | 54.38713 | 13.94839 | 58° | 71km/h | 14710m | 6.6m/s | -48.8°C | 3.7% | 131.5hPa | 2.7V | 08:30:00 | 00:55:48 | 00:00:00 | |
| DG6HD-15 | 2026-08-31 11:46:20 | 54.38750 | 13.94940 | 62° | 42km/h | 14741m | 5.5m/s | -48.5°C | 1.6% | 130.9hPa | 2.8V | 00:00:00 | 00:00:00 | 00:00:00 | |
| DM0DOS-11 | 2026-08-31 11:46:18 | 54.38695 | 13.94784 | 65° | 73km/h | 14696m | 6.5m/s | -48.7°C | 3.7% | 131.8hPa | 2.8V | 08:30:00 | 00:55:46 | 00:00:00 | |
| DL1XH-15 | 2026-08-31 11:46:16 | 54.38704 | 13.94812 | 60° | 75km/h | 14702m | 7.1m/s | -48.7°C | 3.7% | 131.6hPa | 2.7V | 08:30:00 | 00:55:47 | 00:00:00 | |
| AA1-15 | 2026-08-31 11:46:13 | 54.38695 | 13.94784 | 65° | 73km/h | 14696m | 6.5m/s | -48.7°C | 1.1% | 131.8hPa | 2.8V | 18:12:15 | 00:55:46 | 00:00:00 | |
| DL1XH-west | 2026-08-31 11:46:12 | 54.38688 | 13.94755 | 68° | 73km/h | 14690m | 5.1m/s | -48.6°C | 1.1% | 131.9hPa | 2.8V | 18:12:15 | 00:55:45 | 00:00:00 | |
| DF8AY | 2026-08-31 11:46:11 | 54.38681 | 13.94726 | 67° | 71km/h | 14684m | 6.2m/s | -48.5°C | 1.1% | 132hPa | 2.8V | 18:12:15 | 00:55:44 | 00:00:00 | |
| AM1SDL-15 | 2026-08-31 11:46:11 | 54.38681 | 13.94726 | 67° | 71km/h | 14685m | 6.1m/s | -48.5°C | 3.7% | 132.0hPa | 2.7V | 00:00:00 | 00:55:44 | 00:00:00 | |
| DO2SHX-10 | 2026-08-31 11:46:10 | 54.38673 | 13.94698 | 65° | 73km/h | 14678m | 6.2m/s | -48.5°C | 3.6% | 132.1hPa | 2.7V | 00:00:00 | 00:55:43 | 08:30:00 | |
| DO2SHX-10 | 2026-08-31 11:46:07 | 54.38645 | 13.94614 | 58° | 73km/h | 14661m | 4.0m/s | -48.4°C | 3.6% | 132.4hPa | 2.7V | 00:00:00 | 00:55:40 | 00:00:00 | |
| DL1XH-15 | 2026-08-31 11:46:06 | 54.38617 | 13.94534 | 59° | 71km/h | 14647m | 3.6m/s | -48.4°C | 3.5% | 132.8hPa | 2.7V | 08:30:00 | 00:55:37 | 00:00:00 | |
| DM0DOS-11 | 2026-08-31 11:46:05 | 54.38607 | 13.94508 | 58° | 69km/h | 14643m | 4.9m/s | -48.5°C | 3.6% | 132.9hPa | 2.7V | 08:30:00 | 00:55:36 | 00:00:00 | |
| AA1-15 | 2026-08-31 11:46:02 | 54.38598 | 13.94482 | 58° | 69km/h | 14639m | 4m/s | -48.5°C | 1% | 133hPa | 2.8V | 18:12:15 | 00:55:35 | 00:00:00 | |
| DL1XH-west | 2026-08-31 11:46:01 | 54.38589 | 13.94457 | 60° | 68km/h | 14635m | 4.5m/s | -48.7°C | 1% | 133.1hPa | 2.8V | 18:12:15 | 00:55:34 | 00:00:00 | |
| SONDE2-11 | 2026-08-31 11:45:58 | 54.38559 | 13.94357 | 59° | 66km/h | 14616m | 4.4m/s | -48.8°C | 1.6% | 133.5hPa | 2.7V | 00:00:00 | 00:00:00 | 00:00:00 | |
| DL1XH-15 | 2026-08-31 11:45:57 | 54.38529 | 13.94280 | 55° | 75km/h | 14602m | 4.8m/s | -49.3°C | 3.8% | 133.7hPa | 2.7V | 08:30:00 | 00:55:27 | 00:00:00 | |
| S3001 | 2026-08-31 11:45:56 | 54.38550 | 13.94332 | 57° | 69km/h | 14612m | 4.5m/s | -49.0°C | 1.6% | 133.6hPa | 2.7V | 00:00:00 | 00:00:00 | 00:00:00 | |
| DM0DOS-11 | 2026-08-31 11:45:54 | 54.38519 | 13.94254 | 53° | 73km/h | 14597m | 4.2m/s | -49.5°C | 3.8% | 133.8hPa | 2.7V | 08:30:00 | 00:55:26 | 00:00:00 | |
| DL1XH-west | 2026-08-31 11:45:51 | 54.38496 | 13.94204 | 52° | 73km/h | 14587m | 4.4m/s | -49.7°C | 1.3% | 134hPa | 2.8V | 18:12:15 | 00:55:24 | 00:00:00 | |
| DF8AY | 2026-08-31 11:45:50 | 54.38485 | 13.94179 | 53° | 73km/h | 14582m | 6.2m/s | -49.9°C | 1.2% | 134.2hPa | 2.8V | 18:12:15 | 00:55:23 | 00:00:00 | |
| SP3WXH-11 | 2026-08-31 11:45:50 | 54.38474 | 13.94153 | 55° | 73km/h | 14577m | 4.5m/s | -49.9°C | 1.7% | 134.3hPa | 2.7V | 00:00:00 | 00:00:00 | 00:00:00 | |
| DM0DOS-11 | 2026-08-31 11:45:49 | 54.38414 | 13.93995 | 54° | 73km/h | 14550m | 3m/s | -49.8°C | 3.9% | 134.8hPa | 2.7V | 08:30:00 | 00:55:16 | 00:00:00 | |
| DL1XH1-15 | 2026-08-31 11:45:48 | 54.38435 | 13.94048 | 58° | 71km/h | 14559m | 5.3m/s | -49.9°C | 3.9% | 134.6hPa | 2.8V | 08:30:00 | 00:55:18 | 00:00:00 | |
| DF8AY | 2026-08-31 11:45:40 | 54.38298 | 13.93781 | 47° | 73km/h | 14511m | 5.2m/s | -50.4°C | 1.4% | 135.6hPa | 2.7V | 18:12:15 | 00:55:07 | 00:00:00 | |
| DL1XH-west | 2026-08-31 11:45:40 | 54.38379 | 13.93922 | 46° | 75km/h | 14537m | 4.9m/s | -50.1°C | 1.3% | 135.1hPa | 2.8V | 18:12:15 | 00:55:13 | 00:00:00 | |
| DO2SHX-10 | 2026-08-31 11:45:39 | 54.38365 | 13.93898 | 46° | 73km/h | 14532m | 4.7m/s | -50.1°C | 4.0% | 135.1hPa | 2.8V | 00:00:00 | 00:55:12 | 00:00:00 | |
| DL1XH1-15 | 2026-08-31 11:45:38 | 54.38311 | 13.93804 | 45° | 73km/h | 14515m | 3.8m/s | -50.4°C | 4.1% | 135.5hPa | 2.8V | 08:30:00 | 00:55:08 | 00:00:00 | |
| DL1XH-15 | 2026-08-31 11:45:37 | 54.38298 | 13.93781 | 47° | 73km/h | 14510m | 5.2m/s | -50.4°C | 4.2% | 135.6hPa | 2.7V | 08:30:00 | 00:55:07 | 00:00:00 | |
| DM0DOS-11 | 2026-08-31 11:45:35 | 54.38286 | 13.93758 | 49° | 73km/h | 14505m | 4.8m/s | -50.2°C | 4.1% | 135.7hPa | 2.7V | 08:30:00 | 00:55:06 | 00:00:00 | |
| AM1SDL-15 | 2026-08-31 11:45:34 | 54.38298 | 13.93781 | 48° | 71km/h | 14511m | 5.1m/s | -50.3°C | 4.2% | 135.6hPa | 2.8V | 00:00:00 | 00:55:07 | 00:00:00 | |
| DL1XH1-15 | 2026-08-31 11:45:30 | 54.38195 | 13.93564 | 48° | 71km/h | 14469m | 4.6m/s | -50°C | 4.1% | 136.5hPa | 2.8V | 08:30:00 | 00:54:58 | 00:00:00 | |
| DL1XH-west | 2026-08-31 11:45:29 | 54.38240 | 13.93661 | 52° | 71km/h | 14487m | 5.1m/s | -50.2°C | 1.4% | 136.1hPa | 2.7V | 18:12:15 | 00:55:02 | 00:00:00 | |
| DF8AY | 2026-08-31 11:45:26 | 54.38183 | 13.93541 | 49° | 71km/h | 14464m | 4.9m/s | -50°C | 1.3% | 136.6hPa | 2.8V | 18:12:15 | 00:54:57 | 00:00:00 | |
| DL1XH-15 | 2026-08-31 11:45:26 | 54.38183 | 13.93541 | 48° | 71km/h | 14464m | 4.9m/s | -50°C | 4% | 136.6hPa | 2.8V | 08:30:00 | 00:54:57 | 00:00:00 | |
| DM0DOS-11 | 2026-08-31 11:45:25 | 54.38171 | 13.93517 | 48° | 73km/h | 14459m | 4.8m/s | -50°C | 4% | 136.7hPa | 2.7V | 08:30:00 | 00:54:56 | 00:00:00 | |
| DL1XH-west | 2026-08-31 11:45:20 | 54.38100 | 13.93377 | 50° | 73km/h | 14431m | 2.9m/s | -50.1°C | 1.4% | 137.3hPa | 2.7V | 18:12:15 | 00:54:50 | 00:00:00 | |
| DL1XH1-15 | 2026-08-31 11:45:19 | 54.38076 | 13.93330 | 46° | 69km/h | 14421m | 4.1m/s | -50.1°C | 4.1% | 137.5hPa | 2.8V | 08:30:00 | 00:54:48 | 00:00:00 | |
| SP3WXH-11 | 2026-08-31 11:45:19 | 54.38111 | 13.93401 | 50° | 73km/h | 14434m | 4.2m/s | -50.2°C | 1.8% | 137.2hPa | 2.8V | 00:00:00 | 00:00:00 | 00:00:00 | |
| DL1XH-15 | 2026-08-31 11:45:18 | 54.38064 | 13.93309 | 45° | 68km/h | 14417m | 4.6m/s | -50°C | 4.2% | 137.6hPa | 2.8V | 08:30:00 | 00:54:47 | 00:00:00 | |
| EDDB2-11 | 2026-08-31 11:45:13 | 54.38052 | 13.93287 | 45° | 68km/h | 14412m | 5.3m/s | -50.0°C | 1.8% | 137.7hPa | 2.7V | 00:00:00 | 00:00:00 | 00:00:00 | |
| AM1SDL-15 | 2026-08-31 11:45:10 | 54.38012 | 13.93227 | 38° | 73km/h | 14398m | 6.2m/s | -49.9°C | 4.2% | 137.9hPa | 2.7V | 00:00:00 | 00:54:43 | 00:00:00 | |
| DL1XH1-15 | 2026-08-31 11:45:08 | 54.37936 | 13.93126 | 40° | 78km/h | 14374m | 4.4m/s | -50°C | 4% | 138.5hPa | 2.7V | 08:30:00 | 00:54:38 | 00:00:00 | |
| AA1-15 | 2026-08-31 11:45:07 | 54.37967 | 13.93169 | 39° | 77km/h | 14383m | 4.4m/s | -50°C | 1.3% | 138.3hPa | 2.7V | 18:12:15 | 00:54:40 | 00:00:00 | |
| DL1XH-15 | 2026-08-31 11:45:06 | 54.37922 | 13.93105 | 41° | 75km/h | 14370m | 3.4m/s | -49.9°C | 4% | 138.6hPa | 2.8V | 08:30:00 | 00:54:37 | 00:00:00 | |
| DM0DOS-11 | 2026-08-31 11:45:05 | 54.37907 | 13.93083 | 44° | 75km/h | 14366m | 5.9m/s | -49.9°C | 4% | 138.7hPa | 2.8V | 08:30:00 | 00:54:36 | 00:00:00 | |
| DF8AY | 2026-08-31 11:45:02 | 54.37895 | 13.93060 | 48° | 73km/h | 14360m | 4.7m/s | -49.8°C | 1.3% | 138.8hPa | 2.8V | 18:12:15 | 00:54:35 | 00:00:00 | |
| DM0DOS-11 | 2026-08-31 11:44:59 | 54.37772 | 13.92878 | 36° | 64km/h | 14315m | 4.1m/s | -49.7°C | 4% | 139.7hPa | 2.8V | 08:30:00 | 00:54:26 | 00:00:00 | |
| DL1XH-west | 2026-08-31 11:44:58 | 54.37845 | 13.92970 | 41° | 73km/h | 14340m | 4.7m/s | -49.8°C | 1.3% | 139.2hPa | 2.8V | 18:12:15 | 00:54:31 | 00:00:00 | |
| AA1-15 | 2026-08-31 11:44:57 | 54.37831 | 13.92950 | 37° | 75km/h | 14336m | 4m/s | -49.8°C | 1.4% | 139.3hPa | 2.7V | 18:12:15 | 00:54:30 | 00:00:00 | |
| DL1XH-15 | 2026-08-31 11:44:56 | 54.37786 | 13.92895 | 35° | 69km/h | 14320m | 5.9m/s | -49.8°C | 4% | 139.7hPa | 2.8V | 08:30:00 | 00:54:27 | 00:00:00 | |
| DF8AY | 2026-08-31 11:44:52 | 54.37747 | 13.92847 | 35° | 60km/h | 14305m | 5.5m/s | -49.6°C | 1.3% | 140hPa | 2.7V | 18:12:15 | 00:54:24 | 00:00:00 | |
| DL1XH1-15 | 2026-08-31 11:44:50 | 54.37669 | 13.92739 | 38° | 71km/h | 14274m | 7.5m/s | -49.4°C | 3.9% | 140.6hPa | 2.7V | 08:30:00 | 00:54:18 | 00:00:00 | |
| DO2SHX-10 | 2026-08-31 11:44:49 | 54.37723 | 13.92816 | 40° | 66km/h | 14296m | 3.8m/s | -49.5°C | 4.0% | 140.2hPa | 2.8V | 00:00:00 | 00:54:22 | 00:00:00 | |
| DM0DOS-11 | 2026-08-31 11:44:48 | 54.37640 | 13.92703 | 34° | 69km/h | 14263m | 2.9m/s | -49.3°C | 3.9% | 140.9hPa | 2.8V | 08:30:00 | 00:54:16 | 00:00:00 | |
| DL1XH-west | 2026-08-31 11:44:48 | 54.37697 | 13.92778 | 41° | 71km/h | 14286m | 5.6m/s | -49.5°C | 1.3% | 140.4hPa | 2.8V | 18:12:15 | 00:54:20 | 00:00:00 | |
| SP3WXH-11 | 2026-08-31 11:44:48 | 54.37697 | 13.92778 | 40° | 71km/h | 14285m | 5.6m/s | -49.5°C | 1.7% | 140.4hPa | 2.8V | 00:00:00 | 00:00:00 | 00:00:00 | |
| DL1XH-15 | 2026-08-31 11:44:47 | 54.37654 | 13.92720 | 35° | 69km/h | 14268m | 5.5m/s | -49.4°C | 3.9% | 140.8hPa | 2.8V | 08:30:00 | 00:54:17 | 00:00:00 | |
| AA1-15 | 2026-08-31 11:44:46 | 54.37683 | 13.92758 | 39° | 73km/h | 14280m | 4.6m/s | -49.4°C | 1.4% | 140.5hPa | 2.7V | 18:12:15 | 00:54:19 | 00:00:00 | |
| DF8AY | 2026-08-31 11:44:40 | 54.37598 | 13.92650 | 38° | 69km/h | 14249m | 4.4m/s | -49.6°C | 1.3% | 141.2hPa | 2.7V | 18:12:15 | 00:54:13 | 00:00:00 | |
| DM0DOS-11 | 2026-08-31 11:44:38 | 54.37503 | 13.92518 | 44° | 71km/h | 14214m | 5.9m/s | -49.8°C | 4.1% | 141.9hPa | 2.8V | 08:30:00 | 00:54:06 | 00:00:00 | |
| DL1XH1-15 | 2026-08-31 11:44:38 | 54.37529 | 13.92560 | 41° | 71km/h | 14224m | 4.1m/s | -49.7°C | 4% | 141.7hPa | 2.7V | 08:30:00 | 00:54:08 | 00:00:00 | |
| DL1XH-west | 2026-08-31 11:44:37 | 54.37556 | 13.92597 | 37° | 68km/h | 14235m | 5.1m/s | -49.7°C | 1.4% | 141.5hPa | 2.8V | 18:12:15 | 00:54:10 | 00:00:00 | |
| AA1-15 | 2026-08-31 11:44:36 | 54.37543 | 13.92579 | 39° | 69km/h | 14229m | 5.4m/s | -49.7°C | 1.4% | 141.6hPa | 2.8V | 18:12:15 | 00:54:09 | 00:00:00 | |
| DG6HD-15 | 2026-08-31 11:44:36 | 54.37543 | 13.92579 | 40° | 69km/h | 14230m | 5.4m/s | -49.7°C | 1.8% | 141.6hPa | 2.7V | 00:00:00 | 00:00:00 | 00:00:00 | |
| DO2SHX-10 | 2026-08-31 11:44:34 | 54.37516 | 13.92539 | 44° | 71km/h | 14220m | 5.4m/s | -49.6°C | 4.0% | 141.8hPa | 2.7V | 00:00:00 | 00:54:07 | 08:30:00 | |
| AM1SDL-15 | 2026-08-31 11:44:32 | 54.37491 | 13.92495 | 47° | 73km/h | 14209m | 3.6m/s | -49.7°C | 4.1% | 142.0hPa | 2.8V | 00:00:00 | 00:54:05 | 00:00:00 | |
| DO2SHX-10 | 2026-08-31 11:44:31 | 54.37478 | 13.92473 | 47° | 75km/h | 14205m | 5.2m/s | -49.7°C | 4.1% | 142.1hPa | 2.8V | 00:00:00 | 00:54:04 | 00:00:00 | |
| DL1XH1-15 | 2026-08-31 11:44:30 | 54.37399 | 13.92339 | 43° | 71km/h | 14177m | 5.7m/s | -49.7°C | 4.1% | 142.7hPa | 2.8V | 08:30:00 | 00:53:58 | 00:00:00 | |
| DF8AY | 2026-08-31 11:44:29 | 54.37386 | 13.92317 | 44° | 71km/h | 14172m | 4.5m/s | -49.6°C | 1.5% | 142.9hPa | 2.7V | 18:12:15 | 00:53:57 | 00:00:00 | |
| DL1XH-west | 2026-08-31 11:44:27 | 54.37412 | 13.92359 | 43° | 71km/h | 14182m | 4m/s | -49.7°C | 1.4% | 142.7hPa | 2.8V | 18:12:15 | 00:53:59 | 00:00:00 | |
| DL1XH-15 | 2026-08-31 11:44:26 | 54.37386 | 13.92317 | 43° | 71km/h | 14172m | 4.5m/s | -49.6°C | 4.1% | 142.9hPa | 2.7V | 08:30:00 | 00:53:57 | 00:00:00 | |
| AA1-15 | 2026-08-31 11:44:25 | 54.37399 | 13.92339 | 43° | 71km/h | 14177m | 5.7m/s | -49.7°C | 1.5% | 142.7hPa | 2.8V | 18:12:15 | 00:53:58 | 00:00:00 | |
| DF8AY | 2026-08-31 11:44:19 | 54.37324 | 13.92209 | 47° | 71km/h | 14149m | 5m/s | -49.5°C | 1.5% | 143.3hPa | 2.7V | 18:12:15 | 00:53:52 | 00:00:00 | |
| DO2SHX-10 | 2026-08-31 11:44:19 | 54.37324 | 13.92209 | 47° | 71km/h | 14149m | 4.9m/s | -49.5°C | 4.2% | 143.3hPa | 2.8V | 00:00:00 | 00:53:52 | 00:00:00 | |
| DL1XH1-15 | 2026-08-31 11:44:18 | 54.37275 | 13.92124 | 44° | 68km/h | 14131m | 4.2m/s | -49.5°C | 4.1% | 143.7hPa | 2.8V | 08:30:00 | 00:53:48 | 00:00:00 | |
| DL1XH-15 | 2026-08-31 11:44:17 | 54.37263 | 13.92104 | 45° | 68km/h | 14127m | 4.8m/s | -49.5°C | 4.1% | 143.8hPa | 2.8V | 08:30:00 | 00:53:47 | 00:00:00 | |
| AA1-15 | 2026-08-31 11:44:15 | 54.37275 | 13.92124 | 45° | 68km/h | 14131m | 4.2m/s | -49.5°C | 1.5% | 143.7hPa | 2.8V | 18:12:15 | 00:53:48 | 00:00:00 | |
| DM0DOS-11 | 2026-08-31 11:44:15 | 54.37251 | 13.92083 | 46° | 69km/h | 14122m | 4.4m/s | -49.5°C | 4.1% | 143.9hPa | 2.7V | 08:30:00 | 00:53:46 | 00:00:00 | |
| DG6HD-15 | 2026-08-31 11:44:14 | 54.37275 | 13.92124 | 46° | 68km/h | 14132m | 4.2m/s | -49.5°C | 1.9% | 143.7hPa | 2.8V | 00:00:00 | 00:00:00 | 00:00:00 | |
| DO2SHX-10 | 2026-08-31 11:44:13 | 54.37251 | 13.92082 | 47° | 69km/h | 14123m | 4.3m/s | -49.4°C | 4.1% | 143.9hPa | 2.8V | 00:00:00 | 00:53:46 | 00:00:00 | |
| EDDB2-11 | 2026-08-31 11:44:11 | 54.37227 | 13.92040 | 47° | 66km/h | 14113m | 5.7m/s | -49.4°C | 1.8% | 144.1hPa | 2.8V | 00:00:00 | 00:00:00 | 00:00:00 | |
| DO2SHX-10 | 2026-08-31 11:44:10 | 54.37216 | 13.92018 | 48° | 68km/h | 14108m | 4.0m/s | -49.4°C | 4.1% | 144.2hPa | 2.8V | 00:00:00 | 00:53:43 | 00:00:00 | |
| DL1XH1-15 | 2026-08-31 11:44:08 | 54.37156 | 13.91918 | 40° | 64km/h | 14085m | 4.4m/s | -49.3°C | 4% | 144.8hPa | 2.8V | 08:30:00 | 00:53:38 | 00:00:00 | |
| DF8AY | 2026-08-31 11:44:08 | 54.37193 | 13.91977 | 45° | 68km/h | 14098m | 4.1m/s | -49.4°C | 1.5% | 144.5hPa | 2.7V | 18:12:15 | 00:53:41 | 00:00:00 | |
| AM1SDL-15 | 2026-08-31 11:44:08 | 54.37193 | 13.91977 | 46° | 64km/h | 14098m | 4.0m/s | -49.4°C | 4.1% | 144.4hPa | 2.7V | 00:00:00 | 00:53:41 | 00:00:00 | |
| DO2SHX-10 | 2026-08-31 11:44:07 | 54.37180 | 13.91956 | 44° | 66km/h | 14094m | 3.8m/s | -49.3°C | 4.0% | 144.5hPa | 2.7V | 00:00:00 | 00:53:40 | 08:30:00 | |
| DL1XH-15 | 2026-08-31 11:44:06 | 54.37144 | 13.91900 | 39° | 66km/h | 14080m | 4.7m/s | -49.3°C | 4% | 144.8hPa | 2.7V | 08:30:00 | 00:53:37 | 00:00:00 | |
| DM0DOS-11 | 2026-08-31 11:44:05 | 54.37105 | 13.91849 | 37° | 64km/h | 14065m | 5.8m/s | -49.4°C | 4.1% | 145.2hPa | 2.8V | 08:30:00 | 00:53:34 | 00:00:00 | |
| DL1XH-west | 2026-08-31 11:44:05 | 54.37156 | 13.91918 | 41° | 64km/h | 14085m | 4.4m/s | -49.3°C | 1.5% | 144.8hPa | 2.8V | 18:12:15 | 00:53:38 | 00:00:00 | |
| DO2SHX-10 | 2026-08-31 11:44:02 | 54.37118 | 13.91865 | 38° | 64km/h | 14071m | 4.4m/s | -49.4°C | 4.1% | 145.0hPa | 2.7V | 00:00:00 | 00:53:35 | 00:00:00 | |
| DO2SHX-10 | 2026-08-31 11:43:59 | 54.37080 | 13.91817 | 37° | 58km/h | 14057m | 4.6m/s | -49.3°C | 4.1% | 145.4hPa | 2.7V | 00:00:00 | 00:53:32 | 00:00:00 | |
| DL1XH1-15 | 2026-08-31 11:43:58 | 54.37033 | 13.91754 | 41° | 57km/h | 14037m | 4.9m/s | -49.2°C | 4.2% | 145.8hPa | 2.7V | 08:30:00 | 00:53:28 | 00:00:00 | |
| DL1XH-15 | 2026-08-31 11:43:57 | 54.37023 | 13.91737 | 43° | 57km/h | 14033m | 3.1m/s | -49.2°C | 4.2% | 145.9hPa | 2.8V | 08:30:00 | 00:53:27 | 00:00:00 | |
| DF8AY | 2026-08-31 11:43:56 | 54.37045 | 13.91770 | 39° | 58km/h | 14043m | 5.9m/s | -49.3°C | 1.5% | 145.7hPa | 2.7V | 18:12:15 | 00:53:29 | 00:00:00 | |
| AM1SDL-15 | 2026-08-31 11:43:56 | 54.37045 | 13.91770 | 39° | 60km/h | 14043m | 5.8m/s | -49.3°C | 4.1% | 145.7hPa | 2.7V | 00:00:00 | 00:53:29 | 00:00:00 | |
| DM0DOS-11 | 2026-08-31 11:43:55 | 54.36990 | 13.91683 | 42° | 64km/h | 14020m | 4.4m/s | -49.1°C | 4.1% | 146.2hPa | 2.7V | 08:30:00 | 00:53:24 | 00:00:00 | |
| DL1XH-west | 2026-08-31 11:43:55 | 54.37033 | 13.91754 | 42° | 57km/h | 14037m | 4.9m/s | -49.2°C | 1.6% | 145.8hPa | 2.7V | 18:12:15 | 00:53:28 | 00:00:00 | |
| AA1-15 | 2026-08-31 11:43:54 | 54.37023 | 13.91737 | 44° | 57km/h | 14033m | 3.1m/s | -49.2°C | 1.6% | 145.9hPa | 2.8V | 18:12:15 | 00:53:27 | 00:00:00 | |
| SONDE2-11 | 2026-08-31 11:43:54 | 54.37012 | 13.91720 | 44° | 58km/h | 14029m | 5.3m/s | -49.2°C | 1.9% | 146.0hPa | 2.8V | 00:00:00 | 00:00:00 | 00:00:00 | |
| EDDB2-12 | 2026-08-31 11:43:53 | 54.37012 | 13.91720 | 44° | 58km/h | 14029m | 5.3m/s | -49.2°C | 1.9% | 146.0hPa | 2.8V | 00:00:00 | 00:00:00 | 00:00:00 | |
| S3001 | 2026-08-31 11:43:52 | 54.36990 | 13.91683 | 42° | 64km/h | 14020m | 4.4m/s | -49.1°C | 1.9% | 146.2hPa | 2.8V | 00:00:00 | 00:00:00 | 00:00:00 | |
| DO2SHX-10 | 2026-08-31 11:43:51 | 54.36990 | 13.91683 | 43° | 64km/h | 14020m | 4.4m/s | -49.1°C | 4.1% | 146.2hPa | 2.8V | 00:00:00 | 00:53:24 | 00:00:00 | |
| DL1XH1-15 | 2026-08-31 11:43:48 | 54.36915 | 13.91583 | 35° | 58km/h | 13991m | 5.3m/s | -49.1°C | 4.1% | 146.9hPa | 2.8V | 08:30:00 | 00:53:18 | 00:00:00 | |
| DO2SHX-10 | 2026-08-31 11:43:48 | 54.36953 | 13.91630 | 38° | 64km/h | 14005m | 5.3m/s | -49.0°C | 4.1% | 146.5hPa | 2.8V | 00:00:00 | 00:53:21 | 00:00:00 | |
| DL1XH-15 | 2026-08-31 11:43:46 | 54.36904 | 13.91568 | 37° | 57km/h | 13986m | 3.9m/s | -49°C | 4.1% | 146.9hPa | 2.8V | 08:30:00 | 00:53:17 | 00:00:00 | |
| DJ2DS-15 | 2026-08-31 11:43:45 | 54.36915 | 13.91583 | 35° | 58km/h | 13991m | 5.3m/s | -49.1°C | 1.9% | 146.9hPa | 2.8V | 00:00:00 | 00:00:00 | 00:00:00 | |
| DM0DOS-11 | 2026-08-31 11:43:45 | 54.36870 | 13.91521 | 40° | 58km/h | 13973m | 3.9m/s | -49.1°C | 4.1% | 147.2hPa | 2.7V | 08:30:00 | 00:53:14 | 00:00:00 | |
| DL1XH-west | 2026-08-31 11:43:44 | 54.36904 | 13.91568 | 38° | 57km/h | 13986m | 3.9m/s | -49.1°C | 1.5% | 146.9hPa | 2.8V | 18:12:15 | 00:53:17 | 00:00:00 | |
| AA1-15 | 2026-08-31 11:43:44 | 54.36893 | 13.91553 | 39° | 57km/h | 13982m | 3.8m/s | -49.1°C | 1.5% | 147.1hPa | 2.8V | 18:12:15 | 00:53:16 | 00:00:00 | |
| DO2SHX-10 | 2026-08-31 11:43:43 | 54.36893 | 13.91553 | 40° | 57km/h | 13982m | 3.8m/s | -49.0°C | 4.1% | 147.0hPa | 2.7V | 00:00:00 | 00:53:16 | 00:00:00 | |
| DO2SHX-10 | 2026-08-31 11:43:40 | 54.36859 | 13.91505 | 41° | 58km/h | 13969m | 5.2m/s | -49.1°C | 4.0% | 147.3hPa | 2.7V | 00:00:00 | 00:53:13 | 00:00:00 | |
| DL1XH1-15 | 2026-08-31 11:43:38 | 54.36802 | 13.91424 | 39° | 60km/h | 13944m | 5.5m/s | -49.1°C | 4% | 147.9hPa | 2.7V | 08:30:00 | 00:53:08 | 00:00:00 | |
| DL1XH-15 | 2026-08-31 11:43:36 | 54.36790 | 13.91407 | 42° | 60km/h | 13939m | 4m/s | -49°C | 4% | 148hPa | 2.7V | 08:30:00 | 00:53:07 | 00:00:00 | |
| DO2SHX-10 | 2026-08-31 11:43:36 | 54.36814 | 13.91441 | 39° | 60km/h | 13949m | 4.4m/s | -49.1°C | 4.1% | 147.7hPa | 2.8V | 00:00:00 | 00:53:09 | 00:00:00 | |
| DM0DOS-11 | 2026-08-31 11:43:35 | 54.36757 | 13.91350 | 45° | 64km/h | 13925m | 4.7m/s | -49°C | 4.1% | 148.3hPa | 2.8V | 08:30:00 | 00:53:04 | 00:00:00 | |
| DL1XH-west | 2026-08-31 11:43:33 | 54.36779 | 13.91389 | 44° | 62km/h | 13935m | 4.8m/s | -49°C | 1.6% | 148.1hPa | 2.7V | 18:12:15 | 00:53:06 | 00:00:00 | |
| AA1-15 | 2026-08-31 11:43:32 | 54.36768 | 13.91370 | 45° | 64km/h | 13930m | 5.2m/s | -49°C | 1.5% | 148.2hPa | 2.8V | 18:12:15 | 00:53:05 | 00:00:00 | |
| AM1SDL-15 | 2026-08-31 11:43:32 | 54.36768 | 13.91370 | 46° | 62km/h | 13930m | 5.2m/s | -49.0°C | 4.1% | 148.2hPa | 2.7V | 00:00:00 | 00:53:05 | 00:00:00 | |
| DO2SHX-10 | 2026-08-31 11:43:30 | 54.36746 | 13.91330 | 48° | 62km/h | 13920m | 5.6m/s | -48.9°C | 4.1% | 148.4hPa | 2.7V | 00:00:00 | 00:53:03 | 00:00:00 | |
| DO2SHX-10 | 2026-08-31 11:43:27 | 54.36715 | 13.91270 | 50° | 64km/h | 13905m | 4.5m/s | -48.9°C | 4.1% | 148.6hPa | 2.7V | 00:00:00 | 00:53:00 | 00:00:00 | |
| DL1XH-15 | 2026-08-31 11:43:26 | 54.36684 | 13.91210 | 46° | 62km/h | 13892m | 3.3m/s | -48.9°C | 4% | 149hPa | 2.7V | 08:30:00 | 00:52:57 | 00:00:00 | |
| SP3BTT-10 | 2026-08-31 11:43:26 | 54.36705 | 13.91249 | 49° | 66km/h | 13901m | 4.3m/s | -48.9°C | 4.1% | 148.8hPa | 2.7V | 00:00:00 | 00:00:00 | 00:00:00 | |
| DM0DOS-11 | 2026-08-31 11:43:22 | 54.36650 | 13.91150 | 45° | 66km/h | 13878m | 5.3m/s | -49.1°C | 4.1% | 149.3hPa | 2.8V | 08:30:00 | 00:52:54 | 00:00:00 | |
| DL1XH-west | 2026-08-31 11:43:22 | 54.36661 | 13.91170 | 46° | 66km/h | 13882m | 4.6m/s | -49°C | 1.5% | 149.3hPa | 2.8V | 18:12:15 | 00:52:55 | 00:00:00 | |
| AA1-15 | 2026-08-31 11:43:22 | 54.36650 | 13.91150 | 45° | 66km/h | 13878m | 5.3m/s | -49.1°C | 1.5% | 149.3hPa | 2.8V | 18:12:15 | 00:52:54 | 00:00:00 | |
| S3001 | 2026-08-31 11:43:21 | 54.36638 | 13.91130 | 45° | 64km/h | 13872m | 4.9m/s | -49.2°C | 1.9% | 149.6hPa | 2.8V | 00:00:00 | 00:00:00 | 00:00:00 | |
| AM1SDL-15 | 2026-08-31 11:43:20 | 54.36638 | 13.91130 | 46° | 66km/h | 13872m | 4.9m/s | -49.1°C | 4.1% | 149.5hPa | 2.8V | 00:00:00 | 00:52:53 | 00:00:00 | |
| DO2SHX-10 | 2026-08-31 11:43:19 | 54.36626 | 13.91110 | 45° | 66km/h | 13868m | 3.0m/s | -49.1°C | 4.1% | 149.6hPa | 2.8V | 00:00:00 | 00:52:52 | 00:00:00 | |
| DL1XH1-15 | 2026-08-31 11:43:18 | 54.36580 | 13.91028 | 47° | 66km/h | 13850m | 5.1m/s | -49.1°C | 4.1% | 150hPa | 2.8V | 08:30:00 | 00:52:48 | 00:00:00 | |
| DM0DOS-11 | 2026-08-31 11:43:16 | 54.36538 | 13.90940 | 54° | 69km/h | 13830m | 4.2m/s | -49°C | 4.1% | 150.4hPa | 2.7V | 08:30:00 | 00:52:44 | 00:00:00 | |
| DL1XH-west | 2026-08-31 11:43:12 | 54.36548 | 13.90963 | 52° | 68km/h | 13836m | 6.5m/s | -49°C | 1.6% | 150.4hPa | 2.7V | 18:12:15 | 00:52:45 | 00:00:00 | |
| AA1-15 | 2026-08-31 11:43:10 | 54.36527 | 13.90915 | 54° | 69km/h | 13827m | 3.6m/s | -49°C | 1.6% | 150.6hPa | 2.8V | 18:12:15 | 00:52:43 | 00:00:00 | |
| DO2SHX-10 | 2026-08-31 11:43:10 | 54.36527 | 13.90915 | 54° | 69km/h | 13827m | 3.6m/s | -49.0°C | 4.1% | 150.5hPa | 2.8V | 00:00:00 | 00:52:43 | 00:00:00 | |
| EDDB2-11 | 2026-08-31 11:43:09 | 54.36506 | 13.90867 | 51° | 69km/h | 13817m | 4.4m/s | -49.1°C | 1.9% | 150.8hPa | 2.8V | 00:00:00 | 00:00:00 | 00:00:00 | |
| DL1XH1-15 | 2026-08-31 11:43:08 | 54.36472 | 13.90793 | 50° | 75km/h | 13803m | 3.6m/s | -49.1°C | 4.2% | 151.1hPa | 2.8V | 08:30:00 | 00:52:38 | 00:00:00 | |
| DO2SHX-10 | 2026-08-31 11:43:07 | 54.36495 | 13.90843 | 52° | 73km/h | 13813m | 4.6m/s | -49.1°C | 4.2% | 150.8hPa | 2.7V | 00:00:00 | 00:52:40 | 00:00:00 | |
| DM0DOS-11 | 2026-08-31 11:43:05 | 54.36421 | 13.90696 | 47° | 77km/h | 13784m | 5.1m/s | -49°C | 4.1% | 151.6hPa | 2.7V | 08:30:00 | 00:52:34 | 00:00:00 | |
| DL1XH-west | 2026-08-31 11:43:01 | 54.36421 | 13.90696 | 48° | 77km/h | 13784m | 5.1m/s | -49°C | 1.6% | 151.6hPa | 2.7V | 18:12:15 | 00:52:34 | 00:00:00 | |
| AA1-15 | 2026-08-31 11:43:00 | 54.36395 | 13.90647 | 48° | 75km/h | 13775m | 5m/s | -49°C | 1.5% | 151.7hPa | 2.8V | 18:12:15 | 00:52:32 | 00:00:00 | |
| DF8AY | 2026-08-31 11:43:00 | 54.36279 | 13.90393 | 49° | 80km/h | 13728m | 4.7m/s | -48.9°C | 1.6% | 152.9hPa | 2.7V | 18:12:15 | 00:52:22 | 00:00:00 | |
| DO2SHX-10 | 2026-08-31 11:42:58 | 54.36382 | 13.90623 | 48° | 73km/h | 13771m | 5.2m/s | -49.0°C | 4.2% | 151.8hPa | 2.7V | 00:00:00 | 00:52:31 | 00:00:00 | |
| DL1XH1-15 | 2026-08-31 11:42:57 | 54.36348 | 13.90550 | 55° | 73km/h | 13756m | 4.1m/s | -48.9°C | 4.1% | 152.2hPa | 2.7V | 08:30:00 | 00:52:28 | 00:00:00 | |
| DL1XH-15 | 2026-08-31 11:42:56 | 54.36338 | 13.90524 | 55° | 73km/h | 13752m | 4.5m/s | -48.9°C | 4.1% | 152.3hPa | 2.8V | 08:30:00 | 00:52:27 | 00:00:00 | |
| DL1XH-west | 2026-08-31 11:42:51 | 54.36305 | 13.90446 | 53° | 78km/h | 13737m | 5.9m/s | -48.9°C | 1.5% | 152.7hPa | 2.7V | 18:12:15 | 00:52:24 | 00:00:00 | |
| AA1-15 | 2026-08-31 11:42:48 | 54.36265 | 13.90367 | 46° | 80km/h | 13723m | 5.5m/s | -48.8°C | 1.5% | 153hPa | 2.8V | 18:12:15 | 00:52:21 | 00:00:00 | |
| DF8AY | 2026-08-31 11:42:48 | 54.36251 | 13.90343 | 46° | 77km/h | 13718m | 4m/s | -48.8°C | 1.6% | 153.1hPa | 2.8V | 18:12:15 | 00:52:20 | 00:00:00 | |
| DL1XH-15 | 2026-08-31 11:42:46 | 54.36212 | 13.90271 | 47° | 73km/h | 13704m | 4.3m/s | -48.6°C | 4.1% | 153.4hPa | 2.7V | 08:30:00 | 00:52:17 | 00:00:00 | |
| DL1XH-west | 2026-08-31 11:42:41 | 54.36175 | 13.90202 | 49° | 73km/h | 13690m | 5.3m/s | -48.5°C | 1.4% | 153.8hPa | 2.8V | 18:12:15 | 00:52:14 | 00:00:00 | |
| AA1-15 | 2026-08-31 11:42:37 | 54.36127 | 13.90100 | 51° | 75km/h | 13668m | 6m/s | -48.3°C | 1.5% | 154.3hPa | 2.8V | 18:12:15 | 00:52:10 | 00:00:00 | |
| DF8AY | 2026-08-31 11:42:36 | 54.36116 | 13.90075 | 51° | 73km/h | 13663m | 2.8m/s | -48.2°C | 1.4% | 154.4hPa | 2.8V | 18:12:15 | 00:52:09 | 00:00:00 | |
| DL1XH-15 | 2026-08-31 11:42:35 | 54.36092 | 13.90026 | 48° | 73km/h | 13654m | 7.2m/s | -48.2°C | 4% | 154.6hPa | 2.8V | 08:30:00 | 00:52:07 | 00:00:00 | |
| DO2SHX-10 | 2026-08-31 11:42:34 | 54.36092 | 13.90026 | 49° | 73km/h | 13654m | 7.2m/s | -48.2°C | 4.0% | 154.6hPa | 2.7V | 00:00:00 | 00:52:07 | 00:00:00 | |
| DM0DOS-11 | 2026-08-31 11:42:33 | 54.36053 | 13.89959 | 42° | 69km/h | 13636m | 6.6m/s | -48.2°C | 4% | 155hPa | 2.7V | 08:30:00 | 00:52:04 | 00:00:00 | |
| DL1XH-west | 2026-08-31 11:42:30 | 54.36040 | 13.89940 | 40° | 66km/h | 13631m | 3.6m/s | -48.2°C | 1.4% | 155.2hPa | 2.8V | 18:12:15 | 00:52:03 | 00:00:00 | |
| AA1-15 | 2026-08-31 11:42:26 | 54.35978 | 13.89834 | 50° | 73km/h | 13604m | 7.2m/s | -48.1°C | 1.4% | 155.8hPa | 2.8V | 18:12:15 | 00:51:58 | 00:00:00 | |
| DF8AY | 2026-08-31 11:42:26 | 54.35990 | 13.89858 | 48° | 73km/h | 13610m | 3.7m/s | -48°C | 1.4% | 155.7hPa | 2.7V | 18:12:15 | 00:51:59 | 00:00:00 | |
| DM0DOS-11 | 2026-08-31 11:42:26 | 54.35936 | 13.89744 | 49° | 64km/h | 13581m | 6.7m/s | -47.9°C | 3.9% | 156.3hPa | 2.7V | 08:30:00 | 00:51:54 | 00:00:00 | |
| DL1XH-15 | 2026-08-31 11:42:25 | 54.35967 | 13.89811 | 51° | 69km/h | 13597m | 7.4m/s | -48°C | 4% | 155.9hPa | 2.8V | 08:30:00 | 00:51:57 | 00:00:00 | |
| DL1XH-west | 2026-08-31 11:42:20 | 54.35925 | 13.89723 | 45° | 66km/h | 13574m | 8m/s | -48°C | 1.4% | 156.5hPa | 2.7V | 18:12:15 | 00:51:53 | 00:00:00 | |
| S3001 | 2026-08-31 11:42:19 | 54.35899 | 13.89684 | 38° | 68km/h | 13564m | 6.9m/s | -48.0°C | 1.8% | 156.7hPa | 2.7V | 00:00:00 | 00:00:00 | 00:00:00 | |
| DL1XH1-15 | 2026-08-31 11:42:18 | 54.35859 | 13.89626 | 41° | 68km/h | 13543m | 8.2m/s | -47.9°C | 3.9% | 157.1hPa | 2.7V | 08:30:00 | 00:51:48 | 00:00:00 | |
| DF8AY | 2026-08-31 11:42:15 | 54.35847 | 13.89606 | 45° | 68km/h | 13536m | 6.5m/s | -47.9°C | 1.3% | 157.3hPa | 2.8V | 18:12:15 | 00:51:47 | 00:00:00 | |
| DO2SHX-10 | 2026-08-31 11:42:14 | 54.35847 | 13.89606 | 45° | 68km/h | 13536m | 6.5m/s | -47.8°C | 3.8% | 157.2hPa | 2.7V | 00:00:00 | 00:51:47 | 00:00:00 | |
| DM0DOS-11 | 2026-08-31 11:42:13 | 54.35811 | 13.89543 | 47° | 66km/h | 13517m | 4.8m/s | -47.8°C | 3.8% | 157.8hPa | 2.7V | 08:30:00 | 00:51:44 | 00:00:00 | |
| DL1XH-west | 2026-08-31 11:42:10 | 54.35800 | 13.89523 | 49° | 62km/h | 13512m | 6.2m/s | -47.8°C | 1.3% | 157.9hPa | 2.7V | 18:12:15 | 00:51:43 | 00:00:00 | |
| DO2SHX-10 | 2026-08-31 11:42:10 | 54.35800 | 13.89523 | 50° | 60km/h | 13512m | 6.2m/s | -47.8°C | 3.8% | 157.9hPa | 2.8V | 00:00:00 | 00:51:43 | 00:00:00 | |
| DL1XH1-15 | 2026-08-31 11:42:08 | 54.35751 | 13.89432 | 42° | 53km/h | 13480m | 3.4m/s | -48°C | 3.9% | 158.7hPa | 2.8V | 08:30:00 | 00:51:38 | 00:00:00 | |
| EDDB2-11 | 2026-08-31 11:42:07 | 54.35761 | 13.89448 | 45° | 53km/h | 13485m | 6.3m/s | -48.1°C | 1.8% | 158.5hPa | 2.8V | 00:00:00 | 00:00:00 | 00:00:00 | |
| DM0DOS-11 | 2026-08-31 11:42:05 | 54.35711 | 13.89372 | 42° | 55km/h | 13453m | 6m/s | -48.1°C | 3.9% | 159.3hPa | 2.8V | 08:30:00 | 00:51:34 | 00:00:00 | |
| DF8AY | 2026-08-31 11:42:04 | 54.35741 | 13.89416 | 42° | 51km/h | 13473m | 9.2m/s | -48°C | 1.3% | 158.8hPa | 2.7V | 18:12:15 | 00:51:37 | 00:00:00 | |
| AA1-15 | 2026-08-31 11:42:03 | 54.35732 | 13.89402 | 41° | 51km/h | 13467m | 3.8m/s | -48°C | 1.4% | 159hPa | 2.7V | 18:12:15 | 00:51:36 | 00:00:00 | |
| DL1XH1-15 | 2026-08-31 11:42:00 | 54.35654 | 13.89258 | 58° | 60km/h | 13416m | 2.2m/s | -48°C | 3.9% | 160.2hPa | 2.8V | 08:30:00 | 00:51:28 | 00:00:00 | |
| DL1XH-west | 2026-08-31 11:41:59 | 54.35690 | 13.89337 | 45° | 58km/h | 13440m | 9.2m/s | -48.1°C | 1.4% | 159.6hPa | 2.8V | 18:12:15 | 00:51:32 | 00:00:00 | |
| DL1XH-15 | 2026-08-31 11:41:55 | 54.35646 | 13.89235 | 60° | 62km/h | 13410m | 9.2m/s | -48.1°C | 4% | 160.3hPa | 2.8V | 08:30:00 | 00:51:27 | 00:00:00 | |
| DF8AY | 2026-08-31 11:41:54 | 54.35646 | 13.89235 | 61° | 62km/h | 13410m | 9.2m/s | -48.1°C | 1.4% | 160.3hPa | 2.8V | 18:12:15 | 00:51:27 | 00:00:00 | |
| DM0DOS-11 | 2026-08-31 11:41:53 | 54.35622 | 13.89163 | 59° | 62km/h | 13393m | 8.1m/s | -48°C | 3.9% | 160.8hPa | 2.7V | 08:30:00 | 00:51:24 | 00:00:00 | |
| AA1-15 | 2026-08-31 11:41:52 | 54.35630 | 13.89187 | 59° | 64km/h | 13398m | 2.2m/s | -48°C | 1.4% | 160.6hPa | 2.7V | 18:12:15 | 00:51:25 | 00:00:00 | |
| DL1XH-west | 2026-08-31 11:41:49 | 54.35605 | 13.89119 | 53° | 60km/h | 13382m | 2.8m/s | -47.9°C | 1.4% | 161hPa | 2.8V | 18:12:15 | 00:51:22 | 00:00:00 | |
| S3001 | 2026-08-31 11:41:48 | 54.35586 | 13.89079 | 51° | 60km/h | 13368m | 5.8m/s | -47.9°C | 1.8% | 161.4hPa | 2.8V | 00:00:00 | 00:00:00 | 00:00:00 | |
| DM0DOS-11 | 2026-08-31 11:41:45 | 54.35523 | 13.88953 | 52° | 66km/h | 13328m | 3.9m/s | -47.7°C | 3.9% | 162.3hPa | 2.8V | 08:30:00 | 00:51:14 | 00:00:00 | |
| DL1XH-15 | 2026-08-31 11:41:45 | 54.35556 | 13.89017 | 46° | 64km/h | 13348m | 4m/s | -47.8°C | 3.9% | 161.9hPa | 2.7V | 08:30:00 | 00:51:17 | 00:00:00 | |
| DF8AY | 2026-08-31 11:41:43 | 54.35544 | 13.88997 | 47° | 66km/h | 13341m | 9.2m/s | -47.8°C | 1.4% | 162hPa | 2.8V | 18:12:15 | 00:51:16 | 00:00:00 | |
| AA1-15 | 2026-08-31 11:41:41 | 54.35523 | 13.88953 | 52° | 66km/h | 13328m | 3.9m/s | -47.7°C | 1.4% | 162.3hPa | 2.8V | 18:12:15 | 00:51:14 | 00:00:00 | |
| DL1XH1-15 | 2026-08-31 11:41:40 | 54.35461 | 13.88810 | 54° | 68km/h | 13291m | 9.3m/s | -47.7°C | 3.8% | 163.2hPa | 2.7V | 08:30:00 | 00:51:08 | 00:00:00 | |
| DL1XH-west | 2026-08-31 11:41:38 | 54.35492 | 13.88882 | 53° | 68km/h | 13310m | 10m/s | -47.8°C | 1.3% | 162.8hPa | 2.8V | 18:12:15 | 00:51:11 | 00:00:00 | |
| EDDB2-11 | 2026-08-31 11:41:36 | 54.35461 | 13.88810 | 54° | 66km/h | 13291m | 9.3m/s | -47.7°C | 1.8% | 163.2hPa | 2.8V | 00:00:00 | 00:00:00 | 00:00:00 | |
| DM0DOS-11 | 2026-08-31 11:41:33 | 54.35426 | 13.88715 | 57° | 66km/h | 13264m | 4.7m/s | -47.5°C | 3.8% | 163.9hPa | 2.8V | 08:30:00 | 00:51:04 | 00:00:00 | |
| DF8AY | 2026-08-31 11:41:32 | 54.35434 | 13.88738 | 58° | 62km/h | 13272m | 9.8m/s | -47.6°C | 1.2% | 163.7hPa | 2.8V | 18:12:15 | 00:51:05 | 00:00:00 | |
| AA1-15 | 2026-08-31 11:41:30 | 54.35416 | 13.88690 | 56° | 71km/h | 13260m | 4.2m/s | -47.5°C | 1.3% | 164hPa | 2.8V | 18:12:15 | 00:51:03 | 00:00:00 | |
| DO2SHX-10 | 2026-08-31 11:41:30 | 54.35416 | 13.88690 | 57° | 71km/h | 13260m | 4.2m/s | -47.4°C | 3.8% | 164.0hPa | 2.7V | 00:00:00 | 00:51:03 | 08:30:00 | |
| DL1XH1-15 | 2026-08-31 11:41:28 | 54.35358 | 13.88560 | 49° | 78km/h | 13231m | 2.9m/s | -47.3°C | 3.8% | 164.7hPa | 2.8V | 08:30:00 | 00:50:58 | 00:00:00 | |
| DL1XH-west | 2026-08-31 11:41:27 | 54.35383 | 13.88613 | 53° | 78km/h | 13243m | 8.8m/s | -47.5°C | 1.3% | 164.4hPa | 2.7V | 18:12:15 | 00:51:00 | 00:00:00 | |
| DO2SHX-10 | 2026-08-31 11:41:27 | 54.35383 | 13.88613 | 53° | 78km/h | 13243m | 8.7m/s | -47.4°C | 3.8% | 164.3hPa | 2.8V | 00:00:00 | 00:51:00 | 00:00:00 | |
| DL1XH-15 | 2026-08-31 11:41:25 | 54.35345 | 13.88534 | 50° | 78km/h | 13227m | 6m/s | -47.3°C | 3.8% | 164.7hPa | 2.8V | 08:30:00 | 00:50:57 | 00:00:00 | |
| DF8AY | 2026-08-31 11:41:22 | 54.35320 | 13.88482 | 51° | 78km/h | 13216m | 5.9m/s | -47.3°C | 1.3% | 165.1hPa | 2.7V | 18:12:15 | 00:50:55 | 00:00:00 | |
| AA1-15 | 2026-08-31 11:41:19 | 54.35288 | 13.88400 | 58° | 73km/h | 13199m | 3.7m/s | -47.3°C | 1.3% | 165.6hPa | 2.8V | 18:12:15 | 00:50:52 | 00:00:00 | |
| DL1XH-west | 2026-08-31 11:41:17 | 54.35268 | 13.88346 | 56° | 73km/h | 13187m | 4.7m/s | -47.3°C | 1.2% | 165.7hPa | 2.7V | 18:12:15 | 00:50:50 | 00:00:00 | |
| DO2SHX-10 | 2026-08-31 11:41:17 | 54.35268 | 13.88345 | 57° | 73km/h | 13187m | 4.7m/s | -47.3°C | 3.7% | 165.7hPa | 2.8V | 00:00:00 | 00:50:50 | 00:00:00 | |
| DL1XH-15 | 2026-08-31 11:41:16 | 54.35234 | 13.88270 | 51° | 73km/h | 13171m | 7.9m/s | -47.4°C | 3.7% | 166.1hPa | 2.8V | 08:30:00 | 00:50:47 | 00:00:00 | |
| MECKS9 | 2026-08-31 11:41:15 | 54.35257 | 13.88320 | 54° | 73km/h | 13183m | 3.9m/s | -47.4°C | 1.8% | 165.9hPa | 2.8V | 00:00:00 | 00:00:00 | 00:00:00 | |
| DM0DOS-11 | 2026-08-31 11:41:14 | 54.35199 | 13.88190 | 54° | 78km/h | 13154m | 7.5m/s | -47.5°C | 3.7% | 166.6hPa | 2.8V | 08:30:00 | 00:50:44 | 00:00:00 | |
| DF8AY | 2026-08-31 11:41:11 | 54.35199 | 13.88190 | 54° | 78km/h | 13154m | 7.5m/s | -47.5°C | 1.2% | 166.7hPa | 2.8V | 18:12:15 | 00:50:44 | 00:00:00 | |
| AA1-15 | 2026-08-31 11:41:08 | 54.35164 | 13.88107 | 54° | 80km/h | 13134m | 6.5m/s | -47.5°C | 1.2% | 167.1hPa | 2.7V | 18:12:15 | 00:50:41 | 00:00:00 | |
| DL1XH1-15 | 2026-08-31 11:41:07 | 54.35128 | 13.88022 | 53° | 78km/h | 13116m | 6.7m/s | -47.6°C | 3.8% | 167.6hPa | 2.8V | 08:30:00 | 00:50:38 | 00:00:00 | |
| DL1XH-west | 2026-08-31 11:41:06 | 54.35140 | 13.88050 | 54° | 82km/h | 13123m | 6.3m/s | -47.5°C | 1.3% | 167.5hPa | 2.8V | 18:12:15 | 00:50:39 | 00:00:00 | |
| AM1SDL-15 | 2026-08-31 11:41:06 | 54.35140 | 13.88050 | 54° | 82km/h | 13123m | 6.3m/s | -47.5°C | 3.8% | 167.4hPa | 2.7V | 00:00:00 | 00:50:39 | 08:30:00 | |
| MECKS9 | 2026-08-31 11:41:05 | 54.35128 | 13.88022 | 55° | 78km/h | 13116m | 6.7m/s | -47.6°C | 1.8% | 167.6hPa | 2.8V | 00:00:00 | 00:00:00 | 00:00:00 | |
| DO2SHX-10 | 2026-08-31 11:41:04 | 54.35116 | 13.87995 | 51° | 80km/h | 13111m | 2.3m/s | -47.5°C | 3.8% | 167.7hPa | 2.8V | 00:00:00 | 00:50:37 | 00:00:00 | |
| DM0DOS-11 | 2026-08-31 11:41:03 | 54.35060 | 13.87891 | 46° | 86km/h | 13090m | 5.7m/s | -47.4°C | 3.7% | 168.2hPa | 2.8V | 08:30:00 | 00:50:33 | 00:00:00 | |
| DF8AY | 2026-08-31 11:41:00 | 54.35060 | 13.87891 | 46° | 86km/h | 13090m | 5.7m/s | -47.4°C | 1.2% | 168.2hPa | 2.8V | 18:12:15 | 00:50:33 | 00:00:00 | |
| AA1-15 | 2026-08-31 11:40:58 | 54.35030 | 13.87836 | 49° | 88km/h | 13081m | 7.7m/s | -47.5°C | 1.2% | 168.5hPa | 2.7V | 18:12:15 | 00:50:31 | 00:00:00 | |
| DL1XH1-15 | 2026-08-31 11:40:58 | 54.34988 | 13.87750 | 50° | 84km/h | 13064m | 8.4m/s | -47.5°C | 3.7% | 169hPa | 2.8V | 08:30:00 | 00:50:28 | 00:00:00 | |
| DL1XH-15 | 2026-08-31 11:40:56 | 54.34975 | 13.87723 | 48° | 80km/h | 13058m | 3.8m/s | -47.5°C | 3.8% | 169.2hPa | 2.8V | 08:30:00 | 00:50:27 | 00:00:00 | |
| DL1XH-west | 2026-08-31 11:40:56 | 54.34988 | 13.87750 | 50° | 84km/h | 13064m | 8.4m/s | -47.5°C | 1.2% | 169hPa | 2.8V | 18:12:15 | 00:50:28 | 00:00:00 | |
| DM0DOS-11 | 2026-08-31 11:40:56 | 54.34923 | 13.87619 | 50° | 78km/h | 13038m | 3.7m/s | -47.4°C | 3.8% | 169.7hPa | 2.7V | 08:30:00 | 00:50:23 | 00:00:00 | |
| DF8AY | 2026-08-31 11:40:49 | 54.34911 | 13.87594 | 50° | 77km/h | 13032m | 8.3m/s | -47.4°C | 1.3% | 169.9hPa | 2.8V | 18:12:15 | 00:50:22 | 00:00:00 | |
| AA1-15 | 2026-08-31 11:40:47 | 54.34884 | 13.87545 | 46° | 78km/h | 13020m | 8.4m/s | -47.4°C | 1.3% | 170.2hPa | 2.8V | 18:12:15 | 00:50:20 | 00:00:00 | |
| DL1XH1-15 | 2026-08-31 11:40:46 | 54.34856 | 13.87498 | 43° | 78km/h | 13007m | 3.2m/s | -47.6°C | 3.9% | 170.5hPa | 2.7V | 08:30:00 | 00:50:18 | 00:00:00 | |
| S3001 | 2026-08-31 11:40:46 | 54.34856 | 13.87498 | 43° | 77km/h | 13007m | 3.2m/s | -47.6°C | 1.8% | 170.5hPa | 2.7V | 00:00:00 | 00:00:00 | 00:00:00 | |
| DL1XH-15 | 2026-08-31 11:40:45 | 54.34842 | 13.87474 | 43° | 80km/h | 13001m | 8.5m/s | -47.9°C | 3.9% | 170.6hPa | 2.7V | 08:30:00 | 00:50:17 | 00:00:00 | |
| DL1XH-west | 2026-08-31 11:40:45 | 54.34841 | 13.87474 | 44° | 80km/h | 13001m | 8.5m/s | -47.9°C | 1.3% | 170.6hPa | 2.7V | 18:12:15 | 00:50:17 | 00:00:00 | |
| DO2SHX-10 | 2026-08-31 11:40:43 | 54.34827 | 13.87451 | 44° | 78km/h | 12995m | 3.9m/s | -47.8°C | 3.9% | 170.7hPa | 2.7V | 00:00:00 | 00:50:16 | 00:00:00 | |
| AM1SDL-15 | 2026-08-31 11:40:42 | 54.34813 | 13.87427 | 44° | 75km/h | 12990m | 7.4m/s | -47.7°C | 3.9% | 170.9hPa | 2.8V | 00:00:00 | 00:50:15 | 00:00:00 | |
| DO2SHX-10 | 2026-08-31 11:40:40 | 54.34784 | 13.87380 | 45° | 78km/h | 12978m | 2.5m/s | -47.7°C | 3.9% | 171.2hPa | 2.8V | 00:00:00 | 00:50:13 | 00:00:00 | |
| DL1XH1-15 | 2026-08-31 11:40:36 | 54.34714 | 13.87267 | 41° | 71km/h | 12947m | 4.7m/s | -47.7°C | 3.9% | 172.1hPa | 2.8V | 08:30:00 | 00:50:08 | 00:00:00 | |
| AA1-15 | 2026-08-31 11:40:36 | 54.34728 | 13.87288 | 42° | 77km/h | 12954m | 9.6m/s | -47.7°C | 1.3% | 171.9hPa | 2.8V | 18:12:15 | 00:50:09 | 00:00:00 | |
| DL1XH-15 | 2026-08-31 11:40:35 | 54.34701 | 13.87246 | 43° | 69km/h | 12940m | 9.2m/s | -47.6°C | 3.8% | 172.2hPa | 2.7V | 08:30:00 | 00:50:07 | 00:00:00 | |
| DO2SHX-10 | 2026-08-31 11:40:34 | 54.34701 | 13.87246 | 44° | 69km/h | 12940m | 9.1m/s | -47.6°C | 3.8% | 172.2hPa | 2.7V | 00:00:00 | 00:50:07 | 08:30:00 | |
| DM0DOS-11 | 2026-08-31 11:40:33 | 54.34652 | 13.87169 | 43° | 64km/h | 12914m | 5.3m/s | -47.5°C | 3.8% | 172.9hPa | 2.8V | 08:30:00 | 00:50:03 | 00:00:00 | |
| DL1XH-west | 2026-08-31 11:40:33 | 54.34688 | 13.87226 | 43° | 68km/h | 12932m | 6.3m/s | -47.6°C | 1.3% | 172.4hPa | 2.7V | 18:12:15 | 00:50:06 | 00:00:00 | |
| DO2SHX-10 | 2026-08-31 11:40:31 | 54.34664 | 13.87188 | 44° | 64km/h | 12921m | 8.5m/s | -47.5°C | 3.8% | 172.7hPa | 2.7V | 00:00:00 | 00:50:04 | 00:00:00 | |
| DL1XH1-15 | 2026-08-31 11:40:30 | 54.34593 | 13.87066 | 48° | 69km/h | 12881m | 6.7m/s | -47.5°C | 3.7% | 173.8hPa | 2.7V | 08:30:00 | 00:49:58 | 00:00:00 | |
| DF8AY | 2026-08-31 11:40:27 | 54.34547 | 13.86980 | 48° | 64km/h | 12858m | 3.3m/s | -47.6°C | 1.3% | 174.4hPa | 2.8V | 18:12:15 | 00:49:54 | 00:00:00 | |
| DL1XH-15 | 2026-08-31 11:40:25 | 54.34581 | 13.87044 | 48° | 69km/h | 12877m | 2.6m/s | -47.6°C | 3.8% | 173.9hPa | 2.8V | 08:30:00 | 00:49:57 | 00:00:00 | |
| AA1-15 | 2026-08-31 11:40:25 | 54.34593 | 13.87066 | 48° | 69km/h | 12881m | 6.7m/s | -47.5°C | 1.2% | 173.8hPa | 2.7V | 18:12:15 | 00:49:58 | 00:00:00 | |
| DL1XH-west | 2026-08-31 11:40:23 | 54.34570 | 13.87022 | 47° | 69km/h | 12870m | 10.2m/s | -47.6°C | 1.3% | 174hPa | 2.8V | 18:12:15 | 00:49:56 | 00:00:00 | |
| DM0DOS-11 | 2026-08-31 11:40:21 | 54.34536 | 13.86960 | 45° | 62km/h | 12852m | 7.8m/s | -47.5°C | 3.7% | 174.5hPa | 2.7V | 08:30:00 | 00:49:53 | 00:00:00 | |
| MECKS9 | 2026-08-31 11:40:19 | 54.34525 | 13.86941 | 45° | 60km/h | 12846m | 5.1m/s | -47.5°C | 1.8% | 174.7hPa | 2.8V | 00:00:00 | 00:00:00 | 00:00:00 | |
| DL1XH1-15 | 2026-08-31 11:40:18 | 54.34481 | 13.86871 | 45° | 60km/h | 12823m | 4.9m/s | -47.6°C | 3.8% | 175.4hPa | 2.8V | 08:30:00 | 00:49:48 | 00:00:00 | |
| DL1XH-15 | 2026-08-31 11:40:15 | 54.34471 | 13.86853 | 45° | 58km/h | 12817m | 8.4m/s | -47.6°C | 3.7% | 175.5hPa | 2.7V | 08:30:00 | 00:49:47 | 00:00:00 | |
| DM0DOS-11 | 2026-08-31 11:40:15 | 54.34427 | 13.86774 | 47° | 66km/h | 12789m | 5m/s | -47.8°C | 3.8% | 176.2hPa | 2.8V | 08:30:00 | 00:49:43 | 00:00:00 | |
| AA1-15 | 2026-08-31 11:40:14 | 54.34471 | 13.86853 | 45° | 58km/h | 12817m | 8.4m/s | -47.6°C | 1.2% | 175.5hPa | 2.7V | 18:12:15 | 00:49:47 | 00:00:00 | |
| DL1XH-west | 2026-08-31 11:40:12 | 54.34449 | 13.86815 | 46° | 64km/h | 12803m | 10.6m/s | -47.7°C | 1.3% | 175.9hPa | 2.8V | 18:12:15 | 00:49:45 | 00:00:00 | |
| DO2SHX-10 | 2026-08-31 11:40:10 | 54.34427 | 13.86774 | 48° | 69km/h | 12789m | 4.9m/s | -47.7°C | 3.8% | 176.1hPa | 2.7V | 00:00:00 | 00:49:43 | 00:00:00 | |
| MECKS9 | 2026-08-31 11:40:09 | 54.34415 | 13.86753 | 49° | 69km/h | 12782m | 9.2m/s | -47.8°C | 1.9% | 176.4hPa | 2.7V | 00:00:00 | 00:00:00 | 00:00:00 | |
| DG6HD-15 | 2026-08-31 11:40:08 | 54.34404 | 13.86730 | 52° | 69km/h | 12775m | 5.3m/s | -47.7°C | 1.9% | 176.5hPa | 2.7V | 00:00:00 | 00:00:00 | 00:00:00 | |
| DO2SHX-10 | 2026-08-31 11:40:07 | 54.34393 | 13.86706 | 54° | 69km/h | 12770m | 3.7m/s | -47.7°C | 3.9% | 176.7hPa | 2.7V | 00:00:00 | 00:49:40 | 08:30:00 | |
| DL1XH-15 | 2026-08-31 11:40:05 | 54.34360 | 13.86635 | 51° | 66km/h | 12753m | 9.8m/s | -47.8°C | 3.9% | 177.2hPa | 2.8V | 08:30:00 | 00:49:37 | 00:00:00 | |
| DO2SHX-10 | 2026-08-31 11:40:04 | 54.34360 | 13.86635 | 52° | 66km/h | 12753m | 9.7m/s | -47.7°C | 3.9% | 177.1hPa | 2.7V | 00:00:00 | 00:49:37 | 00:00:00 | |
| DM0DOS-11 | 2026-08-31 11:40:03 | 54.34315 | 13.86553 | 44° | 69km/h | 12728m | 4.3m/s | -47.9°C | 3.9% | 177.8hPa | 2.7V | 08:30:00 | 00:49:33 | 00:00:00 | |
| AA1-15 | 2026-08-31 11:40:03 | 54.34349 | 13.86614 | 48° | 66km/h | 12745m | 6.1m/s | -47.8°C | 1.4% | 177.3hPa | 2.8V | 18:12:15 | 00:49:36 | 00:00:00 | |
| DL1XH-west | 2026-08-31 11:40:02 | 54.34338 | 13.86593 | 46° | 66km/h | 12741m | 2.4m/s | -47.9°C | 1.4% | 177.6hPa | 2.7V | 18:12:15 | 00:49:35 | 00:00:00 | |
| DO2SHX-10 | 2026-08-31 11:40:01 | 54.34327 | 13.86573 | 46° | 69km/h | 12735m | 10.2m/s | -47.9°C | 4.0% | 177.8hPa | 2.7V | 00:00:00 | 00:49:34 | 00:00:00 | |
| DO2SHX-10 | 2026-08-31 11:39:58 | 54.34288 | 13.86510 | 43° | 73km/h | 12716m | 6.4m/s | -47.8°C | 3.9% | 178.1hPa | 2.7V | 00:00:00 | 00:49:31 | 00:00:00 | |
| MECKS9 | 2026-08-31 11:39:57 | 54.34288 | 13.86510 | 44° | 73km/h | 12716m | 6.5m/s | -47.9°C | 1.9% | 178.2hPa | 2.7V | 00:00:00 | 00:00:00 | 00:00:00 | |
| DL1XH-15 | 2026-08-31 11:39:56 | 54.34237 | 13.86421 | 48° | 69km/h | 12689m | 4.1m/s | -47.8°C | 3.9% | 179hPa | 2.7V | 08:30:00 | 00:49:27 | 00:00:00 | |
| DM0DOS-11 | 2026-08-31 11:39:55 | 54.34182 | 13.86309 | 50° | 64km/h | 12658m | 3.9m/s | -47.6°C | 3.9% | 179.8hPa | 2.7V | 08:30:00 | 00:49:22 | 00:00:00 | |
| DL1XH-west | 2026-08-31 11:39:52 | 54.34214 | 13.86375 | 51° | 68km/h | 12675m | 5.5m/s | -47.7°C | 1.4% | 179.2hPa | 2.8V | 18:12:15 | 00:49:25 | 00:00:00 | |
| DF8AY | 2026-08-31 11:39:51 | 54.34193 | 13.86331 | 51° | 66km/h | 12664m | 8.3m/s | -47.6°C | 1.4% | 179.6hPa | 2.8V | 18:12:15 | 00:49:23 | 00:00:00 | |
| DO2SHX-10 | 2026-08-31 11:39:51 | 54.34203 | 13.86353 | 51° | 66km/h | 12670m | 4.6m/s | -47.6°C | 3.9% | 179.4hPa | 2.7V | 00:00:00 | 00:49:24 | 00:00:00 | |
| DO2SHX-10 | 2026-08-31 11:39:48 | 54.34172 | 13.86288 | 50° | 66km/h | 12651m | 9.4m/s | -47.5°C | 3.9% | 179.9hPa | 2.7V | 00:00:00 | 00:49:21 | 00:00:00 | |
| DG6HD-15 | 2026-08-31 11:39:47 | 54.34161 | 13.86266 | 51° | 66km/h | 12643m | 7.4m/s | -47.5°C | 1.9% | 180.1hPa | 2.7V | 00:00:00 | 00:00:00 | 00:00:00 | |
| DL1XH-15 | 2026-08-31 11:39:46 | 54.34127 | 13.86200 | 47° | 69km/h | 12623m | 5.6m/s | -47.6°C | 3.8% | 180.6hPa | 2.7V | 08:30:00 | 00:49:17 | 00:00:00 | |
| DO2SHX-10 | 2026-08-31 11:39:45 | 54.34138 | 13.86222 | 48° | 69km/h | 12631m | 10.3m/s | -47.5°C | 3.9% | 180.4hPa | 2.8V | 00:00:00 | 00:49:18 | 00:00:00 | |
| DM0DOS-11 | 2026-08-31 11:39:44 | 54.34081 | 13.86108 | 52° | 71km/h | 12597m | 9.1m/s | -47.7°C | 3.9% | 181.4hPa | 2.8V | 08:30:00 | 00:49:13 | 00:00:00 | |
| AA1-15 | 2026-08-31 11:39:42 | 54.34103 | 13.86155 | 49° | 69km/h | 12611m | 9.1m/s | -47.7°C | 1.4% | 181hPa | 2.8V | 18:12:15 | 00:49:15 | 00:00:00 | |
| DL1XH-west | 2026-08-31 11:39:41 | 54.34092 | 13.86132 | 51° | 69km/h | 12604m | 4.6m/s | -47.8°C | 1.4% | 181.1hPa | 2.8V | 18:12:15 | 00:49:14 | 00:00:00 | |
| DF8AY | 2026-08-31 11:39:40 | 54.34081 | 13.86108 | 52° | 71km/h | 12598m | 9.1m/s | -47.7°C | 1.4% | 181.4hPa | 2.8V | 18:12:15 | 00:49:13 | 00:00:00 | |
| DO2SHX-10 | 2026-08-31 11:39:39 | 54.34070 | 13.86083 | 53° | 73km/h | 12589m | 7.2m/s | -47.6°C | 3.9% | 181.5hPa | 2.7V | 00:00:00 | 00:49:12 | 08:30:00 | |
| DL1XH1-15 | 2026-08-31 11:39:38 | 54.34026 | 13.85982 | 53° | 73km/h | 12567m | 5.4m/s | -47.5°C | 3.8% | 182.2hPa | 2.8V | 08:30:00 | 00:49:08 | 00:00:00 | |
| DM0DOS-11 | 2026-08-31 11:39:36 | 54.33974 | 13.85864 | 52° | 66km/h | 12534m | 4.1m/s | -47.7°C | 3.9% | 183.1hPa | 2.7V | 08:30:00 | 00:49:03 | 00:00:00 | |
| AA1-15 | 2026-08-31 11:39:31 | 54.33984 | 13.85886 | 53° | 66km/h | 12540m | 8.1m/s | -47.7°C | 1.4% | 182.9hPa | 2.7V | 18:12:15 | 00:49:04 | 00:00:00 | |
| DL1XH-west | 2026-08-31 11:39:30 | 54.33974 | 13.85864 | 53° | 66km/h | 12534m | 4.1m/s | -47.7°C | 1.4% | 183.2hPa | 2.7V | 18:12:15 | 00:49:03 | 00:00:00 | |
| DF8AY | 2026-08-31 11:39:27 | 54.33942 | 13.85792 | 54° | 73km/h | 12516m | 3.3m/s | -47.5°C | 1.4% | 0hPa | 2.8V | 18:12:15 | 00:49:00 | 00:00:00 | |
| DO2SHX-10 | 2026-08-31 11:39:26 | 54.33931 | 13.85767 | 54° | 71km/h | 12510m | 10.8m/s | -47.4°C | 3.9% | 183.8hPa | 2.8V | 00:00:00 | 00:48:59 | 00:00:00 | |
| DG6HD-15 | 2026-08-31 11:39:25 | 54.33931 | 13.85767 | 54° | 73km/h | 12510m | 10.8m/s | -47.5°C | 1.9% | 183.8hPa | 2.8V | 00:00:00 | 00:00:00 | 00:00:00 | |
| MECKS9 | 2026-08-31 11:39:24 | 54.33920 | 13.85742 | 56° | 73km/h | 12501m | 6.4m/s | -47.5°C | 1.9% | 184.0hPa | 2.8V | 00:00:00 | 00:00:00 | 00:00:00 | |
| DM0DOS-11 | 2026-08-31 11:39:23 | 54.33870 | 13.85620 | 54° | 66km/h | 12472m | 8m/s | -47.5°C | 3.9% | 184.9hPa | 2.8V | 08:30:00 | 00:48:53 | 00:00:00 | |
| AA1-15 | 2026-08-31 11:39:21 | 54.33879 | 13.85644 | 56° | 66km/h | 12477m | 3.9m/s | -47.4°C | 1.4% | 184.7hPa | 2.8V | 18:12:15 | 00:48:54 | 00:00:00 | |
| DL1XH-west | 2026-08-31 11:39:19 | 54.33860 | 13.85598 | 53° | 66km/h | 12465m | 4.7m/s | -47.6°C | 1.4% | 185hPa | 2.8V | 18:12:15 | 00:48:52 | 00:00:00 | |
| DL1XH1-15 | 2026-08-31 11:39:19 | 54.33817 | 13.85513 | 44° | 64km/h | 12439m | 8.2m/s | -47.5°C | 3.9% | 185.8hPa | 2.8V | 08:30:00 | 00:48:48 | 00:00:00 | |
| DF8AY | 2026-08-31 11:39:16 | 54.33829 | 13.85533 | 45° | 66km/h | 12445m | 4.8m/s | -47.5°C | 1.4% | 0hPa | 2.7V | 18:12:15 | 00:48:49 | 00:00:00 | |
| AA1-15 | 2026-08-31 11:39:10 | 54.33756 | 13.85410 | 48° | 69km/h | 12407m | 5m/s | -47.5°C | 1.5% | 186.7hPa | 2.7V | 18:12:15 | 00:48:43 | 00:00:00 | |
| DL1XH-west | 2026-08-31 11:39:09 | 54.33745 | 13.85387 | 49° | 68km/h | 12402m | 5.7m/s | -47.4°C | 1.5% | 186.9hPa | 2.7V | 18:12:15 | 00:48:42 | 00:00:00 | |
| DL1XH1-15 | 2026-08-31 11:39:09 | 54.33701 | 13.85291 | 52° | 73km/h | 12377m | 9.4m/s | -47.3°C | 4% | 187.5hPa | 2.8V | 08:30:00 | 00:48:38 | 00:00:00 | |
| DF8AY | 2026-08-31 11:39:06 | 54.33712 | 13.85316 | 53° | 71km/h | 12384m | 4.2m/s | -47.3°C | 1.4% | 0hPa | 2.8V | 18:12:15 | 00:48:39 | 00:00:00 | |
| DL1XH-15 | 2026-08-31 11:39:06 | 54.33690 | 13.85266 | 52° | 73km/h | 12370m | 4.4m/s | -47.2°C | 4% | 187.8hPa | 2.7V | 08:30:00 | 00:48:37 | 00:00:00 | |
| AA1-15 | 2026-08-31 11:39:00 | 54.33637 | 13.85140 | 53° | 75km/h | 12340m | 3.7m/s | -47°C | 1.4% | 188.6hPa | 2.8V | 18:12:15 | 00:48:32 | 00:00:00 | |
| DL1XH-15 | 2026-08-31 11:38:59 | 54.33578 | 13.85016 | 51° | 69km/h | 12303m | 6.2m/s | -46.8°C | 3.9% | 189.6hPa | 2.8V | 08:30:00 | 00:48:27 | 00:00:00 | |
| DL1XH1-15 | 2026-08-31 11:38:59 | 54.33590 | 13.85040 | 50° | 73km/h | 12311m | 11.5m/s | -46.8°C | 3.8% | 189.3hPa | 2.7V | 08:30:00 | 00:48:28 | 00:00:00 | |
| DL1XH-west | 2026-08-31 11:38:58 | 54.33625 | 13.85114 | 53° | 75km/h | 12333m | 10.3m/s | -47°C | 1.4% | 188.9hPa | 2.8V | 18:12:15 | 00:48:31 | 00:00:00 | |
| DF8AY | 2026-08-31 11:38:55 | 54.33589 | 13.85040 | 50° | 73km/h | 12311m | 11.5m/s | -46.8°C | 1.4% | 0hPa | 2.7V | 18:12:15 | 00:48:28 | 00:00:00 | |
| DO2SHX-10 | 2026-08-31 11:38:55 | 54.33589 | 13.85040 | 51° | 71km/h | 12312m | 11.5m/s | 0°C | 0% | 0hPa | 2.7V | 00:00:00 | 00:48:28 | 00:00:00 | |
| DM0DOS-11 | 2026-08-31 11:38:53 | 54.33534 | 13.84916 | 54° | 80km/h | 12279m | 2.8m/s | -46.5°C | 3.9% | 190.3hPa | 2.7V | 08:30:00 | 00:48:23 | 00:00:00 | |
| AA1-15 | 2026-08-31 11:38:48 | 54.33511 | 13.84857 | 57° | 84km/h | 12266m | 5.1m/s | -46.5°C | 1.4% | 190.7hPa | 2.7V | 18:12:15 | 00:48:21 | 00:00:00 | |
| DL1XH1-15 | 2026-08-31 11:38:48 | 54.33477 | 13.84770 | 54° | 77km/h | 12247m | 5.6m/s | -46.6°C | 3.9% | 191.2hPa | 2.8V | 08:30:00 | 00:48:18 | 00:00:00 | |
| DL1XH-west | 2026-08-31 11:38:47 | 54.33499 | 13.84827 | 57° | 82km/h | 12262m | 4.1m/s | -46.5°C | 1.4% | 190.9hPa | 2.8V | 18:12:15 | 00:48:20 | 00:00:00 | |
| DO2SHX-10 | 2026-08-31 11:38:46 | 54.33488 | 13.84797 | 57° | 77km/h | 12255m | 10.2m/s | 0°C | 0% | 0hPa | 2.8V | 00:00:00 | 00:48:19 | 00:00:00 | |
| DM0DOS-11 | 2026-08-31 11:38:45 | 54.33409 | 13.84606 | 58° | 84km/h | 12212m | 5.3m/s | -46.4°C | 3.9% | 192.3hPa | 2.8V | 08:30:00 | 00:48:12 | 00:00:00 | |
| DF8AY | 2026-08-31 11:38:45 | 54.33477 | 13.84770 | 54° | 77km/h | 12247m | 5.6m/s | -46.6°C | 1.5% | 0hPa | 2.8V | 18:12:15 | 00:48:18 | 00:00:00 | |
| DL1XH-15 | 2026-08-31 11:38:45 | 54.33466 | 13.84744 | 52° | 75km/h | 12242m | 2.9m/s | -46.7°C | 3.9% | 191.4hPa | 2.8V | 08:30:00 | 00:48:17 | 00:00:00 | |
| DG6HD-15 | 2026-08-31 11:38:44 | 54.33477 | 13.84770 | 55° | 77km/h | 12247m | 5.6m/s | -46.6°C | 2.0% | 191.2hPa | 2.8V | 00:00:00 | 00:00:00 | 00:00:00 | |
| DO2SHX-10 | 2026-08-31 11:38:43 | 54.33454 | 13.84718 | 53° | 75km/h | 12236m | 10.3m/s | 0°C | 0% | 0hPa | 2.8V | 00:00:00 | 00:48:16 | 08:30:00 | |
| S3001 | 2026-08-31 11:38:41 | 54.33431 | 13.84665 | 55° | 80km/h | 12223m | 3.1m/s | -46.5°C | 2.0% | 192.0hPa | 2.8V | 00:00:00 | 00:00:00 | 00:00:00 | |
| DO2SHX-10 | 2026-08-31 11:38:40 | 54.33420 | 13.84636 | 58° | 84km/h | 12218m | 7.4m/s | 0°C | 0% | 0hPa | 2.8V | 00:00:00 | 00:48:13 | 00:00:00 | |
| DL1XH-15 | 2026-08-31 11:38:39 | 54.33340 | 13.84420 | 56° | 88km/h | 12175m | 5.7m/s | -46.3°C | 3.9% | 193.4hPa | 2.8V | 08:30:00 | 00:48:06 | 00:00:00 | |
| DL1XH1-15 | 2026-08-31 11:38:38 | 54.33364 | 13.84483 | 56° | 86km/h | 12189m | 2.7m/s | -46.3°C | 3.9% | 193hPa | 2.7V | 08:30:00 | 00:48:08 | 00:00:00 | |
| DL1XH-west | 2026-08-31 11:38:37 | 54.33387 | 13.84544 | 59° | 84km/h | 12201m | 9.9m/s | -46.5°C | 1.5% | 192.8hPa | 2.8V | 18:12:15 | 00:48:10 | 00:00:00 | |
| DF8AY | 2026-08-31 11:38:34 | 54.33352 | 13.84452 | 57° | 86km/h | 12183m | 10.2m/s | -46.4°C | 1.6% | 0hPa | 2.7V | 18:12:15 | 00:48:07 | 00:00:00 | |
| EDDB2-11 | 2026-08-31 11:38:29 | 54.33291 | 13.84307 | 51° | 77km/h | 12151m | 3.7m/s | -46.2°C | 2.0% | 194.1hPa | 2.8V | 00:00:00 | 00:00:00 | 00:00:00 | |
| DL1XH1-15 | 2026-08-31 11:38:28 | 54.33244 | 13.84198 | 56° | 80km/h | 12122m | 10.3m/s | -46.4°C | 4% | 194.9hPa | 2.8V | 08:30:00 | 00:47:58 | 00:00:00 | |
| AA1-15 | 2026-08-31 11:38:27 | 54.33268 | 13.84254 | 53° | 78km/h | 12135m | 7.8m/s | -46.3°C | 1.6% | 194.5hPa | 2.7V | 18:12:15 | 00:48:00 | 00:00:00 | |
| DL1XH-west | 2026-08-31 11:38:26 | 54.33256 | 13.84227 | 55° | 82km/h | 12129m | 3.3m/s | -46.3°C | 1.6% | 194.7hPa | 2.8V | 18:12:15 | 00:47:59 | 00:00:00 | |
| DL1XH-15 | 2026-08-31 11:38:25 | 54.33232 | 13.84168 | 56° | 82km/h | 12115m | 5.7m/s | -46.4°C | 4% | 195hPa | 2.8V | 08:30:00 | 00:47:57 | 00:00:00 | |
| DF8AY | 2026-08-31 11:38:24 | 54.33233 | 13.84168 | 56° | 82km/h | 12115m | 5.7m/s | -46.4°C | 1.6% | 0hPa | 2.8V | 18:12:15 | 00:47:57 | 00:00:00 | |
| DG6HD-15 | 2026-08-31 11:38:23 | 54.33232 | 13.84168 | 57° | 82km/h | 12115m | 5.7m/s | -46.4°C | 2.1% | 195.0hPa | 2.7V | 00:00:00 | 00:00:00 | 00:00:00 | |
| DJ2DS-15 | 2026-08-31 11:38:20 | 54.33187 | 13.84056 | 53° | 77km/h | 12091m | 7.2m/s | -46.3°C | 2.1% | 195.9hPa | 2.7V | 00:00:00 | 00:00:00 | 00:00:00 | |
| DL1XH-15 | 2026-08-31 11:38:19 | 54.33117 | 13.83898 | 50° | 78km/h | 12052m | 3.6m/s | -46.2°C | 4% | 197hPa | 2.7V | 08:30:00 | 00:47:47 | 00:00:00 | |
| DL1XH1-15 | 2026-08-31 11:38:19 | 54.33130 | 13.83924 | 50° | 77km/h | 12058m | 6m/s | -46.2°C | 4% | 196.8hPa | 2.7V | 08:30:00 | 00:47:48 | 00:00:00 | |
| DL1XH-west | 2026-08-31 11:38:16 | 54.33129 | 13.83924 | 50° | 77km/h | 12058m | 6m/s | -46.2°C | 1.8% | 196.8hPa | 2.7V | 18:12:15 | 00:47:48 | 00:00:00 | |
| DM0DOS-11 | 2026-08-31 11:38:15 | 54.33066 | 13.83784 | 53° | 88km/h | 12025m | 7.6m/s | -46.2°C | 3.9% | 197.7hPa | 2.8V | 08:30:00 | 00:47:43 | 00:00:00 | |
| DF8AY | 2026-08-31 11:38:14 | 54.33117 | 13.83898 | 51° | 78km/h | 12052m | 3.6m/s | -46.2°C | 1.7% | 0hPa | 2.7V | 18:12:15 | 00:47:47 | 00:00:00 | |
| SONDE2-11 | 2026-08-31 11:38:12 | 54.33080 | 13.83815 | 52° | 86km/h | 12033m | 8.3m/s | -46.2°C | 2.1% | 197.5hPa | 2.8V | 00:00:00 | 00:00:00 | 00:00:00 | |
| S3001 | 2026-08-31 11:38:10 | 54.33066 | 13.83784 | 53° | 88km/h | 12025m | 7.6m/s | -46.2°C | 2.1% | 197.7hPa | 2.8V | 00:00:00 | 00:00:00 | 00:00:00 | |
| DL1XH1-15 | 2026-08-31 11:38:08 | 54.32998 | 13.83626 | 52° | 89km/h | 11993m | 5.3m/s | -46.2°C | 4% | 198.7hPa | 2.8V | 08:30:00 | 00:47:38 | 00:00:00 | |
| DL1XH-15 | 2026-08-31 11:38:06 | 54.32985 | 13.83595 | 52° | 86km/h | 11987m | 7.9m/s | -46.1°C | 4% | 198.8hPa | 2.8V | 08:30:00 | 00:47:37 | 00:00:00 | |
| DL1XH-west | 2026-08-31 11:38:05 | 54.32998 | 13.83626 | 52° | 89km/h | 11993m | 5.3m/s | -46.2°C | 1.8% | 198.7hPa | 2.8V | 18:12:15 | 00:47:38 | 00:00:00 | |
| DF8AY | 2026-08-31 11:38:04 | 54.32971 | 13.83566 | 51° | 88km/h | 11980m | 4.8m/s | -46.1°C | 1.8% | 0hPa | 2.8V | 18:12:15 | 00:47:36 | 00:00:00 | |
| AA1-15 | 2026-08-31 11:38:04 | 54.32985 | 13.83595 | 53° | 86km/h | 11987m | 7.9m/s | -46.1°C | 1.8% | 198.8hPa | 2.8V | 18:12:15 | 00:47:37 | 00:00:00 | |
| DM0DOS-11 | 2026-08-31 11:38:04 | 54.32929 | 13.83477 | 50° | 89km/h | 11960m | 4.2m/s | -46.3°C | 4.1% | 199.7hPa | 2.7V | 08:30:00 | 00:47:33 | 00:00:00 | |
| DO2SHX-10 | 2026-08-31 11:38:02 | 54.32957 | 13.83536 | 51° | 88km/h | 11974m | 7.0m/s | 0°C | 0% | 0hPa | 2.8V | 00:00:00 | 00:47:35 | 00:00:00 | |
| AM1SDL-15 | 2026-08-31 11:38:00 | 54.32929 | 13.83477 | 51° | 89km/h | 11961m | 4.2m/s | -46.3°C | 4.1% | 199.6hPa | 2.8V | 00:00:00 | 00:47:33 | 00:00:00 | |
| DL1XH1-15 | 2026-08-31 11:37:58 | 54.32853 | 13.83334 | 47° | 88km/h | 11924m | 6.1m/s | -46.6°C | 4% | 200.5hPa | 2.8V | 08:30:00 | 00:47:28 | 00:00:00 | |
| DL1XH-west | 2026-08-31 11:37:54 | 54.32839 | 13.83306 | 49° | 88km/h | 11919m | 5m/s | -46.6°C | 1.8% | 200.8hPa | 2.7V | 18:12:15 | 00:47:27 | 00:00:00 | |
| AA1-15 | 2026-08-31 11:37:54 | 54.32824 | 13.83277 | 50° | 89km/h | 11911m | 9.5m/s | -46.7°C | 1.9% | 201hPa | 2.7V | 18:12:15 | 00:47:26 | 00:00:00 | |
| DM0DOS-11 | 2026-08-31 11:37:53 | 54.32783 | 13.83185 | 53° | 89km/h | 11893m | 7.8m/s | -46.7°C | 4.2% | 201.6hPa | 2.8V | 08:30:00 | 00:47:23 | 00:00:00 | |
| DF8AY | 2026-08-31 11:37:52 | 54.32810 | 13.83247 | 52° | 88km/h | 11903m | 5.9m/s | -46.8°C | 1.9% | 0hPa | 2.7V | 18:12:15 | 00:47:25 | 00:00:00 | |
| DO2SHX-10 | 2026-08-31 11:37:52 | 54.32810 | 13.83247 | 53° | 89km/h | 11903m | 5.9m/s | 0°C | 0% | 0hPa | 2.8V | 00:00:00 | 00:47:25 | 00:00:00 | |
| DL1XH-15 | 2026-08-31 11:37:49 | 54.32695 | 13.83014 | 45° | 86km/h | 11856m | 7.8m/s | -46.6°C | 4.1% | 202.7hPa | 2.8V | 08:30:00 | 00:47:17 | 00:00:00 | |
| DO2SHX-10 | 2026-08-31 11:37:49 | 54.32769 | 13.83154 | 53° | 88km/h | 11886m | 5.5m/s | 0°C | 0% | 0hPa | 2.7V | 00:00:00 | 00:47:22 | 00:00:00 | |
| DL1XH1-15 | 2026-08-31 11:37:48 | 54.32710 | 13.83040 | 44° | 86km/h | 11863m | 4.8m/s | -46.6°C | 4.2% | 202.5hPa | 2.7V | 08:30:00 | 00:47:18 | 00:00:00 | |
| DM0DOS-11 | 2026-08-31 11:37:45 | 54.32634 | 13.82913 | 42° | 88km/h | 11832m | 5.1m/s | -46.8°C | 4.1% | 203.4hPa | 2.7V | 08:30:00 | 00:47:13 | 00:00:00 | |
| DL1XH-west | 2026-08-31 11:37:43 | 54.32680 | 13.82988 | 45° | 84km/h | 11850m | 4.7m/s | -46.7°C | 1.9% | 202.8hPa | 2.8V | 18:12:15 | 00:47:16 | 00:00:00 | |
| AA1-15 | 2026-08-31 11:37:42 | 54.32665 | 13.82963 | 44° | 82km/h | 11845m | 4.5m/s | -46.7°C | 1.9% | 203.1hPa | 2.8V | 18:12:15 | 00:47:15 | 00:00:00 | |
| DF8AY | 2026-08-31 11:37:39 | 54.32617 | 13.82887 | 41° | 93km/h | 11827m | 5m/s | -46.9°C | 2% | 0hPa | 2.8V | 18:12:15 | 00:47:12 | 00:00:00 | |
| DO2SHX-10 | 2026-08-31 11:37:39 | 54.32617 | 13.82886 | 41° | 99km/h | 11827m | 4.9m/s | 0°C | 0% | 0hPa | 2.7V | 00:00:00 | 00:47:12 | 00:00:00 | |
| DL1XH1-15 | 2026-08-31 11:37:38 | 54.32540 | 13.82769 | 43° | 106km/h | 11803m | 7.7m/s | -46.8°C | 4.2% | 204.4hPa | 2.7V | 08:30:00 | 00:47:08 | 00:00:00 | |
| DO2SHX-10 | 2026-08-31 11:37:36 | 54.32559 | 13.82800 | 42° | 104km/h | 11809m | 5.1m/s | 0°C | 0% | 0hPa | 2.7V | 00:00:00 | 00:47:09 | 00:00:00 | |
| DM0DOS-11 | 2026-08-31 11:37:35 | 54.32444 | 13.82598 | 46° | 86km/h | 11768m | 8.2m/s | -46.6°C | 4.2% | 205.4hPa | 2.7V | 08:30:00 | 00:47:02 | 00:00:00 | |
| AA1-15 | 2026-08-31 11:37:32 | 54.32489 | 13.82679 | 48° | 89km/h | 11786m | 8m/s | -46.7°C | 2.1% | 204.9hPa | 2.8V | 18:12:15 | 00:47:05 | 00:00:00 | |
| DO2SHX-10 | 2026-08-31 11:37:30 | 54.32458 | 13.82624 | 47° | 88km/h | 11775m | 4.1m/s | 0°C | 0% | 0hPa | 2.8V | 00:00:00 | 00:47:03 | 00:00:00 | |
| DO2SHX-10 | 2026-08-31 11:37:27 | 54.32412 | 13.82543 | 44° | 93km/h | 11756m | 4.7m/s | 0°C | 0% | 0hPa | 2.8V | 00:00:00 | 00:47:00 | 00:00:00 | |
| DL1XH-15 | 2026-08-31 11:37:26 | 54.32360 | 13.82460 | 42° | 95km/h | 11738m | 6m/s | -46.8°C | 4.3% | 206.5hPa | 2.8V | 08:30:00 | 00:46:57 | 00:00:00 | |
| DM0DOS-11 | 2026-08-31 11:37:24 | 54.32278 | 13.82310 | 51° | 99km/h | 11708m | 4.3m/s | -46.7°C | 4.2% | 207.4hPa | 2.8V | 08:30:00 | 00:46:52 | 00:00:00 | |
| AA1-15 | 2026-08-31 11:37:21 | 54.32310 | 13.82374 | 48° | 93km/h | 11720m | 5.9m/s | -46.8°C | 2.2% | 207.1hPa | 2.7V | 18:12:15 | 00:46:54 | 00:00:00 | |
| DF8AY | 2026-08-31 11:37:19 | 54.32278 | 13.82310 | 51° | 99km/h | 11708m | 4.3m/s | -46.7°C | 2.1% | 0hPa | 2.8V | 18:12:15 | 00:46:52 | 00:00:00 | |
| DO2SHX-10 | 2026-08-31 11:37:18 | 54.32263 | 13.82277 | 52° | 99km/h | 11703m | 4.7m/s | 0°C | 0% | 0hPa | 2.8V | 00:00:00 | 00:46:51 | 00:00:00 | |
| DL1XH-15 | 2026-08-31 11:37:15 | 54.32200 | 13.82148 | 48° | 91km/h | 11682m | 5.4m/s | -47.1°C | 4.2% | 208.2hPa | 2.8V | 08:30:00 | 00:46:47 | 00:00:00 | |
| DO2SHX-10 | 2026-08-31 11:37:15 | 54.32215 | 13.82179 | 50° | 91km/h | 11688m | 5.6m/s | 0°C | 0% | 0hPa | 2.8V | 00:00:00 | 00:46:48 | 00:00:00 | |
| DM0DOS-11 | 2026-08-31 11:37:14 | 54.32112 | 13.81992 | 43° | 88km/h | 11651m | 3.1m/s | -47.2°C | 4.4% | 209.2hPa | 2.8V | 08:30:00 | 00:46:41 | 00:00:00 | |
| DL1XH-west | 2026-08-31 11:37:11 | 54.32156 | 13.82067 | 46° | 80km/h | 11667m | 5.9m/s | -47.2°C | 2.2% | 208.7hPa | 2.7V | 18:12:15 | 00:46:44 | 00:00:00 | |
| AA1-15 | 2026-08-31 11:37:10 | 54.32142 | 13.82042 | 45° | 80km/h | 11661m | 6.4m/s | -47.2°C | 2.2% | 208.9hPa | 2.7V | 18:12:15 | 00:46:43 | 00:00:00 | |
| DF8AY | 2026-08-31 11:37:08 | 54.32112 | 13.81992 | 44° | 88km/h | 11651m | 3.1m/s | 0°C | 0% | 0hPa | 2.8V | 18:12:15 | 00:46:41 | 00:00:00 | |
| DO2SHX-10 | 2026-08-31 11:37:06 | 54.32079 | 13.81938 | 44° | 91km/h | 11644m | 3.9m/s | 0°C | 0% | 0hPa | 2.7V | 00:00:00 | 00:46:39 | 08:30:00 | |
| DM0DOS-11 | 2026-08-31 11:37:03 | 54.31949 | 13.81711 | 46° | 88km/h | 11605m | 5.6m/s | -47.2°C | 4.2% | 210.7hPa | 2.7V | 08:30:00 | 00:46:31 | 00:00:00 | |
| DL1XH-west | 2026-08-31 11:37:01 | 54.31995 | 13.81798 | 47° | 93km/h | 11618m | 3.8m/s | -47.2°C | 2% | 210.3hPa | 2.8V | 18:12:15 | 00:46:34 | 00:00:00 | |
| AA1-15 | 2026-08-31 11:37:00 | 54.31979 | 13.81768 | 48° | 91km/h | 11614m | 3.6m/s | -47.1°C | 2% | 210.4hPa | 2.8V | 18:12:15 | 00:46:33 | 00:00:00 | |
| DF8AY | 2026-08-31 11:36:57 | 54.31933 | 13.81685 | 44° | 88km/h | 11600m | 4.6m/s | 0°C | 0% | 0hPa | 2.8V | 18:12:15 | 00:46:30 | 00:00:00 | |
| EDDB2-11 | 2026-08-31 11:36:57 | 54.31917 | 13.81659 | 42° | 88km/h | 11595m | 5.2m/s | -47.3°C | 2.3% | 211.0hPa | 2.8V | 00:00:00 | 00:00:00 | 00:00:00 | |
| DL1XH-15 | 2026-08-31 11:36:55 | 54.31883 | 13.81605 | 43° | 95km/h | 11582m | 6.1m/s | -47.4°C | 4.3% | 211.4hPa | 2.8V | 08:30:00 | 00:46:27 | 00:00:00 | |
| DL1XH-west | 2026-08-31 11:36:50 | 54.31808 | 13.81498 | 35° | 99km/h | 11561m | 6.9m/s | -47.4°C | 2.1% | 212.1hPa | 2.8V | 18:12:15 | 00:46:23 | 00:00:00 | |
| DM0DOS-11 | 2026-08-31 11:36:49 | 54.31768 | 13.81451 | 35° | 95km/h | 11549m | 4.8m/s | -47.4°C | 4.4% | 212.4hPa | 2.7V | 08:30:00 | 00:46:21 | 00:00:00 | |
| AA1-15 | 2026-08-31 11:36:49 | 54.31788 | 13.81474 | 34° | 95km/h | 11555m | 5.9m/s | -47.4°C | 2.1% | 212.3hPa | 2.8V | 18:12:15 | 00:46:22 | 00:00:00 | |
| DL1XH-15 | 2026-08-31 11:36:49 | 54.31695 | 13.81349 | 39° | 95km/h | 11528m | 5.1m/s | -47.6°C | 4.6% | 213.2hPa | 2.8V | 08:30:00 | 00:46:17 | 00:00:00 | |
| DF8AY | 2026-08-31 11:36:47 | 54.31749 | 13.81426 | 38° | 93km/h | 11545m | 3.2m/s | 0°C | 0% | 0hPa | 2.8V | 18:12:15 | 00:46:20 | 00:00:00 | |
| DM0DOS-11 | 2026-08-31 11:36:44 | 54.31579 | 13.81182 | 40° | 102km/h | 11488m | 4m/s | -47.6°C | 4.6% | 214.5hPa | 2.8V | 08:30:00 | 00:46:11 | 00:00:00 | |
| DL1XH-west | 2026-08-31 11:36:40 | 54.31618 | 13.81240 | 40° | 100km/h | 11501m | 9.4m/s | -47.6°C | 2.4% | 214hPa | 2.7V | 18:12:15 | 00:46:13 | 00:00:00 | |
| SONDE2-11 | 2026-08-31 11:36:39 | 54.31579 | 13.81182 | 40° | 100km/h | 11488m | 4.0m/s | -47.6°C | 2.7% | 214.5hPa | 2.8V | 00:00:00 | 00:00:00 | 00:00:00 | |
| AA1-15 | 2026-08-31 11:36:39 | 54.31579 | 13.81182 | 41° | 102km/h | 11488m | 4m/s | -47.6°C | 2.6% | 214.5hPa | 2.8V | 18:12:15 | 00:46:11 | 00:00:00 | |
| DL1XH1-15 | 2026-08-31 11:36:38 | 54.31522 | 13.81095 | 42° | 100km/h | 11470m | 3.3m/s | -48°C | 4.7% | 215.1hPa | 2.8V | 08:30:00 | 00:46:08 | 00:00:00 | |
| DF8AY | 2026-08-31 11:36:37 | 54.31541 | 13.81125 | 43° | 102km/h | 11475m | 5.9m/s | 0°C | 0% | 0hPa | 2.7V | 18:12:15 | 00:46:09 | 00:00:00 | |
| DL1XH-west | 2026-08-31 11:36:30 | 54.31433 | 13.80955 | 37° | 93km/h | 11440m | 6.1m/s | -47.8°C | 2.8% | 216hPa | 2.8V | 18:12:15 | 00:46:03 | 00:00:00 | |
| DM0DOS-11 | 2026-08-31 11:36:29 | 54.31392 | 13.80908 | 32° | 99km/h | 11429m | 8.7m/s | -47.8°C | 4.8% | 216.3hPa | 2.8V | 08:30:00 | 00:46:01 | 00:00:00 | |
| DL1XH1-15 | 2026-08-31 11:36:28 | 54.31327 | 13.80842 | 29° | 102km/h | 11411m | 8.6m/s | -47.8°C | 4.8% | 216.9hPa | 2.8V | 08:30:00 | 00:45:58 | 00:00:00 | |
| AA1-15 | 2026-08-31 11:36:27 | 54.31371 | 13.80886 | 31° | 100km/h | 11422m | 5.5m/s | -47.7°C | 2.8% | 216.6hPa | 2.8V | 18:12:15 | 00:46:00 | 00:00:00 | |
| DF8AY | 2026-08-31 11:36:27 | 54.31349 | 13.80864 | 30° | 100km/h | 11418m | 3.8m/s | 0°C | 0% | 0hPa | 2.8V | 18:12:15 | 00:45:59 | 00:00:00 | |
| DL1XH-15 | 2026-08-31 11:36:24 | 54.31305 | 13.80819 | 30° | 100km/h | 11404m | 6.2m/s | -47.9°C | 4.9% | 217.2hPa | 2.8V | 08:30:00 | 00:45:57 | 00:00:00 | |
| DM0DOS-11 | 2026-08-31 11:36:23 | 54.31187 | 13.80686 | 36° | 93km/h | 11371m | 5.3m/s | -47.7°C | 5.1% | 218.3hPa | 2.8V | 08:30:00 | 00:45:51 | 00:00:00 | |
| DL1XH-west | 2026-08-31 11:36:19 | 54.31206 | 13.80709 | 37° | 89km/h | 11376m | 4.5m/s | -47.6°C | 3.1% | 218.1hPa | 2.8V | 18:12:15 | 00:45:52 | 00:00:00 | |
| DL1XH-15 | 2026-08-31 11:36:19 | 54.31107 | 13.80594 | 32° | 95km/h | 11351m | 5.7m/s | -47.6°C | 5.1% | 219hPa | 2.8V | 08:30:00 | 00:45:47 | 00:00:00 | |
| DL1XH1-15 | 2026-08-31 11:36:18 | 54.31128 | 13.80616 | 32° | 97km/h | 11356m | 3.3m/s | -47.6°C | 5.2% | 218.8hPa | 2.8V | 08:30:00 | 00:45:48 | 00:00:00 | |
| AA1-15 | 2026-08-31 11:36:17 | 54.31168 | 13.80662 | 35° | 95km/h | 11365m | 6.9m/s | -47.7°C | 3.2% | 218.5hPa | 2.8V | 18:12:15 | 00:45:50 | 00:00:00 | |
| DM0DOS-11 | 2026-08-31 11:36:13 | 54.30989 | 13.80470 | 31° | 91km/h | 11317m | 7.3m/s | -47.6°C | 5.1% | 220.1hPa | 2.8V | 08:30:00 | 00:45:41 | 00:00:00 | |
| AM1SDL-15 | 2026-08-31 11:36:11 | 54.31048 | 13.80530 | 32° | 91km/h | 11334m | 5.7m/s | -47.5°C | 5.0% | 219.4hPa | 2.8V | 00:00:00 | 00:45:44 | 00:00:00 | |
| DL1XH-15 | 2026-08-31 11:36:09 | 54.30912 | 13.80382 | 34° | 89km/h | 11292m | 6.3m/s | -47.5°C | 5.1% | 220.8hPa | 2.8V | 08:30:00 | 00:45:37 | 00:00:00 | |
| DL1XH-west | 2026-08-31 11:36:08 | 54.30989 | 13.80470 | 32° | 91km/h | 11317m | 7.3m/s | -47.6°C | 3.3% | 220.1hPa | 2.8V | 18:12:15 | 00:45:41 | 00:00:00 | |
| DL1XH1-15 | 2026-08-31 11:36:08 | 54.30930 | 13.80404 | 34° | 89km/h | 11300m | 9.3m/s | -47.5°C | 5.1% | 220.6hPa | 2.8V | 08:30:00 | 00:45:38 | 00:00:00 | |
| AA1-15 | 2026-08-31 11:36:07 | 54.30949 | 13.80426 | 34° | 93km/h | 11307m | 4.3m/s | -47.6°C | 3.3% | 220.4hPa | 2.7V | 18:12:15 | 00:45:39 | 00:00:00 | |
| S3001 | 2026-08-31 11:36:06 | 54.30949 | 13.80426 | 34° | 91km/h | 11307m | 4.3m/s | -47.6°C | 3.1% | 220.4hPa | 2.8V | 00:00:00 | 00:00:00 | 00:00:00 | |
| DM0DOS-11 | 2026-08-31 11:36:03 | 54.30803 | 13.80235 | 41° | 100km/h | 11256m | 6.3m/s | -47.6°C | 5.2% | 222.1hPa | 2.8V | 08:30:00 | 00:45:31 | 00:00:00 | |
| DG6HD-15 | 2026-08-31 11:36:00 | 54.30858 | 13.80314 | 40° | 89km/h | 11274m | 5.1m/s | -47.5°C | 3.2% | 221.5hPa | 2.8V | 00:00:00 | 00:00:00 | 00:00:00 | |
| DL1XH-15 | 2026-08-31 11:35:59 | 54.30726 | 13.80116 | 41° | 104km/h | 11233m | 3.9m/s | -47.8°C | 5.4% | 222.9hPa | 2.8V | 08:30:00 | 00:45:27 | 00:00:00 | |
| AM1SDL-15 | 2026-08-31 11:35:59 | 54.30821 | 13.80262 | 41° | 99km/h | 11263m | 8.6m/s | -47.6°C | 5.2% | 221.8hPa | 2.9V | 00:00:00 | 00:45:32 | 00:00:00 | |
| DL1XH1-15 | 2026-08-31 11:35:58 | 54.30746 | 13.80146 | 42° | 106km/h | 11237m | 5m/s | -47.7°C | 5.3% | 222.7hPa | 2.8V | 08:30:00 | 00:45:28 | 00:00:00 | |
| DL1XH-west | 2026-08-31 11:35:57 | 54.30784 | 13.80206 | 42° | 102km/h | 11250m | 3.6m/s | -47.7°C | 3.6% | 222.3hPa | 2.8V | 18:12:15 | 00:45:30 | 00:00:00 | |
| AA1-15 | 2026-08-31 11:35:55 | 54.30746 | 13.80146 | 42° | 106km/h | 11237m | 5m/s | -47.7°C | 3.6% | 222.7hPa | 2.8V | 18:12:15 | 00:45:28 | 00:00:00 | |
| EDDB2-11 | 2026-08-31 11:35:55 | 54.30726 | 13.80115 | 41° | 104km/h | 11233m | 3.9m/s | -47.8°C | 3.4% | 222.9hPa | 2.8V | 00:00:00 | 00:00:00 | 00:00:00 | |
| MECKS9 | 2026-08-31 11:35:50 | 54.30668 | 13.80033 | 39° | 95km/h | 11215m | 5.7m/s | -47.9°C | 3.5% | 223.5hPa | 2.8V | 00:00:00 | 00:00:00 | 00:00:00 | |
| DL1XH1-15 | 2026-08-31 11:35:48 | 54.30563 | 13.79892 | 39° | 88km/h | 11180m | 4.6m/s | -48°C | 5.9% | 224.8hPa | 2.8V | 08:30:00 | 00:45:18 | 00:00:00 | |
| DL1XH-west | 2026-08-31 11:35:47 | 54.30597 | 13.79939 | 39° | 86km/h | 11192m | 7.9m/s | -47.9°C | 4.3% | 224.3hPa | 2.8V | 18:12:15 | 00:45:20 | 00:00:00 | |
| DL1XH-15 | 2026-08-31 11:35:45 | 54.30546 | 13.79868 | 41° | 88km/h | 11174m | 8m/s | -48.1°C | 6% | 225hPa | 2.8V | 08:30:00 | 00:45:17 | 00:00:00 | |
| AA1-15 | 2026-08-31 11:35:44 | 54.30546 | 13.79868 | 41° | 88km/h | 11174m | 8m/s | -48.1°C | 4.7% | 225hPa | 2.8V | 18:12:15 | 00:45:17 | 00:00:00 | |
| DM0DOS-11 | 2026-08-31 11:35:43 | 54.30436 | 13.79714 | 36° | 93km/h | 11137m | 5.8m/s | -48.4°C | 6.6% | 226.2hPa | 2.9V | 08:30:00 | 00:45:11 | 00:00:00 | |
| DO2SHX-10 | 2026-08-31 11:35:40 | 54.30474 | 13.79764 | 39° | 95km/h | 11150m | 8.8m/s | 0°C | 0% | 0hPa | 2.9V | 00:00:00 | 00:45:13 | 00:00:00 | |
| DL1XH-15 | 2026-08-31 11:35:39 | 54.30336 | 13.79581 | 41° | 106km/h | 11109m | 3.3m/s | -48.2°C | 7.1% | 227.2hPa | 2.9V | 08:30:00 | 00:45:06 | 00:00:00 | |
| DL1XH1-15 | 2026-08-31 11:35:38 | 54.30377 | 13.79638 | 37° | 100km/h | 11120m | 8.2m/s | -48.3°C | 6.9% | 226.9hPa | 2.8V | 08:30:00 | 00:45:08 | 00:00:00 | |
| DL1XH-west | 2026-08-31 11:35:37 | 54.30416 | 13.79690 | 37° | 95km/h | 11132m | 4m/s | -48.3°C | 5.6% | 226.4hPa | 2.8V | 18:12:15 | 00:45:10 | 00:00:00 | |
| AA1-15 | 2026-08-31 11:35:34 | 54.30337 | 13.79581 | 41° | 106km/h | 11109m | 3.3m/s | -48.2°C | 6.2% | 227.2hPa | 2.9V | 18:12:15 | 00:45:06 | 00:00:00 | |
| DM0DOS-11 | 2026-08-31 11:35:34 | 54.30235 | 13.79444 | 35° | 100km/h | 11082m | 5.2m/s | -48.3°C | 7.8% | 228.2hPa | 2.9V | 08:30:00 | 00:45:01 | 00:00:00 | |
| AM1SDL-15 | 2026-08-31 11:35:33 | 54.30336 | 13.79581 | 42° | 102km/h | 11109m | 3.3m/s | -48.2°C | 7.1% | 227.2hPa | 2.8V | 00:00:00 | 00:45:06 | 00:00:00 | |
| DO2SHX-10 | 2026-08-31 11:35:30 | 54.30276 | 13.79495 | 37° | 100km/h | 11092m | 5.6m/s | 0°C | 0% | 0hPa | 2.8V | 00:00:00 | 00:45:03 | 00:00:00 | |
| DL1XH1-15 | 2026-08-31 11:35:28 | 54.30174 | 13.79365 | 39° | 100km/h | 11065m | 3.4m/s | -48.7°C | 8.8% | 228.8hPa | 2.8V | 08:30:00 | 00:44:58 | 00:00:00 | |
| DL1XH-west | 2026-08-31 11:35:26 | 54.30193 | 13.79393 | 39° | 100km/h | 11069m | 4.8m/s | -48.5°C | 8.1% | 228.5hPa | 2.8V | 18:12:15 | 00:44:59 | 00:00:00 | |
| DL1XH-15 | 2026-08-31 11:35:26 | 54.30154 | 13.79337 | 40° | 102km/h | 11060m | 7.6m/s | -48.7°C | 9% | 228.9hPa | 2.9V | 08:30:00 | 00:44:57 | 00:00:00 | |
| DM0DOS-11 | 2026-08-31 11:35:24 | 54.30030 | 13.79173 | 35° | 106km/h | 11026m | 9.1m/s | -49.1°C | 11.4% | 230.2hPa | 2.8V | 08:30:00 | 00:44:51 | 00:00:00 | |
| AA1-15 | 2026-08-31 11:35:22 | 54.30114 | 13.79281 | 38° | 102km/h | 11050m | 3.5m/s | -48.7°C | 9.7% | 229.4hPa | 2.8V | 18:12:15 | 00:44:55 | 00:00:00 | |
| DO2SHX-10 | 2026-08-31 11:35:21 | 54.30093 | 13.79254 | 38° | 106km/h | 11044m | 8.4m/s | 0°C | 0% | 0hPa | 2.9V | 00:00:00 | 00:44:54 | 00:00:00 | |
| DJ2DS-15 | 2026-08-31 11:35:20 | 54.30072 | 13.79227 | 36° | 104km/h | 11037m | 6.2m/s | -48.7°C | 7.6% | 229.7hPa | 2.9V | 00:00:00 | 00:00:00 | 00:00:00 | |
| DL1XH-15 | 2026-08-31 11:35:19 | 54.29944 | 13.79075 | 31° | 99km/h | 10999m | 6.7m/s | -49.6°C | 12.7% | 231hPa | 2.9V | 08:30:00 | 00:44:47 | 00:00:00 | |
| DL1XH-west | 2026-08-31 11:35:16 | 54.29987 | 13.79122 | 34° | 100km/h | 11013m | 4.2m/s | -49.3°C | 12.6% | 230.7hPa | 2.8V | 18:12:15 | 00:44:49 | 00:00:00 | |
| AA1-15 | 2026-08-31 11:35:12 | 54.29882 | 13.79008 | 32° | 95km/h | 10980m | 6.4m/s | -49.8°C | 14% | 231.8hPa | 2.8V | 18:12:15 | 00:44:44 | 00:00:00 | |
| DM0DOS-11 | 2026-08-31 11:35:10 | 54.29823 | 13.78941 | 34° | 91km/h | 10959m | 6.8m/s | -49.8°C | 14.1% | 232.5hPa | 2.8V | 08:30:00 | 00:44:41 | 00:00:00 | |
| AM1SDL-15 | 2026-08-31 11:35:09 | 54.29842 | 13.78963 | 35° | 93km/h | 10968m | 9.7m/s | -49.7°C | 14.1% | 232.2hPa | 2.9V | 00:00:00 | 00:44:42 | 00:00:00 | |
| DL1XH1-15 | 2026-08-31 11:35:08 | 54.29767 | 13.78871 | 36° | 89km/h | 10939m | 6.5m/s | -50°C | 14.2% | 233.1hPa | 2.9V | 08:30:00 | 00:44:38 | 00:00:00 | |
| DL1XH-west | 2026-08-31 11:35:05 | 54.29767 | 13.78871 | 36° | 89km/h | 10939m | 6.5m/s | -50°C | 14.9% | 233.1hPa | 2.9V | 18:12:15 | 00:44:38 | 00:00:00 | |
| DO2SHX-10 | 2026-08-31 11:35:04 | 54.29749 | 13.78848 | 37° | 88km/h | 10934m | 4.7m/s | 0°C | 0% | 0hPa | 2.8V | 00:00:00 | 00:44:37 | 00:00:00 | |
| DM0DOS-11 | 2026-08-31 11:35:03 | 54.29644 | 13.78709 | 44° | 95km/h | 10895m | 8m/s | -50.2°C | 15% | 234.7hPa | 2.8V | 08:30:00 | 00:44:31 | 00:00:00 | |
| AA1-15 | 2026-08-31 11:35:00 | 54.29678 | 13.78761 | 39° | 88km/h | 10910m | 4.7m/s | -50.3°C | 15.1% | 234.2hPa | 2.9V | 18:12:15 | 00:44:33 | 00:00:00 | |
| DO2SHX-10 | 2026-08-31 11:35:00 | 54.29678 | 13.78761 | 40° | 99km/h | 10910m | 4.6m/s | 0°C | 0% | 0hPa | 2.8V | 00:00:00 | 00:44:33 | 00:00:00 | |
| DL1XH-15 | 2026-08-31 11:34:59 | 54.29571 | 13.78581 | 44° | 106km/h | 10871m | 2.1m/s | -50°C | 15.1% | 235.6hPa | 2.8V | 08:30:00 | 00:44:27 | 00:00:00 | |
| DL1XH-west | 2026-08-31 11:34:55 | 54.29590 | 13.78614 | 47° | 106km/h | 10876m | 7.2m/s | -50.1°C | 15% | 235.4hPa | 2.9V | 18:12:15 | 00:44:28 | 00:00:00 | |
| DO2SHX-10 | 2026-08-31 11:34:55 | 54.29590 | 13.78614 | 47° | 106km/h | 10876m | 7.1m/s | 0°C | 0% | 0hPa | 2.8V | 00:00:00 | 00:44:28 | 00:00:00 | |
| DM0DOS-11 | 2026-08-31 11:34:52 | 54.29458 | 13.78399 | 40° | 95km/h | 10834m | 3.3m/s | -49.8°C | 15% | 237hPa | 2.8V | 08:30:00 | 00:44:21 | 00:00:00 | |
| AA1-15 | 2026-08-31 11:34:51 | 54.29476 | 13.78427 | 43° | 99km/h | 10840m | 7.6m/s | -49.8°C | 14.9% | 236.7hPa | 2.9V | 18:12:15 | 00:44:22 | 00:00:00 | |
| DO2SHX-10 | 2026-08-31 11:34:49 | 54.29476 | 13.78427 | 43° | 97km/h | 10840m | 7.6m/s | 0°C | 0% | 0hPa | 2.8V | 00:00:00 | 00:44:22 | 00:00:00 | |
| DL1XH1-15 | 2026-08-31 11:34:48 | 54.29403 | 13.78321 | 39° | 97km/h | 10816m | 7m/s | -49.7°C | 14.8% | 237.5hPa | 2.8V | 08:30:00 | 00:44:18 | 00:00:00 | |
| DL1XH-15 | 2026-08-31 11:34:46 | 54.29384 | 13.78294 | 41° | 99km/h | 10812m | 3.3m/s | -49.6°C | 14.7% | 237.8hPa | 2.9V | 08:30:00 | 00:44:17 | 00:00:00 | |
| DL1XH-west | 2026-08-31 11:34:45 | 54.29384 | 13.78294 | 41° | 99km/h | 10812m | 3.3m/s | -49.6°C | 14.8% | 237.8hPa | 2.9V | 18:12:15 | 00:44:17 | 00:00:00 | |
| AA1-15 | 2026-08-31 11:34:40 | 54.29312 | 13.78175 | 46° | 100km/h | 10788m | 5.6m/s | -49.5°C | 14.6% | 238.7hPa | 2.8V | 18:12:15 | 00:44:13 | 00:00:00 | |
| DM0DOS-11 | 2026-08-31 11:34:39 | 54.29276 | 13.78116 | 41° | 99km/h | 10774m | 6.4m/s | -49.5°C | 14.3% | 239.2hPa | 2.9V | 08:30:00 | 00:44:11 | 00:00:00 | |
| DG6HD-15 | 2026-08-31 11:34:39 | 54.29294 | 13.78145 | 46° | 99km/h | 10781m | 8.2m/s | 0°C | 0% | 0hPa | 2.8V | 00:00:00 | 00:00:00 | 00:00:00 | |
| DL1XH1-15 | 2026-08-31 11:34:38 | 54.29218 | 13.78040 | 36° | 95km/h | 10757m | 8.9m/s | -49.4°C | 14.1% | 239.8hPa | 2.8V | 08:30:00 | 00:44:08 | 00:00:00 | |
| DL1XH-west | 2026-08-31 11:34:34 | 54.29199 | 13.78016 | 38° | 91km/h | 10748m | 7.9m/s | -49.3°C | 14.3% | 240hPa | 2.8V | 18:12:15 | 00:44:07 | 00:00:00 | |
| DO2SHX-10 | 2026-08-31 11:34:34 | 54.29199 | 13.78016 | 38° | 93km/h | 10748m | 7.8m/s | 0°C | 0% | 0hPa | 2.8V | 00:00:00 | 00:44:07 | 00:00:00 | |
| DM0DOS-11 | 2026-08-31 11:34:33 | 54.29066 | 13.77826 | 37° | 104km/h | 10703m | 6.6m/s | -49°C | 13.7% | 241.6hPa | 2.8V | 08:30:00 | 00:44:00 | 00:00:00 | |
| AA1-15 | 2026-08-31 11:34:29 | 54.29066 | 13.77826 | 38° | 104km/h | 10703m | 6.6m/s | -49.1°C | 13.9% | 241.6hPa | 2.8V | 18:12:15 | 00:44:00 | 00:00:00 | |
| DL1XH1-15 | 2026-08-31 11:34:27 | 54.29024 | 13.77771 | 37° | 104km/h | 10692m | 5.4m/s | -49°C | 14.1% | 242.2hPa | 2.9V | 08:30:00 | 00:43:58 | 00:00:00 | |
| DL1XH-15 | 2026-08-31 11:34:27 | 54.29004 | 13.77744 | 37° | 100km/h | 10687m | 5.9m/s | -49.1°C | 13.9% | 242.3hPa | 2.9V | 08:30:00 | 00:43:57 | 00:00:00 | |
| DL1XH-west | 2026-08-31 11:34:23 | 54.28963 | 13.77693 | 36° | 97km/h | 10676m | 4.7m/s | -49.1°C | 13.9% | 242.7hPa | 2.8V | 18:12:15 | 00:43:55 | 00:00:00 | |
| DL1XH1-15 | 2026-08-31 11:34:21 | 54.28815 | 13.77494 | 37° | 111km/h | 10627m | 5.5m/s | -48.9°C | 13.1% | 244.5hPa | 2.9V | 08:30:00 | 00:43:48 | 00:00:00 | |
| DL1XH-15 | 2026-08-31 11:34:20 | 54.28793 | 13.77466 | 36° | 110km/h | 10623m | 3.2m/s | -48.8°C | 13.2% | 244.8hPa | 2.9V | 08:30:00 | 00:43:47 | 00:00:00 | |
| AA1-15 | 2026-08-31 11:34:20 | 54.28903 | 13.77613 | 39° | 106km/h | 10656m | 8.8m/s | -49.1°C | 13.6% | 243.4hPa | 2.9V | 18:12:15 | 00:43:52 | 00:00:00 | |
| DL1XH-west | 2026-08-31 11:34:12 | 54.28749 | 13.77412 | 36° | 104km/h | 10612m | 8.2m/s | -48.9°C | 13.8% | 245.1hPa | 2.8V | 18:12:15 | 00:43:45 | 00:00:00 | |
| AA1-15 | 2026-08-31 11:34:09 | 54.28671 | 13.77303 | 42° | 99km/h | 10587m | 8.2m/s | -48.9°C | 14% | 246.1hPa | 2.9V | 18:12:15 | 00:43:41 | 00:00:00 | |
| DM0DOS-11 | 2026-08-31 11:34:07 | 54.28652 | 13.77275 | 41° | 99km/h | 10580m | 7m/s | -49°C | 13.9% | 246.3hPa | 2.9V | 08:30:00 | 00:43:40 | 00:00:00 | |
| DF8AY | 2026-08-31 11:34:06 | 54.28633 | 13.77247 | 42° | 100km/h | 10574m | 3.2m/s | -48.9°C | 0% | 0hPa | 2.8V | 18:12:15 | 00:43:39 | 00:00:00 | |
| DL1XH-west | 2026-08-31 11:34:02 | 54.28558 | 13.77130 | 42° | 106km/h | 10550m | 5.7m/s | -48.9°C | 14.1% | 247.5hPa | 2.9V | 18:12:15 | 00:43:35 | 00:00:00 | |
| DL1XH-15 | 2026-08-31 11:34:00 | 54.28400 | 13.76890 | 39° | 100km/h | 10496m | 10.4m/s | -48.6°C | 13.6% | 249.4hPa | 2.9V | 08:30:00 | 00:43:27 | 00:00:00 | |
| AA1-15 | 2026-08-31 11:33:57 | 54.28458 | 13.76975 | 41° | 102km/h | 10517m | 8.1m/s | -48.7°C | 13.9% | 248.7hPa | 2.9V | 18:12:15 | 00:43:30 | 00:00:00 | |
| DL1XH1-15 | 2026-08-31 11:33:56 | 54.28420 | 13.76918 | 40° | 100km/h | 10503m | 4.3m/s | -48.6°C | 13.8% | 249.2hPa | 2.9V | 08:30:00 | 00:43:28 | 00:00:00 | |
| DF8AY | 2026-08-31 11:33:52 | 54.28315 | 13.76775 | 40° | 110km/h | 10470m | 9.3m/s | -48.6°C | 0% | 0hPa | 2.8V | 18:12:15 | 00:43:23 | 00:00:00 | |
| DM0DOS-11 | 2026-08-31 11:33:51 | 54.28255 | 13.76689 | 40° | 99km/h | 10450m | 5.1m/s | -48.6°C | 13.2% | 251.2hPa | 2.9V | 08:30:00 | 00:43:20 | 00:00:00 | |
| DL1XH-west | 2026-08-31 11:33:51 | 54.28294 | 13.76745 | 39° | 106km/h | 10462m | 7.3m/s | -48.6°C | 13.8% | 250.6hPa | 2.9V | 18:12:15 | 00:43:22 | 00:00:00 | |
| EDDB2-11 | 2026-08-31 11:33:50 | 54.28315 | 13.76775 | 39° | 110km/h | 10470m | 9.3m/s | -48.6°C | 10.3% | 250.4hPa | 2.8V | 00:00:00 | 00:00:00 | 00:00:00 | |
| DL1XH-15 | 2026-08-31 11:33:46 | 54.28200 | 13.76609 | 40° | 91km/h | 10433m | 4.7m/s | -48.4°C | 13.8% | 251.8hPa | 2.8V | 08:30:00 | 00:43:17 | 00:00:00 | |
| AA1-15 | 2026-08-31 11:33:46 | 54.28236 | 13.76662 | 40° | 97km/h | 10444m | 8.2m/s | -48.5°C | 13.9% | 251.3hPa | 2.9V | 18:12:15 | 00:43:19 | 00:00:00 | |
| DF8AY | 2026-08-31 11:33:42 | 54.28164 | 13.76557 | 39° | 97km/h | 10421m | 4.9m/s | -48.4°C | 0% | 0hPa | 2.9V | 18:12:15 | 00:43:15 | 00:00:00 | |
| DM0DOS-11 | 2026-08-31 11:33:41 | 54.28061 | 13.76416 | 38° | 111km/h | 10391m | 9.1m/s | -48.5°C | 14.8% | 253.5hPa | 2.9V | 08:30:00 | 00:43:10 | 00:00:00 | |
| DL1XH-west | 2026-08-31 11:33:41 | 54.28144 | 13.76531 | 38° | 100km/h | 10417m | 3.1m/s | -48.4°C | 14.9% | 252.6hPa | 2.9V | 18:12:15 | 00:43:14 | 00:00:00 | |
| AA1-15 | 2026-08-31 11:33:36 | 54.28038 | 13.76387 | 38° | 111km/h | 10384m | 6.6m/s | -48.6°C | 15.9% | 253.7hPa | 2.9V | 18:12:15 | 00:43:09 | 00:00:00 | |
| DF8AY | 2026-08-31 11:33:31 | 54.27931 | 13.76247 | 41° | 97km/h | 10353m | 4.5m/s | -48.7°C | 0% | 0hPa | 2.9V | 18:12:15 | 00:43:04 | 00:00:00 | |
| DM0DOS-11 | 2026-08-31 11:33:31 | 54.27861 | 13.76136 | 44° | 99km/h | 10328m | 5.5m/s | -48.9°C | 16.9% | 255.8hPa | 2.9V | 08:30:00 | 00:43:00 | 00:00:00 | |
| DL1XH-west | 2026-08-31 11:33:30 | 54.27914 | 13.76220 | 42° | 93km/h | 10349m | 3.5m/s | -48.7°C | 16.7% | 255.2hPa | 2.9V | 18:12:15 | 00:43:03 | 00:00:00 | |
| DL1XH-15 | 2026-08-31 11:33:27 | 54.27805 | 13.76045 | 42° | 104km/h | 10310m | 7.5m/s | -48.9°C | 17.3% | 256.5hPa | 2.9V | 08:30:00 | 00:42:57 | 00:00:00 | |
| DL1XH1-15 | 2026-08-31 11:33:27 | 54.27824 | 13.76075 | 43° | 102km/h | 10318m | 9.1m/s | -49°C | 17.3% | 256.3hPa | 2.9V | 08:30:00 | 00:42:58 | 00:00:00 | |
| AA1-15 | 2026-08-31 11:33:25 | 54.27824 | 13.76075 | 44° | 102km/h | 10318m | 9.1m/s | -49°C | 17.5% | 256.3hPa | 2.9V | 18:12:15 | 00:42:58 | 00:00:00 | |
| MECKS9 | 2026-08-31 11:33:24 | 54.27805 | 13.76045 | 44° | 104km/h | 10310m | 7.6m/s | -48.9°C | 14.1% | 256.5hPa | 2.9V | 00:00:00 | 00:00:00 | 00:00:00 | |
| DL1XH1-15 | 2026-08-31 11:33:20 | 54.27614 | 13.75786 | 38° | 104km/h | 10257m | 3.4m/s | -48.8°C | 17% | 258.6hPa | 2.9V | 08:30:00 | 00:42:48 | 00:00:00 | |
| DF8AY | 2026-08-31 11:33:20 | 54.27719 | 13.75929 | 37° | 111km/h | 10286m | 6.4m/s | -48.8°C | 0% | 0hPa | 2.9V | 18:12:15 | 00:42:53 | 00:00:00 | |
| DL1XH-west | 2026-08-31 11:33:20 | 54.27697 | 13.75900 | 38° | 110km/h | 10280m | 4.7m/s | -48.8°C | 17.7% | 257.7hPa | 2.9V | 18:12:15 | 00:42:52 | 00:00:00 | |
| DM0DOS-11 | 2026-08-31 11:33:20 | 54.27655 | 13.75843 | 39° | 106km/h | 10270m | 8.4m/s | -48.8°C | 16.9% | 258.1hPa | 2.8V | 08:30:00 | 00:42:50 | 00:00:00 | |
| AA1-15 | 2026-08-31 11:33:14 | 54.27593 | 13.75757 | 39° | 106km/h | 10250m | 10.2m/s | -48.8°C | 17.8% | 258.9hPa | 2.9V | 18:12:15 | 00:42:47 | 00:00:00 | |
| DF8AY | 2026-08-31 11:33:10 | 54.27403 | 13.75481 | 44° | 104km/h | 10184m | 7.2m/s | -48.5°C | 0% | 0hPa | 2.9V | 18:12:15 | 00:42:37 | 00:00:00 | |
| DL1XH-west | 2026-08-31 11:33:09 | 54.27477 | 13.75596 | 40° | 93km/h | 10211m | 10.7m/s | -48.7°C | 17.9% | 260.4hPa | 2.9V | 18:12:15 | 00:42:41 | 00:00:00 | |
| DL1XH1-15 | 2026-08-31 11:33:08 | 54.27422 | 13.75512 | 43° | 100km/h | 10192m | 8.5m/s | -48.5°C | 16.8% | 261.2hPa | 2.9V | 08:30:00 | 00:42:38 | 00:00:00 | |
| DO2SHX-10 | 2026-08-31 11:33:07 | 54.27459 | 13.75570 | 41° | 102km/h | 10203m | 6.3m/s | 0°C | 0% | 0hPa | 2.9V | 00:00:00 | 00:42:40 | 00:00:00 | |
| DL1XH-15 | 2026-08-31 11:33:06 | 54.27403 | 13.75481 | 44° | 104km/h | 10184m | 7.2m/s | -48.5°C | 16.6% | 261.4hPa | 2.9V | 08:30:00 | 00:42:37 | 00:00:00 | |
| AA1-15 | 2026-08-31 11:33:03 | 54.27385 | 13.75450 | 43° | 102km/h | 10178m | 5.7m/s | -48.5°C | 17.7% | 261.7hPa | 2.9V | 18:12:15 | 00:42:36 | 00:00:00 | |
| DM0DOS-11 | 2026-08-31 11:33:02 | 54.27272 | 13.75278 | 41° | 95km/h | 10141m | 7.7m/s | -48.6°C | 16.4% | 263.2hPa | 2.9V | 08:30:00 | 00:42:30 | 00:00:00 | |
| EDDB2-12 | 2026-08-31 11:33:02 | 54.27346 | 13.75391 | 42° | 100km/h | 10167m | 7.2m/s | -48.4°C | 13.3% | 262.3hPa | 2.9V | 00:00:00 | 00:00:00 | 00:00:00 | |
| SONDE2-11 | 2026-08-31 11:33:01 | 54.27346 | 13.75391 | 42° | 100km/h | 10167m | 7.2m/s | -48.4°C | 13.3% | 262.3hPa | 2.9V | 00:00:00 | 00:00:00 | 00:00:00 | |
| S3001 | 2026-08-31 11:33:00 | 54.27308 | 13.75333 | 41° | 97km/h | 10151m | 6.0m/s | -48.5°C | 13.3% | 262.7hPa | 2.9V | 00:00:00 | 00:00:00 | 00:00:00 | |
| DL1XH-15 | 2026-08-31 11:32:59 | 54.27195 | 13.75170 | 38° | 104km/h | 10118m | 7.4m/s | -48.6°C | 17% | 264.1hPa | 2.9V | 08:30:00 | 00:42:26 | 00:00:00 | |
| DF8AY | 2026-08-31 11:32:59 | 54.27308 | 13.75333 | 42° | 99km/h | 10151m | 6m/s | 0°C | 0% | 0hPa | 2.9V | 18:12:15 | 00:42:32 | 00:00:00 | |
| DL1XH-west | 2026-08-31 11:32:57 | 54.27254 | 13.75252 | 40° | 95km/h | 10133m | 7.3m/s | -48.6°C | 17.2% | 263.5hPa | 2.8V | 18:12:15 | 00:42:29 | 00:00:00 | |
| DL1XH1-15 | 2026-08-31 11:32:56 | 54.27235 | 13.75225 | 39° | 99km/h | 10128m | 3.5m/s | -48.6°C | 16.9% | 263.7hPa | 2.8V | 08:30:00 | 00:42:28 | 00:00:00 | |
| AA1-15 | 2026-08-31 11:32:53 | 54.27174 | 13.75141 | 40° | 104km/h | 10111m | 6.6m/s | -48.6°C | 17.4% | 264.3hPa | 2.9V | 18:12:15 | 00:42:25 | 00:00:00 | |
| DM0DOS-11 | 2026-08-31 11:32:52 | 54.27070 | 13.74998 | 39° | 106km/h | 10083m | 4.5m/s | -48.5°C | 17.1% | 265.5hPa | 2.9V | 08:30:00 | 00:42:20 | 00:00:00 | |
| DL1XH-west | 2026-08-31 11:32:47 | 54.27049 | 13.74969 | 39° | 104km/h | 10079m | 2.8m/s | -48.5°C | 17.6% | 265.7hPa | 2.9V | 18:12:15 | 00:42:19 | 00:00:00 | |
| DL1XH-15 | 2026-08-31 11:32:46 | 54.27009 | 13.74913 | 37° | 100km/h | 10066m | 7.1m/s | -48.5°C | 17.2% | 266.2hPa | 2.8V | 08:30:00 | 00:42:17 | 00:00:00 | |
| AM1SDL-15 | 2026-08-31 11:32:45 | 54.27029 | 13.74940 | 40° | 99km/h | 10074m | 8.2m/s | -48.5°C | 17.3% | 265.9hPa | 2.9V | 00:00:00 | 00:42:18 | 08:30:00 | |
| DM0DOS-11 | 2026-08-31 11:32:42 | 54.26872 | 13.74743 | 36° | 97km/h | 10022m | 9.1m/s | -48.2°C | 17% | 0hPa | 2.9V | 08:30:00 | 00:42:10 | 00:00:00 | |
| AA1-15 | 2026-08-31 11:32:41 | 54.26950 | 13.74838 | 35° | 95km/h | 10047m | 7.2m/s | -48.4°C | 17.7% | 267.1hPa | 2.9V | 18:12:15 | 00:42:14 | 00:00:00 | |
| DL1XH1-15 | 2026-08-31 11:32:39 | 54.26832 | 13.74692 | 36° | 102km/h | 10007m | 5.3m/s | -48.2°C | 16.6% | 268.6hPa | 2.9V | 08:30:00 | 00:42:08 | 00:00:00 | |
| DL1XH-west | 2026-08-31 11:32:36 | 54.26852 | 13.74718 | 37° | 97km/h | 10014m | 7.7m/s | -48.3°C | 17.5% | 268.3hPa | 2.9V | 18:12:15 | 00:42:09 | 00:00:00 | |
| DO2SHX-10 | 2026-08-31 11:32:34 | 54.26811 | 13.74666 | 36° | 100km/h | 10003m | 4.0m/s | 0°C | 0% | 0hPa | 2.8V | 00:00:00 | 00:42:07 | 00:00:00 | |
| DM0DOS-11 | 2026-08-31 11:32:31 | 54.26662 | 13.74485 | 37° | 100km/h | 9968m | 5.2m/s | -47.8°C | 16.6% | 0hPa | 2.8V | 08:30:00 | 00:42:00 | 00:00:00 | |
| AA1-15 | 2026-08-31 11:32:30 | 54.26724 | 13.74562 | 35° | 102km/h | 9981m | 5m/s | -47.9°C | 17.1% | 269.8hPa | 2.9V | 18:12:15 | 00:42:03 | 00:00:00 | |
| S3001 | 2026-08-31 11:32:29 | 54.26682 | 13.74512 | 36° | 100km/h | 9972m | 3.8m/s | -47.9°C | 13.6% | 270.1hPa | 2.9V | 00:00:00 | 00:00:00 | 00:00:00 | |
| MECKS9 | 2026-08-31 11:32:27 | 54.26682 | 13.74512 | 37° | 100km/h | 9972m | 3.8m/s | -47.9°C | 13.6% | 270.1hPa | 2.9V | 00:00:00 | 00:00:00 | 00:00:00 | |
| DL1XH-15 | 2026-08-31 11:32:26 | 54.26601 | 13.74405 | 38° | 100km/h | 9953m | 3.6m/s | -47.7°C | 16.9% | 270.9hPa | 2.9V | 08:30:00 | 00:41:57 | 00:00:00 | |
| DL1XH1-15 | 2026-08-31 11:32:26 | 54.26621 | 13.74432 | 37° | 102km/h | 9957m | 5.2m/s | -47.8°C | 16.9% | 270.8hPa | 2.9V | 08:30:00 | 00:41:58 | 00:00:00 | |
| DL1XH-west | 2026-08-31 11:32:26 | 54.26621 | 13.74432 | 38° | 102km/h | 9957m | 5.2m/s | -47.8°C | 17.1% | 270.8hPa | 2.9V | 18:12:15 | 00:41:58 | 00:00:00 | |
| DL1XH-15 | 2026-08-31 11:32:20 | 54.26387 | 13.74112 | 38° | 102km/h | 9905m | 3.3m/s | -47.4°C | 16.2% | 272.9hPa | 2.9V | 08:30:00 | 00:41:46 | 00:00:00 | |
| AA1-15 | 2026-08-31 11:32:19 | 54.26507 | 13.74265 | 40° | 97km/h | 9932m | 3.9m/s | -47.6°C | 17% | 271.8hPa | 2.9V | 18:12:15 | 00:41:52 | 00:00:00 | |
| DL1XH-west | 2026-08-31 11:32:15 | 54.26388 | 13.74112 | 38° | 102km/h | 9905m | 3.3m/s | -47.4°C | 16.8% | 272.9hPa | 2.9V | 18:12:15 | 00:41:46 | 00:00:00 | |
| DL1XH1-15 | 2026-08-31 11:32:15 | 54.26330 | 13.74027 | 42° | 95km/h | 9893m | 3.4m/s | -47.2°C | 16.7% | 273.4hPa | 2.8V | 08:30:00 | 00:41:43 | 00:00:00 | |
| AA1-15 | 2026-08-31 11:32:08 | 54.26295 | 13.73973 | 41° | 93km/h | 9884m | 5.5m/s | -47.3°C | 17.1% | 273.8hPa | 2.9V | 18:12:15 | 00:41:41 | 00:00:00 | |
| AM1SDL-15 | 2026-08-31 11:32:07 | 54.26276 | 13.73946 | 40° | 99km/h | 9878m | 5.8m/s | -47.2°C | 16.6% | 274.0hPa | 2.9V | 00:00:00 | 00:41:40 | 00:00:00 | |
| DL1XH-15 | 2026-08-31 11:32:06 | 54.26218 | 13.73867 | 38° | 99km/h | 9864m | 5.3m/s | -47.2°C | 16.1% | 274.6hPa | 2.8V | 08:30:00 | 00:41:37 | 00:00:00 | |
| DL1XH-west | 2026-08-31 11:32:03 | 54.26177 | 13.73813 | 38° | 102km/h | 9852m | 7.4m/s | -47.2°C | 16.9% | 275hPa | 2.9V | 18:12:15 | 00:41:35 | 00:00:00 | |
| DL1XH1-15 | 2026-08-31 11:32:02 | 54.26136 | 13.73757 | 39° | 102km/h | 9840m | 4.4m/s | -47.1°C | 16.4% | 275.6hPa | 2.9V | 08:30:00 | 00:41:33 | 00:00:00 | |
| DM0DOS-11 | 2026-08-31 11:32:02 | 54.26080 | 13.73673 | 41° | 95km/h | 9828m | 6.4m/s | 0°C | 0% | 0hPa | 2.8V | 08:30:00 | 00:41:30 | 00:00:00 | |
| DL1XH-15 | 2026-08-31 11:31:59 | 54.26027 | 13.73593 | 42° | 93km/h | 9810m | 3.7m/s | -46.9°C | 17% | 276.9hPa | 2.9V | 08:30:00 | 00:41:27 | 00:00:00 | |
| AA1-15 | 2026-08-31 11:31:58 | 54.26080 | 13.73673 | 42° | 95km/h | 9828m | 6.4m/s | -47.1°C | 17.3% | 276.1hPa | 2.8V | 18:12:15 | 00:41:30 | 00:00:00 | |
| S3001 | 2026-08-31 11:31:58 | 54.26080 | 13.73673 | 41° | 95km/h | 9828m | 6.4m/s | -47.1°C | 13.8% | 276.1hPa | 2.9V | 00:00:00 | 00:00:00 | 00:00:00 | |
| DL1XH1-15 | 2026-08-31 11:31:55 | 54.25956 | 13.73476 | 43° | 99km/h | 9790m | 7.4m/s | -46.9°C | 17.2% | 277.6hPa | 2.9V | 08:30:00 | 00:41:23 | 00:00:00 | |
| DL1XH-west | 2026-08-31 11:31:52 | 54.25992 | 13.73536 | 44° | 99km/h | 9801m | 4.8m/s | -46.9°C | 17.9% | 277.2hPa | 2.8V | 18:12:15 | 00:41:25 | 00:00:00 | |
| AA1-15 | 2026-08-31 11:31:47 | 54.25883 | 13.73362 | 42° | 97km/h | 9766m | 7.2m/s | -47°C | 18.4% | 278.6hPa | 2.8V | 18:12:15 | 00:41:19 | 00:00:00 | |
| DL1XH-15 | 2026-08-31 11:31:46 | 54.25847 | 13.73308 | 41° | 95km/h | 9756m | 3.8m/s | -47°C | 17.5% | 279.2hPa | 2.9V | 08:30:00 | 00:41:17 | 00:00:00 | |
| EDDB2-11 | 2026-08-31 11:31:46 | 54.25883 | 13.73362 | 42° | 95km/h | 9766m | 7.2m/s | -47.0°C | 14.3% | 278.6hPa | 2.9V | 00:00:00 | 00:00:00 | 00:00:00 | |
| DM0DOS-11 | 2026-08-31 11:31:44 | 54.25811 | 13.73252 | 42° | 95km/h | 9744m | 6.9m/s | 0°C | 0% | 0hPa | 2.9V | 08:30:00 | 00:41:15 | 00:00:00 | |
| DL1XH-west | 2026-08-31 11:31:42 | 54.25793 | 13.73225 | 42° | 97km/h | 9737m | 7.3m/s | -47°C | 18.6% | 280hPa | 2.9V | 18:12:15 | 00:41:14 | 00:00:00 | |
| DL1XH-15 | 2026-08-31 11:31:39 | 54.25668 | 13.73050 | 35° | 97km/h | 9702m | 5.4m/s | -46.9°C | 18.5% | 281.4hPa | 2.8V | 08:30:00 | 00:41:07 | 00:00:00 | |
| DL1XH1-15 | 2026-08-31 11:31:38 | 54.25724 | 13.73120 | 38° | 88km/h | 9717m | 3.1m/s | -46.9°C | 18.7% | 280.8hPa | 2.9V | 08:30:00 | 00:41:10 | 00:00:00 | |
| AA1-15 | 2026-08-31 11:31:36 | 54.25706 | 13.73097 | 37° | 88km/h | 9713m | 5.1m/s | -46.9°C | 19.3% | 281hPa | 2.9V | 18:12:15 | 00:41:09 | 00:00:00 | |
| DM0DOS-11 | 2026-08-31 11:31:33 | 54.25606 | 13.72974 | 37° | 102km/h | 9680m | 6.3m/s | 0°C | 0% | 0hPa | 2.9V | 08:30:00 | 00:41:04 | 00:00:00 | |
| DL1XH1-15 | 2026-08-31 11:31:32 | 54.25528 | 13.72858 | 43° | 97km/h | 9658m | 5.1m/s | -46.8°C | 19.7% | 283.3hPa | 2.8V | 08:30:00 | 00:41:00 | 00:00:00 | |
| DL1XH-west | 2026-08-31 11:31:32 | 54.25606 | 13.72974 | 38° | 102km/h | 9680m | 6.3m/s | -46.8°C | 19.6% | 282.2hPa | 2.9V | 18:12:15 | 00:41:04 | 00:00:00 | |
| AA1-15 | 2026-08-31 11:31:26 | 54.25493 | 13.72803 | 39° | 93km/h | 9645m | 5.8m/s | -46.8°C | 20.8% | 283.7hPa | 2.9V | 18:12:15 | 00:40:58 | 00:00:00 | |
| DM0DOS-11 | 2026-08-31 11:31:25 | 54.25413 | 13.72708 | 34° | 97km/h | 9624m | 4.6m/s | 0°C | 0% | 0hPa | 2.8V | 08:30:00 | 00:40:54 | 00:00:00 | |
| DL1XH1-15 | 2026-08-31 11:31:22 | 54.25340 | 13.72604 | 43° | 93km/h | 9604m | 8m/s | -46.8°C | 19.6% | 285.4hPa | 2.9V | 08:30:00 | 00:40:50 | 00:00:00 | |
| DL1XH-west | 2026-08-31 11:31:21 | 54.25413 | 13.72708 | 34° | 97km/h | 9624m | 4.6m/s | -46.9°C | 21.1% | 284.6hPa | 2.8V | 18:12:15 | 00:40:54 | 00:00:00 | |
| AM1SDL-15 | 2026-08-31 11:31:21 | 54.25413 | 13.72708 | 35° | 93km/h | 9624m | 4.6m/s | -46.8°C | 20.4% | 284.5hPa | 2.9V | 00:00:00 | 00:40:54 | 00:00:00 | |
| DL1XH-15 | 2026-08-31 11:31:16 | 54.25290 | 13.72518 | 46° | 91km/h | 9587m | 5.6m/s | -46.7°C | 19.9% | 286.2hPa | 2.9V | 08:30:00 | 00:40:47 | 00:00:00 | |
| AA1-15 | 2026-08-31 11:31:14 | 54.25290 | 13.72518 | 47° | 91km/h | 9587m | 5.6m/s | -46.7°C | 20.7% | 286.2hPa | 2.9V | 18:12:15 | 00:40:47 | 00:00:00 | |
| DM0DOS-11 | 2026-08-31 11:31:14 | 54.25228 | 13.72407 | 45° | 88km/h | 9566m | 3.2m/s | 0°C | 0% | 0hPa | 2.8V | 00:00:00 | 00:40:43 | 00:00:00 | |
| DL1XH-west | 2026-08-31 11:31:11 | 54.25212 | 13.72380 | 45° | 91km/h | 9562m | 5.6m/s | -46.6°C | 20.5% | 287.2hPa | 2.8V | 18:12:15 | 00:40:42 | 00:00:00 | |
| DL1XH-15 | 2026-08-31 11:31:10 | 54.25129 | 13.72246 | 40° | 88km/h | 9537m | 3.7m/s | -46.3°C | 20.1% | 288.4hPa | 2.8V | 08:30:00 | 00:40:37 | 00:00:00 | |
| AA1-15 | 2026-08-31 11:31:03 | 54.25111 | 13.72221 | 39° | 91km/h | 9532m | 5.1m/s | -46.3°C | 20.5% | 288.6hPa | 2.8V | 18:12:15 | 00:40:36 | 00:00:00 | |
| DM0DOS-11 | 2026-08-31 11:31:02 | 54.25051 | 13.72146 | 34° | 102km/h | 9521m | 5.2m/s | 0°C | 0% | 0hPa | 2.9V | 00:00:00 | 00:40:33 | 00:00:00 | |
| DL1XH-west | 2026-08-31 11:31:01 | 54.25072 | 13.72172 | 35° | 100km/h | 9524m | 1.7m/s | -46.3°C | 20.5% | 289hPa | 2.9V | 18:12:15 | 00:40:34 | 00:00:00 | |
| DL1XH1-15 | 2026-08-31 11:31:00 | 54.24975 | 13.72040 | 42° | 89km/h | 9502m | 5.7m/s | -46.2°C | 19.6% | 290hPa | 2.9V | 08:30:00 | 00:40:29 | 00:00:00 | |
| SONDE2-11 | 2026-08-31 11:30:57 | 54.24992 | 13.72067 | 40° | 93km/h | 9508m | 6.1m/s | -46.3°C | 16.6% | 289.7hPa | 2.9V | 00:00:00 | 00:00:00 | 00:00:00 | |
| S3001 | 2026-08-31 11:30:56 | 54.24958 | 13.72015 | 42° | 88km/h | 9495m | 7.0m/s | -46.2°C | 16.6% | 290.3hPa | 2.9V | 00:00:00 | 00:00:00 | 00:00:00 | |
| DL1XH-15 | 2026-08-31 11:30:55 | 54.24942 | 13.71989 | 41° | 86km/h | 9489m | 5.2m/s | -46.1°C | 19.6% | 290.5hPa | 2.9V | 08:30:00 | 00:40:27 | 00:00:00 | |
| AA1-15 | 2026-08-31 11:30:53 | 54.24910 | 13.71941 | 41° | 86km/h | 9481m | 4.5m/s | -46°C | 20.5% | 291hPa | 2.8V | 18:12:15 | 00:40:25 | 00:00:00 | |
| DM0DOS-11 | 2026-08-31 11:30:51 | 54.24877 | 13.71889 | 43° | 93km/h | 9469m | 6.8m/s | 0°C | 0% | 0hPa | 2.9V | 00:00:00 | 00:40:23 | 00:00:00 | |
| DL1XH-west | 2026-08-31 11:30:50 | 54.24877 | 13.71889 | 44° | 93km/h | 9469m | 6.8m/s | -46°C | 20.4% | 291.5hPa | 2.9V | 18:12:15 | 00:40:23 | 00:00:00 | |
| DL1XH-15 | 2026-08-31 11:30:49 | 54.24765 | 13.71729 | 33° | 91km/h | 9437m | 5.5m/s | -46°C | 19.6% | 293hPa | 2.8V | 08:30:00 | 00:40:17 | 00:00:00 | |
| DL1XH1-15 | 2026-08-31 11:30:47 | 54.24803 | 13.71777 | 38° | 97km/h | 9445m | 5.6m/s | -46°C | 19.6% | 292.4hPa | 2.9V | 08:30:00 | 00:40:19 | 00:00:00 | |
| MECKS9 | 2026-08-31 11:30:46 | 54.24822 | 13.71803 | 41° | 100km/h | 9452m | 7.3m/s | -46.0°C | 16.5% | 292.2hPa | 2.8V | 00:00:00 | 00:00:00 | 00:00:00 | |
| DM0DOS-11 | 2026-08-31 11:30:45 | 54.24658 | 13.71583 | 43° | 91km/h | 9406m | 4.7m/s | 0°C | 0% | 0hPa | 2.8V | 00:00:00 | 00:40:11 | 00:00:00 | |
| AA1-15 | 2026-08-31 11:30:42 | 54.24726 | 13.71685 | 35° | 91km/h | 9427m | 5.2m/s | -45.9°C | 20.7% | 293.4hPa | 2.9V | 18:12:15 | 00:40:15 | 00:00:00 | |
| DL1XH1-15 | 2026-08-31 11:30:41 | 54.24622 | 13.71530 | 38° | 93km/h | 9391m | 6.1m/s | -45.7°C | 21.1% | 294.9hPa | 2.9V | 08:30:00 | 00:40:09 | 00:00:00 | |
| DL1XH-west | 2026-08-31 11:30:40 | 54.24658 | 13.71583 | 43° | 91km/h | 9406m | 4.7m/s | -45.7°C | 21.6% | 294.4hPa | 2.8V | 18:12:15 | 00:40:11 | 00:00:00 | |
| AA1-15 | 2026-08-31 11:30:31 | 54.24511 | 13.71388 | 38° | 84km/h | 9355m | 5.5m/s | -45.6°C | 22.1% | 296.6hPa | 2.9V | 18:12:15 | 00:40:03 | 00:00:00 | |
| DL1XH1-15 | 2026-08-31 11:30:30 | 54.24447 | 13.71287 | 48° | 93km/h | 9332m | 6.2m/s | -45.4°C | 21% | 297.6hPa | 2.8V | 08:30:00 | 00:39:59 | 00:00:00 | |
| DL1XH-west | 2026-08-31 11:30:28 | 54.24478 | 13.71342 | 42° | 86km/h | 9344m | 6.3m/s | -45.5°C | 21.9% | 297.1hPa | 2.9V | 18:12:15 | 00:40:01 | 00:00:00 | |
| AA1-15 | 2026-08-31 11:30:20 | 54.24331 | 13.71096 | 39° | 91km/h | 9295m | 8.8m/s | -45.2°C | 21% | 299.3hPa | 2.8V | 18:12:15 | 00:39:52 | 00:00:00 | |
| DL1XH-west | 2026-08-31 11:30:18 | 54.24313 | 13.71070 | 41° | 93km/h | 9287m | 7m/s | -45.1°C | 20.9% | 299.6hPa | 2.9V | 18:12:15 | 00:39:51 | 00:00:00 | |
| DL1XH1-15 | 2026-08-31 11:30:17 | 54.24278 | 13.71018 | 41° | 89km/h | 9276m | 5m/s | -45°C | 20.1% | 300.1hPa | 2.9V | 08:30:00 | 00:39:49 | 00:00:00 | |
| DL1XH-15 | 2026-08-31 11:30:16 | 54.24245 | 13.70967 | 43° | 86km/h | 9266m | 3.6m/s | -45°C | 20.3% | 300.6hPa | 2.9V | 08:30:00 | 00:39:47 | 00:00:00 | |
| EDDB2-11 | 2026-08-31 11:30:13 | 54.24216 | 13.70913 | 49° | 88km/h | 9253m | 5.6m/s | -44.9°C | 17.3% | 301.1hPa | 2.8V | 00:00:00 | 00:00:00 | 00:00:00 | |
| DL1XH1-15 | 2026-08-31 11:30:11 | 54.24125 | 13.70754 | 38° | 82km/h | 9221m | 5.4m/s | -44.7°C | 19.4% | 302.6hPa | 2.8V | 08:30:00 | 00:39:39 | 00:00:00 | |
| AA1-15 | 2026-08-31 11:30:09 | 54.24172 | 13.70826 | 47° | 86km/h | 9239m | 8m/s | -44.8°C | 20.5% | 301.7hPa | 2.9V | 18:12:15 | 00:39:42 | 00:00:00 | |
| DL1XH-15 | 2026-08-31 11:30:09 | 54.24092 | 13.70708 | 40° | 89km/h | 9209m | 5.6m/s | -44.6°C | 19.8% | 303.1hPa | 2.9V | 08:30:00 | 00:39:37 | 00:00:00 | |
| DL1XH-west | 2026-08-31 11:30:07 | 54.24141 | 13.70776 | 40° | 82km/h | 9226m | 6.4m/s | -44.8°C | 20.2% | 302.3hPa | 2.8V | 18:12:15 | 00:39:40 | 00:00:00 | |
| AA1-15 | 2026-08-31 11:29:59 | 54.23992 | 13.70532 | 49° | 91km/h | 9170m | 7.9m/s | -44.4°C | 20.3% | 304.8hPa | 2.9V | 18:12:15 | 00:39:31 | 00:00:00 | |
| DM0DOS-11 | 2026-08-31 11:29:57 | 54.23962 | 13.70474 | 47° | 89km/h | 9155m | 6.1m/s | 0°C | 0% | 0hPa | 2.9V | 00:00:00 | 00:39:29 | 00:00:00 | |
| DL1XH-west | 2026-08-31 11:29:57 | 54.23977 | 13.70502 | 48° | 89km/h | 9162m | 7.7m/s | -44.3°C | 20.4% | 305.2hPa | 2.9V | 18:12:15 | 00:39:30 | 00:00:00 | |
| DL1XH-15 | 2026-08-31 11:29:55 | 54.23930 | 13.70418 | 43° | 95km/h | 9145m | 5.7m/s | -44.2°C | 20.4% | 305.9hPa | 2.9V | 08:30:00 | 00:39:27 | 00:00:00 | |
| SONDE2-11 | 2026-08-31 11:29:55 | 54.23930 | 13.70418 | 43° | 93km/h | 9145m | 5.7m/s | -44.2°C | 17.6% | 305.9hPa | 2.9V | 00:00:00 | 00:00:00 | 00:00:00 | |
| S3001 | 2026-08-31 11:29:53 | 54.23912 | 13.70390 | 42° | 95km/h | 9140m | 4.4m/s | -44.2°C | 17.8% | 306.2hPa | 2.9V | 00:00:00 | 00:00:00 | 00:00:00 | |
| DL1XH-15 | 2026-08-31 11:29:49 | 54.23757 | 13.70133 | 45° | 86km/h | 9087m | 7.3m/s | -43.8°C | 19.9% | 308.5hPa | 2.9V | 08:30:00 | 00:39:17 | 00:00:00 | |
| DM0DOS-11 | 2026-08-31 11:29:47 | 54.23788 | 13.70187 | 45° | 93km/h | 9102m | 7.3m/s | 0°C | 0% | 0hPa | 2.8V | 00:00:00 | 00:39:19 | 00:00:00 | |
| DL1XH-west | 2026-08-31 11:29:46 | 54.23789 | 13.70187 | 45° | 93km/h | 9102m | 7.3m/s | -43.9°C | 21.1% | 308hPa | 2.8V | 18:12:15 | 00:39:19 | 00:00:00 | |
| EDDB2-11 | 2026-08-31 11:29:42 | 54.23713 | 13.70054 | 48° | 82km/h | 9068m | 6.0m/s | -43.7°C | 17.4% | 309.6hPa | 2.9V | 00:00:00 | 00:00:00 | 00:00:00 | |
| DL1XH1-15 | 2026-08-31 11:29:37 | 54.23638 | 13.69911 | 46° | 95km/h | 9035m | 6m/s | -43.5°C | 19.8% | 310.8hPa | 2.9V | 08:30:00 | 00:39:09 | 00:00:00 | |
| AA1-15 | 2026-08-31 11:29:37 | 54.23638 | 13.69911 | 46° | 95km/h | 9035m | 6m/s | -43.5°C | 20.5% | 310.8hPa | 2.9V | 18:12:15 | 00:39:09 | 00:00:00 | |
| DL1XH-west | 2026-08-31 11:29:36 | 54.23621 | 13.69882 | 45° | 95km/h | 9028m | 8.7m/s | -43.4°C | 20.6% | 311.2hPa | 2.9V | 18:12:15 | 00:39:08 | 00:00:00 | |
| DL1XH-15 | 2026-08-31 11:29:36 | 54.23604 | 13.69852 | 44° | 99km/h | 9021m | 6.3m/s | -43.4°C | 20.1% | 311.5hPa | 2.9V | 08:30:00 | 00:39:07 | 00:00:00 | |
| DL1XH1-15 | 2026-08-31 11:29:31 | 54.23458 | 13.69581 | 46° | 102km/h | 8969m | 3.8m/s | -43°C | 21.2% | 314hPa | 2.8V | 08:30:00 | 00:38:58 | 00:00:00 | |
| DL1XH-15 | 2026-08-31 11:29:29 | 54.23422 | 13.69515 | 46° | 106km/h | 8956m | 5.8m/s | -42.9°C | 21% | 314.5hPa | 2.9V | 08:30:00 | 00:38:56 | 00:00:00 | |
| DL1XH-west | 2026-08-31 11:29:26 | 54.23458 | 13.69581 | 47° | 102km/h | 8969m | 3.8m/s | -43°C | 22.3% | 314hPa | 2.8V | 18:12:15 | 00:38:58 | 00:00:00 | |
| SONDE2-11 | 2026-08-31 11:29:25 | 54.23422 | 13.69515 | 46° | 104km/h | 8956m | 5.8m/s | -42.9°C | 18.3% | 314.5hPa | 2.9V | 00:00:00 | 00:00:00 | 00:00:00 | |
| S3001 | 2026-08-31 11:29:22 | 54.23404 | 13.69482 | 45° | 104km/h | 8951m | 3.1m/s | -42.9°C | 18.2% | 314.8hPa | 2.9V | 00:00:00 | 00:00:00 | 00:00:00 | |
| DL1XH-15 | 2026-08-31 11:29:18 | 54.23277 | 13.69246 | 48° | 88km/h | 8903m | 5.7m/s | -42.6°C | 19.3% | 317hPa | 2.9V | 08:30:00 | 00:38:47 | 00:00:00 | |
| AA1-15 | 2026-08-31 11:29:16 | 54.23291 | 13.69274 | 48° | 86km/h | 8909m | 6.6m/s | -42.7°C | 20.3% | 316.8hPa | 2.9V | 18:12:15 | 00:38:48 | 00:00:00 | |
| DL1XH-west | 2026-08-31 11:29:14 | 54.23277 | 13.69246 | 48° | 88km/h | 8903m | 5.7m/s | -42.6°C | 19.9% | 317hPa | 2.9V | 18:12:15 | 00:38:47 | 00:00:00 | |
| EDDB2-11 | 2026-08-31 11:29:10 | 54.23219 | 13.69131 | 49° | 89km/h | 8879m | 6.7m/s | -42.5°C | 15.4% | 318.1hPa | 2.8V | 00:00:00 | 00:00:00 | 00:00:00 | |
| DL1XH-15 | 2026-08-31 11:29:08 | 54.23127 | 13.68950 | 47° | 93km/h | 8839m | 7.8m/s | -42.2°C | 16.8% | 319.9hPa | 2.8V | 08:30:00 | 00:38:37 | 00:00:00 | |
| DL1XH1-15 | 2026-08-31 11:29:08 | 54.23175 | 13.69040 | 49° | 93km/h | 8861m | 7.6m/s | -42.3°C | 17.3% | 319hPa | 2.9V | 08:30:00 | 00:38:40 | 00:00:00 | |
| AA1-15 | 2026-08-31 11:29:05 | 54.23127 | 13.68950 | 47° | 93km/h | 8839m | 7.8m/s | -42.2°C | 17.1% | 319.9hPa | 2.8V | 18:12:15 | 00:38:37 | 00:00:00 | |
| DL1XH-west | 2026-08-31 11:29:04 | 54.23096 | 13.68890 | 50° | 93km/h | 8823m | 6.9m/s | -42°C | 17.3% | 320.5hPa | 2.9V | 18:12:15 | 00:38:35 | 00:00:00 | |
| DL1XH1-15 | 2026-08-31 11:29:03 | 54.23013 | 13.68733 | 46° | 108km/h | 8795m | 6.3m/s | -41.8°C | 17.6% | 322hPa | 2.8V | 08:30:00 | 00:38:30 | 00:00:00 | |
| AM1SDL-15 | 2026-08-31 11:29:02 | 54.23096 | 13.68890 | 50° | 95km/h | 8823m | 6.9m/s | -42.0°C | 17.0% | 320.5hPa | 2.9V | 00:00:00 | 00:38:35 | 00:00:00 | |
| DL1XH-15 | 2026-08-31 11:28:55 | 54.22960 | 13.68635 | 47° | 93km/h | 8777m | 3.7m/s | -41.6°C | 20% | 322.8hPa | 2.9V | 08:30:00 | 00:38:27 | 00:00:00 | |
| AA1-15 | 2026-08-31 11:28:55 | 54.22977 | 13.68666 | 49° | 102km/h | 8782m | 5.5m/s | -41.6°C | 19.6% | 322.6hPa | 2.9V | 18:12:15 | 00:38:28 | 00:00:00 | |
| DL1XH-west | 2026-08-31 11:28:53 | 54.22945 | 13.68607 | 47° | 86km/h | 8773m | 3.6m/s | -41.6°C | 21.4% | 323.1hPa | 2.9V | 18:12:15 | 00:38:26 | 00:00:00 | |
| SONDE2-11 | 2026-08-31 11:28:53 | 54.22931 | 13.68581 | 45° | 78km/h | 8768m | 5.3m/s | -41.6°C | 19.0% | 323.4hPa | 2.8V | 00:00:00 | 00:00:00 | 00:00:00 | |
| S3001 | 2026-08-31 11:28:51 | 54.22916 | 13.68558 | 42° | 77km/h | 8762m | 7.5m/s | -41.6°C | 20.1% | 323.5hPa | 2.8V | 00:00:00 | 00:00:00 | 00:00:00 | |
| AM1SDL-15 | 2026-08-31 11:28:50 | 54.22901 | 13.68535 | 43° | 86km/h | 8754m | 7.7m/s | -41.5°C | 23.6% | 323.8hPa | 2.8V | 00:00:00 | 00:38:23 | 00:00:00 | |
| DL1XH-15 | 2026-08-31 11:28:49 | 54.22792 | 13.68351 | 47° | 84km/h | 8710m | 7.8m/s | -41.2°C | 24.6% | 326.1hPa | 2.8V | 08:30:00 | 00:38:16 | 00:00:00 | |
| DL1XH1-15 | 2026-08-31 11:28:45 | 54.22777 | 13.68324 | 47° | 84km/h | 8702m | 7.2m/s | -41.2°C | 25% | 326.4hPa | 2.9V | 08:30:00 | 00:38:15 | 00:00:00 | |
| DL1XH-west | 2026-08-31 11:28:44 | 54.22791 | 13.68351 | 48° | 84km/h | 8710m | 7.8m/s | -41.2°C | 25.5% | 326.2hPa | 2.8V | 18:12:15 | 00:38:16 | 00:00:00 | |
| MECKS9 | 2026-08-31 11:28:40 | 54.22763 | 13.68297 | 49° | 88km/h | 8695m | 7.3m/s | -41.1°C | 22.8% | 326.7hPa | 2.9V | 00:00:00 | 00:00:00 | 00:00:00 | |
| EDDB2-11 | 2026-08-31 11:28:39 | 54.22731 | 13.68242 | 42° | 91km/h | 8685m | 4.8m/s | -41.0°C | 23.7% | 327.4hPa | 2.9V | 00:00:00 | 00:00:00 | 00:00:00 | |
| AM1SDL-15 | 2026-08-31 11:28:38 | 54.22713 | 13.68215 | 41° | 89km/h | 8681m | 3.8m/s | -40.9°C | 27.2% | 327.5hPa | 2.9V | 00:00:00 | 00:38:11 | 00:00:00 | |
| DL1XH-15 | 2026-08-31 11:28:37 | 54.22643 | 13.68111 | 42° | 91km/h | 8656m | 6m/s | -40.9°C | 31.6% | 328.6hPa | 2.9V | 08:30:00 | 00:38:07 | 00:00:00 | |
| DL1XH1-15 | 2026-08-31 11:28:35 | 54.22612 | 13.68055 | 48° | 88km/h | 8647m | 5.3m/s | -40.9°C | 32.5% | 329.1hPa | 2.9V | 08:30:00 | 00:38:05 | 00:00:00 | |
| DL1XH-west | 2026-08-31 11:28:33 | 54.22611 | 13.68055 | 49° | 88km/h | 8647m | 5.3m/s | -40.9°C | 32.2% | 329.1hPa | 2.9V | 18:12:15 | 00:38:05 | 00:00:00 | |
| MECKS9 | 2026-08-31 11:28:31 | 54.22597 | 13.68026 | 53° | 86km/h | 8642m | 4.1m/s | -40.8°C | 29.7% | 329.4hPa | 2.9V | 00:00:00 | 00:00:00 | 00:00:00 | |
| AM1SDL-15 | 2026-08-31 11:28:26 | 54.22525 | 13.67885 | 44° | 91km/h | 8615m | 7.8m/s | -40.7°C | 32.1% | 330.5hPa | 2.9V | 00:00:00 | 00:37:59 | 08:30:00 | |
| DL1XH1-15 | 2026-08-31 11:28:22 | 54.22378 | 13.67634 | 45° | 91km/h | 8556m | 5.3m/s | -40.2°C | 34.4% | 333.5hPa | 2.9V | 08:30:00 | 00:37:50 | 00:00:00 | |
| AA1-15 | 2026-08-31 11:28:21 | 54.22442 | 13.67748 | 44° | 91km/h | 8580m | 8.3m/s | -40.4°C | 32.4% | 332.3hPa | 2.8V | 18:12:15 | 00:37:54 | 00:00:00 | |
| S3001 | 2026-08-31 11:28:20 | 54.22426 | 13.67720 | 45° | 91km/h | 8574m | 4.0m/s | -40.3°C | 29.4% | 332.6hPa | 2.8V | 00:00:00 | 00:00:00 | 00:00:00 | |
| MECKS9 | 2026-08-31 11:28:19 | 54.22426 | 13.67720 | 47° | 91km/h | 8574m | 4.0m/s | -40.3°C | 29.4% | 332.6hPa | 2.8V | 00:00:00 | 00:00:00 | 00:00:00 | |
| AM1SDL-15 | 2026-08-31 11:28:14 | 54.22331 | 13.67552 | 47° | 88km/h | 8541m | 8.5m/s | -40.1°C | 36.3% | 334.3hPa | 2.8V | 00:00:00 | 00:37:47 | 00:00:00 | |
| DL1XH1-15 | 2026-08-31 11:28:12 | 54.22216 | 13.67372 | 38° | 84km/h | 8499m | 7.6m/s | -39.8°C | 34.2% | 336.4hPa | 2.8V | 08:30:00 | 00:37:40 | 00:00:00 | |
| AA1-15 | 2026-08-31 11:28:11 | 54.22268 | 13.67442 | 41° | 89km/h | 8518m | 4.8m/s | -39.9°C | 34.8% | 335.7hPa | 2.9V | 18:12:15 | 00:37:43 | 00:00:00 | |
| DL1XH-west | 2026-08-31 11:28:09 | 54.22250 | 13.67418 | 40° | 88km/h | 8513m | 4.5m/s | -39.9°C | 34.6% | 335.9hPa | 2.9V | 18:12:15 | 00:37:42 | 00:00:00 | |
| MECKS9 | 2026-08-31 11:28:08 | 54.22250 | 13.67418 | 40° | 89km/h | 8513m | 4.5m/s | -39.9°C | 31.6% | 335.9hPa | 2.9V | 00:00:00 | 00:00:00 | 00:00:00 | |
| DL1XH-15 | 2026-08-31 11:28:06 | 54.22170 | 13.67298 | 47° | 89km/h | 8483m | 4.4m/s | -39.6°C | 33.3% | 337.4hPa | 2.9V | 08:30:00 | 00:37:37 | 00:00:00 | |
| AA1-15 | 2026-08-31 11:28:01 | 54.22088 | 13.67157 | 42° | 93km/h | 8450m | 5.5m/s | -39.3°C | 32% | 339.1hPa | 2.8V | 18:12:15 | 00:37:32 | 00:00:00 | |
| DL1XH-west | 2026-08-31 11:27:58 | 54.22071 | 13.67130 | 44° | 89km/h | 8444m | 5.5m/s | -39.3°C | 31.7% | 339.4hPa | 2.8V | 18:12:15 | 00:37:31 | 00:00:00 | |
| DL1XH1-15 | 2026-08-31 11:27:57 | 54.22041 | 13.67076 | 49° | 84km/h | 8436m | 5m/s | -39.2°C | 30.2% | 339.8hPa | 2.9V | 08:30:00 | 00:37:29 | 00:00:00 | |
| MECKS9 | 2026-08-31 11:27:56 | 54.22055 | 13.67103 | 48° | 88km/h | 8440m | 3.4m/s | -39.2°C | 28.6% | 339.6hPa | 2.9V | 00:00:00 | 00:00:00 | 00:00:00 | |
| DL1XH-15 | 2026-08-31 11:27:55 | 54.22013 | 13.67020 | 49° | 84km/h | 8426m | 6.3m/s | -39.1°C | 31.5% | 340.2hPa | 2.9V | 08:30:00 | 00:37:27 | 00:00:00 | |
| DL1XH1-15 | 2026-08-31 11:27:51 | 54.21889 | 13.66798 | 44° | 84km/h | 8388m | 5.5m/s | -38.8°C | 34.4% | 342hPa | 2.9V | 08:30:00 | 00:37:19 | 00:00:00 | |
| SONDE2-11 | 2026-08-31 11:27:51 | 54.21952 | 13.66909 | 44° | 91km/h | 8406m | 4.8m/s | -39.0°C | 30.9% | 341.2hPa | 2.9V | 00:00:00 | 00:00:00 | 00:00:00 | |
| AM1SDL-15 | 2026-08-31 11:27:50 | 54.21952 | 13.66909 | 45° | 82km/h | 8406m | 4.7m/s | -38.9°C | 33.9% | 341.2hPa | 2.9V | 00:00:00 | 00:37:23 | 00:00:00 | |
| DL1XH-15 | 2026-08-31 11:27:49 | 54.21859 | 13.66748 | 45° | 78km/h | 8377m | 5.3m/s | -38.8°C | 33.3% | 342.5hPa | 2.8V | 08:30:00 | 00:37:17 | 00:00:00 | |
| AA1-15 | 2026-08-31 11:27:48 | 54.21920 | 13.66853 | 46° | 91km/h | 8397m | 3.4m/s | -38.9°C | 34.3% | 341.6hPa | 2.9V | 18:12:15 | 00:37:21 | 00:00:00 | |
| DL1XH-west | 2026-08-31 11:27:47 | 54.21904 | 13.66825 | 47° | 89km/h | 8393m | 4.4m/s | -38.9°C | 34.5% | 341.8hPa | 2.9V | 18:12:15 | 00:37:20 | 00:00:00 | |
| AA1-15 | 2026-08-31 11:27:38 | 54.21768 | 13.66563 | 49° | 91km/h | 8342m | 6.7m/s | -38.5°C | 34.7% | 344.3hPa | 2.9V | 18:12:15 | 00:37:10 | 00:00:00 | |
| DL1XH-15 | 2026-08-31 11:27:37 | 54.21722 | 13.66473 | 49° | 93km/h | 8321m | 7.4m/s | -38.3°C | 35.1% | 345.5hPa | 2.9V | 08:30:00 | 00:37:07 | 00:00:00 | |
| DL1XH-west | 2026-08-31 11:27:36 | 54.21753 | 13.66533 | 49° | 91km/h | 8335m | 8.9m/s | -38.4°C | 34.6% | 344.8hPa | 2.8V | 18:12:15 | 00:37:09 | 00:00:00 | |
| SP3BTT-10 | 2026-08-31 11:27:36 | 54.21753 | 13.66533 | 49° | 82km/h | 8335m | 8.9m/s | 0°C | 0% | 0hPa | 2.9V | 00:00:00 | 00:00:00 | 00:00:00 | |
| DL1XH1-15 | 2026-08-31 11:27:28 | 54.21599 | 13.66251 | 39° | 86km/h | 8275m | 4.4m/s | -38°C | 36.2% | 347.8hPa | 2.9V | 08:30:00 | 00:36:59 | 00:00:00 | |
| AA1-15 | 2026-08-31 11:27:28 | 54.21599 | 13.66251 | 40° | 86km/h | 8275m | 4.4m/s | -38°C | 35.8% | 347.8hPa | 2.9V | 18:12:15 | 00:36:59 | 00:00:00 | |
| DL1XH-west | 2026-08-31 11:27:26 | 54.21583 | 13.66227 | 43° | 82km/h | 8271m | 4.8m/s | -37.9°C | 36.1% | 348.1hPa | 2.9V | 18:12:15 | 00:36:58 | 00:00:00 | |
| DL1XH-15 | 2026-08-31 11:27:26 | 54.21569 | 13.66202 | 49° | 82km/h | 8266m | 3.9m/s | -37.9°C | 36.9% | 348.2hPa | 2.9V | 08:30:00 | 00:36:57 | 00:00:00 | |
| DL1XH1-15 | 2026-08-31 11:27:22 | 54.21481 | 13.65954 | 51° | 78km/h | 8219m | 5.9m/s | -37.5°C | 36.4% | 350.6hPa | 2.9V | 08:30:00 | 00:36:49 | 00:00:00 | |
| DL1XH-15 | 2026-08-31 11:27:20 | 54.21455 | 13.65903 | 47° | 77km/h | 8206m | 6.9m/s | -37.4°C | 36% | 351.2hPa | 2.9V | 08:30:00 | 00:36:47 | 00:00:00 | |
| AA1-15 | 2026-08-31 11:27:15 | 54.21468 | 13.65928 | 49° | 78km/h | 8213m | 6.8m/s | -37.4°C | 36.4% | 351hPa | 2.9V | 18:12:15 | 00:36:48 | 00:00:00 | |
| DL1XH-west | 2026-08-31 11:27:14 | 54.21455 | 13.65903 | 48° | 77km/h | 8206m | 6.9m/s | -37.4°C | 36.3% | 351.2hPa | 2.9V | 18:12:15 | 00:36:47 | 00:00:00 | |
| AM1SDL-15 | 2026-08-31 11:27:14 | 54.21455 | 13.65903 | 48° | 80km/h | 8206m | 6.9m/s | -37.3°C | 36.0% | 351.1hPa | 2.9V | 00:00:00 | 00:36:47 | 00:00:00 | |
| DL1XH-15 | 2026-08-31 11:27:06 | 54.21330 | 13.65617 | 53° | 71km/h | 8147m | 5m/s | -36.8°C | 33.8% | 354.3hPa | 2.8V | 08:30:00 | 00:36:37 | 00:00:00 | |
| AA1-15 | 2026-08-31 11:27:04 | 54.21330 | 13.65617 | 54° | 71km/h | 8147m | 5m/s | -36.8°C | 33.8% | 354.3hPa | 2.8V | 18:12:15 | 00:36:37 | 00:00:00 | |
| DL1XH-west | 2026-08-31 11:26:58 | 54.21258 | 13.65465 | 49° | 84km/h | 8116m | 7m/s | -36.6°C | 29.2% | 355.8hPa | 2.9V | 18:12:15 | 00:36:31 | 00:00:00 | |
| DL1XH1-15 | 2026-08-31 11:26:55 | 54.21188 | 13.65312 | 54° | 91km/h | 8088m | 5m/s | -36.3°C | 28.8% | 357.1hPa | 2.9V | 08:30:00 | 00:36:26 | 00:00:00 | |
| AA1-15 | 2026-08-31 11:26:53 | 54.21188 | 13.65313 | 54° | 91km/h | 8088m | 5m/s | -36.3°C | 29.1% | 357.2hPa | 2.9V | 18:12:15 | 00:36:26 | 00:00:00 | |
| EDDB2-12 | 2026-08-31 11:26:49 | 54.21139 | 13.65198 | 53° | 68km/h | 8065m | 6.5m/s | -36.1°C | 25.3% | 358.4hPa | 2.9V | 00:00:00 | 00:00:00 | 00:00:00 | |
| MECKS9 | 2026-08-31 11:26:48 | 54.21139 | 13.65198 | 55° | 68km/h | 8065m | 6.5m/s | -36.1°C | 25.3% | 358.4hPa | 2.9V | 00:00:00 | 00:00:00 | 00:00:00 | |
| DL1XH-15 | 2026-08-31 11:26:47 | 54.21064 | 13.65013 | 54° | 84km/h | 8019m | 6.5m/s | -35.6°C | 24.7% | 360.8hPa | 2.9V | 08:30:00 | 00:36:14 | 00:00:00 | |
| DL1XH-west | 2026-08-31 11:26:47 | 54.21121 | 13.65155 | 57° | 58km/h | 8052m | 6m/s | -36°C | 27.5% | 359.1hPa | 2.8V | 18:12:15 | 00:36:20 | 00:00:00 | |
| DL1XH1-15 | 2026-08-31 11:26:45 | 54.21087 | 13.65068 | 53° | 71km/h | 8029m | 5.6m/s | -35.8°C | 27.2% | 360.2hPa | 2.9V | 08:30:00 | 00:36:16 | 00:00:00 | |
| AA1-15 | 2026-08-31 11:26:42 | 54.21076 | 13.65042 | 55° | 78km/h | 8024m | 4.8m/s | -35.7°C | 26.9% | 360.5hPa | 2.9V | 18:12:15 | 00:36:15 | 00:00:00 | |
| DL1XH-west | 2026-08-31 11:26:37 | 54.21021 | 13.64884 | 65° | 80km/h | 7991m | 3.1m/s | -35.4°C | 21.1% | 362.1hPa | 2.9V | 18:12:15 | 00:36:10 | 00:00:00 | |
| SP3BTT-10 | 2026-08-31 11:26:36 | 54.21012 | 13.64853 | 65° | 78km/h | 7987m | 4.9m/s | 0°C | 0% | 0hPa | 2.8V | 00:00:00 | 00:00:00 | 00:00:00 | |
| DL1XH1-15 | 2026-08-31 11:26:35 | 54.20983 | 13.64759 | 55° | 82km/h | 7969m | 7.2m/s | -35.2°C | 17.6% | 363.2hPa | 2.8V | 08:30:00 | 00:36:06 | 00:00:00 | |
| AA1-15 | 2026-08-31 11:26:31 | 54.20955 | 13.64701 | 48° | 91km/h | 7956m | 6.7m/s | -35°C | 17.5% | 363.9hPa | 2.9V | 18:12:15 | 00:36:04 | 00:00:00 | |
| DL1XH-west | 2026-08-31 11:26:26 | 54.20878 | 13.64576 | 40° | 71km/h | 7927m | 5.3m/s | -35.1°C | 10.5% | 365.5hPa | 2.8V | 18:12:15 | 00:35:59 | 00:00:00 | |
| DL1XH-15 | 2026-08-31 11:26:26 | 54.20814 | 13.64462 | 55° | 82km/h | 7895m | 4.5m/s | -35.2°C | 11.6% | 367.1hPa | 2.9V | 08:30:00 | 00:35:54 | 00:00:00 | |
| DL1XH1-15 | 2026-08-31 11:26:26 | 54.20839 | 13.64515 | 47° | 75km/h | 7907m | 7.4m/s | -35.1°C | 10.7% | 366.4hPa | 2.9V | 08:30:00 | 00:35:56 | 00:00:00 | |
| AA1-15 | 2026-08-31 11:26:21 | 54.20802 | 13.64432 | 58° | 84km/h | 7890m | 5.4m/s | -35.2°C | 12.4% | 367.4hPa | 2.9V | 18:12:15 | 00:35:53 | 00:00:00 | |
| DL1XH-west | 2026-08-31 11:26:16 | 54.20755 | 13.64319 | 49° | 77km/h | 7866m | 5.1m/s | -35.1°C | 13% | 368.7hPa | 2.8V | 18:12:15 | 00:35:49 | 00:00:00 | |
| AA1-15 | 2026-08-31 11:26:09 | 54.20665 | 13.64149 | 58° | 77km/h | 7821m | 5.6m/s | -35°C | 12.6% | 371.2hPa | 2.9V | 18:12:15 | 00:35:42 | 00:00:00 | |
| DL1XH-west | 2026-08-31 11:26:06 | 54.20625 | 13.64034 | 53° | 77km/h | 7803m | 2.8m/s | -34.8°C | 12.7% | 372.2hPa | 2.9V | 18:12:15 | 00:35:38 | 00:00:00 | |
| MECKS9 | 2026-08-31 11:26:04 | 54.20625 | 13.64034 | 54° | 77km/h | 7803m | 2.8m/s | -34.8°C | 10.9% | 372.2hPa | 2.9V | 00:00:00 | 00:00:00 | 00:00:00 | |
| AM1SDL-15 | 2026-08-31 11:26:02 | 54.20588 | 13.63958 | 50° | 75km/h | 7786m | 7.7m/s | -34.8°C | 12.0% | 373.0hPa | 2.9V | 00:00:00 | 00:35:35 | 00:00:00 | |
| DL1XH1-15 | 2026-08-31 11:25:59 | 54.20544 | 13.63846 | 61° | 75km/h | 7760m | 4.2m/s | -34.6°C | 11.9% | 374.7hPa | 2.8V | 08:30:00 | 00:35:31 | 00:00:00 | |
| AA1-15 | 2026-08-31 11:25:58 | 54.20544 | 13.63846 | 62° | 75km/h | 7760m | 4.2m/s | -34.6°C | 12.6% | 374.7hPa | 2.8V | 18:12:15 | 00:35:31 | 00:00:00 | |
| DL1XH-west | 2026-08-31 11:25:56 | 54.20505 | 13.63741 | 52° | 69km/h | 7739m | 7.7m/s | -34.5°C | 12.8% | 375.8hPa | 2.9V | 18:12:15 | 00:35:27 | 00:00:00 | |
| DL1XH-15 | 2026-08-31 11:25:55 | 54.20452 | 13.63657 | 41° | 78km/h | 7715m | 3.5m/s | -34.4°C | 13% | 377hPa | 2.8V | 08:30:00 | 00:35:23 | 00:00:00 | |
| AA1-15 | 2026-08-31 11:25:48 | 54.20420 | 13.63609 | 44° | 88km/h | 7707m | 5.2m/s | -34.4°C | 13.4% | 377.5hPa | 2.9V | 18:12:15 | 00:35:21 | 00:00:00 | |
| DL1XH-west | 2026-08-31 11:25:45 | 54.20374 | 13.63524 | 49° | 86km/h | 7687m | 7.6m/s | -34.2°C | 13.8% | 378.6hPa | 2.9V | 18:12:15 | 00:35:18 | 00:00:00 | |
| DL1XH-15 | 2026-08-31 11:25:43 | 54.20307 | 13.63403 | 44° | 68km/h | 7650m | 3.7m/s | -34.1°C | 14.9% | 380.6hPa | 2.8V | 08:30:00 | 00:35:13 | 00:00:00 | |
| DL1XH1-15 | 2026-08-31 11:25:38 | 54.20272 | 13.63338 | 51° | 69km/h | 7631m | 4.5m/s | -34°C | 0% | 381.7hPa | 2.9V | 08:30:00 | 00:35:10 | 00:00:00 | |
| AA1-15 | 2026-08-31 11:25:37 | 54.20272 | 13.63338 | 52° | 69km/h | 7632m | 4.5m/s | -34°C | 16.7% | 381.7hPa | 2.9V | 18:12:15 | 00:35:10 | 00:00:00 | |
| DL1XH-west | 2026-08-31 11:25:35 | 54.20222 | 13.63233 | 48° | 88km/h | 7608m | 7.8m/s | -33.9°C | 17.2% | 382.9hPa | 2.9V | 18:12:15 | 00:35:06 | 00:00:00 | |
| DL1XH1-15 | 2026-08-31 11:25:32 | 54.20144 | 13.63077 | 54° | 71km/h | 7574m | 5.8m/s | -33.6°C | 0% | 384.6hPa | 2.9V | 08:30:00 | 00:35:00 | 00:00:00 | |
| AA1-15 | 2026-08-31 11:25:26 | 54.20133 | 13.63052 | 52° | 73km/h | 7568m | 5.7m/s | -33.5°C | 17.5% | 384.9hPa | 2.9V | 18:12:15 | 00:34:59 | 00:00:00 | |
| DL1XH-west | 2026-08-31 11:25:24 | 54.20108 | 13.63004 | 46° | 77km/h | 7558m | 5.9m/s | -33.5°C | 17.6% | 385.5hPa | 2.9V | 18:12:15 | 00:34:57 | 00:00:00 | |
| DL1XH-15 | 2026-08-31 11:25:23 | 54.20049 | 13.62911 | 45° | 86km/h | 7536m | 5m/s | 0°C | 0% | 0hPa | 2.8V | 08:30:00 | 00:34:53 | 00:00:00 | |
| AA1-15 | 2026-08-31 11:25:15 | 54.19984 | 13.62772 | 51° | 75km/h | 7514m | 5.5m/s | -33°C | 17.4% | 388hPa | 2.9V | 18:12:15 | 00:34:48 | 00:00:00 | |
| DL1XH-15 | 2026-08-31 11:25:14 | 54.19910 | 13.62662 | 37° | 84km/h | 7476m | 6.7m/s | 0°C | 0% | 0hPa | 2.8V | 08:30:00 | 00:34:43 | 00:00:00 | |
| DL1XH-west | 2026-08-31 11:25:13 | 54.19957 | 13.62725 | 41° | 75km/h | 7500m | 7.3m/s | -32.9°C | 17.3% | 388.8hPa | 2.9V | 18:12:15 | 00:34:46 | 00:00:00 | |
| DL1XH1-15 | 2026-08-31 11:25:12 | 54.19862 | 13.62596 | 43° | 75km/h | 7461m | 3.1m/s | -32.5°C | 0% | 390.9hPa | 2.9V | 08:30:00 | 00:34:40 | 00:00:00 | |
| AA1-15 | 2026-08-31 11:25:04 | 54.19822 | 13.62527 | 46° | 73km/h | 7443m | 8.3m/s | -32.4°C | 16.4% | 392hPa | 2.9V | 18:12:15 | 00:34:37 | 00:00:00 | |
| DL1XH-15 | 2026-08-31 11:25:04 | 54.19771 | 13.62435 | 47° | 77km/h | 7412m | 5.5m/s | 0°C | 0% | 0hPa | 2.8V | 08:30:00 | 00:34:33 | 00:00:00 | |
| DL1XH-west | 2026-08-31 11:25:02 | 54.19797 | 13.62481 | 46° | 73km/h | 7426m | 6.9m/s | -32.2°C | 16.3% | 393hPa | 2.9V | 18:12:15 | 00:34:35 | 00:00:00 | |
| DL1XH-15 | 2026-08-31 11:24:53 | 54.19650 | 13.62186 | 52° | 73km/h | 7340m | 6.2m/s | 0°C | 0% | 0hPa | 2.9V | 08:30:00 | 00:34:23 | 00:00:00 | |
| AA1-15 | 2026-08-31 11:24:53 | 54.19684 | 13.62263 | 53° | 73km/h | 7362m | 9.5m/s | -31.7°C | 15.7% | 396.4hPa | 2.9V | 18:12:15 | 00:34:26 | 00:00:00 | |
| DL1XH1-15 | 2026-08-31 11:24:52 | 54.19618 | 13.62117 | 50° | 68km/h | 7323m | 7.2m/s | -31.4°C | 0% | 0hPa | 2.9V | 08:30:00 | 00:34:20 | 00:00:00 | |
| DL1XH-west | 2026-08-31 11:24:51 | 54.19661 | 13.62212 | 54° | 77km/h | 7347m | 8.9m/s | -31.5°C | 15.8% | 397.2hPa | 2.9V | 18:12:15 | 00:34:24 | 00:00:00 | |
| AM1SDL-15 | 2026-08-31 11:24:50 | 54.19650 | 13.62186 | 53° | 71km/h | 7340m | 6.1m/s | -31.4°C | 15.0% | 397.6hPa | 2.9V | 00:00:00 | 00:34:23 | 08:30:00 | |
| EDDB2-12 | 2026-08-31 11:24:45 | 54.19582 | 13.62048 | 47° | 75km/h | 7304m | 4.0m/s | -31.3°C | 16.4% | 399.9hPa | 2.9V | 00:00:00 | 00:00:00 | 00:00:00 | |
| SONDE2-11 | 2026-08-31 11:24:44 | 54.19582 | 13.62048 | 47° | 75km/h | 7304m | 4.0m/s | -31.3°C | 16.4% | 399.9hPa | 2.9V | 00:00:00 | 00:00:00 | 00:00:00 | |
| S3001 | 2026-08-31 11:24:43 | 54.19569 | 13.62025 | 46° | 75km/h | 7297m | 9.1m/s | -31.3°C | 16.3% | 400.2hPa | 2.9V | 00:00:00 | 00:00:00 | 00:00:00 | |
| DL1XH1-15 | 2026-08-31 11:24:42 | 54.19496 | 13.61882 | 51° | 73km/h | 7254m | 6.8m/s | -30.9°C | 0% | 0hPa | 2.9V | 08:30:00 | 00:34:10 | 00:00:00 | |
| AA1-15 | 2026-08-31 11:24:42 | 54.19556 | 13.62001 | 48° | 75km/h | 7290m | 5.4m/s | -31.2°C | 18.8% | 400.5hPa | 2.9V | 18:12:15 | 00:34:15 | 00:00:00 | |
| DL1XH-west | 2026-08-31 11:24:41 | 54.19531 | 13.61953 | 49° | 73km/h | 7276m | 8.4m/s | -31.1°C | 18.8% | 401.3hPa | 2.8V | 18:12:15 | 00:34:13 | 00:00:00 | |
| AA1-15 | 2026-08-31 11:24:31 | 54.19422 | 13.61754 | 41° | 69km/h | 7215m | 6.4m/s | -30.6°C | 18.9% | 404.9hPa | 2.9V | 18:12:15 | 00:34:04 | 00:00:00 | |
| DL1XH-west | 2026-08-31 11:24:29 | 54.19397 | 13.61714 | 46° | 68km/h | 7202m | 9.1m/s | 0°C | 0% | 405.6hPa | 2.9V | 18:12:15 | 00:34:02 | 00:00:00 | |
| DL1XH1-15 | 2026-08-31 11:24:28 | 54.19374 | 13.61671 | 50° | 68km/h | 7189m | 6.5m/s | 0°C | 0% | 0hPa | 2.9V | 08:30:00 | 00:34:00 | 00:00:00 | |
| AM1SDL-15 | 2026-08-31 11:24:26 | 54.19363 | 13.61649 | 50° | 66km/h | 7183m | 7.4m/s | -30.2°C | 17.7% | 406.7hPa | 2.9V | 00:00:00 | 00:33:59 | 00:00:00 | |
| DL1XH-15 | 2026-08-31 11:24:23 | 54.19301 | 13.61536 | 45° | 60km/h | 7147m | 6.5m/s | 0°C | 0% | 0hPa | 2.9V | 08:30:00 | 00:33:53 | 00:00:00 | |
| DL1XH1-15 | 2026-08-31 11:24:22 | 54.19266 | 13.61476 | 44° | 71km/h | 7128m | 5.7m/s | 0°C | 0% | 0hPa | 2.8V | 00:00:00 | 00:33:50 | 00:00:00 | |
| AA1-15 | 2026-08-31 11:24:20 | 54.19301 | 13.61536 | 46° | 60km/h | 7147m | 6.5m/s | -30°C | 18.7% | 408.6hPa | 2.9V | 18:12:15 | 00:33:53 | 00:00:00 | |
| DL1XH-west | 2026-08-31 11:24:18 | 54.19278 | 13.61497 | 45° | 68km/h | 7134m | 5.9m/s | 0°C | 0% | 0hPa | 2.9V | 18:12:15 | 00:33:51 | 00:00:00 | |
| AA1-15 | 2026-08-31 11:24:09 | 54.19166 | 13.61296 | 39° | 69km/h | 7082m | 8.5m/s | -29.5°C | 18.6% | 412.3hPa | 2.9V | 18:12:15 | 00:33:42 | 00:00:00 | |
| DL1XH-west | 2026-08-31 11:24:08 | 54.19152 | 13.61278 | 38° | 69km/h | 7075m | 5.8m/s | 0°C | 0% | 0hPa | 2.9V | 18:12:15 | 00:33:41 | 00:00:00 | |
| AA1-15 | 2026-08-31 11:23:59 | 54.19033 | 13.61066 | 45° | 64km/h | 7008m | 4.8m/s | -28.8°C | 18.6% | 416.6hPa | 2.9V | 18:12:15 | 00:33:31 | 00:00:00 | |
| AA1-15 | 2026-08-31 11:23:48 | 54.18894 | 13.60821 | 46° | 60km/h | 6946m | 5.2m/s | -28.3°C | 18.7% | 420.3hPa | 2.9V | 18:12:15 | 00:33:19 | 00:00:00 | |
| EDDB2-12 | 2026-08-31 11:23:43 | 54.18858 | 13.60735 | 56° | 68km/h | 6927m | 4.5m/s | -28.1°C | 16.6% | 421.5hPa | 2.9V | 00:00:00 | 00:00:00 | 00:00:00 | |
| SONDE2-11 | 2026-08-31 11:23:42 | 54.18858 | 13.60735 | 56° | 68km/h | 6927m | 4.5m/s | -28.1°C | 16.6% | 421.5hPa | 2.9V | 00:00:00 | 00:00:00 | 00:00:00 | |
| MECKS9 | 2026-08-31 11:23:40 | 54.18847 | 13.60710 | 55° | 73km/h | 6923m | 4.7m/s | -28.1°C | 16.7% | 421.8hPa | 2.9V | 00:00:00 | 00:00:00 | 00:00:00 | |
| AA1-15 | 2026-08-31 11:23:38 | 54.18627 | 13.60274 | 43° | 64km/h | 6803m | 4.4m/s | -27.1°C | 18.1% | 428.7hPa | 2.9V | 18:12:15 | 00:32:55 | 00:00:00 | |
| AA1-15 | 2026-08-31 11:23:28 | 54.18614 | 13.60255 | 41° | 68km/h | 6799m | 4.1m/s | -27.1°C | 18.3% | 428.9hPa | 2.9V | 18:12:15 | 00:32:54 | 00:00:00 | |
| DL1XH-15 | 2026-08-31 11:23:16 | 54.18521 | 13.60073 | 48° | 60km/h | 6754m | 5.5m/s | 0°C | 0% | 0hPa | 2.9V | 00:00:00 | 00:32:46 | 00:00:00 | |
| AA1-15 | 2026-08-31 11:23:12 | 54.18511 | 13.60053 | 49° | 60km/h | 6749m | 5.6m/s | -26.7°C | 17.8% | 431.8hPa | 2.9V | 18:12:15 | 00:32:45 | 00:00:00 | |
| EDDB2-12 | 2026-08-31 11:23:12 | 54.18500 | 13.60033 | 48° | 64km/h | 6744m | 3.8m/s | -26.6°C | 16.2% | 432.1hPa | 2.9V | 00:00:00 | 00:00:00 | 00:00:00 | |
| SONDE2-11 | 2026-08-31 11:23:11 | 54.18500 | 13.60033 | 48° | 64km/h | 6744m | 3.8m/s | -26.6°C | 16.2% | 432.1hPa | 2.9V | 00:00:00 | 00:00:00 | 00:00:00 | |
| S3001 | 2026-08-31 11:23:10 | 54.18477 | 13.59990 | 45° | 69km/h | 6736m | 5.7m/s | -26.6°C | 16.2% | 432.6hPa | 2.9V | 00:00:00 | 00:00:00 | 00:00:00 | |
| DL1XH-15 | 2026-08-31 11:23:02 | 54.18363 | 13.59812 | 48° | 69km/h | 6687m | 5.6m/s | 0°C | 0% | 0hPa | 2.9V | 00:00:00 | 00:32:33 | 00:00:00 | |
| AA1-15 | 2026-08-31 11:23:01 | 54.18375 | 13.59833 | 44° | 69km/h | 6693m | 5.9m/s | -26.3°C | 19.8% | 435.3hPa | 2.9V | 18:12:15 | 00:32:34 | 00:00:00 | |
| AA1-15 | 2026-08-31 11:22:50 | 54.18255 | 13.59595 | 44° | 64km/h | 6629m | 3.8m/s | -25.7°C | 19.3% | 439hPa | 2.9V | 18:12:15 | 00:32:23 | 00:00:00 | |
| AM1SDL-15 | 2026-08-31 11:22:50 | 54.18255 | 13.59595 | 45° | 66km/h | 6629m | 3.7m/s | 0°C | 0% | 0hPa | 2.9V | 00:00:00 | 00:32:23 | 00:00:00 | |
| MECKS9 | 2026-08-31 11:22:49 | 54.18254 | 13.59595 | 45° | 64km/h | 6629m | 3.8m/s | -25.7°C | 17.4% | 439.0hPa | 2.9V | 00:00:00 | 00:00:00 | 00:00:00 | |
| DL1XH-15 | 2026-08-31 11:22:46 | 54.18196 | 13.59485 | 48° | 64km/h | 6601m | 6.7m/s | 0°C | 0% | 0hPa | 2.9V | 00:00:00 | 00:32:18 | 00:00:00 | |
| AA1-15 | 2026-08-31 11:22:39 | 54.18143 | 13.59354 | 53° | 69km/h | 6565m | 7.8m/s | -25.2°C | 18.9% | 442.9hPa | 2.9V | 18:12:15 | 00:32:12 | 00:00:00 | |
| AM1SDL-15 | 2026-08-31 11:22:38 | 54.18131 | 13.59330 | 50° | 71km/h | 6558m | 5.8m/s | 0°C | 0% | 0hPa | 2.9V | 00:00:00 | 00:32:11 | 00:00:00 | |
| MECKS9 | 2026-08-31 11:22:37 | 54.18132 | 13.59330 | 51° | 71km/h | 6558m | 5.9m/s | -25.1°C | 16.8% | 443.3hPa | 2.9V | 00:00:00 | 00:00:00 | 00:00:00 | |
| DL1XH-15 | 2026-08-31 11:22:36 | 54.18053 | 13.59199 | 47° | 62km/h | 6523m | 5.2m/s | 0°C | 0% | 0hPa | 2.9V | 00:00:00 | 00:32:05 | 00:00:00 | |
| AA1-15 | 2026-08-31 11:22:28 | 54.18012 | 13.59106 | 53° | 78km/h | 6495m | 4.9m/s | -24.6°C | 18.6% | 447hPa | 2.8V | 18:12:15 | 00:32:01 | 00:00:00 | |
| AA1-15 | 2026-08-31 11:22:18 | 54.17900 | 13.58863 | 61° | 73km/h | 6429m | 7.6m/s | -24.1°C | 18.5% | 451.1hPa | 2.9V | 18:12:15 | 00:31:51 | 00:00:00 | |
| AA1-15 | 2026-08-31 11:22:07 | 54.17789 | 13.58587 | 60° | 64km/h | 6368m | 3.9m/s | -23.6°C | 20% | 454.8hPa | 2.9V | 18:12:15 | 00:31:40 | 00:00:00 | |
| AA1-15 | 2026-08-31 11:21:57 | 54.17684 | 13.58393 | 47° | 62km/h | 6313m | 8.4m/s | -23.2°C | 21.6% | 458.3hPa | 2.8V | 18:12:15 | 00:31:30 | 00:00:00 | |
| AA1-15 | 2026-08-31 11:21:46 | 54.17562 | 13.58126 | 54° | 68km/h | 6247m | 7.2m/s | -22.6°C | 21.4% | 462.7hPa | 2.9V | 18:12:15 | 00:31:19 | 00:00:00 | |
| AA1-15 | 2026-08-31 11:21:35 | 54.17427 | 13.57870 | 52° | 71km/h | 6172m | 7.1m/s | -22°C | 22.8% | 467.4hPa | 2.9V | 18:12:15 | 00:31:08 | 00:00:00 | |
| AA1-15 | 2026-08-31 11:21:24 | 54.17311 | 13.57635 | 51° | 71km/h | 6114m | 5.8m/s | -21.5°C | 23.4% | 471.2hPa | 2.8V | 18:12:15 | 00:30:57 | 00:00:00 | |
| AA1-15 | 2026-08-31 11:21:13 | 54.17189 | 13.57374 | 53° | 60km/h | 6048m | 7.3m/s | -21°C | 22.2% | 475.4hPa | 2.9V | 18:12:15 | 00:30:46 | 00:00:00 | |
| AA1-15 | 2026-08-31 11:21:02 | 54.17075 | 13.57132 | 51° | 69km/h | 5987m | 5.1m/s | -20.5°C | 23.3% | 479.3hPa | 2.9V | 18:12:15 | 00:30:35 | 00:00:00 | |
| AA1-15 | 2026-08-31 11:20:51 | 54.16974 | 13.56893 | 54° | 57km/h | 5920m | 8.6m/s | -20°C | 23.8% | 483.4hPa | 2.9V | 18:12:15 | 00:30:24 | 00:00:00 | |
| AA1-15 | 2026-08-31 11:20:40 | 54.16859 | 13.56674 | 56° | 60km/h | 5852m | 5m/s | -19.4°C | 24.3% | 487.9hPa | 2.9V | 18:12:15 | 00:30:13 | 00:00:00 | |
| AA1-15 | 2026-08-31 11:20:29 | 54.16746 | 13.56435 | 44° | 62km/h | 5786m | 3.3m/s | -18.8°C | 25% | 492.4hPa | 2.9V | 18:12:15 | 00:30:02 | 00:00:00 | |
| AA1-15 | 2026-08-31 11:20:18 | 54.16627 | 13.56188 | 45° | 57km/h | 5731m | 7.4m/s | -18.4°C | 24.7% | 495.9hPa | 2.9V | 18:12:15 | 00:29:51 | 00:00:00 | |
| AA1-15 | 2026-08-31 11:20:07 | 54.16499 | 13.55966 | 52° | 62km/h | 5660m | 6.2m/s | -17.8°C | 24.9% | 500.6hPa | 2.9V | 18:12:15 | 00:29:40 | 00:00:00 | |
| AA1-15 | 2026-08-31 11:19:56 | 54.16382 | 13.55720 | 51° | 58km/h | 5595m | 4.8m/s | -17.2°C | 22.1% | 505.1hPa | 2.9V | 18:12:15 | 00:29:29 | 00:00:00 | |
| AA1-15 | 2026-08-31 11:19:46 | 54.16293 | 13.55474 | 59° | 68km/h | 5542m | 6.7m/s | -16.8°C | 23.5% | 508.7hPa | 2.9V | 18:12:15 | 00:29:19 | 00:00:00 | |
| AA1-15 | 2026-08-31 11:19:36 | 54.16189 | 13.55244 | 54° | 66km/h | 5484m | 5.6m/s | -16.3°C | 22% | 512.6hPa | 2.9V | 18:12:15 | 00:29:09 | 00:00:00 | |
| AA1-15 | 2026-08-31 11:19:25 | 54.16080 | 13.55019 | 51° | 68km/h | 5420m | 7.3m/s | -15.9°C | 24.8% | 516.9hPa | 2.9V | 18:12:15 | 00:28:58 | 00:00:00 | |
| AA1-15 | 2026-08-31 11:19:14 | 54.15967 | 13.54796 | 58° | 62km/h | 5356m | 5.1m/s | -15.3°C | 22.3% | 521.2hPa | 2.9V | 18:12:15 | 00:28:47 | 00:00:00 | |
| AA1-15 | 2026-08-31 11:19:03 | 54.15865 | 13.54538 | 56° | 62km/h | 5298m | 6.8m/s | -14.8°C | 21.7% | 525.3hPa | 2.9V | 18:12:15 | 00:28:36 | 00:00:00 | |
| AA1-15 | 2026-08-31 11:18:52 | 54.15767 | 13.54309 | 47° | 64km/h | 5244m | 5.6m/s | -14.4°C | 26.9% | 529.2hPa | 2.8V | 18:12:15 | 00:28:25 | 00:00:00 | |
| AA1-15 | 2026-08-31 11:18:41 | 54.15667 | 13.54070 | 51° | 58km/h | 5180m | 6m/s | -13.8°C | 27.5% | 533.8hPa | 2.9V | 18:12:15 | 00:28:14 | 00:00:00 | |
| AA1-15 | 2026-08-31 11:18:31 | 54.15556 | 13.53880 | 51° | 58km/h | 5116m | 7.1m/s | -13.4°C | 28.9% | 538.1hPa | 2.9V | 18:12:15 | 00:28:04 | 00:00:00 | |
| AA1-15 | 2026-08-31 11:18:20 | 54.15449 | 13.53651 | 59° | 64km/h | 5048m | 4m/s | -12.9°C | 28.9% | 542.9hPa | 2.9V | 18:12:15 | 00:27:53 | 00:00:00 | |
| AA1-15 | 2026-08-31 11:18:09 | 54.15343 | 13.53406 | 53° | 62km/h | 4983m | 7.2m/s | -12.5°C | 30.9% | 547.2hPa | 2.9V | 18:12:15 | 00:27:42 | 00:00:00 | |
| AA1-15 | 2026-08-31 11:17:59 | 54.15251 | 13.53206 | 46° | 60km/h | 4928m | 6m/s | -12°C | 31.2% | 551.4hPa | 2.9V | 18:12:15 | 00:27:32 | 00:00:00 | |
| AA1-15 | 2026-08-31 11:17:48 | 54.15149 | 13.52975 | 47° | 66km/h | 4873m | 4.4m/s | -11.4°C | 30.2% | 555.5hPa | 2.9V | 18:12:15 | 00:27:21 | 00:00:00 | |
| AA1-15 | 2026-08-31 11:17:38 | 54.15032 | 13.52738 | 49° | 68km/h | 4810m | 6.4m/s | -11°C | 32.2% | 560.2hPa | 2.9V | 18:12:15 | 00:27:10 | 00:00:00 | |
| AA1-15 | 2026-08-31 11:17:26 | 54.14929 | 13.52534 | 45° | 62km/h | 4749m | 4.8m/s | -10.5°C | 31.5% | 564.6hPa | 2.9V | 18:12:15 | 00:26:59 | 00:00:00 | |
| AA1-15 | 2026-08-31 11:17:15 | 54.14813 | 13.52317 | 49° | 58km/h | 4684m | 3.8m/s | -10°C | 28% | 569.4hPa | 2.9V | 18:12:15 | 00:26:48 | 00:00:00 | |
| AA1-15 | 2026-08-31 11:17:05 | 54.14699 | 13.52101 | 52° | 69km/h | 4631m | 6.5m/s | -9.6°C | 26.3% | 573.5hPa | 2.8V | 18:12:15 | 00:26:38 | 00:00:00 | |
| AA1-15 | 2026-08-31 11:16:54 | 54.14602 | 13.51879 | 40° | 57km/h | 4568m | 4.3m/s | -9.1°C | 26.1% | 578.2hPa | 2.9V | 18:12:15 | 00:26:27 | 00:00:00 | |
| AA1-15 | 2026-08-31 11:16:43 | 54.14495 | 13.51685 | 45° | 64km/h | 4508m | 3.3m/s | -8.8°C | 28.8% | 582.7hPa | 2.9V | 18:12:15 | 00:26:16 | 00:00:00 | |
| AA1-15 | 2026-08-31 11:16:33 | 54.14388 | 13.51442 | 57° | 57km/h | 4450m | 5.7m/s | -8.5°C | 35.4% | 587.1hPa | 2.9V | 18:12:15 | 00:26:05 | 00:00:00 | |
| AA1-15 | 2026-08-31 11:16:21 | 54.14300 | 13.51251 | 59° | 53km/h | 4390m | 7.1m/s | -8°C | 36.5% | 591.5hPa | 2.9V | 18:12:15 | 00:25:54 | 00:00:00 | |
| AA1-15 | 2026-08-31 11:16:10 | 54.14211 | 13.51033 | 53° | 47km/h | 4339m | 4.7m/s | -7.9°C | 37.3% | 595.6hPa | 2.9V | 18:12:15 | 00:25:43 | 00:00:00 | |
| AA1-15 | 2026-08-31 11:15:59 | 54.14125 | 13.50825 | 56° | 49km/h | 4274m | 4.9m/s | -7.6°C | 44.8% | 600.4hPa | 2.9V | 18:12:15 | 00:25:32 | 00:00:00 | |
| AA1-15 | 2026-08-31 11:15:48 | 54.14035 | 13.50621 | 58° | 58km/h | 4226m | 6.2m/s | -7.2°C | 43.6% | 604.3hPa | 2.9V | 18:12:15 | 00:25:21 | 00:00:00 | |
| AA1-15 | 2026-08-31 11:15:37 | 54.13940 | 13.50413 | 44° | 60km/h | 4163m | 4.5m/s | -6.7°C | 44% | 609.3hPa | 2.9V | 18:12:15 | 00:25:10 | 00:00:00 | |
| AA1-15 | 2026-08-31 11:15:27 | 54.13854 | 13.50222 | 55° | 53km/h | 4109m | 4.7m/s | -6.6°C | 42.8% | 613.5hPa | 2.9V | 18:12:15 | 00:25:00 | 00:00:00 | |
| AA1-15 | 2026-08-31 11:15:17 | 54.13771 | 13.49996 | 59° | 55km/h | 4044m | 6.6m/s | -6.5°C | 48.4% | 618.7hPa | 2.9V | 18:12:15 | 00:24:48 | 00:00:00 | |
| AA1-15 | 2026-08-31 11:15:05 | 54.13701 | 13.49785 | 68° | 47km/h | 3995m | 5.4m/s | -6.3°C | 57.8% | 622.8hPa | 2.9V | 18:12:15 | 00:24:38 | 00:00:00 | |
| AA1-15 | 2026-08-31 11:14:55 | 54.13643 | 13.49576 | 67° | 55km/h | 3935m | 5.6m/s | -6.2°C | 67.7% | 627.4hPa | 2.9V | 18:12:15 | 00:24:28 | 00:00:00 | |
| AA1-15 | 2026-08-31 11:14:44 | 54.13578 | 13.49350 | 61° | 55km/h | 3875m | 5.2m/s | -6.1°C | 72.9% | 632hPa | 3V | 18:12:15 | 00:24:17 | 00:00:00 | |
| AA1-15 | 2026-08-31 11:14:33 | 54.13513 | 13.49139 | 63° | 49km/h | 3817m | 5.2m/s | -7°C | 72.9% | 636.9hPa | 2.9V | 18:12:15 | 00:24:06 | 00:00:00 | |
| AA1-15 | 2026-08-31 11:14:22 | 54.13456 | 13.48952 | 50° | 42km/h | 3754m | 5.2m/s | -6.3°C | 94.3% | 642hPa | 2.9V | 18:12:15 | 00:23:55 | 00:00:00 | |
| AA1-15 | 2026-08-31 11:14:11 | 54.13400 | 13.48806 | 55° | 33km/h | 3688m | 6m/s | -5.5°C | 96.5% | 647hPa | 2.9V | 18:12:15 | 00:23:44 | 00:00:00 | |
| AA1-15 | 2026-08-31 11:14:01 | 54.13357 | 13.48702 | 57° | 24km/h | 3634m | 6.5m/s | -5.1°C | 96.6% | 651.7hPa | 2.9V | 18:12:15 | 00:23:34 | 00:00:00 | |
| AA1-15 | 2026-08-31 11:13:50 | 54.13302 | 13.48571 | 58° | 37km/h | 3577m | 6m/s | -4.8°C | 92.9% | 656.7hPa | 2.9V | 18:12:15 | 00:23:23 | 00:00:00 | |
| AA1-15 | 2026-08-31 11:13:40 | 54.13249 | 13.48440 | 47° | 38km/h | 3517m | 8m/s | -4.3°C | 97.9% | 661.4hPa | 2.9V | 18:12:15 | 00:23:13 | 00:00:00 | |
| AA1-15 | 2026-08-31 11:13:29 | 54.13192 | 13.48291 | 70° | 38km/h | 3455m | 7.1m/s | -3.9°C | 97.1% | 666.8hPa | 2.9V | 18:12:15 | 00:23:02 | 00:00:00 | |
| AA1-15 | 2026-08-31 11:13:18 | 54.13152 | 13.48128 | 62° | 33km/h | 3394m | 4.7m/s | -3.5°C | 94.4% | 672.1hPa | 2.9V | 18:12:15 | 00:22:51 | 00:00:00 | |
| AA1-15 | 2026-08-31 11:13:07 | 54.13121 | 13.47963 | 71° | 37km/h | 3326m | 7.5m/s | -3.1°C | 94.9% | 677.8hPa | 2.9V | 18:12:15 | 00:22:40 | 00:00:00 | |
| AA1-15 | 2026-08-31 11:12:56 | 54.13083 | 13.47803 | 69° | 40km/h | 3264m | 5m/s | -2.6°C | 94.4% | 683.1hPa | 2.9V | 18:12:15 | 00:22:29 | 00:00:00 | |
| AA1-15 | 2026-08-31 11:12:45 | 54.13042 | 13.47639 | 64° | 42km/h | 3203m | 4.6m/s | -2.1°C | 92.9% | 688.3hPa | 2.9V | 18:12:15 | 00:22:18 | 00:00:00 | |
| AA1-15 | 2026-08-31 11:12:35 | 54.13003 | 13.47476 | 62° | 46km/h | 3148m | 6.1m/s | -1.7°C | 92% | 693hPa | 2.9V | 18:12:15 | 00:22:08 | 00:00:00 | |
| AA1-15 | 2026-08-31 11:12:24 | 54.12965 | 13.47301 | 69° | 35km/h | 3087m | 6.3m/s | -1.3°C | 91.4% | 698.3hPa | 2.9V | 18:12:15 | 00:21:57 | 00:00:00 | |
| AA1-15 | 2026-08-31 11:12:14 | 54.12920 | 13.47147 | 65° | 35km/h | 3031m | 7.4m/s | -0.9°C | 90.7% | 703.4hPa | 2.9V | 18:12:15 | 00:21:47 | 00:00:00 | |
| AA1-15 | 2026-08-31 11:12:03 | 54.12871 | 13.46991 | 62° | 42km/h | 2965m | 5m/s | -0.3°C | 88.1% | 709.2hPa | 2.9V | 18:12:15 | 00:21:36 | 00:00:00 | |
| AA1-15 | 2026-08-31 11:11:52 | 54.12820 | 13.46821 | 71° | 40km/h | 2903m | 5.5m/s | 0.3°C | 86.6% | 714.7hPa | 2.9V | 18:12:15 | 00:21:25 | 00:00:00 | |
| AA1-15 | 2026-08-31 11:11:41 | 54.12763 | 13.46662 | 66° | 42km/h | 2840m | 5.4m/s | 0.8°C | 85.8% | 720.3hPa | 2.9V | 18:12:15 | 00:21:14 | 00:00:00 | |
| AA1-15 | 2026-08-31 11:11:31 | 54.12714 | 13.46501 | 63° | 40km/h | 2776m | 5.9m/s | 1.3°C | 83.2% | 726hPa | 2.9V | 18:12:15 | 00:21:03 | 00:00:00 | |
| AA1-15 | 2026-08-31 11:11:19 | 54.12660 | 13.46341 | 53° | 37km/h | 2710m | 6m/s | 1.9°C | 80.2% | 731.8hPa | 2.9V | 18:12:15 | 00:20:52 | 00:00:00 | |
| AA1-15 | 2026-08-31 11:11:09 | 54.12611 | 13.46196 | 56° | 40km/h | 2652m | 5.6m/s | 2.3°C | 76.9% | 737.3hPa | 2.9V | 18:12:15 | 00:20:42 | 00:00:00 | |
| AA1-15 | 2026-08-31 11:10:58 | 54.12551 | 13.46030 | 61° | 42km/h | 2586m | 6.6m/s | 2.5°C | 82.2% | 743.2hPa | 2.9V | 18:12:15 | 00:20:31 | 00:00:00 | |
| AA1-15 | 2026-08-31 11:10:47 | 54.12479 | 13.45865 | 56° | 46km/h | 2521m | 6.8m/s | 3°C | 81% | 749.4hPa | 2.9V | 18:12:15 | 00:20:20 | 00:00:00 | |
| AA1-15 | 2026-08-31 11:10:36 | 54.12405 | 13.45697 | 54° | 42km/h | 2453m | 5.6m/s | 3.5°C | 82.7% | 755.5hPa | 2.9V | 18:12:15 | 00:20:09 | 00:00:00 | |
| AA1-15 | 2026-08-31 11:10:26 | 54.12346 | 13.45549 | 52° | 42km/h | 2395m | 5.7m/s | 3.9°C | 78.6% | 761.1hPa | 2.9V | 18:12:15 | 00:19:59 | 00:00:00 | |
| AA1-15 | 2026-08-31 11:10:15 | 54.12275 | 13.45379 | 52° | 44km/h | 2329m | 5.8m/s | 4.6°C | 74.1% | 767.1hPa | 2.9V | 18:12:15 | 00:19:48 | 00:00:00 | |
| AA1-15 | 2026-08-31 11:10:04 | 54.12202 | 13.45201 | 55° | 46km/h | 2267m | 5.2m/s | 5.1°C | 75.4% | 773.2hPa | 2.9V | 18:12:15 | 00:19:37 | 00:00:00 | |
| AA1-15 | 2026-08-31 11:09:51 | 54.12118 | 13.44995 | 57° | 44km/h | 2191m | 5.6m/s | 5.7°C | 73.5% | 780.4hPa | 2.9V | 18:12:15 | 00:19:24 | 00:00:00 | |
| AA1-15 | 2026-08-31 11:09:40 | 54.12050 | 13.44820 | 55° | 40km/h | 2126m | 6.1m/s | 6.3°C | 71.3% | 786.5hPa | 2.9V | 18:12:15 | 00:19:13 | 00:00:00 | |
| AA1-15 | 2026-08-31 11:09:30 | 54.11990 | 13.44665 | 59° | 40km/h | 2065m | 6.3m/s | 6.8°C | 70.8% | 792.4hPa | 2.9V | 18:12:15 | 00:19:03 | 00:00:00 | |
| AA1-15 | 2026-08-31 11:09:19 | 54.11932 | 13.44498 | 64° | 40km/h | 1999m | 5.9m/s | 7.2°C | 70.6% | 798.7hPa | 2.9V | 18:12:15 | 00:18:52 | 00:00:00 | |
| AA1-15 | 2026-08-31 11:09:18 | 54.11927 | 13.44482 | 62° | 42km/h | 1993m | 7.2m/s | 7.2°C | 70.5% | 799.4hPa | 2.9V | 18:12:15 | 00:18:51 | 00:00:00 | |
| AA1-15 | 2026-08-31 11:09:16 | 54.11917 | 13.44451 | 61° | 38km/h | 1980m | 6.5m/s | 7.1°C | 71.8% | 800.6hPa | 2.9V | 18:12:15 | 00:18:49 | 00:00:00 | |
| AA1-15 | 2026-08-31 11:09:15 | 54.11913 | 13.44437 | 64° | 37km/h | 1974m | 6.1m/s | 7°C | 71.8% | 801.2hPa | 2.9V | 18:12:15 | 00:18:48 | 00:00:00 | |
| AA1-15 | 2026-08-31 11:09:14 | 54.11909 | 13.44422 | 62° | 40km/h | 1967m | 6.7m/s | 7°C | 72.2% | 801.8hPa | 2.9V | 18:12:15 | 00:18:47 | 00:00:00 | |
| AA1-15 | 2026-08-31 11:09:12 | 54.11898 | 13.44390 | 60° | 40km/h | 1954m | 6.8m/s | 7.1°C | 73.1% | 803hPa | 2.9V | 18:12:15 | 00:18:45 | 00:00:00 | |
| AA1-15 | 2026-08-31 11:09:11 | 54.11893 | 13.44376 | 59° | 38km/h | 1947m | 6.8m/s | 7.1°C | 73.3% | 803.7hPa | 2.9V | 18:12:15 | 00:18:44 | 00:00:00 | |
| AA1-15 | 2026-08-31 11:09:10 | 54.11889 | 13.44362 | 63° | 38km/h | 1941m | 6.1m/s | 7.2°C | 73% | 804.4hPa | 2.9V | 18:12:15 | 00:18:43 | 00:00:00 | |
| AA1-15 | 2026-08-31 11:09:08 | 54.11881 | 13.44331 | 64° | 38km/h | 1929m | 6.6m/s | 7.3°C | 74.1% | 805.6hPa | 2.9V | 18:12:15 | 00:18:41 | 00:00:00 | |
| AA1-15 | 2026-08-31 11:09:07 | 54.11876 | 13.44317 | 60° | 37km/h | 1922m | 6.2m/s | 7.3°C | 74% | 806.3hPa | 2.9V | 18:12:15 | 00:18:40 | 00:00:00 | |
| AA1-15 | 2026-08-31 11:09:06 | 54.11871 | 13.44303 | 60° | 37km/h | 1916m | 5.9m/s | 7.3°C | 74.4% | 807hPa | 2.9V | 18:12:15 | 00:18:39 | 00:00:00 | |
| AA1-15 | 2026-08-31 11:09:05 | 54.11863 | 13.44274 | 63° | 40km/h | 1903m | 6.5m/s | 7.4°C | 74.4% | 808.2hPa | 2.9V | 18:12:15 | 00:18:37 | 00:00:00 | |
| AA1-15 | 2026-08-31 11:09:03 | 54.11858 | 13.44259 | 60° | 37km/h | 1897m | 5.9m/s | 7.4°C | 74.2% | 808.7hPa | 2.9V | 18:12:15 | 00:18:36 | 00:00:00 | |
| AA1-15 | 2026-08-31 11:09:02 | 54.11853 | 13.44245 | 60° | 35km/h | 1891m | 6.1m/s | 7.5°C | 74.2% | 809.3hPa | 2.9V | 18:12:15 | 00:18:35 | 00:00:00 | |
| AA1-15 | 2026-08-31 11:09:01 | 54.11849 | 13.44232 | 62° | 35km/h | 1885m | 6.2m/s | 7.5°C | 73.2% | 810hPa | 2.9V | 18:12:15 | 00:18:34 | 00:00:00 | |
| AA1-15 | 2026-08-31 11:08:59 | 54.11841 | 13.44203 | 67° | 40km/h | 1873m | 6.6m/s | 7.5°C | 72.7% | 0hPa | 2.9V | 18:12:15 | 00:18:32 | 00:00:00 | |
| AA1-15 | 2026-08-31 11:08:57 | 54.11833 | 13.44174 | 61° | 37km/h | 1860m | 6.1m/s | 7.5°C | 74.5% | 0hPa | 2.9V | 18:12:15 | 00:18:30 | 00:00:00 | |
| AA1-15 | 2026-08-31 11:08:55 | 54.11824 | 13.44146 | 62° | 38km/h | 1848m | 7.4m/s | 7.5°C | 74.7% | 0hPa | 2.9V | 18:12:15 | 00:18:28 | 00:00:00 | |
| AA1-15 | 2026-08-31 11:08:53 | 54.11813 | 13.44117 | 56° | 38km/h | 1835m | 6.1m/s | 7.4°C | 76.7% | 0hPa | 2.9V | 18:12:15 | 00:18:26 | 00:00:00 | |
| AA1-15 | 2026-08-31 11:08:52 | 54.11808 | 13.44104 | 57° | 37km/h | 1828m | 6.2m/s | 7.5°C | 76.2% | 0hPa | 2.9V | 18:12:15 | 00:18:25 | 00:00:00 | |
| AA1-15 | 2026-08-31 11:08:51 | 54.11804 | 13.44090 | 61° | 38km/h | 1823m | 5.5m/s | 7.4°C | 76.7% | 0hPa | 2.9V | 18:12:15 | 00:18:24 | 00:00:00 | |
| AA1-15 | 2026-08-31 11:08:49 | 54.11794 | 13.44058 | 64° | 42km/h | 1811m | 6.6m/s | 7.5°C | 77.4% | 0hPa | 2.9V | 18:12:15 | 00:18:22 | 00:00:00 | |
| AA1-15 | 2026-08-31 11:08:45 | 54.11769 | 13.43976 | 63° | 44km/h | 1781m | 6.3m/s | 7.7°C | 78% | 0hPa | 2.9V | 18:12:15 | 00:18:17 | 00:00:00 | |
| AA1-15 | 2026-08-31 11:08:44 | 54.11764 | 13.43960 | 57° | 44km/h | 1775m | 5.5m/s | 7.8°C | 78.9% | 0hPa | 2.9V | 18:12:15 | 00:18:16 | 00:00:00 | |
| AA1-15 | 2026-08-31 11:08:42 | 54.11758 | 13.43945 | 58° | 42km/h | 1769m | 6m/s | 7.8°C | 77.8% | 0hPa | 2.9V | 18:12:15 | 00:18:15 | 00:00:00 | |
| AA1-15 | 2026-08-31 11:08:41 | 54.11753 | 13.43929 | 63° | 40km/h | 1764m | 5.8m/s | 7.8°C | 79.2% | 0hPa | 2.9V | 18:12:15 | 00:18:14 | 00:00:00 | |
| AA1-15 | 2026-08-31 11:08:40 | 54.11749 | 13.43914 | 67° | 40km/h | 1758m | 5.5m/s | 7.9°C | 79.4% | 0hPa | 2.9V | 18:12:15 | 00:18:13 | 00:00:00 | |
| AA1-15 | 2026-08-31 11:08:38 | 54.11740 | 13.43881 | 61° | 42km/h | 1747m | 5.7m/s | 8°C | 79.9% | 0hPa | 2.9V | 18:12:15 | 00:18:11 | 00:00:00 | |
| AA1-15 | 2026-08-31 11:08:37 | 54.11734 | 13.43866 | 56° | 42km/h | 1741m | 5.4m/s | 8°C | 79.7% | 0hPa | 2.9V | 18:12:15 | 00:18:10 | 00:00:00 | |
| AA1-15 | 2026-08-31 11:08:36 | 54.11729 | 13.43851 | 60° | 42km/h | 1735m | 6.6m/s | 8.1°C | 79.4% | 0hPa | 2.9V | 18:12:15 | 00:18:09 | 00:00:00 | |
| AA1-15 | 2026-08-31 11:08:35 | 54.11724 | 13.43835 | 64° | 42km/h | 1729m | 5.7m/s | 8.1°C | 78.9% | 0hPa | 2.9V | 18:12:15 | 00:18:08 | 00:00:00 | |
| AA1-15 | 2026-08-31 11:08:34 | 54.11719 | 13.43819 | 62° | 44km/h | 1723m | 6.1m/s | 8.2°C | 78.8% | 0hPa | 2.9V | 18:12:15 | 00:18:07 | 00:00:00 | |
| AA1-15 | 2026-08-31 11:08:32 | 54.11707 | 13.43786 | 58° | 44km/h | 1711m | 6.8m/s | 8.3°C | 78.3% | 0hPa | 2.9V | 18:12:15 | 00:18:05 | 00:00:00 | |
| AA1-15 | 2026-08-31 11:08:30 | 54.11696 | 13.43756 | 58° | 40km/h | 1699m | 5.9m/s | 8.4°C | 79.4% | 0hPa | 2.9V | 18:12:15 | 00:18:03 | 00:00:00 | |
| AA1-15 | 2026-08-31 11:08:29 | 54.11690 | 13.43741 | 53° | 42km/h | 1693m | 6.9m/s | 8.4°C | 80.4% | 0hPa | 2.9V | 18:12:15 | 00:18:02 | 00:00:00 | |
| AA1-15 | 2026-08-31 11:08:28 | 54.11684 | 13.43727 | 55° | 40km/h | 1686m | 5.8m/s | 8.4°C | 80.9% | 0hPa | 2.9V | 18:12:15 | 00:18:01 | 00:00:00 | |
| AA1-15 | 2026-08-31 11:08:26 | 54.11673 | 13.43699 | 58° | 38km/h | 1674m | 5.7m/s | 8.5°C | 81.2% | 0hPa | 2.9V | 18:12:15 | 00:17:59 | 00:00:00 | |
| AA1-15 | 2026-08-31 11:08:25 | 54.11668 | 13.43684 | 58° | 44km/h | 1668m | 6.1m/s | 8.6°C | 0% | 0hPa | 2.9V | 18:12:15 | 00:17:58 | 00:00:00 | |
| AA1-15 | 2026-08-31 11:08:24 | 54.11662 | 13.43668 | 56° | 42km/h | 1662m | 6.1m/s | 0°C | 0% | 0hPa | 2.9V | 18:12:15 | 00:17:57 | 00:00:00 | |
| AA1-15 | 2026-08-31 11:08:23 | 54.11656 | 13.43654 | 55° | 38km/h | 1656m | 5.8m/s | 0°C | 0% | 0hPa | 2.9V | 18:12:15 | 00:17:56 | 00:00:00 | |
| AA1-15 | 2026-08-31 11:08:22 | 54.11645 | 13.43628 | 59° | 38km/h | 1644m | 5.8m/s | 0°C | 0% | 0hPa | 2.9V | 18:12:15 | 00:17:54 | 00:00:00 | |
| AA1-15 | 2026-08-31 11:08:19 | 54.11634 | 13.43601 | 50° | 38km/h | 1631m | 5.4m/s | 0°C | 0% | 0hPa | 2.9V | 18:12:15 | 00:17:52 | 00:00:00 | |
| AA1-15 | 2026-08-31 11:08:18 | 54.11627 | 13.43589 | 45° | 38km/h | 1625m | 5.7m/s | 0°C | 0% | 0hPa | 2.9V | 18:12:15 | 00:17:51 | 00:00:00 | |
| MECKS9 | 2026-08-31 11:07:53 | 54.11481 | 13.43250 | 53° | 40km/h | 1483m | 6.1m/s | 0°C | 0% | 0hPa | 0V | 00:00:00 | 00:00:00 | 00:00:00 |